<?xml version="1.0" encoding="UTF-8" standalone="no" ?>
<gpx xmlns="http://www.topografix.com/GPX/1/1" xmlns:xsi="http://www.w3.org/2001/XMLSchema-instance" xsi:schemaLocation="http://www.topografix.com/GPX/1/1 http://www.topografix.com/GPX/1/1/gpx.xsd" version="1.1" creator="VisuGPX - https://www.visugpx.com">
  <metadata>
    <name>2018-01-19 Bike ride-Ambérieux-Rancé O 36km</name>
    <desc><![CDATA[2018-01-19 Bike ride-Ambérieux-Rancé O 36km]]></desc>
  </metadata>
  <wpt lat="45.92455" lon="4.73716">
    <ele>174</ele>
    <name><![CDATA[]]></name>
  </wpt>
  <wpt lat="45.92461" lon="4.7371">
    <ele>174</ele>
    <name><![CDATA[]]></name>
    <desc><![CDATA[Created by Google My Tracks on Android  Name: 2018-01-19 10:45 Activity type: biking Description: - Total distance: 35.78 km (22.2 mi) Total time: 2:08:57 Moving time: 2:07:39 Average speed: 16.65 km/h (10.3 mi/h) Average moving speed: 16.82 km/h (10.5 mi/h) Max speed: 51.84 km/h (32.2 mi/h) Average pace: 3:36 min/km (5:48 min/mi) Average moving pace: 3:34 min/km (5:44 min/mi) Fastest pace: 1:09 min/km (1:52 min/mi) Max elevation: 334 m (1097 ft) Min elevation: 211 m (691 ft) Elevation gain: 401 m (1316 ft) Max grade: 29 % Min grade: -13 % Recorded: 19/01/2018 10:45]]></desc>
  </wpt>
  <trk>
    <name><![CDATA[2018-01-19 10:45]]></name>
    <trkseg>
      <trkpt lat="45.92455" lon="4.73716">
        <ele>174</ele>
        <time>2018-01-19T09:45:57.143Z</time>
      </trkpt>
      <trkpt lat="45.9246" lon="4.73707">
        <ele>174</ele>
        <time>2018-01-19T09:46:15Z</time>
      </trkpt>
      <trkpt lat="45.9246" lon="4.73707">
        <ele>174</ele>
        <time>2018-01-19T09:46:16Z</time>
      </trkpt>
      <trkpt lat="45.9246" lon="4.73707">
        <ele>174</ele>
        <time>2018-01-19T09:46:24Z</time>
      </trkpt>
      <trkpt lat="45.9246" lon="4.73707">
        <ele>174</ele>
        <time>2018-01-19T09:46:25Z</time>
      </trkpt>
      <trkpt lat="45.92468" lon="4.737">
        <ele>174</ele>
        <time>2018-01-19T09:46:32Z</time>
      </trkpt>
      <trkpt lat="45.92468" lon="4.73697">
        <ele>174</ele>
        <time>2018-01-19T09:46:33Z</time>
      </trkpt>
      <trkpt lat="45.92468" lon="4.73687">
        <ele>174</ele>
        <time>2018-01-19T09:46:37Z</time>
      </trkpt>
      <trkpt lat="45.92468" lon="4.73683">
        <ele>174</ele>
        <time>2018-01-19T09:46:38Z</time>
      </trkpt>
      <trkpt lat="45.9247" lon="4.73675">
        <ele>174</ele>
        <time>2018-01-19T09:46:40Z</time>
      </trkpt>
      <trkpt lat="45.9247" lon="4.7367">
        <ele>174</ele>
        <time>2018-01-19T09:46:41Z</time>
      </trkpt>
      <trkpt lat="45.92472" lon="4.73661">
        <ele>174</ele>
        <time>2018-01-19T09:46:43Z</time>
      </trkpt>
      <trkpt lat="45.92473" lon="4.73657">
        <ele>174</ele>
        <time>2018-01-19T09:46:44Z</time>
      </trkpt>
      <trkpt lat="45.92476" lon="4.73648">
        <ele>174</ele>
        <time>2018-01-19T09:46:47Z</time>
      </trkpt>
      <trkpt lat="45.92478" lon="4.73645">
        <ele>174</ele>
        <time>2018-01-19T09:46:48Z</time>
      </trkpt>
      <trkpt lat="45.92487" lon="4.73644">
        <ele>174</ele>
        <time>2018-01-19T09:46:51Z</time>
      </trkpt>
      <trkpt lat="45.9249" lon="4.73644">
        <ele>174</ele>
        <time>2018-01-19T09:46:52Z</time>
      </trkpt>
      <trkpt lat="45.92496" lon="4.73644">
        <ele>174</ele>
        <time>2018-01-19T09:46:54Z</time>
      </trkpt>
      <trkpt lat="45.92499" lon="4.73644">
        <ele>174</ele>
        <time>2018-01-19T09:46:55Z</time>
      </trkpt>
      <trkpt lat="45.92506" lon="4.73644">
        <ele>174</ele>
        <time>2018-01-19T09:46:57Z</time>
      </trkpt>
      <trkpt lat="45.92509" lon="4.73645">
        <ele>174</ele>
        <time>2018-01-19T09:46:58Z</time>
      </trkpt>
      <trkpt lat="45.92517" lon="4.73644">
        <ele>174</ele>
        <time>2018-01-19T09:47:00Z</time>
      </trkpt>
      <trkpt lat="45.92521" lon="4.73643">
        <ele>173</ele>
        <time>2018-01-19T09:47:01Z</time>
      </trkpt>
      <trkpt lat="45.92529" lon="4.73642">
        <ele>173</ele>
        <time>2018-01-19T09:47:03Z</time>
      </trkpt>
      <trkpt lat="45.92533" lon="4.73642">
        <ele>173</ele>
        <time>2018-01-19T09:47:04Z</time>
      </trkpt>
      <trkpt lat="45.92541" lon="4.73642">
        <ele>173</ele>
        <time>2018-01-19T09:47:06Z</time>
      </trkpt>
      <trkpt lat="45.92545" lon="4.73641">
        <ele>173</ele>
        <time>2018-01-19T09:47:07Z</time>
      </trkpt>
      <trkpt lat="45.92553" lon="4.73638">
        <ele>173</ele>
        <time>2018-01-19T09:47:09Z</time>
      </trkpt>
      <trkpt lat="45.92556" lon="4.73637">
        <ele>173</ele>
        <time>2018-01-19T09:47:10Z</time>
      </trkpt>
      <trkpt lat="45.92564" lon="4.73635">
        <ele>173</ele>
        <time>2018-01-19T09:47:12Z</time>
      </trkpt>
      <trkpt lat="45.92568" lon="4.73634">
        <ele>173</ele>
        <time>2018-01-19T09:47:13Z</time>
      </trkpt>
      <trkpt lat="45.92576" lon="4.73632">
        <ele>173</ele>
        <time>2018-01-19T09:47:15Z</time>
      </trkpt>
      <trkpt lat="45.92579" lon="4.73631">
        <ele>173</ele>
        <time>2018-01-19T09:47:16Z</time>
      </trkpt>
      <trkpt lat="45.92588" lon="4.73629">
        <ele>172</ele>
        <time>2018-01-19T09:47:18Z</time>
      </trkpt>
      <trkpt lat="45.92592" lon="4.73628">
        <ele>172</ele>
        <time>2018-01-19T09:47:19Z</time>
      </trkpt>
      <trkpt lat="45.92601" lon="4.73627">
        <ele>173</ele>
        <time>2018-01-19T09:47:21Z</time>
      </trkpt>
      <trkpt lat="45.92607" lon="4.73628">
        <ele>173</ele>
        <time>2018-01-19T09:47:22Z</time>
      </trkpt>
      <trkpt lat="45.92612" lon="4.73628">
        <ele>173</ele>
        <time>2018-01-19T09:47:23Z</time>
      </trkpt>
      <trkpt lat="45.92616" lon="4.73631">
        <ele>173</ele>
        <time>2018-01-19T09:47:24Z</time>
      </trkpt>
      <trkpt lat="45.92623" lon="4.73639">
        <ele>173</ele>
        <time>2018-01-19T09:47:26Z</time>
      </trkpt>
      <trkpt lat="45.92627" lon="4.73644">
        <ele>173</ele>
        <time>2018-01-19T09:47:27Z</time>
      </trkpt>
      <trkpt lat="45.92629" lon="4.73649">
        <ele>173</ele>
        <time>2018-01-19T09:47:28Z</time>
      </trkpt>
      <trkpt lat="45.92632" lon="4.73656">
        <ele>173</ele>
        <time>2018-01-19T09:47:29Z</time>
      </trkpt>
      <trkpt lat="45.92634" lon="4.73663">
        <ele>173</ele>
        <time>2018-01-19T09:47:30Z</time>
      </trkpt>
      <trkpt lat="45.92637" lon="4.73669">
        <ele>173</ele>
        <time>2018-01-19T09:47:31Z</time>
      </trkpt>
      <trkpt lat="45.92643" lon="4.73677">
        <ele>173</ele>
        <time>2018-01-19T09:47:33Z</time>
      </trkpt>
      <trkpt lat="45.92646" lon="4.73681">
        <ele>173</ele>
        <time>2018-01-19T09:47:34Z</time>
      </trkpt>
      <trkpt lat="45.92651" lon="4.7369">
        <ele>173</ele>
        <time>2018-01-19T09:47:36Z</time>
      </trkpt>
      <trkpt lat="45.92654" lon="4.73693">
        <ele>173</ele>
        <time>2018-01-19T09:47:37Z</time>
      </trkpt>
      <trkpt lat="45.9266" lon="4.73697">
        <ele>173</ele>
        <time>2018-01-19T09:47:39Z</time>
      </trkpt>
      <trkpt lat="45.92664" lon="4.737">
        <ele>173</ele>
        <time>2018-01-19T09:47:40Z</time>
      </trkpt>
      <trkpt lat="45.92672" lon="4.73705">
        <ele>174</ele>
        <time>2018-01-19T09:47:42Z</time>
      </trkpt>
      <trkpt lat="45.92676" lon="4.73708">
        <ele>173</ele>
        <time>2018-01-19T09:47:43Z</time>
      </trkpt>
      <trkpt lat="45.92684" lon="4.73713">
        <ele>173</ele>
        <time>2018-01-19T09:47:45Z</time>
      </trkpt>
      <trkpt lat="45.92688" lon="4.73715">
        <ele>173</ele>
        <time>2018-01-19T09:47:46Z</time>
      </trkpt>
      <trkpt lat="45.92692" lon="4.73716">
        <ele>173</ele>
        <time>2018-01-19T09:47:47Z</time>
      </trkpt>
      <trkpt lat="45.92697" lon="4.73716">
        <ele>173</ele>
        <time>2018-01-19T09:47:48Z</time>
      </trkpt>
      <trkpt lat="45.92702" lon="4.73717">
        <ele>173</ele>
        <time>2018-01-19T09:47:49Z</time>
      </trkpt>
      <trkpt lat="45.92707" lon="4.73718">
        <ele>173</ele>
        <time>2018-01-19T09:47:50Z</time>
      </trkpt>
      <trkpt lat="45.92711" lon="4.73719">
        <ele>173</ele>
        <time>2018-01-19T09:47:51Z</time>
      </trkpt>
      <trkpt lat="45.92716" lon="4.7372">
        <ele>173</ele>
        <time>2018-01-19T09:47:52Z</time>
      </trkpt>
      <trkpt lat="45.9272" lon="4.7372">
        <ele>173</ele>
        <time>2018-01-19T09:47:53Z</time>
      </trkpt>
      <trkpt lat="45.92725" lon="4.73721">
        <ele>173</ele>
        <time>2018-01-19T09:47:54Z</time>
      </trkpt>
      <trkpt lat="45.92734" lon="4.73722">
        <ele>173</ele>
        <time>2018-01-19T09:47:56Z</time>
      </trkpt>
      <trkpt lat="45.92739" lon="4.73722">
        <ele>173</ele>
        <time>2018-01-19T09:47:57Z</time>
      </trkpt>
      <trkpt lat="45.92743" lon="4.73723">
        <ele>173</ele>
        <time>2018-01-19T09:47:58Z</time>
      </trkpt>
      <trkpt lat="45.92748" lon="4.73723">
        <ele>173</ele>
        <time>2018-01-19T09:47:59Z</time>
      </trkpt>
      <trkpt lat="45.92756" lon="4.73726">
        <ele>172</ele>
        <time>2018-01-19T09:48:01Z</time>
      </trkpt>
      <trkpt lat="45.9276" lon="4.73727">
        <ele>172</ele>
        <time>2018-01-19T09:48:02Z</time>
      </trkpt>
      <trkpt lat="45.92766" lon="4.73731">
        <ele>172</ele>
        <time>2018-01-19T09:48:04Z</time>
      </trkpt>
      <trkpt lat="45.9277" lon="4.73733">
        <ele>172</ele>
        <time>2018-01-19T09:48:05Z</time>
      </trkpt>
      <trkpt lat="45.92777" lon="4.73738">
        <ele>172</ele>
        <time>2018-01-19T09:48:07Z</time>
      </trkpt>
      <trkpt lat="45.92779" lon="4.73739">
        <ele>172</ele>
        <time>2018-01-19T09:48:08Z</time>
      </trkpt>
      <trkpt lat="45.92784" lon="4.73748">
        <ele>172</ele>
        <time>2018-01-19T09:48:11Z</time>
      </trkpt>
      <trkpt lat="45.92787" lon="4.73751">
        <ele>173</ele>
        <time>2018-01-19T09:48:12Z</time>
      </trkpt>
      <trkpt lat="45.92795" lon="4.73755">
        <ele>173</ele>
        <time>2018-01-19T09:48:14Z</time>
      </trkpt>
      <trkpt lat="45.92799" lon="4.73758">
        <ele>173</ele>
        <time>2018-01-19T09:48:15Z</time>
      </trkpt>
      <trkpt lat="45.92803" lon="4.73761">
        <ele>173</ele>
        <time>2018-01-19T09:48:16Z</time>
      </trkpt>
      <trkpt lat="45.92807" lon="4.73765">
        <ele>173</ele>
        <time>2018-01-19T09:48:17Z</time>
      </trkpt>
      <trkpt lat="45.92813" lon="4.73768">
        <ele>173</ele>
        <time>2018-01-19T09:48:18Z</time>
      </trkpt>
      <trkpt lat="45.92818" lon="4.73771">
        <ele>173</ele>
        <time>2018-01-19T09:48:19Z</time>
      </trkpt>
      <trkpt lat="45.92822" lon="4.73775">
        <ele>173</ele>
        <time>2018-01-19T09:48:20Z</time>
      </trkpt>
      <trkpt lat="45.92826" lon="4.73778">
        <ele>173</ele>
        <time>2018-01-19T09:48:21Z</time>
      </trkpt>
      <trkpt lat="45.92831" lon="4.73782">
        <ele>173</ele>
        <time>2018-01-19T09:48:22Z</time>
      </trkpt>
      <trkpt lat="45.92835" lon="4.73786">
        <ele>173</ele>
        <time>2018-01-19T09:48:23Z</time>
      </trkpt>
      <trkpt lat="45.9284" lon="4.7379">
        <ele>173</ele>
        <time>2018-01-19T09:48:24Z</time>
      </trkpt>
      <trkpt lat="45.92845" lon="4.73793">
        <ele>173</ele>
        <time>2018-01-19T09:48:25Z</time>
      </trkpt>
      <trkpt lat="45.92849" lon="4.73797">
        <ele>173</ele>
        <time>2018-01-19T09:48:26Z</time>
      </trkpt>
      <trkpt lat="45.92853" lon="4.73803">
        <ele>173</ele>
        <time>2018-01-19T09:48:27Z</time>
      </trkpt>
      <trkpt lat="45.92856" lon="4.73808">
        <ele>173</ele>
        <time>2018-01-19T09:48:28Z</time>
      </trkpt>
      <trkpt lat="45.92858" lon="4.73814">
        <ele>173</ele>
        <time>2018-01-19T09:48:29Z</time>
      </trkpt>
      <trkpt lat="45.9286" lon="4.7382">
        <ele>173</ele>
        <time>2018-01-19T09:48:30Z</time>
      </trkpt>
      <trkpt lat="45.92862" lon="4.73827">
        <ele>173</ele>
        <time>2018-01-19T09:48:31Z</time>
      </trkpt>
      <trkpt lat="45.92864" lon="4.73833">
        <ele>173</ele>
        <time>2018-01-19T09:48:32Z</time>
      </trkpt>
      <trkpt lat="45.92866" lon="4.73839">
        <ele>173</ele>
        <time>2018-01-19T09:48:33Z</time>
      </trkpt>
      <trkpt lat="45.92868" lon="4.73845">
        <ele>173</ele>
        <time>2018-01-19T09:48:34Z</time>
      </trkpt>
      <trkpt lat="45.92869" lon="4.73852">
        <ele>173</ele>
        <time>2018-01-19T09:48:35Z</time>
      </trkpt>
      <trkpt lat="45.9287" lon="4.73859">
        <ele>173</ele>
        <time>2018-01-19T09:48:36Z</time>
      </trkpt>
      <trkpt lat="45.92872" lon="4.73866">
        <ele>173</ele>
        <time>2018-01-19T09:48:37Z</time>
      </trkpt>
      <trkpt lat="45.92874" lon="4.73872">
        <ele>173</ele>
        <time>2018-01-19T09:48:38Z</time>
      </trkpt>
      <trkpt lat="45.92875" lon="4.73879">
        <ele>173</ele>
        <time>2018-01-19T09:48:39Z</time>
      </trkpt>
      <trkpt lat="45.92877" lon="4.73891">
        <ele>173</ele>
        <time>2018-01-19T09:48:41Z</time>
      </trkpt>
      <trkpt lat="45.92877" lon="4.73893">
        <ele>173</ele>
        <time>2018-01-19T09:48:42Z</time>
      </trkpt>
      <trkpt lat="45.92879" lon="4.73899">
        <ele>173</ele>
        <time>2018-01-19T09:48:43Z</time>
      </trkpt>
      <trkpt lat="45.92881" lon="4.73905">
        <ele>173</ele>
        <time>2018-01-19T09:48:44Z</time>
      </trkpt>
      <trkpt lat="45.92881" lon="4.73913">
        <ele>173</ele>
        <time>2018-01-19T09:48:45Z</time>
      </trkpt>
      <trkpt lat="45.92883" lon="4.73921">
        <ele>172</ele>
        <time>2018-01-19T09:48:46Z</time>
      </trkpt>
      <trkpt lat="45.92883" lon="4.73927">
        <ele>172</ele>
        <time>2018-01-19T09:48:47Z</time>
      </trkpt>
      <trkpt lat="45.92884" lon="4.73934">
        <ele>172</ele>
        <time>2018-01-19T09:48:48Z</time>
      </trkpt>
      <trkpt lat="45.92883" lon="4.73946">
        <ele>172</ele>
        <time>2018-01-19T09:48:50Z</time>
      </trkpt>
      <trkpt lat="45.92883" lon="4.73953">
        <ele>172</ele>
        <time>2018-01-19T09:48:51Z</time>
      </trkpt>
      <trkpt lat="45.92884" lon="4.73961">
        <ele>172</ele>
        <time>2018-01-19T09:48:52Z</time>
      </trkpt>
      <trkpt lat="45.92883" lon="4.73967">
        <ele>172</ele>
        <time>2018-01-19T09:48:53Z</time>
      </trkpt>
      <trkpt lat="45.92882" lon="4.73978">
        <ele>172</ele>
        <time>2018-01-19T09:48:55Z</time>
      </trkpt>
      <trkpt lat="45.92882" lon="4.73984">
        <ele>172</ele>
        <time>2018-01-19T09:48:56Z</time>
      </trkpt>
      <trkpt lat="45.92879" lon="4.73995">
        <ele>172</ele>
        <time>2018-01-19T09:48:58Z</time>
      </trkpt>
      <trkpt lat="45.92878" lon="4.74001">
        <ele>172</ele>
        <time>2018-01-19T09:48:59Z</time>
      </trkpt>
      <trkpt lat="45.92876" lon="4.74012">
        <ele>172</ele>
        <time>2018-01-19T09:49:01Z</time>
      </trkpt>
      <trkpt lat="45.92876" lon="4.74018">
        <ele>172</ele>
        <time>2018-01-19T09:49:02Z</time>
      </trkpt>
      <trkpt lat="45.92875" lon="4.74024">
        <ele>172</ele>
        <time>2018-01-19T09:49:03Z</time>
      </trkpt>
      <trkpt lat="45.92873" lon="4.74031">
        <ele>172</ele>
        <time>2018-01-19T09:49:04Z</time>
      </trkpt>
      <trkpt lat="45.92871" lon="4.74036">
        <ele>172</ele>
        <time>2018-01-19T09:49:05Z</time>
      </trkpt>
      <trkpt lat="45.92868" lon="4.74042">
        <ele>172</ele>
        <time>2018-01-19T09:49:06Z</time>
      </trkpt>
      <trkpt lat="45.92866" lon="4.74049">
        <ele>172</ele>
        <time>2018-01-19T09:49:07Z</time>
      </trkpt>
      <trkpt lat="45.92862" lon="4.74053">
        <ele>172</ele>
        <time>2018-01-19T09:49:08Z</time>
      </trkpt>
      <trkpt lat="45.92859" lon="4.74058">
        <ele>172</ele>
        <time>2018-01-19T09:49:09Z</time>
      </trkpt>
      <trkpt lat="45.92855" lon="4.74063">
        <ele>172</ele>
        <time>2018-01-19T09:49:10Z</time>
      </trkpt>
      <trkpt lat="45.92851" lon="4.74068">
        <ele>172</ele>
        <time>2018-01-19T09:49:11Z</time>
      </trkpt>
      <trkpt lat="45.92847" lon="4.74071">
        <ele>172</ele>
        <time>2018-01-19T09:49:12Z</time>
      </trkpt>
      <trkpt lat="45.92844" lon="4.74077">
        <ele>172</ele>
        <time>2018-01-19T09:49:13Z</time>
      </trkpt>
      <trkpt lat="45.9284" lon="4.74082">
        <ele>171</ele>
        <time>2018-01-19T09:49:14Z</time>
      </trkpt>
      <trkpt lat="45.92837" lon="4.74087">
        <ele>171</ele>
        <time>2018-01-19T09:49:15Z</time>
      </trkpt>
      <trkpt lat="45.92833" lon="4.74092">
        <ele>171</ele>
        <time>2018-01-19T09:49:16Z</time>
      </trkpt>
      <trkpt lat="45.92829" lon="4.74096">
        <ele>171</ele>
        <time>2018-01-19T09:49:17Z</time>
      </trkpt>
      <trkpt lat="45.92824" lon="4.74101">
        <ele>171</ele>
        <time>2018-01-19T09:49:18Z</time>
      </trkpt>
      <trkpt lat="45.9282" lon="4.74107">
        <ele>171</ele>
        <time>2018-01-19T09:49:19Z</time>
      </trkpt>
      <trkpt lat="45.92816" lon="4.74111">
        <ele>172</ele>
        <time>2018-01-19T09:49:20Z</time>
      </trkpt>
      <trkpt lat="45.92812" lon="4.74114">
        <ele>172</ele>
        <time>2018-01-19T09:49:21Z</time>
      </trkpt>
      <trkpt lat="45.92807" lon="4.74119">
        <ele>172</ele>
        <time>2018-01-19T09:49:22Z</time>
      </trkpt>
      <trkpt lat="45.92803" lon="4.74123">
        <ele>172</ele>
        <time>2018-01-19T09:49:23Z</time>
      </trkpt>
      <trkpt lat="45.928" lon="4.74128">
        <ele>172</ele>
        <time>2018-01-19T09:49:24Z</time>
      </trkpt>
      <trkpt lat="45.92796" lon="4.74132">
        <ele>172</ele>
        <time>2018-01-19T09:49:25Z</time>
      </trkpt>
      <trkpt lat="45.92792" lon="4.74137">
        <ele>172</ele>
        <time>2018-01-19T09:49:26Z</time>
      </trkpt>
      <trkpt lat="45.92788" lon="4.74142">
        <ele>172</ele>
        <time>2018-01-19T09:49:27Z</time>
      </trkpt>
      <trkpt lat="45.92784" lon="4.74146">
        <ele>172</ele>
        <time>2018-01-19T09:49:28Z</time>
      </trkpt>
      <trkpt lat="45.92781" lon="4.74151">
        <ele>172</ele>
        <time>2018-01-19T09:49:29Z</time>
      </trkpt>
      <trkpt lat="45.92777" lon="4.74155">
        <ele>172</ele>
        <time>2018-01-19T09:49:30Z</time>
      </trkpt>
      <trkpt lat="45.92772" lon="4.74158">
        <ele>172</ele>
        <time>2018-01-19T09:49:31Z</time>
      </trkpt>
      <trkpt lat="45.92767" lon="4.74163">
        <ele>172</ele>
        <time>2018-01-19T09:49:32Z</time>
      </trkpt>
      <trkpt lat="45.92764" lon="4.74166">
        <ele>172</ele>
        <time>2018-01-19T09:49:33Z</time>
      </trkpt>
      <trkpt lat="45.9276" lon="4.74171">
        <ele>172</ele>
        <time>2018-01-19T09:49:34Z</time>
      </trkpt>
      <trkpt lat="45.92756" lon="4.74175">
        <ele>172</ele>
        <time>2018-01-19T09:49:35Z</time>
      </trkpt>
      <trkpt lat="45.92752" lon="4.74179">
        <ele>172</ele>
        <time>2018-01-19T09:49:36Z</time>
      </trkpt>
      <trkpt lat="45.92748" lon="4.74183">
        <ele>172</ele>
        <time>2018-01-19T09:49:37Z</time>
      </trkpt>
      <trkpt lat="45.92744" lon="4.74187">
        <ele>172</ele>
        <time>2018-01-19T09:49:38Z</time>
      </trkpt>
      <trkpt lat="45.92741" lon="4.74192">
        <ele>171</ele>
        <time>2018-01-19T09:49:39Z</time>
      </trkpt>
      <trkpt lat="45.92737" lon="4.74196">
        <ele>171</ele>
        <time>2018-01-19T09:49:40Z</time>
      </trkpt>
      <trkpt lat="45.92733" lon="4.74201">
        <ele>171</ele>
        <time>2018-01-19T09:49:41Z</time>
      </trkpt>
      <trkpt lat="45.92729" lon="4.74203">
        <ele>171</ele>
        <time>2018-01-19T09:49:42Z</time>
      </trkpt>
      <trkpt lat="45.92726" lon="4.74209">
        <ele>171</ele>
        <time>2018-01-19T09:49:43Z</time>
      </trkpt>
      <trkpt lat="45.92723" lon="4.74215">
        <ele>171</ele>
        <time>2018-01-19T09:49:44Z</time>
      </trkpt>
      <trkpt lat="45.9272" lon="4.7422">
        <ele>171</ele>
        <time>2018-01-19T09:49:45Z</time>
      </trkpt>
      <trkpt lat="45.92717" lon="4.74225">
        <ele>171</ele>
        <time>2018-01-19T09:49:46Z</time>
      </trkpt>
      <trkpt lat="45.92714" lon="4.74229">
        <ele>171</ele>
        <time>2018-01-19T09:49:47Z</time>
      </trkpt>
      <trkpt lat="45.92711" lon="4.74235">
        <ele>171</ele>
        <time>2018-01-19T09:49:48Z</time>
      </trkpt>
      <trkpt lat="45.92708" lon="4.74241">
        <ele>171</ele>
        <time>2018-01-19T09:49:49Z</time>
      </trkpt>
      <trkpt lat="45.92705" lon="4.74246">
        <ele>171</ele>
        <time>2018-01-19T09:49:50Z</time>
      </trkpt>
      <trkpt lat="45.92701" lon="4.74251">
        <ele>171</ele>
        <time>2018-01-19T09:49:51Z</time>
      </trkpt>
      <trkpt lat="45.92698" lon="4.74257">
        <ele>171</ele>
        <time>2018-01-19T09:49:52Z</time>
      </trkpt>
      <trkpt lat="45.92695" lon="4.74263">
        <ele>171</ele>
        <time>2018-01-19T09:49:53Z</time>
      </trkpt>
      <trkpt lat="45.92691" lon="4.74269">
        <ele>171</ele>
        <time>2018-01-19T09:49:54Z</time>
      </trkpt>
      <trkpt lat="45.92687" lon="4.74276">
        <ele>171</ele>
        <time>2018-01-19T09:49:55Z</time>
      </trkpt>
      <trkpt lat="45.92684" lon="4.74281">
        <ele>171</ele>
        <time>2018-01-19T09:49:56Z</time>
      </trkpt>
      <trkpt lat="45.92682" lon="4.74286">
        <ele>171</ele>
        <time>2018-01-19T09:49:57Z</time>
      </trkpt>
      <trkpt lat="45.92678" lon="4.74292">
        <ele>171</ele>
        <time>2018-01-19T09:49:58Z</time>
      </trkpt>
      <trkpt lat="45.92675" lon="4.74297">
        <ele>171</ele>
        <time>2018-01-19T09:49:59Z</time>
      </trkpt>
      <trkpt lat="45.92672" lon="4.74303">
        <ele>171</ele>
        <time>2018-01-19T09:50:00Z</time>
      </trkpt>
      <trkpt lat="45.92669" lon="4.74309">
        <ele>171</ele>
        <time>2018-01-19T09:50:01Z</time>
      </trkpt>
      <trkpt lat="45.92667" lon="4.74315">
        <ele>171</ele>
        <time>2018-01-19T09:50:02Z</time>
      </trkpt>
      <trkpt lat="45.92663" lon="4.74319">
        <ele>171</ele>
        <time>2018-01-19T09:50:03Z</time>
      </trkpt>
      <trkpt lat="45.92661" lon="4.74326">
        <ele>171</ele>
        <time>2018-01-19T09:50:04Z</time>
      </trkpt>
      <trkpt lat="45.92658" lon="4.74332">
        <ele>171</ele>
        <time>2018-01-19T09:50:05Z</time>
      </trkpt>
      <trkpt lat="45.92655" lon="4.74338">
        <ele>171</ele>
        <time>2018-01-19T09:50:06Z</time>
      </trkpt>
      <trkpt lat="45.92649" lon="4.74348">
        <ele>171</ele>
        <time>2018-01-19T09:50:08Z</time>
      </trkpt>
      <trkpt lat="45.92647" lon="4.74353">
        <ele>171</ele>
        <time>2018-01-19T09:50:09Z</time>
      </trkpt>
      <trkpt lat="45.92643" lon="4.74358">
        <ele>171</ele>
        <time>2018-01-19T09:50:10Z</time>
      </trkpt>
      <trkpt lat="45.92641" lon="4.74363">
        <ele>171</ele>
        <time>2018-01-19T09:50:11Z</time>
      </trkpt>
      <trkpt lat="45.92635" lon="4.74373">
        <ele>171</ele>
        <time>2018-01-19T09:50:13Z</time>
      </trkpt>
      <trkpt lat="45.92631" lon="4.74378">
        <ele>170</ele>
        <time>2018-01-19T09:50:14Z</time>
      </trkpt>
      <trkpt lat="45.92628" lon="4.74383">
        <ele>170</ele>
        <time>2018-01-19T09:50:15Z</time>
      </trkpt>
      <trkpt lat="45.92624" lon="4.74388">
        <ele>170</ele>
        <time>2018-01-19T09:50:16Z</time>
      </trkpt>
      <trkpt lat="45.92621" lon="4.74394">
        <ele>170</ele>
        <time>2018-01-19T09:50:17Z</time>
      </trkpt>
      <trkpt lat="45.92618" lon="4.74399">
        <ele>170</ele>
        <time>2018-01-19T09:50:18Z</time>
      </trkpt>
      <trkpt lat="45.92614" lon="4.74405">
        <ele>170</ele>
        <time>2018-01-19T09:50:19Z</time>
      </trkpt>
      <trkpt lat="45.92611" lon="4.74411">
        <ele>170</ele>
        <time>2018-01-19T09:50:20Z</time>
      </trkpt>
      <trkpt lat="45.92608" lon="4.74417">
        <ele>170</ele>
        <time>2018-01-19T09:50:21Z</time>
      </trkpt>
      <trkpt lat="45.92604" lon="4.74423">
        <ele>170</ele>
        <time>2018-01-19T09:50:22Z</time>
      </trkpt>
      <trkpt lat="45.92601" lon="4.74429">
        <ele>170</ele>
        <time>2018-01-19T09:50:23Z</time>
      </trkpt>
      <trkpt lat="45.92598" lon="4.74435">
        <ele>170</ele>
        <time>2018-01-19T09:50:24Z</time>
      </trkpt>
      <trkpt lat="45.92595" lon="4.7444">
        <ele>170</ele>
        <time>2018-01-19T09:50:25Z</time>
      </trkpt>
      <trkpt lat="45.92592" lon="4.74446">
        <ele>170</ele>
        <time>2018-01-19T09:50:26Z</time>
      </trkpt>
      <trkpt lat="45.9259" lon="4.74453">
        <ele>170</ele>
        <time>2018-01-19T09:50:27Z</time>
      </trkpt>
      <trkpt lat="45.92587" lon="4.74459">
        <ele>170</ele>
        <time>2018-01-19T09:50:28Z</time>
      </trkpt>
      <trkpt lat="45.92583" lon="4.74464">
        <ele>170</ele>
        <time>2018-01-19T09:50:29Z</time>
      </trkpt>
      <trkpt lat="45.92579" lon="4.7447">
        <ele>170</ele>
        <time>2018-01-19T09:50:30Z</time>
      </trkpt>
      <trkpt lat="45.92576" lon="4.74476">
        <ele>170</ele>
        <time>2018-01-19T09:50:31Z</time>
      </trkpt>
      <trkpt lat="45.92572" lon="4.74482">
        <ele>170</ele>
        <time>2018-01-19T09:50:32Z</time>
      </trkpt>
      <trkpt lat="45.92569" lon="4.74489">
        <ele>170</ele>
        <time>2018-01-19T09:50:33Z</time>
      </trkpt>
      <trkpt lat="45.92565" lon="4.74494">
        <ele>170</ele>
        <time>2018-01-19T09:50:34Z</time>
      </trkpt>
      <trkpt lat="45.92562" lon="4.74499">
        <ele>170</ele>
        <time>2018-01-19T09:50:35Z</time>
      </trkpt>
      <trkpt lat="45.9256" lon="4.74507">
        <ele>170</ele>
        <time>2018-01-19T09:50:36Z</time>
      </trkpt>
      <trkpt lat="45.92557" lon="4.74512">
        <ele>170</ele>
        <time>2018-01-19T09:50:37Z</time>
      </trkpt>
      <trkpt lat="45.92555" lon="4.74518">
        <ele>170</ele>
        <time>2018-01-19T09:50:38Z</time>
      </trkpt>
      <trkpt lat="45.92552" lon="4.74524">
        <ele>170</ele>
        <time>2018-01-19T09:50:39Z</time>
      </trkpt>
      <trkpt lat="45.92549" lon="4.74528">
        <ele>170</ele>
        <time>2018-01-19T09:50:40Z</time>
      </trkpt>
      <trkpt lat="45.92545" lon="4.74534">
        <ele>170</ele>
        <time>2018-01-19T09:50:41Z</time>
      </trkpt>
      <trkpt lat="45.92543" lon="4.7454">
        <ele>170</ele>
        <time>2018-01-19T09:50:42Z</time>
      </trkpt>
      <trkpt lat="45.9254" lon="4.74546">
        <ele>171</ele>
        <time>2018-01-19T09:50:43Z</time>
      </trkpt>
      <trkpt lat="45.92536" lon="4.74551">
        <ele>171</ele>
        <time>2018-01-19T09:50:44Z</time>
      </trkpt>
      <trkpt lat="45.92531" lon="4.74557">
        <ele>171</ele>
        <time>2018-01-19T09:50:45Z</time>
      </trkpt>
      <trkpt lat="45.92527" lon="4.74562">
        <ele>171</ele>
        <time>2018-01-19T09:50:46Z</time>
      </trkpt>
      <trkpt lat="45.92523" lon="4.74565">
        <ele>171</ele>
        <time>2018-01-19T09:50:47Z</time>
      </trkpt>
      <trkpt lat="45.92519" lon="4.7457">
        <ele>171</ele>
        <time>2018-01-19T09:50:48Z</time>
      </trkpt>
      <trkpt lat="45.92516" lon="4.74574">
        <ele>171</ele>
        <time>2018-01-19T09:50:49Z</time>
      </trkpt>
      <trkpt lat="45.92512" lon="4.74578">
        <ele>171</ele>
        <time>2018-01-19T09:50:50Z</time>
      </trkpt>
      <trkpt lat="45.92508" lon="4.74582">
        <ele>171</ele>
        <time>2018-01-19T09:50:51Z</time>
      </trkpt>
      <trkpt lat="45.92504" lon="4.74587">
        <ele>171</ele>
        <time>2018-01-19T09:50:52Z</time>
      </trkpt>
      <trkpt lat="45.92501" lon="4.74592">
        <ele>171</ele>
        <time>2018-01-19T09:50:53Z</time>
      </trkpt>
      <trkpt lat="45.92497" lon="4.74596">
        <ele>171</ele>
        <time>2018-01-19T09:50:54Z</time>
      </trkpt>
      <trkpt lat="45.92494" lon="4.74601">
        <ele>171</ele>
        <time>2018-01-19T09:50:55Z</time>
      </trkpt>
      <trkpt lat="45.9249" lon="4.74605">
        <ele>171</ele>
        <time>2018-01-19T09:50:56Z</time>
      </trkpt>
      <trkpt lat="45.92486" lon="4.74609">
        <ele>171</ele>
        <time>2018-01-19T09:50:57Z</time>
      </trkpt>
      <trkpt lat="45.92483" lon="4.74615">
        <ele>171</ele>
        <time>2018-01-19T09:50:58Z</time>
      </trkpt>
      <trkpt lat="45.92479" lon="4.7462">
        <ele>171</ele>
        <time>2018-01-19T09:50:59Z</time>
      </trkpt>
      <trkpt lat="45.92475" lon="4.74625">
        <ele>171</ele>
        <time>2018-01-19T09:51:00Z</time>
      </trkpt>
      <trkpt lat="45.92471" lon="4.7463">
        <ele>171</ele>
        <time>2018-01-19T09:51:01Z</time>
      </trkpt>
      <trkpt lat="45.92468" lon="4.74635">
        <ele>171</ele>
        <time>2018-01-19T09:51:02Z</time>
      </trkpt>
      <trkpt lat="45.92465" lon="4.7464">
        <ele>171</ele>
        <time>2018-01-19T09:51:03Z</time>
      </trkpt>
      <trkpt lat="45.92462" lon="4.74646">
        <ele>171</ele>
        <time>2018-01-19T09:51:04Z</time>
      </trkpt>
      <trkpt lat="45.92458" lon="4.74651">
        <ele>171</ele>
        <time>2018-01-19T09:51:05Z</time>
      </trkpt>
      <trkpt lat="45.92456" lon="4.74657">
        <ele>171</ele>
        <time>2018-01-19T09:51:06Z</time>
      </trkpt>
      <trkpt lat="45.92453" lon="4.74663">
        <ele>171</ele>
        <time>2018-01-19T09:51:07Z</time>
      </trkpt>
      <trkpt lat="45.92448" lon="4.74666">
        <ele>171</ele>
        <time>2018-01-19T09:51:08Z</time>
      </trkpt>
      <trkpt lat="45.92445" lon="4.74675">
        <ele>171</ele>
        <time>2018-01-19T09:51:10Z</time>
      </trkpt>
      <trkpt lat="45.92444" lon="4.74679">
        <ele>171</ele>
        <time>2018-01-19T09:51:11Z</time>
      </trkpt>
      <trkpt lat="45.92444" lon="4.74686">
        <ele>171</ele>
        <time>2018-01-19T09:51:12Z</time>
      </trkpt>
      <trkpt lat="45.9244" lon="4.74694">
        <ele>171</ele>
        <time>2018-01-19T09:51:13Z</time>
      </trkpt>
      <trkpt lat="45.92437" lon="4.747">
        <ele>171</ele>
        <time>2018-01-19T09:51:14Z</time>
      </trkpt>
      <trkpt lat="45.92434" lon="4.74707">
        <ele>171</ele>
        <time>2018-01-19T09:51:15Z</time>
      </trkpt>
      <trkpt lat="45.92431" lon="4.74713">
        <ele>171</ele>
        <time>2018-01-19T09:51:16Z</time>
      </trkpt>
      <trkpt lat="45.92429" lon="4.74721">
        <ele>171</ele>
        <time>2018-01-19T09:51:17Z</time>
      </trkpt>
      <trkpt lat="45.92426" lon="4.74727">
        <ele>171</ele>
        <time>2018-01-19T09:51:18Z</time>
      </trkpt>
      <trkpt lat="45.92423" lon="4.74733">
        <ele>171</ele>
        <time>2018-01-19T09:51:19Z</time>
      </trkpt>
      <trkpt lat="45.9242" lon="4.7474">
        <ele>172</ele>
        <time>2018-01-19T09:51:20Z</time>
      </trkpt>
      <trkpt lat="45.92418" lon="4.74748">
        <ele>172</ele>
        <time>2018-01-19T09:51:21Z</time>
      </trkpt>
      <trkpt lat="45.92415" lon="4.74755">
        <ele>172</ele>
        <time>2018-01-19T09:51:22Z</time>
      </trkpt>
      <trkpt lat="45.92414" lon="4.74763">
        <ele>172</ele>
        <time>2018-01-19T09:51:23Z</time>
      </trkpt>
      <trkpt lat="45.92413" lon="4.74771">
        <ele>172</ele>
        <time>2018-01-19T09:51:24Z</time>
      </trkpt>
      <trkpt lat="45.92411" lon="4.74777">
        <ele>171</ele>
        <time>2018-01-19T09:51:25Z</time>
      </trkpt>
      <trkpt lat="45.92409" lon="4.74784">
        <ele>171</ele>
        <time>2018-01-19T09:51:26Z</time>
      </trkpt>
      <trkpt lat="45.92409" lon="4.74793">
        <ele>171</ele>
        <time>2018-01-19T09:51:27Z</time>
      </trkpt>
      <trkpt lat="45.92407" lon="4.74799">
        <ele>171</ele>
        <time>2018-01-19T09:51:28Z</time>
      </trkpt>
      <trkpt lat="45.92406" lon="4.74806">
        <ele>171</ele>
        <time>2018-01-19T09:51:29Z</time>
      </trkpt>
      <trkpt lat="45.92405" lon="4.74813">
        <ele>171</ele>
        <time>2018-01-19T09:51:30Z</time>
      </trkpt>
      <trkpt lat="45.92404" lon="4.7482">
        <ele>171</ele>
        <time>2018-01-19T09:51:31Z</time>
      </trkpt>
      <trkpt lat="45.92402" lon="4.74828">
        <ele>171</ele>
        <time>2018-01-19T09:51:32Z</time>
      </trkpt>
      <trkpt lat="45.924" lon="4.74836">
        <ele>171</ele>
        <time>2018-01-19T09:51:33Z</time>
      </trkpt>
      <trkpt lat="45.92397" lon="4.74842">
        <ele>171</ele>
        <time>2018-01-19T09:51:34Z</time>
      </trkpt>
      <trkpt lat="45.92396" lon="4.74849">
        <ele>171</ele>
        <time>2018-01-19T09:51:35Z</time>
      </trkpt>
      <trkpt lat="45.92394" lon="4.74856">
        <ele>171</ele>
        <time>2018-01-19T09:51:36Z</time>
      </trkpt>
      <trkpt lat="45.92391" lon="4.74863">
        <ele>171</ele>
        <time>2018-01-19T09:51:37Z</time>
      </trkpt>
      <trkpt lat="45.92389" lon="4.74869">
        <ele>171</ele>
        <time>2018-01-19T09:51:38Z</time>
      </trkpt>
      <trkpt lat="45.92386" lon="4.74877">
        <ele>171</ele>
        <time>2018-01-19T09:51:39Z</time>
      </trkpt>
      <trkpt lat="45.92383" lon="4.74883">
        <ele>171</ele>
        <time>2018-01-19T09:51:40Z</time>
      </trkpt>
      <trkpt lat="45.92381" lon="4.7489">
        <ele>171</ele>
        <time>2018-01-19T09:51:41Z</time>
      </trkpt>
      <trkpt lat="45.92378" lon="4.74897">
        <ele>171</ele>
        <time>2018-01-19T09:51:42Z</time>
      </trkpt>
      <trkpt lat="45.92375" lon="4.74904">
        <ele>171</ele>
        <time>2018-01-19T09:51:43Z</time>
      </trkpt>
      <trkpt lat="45.92372" lon="4.74911">
        <ele>171</ele>
        <time>2018-01-19T09:51:44Z</time>
      </trkpt>
      <trkpt lat="45.9237" lon="4.74917">
        <ele>170</ele>
        <time>2018-01-19T09:51:45Z</time>
      </trkpt>
      <trkpt lat="45.92367" lon="4.74924">
        <ele>170</ele>
        <time>2018-01-19T09:51:46Z</time>
      </trkpt>
      <trkpt lat="45.92364" lon="4.7493">
        <ele>170</ele>
        <time>2018-01-19T09:51:47Z</time>
      </trkpt>
      <trkpt lat="45.92362" lon="4.74937">
        <ele>170</ele>
        <time>2018-01-19T09:51:48Z</time>
      </trkpt>
      <trkpt lat="45.9236" lon="4.74943">
        <ele>170</ele>
        <time>2018-01-19T09:51:49Z</time>
      </trkpt>
      <trkpt lat="45.92355" lon="4.74954">
        <ele>170</ele>
        <time>2018-01-19T09:51:51Z</time>
      </trkpt>
      <trkpt lat="45.92353" lon="4.74958">
        <ele>170</ele>
        <time>2018-01-19T09:51:52Z</time>
      </trkpt>
      <trkpt lat="45.92348" lon="4.74969">
        <ele>170</ele>
        <time>2018-01-19T09:51:54Z</time>
      </trkpt>
      <trkpt lat="45.92347" lon="4.74974">
        <ele>170</ele>
        <time>2018-01-19T09:51:55Z</time>
      </trkpt>
      <trkpt lat="45.92345" lon="4.7498">
        <ele>170</ele>
        <time>2018-01-19T09:51:56Z</time>
      </trkpt>
      <trkpt lat="45.92343" lon="4.74986">
        <ele>170</ele>
        <time>2018-01-19T09:51:57Z</time>
      </trkpt>
      <trkpt lat="45.9234" lon="4.74991">
        <ele>170</ele>
        <time>2018-01-19T09:51:58Z</time>
      </trkpt>
      <trkpt lat="45.92339" lon="4.74999">
        <ele>170</ele>
        <time>2018-01-19T09:51:59Z</time>
      </trkpt>
      <trkpt lat="45.92337" lon="4.75005">
        <ele>170</ele>
        <time>2018-01-19T09:52:00Z</time>
      </trkpt>
      <trkpt lat="45.92333" lon="4.75012">
        <ele>171</ele>
        <time>2018-01-19T09:52:01Z</time>
      </trkpt>
      <trkpt lat="45.92331" lon="4.75018">
        <ele>171</ele>
        <time>2018-01-19T09:52:02Z</time>
      </trkpt>
      <trkpt lat="45.92329" lon="4.75023">
        <ele>171</ele>
        <time>2018-01-19T09:52:03Z</time>
      </trkpt>
      <trkpt lat="45.92327" lon="4.75029">
        <ele>171</ele>
        <time>2018-01-19T09:52:04Z</time>
      </trkpt>
      <trkpt lat="45.92323" lon="4.75034">
        <ele>171</ele>
        <time>2018-01-19T09:52:05Z</time>
      </trkpt>
      <trkpt lat="45.9232" lon="4.7504">
        <ele>171</ele>
        <time>2018-01-19T09:52:06Z</time>
      </trkpt>
      <trkpt lat="45.92316" lon="4.75046">
        <ele>172</ele>
        <time>2018-01-19T09:52:07Z</time>
      </trkpt>
      <trkpt lat="45.92313" lon="4.75051">
        <ele>172</ele>
        <time>2018-01-19T09:52:08Z</time>
      </trkpt>
      <trkpt lat="45.9231" lon="4.75057">
        <ele>172</ele>
        <time>2018-01-19T09:52:09Z</time>
      </trkpt>
      <trkpt lat="45.92306" lon="4.75061">
        <ele>172</ele>
        <time>2018-01-19T09:52:10Z</time>
      </trkpt>
      <trkpt lat="45.92303" lon="4.75066">
        <ele>172</ele>
        <time>2018-01-19T09:52:11Z</time>
      </trkpt>
      <trkpt lat="45.92299" lon="4.75072">
        <ele>172</ele>
        <time>2018-01-19T09:52:12Z</time>
      </trkpt>
      <trkpt lat="45.92296" lon="4.75076">
        <ele>172</ele>
        <time>2018-01-19T09:52:13Z</time>
      </trkpt>
      <trkpt lat="45.92292" lon="4.75079">
        <ele>172</ele>
        <time>2018-01-19T09:52:14Z</time>
      </trkpt>
      <trkpt lat="45.92288" lon="4.75083">
        <ele>172</ele>
        <time>2018-01-19T09:52:15Z</time>
      </trkpt>
      <trkpt lat="45.92284" lon="4.75088">
        <ele>173</ele>
        <time>2018-01-19T09:52:16Z</time>
      </trkpt>
      <trkpt lat="45.9228" lon="4.75092">
        <ele>173</ele>
        <time>2018-01-19T09:52:17Z</time>
      </trkpt>
      <trkpt lat="45.92276" lon="4.75096">
        <ele>173</ele>
        <time>2018-01-19T09:52:18Z</time>
      </trkpt>
      <trkpt lat="45.92272" lon="4.75101">
        <ele>173</ele>
        <time>2018-01-19T09:52:19Z</time>
      </trkpt>
      <trkpt lat="45.92268" lon="4.75105">
        <ele>174</ele>
        <time>2018-01-19T09:52:20Z</time>
      </trkpt>
      <trkpt lat="45.92263" lon="4.75109">
        <ele>174</ele>
        <time>2018-01-19T09:52:21Z</time>
      </trkpt>
      <trkpt lat="45.92258" lon="4.75113">
        <ele>174</ele>
        <time>2018-01-19T09:52:22Z</time>
      </trkpt>
      <trkpt lat="45.92254" lon="4.75118">
        <ele>174</ele>
        <time>2018-01-19T09:52:23Z</time>
      </trkpt>
      <trkpt lat="45.92251" lon="4.75124">
        <ele>174</ele>
        <time>2018-01-19T09:52:24Z</time>
      </trkpt>
      <trkpt lat="45.92247" lon="4.75128">
        <ele>174</ele>
        <time>2018-01-19T09:52:25Z</time>
      </trkpt>
      <trkpt lat="45.92244" lon="4.75134">
        <ele>174</ele>
        <time>2018-01-19T09:52:26Z</time>
      </trkpt>
      <trkpt lat="45.9224" lon="4.75139">
        <ele>174</ele>
        <time>2018-01-19T09:52:27Z</time>
      </trkpt>
      <trkpt lat="45.92237" lon="4.75144">
        <ele>174</ele>
        <time>2018-01-19T09:52:28Z</time>
      </trkpt>
      <trkpt lat="45.92234" lon="4.75148">
        <ele>174</ele>
        <time>2018-01-19T09:52:29Z</time>
      </trkpt>
      <trkpt lat="45.92229" lon="4.75158">
        <ele>174</ele>
        <time>2018-01-19T09:52:31Z</time>
      </trkpt>
      <trkpt lat="45.92227" lon="4.75164">
        <ele>174</ele>
        <time>2018-01-19T09:52:32Z</time>
      </trkpt>
      <trkpt lat="45.92224" lon="4.7517">
        <ele>175</ele>
        <time>2018-01-19T09:52:33Z</time>
      </trkpt>
      <trkpt lat="45.92222" lon="4.75176">
        <ele>175</ele>
        <time>2018-01-19T09:52:34Z</time>
      </trkpt>
      <trkpt lat="45.92219" lon="4.75181">
        <ele>175</ele>
        <time>2018-01-19T09:52:35Z</time>
      </trkpt>
      <trkpt lat="45.92218" lon="4.75188">
        <ele>175</ele>
        <time>2018-01-19T09:52:36Z</time>
      </trkpt>
      <trkpt lat="45.92215" lon="4.752">
        <ele>175</ele>
        <time>2018-01-19T09:52:38Z</time>
      </trkpt>
      <trkpt lat="45.92213" lon="4.75206">
        <ele>175</ele>
        <time>2018-01-19T09:52:39Z</time>
      </trkpt>
      <trkpt lat="45.92213" lon="4.75213">
        <ele>175</ele>
        <time>2018-01-19T09:52:40Z</time>
      </trkpt>
      <trkpt lat="45.92213" lon="4.75219">
        <ele>175</ele>
        <time>2018-01-19T09:52:41Z</time>
      </trkpt>
      <trkpt lat="45.92212" lon="4.7523">
        <ele>175</ele>
        <time>2018-01-19T09:52:43Z</time>
      </trkpt>
      <trkpt lat="45.92212" lon="4.75236">
        <ele>175</ele>
        <time>2018-01-19T09:52:44Z</time>
      </trkpt>
      <trkpt lat="45.92213" lon="4.75248">
        <ele>175</ele>
        <time>2018-01-19T09:52:46Z</time>
      </trkpt>
      <trkpt lat="45.92214" lon="4.75254">
        <ele>175</ele>
        <time>2018-01-19T09:52:47Z</time>
      </trkpt>
      <trkpt lat="45.92214" lon="4.75265">
        <ele>176</ele>
        <time>2018-01-19T09:52:49Z</time>
      </trkpt>
      <trkpt lat="45.92212" lon="4.75271">
        <ele>176</ele>
        <time>2018-01-19T09:52:50Z</time>
      </trkpt>
      <trkpt lat="45.92212" lon="4.75282">
        <ele>176</ele>
        <time>2018-01-19T09:52:52Z</time>
      </trkpt>
      <trkpt lat="45.92212" lon="4.75287">
        <ele>176</ele>
        <time>2018-01-19T09:52:53Z</time>
      </trkpt>
      <trkpt lat="45.92211" lon="4.75297">
        <ele>176</ele>
        <time>2018-01-19T09:52:55Z</time>
      </trkpt>
      <trkpt lat="45.92211" lon="4.75304">
        <ele>176</ele>
        <time>2018-01-19T09:52:56Z</time>
      </trkpt>
      <trkpt lat="45.9221" lon="4.75315">
        <ele>176</ele>
        <time>2018-01-19T09:52:58Z</time>
      </trkpt>
      <trkpt lat="45.92209" lon="4.7532">
        <ele>176</ele>
        <time>2018-01-19T09:52:59Z</time>
      </trkpt>
      <trkpt lat="45.92208" lon="4.75331">
        <ele>176</ele>
        <time>2018-01-19T09:53:01Z</time>
      </trkpt>
      <trkpt lat="45.92207" lon="4.75337">
        <ele>177</ele>
        <time>2018-01-19T09:53:02Z</time>
      </trkpt>
      <trkpt lat="45.92204" lon="4.75349">
        <ele>177</ele>
        <time>2018-01-19T09:53:04Z</time>
      </trkpt>
      <trkpt lat="45.92202" lon="4.75355">
        <ele>177</ele>
        <time>2018-01-19T09:53:05Z</time>
      </trkpt>
      <trkpt lat="45.92199" lon="4.75362">
        <ele>177</ele>
        <time>2018-01-19T09:53:06Z</time>
      </trkpt>
      <trkpt lat="45.92196" lon="4.75367">
        <ele>177</ele>
        <time>2018-01-19T09:53:07Z</time>
      </trkpt>
      <trkpt lat="45.92195" lon="4.75373">
        <ele>177</ele>
        <time>2018-01-19T09:53:08Z</time>
      </trkpt>
      <trkpt lat="45.92192" lon="4.75379">
        <ele>177</ele>
        <time>2018-01-19T09:53:09Z</time>
      </trkpt>
      <trkpt lat="45.92191" lon="4.75387">
        <ele>177</ele>
        <time>2018-01-19T09:53:10Z</time>
      </trkpt>
      <trkpt lat="45.92188" lon="4.75394">
        <ele>177</ele>
        <time>2018-01-19T09:53:11Z</time>
      </trkpt>
      <trkpt lat="45.92186" lon="4.754">
        <ele>177</ele>
        <time>2018-01-19T09:53:12Z</time>
      </trkpt>
      <trkpt lat="45.92183" lon="4.75406">
        <ele>177</ele>
        <time>2018-01-19T09:53:13Z</time>
      </trkpt>
      <trkpt lat="45.92181" lon="4.75412">
        <ele>177</ele>
        <time>2018-01-19T09:53:14Z</time>
      </trkpt>
      <trkpt lat="45.92178" lon="4.75418">
        <ele>177</ele>
        <time>2018-01-19T09:53:15Z</time>
      </trkpt>
      <trkpt lat="45.92173" lon="4.75429">
        <ele>177</ele>
        <time>2018-01-19T09:53:17Z</time>
      </trkpt>
      <trkpt lat="45.92171" lon="4.75434">
        <ele>177</ele>
        <time>2018-01-19T09:53:18Z</time>
      </trkpt>
      <trkpt lat="45.92169" lon="4.75438">
        <ele>177</ele>
        <time>2018-01-19T09:53:19Z</time>
      </trkpt>
      <trkpt lat="45.92166" lon="4.75446">
        <ele>177</ele>
        <time>2018-01-19T09:53:20Z</time>
      </trkpt>
      <trkpt lat="45.92163" lon="4.75452">
        <ele>176</ele>
        <time>2018-01-19T09:53:21Z</time>
      </trkpt>
      <trkpt lat="45.9216" lon="4.75458">
        <ele>176</ele>
        <time>2018-01-19T09:53:22Z</time>
      </trkpt>
      <trkpt lat="45.92158" lon="4.75465">
        <ele>176</ele>
        <time>2018-01-19T09:53:23Z</time>
      </trkpt>
      <trkpt lat="45.92155" lon="4.75472">
        <ele>176</ele>
        <time>2018-01-19T09:53:24Z</time>
      </trkpt>
      <trkpt lat="45.92152" lon="4.75478">
        <ele>176</ele>
        <time>2018-01-19T09:53:25Z</time>
      </trkpt>
      <trkpt lat="45.92148" lon="4.75485">
        <ele>176</ele>
        <time>2018-01-19T09:53:26Z</time>
      </trkpt>
      <trkpt lat="45.92146" lon="4.75491">
        <ele>176</ele>
        <time>2018-01-19T09:53:27Z</time>
      </trkpt>
      <trkpt lat="45.92144" lon="4.75497">
        <ele>175</ele>
        <time>2018-01-19T09:53:28Z</time>
      </trkpt>
      <trkpt lat="45.92141" lon="4.75503">
        <ele>174</ele>
        <time>2018-01-19T09:53:29Z</time>
      </trkpt>
      <trkpt lat="45.92138" lon="4.75509">
        <ele>174</ele>
        <time>2018-01-19T09:53:30Z</time>
      </trkpt>
      <trkpt lat="45.92135" lon="4.75515">
        <ele>174</ele>
        <time>2018-01-19T09:53:31Z</time>
      </trkpt>
      <trkpt lat="45.92132" lon="4.7552">
        <ele>174</ele>
        <time>2018-01-19T09:53:32Z</time>
      </trkpt>
      <trkpt lat="45.9213" lon="4.75527">
        <ele>174</ele>
        <time>2018-01-19T09:53:33Z</time>
      </trkpt>
      <trkpt lat="45.92127" lon="4.75534">
        <ele>174</ele>
        <time>2018-01-19T09:53:34Z</time>
      </trkpt>
      <trkpt lat="45.92124" lon="4.7554">
        <ele>174</ele>
        <time>2018-01-19T09:53:35Z</time>
      </trkpt>
      <trkpt lat="45.92121" lon="4.75546">
        <ele>174</ele>
        <time>2018-01-19T09:53:36Z</time>
      </trkpt>
      <trkpt lat="45.92118" lon="4.75555">
        <ele>174</ele>
        <time>2018-01-19T09:53:37Z</time>
      </trkpt>
      <trkpt lat="45.92115" lon="4.75559">
        <ele>174</ele>
        <time>2018-01-19T09:53:38Z</time>
      </trkpt>
      <trkpt lat="45.92113" lon="4.75565">
        <ele>174</ele>
        <time>2018-01-19T09:53:39Z</time>
      </trkpt>
      <trkpt lat="45.92112" lon="4.75573">
        <ele>174</ele>
        <time>2018-01-19T09:53:40Z</time>
      </trkpt>
      <trkpt lat="45.92113" lon="4.75579">
        <ele>174</ele>
        <time>2018-01-19T09:53:41Z</time>
      </trkpt>
      <trkpt lat="45.92115" lon="4.75587">
        <ele>174</ele>
        <time>2018-01-19T09:53:42Z</time>
      </trkpt>
      <trkpt lat="45.92118" lon="4.75592">
        <ele>174</ele>
        <time>2018-01-19T09:53:43Z</time>
      </trkpt>
      <trkpt lat="45.92122" lon="4.75597">
        <ele>174</ele>
        <time>2018-01-19T09:53:44Z</time>
      </trkpt>
      <trkpt lat="45.92127" lon="4.75601">
        <ele>174</ele>
        <time>2018-01-19T09:53:45Z</time>
      </trkpt>
      <trkpt lat="45.92132" lon="4.75607">
        <ele>174</ele>
        <time>2018-01-19T09:53:46Z</time>
      </trkpt>
      <trkpt lat="45.92136" lon="4.7561">
        <ele>174</ele>
        <time>2018-01-19T09:53:47Z</time>
      </trkpt>
      <trkpt lat="45.9214" lon="4.75613">
        <ele>174</ele>
        <time>2018-01-19T09:53:48Z</time>
      </trkpt>
      <trkpt lat="45.92144" lon="4.75616">
        <ele>174</ele>
        <time>2018-01-19T09:53:49Z</time>
      </trkpt>
      <trkpt lat="45.92149" lon="4.7562">
        <ele>174</ele>
        <time>2018-01-19T09:53:50Z</time>
      </trkpt>
      <trkpt lat="45.92152" lon="4.75624">
        <ele>174</ele>
        <time>2018-01-19T09:53:51Z</time>
      </trkpt>
      <trkpt lat="45.92156" lon="4.75628">
        <ele>174</ele>
        <time>2018-01-19T09:53:52Z</time>
      </trkpt>
      <trkpt lat="45.9216" lon="4.75632">
        <ele>174</ele>
        <time>2018-01-19T09:53:53Z</time>
      </trkpt>
      <trkpt lat="45.92164" lon="4.75636">
        <ele>174</ele>
        <time>2018-01-19T09:53:54Z</time>
      </trkpt>
      <trkpt lat="45.92171" lon="4.75643">
        <ele>174</ele>
        <time>2018-01-19T09:53:56Z</time>
      </trkpt>
      <trkpt lat="45.92175" lon="4.75647">
        <ele>174</ele>
        <time>2018-01-19T09:53:57Z</time>
      </trkpt>
      <trkpt lat="45.9218" lon="4.75651">
        <ele>174</ele>
        <time>2018-01-19T09:53:58Z</time>
      </trkpt>
      <trkpt lat="45.92184" lon="4.75655">
        <ele>174</ele>
        <time>2018-01-19T09:53:59Z</time>
      </trkpt>
      <trkpt lat="45.92188" lon="4.75659">
        <ele>174</ele>
        <time>2018-01-19T09:54:00Z</time>
      </trkpt>
      <trkpt lat="45.92192" lon="4.75663">
        <ele>174</ele>
        <time>2018-01-19T09:54:01Z</time>
      </trkpt>
      <trkpt lat="45.92196" lon="4.75667">
        <ele>174</ele>
        <time>2018-01-19T09:54:02Z</time>
      </trkpt>
      <trkpt lat="45.92199" lon="4.75672">
        <ele>174</ele>
        <time>2018-01-19T09:54:03Z</time>
      </trkpt>
      <trkpt lat="45.92207" lon="4.75676">
        <ele>174</ele>
        <time>2018-01-19T09:54:05Z</time>
      </trkpt>
      <trkpt lat="45.92209" lon="4.75678">
        <ele>174</ele>
        <time>2018-01-19T09:54:06Z</time>
      </trkpt>
      <trkpt lat="45.92212" lon="4.75682">
        <ele>174</ele>
        <time>2018-01-19T09:54:07Z</time>
      </trkpt>
      <trkpt lat="45.92216" lon="4.75686">
        <ele>174</ele>
        <time>2018-01-19T09:54:08Z</time>
      </trkpt>
      <trkpt lat="45.92223" lon="4.75694">
        <ele>174</ele>
        <time>2018-01-19T09:54:10Z</time>
      </trkpt>
      <trkpt lat="45.92227" lon="4.75701">
        <ele>174</ele>
        <time>2018-01-19T09:54:11Z</time>
      </trkpt>
      <trkpt lat="45.92231" lon="4.75707">
        <ele>174</ele>
        <time>2018-01-19T09:54:12Z</time>
      </trkpt>
      <trkpt lat="45.92235" lon="4.75713">
        <ele>174</ele>
        <time>2018-01-19T09:54:13Z</time>
      </trkpt>
      <trkpt lat="45.92237" lon="4.75718">
        <ele>174</ele>
        <time>2018-01-19T09:54:14Z</time>
      </trkpt>
      <trkpt lat="45.9224" lon="4.75724">
        <ele>174</ele>
        <time>2018-01-19T09:54:15Z</time>
      </trkpt>
      <trkpt lat="45.92243" lon="4.7573">
        <ele>174</ele>
        <time>2018-01-19T09:54:16Z</time>
      </trkpt>
      <trkpt lat="45.92245" lon="4.75736">
        <ele>174</ele>
        <time>2018-01-19T09:54:17Z</time>
      </trkpt>
      <trkpt lat="45.92248" lon="4.75748">
        <ele>174</ele>
        <time>2018-01-19T09:54:19Z</time>
      </trkpt>
      <trkpt lat="45.92249" lon="4.75753">
        <ele>174</ele>
        <time>2018-01-19T09:54:20Z</time>
      </trkpt>
      <trkpt lat="45.92252" lon="4.75764">
        <ele>174</ele>
        <time>2018-01-19T09:54:22Z</time>
      </trkpt>
      <trkpt lat="45.92253" lon="4.75769">
        <ele>174</ele>
        <time>2018-01-19T09:54:23Z</time>
      </trkpt>
      <trkpt lat="45.92255" lon="4.75781">
        <ele>174</ele>
        <time>2018-01-19T09:54:25Z</time>
      </trkpt>
      <trkpt lat="45.92257" lon="4.75789">
        <ele>174</ele>
        <time>2018-01-19T09:54:26Z</time>
      </trkpt>
      <trkpt lat="45.92259" lon="4.75796">
        <ele>174</ele>
        <time>2018-01-19T09:54:27Z</time>
      </trkpt>
      <trkpt lat="45.92261" lon="4.75805">
        <ele>174</ele>
        <time>2018-01-19T09:54:28Z</time>
      </trkpt>
      <trkpt lat="45.92262" lon="4.7581">
        <ele>174</ele>
        <time>2018-01-19T09:54:29Z</time>
      </trkpt>
      <trkpt lat="45.92266" lon="4.75817">
        <ele>174</ele>
        <time>2018-01-19T09:54:30Z</time>
      </trkpt>
      <trkpt lat="45.92269" lon="4.75823">
        <ele>174</ele>
        <time>2018-01-19T09:54:31Z</time>
      </trkpt>
      <trkpt lat="45.92273" lon="4.75828">
        <ele>174</ele>
        <time>2018-01-19T09:54:32Z</time>
      </trkpt>
      <trkpt lat="45.92278" lon="4.75832">
        <ele>174</ele>
        <time>2018-01-19T09:54:33Z</time>
      </trkpt>
      <trkpt lat="45.92282" lon="4.75836">
        <ele>173</ele>
        <time>2018-01-19T09:54:34Z</time>
      </trkpt>
      <trkpt lat="45.92288" lon="4.75839">
        <ele>173</ele>
        <time>2018-01-19T09:54:35Z</time>
      </trkpt>
      <trkpt lat="45.92293" lon="4.75843">
        <ele>173</ele>
        <time>2018-01-19T09:54:36Z</time>
      </trkpt>
      <trkpt lat="45.92298" lon="4.75847">
        <ele>173</ele>
        <time>2018-01-19T09:54:37Z</time>
      </trkpt>
      <trkpt lat="45.92303" lon="4.7585">
        <ele>173</ele>
        <time>2018-01-19T09:54:38Z</time>
      </trkpt>
      <trkpt lat="45.92308" lon="4.75852">
        <ele>173</ele>
        <time>2018-01-19T09:54:39Z</time>
      </trkpt>
      <trkpt lat="45.92313" lon="4.75855">
        <ele>173</ele>
        <time>2018-01-19T09:54:40Z</time>
      </trkpt>
      <trkpt lat="45.92317" lon="4.75858">
        <ele>173</ele>
        <time>2018-01-19T09:54:41Z</time>
      </trkpt>
      <trkpt lat="45.92321" lon="4.7586">
        <ele>173</ele>
        <time>2018-01-19T09:54:42Z</time>
      </trkpt>
      <trkpt lat="45.92326" lon="4.75863">
        <ele>173</ele>
        <time>2018-01-19T09:54:43Z</time>
      </trkpt>
      <trkpt lat="45.9233" lon="4.75865">
        <ele>173</ele>
        <time>2018-01-19T09:54:44Z</time>
      </trkpt>
      <trkpt lat="45.92335" lon="4.75868">
        <ele>173</ele>
        <time>2018-01-19T09:54:45Z</time>
      </trkpt>
      <trkpt lat="45.9234" lon="4.7587">
        <ele>173</ele>
        <time>2018-01-19T09:54:46Z</time>
      </trkpt>
      <trkpt lat="45.92345" lon="4.75872">
        <ele>173</ele>
        <time>2018-01-19T09:54:47Z</time>
      </trkpt>
      <trkpt lat="45.9235" lon="4.75875">
        <ele>173</ele>
        <time>2018-01-19T09:54:48Z</time>
      </trkpt>
      <trkpt lat="45.92355" lon="4.75879">
        <ele>173</ele>
        <time>2018-01-19T09:54:49Z</time>
      </trkpt>
      <trkpt lat="45.9236" lon="4.75882">
        <ele>173</ele>
        <time>2018-01-19T09:54:50Z</time>
      </trkpt>
      <trkpt lat="45.92365" lon="4.75885">
        <ele>173</ele>
        <time>2018-01-19T09:54:51Z</time>
      </trkpt>
      <trkpt lat="45.9237" lon="4.75889">
        <ele>173</ele>
        <time>2018-01-19T09:54:52Z</time>
      </trkpt>
      <trkpt lat="45.92374" lon="4.75892">
        <ele>173</ele>
        <time>2018-01-19T09:54:53Z</time>
      </trkpt>
      <trkpt lat="45.9238" lon="4.75895">
        <ele>173</ele>
        <time>2018-01-19T09:54:54Z</time>
      </trkpt>
      <trkpt lat="45.92384" lon="4.75898">
        <ele>173</ele>
        <time>2018-01-19T09:54:55Z</time>
      </trkpt>
      <trkpt lat="45.92388" lon="4.75902">
        <ele>173</ele>
        <time>2018-01-19T09:54:56Z</time>
      </trkpt>
      <trkpt lat="45.92396" lon="4.75907">
        <ele>173</ele>
        <time>2018-01-19T09:54:58Z</time>
      </trkpt>
      <trkpt lat="45.924" lon="4.75911">
        <ele>173</ele>
        <time>2018-01-19T09:54:59Z</time>
      </trkpt>
      <trkpt lat="45.92408" lon="4.75915">
        <ele>172</ele>
        <time>2018-01-19T09:55:01Z</time>
      </trkpt>
      <trkpt lat="45.92412" lon="4.75919">
        <ele>172</ele>
        <time>2018-01-19T09:55:02Z</time>
      </trkpt>
      <trkpt lat="45.92416" lon="4.75922">
        <ele>172</ele>
        <time>2018-01-19T09:55:03Z</time>
      </trkpt>
      <trkpt lat="45.9242" lon="4.75925">
        <ele>172</ele>
        <time>2018-01-19T09:55:04Z</time>
      </trkpt>
      <trkpt lat="45.92428" lon="4.75931">
        <ele>172</ele>
        <time>2018-01-19T09:55:06Z</time>
      </trkpt>
      <trkpt lat="45.92431" lon="4.75935">
        <ele>172</ele>
        <time>2018-01-19T09:55:07Z</time>
      </trkpt>
      <trkpt lat="45.92438" lon="4.75941">
        <ele>172</ele>
        <time>2018-01-19T09:55:09Z</time>
      </trkpt>
      <trkpt lat="45.92442" lon="4.75943">
        <ele>172</ele>
        <time>2018-01-19T09:55:10Z</time>
      </trkpt>
      <trkpt lat="45.92448" lon="4.75949">
        <ele>172</ele>
        <time>2018-01-19T09:55:12Z</time>
      </trkpt>
      <trkpt lat="45.92452" lon="4.75951">
        <ele>172</ele>
        <time>2018-01-19T09:55:13Z</time>
      </trkpt>
      <trkpt lat="45.92458" lon="4.75957">
        <ele>172</ele>
        <time>2018-01-19T09:55:15Z</time>
      </trkpt>
      <trkpt lat="45.92462" lon="4.75959">
        <ele>172</ele>
        <time>2018-01-19T09:55:16Z</time>
      </trkpt>
      <trkpt lat="45.92469" lon="4.75965">
        <ele>172</ele>
        <time>2018-01-19T09:55:18Z</time>
      </trkpt>
      <trkpt lat="45.92472" lon="4.75967">
        <ele>172</ele>
        <time>2018-01-19T09:55:19Z</time>
      </trkpt>
      <trkpt lat="45.92478" lon="4.75971">
        <ele>172</ele>
        <time>2018-01-19T09:55:21Z</time>
      </trkpt>
      <trkpt lat="45.92481" lon="4.75974">
        <ele>172</ele>
        <time>2018-01-19T09:55:22Z</time>
      </trkpt>
      <trkpt lat="45.92488" lon="4.75979">
        <ele>172</ele>
        <time>2018-01-19T09:55:24Z</time>
      </trkpt>
      <trkpt lat="45.92492" lon="4.75982">
        <ele>172</ele>
        <time>2018-01-19T09:55:25Z</time>
      </trkpt>
      <trkpt lat="45.92499" lon="4.75987">
        <ele>172</ele>
        <time>2018-01-19T09:55:27Z</time>
      </trkpt>
      <trkpt lat="45.92503" lon="4.7599">
        <ele>172</ele>
        <time>2018-01-19T09:55:28Z</time>
      </trkpt>
      <trkpt lat="45.9251" lon="4.75996">
        <ele>172</ele>
        <time>2018-01-19T09:55:30Z</time>
      </trkpt>
      <trkpt lat="45.92514" lon="4.75999">
        <ele>172</ele>
        <time>2018-01-19T09:55:31Z</time>
      </trkpt>
      <trkpt lat="45.92521" lon="4.76005">
        <ele>172</ele>
        <time>2018-01-19T09:55:33Z</time>
      </trkpt>
      <trkpt lat="45.92525" lon="4.76008">
        <ele>172</ele>
        <time>2018-01-19T09:55:34Z</time>
      </trkpt>
      <trkpt lat="45.92529" lon="4.76011">
        <ele>172</ele>
        <time>2018-01-19T09:55:35Z</time>
      </trkpt>
      <trkpt lat="45.92533" lon="4.76014">
        <ele>172</ele>
        <time>2018-01-19T09:55:36Z</time>
      </trkpt>
      <trkpt lat="45.92537" lon="4.76017">
        <ele>172</ele>
        <time>2018-01-19T09:55:37Z</time>
      </trkpt>
      <trkpt lat="45.92542" lon="4.7602">
        <ele>172</ele>
        <time>2018-01-19T09:55:38Z</time>
      </trkpt>
      <trkpt lat="45.92546" lon="4.76023">
        <ele>172</ele>
        <time>2018-01-19T09:55:39Z</time>
      </trkpt>
      <trkpt lat="45.9255" lon="4.76026">
        <ele>172</ele>
        <time>2018-01-19T09:55:40Z</time>
      </trkpt>
      <trkpt lat="45.92558" lon="4.76031">
        <ele>172</ele>
        <time>2018-01-19T09:55:42Z</time>
      </trkpt>
      <trkpt lat="45.92562" lon="4.76034">
        <ele>172</ele>
        <time>2018-01-19T09:55:43Z</time>
      </trkpt>
      <trkpt lat="45.92566" lon="4.76037">
        <ele>172</ele>
        <time>2018-01-19T09:55:44Z</time>
      </trkpt>
      <trkpt lat="45.9257" lon="4.7604">
        <ele>172</ele>
        <time>2018-01-19T09:55:45Z</time>
      </trkpt>
      <trkpt lat="45.92574" lon="4.76043">
        <ele>171</ele>
        <time>2018-01-19T09:55:46Z</time>
      </trkpt>
      <trkpt lat="45.92579" lon="4.76047">
        <ele>171</ele>
        <time>2018-01-19T09:55:47Z</time>
      </trkpt>
      <trkpt lat="45.92583" lon="4.7605">
        <ele>171</ele>
        <time>2018-01-19T09:55:48Z</time>
      </trkpt>
      <trkpt lat="45.92588" lon="4.76054">
        <ele>171</ele>
        <time>2018-01-19T09:55:49Z</time>
      </trkpt>
      <trkpt lat="45.92592" lon="4.76057">
        <ele>171</ele>
        <time>2018-01-19T09:55:50Z</time>
      </trkpt>
      <trkpt lat="45.92597" lon="4.76061">
        <ele>171</ele>
        <time>2018-01-19T09:55:51Z</time>
      </trkpt>
      <trkpt lat="45.92602" lon="4.76064">
        <ele>171</ele>
        <time>2018-01-19T09:55:52Z</time>
      </trkpt>
      <trkpt lat="45.92607" lon="4.76067">
        <ele>171</ele>
        <time>2018-01-19T09:55:53Z</time>
      </trkpt>
      <trkpt lat="45.92612" lon="4.76071">
        <ele>171</ele>
        <time>2018-01-19T09:55:54Z</time>
      </trkpt>
      <trkpt lat="45.92617" lon="4.76075">
        <ele>171</ele>
        <time>2018-01-19T09:55:55Z</time>
      </trkpt>
      <trkpt lat="45.92622" lon="4.76078">
        <ele>171</ele>
        <time>2018-01-19T09:55:56Z</time>
      </trkpt>
      <trkpt lat="45.92626" lon="4.76082">
        <ele>170</ele>
        <time>2018-01-19T09:55:57Z</time>
      </trkpt>
      <trkpt lat="45.92632" lon="4.76086">
        <ele>170</ele>
        <time>2018-01-19T09:55:58Z</time>
      </trkpt>
      <trkpt lat="45.92637" lon="4.7609">
        <ele>170</ele>
        <time>2018-01-19T09:55:59Z</time>
      </trkpt>
      <trkpt lat="45.92642" lon="4.76094">
        <ele>170</ele>
        <time>2018-01-19T09:56:00Z</time>
      </trkpt>
      <trkpt lat="45.92648" lon="4.76097">
        <ele>170</ele>
        <time>2018-01-19T09:56:01Z</time>
      </trkpt>
      <trkpt lat="45.92653" lon="4.76101">
        <ele>170</ele>
        <time>2018-01-19T09:56:02Z</time>
      </trkpt>
      <trkpt lat="45.92659" lon="4.76104">
        <ele>170</ele>
        <time>2018-01-19T09:56:03Z</time>
      </trkpt>
      <trkpt lat="45.92664" lon="4.76108">
        <ele>170</ele>
        <time>2018-01-19T09:56:04Z</time>
      </trkpt>
      <trkpt lat="45.9267" lon="4.76111">
        <ele>169</ele>
        <time>2018-01-19T09:56:05Z</time>
      </trkpt>
      <trkpt lat="45.92676" lon="4.76115">
        <ele>169</ele>
        <time>2018-01-19T09:56:06Z</time>
      </trkpt>
      <trkpt lat="45.92682" lon="4.76119">
        <ele>169</ele>
        <time>2018-01-19T09:56:07Z</time>
      </trkpt>
      <trkpt lat="45.92688" lon="4.76122">
        <ele>169</ele>
        <time>2018-01-19T09:56:08Z</time>
      </trkpt>
      <trkpt lat="45.92694" lon="4.76126">
        <ele>169</ele>
        <time>2018-01-19T09:56:09Z</time>
      </trkpt>
      <trkpt lat="45.927" lon="4.7613">
        <ele>169</ele>
        <time>2018-01-19T09:56:10Z</time>
      </trkpt>
      <trkpt lat="45.92705" lon="4.76134">
        <ele>169</ele>
        <time>2018-01-19T09:56:11Z</time>
      </trkpt>
      <trkpt lat="45.9271" lon="4.76138">
        <ele>168</ele>
        <time>2018-01-19T09:56:12Z</time>
      </trkpt>
      <trkpt lat="45.92717" lon="4.76143">
        <ele>168</ele>
        <time>2018-01-19T09:56:13Z</time>
      </trkpt>
      <trkpt lat="45.92722" lon="4.76147">
        <ele>168</ele>
        <time>2018-01-19T09:56:14Z</time>
      </trkpt>
      <trkpt lat="45.92727" lon="4.76151">
        <ele>168</ele>
        <time>2018-01-19T09:56:15Z</time>
      </trkpt>
      <trkpt lat="45.92733" lon="4.76154">
        <ele>168</ele>
        <time>2018-01-19T09:56:16Z</time>
      </trkpt>
      <trkpt lat="45.92738" lon="4.76158">
        <ele>168</ele>
        <time>2018-01-19T09:56:17Z</time>
      </trkpt>
      <trkpt lat="45.92744" lon="4.76164">
        <ele>167</ele>
        <time>2018-01-19T09:56:18Z</time>
      </trkpt>
      <trkpt lat="45.92749" lon="4.76168">
        <ele>167</ele>
        <time>2018-01-19T09:56:19Z</time>
      </trkpt>
      <trkpt lat="45.92754" lon="4.76172">
        <ele>167</ele>
        <time>2018-01-19T09:56:20Z</time>
      </trkpt>
      <trkpt lat="45.92758" lon="4.76176">
        <ele>167</ele>
        <time>2018-01-19T09:56:21Z</time>
      </trkpt>
      <trkpt lat="45.92762" lon="4.76179">
        <ele>167</ele>
        <time>2018-01-19T09:56:22Z</time>
      </trkpt>
      <trkpt lat="45.92766" lon="4.76183">
        <ele>167</ele>
        <time>2018-01-19T09:56:23Z</time>
      </trkpt>
      <trkpt lat="45.92771" lon="4.76186">
        <ele>167</ele>
        <time>2018-01-19T09:56:24Z</time>
      </trkpt>
      <trkpt lat="45.92776" lon="4.76189">
        <ele>168</ele>
        <time>2018-01-19T09:56:25Z</time>
      </trkpt>
      <trkpt lat="45.9278" lon="4.76193">
        <ele>168</ele>
        <time>2018-01-19T09:56:26Z</time>
      </trkpt>
      <trkpt lat="45.92784" lon="4.76197">
        <ele>168</ele>
        <time>2018-01-19T09:56:27Z</time>
      </trkpt>
      <trkpt lat="45.92788" lon="4.762">
        <ele>168</ele>
        <time>2018-01-19T09:56:28Z</time>
      </trkpt>
      <trkpt lat="45.92792" lon="4.76204">
        <ele>168</ele>
        <time>2018-01-19T09:56:29Z</time>
      </trkpt>
      <trkpt lat="45.92796" lon="4.76207">
        <ele>168</ele>
        <time>2018-01-19T09:56:30Z</time>
      </trkpt>
      <trkpt lat="45.92801" lon="4.76213">
        <ele>168</ele>
        <time>2018-01-19T09:56:31Z</time>
      </trkpt>
      <trkpt lat="45.92805" lon="4.76219">
        <ele>168</ele>
        <time>2018-01-19T09:56:32Z</time>
      </trkpt>
      <trkpt lat="45.92809" lon="4.76224">
        <ele>168</ele>
        <time>2018-01-19T09:56:33Z</time>
      </trkpt>
      <trkpt lat="45.92813" lon="4.76228">
        <ele>168</ele>
        <time>2018-01-19T09:56:34Z</time>
      </trkpt>
      <trkpt lat="45.92818" lon="4.76233">
        <ele>168</ele>
        <time>2018-01-19T09:56:35Z</time>
      </trkpt>
      <trkpt lat="45.92823" lon="4.76238">
        <ele>168</ele>
        <time>2018-01-19T09:56:36Z</time>
      </trkpt>
      <trkpt lat="45.92828" lon="4.76241">
        <ele>169</ele>
        <time>2018-01-19T09:56:37Z</time>
      </trkpt>
      <trkpt lat="45.92833" lon="4.76246">
        <ele>169</ele>
        <time>2018-01-19T09:56:38Z</time>
      </trkpt>
      <trkpt lat="45.92837" lon="4.76249">
        <ele>169</ele>
        <time>2018-01-19T09:56:39Z</time>
      </trkpt>
      <trkpt lat="45.92842" lon="4.76253">
        <ele>169</ele>
        <time>2018-01-19T09:56:40Z</time>
      </trkpt>
      <trkpt lat="45.92847" lon="4.76258">
        <ele>169</ele>
        <time>2018-01-19T09:56:41Z</time>
      </trkpt>
      <trkpt lat="45.92852" lon="4.76262">
        <ele>169</ele>
        <time>2018-01-19T09:56:42Z</time>
      </trkpt>
      <trkpt lat="45.92856" lon="4.76268">
        <ele>169</ele>
        <time>2018-01-19T09:56:43Z</time>
      </trkpt>
      <trkpt lat="45.9286" lon="4.76272">
        <ele>169</ele>
        <time>2018-01-19T09:56:44Z</time>
      </trkpt>
      <trkpt lat="45.92864" lon="4.76276">
        <ele>169</ele>
        <time>2018-01-19T09:56:45Z</time>
      </trkpt>
      <trkpt lat="45.92869" lon="4.76282">
        <ele>169</ele>
        <time>2018-01-19T09:56:46Z</time>
      </trkpt>
      <trkpt lat="45.92874" lon="4.76285">
        <ele>169</ele>
        <time>2018-01-19T09:56:47Z</time>
      </trkpt>
      <trkpt lat="45.92878" lon="4.76289">
        <ele>169</ele>
        <time>2018-01-19T09:56:48Z</time>
      </trkpt>
      <trkpt lat="45.92882" lon="4.76293">
        <ele>169</ele>
        <time>2018-01-19T09:56:49Z</time>
      </trkpt>
      <trkpt lat="45.92887" lon="4.76298">
        <ele>169</ele>
        <time>2018-01-19T09:56:50Z</time>
      </trkpt>
      <trkpt lat="45.92892" lon="4.76302">
        <ele>169</ele>
        <time>2018-01-19T09:56:51Z</time>
      </trkpt>
      <trkpt lat="45.92896" lon="4.76307">
        <ele>169</ele>
        <time>2018-01-19T09:56:52Z</time>
      </trkpt>
      <trkpt lat="45.92901" lon="4.76311">
        <ele>169</ele>
        <time>2018-01-19T09:56:53Z</time>
      </trkpt>
      <trkpt lat="45.92905" lon="4.76316">
        <ele>169</ele>
        <time>2018-01-19T09:56:54Z</time>
      </trkpt>
      <trkpt lat="45.92909" lon="4.76318">
        <ele>169</ele>
        <time>2018-01-19T09:56:55Z</time>
      </trkpt>
      <trkpt lat="45.92914" lon="4.76321">
        <ele>169</ele>
        <time>2018-01-19T09:56:56Z</time>
      </trkpt>
      <trkpt lat="45.92918" lon="4.76325">
        <ele>169</ele>
        <time>2018-01-19T09:56:57Z</time>
      </trkpt>
      <trkpt lat="45.92922" lon="4.7633">
        <ele>169</ele>
        <time>2018-01-19T09:56:58Z</time>
      </trkpt>
      <trkpt lat="45.92926" lon="4.76335">
        <ele>169</ele>
        <time>2018-01-19T09:56:59Z</time>
      </trkpt>
      <trkpt lat="45.92932" lon="4.7634">
        <ele>169</ele>
        <time>2018-01-19T09:57:00Z</time>
      </trkpt>
      <trkpt lat="45.92936" lon="4.76345">
        <ele>169</ele>
        <time>2018-01-19T09:57:01Z</time>
      </trkpt>
      <trkpt lat="45.9294" lon="4.76349">
        <ele>169</ele>
        <time>2018-01-19T09:57:02Z</time>
      </trkpt>
      <trkpt lat="45.92945" lon="4.76354">
        <ele>169</ele>
        <time>2018-01-19T09:57:03Z</time>
      </trkpt>
      <trkpt lat="45.9295" lon="4.76359">
        <ele>169</ele>
        <time>2018-01-19T09:57:04Z</time>
      </trkpt>
      <trkpt lat="45.92955" lon="4.76365">
        <ele>169</ele>
        <time>2018-01-19T09:57:05Z</time>
      </trkpt>
      <trkpt lat="45.92959" lon="4.7637">
        <ele>169</ele>
        <time>2018-01-19T09:57:06Z</time>
      </trkpt>
      <trkpt lat="45.92964" lon="4.76375">
        <ele>169</ele>
        <time>2018-01-19T09:57:07Z</time>
      </trkpt>
      <trkpt lat="45.92969" lon="4.76379">
        <ele>169</ele>
        <time>2018-01-19T09:57:08Z</time>
      </trkpt>
      <trkpt lat="45.92974" lon="4.76385">
        <ele>169</ele>
        <time>2018-01-19T09:57:09Z</time>
      </trkpt>
      <trkpt lat="45.92979" lon="4.7639">
        <ele>169</ele>
        <time>2018-01-19T09:57:10Z</time>
      </trkpt>
      <trkpt lat="45.92983" lon="4.76393">
        <ele>169</ele>
        <time>2018-01-19T09:57:11Z</time>
      </trkpt>
      <trkpt lat="45.92988" lon="4.76396">
        <ele>169</ele>
        <time>2018-01-19T09:57:12Z</time>
      </trkpt>
      <trkpt lat="45.92992" lon="4.764">
        <ele>169</ele>
        <time>2018-01-19T09:57:13Z</time>
      </trkpt>
      <trkpt lat="45.92995" lon="4.76405">
        <ele>169</ele>
        <time>2018-01-19T09:57:14Z</time>
      </trkpt>
      <trkpt lat="45.92999" lon="4.76409">
        <ele>169</ele>
        <time>2018-01-19T09:57:15Z</time>
      </trkpt>
      <trkpt lat="45.93006" lon="4.76415">
        <ele>169</ele>
        <time>2018-01-19T09:57:17Z</time>
      </trkpt>
      <trkpt lat="45.93011" lon="4.76418">
        <ele>169</ele>
        <time>2018-01-19T09:57:18Z</time>
      </trkpt>
      <trkpt lat="45.93015" lon="4.76422">
        <ele>169</ele>
        <time>2018-01-19T09:57:19Z</time>
      </trkpt>
      <trkpt lat="45.9302" lon="4.76426">
        <ele>169</ele>
        <time>2018-01-19T09:57:20Z</time>
      </trkpt>
      <trkpt lat="45.93024" lon="4.76429">
        <ele>169</ele>
        <time>2018-01-19T09:57:21Z</time>
      </trkpt>
      <trkpt lat="45.9303" lon="4.76435">
        <ele>169</ele>
        <time>2018-01-19T09:57:22Z</time>
      </trkpt>
      <trkpt lat="45.93035" lon="4.76439">
        <ele>169</ele>
        <time>2018-01-19T09:57:23Z</time>
      </trkpt>
      <trkpt lat="45.9304" lon="4.76444">
        <ele>169</ele>
        <time>2018-01-19T09:57:24Z</time>
      </trkpt>
      <trkpt lat="45.93045" lon="4.7645">
        <ele>169</ele>
        <time>2018-01-19T09:57:25Z</time>
      </trkpt>
      <trkpt lat="45.9305" lon="4.76455">
        <ele>169</ele>
        <time>2018-01-19T09:57:26Z</time>
      </trkpt>
      <trkpt lat="45.93054" lon="4.76458">
        <ele>169</ele>
        <time>2018-01-19T09:57:27Z</time>
      </trkpt>
      <trkpt lat="45.93058" lon="4.76462">
        <ele>169</ele>
        <time>2018-01-19T09:57:28Z</time>
      </trkpt>
      <trkpt lat="45.93062" lon="4.76468">
        <ele>169</ele>
        <time>2018-01-19T09:57:29Z</time>
      </trkpt>
      <trkpt lat="45.93067" lon="4.76474">
        <ele>169</ele>
        <time>2018-01-19T09:57:30Z</time>
      </trkpt>
      <trkpt lat="45.93072" lon="4.76479">
        <ele>169</ele>
        <time>2018-01-19T09:57:31Z</time>
      </trkpt>
      <trkpt lat="45.93076" lon="4.76481">
        <ele>169</ele>
        <time>2018-01-19T09:57:32Z</time>
      </trkpt>
      <trkpt lat="45.9308" lon="4.76484">
        <ele>170</ele>
        <time>2018-01-19T09:57:33Z</time>
      </trkpt>
      <trkpt lat="45.93085" lon="4.7649">
        <ele>170</ele>
        <time>2018-01-19T09:57:34Z</time>
      </trkpt>
      <trkpt lat="45.93089" lon="4.76494">
        <ele>170</ele>
        <time>2018-01-19T09:57:35Z</time>
      </trkpt>
      <trkpt lat="45.93093" lon="4.76499">
        <ele>170</ele>
        <time>2018-01-19T09:57:36Z</time>
      </trkpt>
      <trkpt lat="45.93098" lon="4.76504">
        <ele>170</ele>
        <time>2018-01-19T09:57:37Z</time>
      </trkpt>
      <trkpt lat="45.93102" lon="4.76508">
        <ele>170</ele>
        <time>2018-01-19T09:57:38Z</time>
      </trkpt>
      <trkpt lat="45.93106" lon="4.76513">
        <ele>170</ele>
        <time>2018-01-19T09:57:39Z</time>
      </trkpt>
      <trkpt lat="45.9311" lon="4.76516">
        <ele>170</ele>
        <time>2018-01-19T09:57:40Z</time>
      </trkpt>
      <trkpt lat="45.93115" lon="4.7652">
        <ele>170</ele>
        <time>2018-01-19T09:57:41Z</time>
      </trkpt>
      <trkpt lat="45.9312" lon="4.76526">
        <ele>170</ele>
        <time>2018-01-19T09:57:42Z</time>
      </trkpt>
      <trkpt lat="45.93124" lon="4.7653">
        <ele>170</ele>
        <time>2018-01-19T09:57:43Z</time>
      </trkpt>
      <trkpt lat="45.93128" lon="4.76535">
        <ele>170</ele>
        <time>2018-01-19T09:57:44Z</time>
      </trkpt>
      <trkpt lat="45.93132" lon="4.76539">
        <ele>170</ele>
        <time>2018-01-19T09:57:45Z</time>
      </trkpt>
      <trkpt lat="45.93136" lon="4.76544">
        <ele>170</ele>
        <time>2018-01-19T09:57:46Z</time>
      </trkpt>
      <trkpt lat="45.9314" lon="4.76548">
        <ele>170</ele>
        <time>2018-01-19T09:57:47Z</time>
      </trkpt>
      <trkpt lat="45.93144" lon="4.76553">
        <ele>170</ele>
        <time>2018-01-19T09:57:48Z</time>
      </trkpt>
      <trkpt lat="45.93151" lon="4.76559">
        <ele>170</ele>
        <time>2018-01-19T09:57:50Z</time>
      </trkpt>
      <trkpt lat="45.93156" lon="4.76564">
        <ele>170</ele>
        <time>2018-01-19T09:57:51Z</time>
      </trkpt>
      <trkpt lat="45.93161" lon="4.76568">
        <ele>170</ele>
        <time>2018-01-19T09:57:52Z</time>
      </trkpt>
      <trkpt lat="45.93165" lon="4.76572">
        <ele>170</ele>
        <time>2018-01-19T09:57:53Z</time>
      </trkpt>
      <trkpt lat="45.93169" lon="4.76575">
        <ele>170</ele>
        <time>2018-01-19T09:57:54Z</time>
      </trkpt>
      <trkpt lat="45.93174" lon="4.76579">
        <ele>170</ele>
        <time>2018-01-19T09:57:55Z</time>
      </trkpt>
      <trkpt lat="45.93179" lon="4.76583">
        <ele>170</ele>
        <time>2018-01-19T09:57:56Z</time>
      </trkpt>
      <trkpt lat="45.93182" lon="4.76587">
        <ele>171</ele>
        <time>2018-01-19T09:57:57Z</time>
      </trkpt>
      <trkpt lat="45.93187" lon="4.76592">
        <ele>171</ele>
        <time>2018-01-19T09:57:58Z</time>
      </trkpt>
      <trkpt lat="45.93191" lon="4.76596">
        <ele>170</ele>
        <time>2018-01-19T09:57:59Z</time>
      </trkpt>
      <trkpt lat="45.93196" lon="4.76601">
        <ele>170</ele>
        <time>2018-01-19T09:58:00Z</time>
      </trkpt>
      <trkpt lat="45.93198" lon="4.76603">
        <ele>170</ele>
        <time>2018-01-19T09:58:01Z</time>
      </trkpt>
      <trkpt lat="45.93202" lon="4.76607">
        <ele>170</ele>
        <time>2018-01-19T09:58:02Z</time>
      </trkpt>
      <trkpt lat="45.93207" lon="4.76611">
        <ele>170</ele>
        <time>2018-01-19T09:58:03Z</time>
      </trkpt>
      <trkpt lat="45.93213" lon="4.76619">
        <ele>170</ele>
        <time>2018-01-19T09:58:04Z</time>
      </trkpt>
      <trkpt lat="45.93217" lon="4.76623">
        <ele>170</ele>
        <time>2018-01-19T09:58:05Z</time>
      </trkpt>
      <trkpt lat="45.93222" lon="4.76629">
        <ele>170</ele>
        <time>2018-01-19T09:58:06Z</time>
      </trkpt>
      <trkpt lat="45.93226" lon="4.76633">
        <ele>171</ele>
        <time>2018-01-19T09:58:07Z</time>
      </trkpt>
      <trkpt lat="45.9323" lon="4.76637">
        <ele>171</ele>
        <time>2018-01-19T09:58:08Z</time>
      </trkpt>
      <trkpt lat="45.93234" lon="4.76642">
        <ele>171</ele>
        <time>2018-01-19T09:58:09Z</time>
      </trkpt>
      <trkpt lat="45.93239" lon="4.76645">
        <ele>171</ele>
        <time>2018-01-19T09:58:10Z</time>
      </trkpt>
      <trkpt lat="45.93242" lon="4.76647">
        <ele>171</ele>
        <time>2018-01-19T09:58:11Z</time>
      </trkpt>
      <trkpt lat="45.93245" lon="4.7665">
        <ele>171</ele>
        <time>2018-01-19T09:58:12Z</time>
      </trkpt>
      <trkpt lat="45.9325" lon="4.76655">
        <ele>171</ele>
        <time>2018-01-19T09:58:13Z</time>
      </trkpt>
      <trkpt lat="45.93253" lon="4.76658">
        <ele>171</ele>
        <time>2018-01-19T09:58:14Z</time>
      </trkpt>
      <trkpt lat="45.93258" lon="4.76663">
        <ele>171</ele>
        <time>2018-01-19T09:58:15Z</time>
      </trkpt>
      <trkpt lat="45.93261" lon="4.76666">
        <ele>171</ele>
        <time>2018-01-19T09:58:16Z</time>
      </trkpt>
      <trkpt lat="45.93266" lon="4.7667">
        <ele>172</ele>
        <time>2018-01-19T09:58:17Z</time>
      </trkpt>
      <trkpt lat="45.93269" lon="4.76674">
        <ele>172</ele>
        <time>2018-01-19T09:58:18Z</time>
      </trkpt>
      <trkpt lat="45.93274" lon="4.76679">
        <ele>172</ele>
        <time>2018-01-19T09:58:19Z</time>
      </trkpt>
      <trkpt lat="45.93278" lon="4.76682">
        <ele>172</ele>
        <time>2018-01-19T09:58:20Z</time>
      </trkpt>
      <trkpt lat="45.93282" lon="4.76686">
        <ele>172</ele>
        <time>2018-01-19T09:58:21Z</time>
      </trkpt>
      <trkpt lat="45.93286" lon="4.7669">
        <ele>172</ele>
        <time>2018-01-19T09:58:22Z</time>
      </trkpt>
      <trkpt lat="45.93291" lon="4.76695">
        <ele>172</ele>
        <time>2018-01-19T09:58:23Z</time>
      </trkpt>
      <trkpt lat="45.93295" lon="4.767">
        <ele>172</ele>
        <time>2018-01-19T09:58:24Z</time>
      </trkpt>
      <trkpt lat="45.93299" lon="4.76704">
        <ele>172</ele>
        <time>2018-01-19T09:58:25Z</time>
      </trkpt>
      <trkpt lat="45.93302" lon="4.76708">
        <ele>172</ele>
        <time>2018-01-19T09:58:26Z</time>
      </trkpt>
      <trkpt lat="45.93306" lon="4.76712">
        <ele>172</ele>
        <time>2018-01-19T09:58:27Z</time>
      </trkpt>
      <trkpt lat="45.9331" lon="4.76715">
        <ele>172</ele>
        <time>2018-01-19T09:58:28Z</time>
      </trkpt>
      <trkpt lat="45.93313" lon="4.76721">
        <ele>172</ele>
        <time>2018-01-19T09:58:29Z</time>
      </trkpt>
      <trkpt lat="45.93318" lon="4.76725">
        <ele>172</ele>
        <time>2018-01-19T09:58:30Z</time>
      </trkpt>
      <trkpt lat="45.93322" lon="4.76728">
        <ele>172</ele>
        <time>2018-01-19T09:58:31Z</time>
      </trkpt>
      <trkpt lat="45.9333" lon="4.76734">
        <ele>172</ele>
        <time>2018-01-19T09:58:33Z</time>
      </trkpt>
      <trkpt lat="45.93333" lon="4.76736">
        <ele>172</ele>
        <time>2018-01-19T09:58:34Z</time>
      </trkpt>
      <trkpt lat="45.93337" lon="4.76742">
        <ele>173</ele>
        <time>2018-01-19T09:58:35Z</time>
      </trkpt>
      <trkpt lat="45.93341" lon="4.76745">
        <ele>173</ele>
        <time>2018-01-19T09:58:36Z</time>
      </trkpt>
      <trkpt lat="45.93345" lon="4.76749">
        <ele>173</ele>
        <time>2018-01-19T09:58:37Z</time>
      </trkpt>
      <trkpt lat="45.93349" lon="4.76752">
        <ele>172</ele>
        <time>2018-01-19T09:58:38Z</time>
      </trkpt>
      <trkpt lat="45.93353" lon="4.76755">
        <ele>172</ele>
        <time>2018-01-19T09:58:39Z</time>
      </trkpt>
      <trkpt lat="45.93357" lon="4.76759">
        <ele>172</ele>
        <time>2018-01-19T09:58:40Z</time>
      </trkpt>
      <trkpt lat="45.9336" lon="4.76763">
        <ele>172</ele>
        <time>2018-01-19T09:58:41Z</time>
      </trkpt>
      <trkpt lat="45.93364" lon="4.76767">
        <ele>172</ele>
        <time>2018-01-19T09:58:42Z</time>
      </trkpt>
      <trkpt lat="45.93368" lon="4.76771">
        <ele>172</ele>
        <time>2018-01-19T09:58:43Z</time>
      </trkpt>
      <trkpt lat="45.93371" lon="4.76775">
        <ele>172</ele>
        <time>2018-01-19T09:58:44Z</time>
      </trkpt>
      <trkpt lat="45.93379" lon="4.76782">
        <ele>172</ele>
        <time>2018-01-19T09:58:46Z</time>
      </trkpt>
      <trkpt lat="45.93382" lon="4.76787">
        <ele>172</ele>
        <time>2018-01-19T09:58:47Z</time>
      </trkpt>
      <trkpt lat="45.93386" lon="4.76791">
        <ele>172</ele>
        <time>2018-01-19T09:58:48Z</time>
      </trkpt>
      <trkpt lat="45.9339" lon="4.76796">
        <ele>172</ele>
        <time>2018-01-19T09:58:49Z</time>
      </trkpt>
      <trkpt lat="45.93394" lon="4.768">
        <ele>172</ele>
        <time>2018-01-19T09:58:50Z</time>
      </trkpt>
      <trkpt lat="45.93398" lon="4.76805">
        <ele>172</ele>
        <time>2018-01-19T09:58:51Z</time>
      </trkpt>
      <trkpt lat="45.93402" lon="4.76812">
        <ele>172</ele>
        <time>2018-01-19T09:58:52Z</time>
      </trkpt>
      <trkpt lat="45.93405" lon="4.76818">
        <ele>172</ele>
        <time>2018-01-19T09:58:53Z</time>
      </trkpt>
      <trkpt lat="45.93409" lon="4.76824">
        <ele>172</ele>
        <time>2018-01-19T09:58:54Z</time>
      </trkpt>
      <trkpt lat="45.93413" lon="4.76829">
        <ele>172</ele>
        <time>2018-01-19T09:58:55Z</time>
      </trkpt>
      <trkpt lat="45.93416" lon="4.76834">
        <ele>172</ele>
        <time>2018-01-19T09:58:56Z</time>
      </trkpt>
      <trkpt lat="45.93419" lon="4.76839">
        <ele>172</ele>
        <time>2018-01-19T09:58:57Z</time>
      </trkpt>
      <trkpt lat="45.93421" lon="4.76845">
        <ele>171</ele>
        <time>2018-01-19T09:58:58Z</time>
      </trkpt>
      <trkpt lat="45.93424" lon="4.7685">
        <ele>171</ele>
        <time>2018-01-19T09:58:59Z</time>
      </trkpt>
      <trkpt lat="45.93428" lon="4.76856">
        <ele>171</ele>
        <time>2018-01-19T09:59:00Z</time>
      </trkpt>
      <trkpt lat="45.9343" lon="4.76861">
        <ele>171</ele>
        <time>2018-01-19T09:59:01Z</time>
      </trkpt>
      <trkpt lat="45.93433" lon="4.76867">
        <ele>171</ele>
        <time>2018-01-19T09:59:02Z</time>
      </trkpt>
      <trkpt lat="45.93435" lon="4.76873">
        <ele>171</ele>
        <time>2018-01-19T09:59:03Z</time>
      </trkpt>
      <trkpt lat="45.93437" lon="4.7688">
        <ele>171</ele>
        <time>2018-01-19T09:59:04Z</time>
      </trkpt>
      <trkpt lat="45.9344" lon="4.76886">
        <ele>170</ele>
        <time>2018-01-19T09:59:05Z</time>
      </trkpt>
      <trkpt lat="45.93442" lon="4.76892">
        <ele>170</ele>
        <time>2018-01-19T09:59:06Z</time>
      </trkpt>
      <trkpt lat="45.93444" lon="4.76897">
        <ele>170</ele>
        <time>2018-01-19T09:59:07Z</time>
      </trkpt>
      <trkpt lat="45.93446" lon="4.76904">
        <ele>170</ele>
        <time>2018-01-19T09:59:08Z</time>
      </trkpt>
      <trkpt lat="45.93447" lon="4.7691">
        <ele>170</ele>
        <time>2018-01-19T09:59:09Z</time>
      </trkpt>
      <trkpt lat="45.93448" lon="4.76917">
        <ele>170</ele>
        <time>2018-01-19T09:59:10Z</time>
      </trkpt>
      <trkpt lat="45.9345" lon="4.76923">
        <ele>170</ele>
        <time>2018-01-19T09:59:11Z</time>
      </trkpt>
      <trkpt lat="45.93451" lon="4.7693">
        <ele>170</ele>
        <time>2018-01-19T09:59:12Z</time>
      </trkpt>
      <trkpt lat="45.93452" lon="4.76936">
        <ele>170</ele>
        <time>2018-01-19T09:59:13Z</time>
      </trkpt>
      <trkpt lat="45.93453" lon="4.76943">
        <ele>170</ele>
        <time>2018-01-19T09:59:14Z</time>
      </trkpt>
      <trkpt lat="45.93454" lon="4.7695">
        <ele>170</ele>
        <time>2018-01-19T09:59:15Z</time>
      </trkpt>
      <trkpt lat="45.93455" lon="4.76957">
        <ele>170</ele>
        <time>2018-01-19T09:59:16Z</time>
      </trkpt>
      <trkpt lat="45.93456" lon="4.76964">
        <ele>170</ele>
        <time>2018-01-19T09:59:17Z</time>
      </trkpt>
      <trkpt lat="45.93458" lon="4.76975">
        <ele>170</ele>
        <time>2018-01-19T09:59:19Z</time>
      </trkpt>
      <trkpt lat="45.93459" lon="4.76981">
        <ele>170</ele>
        <time>2018-01-19T09:59:20Z</time>
      </trkpt>
      <trkpt lat="45.9346" lon="4.76989">
        <ele>170</ele>
        <time>2018-01-19T09:59:21Z</time>
      </trkpt>
      <trkpt lat="45.9346" lon="4.76994">
        <ele>170</ele>
        <time>2018-01-19T09:59:22Z</time>
      </trkpt>
      <trkpt lat="45.93463" lon="4.77007">
        <ele>170</ele>
        <time>2018-01-19T09:59:24Z</time>
      </trkpt>
      <trkpt lat="45.93463" lon="4.77013">
        <ele>170</ele>
        <time>2018-01-19T09:59:25Z</time>
      </trkpt>
      <trkpt lat="45.93464" lon="4.7702">
        <ele>170</ele>
        <time>2018-01-19T09:59:26Z</time>
      </trkpt>
      <trkpt lat="45.93465" lon="4.77027">
        <ele>170</ele>
        <time>2018-01-19T09:59:27Z</time>
      </trkpt>
      <trkpt lat="45.93466" lon="4.77033">
        <ele>170</ele>
        <time>2018-01-19T09:59:28Z</time>
      </trkpt>
      <trkpt lat="45.93468" lon="4.77039">
        <ele>170</ele>
        <time>2018-01-19T09:59:29Z</time>
      </trkpt>
      <trkpt lat="45.93469" lon="4.77046">
        <ele>170</ele>
        <time>2018-01-19T09:59:30Z</time>
      </trkpt>
      <trkpt lat="45.9347" lon="4.77053">
        <ele>170</ele>
        <time>2018-01-19T09:59:31Z</time>
      </trkpt>
      <trkpt lat="45.93472" lon="4.7706">
        <ele>170</ele>
        <time>2018-01-19T09:59:32Z</time>
      </trkpt>
      <trkpt lat="45.93473" lon="4.77067">
        <ele>170</ele>
        <time>2018-01-19T09:59:33Z</time>
      </trkpt>
      <trkpt lat="45.93474" lon="4.77073">
        <ele>170</ele>
        <time>2018-01-19T09:59:34Z</time>
      </trkpt>
      <trkpt lat="45.93475" lon="4.7708">
        <ele>170</ele>
        <time>2018-01-19T09:59:35Z</time>
      </trkpt>
      <trkpt lat="45.93477" lon="4.77092">
        <ele>169</ele>
        <time>2018-01-19T09:59:37Z</time>
      </trkpt>
      <trkpt lat="45.93478" lon="4.77098">
        <ele>169</ele>
        <time>2018-01-19T09:59:38Z</time>
      </trkpt>
      <trkpt lat="45.93479" lon="4.77105">
        <ele>169</ele>
        <time>2018-01-19T09:59:39Z</time>
      </trkpt>
      <trkpt lat="45.9348" lon="4.77111">
        <ele>169</ele>
        <time>2018-01-19T09:59:40Z</time>
      </trkpt>
      <trkpt lat="45.93482" lon="4.77117">
        <ele>169</ele>
        <time>2018-01-19T09:59:41Z</time>
      </trkpt>
      <trkpt lat="45.93483" lon="4.77124">
        <ele>169</ele>
        <time>2018-01-19T09:59:42Z</time>
      </trkpt>
      <trkpt lat="45.93485" lon="4.77131">
        <ele>169</ele>
        <time>2018-01-19T09:59:43Z</time>
      </trkpt>
      <trkpt lat="45.93486" lon="4.77137">
        <ele>169</ele>
        <time>2018-01-19T09:59:44Z</time>
      </trkpt>
      <trkpt lat="45.93487" lon="4.77143">
        <ele>169</ele>
        <time>2018-01-19T09:59:45Z</time>
      </trkpt>
      <trkpt lat="45.93489" lon="4.7715">
        <ele>169</ele>
        <time>2018-01-19T09:59:46Z</time>
      </trkpt>
      <trkpt lat="45.93489" lon="4.77156">
        <ele>169</ele>
        <time>2018-01-19T09:59:47Z</time>
      </trkpt>
      <trkpt lat="45.9349" lon="4.77163">
        <ele>169</ele>
        <time>2018-01-19T09:59:48Z</time>
      </trkpt>
      <trkpt lat="45.93493" lon="4.77175">
        <ele>169</ele>
        <time>2018-01-19T09:59:50Z</time>
      </trkpt>
      <trkpt lat="45.93495" lon="4.77181">
        <ele>169</ele>
        <time>2018-01-19T09:59:51Z</time>
      </trkpt>
      <trkpt lat="45.93497" lon="4.77188">
        <ele>169</ele>
        <time>2018-01-19T09:59:52Z</time>
      </trkpt>
      <trkpt lat="45.93498" lon="4.77195">
        <ele>169</ele>
        <time>2018-01-19T09:59:53Z</time>
      </trkpt>
      <trkpt lat="45.93499" lon="4.77202">
        <ele>169</ele>
        <time>2018-01-19T09:59:54Z</time>
      </trkpt>
      <trkpt lat="45.93501" lon="4.77209">
        <ele>169</ele>
        <time>2018-01-19T09:59:55Z</time>
      </trkpt>
      <trkpt lat="45.93503" lon="4.77221">
        <ele>169</ele>
        <time>2018-01-19T09:59:57Z</time>
      </trkpt>
      <trkpt lat="45.93505" lon="4.77228">
        <ele>169</ele>
        <time>2018-01-19T09:59:58Z</time>
      </trkpt>
      <trkpt lat="45.93506" lon="4.77234">
        <ele>169</ele>
        <time>2018-01-19T09:59:59Z</time>
      </trkpt>
      <trkpt lat="45.93507" lon="4.7724">
        <ele>169</ele>
        <time>2018-01-19T10:00:00Z</time>
      </trkpt>
      <trkpt lat="45.93509" lon="4.77253">
        <ele>170</ele>
        <time>2018-01-19T10:00:02Z</time>
      </trkpt>
      <trkpt lat="45.9351" lon="4.77259">
        <ele>170</ele>
        <time>2018-01-19T10:00:03Z</time>
      </trkpt>
      <trkpt lat="45.93511" lon="4.77266">
        <ele>170</ele>
        <time>2018-01-19T10:00:04Z</time>
      </trkpt>
      <trkpt lat="45.93512" lon="4.77272">
        <ele>170</ele>
        <time>2018-01-19T10:00:05Z</time>
      </trkpt>
      <trkpt lat="45.93513" lon="4.77279">
        <ele>170</ele>
        <time>2018-01-19T10:00:06Z</time>
      </trkpt>
      <trkpt lat="45.93515" lon="4.77285">
        <ele>170</ele>
        <time>2018-01-19T10:00:07Z</time>
      </trkpt>
      <trkpt lat="45.93517" lon="4.7729">
        <ele>170</ele>
        <time>2018-01-19T10:00:08Z</time>
      </trkpt>
      <trkpt lat="45.93518" lon="4.77297">
        <ele>170</ele>
        <time>2018-01-19T10:00:09Z</time>
      </trkpt>
      <trkpt lat="45.9352" lon="4.77303">
        <ele>170</ele>
        <time>2018-01-19T10:00:10Z</time>
      </trkpt>
      <trkpt lat="45.93522" lon="4.7731">
        <ele>170</ele>
        <time>2018-01-19T10:00:11Z</time>
      </trkpt>
      <trkpt lat="45.93523" lon="4.77316">
        <ele>170</ele>
        <time>2018-01-19T10:00:12Z</time>
      </trkpt>
      <trkpt lat="45.93525" lon="4.77322">
        <ele>170</ele>
        <time>2018-01-19T10:00:13Z</time>
      </trkpt>
      <trkpt lat="45.93526" lon="4.77328">
        <ele>170</ele>
        <time>2018-01-19T10:00:14Z</time>
      </trkpt>
      <trkpt lat="45.93528" lon="4.77335">
        <ele>170</ele>
        <time>2018-01-19T10:00:15Z</time>
      </trkpt>
      <trkpt lat="45.9353" lon="4.77346">
        <ele>170</ele>
        <time>2018-01-19T10:00:17Z</time>
      </trkpt>
      <trkpt lat="45.93531" lon="4.77352">
        <ele>170</ele>
        <time>2018-01-19T10:00:18Z</time>
      </trkpt>
      <trkpt lat="45.93534" lon="4.77364">
        <ele>170</ele>
        <time>2018-01-19T10:00:20Z</time>
      </trkpt>
      <trkpt lat="45.93535" lon="4.77371">
        <ele>170</ele>
        <time>2018-01-19T10:00:21Z</time>
      </trkpt>
      <trkpt lat="45.93537" lon="4.77378">
        <ele>170</ele>
        <time>2018-01-19T10:00:22Z</time>
      </trkpt>
      <trkpt lat="45.93538" lon="4.77384">
        <ele>170</ele>
        <time>2018-01-19T10:00:23Z</time>
      </trkpt>
      <trkpt lat="45.93541" lon="4.77395">
        <ele>170</ele>
        <time>2018-01-19T10:00:25Z</time>
      </trkpt>
      <trkpt lat="45.93542" lon="4.77401">
        <ele>170</ele>
        <time>2018-01-19T10:00:26Z</time>
      </trkpt>
      <trkpt lat="45.93544" lon="4.77408">
        <ele>170</ele>
        <time>2018-01-19T10:00:27Z</time>
      </trkpt>
      <trkpt lat="45.93545" lon="4.77416">
        <ele>170</ele>
        <time>2018-01-19T10:00:28Z</time>
      </trkpt>
      <trkpt lat="45.93547" lon="4.77428">
        <ele>169</ele>
        <time>2018-01-19T10:00:30Z</time>
      </trkpt>
      <trkpt lat="45.93549" lon="4.77434">
        <ele>169</ele>
        <time>2018-01-19T10:00:31Z</time>
      </trkpt>
      <trkpt lat="45.9355" lon="4.77441">
        <ele>169</ele>
        <time>2018-01-19T10:00:33Z</time>
      </trkpt>
      <trkpt lat="45.93551" lon="4.77447">
        <ele>169</ele>
        <time>2018-01-19T10:00:34Z</time>
      </trkpt>
      <trkpt lat="45.93553" lon="4.77456">
        <ele>169</ele>
        <time>2018-01-19T10:00:35Z</time>
      </trkpt>
      <trkpt lat="45.93555" lon="4.77462">
        <ele>169</ele>
        <time>2018-01-19T10:00:36Z</time>
      </trkpt>
      <trkpt lat="45.93557" lon="4.77469">
        <ele>169</ele>
        <time>2018-01-19T10:00:37Z</time>
      </trkpt>
      <trkpt lat="45.93557" lon="4.77474">
        <ele>169</ele>
        <time>2018-01-19T10:00:38Z</time>
      </trkpt>
      <trkpt lat="45.93558" lon="4.7748">
        <ele>169</ele>
        <time>2018-01-19T10:00:39Z</time>
      </trkpt>
      <trkpt lat="45.9356" lon="4.77487">
        <ele>169</ele>
        <time>2018-01-19T10:00:40Z</time>
      </trkpt>
      <trkpt lat="45.93562" lon="4.77494">
        <ele>169</ele>
        <time>2018-01-19T10:00:41Z</time>
      </trkpt>
      <trkpt lat="45.93565" lon="4.77499">
        <ele>169</ele>
        <time>2018-01-19T10:00:42Z</time>
      </trkpt>
      <trkpt lat="45.93566" lon="4.77506">
        <ele>169</ele>
        <time>2018-01-19T10:00:43Z</time>
      </trkpt>
      <trkpt lat="45.93568" lon="4.77513">
        <ele>169</ele>
        <time>2018-01-19T10:00:44Z</time>
      </trkpt>
      <trkpt lat="45.9357" lon="4.7752">
        <ele>169</ele>
        <time>2018-01-19T10:00:45Z</time>
      </trkpt>
      <trkpt lat="45.93573" lon="4.77528">
        <ele>169</ele>
        <time>2018-01-19T10:00:46Z</time>
      </trkpt>
      <trkpt lat="45.93574" lon="4.77535">
        <ele>169</ele>
        <time>2018-01-19T10:00:47Z</time>
      </trkpt>
      <trkpt lat="45.93576" lon="4.77542">
        <ele>169</ele>
        <time>2018-01-19T10:00:48Z</time>
      </trkpt>
      <trkpt lat="45.93578" lon="4.77548">
        <ele>169</ele>
        <time>2018-01-19T10:00:49Z</time>
      </trkpt>
      <trkpt lat="45.93579" lon="4.77555">
        <ele>169</ele>
        <time>2018-01-19T10:00:50Z</time>
      </trkpt>
      <trkpt lat="45.93581" lon="4.77562">
        <ele>169</ele>
        <time>2018-01-19T10:00:51Z</time>
      </trkpt>
      <trkpt lat="45.93582" lon="4.77568">
        <ele>170</ele>
        <time>2018-01-19T10:00:52Z</time>
      </trkpt>
      <trkpt lat="45.93586" lon="4.7758">
        <ele>170</ele>
        <time>2018-01-19T10:00:54Z</time>
      </trkpt>
      <trkpt lat="45.93588" lon="4.77585">
        <ele>170</ele>
        <time>2018-01-19T10:00:55Z</time>
      </trkpt>
      <trkpt lat="45.9359" lon="4.77592">
        <ele>170</ele>
        <time>2018-01-19T10:00:56Z</time>
      </trkpt>
      <trkpt lat="45.93592" lon="4.77599">
        <ele>170</ele>
        <time>2018-01-19T10:00:57Z</time>
      </trkpt>
      <trkpt lat="45.93594" lon="4.77606">
        <ele>170</ele>
        <time>2018-01-19T10:00:58Z</time>
      </trkpt>
      <trkpt lat="45.93596" lon="4.77613">
        <ele>170</ele>
        <time>2018-01-19T10:00:59Z</time>
      </trkpt>
      <trkpt lat="45.93599" lon="4.7762">
        <ele>170</ele>
        <time>2018-01-19T10:01:00Z</time>
      </trkpt>
      <trkpt lat="45.93601" lon="4.77627">
        <ele>169</ele>
        <time>2018-01-19T10:01:01Z</time>
      </trkpt>
      <trkpt lat="45.93604" lon="4.77634">
        <ele>169</ele>
        <time>2018-01-19T10:01:02Z</time>
      </trkpt>
      <trkpt lat="45.93606" lon="4.7764">
        <ele>169</ele>
        <time>2018-01-19T10:01:03Z</time>
      </trkpt>
      <trkpt lat="45.93609" lon="4.77647">
        <ele>169</ele>
        <time>2018-01-19T10:01:04Z</time>
      </trkpt>
      <trkpt lat="45.93612" lon="4.77653">
        <ele>169</ele>
        <time>2018-01-19T10:01:05Z</time>
      </trkpt>
      <trkpt lat="45.93615" lon="4.7766">
        <ele>169</ele>
        <time>2018-01-19T10:01:06Z</time>
      </trkpt>
      <trkpt lat="45.93618" lon="4.77666">
        <ele>169</ele>
        <time>2018-01-19T10:01:07Z</time>
      </trkpt>
      <trkpt lat="45.9362" lon="4.77672">
        <ele>169</ele>
        <time>2018-01-19T10:01:08Z</time>
      </trkpt>
      <trkpt lat="45.93623" lon="4.77678">
        <ele>169</ele>
        <time>2018-01-19T10:01:09Z</time>
      </trkpt>
      <trkpt lat="45.93626" lon="4.77684">
        <ele>169</ele>
        <time>2018-01-19T10:01:10Z</time>
      </trkpt>
      <trkpt lat="45.93629" lon="4.7769">
        <ele>169</ele>
        <time>2018-01-19T10:01:11Z</time>
      </trkpt>
      <trkpt lat="45.93631" lon="4.77695">
        <ele>169</ele>
        <time>2018-01-19T10:01:12Z</time>
      </trkpt>
      <trkpt lat="45.93634" lon="4.777">
        <ele>169</ele>
        <time>2018-01-19T10:01:13Z</time>
      </trkpt>
      <trkpt lat="45.93639" lon="4.77709">
        <ele>170</ele>
        <time>2018-01-19T10:01:15Z</time>
      </trkpt>
      <trkpt lat="45.93641" lon="4.77713">
        <ele>170</ele>
        <time>2018-01-19T10:01:16Z</time>
      </trkpt>
      <trkpt lat="45.93645" lon="4.77721">
        <ele>170</ele>
        <time>2018-01-19T10:01:18Z</time>
      </trkpt>
      <trkpt lat="45.93647" lon="4.77725">
        <ele>170</ele>
        <time>2018-01-19T10:01:19Z</time>
      </trkpt>
      <trkpt lat="45.93651" lon="4.77733">
        <ele>170</ele>
        <time>2018-01-19T10:01:21Z</time>
      </trkpt>
      <trkpt lat="45.93653" lon="4.77737">
        <ele>170</ele>
        <time>2018-01-19T10:01:22Z</time>
      </trkpt>
      <trkpt lat="45.93657" lon="4.77744">
        <ele>170</ele>
        <time>2018-01-19T10:01:24Z</time>
      </trkpt>
      <trkpt lat="45.93659" lon="4.77747">
        <ele>171</ele>
        <time>2018-01-19T10:01:25Z</time>
      </trkpt>
      <trkpt lat="45.93663" lon="4.77754">
        <ele>171</ele>
        <time>2018-01-19T10:01:27Z</time>
      </trkpt>
      <trkpt lat="45.93665" lon="4.77757">
        <ele>171</ele>
        <time>2018-01-19T10:01:28Z</time>
      </trkpt>
      <trkpt lat="45.9367" lon="4.77764">
        <ele>170</ele>
        <time>2018-01-19T10:01:30Z</time>
      </trkpt>
      <trkpt lat="45.93672" lon="4.77767">
        <ele>170</ele>
        <time>2018-01-19T10:01:31Z</time>
      </trkpt>
      <trkpt lat="45.93676" lon="4.77774">
        <ele>170</ele>
        <time>2018-01-19T10:01:33Z</time>
      </trkpt>
      <trkpt lat="45.93679" lon="4.77778">
        <ele>170</ele>
        <time>2018-01-19T10:01:34Z</time>
      </trkpt>
      <trkpt lat="45.93684" lon="4.77784">
        <ele>170</ele>
        <time>2018-01-19T10:01:36Z</time>
      </trkpt>
      <trkpt lat="45.93686" lon="4.77787">
        <ele>170</ele>
        <time>2018-01-19T10:01:37Z</time>
      </trkpt>
      <trkpt lat="45.93691" lon="4.77794">
        <ele>169</ele>
        <time>2018-01-19T10:01:39Z</time>
      </trkpt>
      <trkpt lat="45.93693" lon="4.77797">
        <ele>169</ele>
        <time>2018-01-19T10:01:40Z</time>
      </trkpt>
      <trkpt lat="45.93698" lon="4.77804">
        <ele>169</ele>
        <time>2018-01-19T10:01:42Z</time>
      </trkpt>
      <trkpt lat="45.93701" lon="4.77807">
        <ele>169</ele>
        <time>2018-01-19T10:01:43Z</time>
      </trkpt>
      <trkpt lat="45.93706" lon="4.77813">
        <ele>169</ele>
        <time>2018-01-19T10:01:45Z</time>
      </trkpt>
      <trkpt lat="45.93709" lon="4.77816">
        <ele>169</ele>
        <time>2018-01-19T10:01:46Z</time>
      </trkpt>
      <trkpt lat="45.93714" lon="4.77823">
        <ele>169</ele>
        <time>2018-01-19T10:01:48Z</time>
      </trkpt>
      <trkpt lat="45.93716" lon="4.77826">
        <ele>169</ele>
        <time>2018-01-19T10:01:49Z</time>
      </trkpt>
      <trkpt lat="45.93722" lon="4.77832">
        <ele>168</ele>
        <time>2018-01-19T10:01:51Z</time>
      </trkpt>
      <trkpt lat="45.93724" lon="4.77836">
        <ele>167</ele>
        <time>2018-01-19T10:01:52Z</time>
      </trkpt>
      <trkpt lat="45.93729" lon="4.77842">
        <ele>167</ele>
        <time>2018-01-19T10:01:54Z</time>
      </trkpt>
      <trkpt lat="45.93732" lon="4.77845">
        <ele>167</ele>
        <time>2018-01-19T10:01:55Z</time>
      </trkpt>
      <trkpt lat="45.93738" lon="4.77852">
        <ele>167</ele>
        <time>2018-01-19T10:01:57Z</time>
      </trkpt>
      <trkpt lat="45.93741" lon="4.77856">
        <ele>167</ele>
        <time>2018-01-19T10:01:58Z</time>
      </trkpt>
      <trkpt lat="45.93746" lon="4.77863">
        <ele>167</ele>
        <time>2018-01-19T10:02:00Z</time>
      </trkpt>
      <trkpt lat="45.93749" lon="4.77866">
        <ele>167</ele>
        <time>2018-01-19T10:02:01Z</time>
      </trkpt>
      <trkpt lat="45.93755" lon="4.77873">
        <ele>166</ele>
        <time>2018-01-19T10:02:03Z</time>
      </trkpt>
      <trkpt lat="45.93758" lon="4.77877">
        <ele>166</ele>
        <time>2018-01-19T10:02:04Z</time>
      </trkpt>
      <trkpt lat="45.93764" lon="4.77884">
        <ele>166</ele>
        <time>2018-01-19T10:02:06Z</time>
      </trkpt>
      <trkpt lat="45.93768" lon="4.77889">
        <ele>166</ele>
        <time>2018-01-19T10:02:07Z</time>
      </trkpt>
      <trkpt lat="45.93773" lon="4.77897">
        <ele>166</ele>
        <time>2018-01-19T10:02:09Z</time>
      </trkpt>
      <trkpt lat="45.93776" lon="4.77901">
        <ele>166</ele>
        <time>2018-01-19T10:02:10Z</time>
      </trkpt>
      <trkpt lat="45.93781" lon="4.77908">
        <ele>166</ele>
        <time>2018-01-19T10:02:12Z</time>
      </trkpt>
      <trkpt lat="45.93784" lon="4.77912">
        <ele>166</ele>
        <time>2018-01-19T10:02:13Z</time>
      </trkpt>
      <trkpt lat="45.93788" lon="4.7792">
        <ele>168</ele>
        <time>2018-01-19T10:02:15Z</time>
      </trkpt>
      <trkpt lat="45.93791" lon="4.77923">
        <ele>168</ele>
        <time>2018-01-19T10:02:16Z</time>
      </trkpt>
      <trkpt lat="45.93797" lon="4.77931">
        <ele>168</ele>
        <time>2018-01-19T10:02:18Z</time>
      </trkpt>
      <trkpt lat="45.938" lon="4.77935">
        <ele>169</ele>
        <time>2018-01-19T10:02:19Z</time>
      </trkpt>
      <trkpt lat="45.93804" lon="4.77939">
        <ele>169</ele>
        <time>2018-01-19T10:02:20Z</time>
      </trkpt>
      <trkpt lat="45.93807" lon="4.77943">
        <ele>169</ele>
        <time>2018-01-19T10:02:21Z</time>
      </trkpt>
      <trkpt lat="45.93811" lon="4.77949">
        <ele>169</ele>
        <time>2018-01-19T10:02:22Z</time>
      </trkpt>
      <trkpt lat="45.93815" lon="4.77953">
        <ele>170</ele>
        <time>2018-01-19T10:02:23Z</time>
      </trkpt>
      <trkpt lat="45.93818" lon="4.77958">
        <ele>170</ele>
        <time>2018-01-19T10:02:24Z</time>
      </trkpt>
      <trkpt lat="45.93822" lon="4.77963">
        <ele>171</ele>
        <time>2018-01-19T10:02:25Z</time>
      </trkpt>
      <trkpt lat="45.93825" lon="4.77966">
        <ele>171</ele>
        <time>2018-01-19T10:02:26Z</time>
      </trkpt>
      <trkpt lat="45.93829" lon="4.77971">
        <ele>172</ele>
        <time>2018-01-19T10:02:27Z</time>
      </trkpt>
      <trkpt lat="45.93833" lon="4.77976">
        <ele>173</ele>
        <time>2018-01-19T10:02:28Z</time>
      </trkpt>
      <trkpt lat="45.93836" lon="4.7798">
        <ele>178</ele>
        <time>2018-01-19T10:02:29Z</time>
      </trkpt>
      <trkpt lat="45.93839" lon="4.77985">
        <ele>178</ele>
        <time>2018-01-19T10:02:30Z</time>
      </trkpt>
      <trkpt lat="45.93842" lon="4.77991">
        <ele>179</ele>
        <time>2018-01-19T10:02:31Z</time>
      </trkpt>
      <trkpt lat="45.93844" lon="4.77998">
        <ele>179</ele>
        <time>2018-01-19T10:02:32Z</time>
      </trkpt>
      <trkpt lat="45.93845" lon="4.78004">
        <ele>181</ele>
        <time>2018-01-19T10:02:33Z</time>
      </trkpt>
      <trkpt lat="45.93846" lon="4.78011">
        <ele>181</ele>
        <time>2018-01-19T10:02:34Z</time>
      </trkpt>
      <trkpt lat="45.93846" lon="4.78018">
        <ele>182</ele>
        <time>2018-01-19T10:02:35Z</time>
      </trkpt>
      <trkpt lat="45.93848" lon="4.7803">
        <ele>182</ele>
        <time>2018-01-19T10:02:37Z</time>
      </trkpt>
      <trkpt lat="45.93849" lon="4.78036">
        <ele>182</ele>
        <time>2018-01-19T10:02:38Z</time>
      </trkpt>
      <trkpt lat="45.9385" lon="4.78047">
        <ele>183</ele>
        <time>2018-01-19T10:02:40Z</time>
      </trkpt>
      <trkpt lat="45.93849" lon="4.78052">
        <ele>183</ele>
        <time>2018-01-19T10:02:41Z</time>
      </trkpt>
      <trkpt lat="45.93847" lon="4.78063">
        <ele>182</ele>
        <time>2018-01-19T10:02:43Z</time>
      </trkpt>
      <trkpt lat="45.93846" lon="4.78068">
        <ele>182</ele>
        <time>2018-01-19T10:02:44Z</time>
      </trkpt>
      <trkpt lat="45.93844" lon="4.78078">
        <ele>181</ele>
        <time>2018-01-19T10:02:46Z</time>
      </trkpt>
      <trkpt lat="45.93843" lon="4.78083">
        <ele>181</ele>
        <time>2018-01-19T10:02:47Z</time>
      </trkpt>
      <trkpt lat="45.93841" lon="4.78095">
        <ele>183</ele>
        <time>2018-01-19T10:02:49Z</time>
      </trkpt>
      <trkpt lat="45.9384" lon="4.78101">
        <ele>183</ele>
        <time>2018-01-19T10:02:50Z</time>
      </trkpt>
      <trkpt lat="45.93837" lon="4.78113">
        <ele>184</ele>
        <time>2018-01-19T10:02:52Z</time>
      </trkpt>
      <trkpt lat="45.93836" lon="4.78119">
        <ele>184</ele>
        <time>2018-01-19T10:02:53Z</time>
      </trkpt>
      <trkpt lat="45.93833" lon="4.78131">
        <ele>180</ele>
        <time>2018-01-19T10:02:55Z</time>
      </trkpt>
      <trkpt lat="45.93832" lon="4.78136">
        <ele>180</ele>
        <time>2018-01-19T10:02:56Z</time>
      </trkpt>
      <trkpt lat="45.93829" lon="4.78147">
        <ele>180</ele>
        <time>2018-01-19T10:02:58Z</time>
      </trkpt>
      <trkpt lat="45.93827" lon="4.78152">
        <ele>181</ele>
        <time>2018-01-19T10:02:59Z</time>
      </trkpt>
      <trkpt lat="45.93824" lon="4.78164">
        <ele>181</ele>
        <time>2018-01-19T10:03:01Z</time>
      </trkpt>
      <trkpt lat="45.93823" lon="4.7817">
        <ele>182</ele>
        <time>2018-01-19T10:03:02Z</time>
      </trkpt>
      <trkpt lat="45.9382" lon="4.78181">
        <ele>182</ele>
        <time>2018-01-19T10:03:04Z</time>
      </trkpt>
      <trkpt lat="45.93819" lon="4.78186">
        <ele>182</ele>
        <time>2018-01-19T10:03:05Z</time>
      </trkpt>
      <trkpt lat="45.93817" lon="4.78195">
        <ele>182</ele>
        <time>2018-01-19T10:03:07Z</time>
      </trkpt>
      <trkpt lat="45.93816" lon="4.782">
        <ele>182</ele>
        <time>2018-01-19T10:03:08Z</time>
      </trkpt>
      <trkpt lat="45.93813" lon="4.7821">
        <ele>182</ele>
        <time>2018-01-19T10:03:10Z</time>
      </trkpt>
      <trkpt lat="45.93812" lon="4.78215">
        <ele>182</ele>
        <time>2018-01-19T10:03:11Z</time>
      </trkpt>
      <trkpt lat="45.93809" lon="4.78223">
        <ele>182</ele>
        <time>2018-01-19T10:03:13Z</time>
      </trkpt>
      <trkpt lat="45.93807" lon="4.78227">
        <ele>182</ele>
        <time>2018-01-19T10:03:14Z</time>
      </trkpt>
      <trkpt lat="45.93801" lon="4.78237">
        <ele>182</ele>
        <time>2018-01-19T10:03:16Z</time>
      </trkpt>
      <trkpt lat="45.93799" lon="4.78241">
        <ele>182</ele>
        <time>2018-01-19T10:03:17Z</time>
      </trkpt>
      <trkpt lat="45.93795" lon="4.78251">
        <ele>183</ele>
        <time>2018-01-19T10:03:19Z</time>
      </trkpt>
      <trkpt lat="45.93793" lon="4.78256">
        <ele>183</ele>
        <time>2018-01-19T10:03:20Z</time>
      </trkpt>
      <trkpt lat="45.93792" lon="4.78267">
        <ele>183</ele>
        <time>2018-01-19T10:03:22Z</time>
      </trkpt>
      <trkpt lat="45.93791" lon="4.78273">
        <ele>183</ele>
        <time>2018-01-19T10:03:23Z</time>
      </trkpt>
      <trkpt lat="45.93789" lon="4.78284">
        <ele>183</ele>
        <time>2018-01-19T10:03:25Z</time>
      </trkpt>
      <trkpt lat="45.93787" lon="4.7829">
        <ele>183</ele>
        <time>2018-01-19T10:03:26Z</time>
      </trkpt>
      <trkpt lat="45.93784" lon="4.78301">
        <ele>183</ele>
        <time>2018-01-19T10:03:28Z</time>
      </trkpt>
      <trkpt lat="45.93781" lon="4.78306">
        <ele>183</ele>
        <time>2018-01-19T10:03:29Z</time>
      </trkpt>
      <trkpt lat="45.93778" lon="4.78317">
        <ele>183</ele>
        <time>2018-01-19T10:03:31Z</time>
      </trkpt>
      <trkpt lat="45.93776" lon="4.78323">
        <ele>183</ele>
        <time>2018-01-19T10:03:32Z</time>
      </trkpt>
      <trkpt lat="45.93775" lon="4.78329">
        <ele>183</ele>
        <time>2018-01-19T10:03:33Z</time>
      </trkpt>
      <trkpt lat="45.93773" lon="4.78336">
        <ele>183</ele>
        <time>2018-01-19T10:03:34Z</time>
      </trkpt>
      <trkpt lat="45.93772" lon="4.78344">
        <ele>183</ele>
        <time>2018-01-19T10:03:35Z</time>
      </trkpt>
      <trkpt lat="45.93771" lon="4.78351">
        <ele>183</ele>
        <time>2018-01-19T10:03:36Z</time>
      </trkpt>
      <trkpt lat="45.93768" lon="4.78357">
        <ele>183</ele>
        <time>2018-01-19T10:03:37Z</time>
      </trkpt>
      <trkpt lat="45.93766" lon="4.78364">
        <ele>183</ele>
        <time>2018-01-19T10:03:38Z</time>
      </trkpt>
      <trkpt lat="45.93765" lon="4.7837">
        <ele>183</ele>
        <time>2018-01-19T10:03:39Z</time>
      </trkpt>
      <trkpt lat="45.93763" lon="4.78378">
        <ele>183</ele>
        <time>2018-01-19T10:03:40Z</time>
      </trkpt>
      <trkpt lat="45.93761" lon="4.78383">
        <ele>183</ele>
        <time>2018-01-19T10:03:41Z</time>
      </trkpt>
      <trkpt lat="45.9376" lon="4.7839">
        <ele>183</ele>
        <time>2018-01-19T10:03:42Z</time>
      </trkpt>
      <trkpt lat="45.93758" lon="4.78396">
        <ele>183</ele>
        <time>2018-01-19T10:03:43Z</time>
      </trkpt>
      <trkpt lat="45.93757" lon="4.78403">
        <ele>182</ele>
        <time>2018-01-19T10:03:44Z</time>
      </trkpt>
      <trkpt lat="45.93755" lon="4.78415">
        <ele>182</ele>
        <time>2018-01-19T10:03:46Z</time>
      </trkpt>
      <trkpt lat="45.93753" lon="4.78421">
        <ele>182</ele>
        <time>2018-01-19T10:03:47Z</time>
      </trkpt>
      <trkpt lat="45.93752" lon="4.78428">
        <ele>182</ele>
        <time>2018-01-19T10:03:48Z</time>
      </trkpt>
      <trkpt lat="45.9375" lon="4.78435">
        <ele>180</ele>
        <time>2018-01-19T10:03:49Z</time>
      </trkpt>
      <trkpt lat="45.93748" lon="4.78443">
        <ele>180</ele>
        <time>2018-01-19T10:03:50Z</time>
      </trkpt>
      <trkpt lat="45.93746" lon="4.7845">
        <ele>180</ele>
        <time>2018-01-19T10:03:51Z</time>
      </trkpt>
      <trkpt lat="45.93744" lon="4.78457">
        <ele>180</ele>
        <time>2018-01-19T10:03:52Z</time>
      </trkpt>
      <trkpt lat="45.93742" lon="4.78464">
        <ele>180</ele>
        <time>2018-01-19T10:03:53Z</time>
      </trkpt>
      <trkpt lat="45.93741" lon="4.78472">
        <ele>180</ele>
        <time>2018-01-19T10:03:54Z</time>
      </trkpt>
      <trkpt lat="45.93739" lon="4.7848">
        <ele>180</ele>
        <time>2018-01-19T10:03:55Z</time>
      </trkpt>
      <trkpt lat="45.93737" lon="4.78487">
        <ele>180</ele>
        <time>2018-01-19T10:03:56Z</time>
      </trkpt>
      <trkpt lat="45.93734" lon="4.78494">
        <ele>180</ele>
        <time>2018-01-19T10:03:57Z</time>
      </trkpt>
      <trkpt lat="45.93732" lon="4.78502">
        <ele>179</ele>
        <time>2018-01-19T10:03:58Z</time>
      </trkpt>
      <trkpt lat="45.93731" lon="4.78511">
        <ele>179</ele>
        <time>2018-01-19T10:03:59Z</time>
      </trkpt>
      <trkpt lat="45.93729" lon="4.78519">
        <ele>179</ele>
        <time>2018-01-19T10:04:00Z</time>
      </trkpt>
      <trkpt lat="45.93727" lon="4.78527">
        <ele>179</ele>
        <time>2018-01-19T10:04:01Z</time>
      </trkpt>
      <trkpt lat="45.93725" lon="4.78535">
        <ele>178</ele>
        <time>2018-01-19T10:04:02Z</time>
      </trkpt>
      <trkpt lat="45.93723" lon="4.78543">
        <ele>178</ele>
        <time>2018-01-19T10:04:03Z</time>
      </trkpt>
      <trkpt lat="45.9372" lon="4.78551">
        <ele>178</ele>
        <time>2018-01-19T10:04:04Z</time>
      </trkpt>
      <trkpt lat="45.93718" lon="4.78559">
        <ele>178</ele>
        <time>2018-01-19T10:04:05Z</time>
      </trkpt>
      <trkpt lat="45.93715" lon="4.78566">
        <ele>178</ele>
        <time>2018-01-19T10:04:06Z</time>
      </trkpt>
      <trkpt lat="45.93713" lon="4.78575">
        <ele>178</ele>
        <time>2018-01-19T10:04:07Z</time>
      </trkpt>
      <trkpt lat="45.93711" lon="4.78584">
        <ele>176</ele>
        <time>2018-01-19T10:04:08Z</time>
      </trkpt>
      <trkpt lat="45.9371" lon="4.78591">
        <ele>176</ele>
        <time>2018-01-19T10:04:09Z</time>
      </trkpt>
      <trkpt lat="45.93708" lon="4.78599">
        <ele>176</ele>
        <time>2018-01-19T10:04:10Z</time>
      </trkpt>
      <trkpt lat="45.93706" lon="4.78605">
        <ele>176</ele>
        <time>2018-01-19T10:04:11Z</time>
      </trkpt>
      <trkpt lat="45.93704" lon="4.78617">
        <ele>176</ele>
        <time>2018-01-19T10:04:13Z</time>
      </trkpt>
      <trkpt lat="45.93705" lon="4.78624">
        <ele>176</ele>
        <time>2018-01-19T10:04:14Z</time>
      </trkpt>
      <trkpt lat="45.93713" lon="4.78631">
        <ele>176</ele>
        <time>2018-01-19T10:04:16Z</time>
      </trkpt>
      <trkpt lat="45.93717" lon="4.7863">
        <ele>176</ele>
        <time>2018-01-19T10:04:17Z</time>
      </trkpt>
      <trkpt lat="45.93723" lon="4.78626">
        <ele>177</ele>
        <time>2018-01-19T10:04:19Z</time>
      </trkpt>
      <trkpt lat="45.93726" lon="4.78626">
        <ele>177</ele>
        <time>2018-01-19T10:04:20Z</time>
      </trkpt>
      <trkpt lat="45.93733" lon="4.78625">
        <ele>177</ele>
        <time>2018-01-19T10:04:22Z</time>
      </trkpt>
      <trkpt lat="45.93736" lon="4.78624">
        <ele>177</ele>
        <time>2018-01-19T10:04:23Z</time>
      </trkpt>
      <trkpt lat="45.93743" lon="4.78622">
        <ele>177</ele>
        <time>2018-01-19T10:04:25Z</time>
      </trkpt>
      <trkpt lat="45.93746" lon="4.78621">
        <ele>177</ele>
        <time>2018-01-19T10:04:26Z</time>
      </trkpt>
      <trkpt lat="45.93753" lon="4.78621">
        <ele>181</ele>
        <time>2018-01-19T10:04:28Z</time>
      </trkpt>
      <trkpt lat="45.93756" lon="4.7862">
        <ele>181</ele>
        <time>2018-01-19T10:04:29Z</time>
      </trkpt>
      <trkpt lat="45.93763" lon="4.78619">
        <ele>181</ele>
        <time>2018-01-19T10:04:31Z</time>
      </trkpt>
      <trkpt lat="45.93766" lon="4.78619">
        <ele>181</ele>
        <time>2018-01-19T10:04:32Z</time>
      </trkpt>
      <trkpt lat="45.93774" lon="4.7862">
        <ele>181</ele>
        <time>2018-01-19T10:04:35Z</time>
      </trkpt>
      <trkpt lat="45.93776" lon="4.7862">
        <ele>181</ele>
        <time>2018-01-19T10:04:36Z</time>
      </trkpt>
      <trkpt lat="45.93785" lon="4.7862">
        <ele>182</ele>
        <time>2018-01-19T10:04:39Z</time>
      </trkpt>
      <trkpt lat="45.93788" lon="4.78619">
        <ele>182</ele>
        <time>2018-01-19T10:04:40Z</time>
      </trkpt>
      <trkpt lat="45.93794" lon="4.78617">
        <ele>182</ele>
        <time>2018-01-19T10:04:42Z</time>
      </trkpt>
      <trkpt lat="45.93797" lon="4.78615">
        <ele>182</ele>
        <time>2018-01-19T10:04:43Z</time>
      </trkpt>
      <trkpt lat="45.93804" lon="4.78613">
        <ele>182</ele>
        <time>2018-01-19T10:04:45Z</time>
      </trkpt>
      <trkpt lat="45.93807" lon="4.78612">
        <ele>183</ele>
        <time>2018-01-19T10:04:46Z</time>
      </trkpt>
      <trkpt lat="45.93813" lon="4.78611">
        <ele>183</ele>
        <time>2018-01-19T10:04:48Z</time>
      </trkpt>
      <trkpt lat="45.93816" lon="4.7861">
        <ele>183</ele>
        <time>2018-01-19T10:04:49Z</time>
      </trkpt>
      <trkpt lat="45.93825" lon="4.7861">
        <ele>184</ele>
        <time>2018-01-19T10:04:52Z</time>
      </trkpt>
      <trkpt lat="45.93828" lon="4.78609">
        <ele>184</ele>
        <time>2018-01-19T10:04:53Z</time>
      </trkpt>
      <trkpt lat="45.93836" lon="4.78608">
        <ele>187</ele>
        <time>2018-01-19T10:04:56Z</time>
      </trkpt>
      <trkpt lat="45.93839" lon="4.78608">
        <ele>187</ele>
        <time>2018-01-19T10:04:57Z</time>
      </trkpt>
      <trkpt lat="45.93846" lon="4.78606">
        <ele>188</ele>
        <time>2018-01-19T10:05:00Z</time>
      </trkpt>
      <trkpt lat="45.93849" lon="4.78606">
        <ele>188</ele>
        <time>2018-01-19T10:05:01Z</time>
      </trkpt>
      <trkpt lat="45.93856" lon="4.78606">
        <ele>188</ele>
        <time>2018-01-19T10:05:04Z</time>
      </trkpt>
      <trkpt lat="45.93858" lon="4.78606">
        <ele>188</ele>
        <time>2018-01-19T10:05:05Z</time>
      </trkpt>
      <trkpt lat="45.93865" lon="4.78607">
        <ele>188</ele>
        <time>2018-01-19T10:05:08Z</time>
      </trkpt>
      <trkpt lat="45.93868" lon="4.78607">
        <ele>188</ele>
        <time>2018-01-19T10:05:09Z</time>
      </trkpt>
      <trkpt lat="45.93875" lon="4.78606">
        <ele>189</ele>
        <time>2018-01-19T10:05:12Z</time>
      </trkpt>
      <trkpt lat="45.93878" lon="4.78605">
        <ele>189</ele>
        <time>2018-01-19T10:05:13Z</time>
      </trkpt>
      <trkpt lat="45.93885" lon="4.78601">
        <ele>189</ele>
        <time>2018-01-19T10:05:16Z</time>
      </trkpt>
      <trkpt lat="45.93888" lon="4.78599">
        <ele>189</ele>
        <time>2018-01-19T10:05:17Z</time>
      </trkpt>
      <trkpt lat="45.93895" lon="4.78595">
        <ele>190</ele>
        <time>2018-01-19T10:05:20Z</time>
      </trkpt>
      <trkpt lat="45.93897" lon="4.78595">
        <ele>190</ele>
        <time>2018-01-19T10:05:21Z</time>
      </trkpt>
      <trkpt lat="45.93904" lon="4.78593">
        <ele>191</ele>
        <time>2018-01-19T10:05:24Z</time>
      </trkpt>
      <trkpt lat="45.93906" lon="4.78592">
        <ele>191</ele>
        <time>2018-01-19T10:05:25Z</time>
      </trkpt>
      <trkpt lat="45.93913" lon="4.78587">
        <ele>192</ele>
        <time>2018-01-19T10:05:28Z</time>
      </trkpt>
      <trkpt lat="45.93914" lon="4.78585">
        <ele>192</ele>
        <time>2018-01-19T10:05:29Z</time>
      </trkpt>
      <trkpt lat="45.93921" lon="4.78579">
        <ele>194</ele>
        <time>2018-01-19T10:05:33Z</time>
      </trkpt>
      <trkpt lat="45.93923" lon="4.78577">
        <ele>195</ele>
        <time>2018-01-19T10:05:34Z</time>
      </trkpt>
      <trkpt lat="45.9393" lon="4.78575">
        <ele>196</ele>
        <time>2018-01-19T10:05:38Z</time>
      </trkpt>
      <trkpt lat="45.93932" lon="4.78576">
        <ele>196</ele>
        <time>2018-01-19T10:05:39Z</time>
      </trkpt>
      <trkpt lat="45.93934" lon="4.78588">
        <ele>195</ele>
        <time>2018-01-19T10:05:43Z</time>
      </trkpt>
      <trkpt lat="45.93934" lon="4.78593">
        <ele>195</ele>
        <time>2018-01-19T10:05:44Z</time>
      </trkpt>
      <trkpt lat="45.93934" lon="4.78602">
        <ele>195</ele>
        <time>2018-01-19T10:05:46Z</time>
      </trkpt>
      <trkpt lat="45.93934" lon="4.78608">
        <ele>195</ele>
        <time>2018-01-19T10:05:47Z</time>
      </trkpt>
      <trkpt lat="45.93935" lon="4.78616">
        <ele>195</ele>
        <time>2018-01-19T10:05:49Z</time>
      </trkpt>
      <trkpt lat="45.93935" lon="4.78621">
        <ele>195</ele>
        <time>2018-01-19T10:05:50Z</time>
      </trkpt>
      <trkpt lat="45.93934" lon="4.7863">
        <ele>195</ele>
        <time>2018-01-19T10:05:52Z</time>
      </trkpt>
      <trkpt lat="45.93934" lon="4.78635">
        <ele>195</ele>
        <time>2018-01-19T10:05:53Z</time>
      </trkpt>
      <trkpt lat="45.93935" lon="4.78644">
        <ele>195</ele>
        <time>2018-01-19T10:05:55Z</time>
      </trkpt>
      <trkpt lat="45.93935" lon="4.78649">
        <ele>194</ele>
        <time>2018-01-19T10:05:56Z</time>
      </trkpt>
      <trkpt lat="45.93935" lon="4.78661">
        <ele>194</ele>
        <time>2018-01-19T10:05:59Z</time>
      </trkpt>
      <trkpt lat="45.93935" lon="4.78666">
        <ele>194</ele>
        <time>2018-01-19T10:06:00Z</time>
      </trkpt>
      <trkpt lat="45.93936" lon="4.78676">
        <ele>193</ele>
        <time>2018-01-19T10:06:02Z</time>
      </trkpt>
      <trkpt lat="45.93937" lon="4.78682">
        <ele>193</ele>
        <time>2018-01-19T10:06:03Z</time>
      </trkpt>
      <trkpt lat="45.93938" lon="4.78693">
        <ele>194</ele>
        <time>2018-01-19T10:06:05Z</time>
      </trkpt>
      <trkpt lat="45.93938" lon="4.78698">
        <ele>194</ele>
        <time>2018-01-19T10:06:06Z</time>
      </trkpt>
      <trkpt lat="45.93939" lon="4.78709">
        <ele>194</ele>
        <time>2018-01-19T10:06:08Z</time>
      </trkpt>
      <trkpt lat="45.9394" lon="4.78714">
        <ele>194</ele>
        <time>2018-01-19T10:06:09Z</time>
      </trkpt>
      <trkpt lat="45.9394" lon="4.78724">
        <ele>194</ele>
        <time>2018-01-19T10:06:11Z</time>
      </trkpt>
      <trkpt lat="45.9394" lon="4.78729">
        <ele>194</ele>
        <time>2018-01-19T10:06:12Z</time>
      </trkpt>
      <trkpt lat="45.9394" lon="4.7874">
        <ele>194</ele>
        <time>2018-01-19T10:06:14Z</time>
      </trkpt>
      <trkpt lat="45.93941" lon="4.78744">
        <ele>194</ele>
        <time>2018-01-19T10:06:15Z</time>
      </trkpt>
      <trkpt lat="45.93941" lon="4.78754">
        <ele>193</ele>
        <time>2018-01-19T10:06:17Z</time>
      </trkpt>
      <trkpt lat="45.93941" lon="4.7876">
        <ele>194</ele>
        <time>2018-01-19T10:06:18Z</time>
      </trkpt>
      <trkpt lat="45.93942" lon="4.78773">
        <ele>194</ele>
        <time>2018-01-19T10:06:20Z</time>
      </trkpt>
      <trkpt lat="45.93942" lon="4.78779">
        <ele>194</ele>
        <time>2018-01-19T10:06:21Z</time>
      </trkpt>
      <trkpt lat="45.93942" lon="4.78788">
        <ele>194</ele>
        <time>2018-01-19T10:06:22Z</time>
      </trkpt>
      <trkpt lat="45.93943" lon="4.78795">
        <ele>194</ele>
        <time>2018-01-19T10:06:23Z</time>
      </trkpt>
      <trkpt lat="45.93943" lon="4.78803">
        <ele>194</ele>
        <time>2018-01-19T10:06:24Z</time>
      </trkpt>
      <trkpt lat="45.93943" lon="4.7881">
        <ele>194</ele>
        <time>2018-01-19T10:06:25Z</time>
      </trkpt>
      <trkpt lat="45.93942" lon="4.78818">
        <ele>194</ele>
        <time>2018-01-19T10:06:26Z</time>
      </trkpt>
      <trkpt lat="45.93942" lon="4.78824">
        <ele>194</ele>
        <time>2018-01-19T10:06:27Z</time>
      </trkpt>
      <trkpt lat="45.93943" lon="4.78831">
        <ele>194</ele>
        <time>2018-01-19T10:06:28Z</time>
      </trkpt>
      <trkpt lat="45.93943" lon="4.78838">
        <ele>194</ele>
        <time>2018-01-19T10:06:29Z</time>
      </trkpt>
      <trkpt lat="45.93942" lon="4.78849">
        <ele>194</ele>
        <time>2018-01-19T10:06:31Z</time>
      </trkpt>
      <trkpt lat="45.93942" lon="4.78855">
        <ele>194</ele>
        <time>2018-01-19T10:06:32Z</time>
      </trkpt>
      <trkpt lat="45.93941" lon="4.78864">
        <ele>194</ele>
        <time>2018-01-19T10:06:34Z</time>
      </trkpt>
      <trkpt lat="45.93942" lon="4.7887">
        <ele>194</ele>
        <time>2018-01-19T10:06:35Z</time>
      </trkpt>
      <trkpt lat="45.93942" lon="4.78883">
        <ele>194</ele>
        <time>2018-01-19T10:06:37Z</time>
      </trkpt>
      <trkpt lat="45.93942" lon="4.78888">
        <ele>194</ele>
        <time>2018-01-19T10:06:38Z</time>
      </trkpt>
      <trkpt lat="45.93943" lon="4.78901">
        <ele>193</ele>
        <time>2018-01-19T10:06:40Z</time>
      </trkpt>
      <trkpt lat="45.93943" lon="4.78906">
        <ele>193</ele>
        <time>2018-01-19T10:06:41Z</time>
      </trkpt>
      <trkpt lat="45.93943" lon="4.78917">
        <ele>193</ele>
        <time>2018-01-19T10:06:43Z</time>
      </trkpt>
      <trkpt lat="45.93944" lon="4.78922">
        <ele>193</ele>
        <time>2018-01-19T10:06:44Z</time>
      </trkpt>
      <trkpt lat="45.93944" lon="4.78934">
        <ele>194</ele>
        <time>2018-01-19T10:06:46Z</time>
      </trkpt>
      <trkpt lat="45.93945" lon="4.7894">
        <ele>194</ele>
        <time>2018-01-19T10:06:47Z</time>
      </trkpt>
      <trkpt lat="45.93946" lon="4.78952">
        <ele>194</ele>
        <time>2018-01-19T10:06:49Z</time>
      </trkpt>
      <trkpt lat="45.93946" lon="4.78958">
        <ele>194</ele>
        <time>2018-01-19T10:06:50Z</time>
      </trkpt>
      <trkpt lat="45.93946" lon="4.78965">
        <ele>194</ele>
        <time>2018-01-19T10:06:51Z</time>
      </trkpt>
      <trkpt lat="45.93946" lon="4.78971">
        <ele>194</ele>
        <time>2018-01-19T10:06:52Z</time>
      </trkpt>
      <trkpt lat="45.93947" lon="4.78984">
        <ele>194</ele>
        <time>2018-01-19T10:06:54Z</time>
      </trkpt>
      <trkpt lat="45.93947" lon="4.7899">
        <ele>194</ele>
        <time>2018-01-19T10:06:55Z</time>
      </trkpt>
      <trkpt lat="45.93948" lon="4.78998">
        <ele>194</ele>
        <time>2018-01-19T10:06:56Z</time>
      </trkpt>
      <trkpt lat="45.93948" lon="4.79005">
        <ele>195</ele>
        <time>2018-01-19T10:06:57Z</time>
      </trkpt>
      <trkpt lat="45.93949" lon="4.79016">
        <ele>195</ele>
        <time>2018-01-19T10:06:59Z</time>
      </trkpt>
      <trkpt lat="45.93949" lon="4.79021">
        <ele>195</ele>
        <time>2018-01-19T10:07:00Z</time>
      </trkpt>
      <trkpt lat="45.93948" lon="4.79033">
        <ele>195</ele>
        <time>2018-01-19T10:07:02Z</time>
      </trkpt>
      <trkpt lat="45.93948" lon="4.79039">
        <ele>196</ele>
        <time>2018-01-19T10:07:03Z</time>
      </trkpt>
      <trkpt lat="45.93948" lon="4.79051">
        <ele>196</ele>
        <time>2018-01-19T10:07:05Z</time>
      </trkpt>
      <trkpt lat="45.93948" lon="4.79056">
        <ele>196</ele>
        <time>2018-01-19T10:07:06Z</time>
      </trkpt>
      <trkpt lat="45.93949" lon="4.79067">
        <ele>196</ele>
        <time>2018-01-19T10:07:08Z</time>
      </trkpt>
      <trkpt lat="45.93949" lon="4.79073">
        <ele>196</ele>
        <time>2018-01-19T10:07:09Z</time>
      </trkpt>
      <trkpt lat="45.9395" lon="4.79084">
        <ele>196</ele>
        <time>2018-01-19T10:07:11Z</time>
      </trkpt>
      <trkpt lat="45.9395" lon="4.79089">
        <ele>196</ele>
        <time>2018-01-19T10:07:12Z</time>
      </trkpt>
      <trkpt lat="45.9395" lon="4.791">
        <ele>197</ele>
        <time>2018-01-19T10:07:14Z</time>
      </trkpt>
      <trkpt lat="45.9395" lon="4.79104">
        <ele>197</ele>
        <time>2018-01-19T10:07:15Z</time>
      </trkpt>
      <trkpt lat="45.93949" lon="4.79114">
        <ele>197</ele>
        <time>2018-01-19T10:07:17Z</time>
      </trkpt>
      <trkpt lat="45.93949" lon="4.7912">
        <ele>197</ele>
        <time>2018-01-19T10:07:18Z</time>
      </trkpt>
      <trkpt lat="45.93949" lon="4.79132">
        <ele>197</ele>
        <time>2018-01-19T10:07:20Z</time>
      </trkpt>
      <trkpt lat="45.93948" lon="4.79137">
        <ele>197</ele>
        <time>2018-01-19T10:07:21Z</time>
      </trkpt>
      <trkpt lat="45.93948" lon="4.79148">
        <ele>196</ele>
        <time>2018-01-19T10:07:23Z</time>
      </trkpt>
      <trkpt lat="45.93948" lon="4.79154">
        <ele>196</ele>
        <time>2018-01-19T10:07:24Z</time>
      </trkpt>
      <trkpt lat="45.93949" lon="4.79166">
        <ele>196</ele>
        <time>2018-01-19T10:07:26Z</time>
      </trkpt>
      <trkpt lat="45.93949" lon="4.79172">
        <ele>197</ele>
        <time>2018-01-19T10:07:27Z</time>
      </trkpt>
      <trkpt lat="45.93948" lon="4.79185">
        <ele>197</ele>
        <time>2018-01-19T10:07:29Z</time>
      </trkpt>
      <trkpt lat="45.93949" lon="4.79191">
        <ele>197</ele>
        <time>2018-01-19T10:07:30Z</time>
      </trkpt>
      <trkpt lat="45.9395" lon="4.79202">
        <ele>197</ele>
        <time>2018-01-19T10:07:32Z</time>
      </trkpt>
      <trkpt lat="45.9395" lon="4.79207">
        <ele>197</ele>
        <time>2018-01-19T10:07:33Z</time>
      </trkpt>
      <trkpt lat="45.9395" lon="4.79217">
        <ele>197</ele>
        <time>2018-01-19T10:07:35Z</time>
      </trkpt>
      <trkpt lat="45.9395" lon="4.79221">
        <ele>197</ele>
        <time>2018-01-19T10:07:36Z</time>
      </trkpt>
      <trkpt lat="45.9395" lon="4.79226">
        <ele>197</ele>
        <time>2018-01-19T10:07:37Z</time>
      </trkpt>
      <trkpt lat="45.93951" lon="4.79237">
        <ele>197</ele>
        <time>2018-01-19T10:07:38Z</time>
      </trkpt>
      <trkpt lat="45.93953" lon="4.79248">
        <ele>197</ele>
        <time>2018-01-19T10:07:40Z</time>
      </trkpt>
      <trkpt lat="45.93953" lon="4.79254">
        <ele>198</ele>
        <time>2018-01-19T10:07:41Z</time>
      </trkpt>
      <trkpt lat="45.93954" lon="4.79265">
        <ele>198</ele>
        <time>2018-01-19T10:07:43Z</time>
      </trkpt>
      <trkpt lat="45.93954" lon="4.7927">
        <ele>198</ele>
        <time>2018-01-19T10:07:44Z</time>
      </trkpt>
      <trkpt lat="45.93954" lon="4.79282">
        <ele>198</ele>
        <time>2018-01-19T10:07:46Z</time>
      </trkpt>
      <trkpt lat="45.93954" lon="4.79287">
        <ele>198</ele>
        <time>2018-01-19T10:07:47Z</time>
      </trkpt>
      <trkpt lat="45.93955" lon="4.79297">
        <ele>199</ele>
        <time>2018-01-19T10:07:49Z</time>
      </trkpt>
      <trkpt lat="45.93955" lon="4.79303">
        <ele>199</ele>
        <time>2018-01-19T10:07:50Z</time>
      </trkpt>
      <trkpt lat="45.93955" lon="4.79315">
        <ele>199</ele>
        <time>2018-01-19T10:07:52Z</time>
      </trkpt>
      <trkpt lat="45.93955" lon="4.79321">
        <ele>199</ele>
        <time>2018-01-19T10:07:53Z</time>
      </trkpt>
      <trkpt lat="45.93955" lon="4.79328">
        <ele>199</ele>
        <time>2018-01-19T10:07:54Z</time>
      </trkpt>
      <trkpt lat="45.93955" lon="4.79334">
        <ele>200</ele>
        <time>2018-01-19T10:07:55Z</time>
      </trkpt>
      <trkpt lat="45.93955" lon="4.79346">
        <ele>201</ele>
        <time>2018-01-19T10:07:57Z</time>
      </trkpt>
      <trkpt lat="45.93955" lon="4.79353">
        <ele>201</ele>
        <time>2018-01-19T10:07:58Z</time>
      </trkpt>
      <trkpt lat="45.93954" lon="4.79365">
        <ele>201</ele>
        <time>2018-01-19T10:08:00Z</time>
      </trkpt>
      <trkpt lat="45.93954" lon="4.79371">
        <ele>201</ele>
        <time>2018-01-19T10:08:01Z</time>
      </trkpt>
      <trkpt lat="45.93953" lon="4.79383">
        <ele>201</ele>
        <time>2018-01-19T10:08:03Z</time>
      </trkpt>
      <trkpt lat="45.93953" lon="4.79389">
        <ele>201</ele>
        <time>2018-01-19T10:08:04Z</time>
      </trkpt>
      <trkpt lat="45.93954" lon="4.79401">
        <ele>201</ele>
        <time>2018-01-19T10:08:06Z</time>
      </trkpt>
      <trkpt lat="45.93954" lon="4.79406">
        <ele>201</ele>
        <time>2018-01-19T10:08:07Z</time>
      </trkpt>
      <trkpt lat="45.93954" lon="4.79418">
        <ele>202</ele>
        <time>2018-01-19T10:08:09Z</time>
      </trkpt>
      <trkpt lat="45.93954" lon="4.79423">
        <ele>202</ele>
        <time>2018-01-19T10:08:10Z</time>
      </trkpt>
      <trkpt lat="45.93954" lon="4.79435">
        <ele>202</ele>
        <time>2018-01-19T10:08:12Z</time>
      </trkpt>
      <trkpt lat="45.93954" lon="4.7944">
        <ele>202</ele>
        <time>2018-01-19T10:08:13Z</time>
      </trkpt>
      <trkpt lat="45.93953" lon="4.7945">
        <ele>203</ele>
        <time>2018-01-19T10:08:15Z</time>
      </trkpt>
      <trkpt lat="45.93953" lon="4.79454">
        <ele>203</ele>
        <time>2018-01-19T10:08:16Z</time>
      </trkpt>
      <trkpt lat="45.93953" lon="4.79465">
        <ele>203</ele>
        <time>2018-01-19T10:08:18Z</time>
      </trkpt>
      <trkpt lat="45.93952" lon="4.7947">
        <ele>203</ele>
        <time>2018-01-19T10:08:19Z</time>
      </trkpt>
      <trkpt lat="45.93952" lon="4.79481">
        <ele>202</ele>
        <time>2018-01-19T10:08:21Z</time>
      </trkpt>
      <trkpt lat="45.93952" lon="4.79486">
        <ele>202</ele>
        <time>2018-01-19T10:08:22Z</time>
      </trkpt>
      <trkpt lat="45.93953" lon="4.79497">
        <ele>203</ele>
        <time>2018-01-19T10:08:24Z</time>
      </trkpt>
      <trkpt lat="45.93953" lon="4.79502">
        <ele>204</ele>
        <time>2018-01-19T10:08:25Z</time>
      </trkpt>
      <trkpt lat="45.93955" lon="4.79513">
        <ele>204</ele>
        <time>2018-01-19T10:08:27Z</time>
      </trkpt>
      <trkpt lat="45.93955" lon="4.79517">
        <ele>204</ele>
        <time>2018-01-19T10:08:28Z</time>
      </trkpt>
      <trkpt lat="45.93957" lon="4.79528">
        <ele>205</ele>
        <time>2018-01-19T10:08:30Z</time>
      </trkpt>
      <trkpt lat="45.93958" lon="4.79533">
        <ele>205</ele>
        <time>2018-01-19T10:08:31Z</time>
      </trkpt>
      <trkpt lat="45.93959" lon="4.79543">
        <ele>205</ele>
        <time>2018-01-19T10:08:33Z</time>
      </trkpt>
      <trkpt lat="45.93959" lon="4.79547">
        <ele>205</ele>
        <time>2018-01-19T10:08:34Z</time>
      </trkpt>
      <trkpt lat="45.9396" lon="4.79557">
        <ele>205</ele>
        <time>2018-01-19T10:08:36Z</time>
      </trkpt>
      <trkpt lat="45.9396" lon="4.79562">
        <ele>205</ele>
        <time>2018-01-19T10:08:37Z</time>
      </trkpt>
      <trkpt lat="45.93961" lon="4.79572">
        <ele>206</ele>
        <time>2018-01-19T10:08:39Z</time>
      </trkpt>
      <trkpt lat="45.93962" lon="4.79577">
        <ele>206</ele>
        <time>2018-01-19T10:08:40Z</time>
      </trkpt>
      <trkpt lat="45.93963" lon="4.79587">
        <ele>207</ele>
        <time>2018-01-19T10:08:42Z</time>
      </trkpt>
      <trkpt lat="45.93963" lon="4.79592">
        <ele>207</ele>
        <time>2018-01-19T10:08:43Z</time>
      </trkpt>
      <trkpt lat="45.93963" lon="4.79602">
        <ele>207</ele>
        <time>2018-01-19T10:08:45Z</time>
      </trkpt>
      <trkpt lat="45.93963" lon="4.79607">
        <ele>207</ele>
        <time>2018-01-19T10:08:46Z</time>
      </trkpt>
      <trkpt lat="45.93964" lon="4.79618">
        <ele>207</ele>
        <time>2018-01-19T10:08:48Z</time>
      </trkpt>
      <trkpt lat="45.93964" lon="4.79623">
        <ele>207</ele>
        <time>2018-01-19T10:08:49Z</time>
      </trkpt>
      <trkpt lat="45.93965" lon="4.79634">
        <ele>207</ele>
        <time>2018-01-19T10:08:51Z</time>
      </trkpt>
      <trkpt lat="45.93965" lon="4.79639">
        <ele>207</ele>
        <time>2018-01-19T10:08:52Z</time>
      </trkpt>
      <trkpt lat="45.93966" lon="4.79648">
        <ele>207</ele>
        <time>2018-01-19T10:08:54Z</time>
      </trkpt>
      <trkpt lat="45.93966" lon="4.79652">
        <ele>207</ele>
        <time>2018-01-19T10:08:55Z</time>
      </trkpt>
      <trkpt lat="45.93966" lon="4.7966">
        <ele>208</ele>
        <time>2018-01-19T10:08:57Z</time>
      </trkpt>
      <trkpt lat="45.93966" lon="4.79665">
        <ele>208</ele>
        <time>2018-01-19T10:08:58Z</time>
      </trkpt>
      <trkpt lat="45.93966" lon="4.79675">
        <ele>207</ele>
        <time>2018-01-19T10:09:00Z</time>
      </trkpt>
      <trkpt lat="45.93966" lon="4.7968">
        <ele>207</ele>
        <time>2018-01-19T10:09:01Z</time>
      </trkpt>
      <trkpt lat="45.93967" lon="4.79689">
        <ele>207</ele>
        <time>2018-01-19T10:09:03Z</time>
      </trkpt>
      <trkpt lat="45.93967" lon="4.79694">
        <ele>207</ele>
        <time>2018-01-19T10:09:04Z</time>
      </trkpt>
      <trkpt lat="45.93968" lon="4.79704">
        <ele>207</ele>
        <time>2018-01-19T10:09:06Z</time>
      </trkpt>
      <trkpt lat="45.93968" lon="4.7971">
        <ele>207</ele>
        <time>2018-01-19T10:09:07Z</time>
      </trkpt>
      <trkpt lat="45.93969" lon="4.7972">
        <ele>207</ele>
        <time>2018-01-19T10:09:09Z</time>
      </trkpt>
      <trkpt lat="45.9397" lon="4.79725">
        <ele>207</ele>
        <time>2018-01-19T10:09:10Z</time>
      </trkpt>
      <trkpt lat="45.93971" lon="4.79735">
        <ele>207</ele>
        <time>2018-01-19T10:09:12Z</time>
      </trkpt>
      <trkpt lat="45.93972" lon="4.79741">
        <ele>207</ele>
        <time>2018-01-19T10:09:13Z</time>
      </trkpt>
      <trkpt lat="45.93973" lon="4.79752">
        <ele>206</ele>
        <time>2018-01-19T10:09:15Z</time>
      </trkpt>
      <trkpt lat="45.93973" lon="4.79758">
        <ele>206</ele>
        <time>2018-01-19T10:09:16Z</time>
      </trkpt>
      <trkpt lat="45.93974" lon="4.7977">
        <ele>206</ele>
        <time>2018-01-19T10:09:18Z</time>
      </trkpt>
      <trkpt lat="45.93975" lon="4.79777">
        <ele>206</ele>
        <time>2018-01-19T10:09:19Z</time>
      </trkpt>
      <trkpt lat="45.93975" lon="4.79788">
        <ele>206</ele>
        <time>2018-01-19T10:09:21Z</time>
      </trkpt>
      <trkpt lat="45.93974" lon="4.79793">
        <ele>206</ele>
        <time>2018-01-19T10:09:22Z</time>
      </trkpt>
      <trkpt lat="45.93973" lon="4.79804">
        <ele>207</ele>
        <time>2018-01-19T10:09:24Z</time>
      </trkpt>
      <trkpt lat="45.93973" lon="4.79809">
        <ele>207</ele>
        <time>2018-01-19T10:09:25Z</time>
      </trkpt>
      <trkpt lat="45.93972" lon="4.79821">
        <ele>207</ele>
        <time>2018-01-19T10:09:27Z</time>
      </trkpt>
      <trkpt lat="45.93971" lon="4.79828">
        <ele>207</ele>
        <time>2018-01-19T10:09:28Z</time>
      </trkpt>
      <trkpt lat="45.9397" lon="4.79833">
        <ele>207</ele>
        <time>2018-01-19T10:09:29Z</time>
      </trkpt>
      <trkpt lat="45.93968" lon="4.7984">
        <ele>206</ele>
        <time>2018-01-19T10:09:30Z</time>
      </trkpt>
      <trkpt lat="45.93967" lon="4.79847">
        <ele>206</ele>
        <time>2018-01-19T10:09:31Z</time>
      </trkpt>
      <trkpt lat="45.93966" lon="4.79854">
        <ele>206</ele>
        <time>2018-01-19T10:09:32Z</time>
      </trkpt>
      <trkpt lat="45.93965" lon="4.79861">
        <ele>206</ele>
        <time>2018-01-19T10:09:33Z</time>
      </trkpt>
      <trkpt lat="45.93965" lon="4.79868">
        <ele>206</ele>
        <time>2018-01-19T10:09:34Z</time>
      </trkpt>
      <trkpt lat="45.93963" lon="4.79874">
        <ele>206</ele>
        <time>2018-01-19T10:09:35Z</time>
      </trkpt>
      <trkpt lat="45.93961" lon="4.79881">
        <ele>206</ele>
        <time>2018-01-19T10:09:36Z</time>
      </trkpt>
      <trkpt lat="45.93959" lon="4.79891">
        <ele>206</ele>
        <time>2018-01-19T10:09:38Z</time>
      </trkpt>
      <trkpt lat="45.93957" lon="4.79897">
        <ele>205</ele>
        <time>2018-01-19T10:09:39Z</time>
      </trkpt>
      <trkpt lat="45.93954" lon="4.79908">
        <ele>205</ele>
        <time>2018-01-19T10:09:41Z</time>
      </trkpt>
      <trkpt lat="45.93953" lon="4.79914">
        <ele>205</ele>
        <time>2018-01-19T10:09:42Z</time>
      </trkpt>
      <trkpt lat="45.93952" lon="4.79924">
        <ele>205</ele>
        <time>2018-01-19T10:09:44Z</time>
      </trkpt>
      <trkpt lat="45.93951" lon="4.7993">
        <ele>205</ele>
        <time>2018-01-19T10:09:45Z</time>
      </trkpt>
      <trkpt lat="45.9395" lon="4.79942">
        <ele>205</ele>
        <time>2018-01-19T10:09:47Z</time>
      </trkpt>
      <trkpt lat="45.9395" lon="4.79948">
        <ele>205</ele>
        <time>2018-01-19T10:09:48Z</time>
      </trkpt>
      <trkpt lat="45.93948" lon="4.79961">
        <ele>205</ele>
        <time>2018-01-19T10:09:50Z</time>
      </trkpt>
      <trkpt lat="45.93948" lon="4.79967">
        <ele>205</ele>
        <time>2018-01-19T10:09:51Z</time>
      </trkpt>
      <trkpt lat="45.93945" lon="4.79978">
        <ele>205</ele>
        <time>2018-01-19T10:09:53Z</time>
      </trkpt>
      <trkpt lat="45.93945" lon="4.79983">
        <ele>205</ele>
        <time>2018-01-19T10:09:54Z</time>
      </trkpt>
      <trkpt lat="45.93943" lon="4.79995">
        <ele>204</ele>
        <time>2018-01-19T10:09:56Z</time>
      </trkpt>
      <trkpt lat="45.93942" lon="4.80001">
        <ele>206</ele>
        <time>2018-01-19T10:09:57Z</time>
      </trkpt>
      <trkpt lat="45.93942" lon="4.80008">
        <ele>206</ele>
        <time>2018-01-19T10:09:58Z</time>
      </trkpt>
      <trkpt lat="45.93941" lon="4.80015">
        <ele>206</ele>
        <time>2018-01-19T10:09:59Z</time>
      </trkpt>
      <trkpt lat="45.9394" lon="4.80021">
        <ele>206</ele>
        <time>2018-01-19T10:10:00Z</time>
      </trkpt>
      <trkpt lat="45.9394" lon="4.80028">
        <ele>207</ele>
        <time>2018-01-19T10:10:01Z</time>
      </trkpt>
      <trkpt lat="45.93939" lon="4.8004">
        <ele>207</ele>
        <time>2018-01-19T10:10:03Z</time>
      </trkpt>
      <trkpt lat="45.93938" lon="4.80045">
        <ele>207</ele>
        <time>2018-01-19T10:10:04Z</time>
      </trkpt>
      <trkpt lat="45.93937" lon="4.80055">
        <ele>207</ele>
        <time>2018-01-19T10:10:06Z</time>
      </trkpt>
      <trkpt lat="45.93937" lon="4.80061">
        <ele>207</ele>
        <time>2018-01-19T10:10:07Z</time>
      </trkpt>
      <trkpt lat="45.93937" lon="4.80074">
        <ele>207</ele>
        <time>2018-01-19T10:10:09Z</time>
      </trkpt>
      <trkpt lat="45.93938" lon="4.8008">
        <ele>207</ele>
        <time>2018-01-19T10:10:10Z</time>
      </trkpt>
      <trkpt lat="45.93938" lon="4.8009">
        <ele>208</ele>
        <time>2018-01-19T10:10:11Z</time>
      </trkpt>
      <trkpt lat="45.93939" lon="4.80098">
        <ele>208</ele>
        <time>2018-01-19T10:10:12Z</time>
      </trkpt>
      <trkpt lat="45.93939" lon="4.80104">
        <ele>208</ele>
        <time>2018-01-19T10:10:13Z</time>
      </trkpt>
      <trkpt lat="45.9394" lon="4.80111">
        <ele>208</ele>
        <time>2018-01-19T10:10:14Z</time>
      </trkpt>
      <trkpt lat="45.93941" lon="4.80122">
        <ele>209</ele>
        <time>2018-01-19T10:10:16Z</time>
      </trkpt>
      <trkpt lat="45.93942" lon="4.80127">
        <ele>209</ele>
        <time>2018-01-19T10:10:17Z</time>
      </trkpt>
      <trkpt lat="45.93944" lon="4.80139">
        <ele>208</ele>
        <time>2018-01-19T10:10:19Z</time>
      </trkpt>
      <trkpt lat="45.93945" lon="4.80144">
        <ele>208</ele>
        <time>2018-01-19T10:10:20Z</time>
      </trkpt>
      <trkpt lat="45.93947" lon="4.80154">
        <ele>208</ele>
        <time>2018-01-19T10:10:22Z</time>
      </trkpt>
      <trkpt lat="45.93947" lon="4.80159">
        <ele>208</ele>
        <time>2018-01-19T10:10:23Z</time>
      </trkpt>
      <trkpt lat="45.93949" lon="4.8017">
        <ele>206</ele>
        <time>2018-01-19T10:10:25Z</time>
      </trkpt>
      <trkpt lat="45.9395" lon="4.80176">
        <ele>206</ele>
        <time>2018-01-19T10:10:26Z</time>
      </trkpt>
      <trkpt lat="45.93951" lon="4.80182">
        <ele>206</ele>
        <time>2018-01-19T10:10:27Z</time>
      </trkpt>
      <trkpt lat="45.93952" lon="4.80189">
        <ele>206</ele>
        <time>2018-01-19T10:10:28Z</time>
      </trkpt>
      <trkpt lat="45.93954" lon="4.80196">
        <ele>205</ele>
        <time>2018-01-19T10:10:29Z</time>
      </trkpt>
      <trkpt lat="45.93956" lon="4.80203">
        <ele>205</ele>
        <time>2018-01-19T10:10:30Z</time>
      </trkpt>
      <trkpt lat="45.93957" lon="4.80209">
        <ele>205</ele>
        <time>2018-01-19T10:10:31Z</time>
      </trkpt>
      <trkpt lat="45.93959" lon="4.80216">
        <ele>205</ele>
        <time>2018-01-19T10:10:32Z</time>
      </trkpt>
      <trkpt lat="45.93961" lon="4.80222">
        <ele>205</ele>
        <time>2018-01-19T10:10:33Z</time>
      </trkpt>
      <trkpt lat="45.93963" lon="4.80228">
        <ele>205</ele>
        <time>2018-01-19T10:10:34Z</time>
      </trkpt>
      <trkpt lat="45.93964" lon="4.80234">
        <ele>205</ele>
        <time>2018-01-19T10:10:35Z</time>
      </trkpt>
      <trkpt lat="45.93967" lon="4.80242">
        <ele>204</ele>
        <time>2018-01-19T10:10:36Z</time>
      </trkpt>
      <trkpt lat="45.93968" lon="4.80248">
        <ele>204</ele>
        <time>2018-01-19T10:10:37Z</time>
      </trkpt>
      <trkpt lat="45.9397" lon="4.80254">
        <ele>202</ele>
        <time>2018-01-19T10:10:38Z</time>
      </trkpt>
      <trkpt lat="45.93972" lon="4.80261">
        <ele>203</ele>
        <time>2018-01-19T10:10:39Z</time>
      </trkpt>
      <trkpt lat="45.93974" lon="4.80267">
        <ele>203</ele>
        <time>2018-01-19T10:10:40Z</time>
      </trkpt>
      <trkpt lat="45.93977" lon="4.80278">
        <ele>203</ele>
        <time>2018-01-19T10:10:42Z</time>
      </trkpt>
      <trkpt lat="45.93978" lon="4.80284">
        <ele>203</ele>
        <time>2018-01-19T10:10:43Z</time>
      </trkpt>
      <trkpt lat="45.93981" lon="4.80291">
        <ele>203</ele>
        <time>2018-01-19T10:10:44Z</time>
      </trkpt>
      <trkpt lat="45.93982" lon="4.80296">
        <ele>203</ele>
        <time>2018-01-19T10:10:45Z</time>
      </trkpt>
      <trkpt lat="45.93984" lon="4.80307">
        <ele>203</ele>
        <time>2018-01-19T10:10:47Z</time>
      </trkpt>
      <trkpt lat="45.93986" lon="4.80311">
        <ele>203</ele>
        <time>2018-01-19T10:10:48Z</time>
      </trkpt>
      <trkpt lat="45.93989" lon="4.8032">
        <ele>204</ele>
        <time>2018-01-19T10:10:50Z</time>
      </trkpt>
      <trkpt lat="45.9399" lon="4.80325">
        <ele>204</ele>
        <time>2018-01-19T10:10:51Z</time>
      </trkpt>
      <trkpt lat="45.93993" lon="4.80336">
        <ele>206</ele>
        <time>2018-01-19T10:10:54Z</time>
      </trkpt>
      <trkpt lat="45.93994" lon="4.80339">
        <ele>206</ele>
        <time>2018-01-19T10:10:55Z</time>
      </trkpt>
      <trkpt lat="45.93998" lon="4.80349">
        <ele>206</ele>
        <time>2018-01-19T10:10:58Z</time>
      </trkpt>
      <trkpt lat="45.93999" lon="4.80352">
        <ele>206</ele>
        <time>2018-01-19T10:10:59Z</time>
      </trkpt>
      <trkpt lat="45.94002" lon="4.80364">
        <ele>215</ele>
        <time>2018-01-19T10:11:02Z</time>
      </trkpt>
      <trkpt lat="45.94003" lon="4.80367">
        <ele>215</ele>
        <time>2018-01-19T10:11:03Z</time>
      </trkpt>
      <trkpt lat="45.94005" lon="4.80376">
        <ele>216</ele>
        <time>2018-01-19T10:11:06Z</time>
      </trkpt>
      <trkpt lat="45.94006" lon="4.80379">
        <ele>216</ele>
        <time>2018-01-19T10:11:07Z</time>
      </trkpt>
      <trkpt lat="45.94009" lon="4.80388">
        <ele>217</ele>
        <time>2018-01-19T10:11:10Z</time>
      </trkpt>
      <trkpt lat="45.9401" lon="4.80392">
        <ele>217</ele>
        <time>2018-01-19T10:11:11Z</time>
      </trkpt>
      <trkpt lat="45.94013" lon="4.80403">
        <ele>217</ele>
        <time>2018-01-19T10:11:14Z</time>
      </trkpt>
      <trkpt lat="45.94014" lon="4.80406">
        <ele>218</ele>
        <time>2018-01-19T10:11:15Z</time>
      </trkpt>
      <trkpt lat="45.94017" lon="4.80417">
        <ele>221</ele>
        <time>2018-01-19T10:11:18Z</time>
      </trkpt>
      <trkpt lat="45.94018" lon="4.80421">
        <ele>221</ele>
        <time>2018-01-19T10:11:19Z</time>
      </trkpt>
      <trkpt lat="45.94019" lon="4.80433">
        <ele>222</ele>
        <time>2018-01-19T10:11:23Z</time>
      </trkpt>
      <trkpt lat="45.94019" lon="4.80436">
        <ele>222</ele>
        <time>2018-01-19T10:11:24Z</time>
      </trkpt>
      <trkpt lat="45.94021" lon="4.80447">
        <ele>223</ele>
        <time>2018-01-19T10:11:27Z</time>
      </trkpt>
      <trkpt lat="45.94021" lon="4.8045">
        <ele>223</ele>
        <time>2018-01-19T10:11:28Z</time>
      </trkpt>
      <trkpt lat="45.94022" lon="4.80461">
        <ele>223</ele>
        <time>2018-01-19T10:11:31Z</time>
      </trkpt>
      <trkpt lat="45.94022" lon="4.80465">
        <ele>223</ele>
        <time>2018-01-19T10:11:32Z</time>
      </trkpt>
      <trkpt lat="45.94024" lon="4.80477">
        <ele>223</ele>
        <time>2018-01-19T10:11:35Z</time>
      </trkpt>
      <trkpt lat="45.94023" lon="4.8048">
        <ele>223</ele>
        <time>2018-01-19T10:11:36Z</time>
      </trkpt>
      <trkpt lat="45.94021" lon="4.80491">
        <ele>223</ele>
        <time>2018-01-19T10:11:39Z</time>
      </trkpt>
      <trkpt lat="45.94021" lon="4.80494">
        <ele>223</ele>
        <time>2018-01-19T10:11:40Z</time>
      </trkpt>
      <trkpt lat="45.94023" lon="4.80506">
        <ele>224</ele>
        <time>2018-01-19T10:11:48Z</time>
      </trkpt>
      <trkpt lat="45.94024" lon="4.8051">
        <ele>224</ele>
        <time>2018-01-19T10:11:49Z</time>
      </trkpt>
      <trkpt lat="45.94025" lon="4.80519">
        <ele>225</ele>
        <time>2018-01-19T10:11:52Z</time>
      </trkpt>
      <trkpt lat="45.94025" lon="4.80523">
        <ele>225</ele>
        <time>2018-01-19T10:11:53Z</time>
      </trkpt>
      <trkpt lat="45.94024" lon="4.80532">
        <ele>225</ele>
        <time>2018-01-19T10:11:56Z</time>
      </trkpt>
      <trkpt lat="45.94023" lon="4.80536">
        <ele>225</ele>
        <time>2018-01-19T10:11:57Z</time>
      </trkpt>
      <trkpt lat="45.94023" lon="4.80547">
        <ele>225</ele>
        <time>2018-01-19T10:12:00Z</time>
      </trkpt>
      <trkpt lat="45.94023" lon="4.80551">
        <ele>225</ele>
        <time>2018-01-19T10:12:01Z</time>
      </trkpt>
      <trkpt lat="45.94023" lon="4.80562">
        <ele>224</ele>
        <time>2018-01-19T10:12:04Z</time>
      </trkpt>
      <trkpt lat="45.94024" lon="4.80565">
        <ele>224</ele>
        <time>2018-01-19T10:12:05Z</time>
      </trkpt>
      <trkpt lat="45.94026" lon="4.80576">
        <ele>224</ele>
        <time>2018-01-19T10:12:08Z</time>
      </trkpt>
      <trkpt lat="45.94026" lon="4.80578">
        <ele>224</ele>
        <time>2018-01-19T10:12:09Z</time>
      </trkpt>
      <trkpt lat="45.94025" lon="4.8059">
        <ele>224</ele>
        <time>2018-01-19T10:12:13Z</time>
      </trkpt>
      <trkpt lat="45.94026" lon="4.80592">
        <ele>224</ele>
        <time>2018-01-19T10:12:14Z</time>
      </trkpt>
      <trkpt lat="45.94027" lon="4.80604">
        <ele>225</ele>
        <time>2018-01-19T10:12:18Z</time>
      </trkpt>
      <trkpt lat="45.94028" lon="4.80608">
        <ele>225</ele>
        <time>2018-01-19T10:12:19Z</time>
      </trkpt>
      <trkpt lat="45.94028" lon="4.80618">
        <ele>225</ele>
        <time>2018-01-19T10:12:22Z</time>
      </trkpt>
      <trkpt lat="45.94029" lon="4.80622">
        <ele>225</ele>
        <time>2018-01-19T10:12:23Z</time>
      </trkpt>
      <trkpt lat="45.94031" lon="4.80631">
        <ele>225</ele>
        <time>2018-01-19T10:12:26Z</time>
      </trkpt>
      <trkpt lat="45.94031" lon="4.80635">
        <ele>225</ele>
        <time>2018-01-19T10:12:27Z</time>
      </trkpt>
      <trkpt lat="45.94032" lon="4.80644">
        <ele>225</ele>
        <time>2018-01-19T10:12:30Z</time>
      </trkpt>
      <trkpt lat="45.94032" lon="4.80648">
        <ele>225</ele>
        <time>2018-01-19T10:12:31Z</time>
      </trkpt>
      <trkpt lat="45.94033" lon="4.80658">
        <ele>225</ele>
        <time>2018-01-19T10:12:34Z</time>
      </trkpt>
      <trkpt lat="45.94034" lon="4.80662">
        <ele>225</ele>
        <time>2018-01-19T10:12:35Z</time>
      </trkpt>
      <trkpt lat="45.94035" lon="4.80673">
        <ele>225</ele>
        <time>2018-01-19T10:12:38Z</time>
      </trkpt>
      <trkpt lat="45.94036" lon="4.80676">
        <ele>225</ele>
        <time>2018-01-19T10:12:39Z</time>
      </trkpt>
      <trkpt lat="45.94036" lon="4.80687">
        <ele>226</ele>
        <time>2018-01-19T10:12:42Z</time>
      </trkpt>
      <trkpt lat="45.94037" lon="4.80692">
        <ele>226</ele>
        <time>2018-01-19T10:12:43Z</time>
      </trkpt>
      <trkpt lat="45.94038" lon="4.80702">
        <ele>226</ele>
        <time>2018-01-19T10:12:46Z</time>
      </trkpt>
      <trkpt lat="45.94038" lon="4.80706">
        <ele>226</ele>
        <time>2018-01-19T10:12:47Z</time>
      </trkpt>
      <trkpt lat="45.9404" lon="4.80716">
        <ele>227</ele>
        <time>2018-01-19T10:12:50Z</time>
      </trkpt>
      <trkpt lat="45.9404" lon="4.8072">
        <ele>227</ele>
        <time>2018-01-19T10:12:51Z</time>
      </trkpt>
      <trkpt lat="45.94041" lon="4.80732">
        <ele>227</ele>
        <time>2018-01-19T10:12:55Z</time>
      </trkpt>
      <trkpt lat="45.94042" lon="4.80735">
        <ele>227</ele>
        <time>2018-01-19T10:12:56Z</time>
      </trkpt>
      <trkpt lat="45.94043" lon="4.80745">
        <ele>227</ele>
        <time>2018-01-19T10:12:59Z</time>
      </trkpt>
      <trkpt lat="45.94044" lon="4.80748">
        <ele>227</ele>
        <time>2018-01-19T10:13:00Z</time>
      </trkpt>
      <trkpt lat="45.94047" lon="4.80757">
        <ele>229</ele>
        <time>2018-01-19T10:13:03Z</time>
      </trkpt>
      <trkpt lat="45.94047" lon="4.8076">
        <ele>229</ele>
        <time>2018-01-19T10:13:04Z</time>
      </trkpt>
      <trkpt lat="45.94048" lon="4.8077">
        <ele>229</ele>
        <time>2018-01-19T10:13:07Z</time>
      </trkpt>
      <trkpt lat="45.94048" lon="4.80774">
        <ele>229</ele>
        <time>2018-01-19T10:13:08Z</time>
      </trkpt>
      <trkpt lat="45.9405" lon="4.80784">
        <ele>229</ele>
        <time>2018-01-19T10:13:11Z</time>
      </trkpt>
      <trkpt lat="45.9405" lon="4.80787">
        <ele>229</ele>
        <time>2018-01-19T10:13:12Z</time>
      </trkpt>
      <trkpt lat="45.94051" lon="4.80797">
        <ele>229</ele>
        <time>2018-01-19T10:13:15Z</time>
      </trkpt>
      <trkpt lat="45.94051" lon="4.80801">
        <ele>229</ele>
        <time>2018-01-19T10:13:16Z</time>
      </trkpt>
      <trkpt lat="45.94052" lon="4.80811">
        <ele>230</ele>
        <time>2018-01-19T10:13:19Z</time>
      </trkpt>
      <trkpt lat="45.94052" lon="4.80814">
        <ele>230</ele>
        <time>2018-01-19T10:13:20Z</time>
      </trkpt>
      <trkpt lat="45.94054" lon="4.80827">
        <ele>231</ele>
        <time>2018-01-19T10:13:24Z</time>
      </trkpt>
      <trkpt lat="45.94054" lon="4.8083">
        <ele>231</ele>
        <time>2018-01-19T10:13:25Z</time>
      </trkpt>
      <trkpt lat="45.94055" lon="4.80842">
        <ele>231</ele>
        <time>2018-01-19T10:13:29Z</time>
      </trkpt>
      <trkpt lat="45.94056" lon="4.80845">
        <ele>231</ele>
        <time>2018-01-19T10:13:30Z</time>
      </trkpt>
      <trkpt lat="45.94058" lon="4.80857">
        <ele>231</ele>
        <time>2018-01-19T10:13:34Z</time>
      </trkpt>
      <trkpt lat="45.94058" lon="4.8086">
        <ele>231</ele>
        <time>2018-01-19T10:13:35Z</time>
      </trkpt>
      <trkpt lat="45.94059" lon="4.8087">
        <ele>231</ele>
        <time>2018-01-19T10:13:38Z</time>
      </trkpt>
      <trkpt lat="45.94059" lon="4.80873">
        <ele>231</ele>
        <time>2018-01-19T10:13:39Z</time>
      </trkpt>
      <trkpt lat="45.94061" lon="4.80885">
        <ele>231</ele>
        <time>2018-01-19T10:13:43Z</time>
      </trkpt>
      <trkpt lat="45.94062" lon="4.80888">
        <ele>231</ele>
        <time>2018-01-19T10:13:44Z</time>
      </trkpt>
      <trkpt lat="45.94063" lon="4.80899">
        <ele>232</ele>
        <time>2018-01-19T10:13:48Z</time>
      </trkpt>
      <trkpt lat="45.94063" lon="4.80902">
        <ele>232</ele>
        <time>2018-01-19T10:13:49Z</time>
      </trkpt>
      <trkpt lat="45.94064" lon="4.80913">
        <ele>233</ele>
        <time>2018-01-19T10:13:52Z</time>
      </trkpt>
      <trkpt lat="45.94065" lon="4.80917">
        <ele>233</ele>
        <time>2018-01-19T10:13:53Z</time>
      </trkpt>
      <trkpt lat="45.94067" lon="4.80926">
        <ele>234</ele>
        <time>2018-01-19T10:13:56Z</time>
      </trkpt>
      <trkpt lat="45.94067" lon="4.8093">
        <ele>233</ele>
        <time>2018-01-19T10:13:57Z</time>
      </trkpt>
      <trkpt lat="45.94069" lon="4.8094">
        <ele>233</ele>
        <time>2018-01-19T10:14:00Z</time>
      </trkpt>
      <trkpt lat="45.94069" lon="4.80943">
        <ele>233</ele>
        <time>2018-01-19T10:14:01Z</time>
      </trkpt>
      <trkpt lat="45.9407" lon="4.80953">
        <ele>233</ele>
        <time>2018-01-19T10:14:04Z</time>
      </trkpt>
      <trkpt lat="45.9407" lon="4.80956">
        <ele>233</ele>
        <time>2018-01-19T10:14:05Z</time>
      </trkpt>
      <trkpt lat="45.94071" lon="4.80967">
        <ele>233</ele>
        <time>2018-01-19T10:14:08Z</time>
      </trkpt>
      <trkpt lat="45.94072" lon="4.8097">
        <ele>233</ele>
        <time>2018-01-19T10:14:09Z</time>
      </trkpt>
      <trkpt lat="45.94074" lon="4.8098">
        <ele>234</ele>
        <time>2018-01-19T10:14:12Z</time>
      </trkpt>
      <trkpt lat="45.94074" lon="4.80984">
        <ele>235</ele>
        <time>2018-01-19T10:14:13Z</time>
      </trkpt>
      <trkpt lat="45.94076" lon="4.80994">
        <ele>236</ele>
        <time>2018-01-19T10:14:16Z</time>
      </trkpt>
      <trkpt lat="45.94076" lon="4.80997">
        <ele>237</ele>
        <time>2018-01-19T10:14:17Z</time>
      </trkpt>
      <trkpt lat="45.94078" lon="4.81008">
        <ele>237</ele>
        <time>2018-01-19T10:14:20Z</time>
      </trkpt>
      <trkpt lat="45.94078" lon="4.81011">
        <ele>236</ele>
        <time>2018-01-19T10:14:21Z</time>
      </trkpt>
      <trkpt lat="45.94079" lon="4.81023">
        <ele>235</ele>
        <time>2018-01-19T10:14:25Z</time>
      </trkpt>
      <trkpt lat="45.9408" lon="4.81027">
        <ele>234</ele>
        <time>2018-01-19T10:14:26Z</time>
      </trkpt>
      <trkpt lat="45.94083" lon="4.81038">
        <ele>234</ele>
        <time>2018-01-19T10:14:29Z</time>
      </trkpt>
      <trkpt lat="45.94085" lon="4.81041">
        <ele>244</ele>
        <time>2018-01-19T10:14:30Z</time>
      </trkpt>
      <trkpt lat="45.94089" lon="4.8105">
        <ele>243</ele>
        <time>2018-01-19T10:14:33Z</time>
      </trkpt>
      <trkpt lat="45.9409" lon="4.81053">
        <ele>243</ele>
        <time>2018-01-19T10:14:34Z</time>
      </trkpt>
      <trkpt lat="45.94092" lon="4.81063">
        <ele>242</ele>
        <time>2018-01-19T10:14:37Z</time>
      </trkpt>
      <trkpt lat="45.94094" lon="4.81066">
        <ele>242</ele>
        <time>2018-01-19T10:14:38Z</time>
      </trkpt>
      <trkpt lat="45.94098" lon="4.81075">
        <ele>242</ele>
        <time>2018-01-19T10:14:41Z</time>
      </trkpt>
      <trkpt lat="45.94099" lon="4.81078">
        <ele>242</ele>
        <time>2018-01-19T10:14:42Z</time>
      </trkpt>
      <trkpt lat="45.94103" lon="4.81087">
        <ele>241</ele>
        <time>2018-01-19T10:14:45Z</time>
      </trkpt>
      <trkpt lat="45.94105" lon="4.8109">
        <ele>241</ele>
        <time>2018-01-19T10:14:46Z</time>
      </trkpt>
      <trkpt lat="45.94109" lon="4.81098">
        <ele>242</ele>
        <time>2018-01-19T10:14:49Z</time>
      </trkpt>
      <trkpt lat="45.94111" lon="4.811">
        <ele>242</ele>
        <time>2018-01-19T10:14:50Z</time>
      </trkpt>
      <trkpt lat="45.94116" lon="4.8111">
        <ele>243</ele>
        <time>2018-01-19T10:14:54Z</time>
      </trkpt>
      <trkpt lat="45.94117" lon="4.81113">
        <ele>243</ele>
        <time>2018-01-19T10:14:55Z</time>
      </trkpt>
      <trkpt lat="45.9412" lon="4.81121">
        <ele>243</ele>
        <time>2018-01-19T10:14:58Z</time>
      </trkpt>
      <trkpt lat="45.94122" lon="4.81124">
        <ele>243</ele>
        <time>2018-01-19T10:14:59Z</time>
      </trkpt>
      <trkpt lat="45.94127" lon="4.81131">
        <ele>243</ele>
        <time>2018-01-19T10:15:03Z</time>
      </trkpt>
      <trkpt lat="45.94129" lon="4.81134">
        <ele>243</ele>
        <time>2018-01-19T10:15:04Z</time>
      </trkpt>
      <trkpt lat="45.94133" lon="4.81142">
        <ele>244</ele>
        <time>2018-01-19T10:15:07Z</time>
      </trkpt>
      <trkpt lat="45.94134" lon="4.81145">
        <ele>244</ele>
        <time>2018-01-19T10:15:08Z</time>
      </trkpt>
      <trkpt lat="45.94138" lon="4.81155">
        <ele>244</ele>
        <time>2018-01-19T10:15:11Z</time>
      </trkpt>
      <trkpt lat="45.94139" lon="4.81158">
        <ele>244</ele>
        <time>2018-01-19T10:15:12Z</time>
      </trkpt>
      <trkpt lat="45.94142" lon="4.81167">
        <ele>244</ele>
        <time>2018-01-19T10:15:15Z</time>
      </trkpt>
      <trkpt lat="45.94143" lon="4.8117">
        <ele>244</ele>
        <time>2018-01-19T10:15:16Z</time>
      </trkpt>
      <trkpt lat="45.94148" lon="4.81179">
        <ele>245</ele>
        <time>2018-01-19T10:15:19Z</time>
      </trkpt>
      <trkpt lat="45.94149" lon="4.81182">
        <ele>245</ele>
        <time>2018-01-19T10:15:20Z</time>
      </trkpt>
      <trkpt lat="45.94152" lon="4.81191">
        <ele>245</ele>
        <time>2018-01-19T10:15:23Z</time>
      </trkpt>
      <trkpt lat="45.94153" lon="4.81194">
        <ele>244</ele>
        <time>2018-01-19T10:15:24Z</time>
      </trkpt>
      <trkpt lat="45.94156" lon="4.81204">
        <ele>245</ele>
        <time>2018-01-19T10:15:27Z</time>
      </trkpt>
      <trkpt lat="45.94157" lon="4.81207">
        <ele>245</ele>
        <time>2018-01-19T10:15:28Z</time>
      </trkpt>
      <trkpt lat="45.94159" lon="4.81218">
        <ele>245</ele>
        <time>2018-01-19T10:15:32Z</time>
      </trkpt>
      <trkpt lat="45.9416" lon="4.81221">
        <ele>245</ele>
        <time>2018-01-19T10:15:33Z</time>
      </trkpt>
      <trkpt lat="45.94162" lon="4.81232">
        <ele>246</ele>
        <time>2018-01-19T10:15:38Z</time>
      </trkpt>
      <trkpt lat="45.94162" lon="4.81234">
        <ele>246</ele>
        <time>2018-01-19T10:15:39Z</time>
      </trkpt>
      <trkpt lat="45.94163" lon="4.81244">
        <ele>248</ele>
        <time>2018-01-19T10:15:43Z</time>
      </trkpt>
      <trkpt lat="45.94164" lon="4.81247">
        <ele>249</ele>
        <time>2018-01-19T10:15:44Z</time>
      </trkpt>
      <trkpt lat="45.94165" lon="4.81258">
        <ele>249</ele>
        <time>2018-01-19T10:15:48Z</time>
      </trkpt>
      <trkpt lat="45.94166" lon="4.81262">
        <ele>248</ele>
        <time>2018-01-19T10:15:49Z</time>
      </trkpt>
      <trkpt lat="45.94166" lon="4.81273">
        <ele>247</ele>
        <time>2018-01-19T10:15:53Z</time>
      </trkpt>
      <trkpt lat="45.94167" lon="4.81276">
        <ele>255</ele>
        <time>2018-01-19T10:15:54Z</time>
      </trkpt>
      <trkpt lat="45.94168" lon="4.81287">
        <ele>255</ele>
        <time>2018-01-19T10:15:58Z</time>
      </trkpt>
      <trkpt lat="45.94168" lon="4.8129">
        <ele>255</ele>
        <time>2018-01-19T10:15:59Z</time>
      </trkpt>
      <trkpt lat="45.94168" lon="4.813">
        <ele>255</ele>
        <time>2018-01-19T10:16:04Z</time>
      </trkpt>
      <trkpt lat="45.94169" lon="4.81304">
        <ele>255</ele>
        <time>2018-01-19T10:16:05Z</time>
      </trkpt>
      <trkpt lat="45.9417" lon="4.81314">
        <ele>255</ele>
        <time>2018-01-19T10:16:09Z</time>
      </trkpt>
      <trkpt lat="45.9417" lon="4.81317">
        <ele>255</ele>
        <time>2018-01-19T10:16:10Z</time>
      </trkpt>
      <trkpt lat="45.9417" lon="4.81329">
        <ele>253</ele>
        <time>2018-01-19T10:16:14Z</time>
      </trkpt>
      <trkpt lat="45.94169" lon="4.81332">
        <ele>253</ele>
        <time>2018-01-19T10:16:15Z</time>
      </trkpt>
      <trkpt lat="45.94168" lon="4.81343">
        <ele>254</ele>
        <time>2018-01-19T10:16:19Z</time>
      </trkpt>
      <trkpt lat="45.94167" lon="4.81345">
        <ele>255</ele>
        <time>2018-01-19T10:16:20Z</time>
      </trkpt>
      <trkpt lat="45.94166" lon="4.81355">
        <ele>251</ele>
        <time>2018-01-19T10:16:24Z</time>
      </trkpt>
      <trkpt lat="45.94165" lon="4.81358">
        <ele>251</ele>
        <time>2018-01-19T10:16:25Z</time>
      </trkpt>
      <trkpt lat="45.94164" lon="4.81369">
        <ele>251</ele>
        <time>2018-01-19T10:16:29Z</time>
      </trkpt>
      <trkpt lat="45.94164" lon="4.81372">
        <ele>251</ele>
        <time>2018-01-19T10:16:30Z</time>
      </trkpt>
      <trkpt lat="45.94162" lon="4.81382">
        <ele>251</ele>
        <time>2018-01-19T10:16:33Z</time>
      </trkpt>
      <trkpt lat="45.94162" lon="4.81385">
        <ele>251</ele>
        <time>2018-01-19T10:16:34Z</time>
      </trkpt>
      <trkpt lat="45.94162" lon="4.81397">
        <ele>252</ele>
        <time>2018-01-19T10:16:37Z</time>
      </trkpt>
      <trkpt lat="45.94162" lon="4.814">
        <ele>253</ele>
        <time>2018-01-19T10:16:38Z</time>
      </trkpt>
      <trkpt lat="45.94161" lon="4.81409">
        <ele>254</ele>
        <time>2018-01-19T10:16:40Z</time>
      </trkpt>
      <trkpt lat="45.94161" lon="4.81414">
        <ele>254</ele>
        <time>2018-01-19T10:16:41Z</time>
      </trkpt>
      <trkpt lat="45.94162" lon="4.81425">
        <ele>256</ele>
        <time>2018-01-19T10:16:44Z</time>
      </trkpt>
      <trkpt lat="45.94161" lon="4.81428">
        <ele>256</ele>
        <time>2018-01-19T10:16:45Z</time>
      </trkpt>
      <trkpt lat="45.94161" lon="4.81439">
        <ele>256</ele>
        <time>2018-01-19T10:16:48Z</time>
      </trkpt>
      <trkpt lat="45.94161" lon="4.81443">
        <ele>256</ele>
        <time>2018-01-19T10:16:49Z</time>
      </trkpt>
      <trkpt lat="45.94158" lon="4.81454">
        <ele>257</ele>
        <time>2018-01-19T10:16:53Z</time>
      </trkpt>
      <trkpt lat="45.94158" lon="4.81457">
        <ele>257</ele>
        <time>2018-01-19T10:16:54Z</time>
      </trkpt>
      <trkpt lat="45.94157" lon="4.81467">
        <ele>258</ele>
        <time>2018-01-19T10:16:57Z</time>
      </trkpt>
      <trkpt lat="45.94156" lon="4.8147">
        <ele>258</ele>
        <time>2018-01-19T10:16:58Z</time>
      </trkpt>
      <trkpt lat="45.94155" lon="4.8148">
        <ele>259</ele>
        <time>2018-01-19T10:17:01Z</time>
      </trkpt>
      <trkpt lat="45.94155" lon="4.81484">
        <ele>259</ele>
        <time>2018-01-19T10:17:02Z</time>
      </trkpt>
      <trkpt lat="45.94155" lon="4.81496">
        <ele>260</ele>
        <time>2018-01-19T10:17:05Z</time>
      </trkpt>
      <trkpt lat="45.94155" lon="4.81499">
        <ele>261</ele>
        <time>2018-01-19T10:17:06Z</time>
      </trkpt>
      <trkpt lat="45.94155" lon="4.8151">
        <ele>263</ele>
        <time>2018-01-19T10:17:10Z</time>
      </trkpt>
      <trkpt lat="45.94155" lon="4.81513">
        <ele>263</ele>
        <time>2018-01-19T10:17:11Z</time>
      </trkpt>
      <trkpt lat="45.94156" lon="4.81523">
        <ele>263</ele>
        <time>2018-01-19T10:17:14Z</time>
      </trkpt>
      <trkpt lat="45.94156" lon="4.81527">
        <ele>264</ele>
        <time>2018-01-19T10:17:15Z</time>
      </trkpt>
      <trkpt lat="45.94156" lon="4.8154">
        <ele>264</ele>
        <time>2018-01-19T10:17:19Z</time>
      </trkpt>
      <trkpt lat="45.94156" lon="4.81543">
        <ele>264</ele>
        <time>2018-01-19T10:17:20Z</time>
      </trkpt>
      <trkpt lat="45.94156" lon="4.81554">
        <ele>264</ele>
        <time>2018-01-19T10:17:23Z</time>
      </trkpt>
      <trkpt lat="45.94156" lon="4.81557">
        <ele>265</ele>
        <time>2018-01-19T10:17:24Z</time>
      </trkpt>
      <trkpt lat="45.94157" lon="4.81569">
        <ele>265</ele>
        <time>2018-01-19T10:17:27Z</time>
      </trkpt>
      <trkpt lat="45.94158" lon="4.81573">
        <ele>266</ele>
        <time>2018-01-19T10:17:28Z</time>
      </trkpt>
      <trkpt lat="45.9416" lon="4.81582">
        <ele>266</ele>
        <time>2018-01-19T10:17:30Z</time>
      </trkpt>
      <trkpt lat="45.94161" lon="4.81587">
        <ele>267</ele>
        <time>2018-01-19T10:17:31Z</time>
      </trkpt>
      <trkpt lat="45.94163" lon="4.81599">
        <ele>267</ele>
        <time>2018-01-19T10:17:34Z</time>
      </trkpt>
      <trkpt lat="45.94164" lon="4.81602">
        <ele>267</ele>
        <time>2018-01-19T10:17:35Z</time>
      </trkpt>
      <trkpt lat="45.94166" lon="4.81614">
        <ele>267</ele>
        <time>2018-01-19T10:17:38Z</time>
      </trkpt>
      <trkpt lat="45.94167" lon="4.81618">
        <ele>267</ele>
        <time>2018-01-19T10:17:39Z</time>
      </trkpt>
      <trkpt lat="45.94169" lon="4.81629">
        <ele>267</ele>
        <time>2018-01-19T10:17:42Z</time>
      </trkpt>
      <trkpt lat="45.94169" lon="4.81631">
        <ele>267</ele>
        <time>2018-01-19T10:17:43Z</time>
      </trkpt>
      <trkpt lat="45.94171" lon="4.81642">
        <ele>268</ele>
        <time>2018-01-19T10:17:46Z</time>
      </trkpt>
      <trkpt lat="45.94172" lon="4.81646">
        <ele>268</ele>
        <time>2018-01-19T10:17:47Z</time>
      </trkpt>
      <trkpt lat="45.94174" lon="4.81654">
        <ele>268</ele>
        <time>2018-01-19T10:17:49Z</time>
      </trkpt>
      <trkpt lat="45.94175" lon="4.81658">
        <ele>268</ele>
        <time>2018-01-19T10:17:50Z</time>
      </trkpt>
      <trkpt lat="45.94178" lon="4.81669">
        <ele>268</ele>
        <time>2018-01-19T10:17:53Z</time>
      </trkpt>
      <trkpt lat="45.94179" lon="4.81673">
        <ele>268</ele>
        <time>2018-01-19T10:17:54Z</time>
      </trkpt>
      <trkpt lat="45.94182" lon="4.81685">
        <ele>267</ele>
        <time>2018-01-19T10:17:57Z</time>
      </trkpt>
      <trkpt lat="45.94183" lon="4.81689">
        <ele>267</ele>
        <time>2018-01-19T10:17:58Z</time>
      </trkpt>
      <trkpt lat="45.94186" lon="4.81701">
        <ele>267</ele>
        <time>2018-01-19T10:18:01Z</time>
      </trkpt>
      <trkpt lat="45.94187" lon="4.81704">
        <ele>267</ele>
        <time>2018-01-19T10:18:02Z</time>
      </trkpt>
      <trkpt lat="45.94189" lon="4.81716">
        <ele>267</ele>
        <time>2018-01-19T10:18:05Z</time>
      </trkpt>
      <trkpt lat="45.94189" lon="4.81721">
        <ele>267</ele>
        <time>2018-01-19T10:18:06Z</time>
      </trkpt>
      <trkpt lat="45.9419" lon="4.81733">
        <ele>267</ele>
        <time>2018-01-19T10:18:09Z</time>
      </trkpt>
      <trkpt lat="45.9419" lon="4.81737">
        <ele>267</ele>
        <time>2018-01-19T10:18:10Z</time>
      </trkpt>
      <trkpt lat="45.94193" lon="4.81745">
        <ele>267</ele>
        <time>2018-01-19T10:18:12Z</time>
      </trkpt>
      <trkpt lat="45.94195" lon="4.81749">
        <ele>266</ele>
        <time>2018-01-19T10:18:13Z</time>
      </trkpt>
      <trkpt lat="45.94198" lon="4.81758">
        <ele>266</ele>
        <time>2018-01-19T10:18:15Z</time>
      </trkpt>
      <trkpt lat="45.942" lon="4.81763">
        <ele>266</ele>
        <time>2018-01-19T10:18:16Z</time>
      </trkpt>
      <trkpt lat="45.94202" lon="4.81772">
        <ele>266</ele>
        <time>2018-01-19T10:18:18Z</time>
      </trkpt>
      <trkpt lat="45.94202" lon="4.81776">
        <ele>266</ele>
        <time>2018-01-19T10:18:19Z</time>
      </trkpt>
      <trkpt lat="45.94202" lon="4.81788">
        <ele>266</ele>
        <time>2018-01-19T10:18:22Z</time>
      </trkpt>
      <trkpt lat="45.94202" lon="4.81792">
        <ele>266</ele>
        <time>2018-01-19T10:18:23Z</time>
      </trkpt>
      <trkpt lat="45.94201" lon="4.81805">
        <ele>266</ele>
        <time>2018-01-19T10:18:26Z</time>
      </trkpt>
      <trkpt lat="45.94201" lon="4.8181">
        <ele>266</ele>
        <time>2018-01-19T10:18:27Z</time>
      </trkpt>
      <trkpt lat="45.94202" lon="4.8182">
        <ele>266</ele>
        <time>2018-01-19T10:18:29Z</time>
      </trkpt>
      <trkpt lat="45.94202" lon="4.81825">
        <ele>266</ele>
        <time>2018-01-19T10:18:30Z</time>
      </trkpt>
      <trkpt lat="45.94205" lon="4.81836">
        <ele>266</ele>
        <time>2018-01-19T10:18:33Z</time>
      </trkpt>
      <trkpt lat="45.94206" lon="4.81839">
        <ele>266</ele>
        <time>2018-01-19T10:18:34Z</time>
      </trkpt>
      <trkpt lat="45.94207" lon="4.81848">
        <ele>266</ele>
        <time>2018-01-19T10:18:36Z</time>
      </trkpt>
      <trkpt lat="45.94208" lon="4.81852">
        <ele>265</ele>
        <time>2018-01-19T10:18:37Z</time>
      </trkpt>
      <trkpt lat="45.94211" lon="4.81862">
        <ele>265</ele>
        <time>2018-01-19T10:18:39Z</time>
      </trkpt>
      <trkpt lat="45.94211" lon="4.81868">
        <ele>265</ele>
        <time>2018-01-19T10:18:40Z</time>
      </trkpt>
      <trkpt lat="45.94213" lon="4.81878">
        <ele>265</ele>
        <time>2018-01-19T10:18:42Z</time>
      </trkpt>
      <trkpt lat="45.94214" lon="4.81883">
        <ele>265</ele>
        <time>2018-01-19T10:18:43Z</time>
      </trkpt>
      <trkpt lat="45.94217" lon="4.81893">
        <ele>265</ele>
        <time>2018-01-19T10:18:45Z</time>
      </trkpt>
      <trkpt lat="45.94218" lon="4.81898">
        <ele>265</ele>
        <time>2018-01-19T10:18:46Z</time>
      </trkpt>
      <trkpt lat="45.9422" lon="4.81907">
        <ele>264</ele>
        <time>2018-01-19T10:18:48Z</time>
      </trkpt>
      <trkpt lat="45.94221" lon="4.81912">
        <ele>264</ele>
        <time>2018-01-19T10:18:49Z</time>
      </trkpt>
      <trkpt lat="45.94223" lon="4.81921">
        <ele>264</ele>
        <time>2018-01-19T10:18:51Z</time>
      </trkpt>
      <trkpt lat="45.94224" lon="4.81925">
        <ele>264</ele>
        <time>2018-01-19T10:18:52Z</time>
      </trkpt>
      <trkpt lat="45.94225" lon="4.81935">
        <ele>264</ele>
        <time>2018-01-19T10:18:54Z</time>
      </trkpt>
      <trkpt lat="45.94226" lon="4.81939">
        <ele>264</ele>
        <time>2018-01-19T10:18:55Z</time>
      </trkpt>
      <trkpt lat="45.94228" lon="4.8195">
        <ele>264</ele>
        <time>2018-01-19T10:18:57Z</time>
      </trkpt>
      <trkpt lat="45.94229" lon="4.81956">
        <ele>264</ele>
        <time>2018-01-19T10:18:58Z</time>
      </trkpt>
      <trkpt lat="45.94231" lon="4.81966">
        <ele>264</ele>
        <time>2018-01-19T10:19:00Z</time>
      </trkpt>
      <trkpt lat="45.94233" lon="4.81971">
        <ele>264</ele>
        <time>2018-01-19T10:19:01Z</time>
      </trkpt>
      <trkpt lat="45.94235" lon="4.81983">
        <ele>263</ele>
        <time>2018-01-19T10:19:03Z</time>
      </trkpt>
      <trkpt lat="45.94237" lon="4.81992">
        <ele>263</ele>
        <time>2018-01-19T10:19:04Z</time>
      </trkpt>
      <trkpt lat="45.94239" lon="4.82002">
        <ele>263</ele>
        <time>2018-01-19T10:19:06Z</time>
      </trkpt>
      <trkpt lat="45.9424" lon="4.82008">
        <ele>263</ele>
        <time>2018-01-19T10:19:07Z</time>
      </trkpt>
      <trkpt lat="45.94243" lon="4.82019">
        <ele>263</ele>
        <time>2018-01-19T10:19:09Z</time>
      </trkpt>
      <trkpt lat="45.94243" lon="4.82025">
        <ele>263</ele>
        <time>2018-01-19T10:19:10Z</time>
      </trkpt>
      <trkpt lat="45.94246" lon="4.82035">
        <ele>263</ele>
        <time>2018-01-19T10:19:12Z</time>
      </trkpt>
      <trkpt lat="45.94247" lon="4.82041">
        <ele>263</ele>
        <time>2018-01-19T10:19:13Z</time>
      </trkpt>
      <trkpt lat="45.94249" lon="4.8205">
        <ele>263</ele>
        <time>2018-01-19T10:19:15Z</time>
      </trkpt>
      <trkpt lat="45.9425" lon="4.82054">
        <ele>262</ele>
        <time>2018-01-19T10:19:16Z</time>
      </trkpt>
      <trkpt lat="45.94253" lon="4.82065">
        <ele>262</ele>
        <time>2018-01-19T10:19:18Z</time>
      </trkpt>
      <trkpt lat="45.94254" lon="4.82071">
        <ele>262</ele>
        <time>2018-01-19T10:19:19Z</time>
      </trkpt>
      <trkpt lat="45.94257" lon="4.82081">
        <ele>262</ele>
        <time>2018-01-19T10:19:21Z</time>
      </trkpt>
      <trkpt lat="45.94258" lon="4.82086">
        <ele>262</ele>
        <time>2018-01-19T10:19:22Z</time>
      </trkpt>
      <trkpt lat="45.94259" lon="4.82094">
        <ele>262</ele>
        <time>2018-01-19T10:19:24Z</time>
      </trkpt>
      <trkpt lat="45.9426" lon="4.821">
        <ele>262</ele>
        <time>2018-01-19T10:19:25Z</time>
      </trkpt>
      <trkpt lat="45.94261" lon="4.82106">
        <ele>262</ele>
        <time>2018-01-19T10:19:26Z</time>
      </trkpt>
      <trkpt lat="45.94262" lon="4.82113">
        <ele>263</ele>
        <time>2018-01-19T10:19:27Z</time>
      </trkpt>
      <trkpt lat="45.94264" lon="4.82121">
        <ele>263</ele>
        <time>2018-01-19T10:19:28Z</time>
      </trkpt>
      <trkpt lat="45.94265" lon="4.82128">
        <ele>263</ele>
        <time>2018-01-19T10:19:29Z</time>
      </trkpt>
      <trkpt lat="45.94266" lon="4.82135">
        <ele>263</ele>
        <time>2018-01-19T10:19:30Z</time>
      </trkpt>
      <trkpt lat="45.94269" lon="4.82142">
        <ele>263</ele>
        <time>2018-01-19T10:19:31Z</time>
      </trkpt>
      <trkpt lat="45.94271" lon="4.82148">
        <ele>263</ele>
        <time>2018-01-19T10:19:32Z</time>
      </trkpt>
      <trkpt lat="45.94272" lon="4.82156">
        <ele>263</ele>
        <time>2018-01-19T10:19:33Z</time>
      </trkpt>
      <trkpt lat="45.94273" lon="4.82162">
        <ele>263</ele>
        <time>2018-01-19T10:19:34Z</time>
      </trkpt>
      <trkpt lat="45.94276" lon="4.8217">
        <ele>264</ele>
        <time>2018-01-19T10:19:35Z</time>
      </trkpt>
      <trkpt lat="45.94277" lon="4.82177">
        <ele>264</ele>
        <time>2018-01-19T10:19:36Z</time>
      </trkpt>
      <trkpt lat="45.94278" lon="4.82184">
        <ele>264</ele>
        <time>2018-01-19T10:19:37Z</time>
      </trkpt>
      <trkpt lat="45.9428" lon="4.82191">
        <ele>264</ele>
        <time>2018-01-19T10:19:38Z</time>
      </trkpt>
      <trkpt lat="45.94281" lon="4.82197">
        <ele>264</ele>
        <time>2018-01-19T10:19:39Z</time>
      </trkpt>
      <trkpt lat="45.94282" lon="4.82208">
        <ele>264</ele>
        <time>2018-01-19T10:19:41Z</time>
      </trkpt>
      <trkpt lat="45.94283" lon="4.82214">
        <ele>264</ele>
        <time>2018-01-19T10:19:42Z</time>
      </trkpt>
      <trkpt lat="45.94283" lon="4.8222">
        <ele>264</ele>
        <time>2018-01-19T10:19:43Z</time>
      </trkpt>
      <trkpt lat="45.94284" lon="4.82227">
        <ele>264</ele>
        <time>2018-01-19T10:19:44Z</time>
      </trkpt>
      <trkpt lat="45.94283" lon="4.82239">
        <ele>264</ele>
        <time>2018-01-19T10:19:46Z</time>
      </trkpt>
      <trkpt lat="45.94283" lon="4.82245">
        <ele>264</ele>
        <time>2018-01-19T10:19:47Z</time>
      </trkpt>
      <trkpt lat="45.94284" lon="4.82256">
        <ele>265</ele>
        <time>2018-01-19T10:19:49Z</time>
      </trkpt>
      <trkpt lat="45.94285" lon="4.8226">
        <ele>265</ele>
        <time>2018-01-19T10:19:50Z</time>
      </trkpt>
      <trkpt lat="45.94286" lon="4.8227">
        <ele>265</ele>
        <time>2018-01-19T10:19:52Z</time>
      </trkpt>
      <trkpt lat="45.94286" lon="4.82275">
        <ele>265</ele>
        <time>2018-01-19T10:19:53Z</time>
      </trkpt>
      <trkpt lat="45.94286" lon="4.82288">
        <ele>265</ele>
        <time>2018-01-19T10:19:55Z</time>
      </trkpt>
      <trkpt lat="45.94286" lon="4.82294">
        <ele>265</ele>
        <time>2018-01-19T10:19:56Z</time>
      </trkpt>
      <trkpt lat="45.94287" lon="4.82307">
        <ele>265</ele>
        <time>2018-01-19T10:19:58Z</time>
      </trkpt>
      <trkpt lat="45.94287" lon="4.82316">
        <ele>265</ele>
        <time>2018-01-19T10:19:59Z</time>
      </trkpt>
      <trkpt lat="45.94289" lon="4.82328">
        <ele>265</ele>
        <time>2018-01-19T10:20:01Z</time>
      </trkpt>
      <trkpt lat="45.94289" lon="4.82335">
        <ele>264</ele>
        <time>2018-01-19T10:20:02Z</time>
      </trkpt>
      <trkpt lat="45.9429" lon="4.82347">
        <ele>264</ele>
        <time>2018-01-19T10:20:04Z</time>
      </trkpt>
      <trkpt lat="45.94291" lon="4.82353">
        <ele>264</ele>
        <time>2018-01-19T10:20:05Z</time>
      </trkpt>
      <trkpt lat="45.94291" lon="4.82362">
        <ele>264</ele>
        <time>2018-01-19T10:20:07Z</time>
      </trkpt>
      <trkpt lat="45.94291" lon="4.82367">
        <ele>264</ele>
        <time>2018-01-19T10:20:08Z</time>
      </trkpt>
      <trkpt lat="45.94292" lon="4.82378">
        <ele>264</ele>
        <time>2018-01-19T10:20:10Z</time>
      </trkpt>
      <trkpt lat="45.94292" lon="4.82384">
        <ele>264</ele>
        <time>2018-01-19T10:20:11Z</time>
      </trkpt>
      <trkpt lat="45.94292" lon="4.82395">
        <ele>264</ele>
        <time>2018-01-19T10:20:13Z</time>
      </trkpt>
      <trkpt lat="45.94293" lon="4.82401">
        <ele>264</ele>
        <time>2018-01-19T10:20:14Z</time>
      </trkpt>
      <trkpt lat="45.94293" lon="4.82413">
        <ele>264</ele>
        <time>2018-01-19T10:20:16Z</time>
      </trkpt>
      <trkpt lat="45.94294" lon="4.82419">
        <ele>264</ele>
        <time>2018-01-19T10:20:17Z</time>
      </trkpt>
      <trkpt lat="45.94294" lon="4.82431">
        <ele>264</ele>
        <time>2018-01-19T10:20:19Z</time>
      </trkpt>
      <trkpt lat="45.94294" lon="4.82436">
        <ele>264</ele>
        <time>2018-01-19T10:20:20Z</time>
      </trkpt>
      <trkpt lat="45.94295" lon="4.82446">
        <ele>264</ele>
        <time>2018-01-19T10:20:22Z</time>
      </trkpt>
      <trkpt lat="45.94295" lon="4.82451">
        <ele>264</ele>
        <time>2018-01-19T10:20:23Z</time>
      </trkpt>
      <trkpt lat="45.94295" lon="4.82462">
        <ele>264</ele>
        <time>2018-01-19T10:20:25Z</time>
      </trkpt>
      <trkpt lat="45.94296" lon="4.82468">
        <ele>264</ele>
        <time>2018-01-19T10:20:26Z</time>
      </trkpt>
      <trkpt lat="45.94296" lon="4.82479">
        <ele>264</ele>
        <time>2018-01-19T10:20:28Z</time>
      </trkpt>
      <trkpt lat="45.94296" lon="4.82485">
        <ele>264</ele>
        <time>2018-01-19T10:20:29Z</time>
      </trkpt>
      <trkpt lat="45.94297" lon="4.82497">
        <ele>264</ele>
        <time>2018-01-19T10:20:31Z</time>
      </trkpt>
      <trkpt lat="45.94297" lon="4.82503">
        <ele>264</ele>
        <time>2018-01-19T10:20:32Z</time>
      </trkpt>
      <trkpt lat="45.94298" lon="4.82514">
        <ele>264</ele>
        <time>2018-01-19T10:20:34Z</time>
      </trkpt>
      <trkpt lat="45.94298" lon="4.82519">
        <ele>264</ele>
        <time>2018-01-19T10:20:35Z</time>
      </trkpt>
      <trkpt lat="45.94298" lon="4.82532">
        <ele>264</ele>
        <time>2018-01-19T10:20:37Z</time>
      </trkpt>
      <trkpt lat="45.94298" lon="4.82538">
        <ele>264</ele>
        <time>2018-01-19T10:20:38Z</time>
      </trkpt>
      <trkpt lat="45.94297" lon="4.82549">
        <ele>264</ele>
        <time>2018-01-19T10:20:40Z</time>
      </trkpt>
      <trkpt lat="45.94297" lon="4.82554">
        <ele>264</ele>
        <time>2018-01-19T10:20:41Z</time>
      </trkpt>
      <trkpt lat="45.94297" lon="4.82565">
        <ele>264</ele>
        <time>2018-01-19T10:20:43Z</time>
      </trkpt>
      <trkpt lat="45.94297" lon="4.82571">
        <ele>264</ele>
        <time>2018-01-19T10:20:44Z</time>
      </trkpt>
      <trkpt lat="45.94297" lon="4.82578">
        <ele>264</ele>
        <time>2018-01-19T10:20:45Z</time>
      </trkpt>
      <trkpt lat="45.94297" lon="4.82585">
        <ele>265</ele>
        <time>2018-01-19T10:20:46Z</time>
      </trkpt>
      <trkpt lat="45.94297" lon="4.82598">
        <ele>265</ele>
        <time>2018-01-19T10:20:48Z</time>
      </trkpt>
      <trkpt lat="45.94297" lon="4.82605">
        <ele>265</ele>
        <time>2018-01-19T10:20:49Z</time>
      </trkpt>
      <trkpt lat="45.94297" lon="4.82618">
        <ele>265</ele>
        <time>2018-01-19T10:20:51Z</time>
      </trkpt>
      <trkpt lat="45.94297" lon="4.82624">
        <ele>265</ele>
        <time>2018-01-19T10:20:52Z</time>
      </trkpt>
      <trkpt lat="45.94296" lon="4.82637">
        <ele>265</ele>
        <time>2018-01-19T10:20:54Z</time>
      </trkpt>
      <trkpt lat="45.94296" lon="4.82642">
        <ele>265</ele>
        <time>2018-01-19T10:20:55Z</time>
      </trkpt>
      <trkpt lat="45.94295" lon="4.82653">
        <ele>265</ele>
        <time>2018-01-19T10:20:57Z</time>
      </trkpt>
      <trkpt lat="45.94295" lon="4.82659">
        <ele>265</ele>
        <time>2018-01-19T10:20:58Z</time>
      </trkpt>
      <trkpt lat="45.94294" lon="4.82669">
        <ele>265</ele>
        <time>2018-01-19T10:21:00Z</time>
      </trkpt>
      <trkpt lat="45.94294" lon="4.82675">
        <ele>265</ele>
        <time>2018-01-19T10:21:01Z</time>
      </trkpt>
      <trkpt lat="45.94294" lon="4.82688">
        <ele>265</ele>
        <time>2018-01-19T10:21:03Z</time>
      </trkpt>
      <trkpt lat="45.94295" lon="4.82695">
        <ele>265</ele>
        <time>2018-01-19T10:21:04Z</time>
      </trkpt>
      <trkpt lat="45.94294" lon="4.82702">
        <ele>265</ele>
        <time>2018-01-19T10:21:05Z</time>
      </trkpt>
      <trkpt lat="45.94294" lon="4.82709">
        <ele>265</ele>
        <time>2018-01-19T10:21:06Z</time>
      </trkpt>
      <trkpt lat="45.94294" lon="4.8272">
        <ele>265</ele>
        <time>2018-01-19T10:21:08Z</time>
      </trkpt>
      <trkpt lat="45.94294" lon="4.82727">
        <ele>265</ele>
        <time>2018-01-19T10:21:09Z</time>
      </trkpt>
      <trkpt lat="45.94294" lon="4.82738">
        <ele>265</ele>
        <time>2018-01-19T10:21:11Z</time>
      </trkpt>
      <trkpt lat="45.94294" lon="4.82744">
        <ele>265</ele>
        <time>2018-01-19T10:21:12Z</time>
      </trkpt>
      <trkpt lat="45.94293" lon="4.82754">
        <ele>265</ele>
        <time>2018-01-19T10:21:14Z</time>
      </trkpt>
      <trkpt lat="45.94294" lon="4.8276">
        <ele>265</ele>
        <time>2018-01-19T10:21:15Z</time>
      </trkpt>
      <trkpt lat="45.94294" lon="4.82773">
        <ele>265</ele>
        <time>2018-01-19T10:21:17Z</time>
      </trkpt>
      <trkpt lat="45.94294" lon="4.82778">
        <ele>265</ele>
        <time>2018-01-19T10:21:18Z</time>
      </trkpt>
      <trkpt lat="45.94294" lon="4.82789">
        <ele>265</ele>
        <time>2018-01-19T10:21:20Z</time>
      </trkpt>
      <trkpt lat="45.94294" lon="4.82794">
        <ele>265</ele>
        <time>2018-01-19T10:21:21Z</time>
      </trkpt>
      <trkpt lat="45.94294" lon="4.82804">
        <ele>265</ele>
        <time>2018-01-19T10:21:23Z</time>
      </trkpt>
      <trkpt lat="45.94295" lon="4.82809">
        <ele>265</ele>
        <time>2018-01-19T10:21:24Z</time>
      </trkpt>
      <trkpt lat="45.94294" lon="4.8282">
        <ele>265</ele>
        <time>2018-01-19T10:21:26Z</time>
      </trkpt>
      <trkpt lat="45.94294" lon="4.82828">
        <ele>265</ele>
        <time>2018-01-19T10:21:27Z</time>
      </trkpt>
      <trkpt lat="45.94293" lon="4.82836">
        <ele>265</ele>
        <time>2018-01-19T10:21:28Z</time>
      </trkpt>
      <trkpt lat="45.94292" lon="4.82843">
        <ele>265</ele>
        <time>2018-01-19T10:21:29Z</time>
      </trkpt>
      <trkpt lat="45.94293" lon="4.8285">
        <ele>265</ele>
        <time>2018-01-19T10:21:30Z</time>
      </trkpt>
      <trkpt lat="45.94293" lon="4.82856">
        <ele>265</ele>
        <time>2018-01-19T10:21:31Z</time>
      </trkpt>
      <trkpt lat="45.94292" lon="4.82868">
        <ele>265</ele>
        <time>2018-01-19T10:21:33Z</time>
      </trkpt>
      <trkpt lat="45.94292" lon="4.82877">
        <ele>265</ele>
        <time>2018-01-19T10:21:34Z</time>
      </trkpt>
      <trkpt lat="45.94291" lon="4.82889">
        <ele>265</ele>
        <time>2018-01-19T10:21:36Z</time>
      </trkpt>
      <trkpt lat="45.94291" lon="4.82895">
        <ele>265</ele>
        <time>2018-01-19T10:21:37Z</time>
      </trkpt>
      <trkpt lat="45.94291" lon="4.82908">
        <ele>265</ele>
        <time>2018-01-19T10:21:39Z</time>
      </trkpt>
      <trkpt lat="45.9429" lon="4.82915">
        <ele>265</ele>
        <time>2018-01-19T10:21:40Z</time>
      </trkpt>
      <trkpt lat="45.94289" lon="4.82921">
        <ele>265</ele>
        <time>2018-01-19T10:21:41Z</time>
      </trkpt>
      <trkpt lat="45.94288" lon="4.82928">
        <ele>265</ele>
        <time>2018-01-19T10:21:42Z</time>
      </trkpt>
      <trkpt lat="45.94286" lon="4.82936">
        <ele>265</ele>
        <time>2018-01-19T10:21:43Z</time>
      </trkpt>
      <trkpt lat="45.94285" lon="4.82942">
        <ele>265</ele>
        <time>2018-01-19T10:21:44Z</time>
      </trkpt>
      <trkpt lat="45.94285" lon="4.82949">
        <ele>265</ele>
        <time>2018-01-19T10:21:45Z</time>
      </trkpt>
      <trkpt lat="45.94286" lon="4.82956">
        <ele>265</ele>
        <time>2018-01-19T10:21:46Z</time>
      </trkpt>
      <trkpt lat="45.94288" lon="4.82965">
        <ele>265</ele>
        <time>2018-01-19T10:21:47Z</time>
      </trkpt>
      <trkpt lat="45.9429" lon="4.82971">
        <ele>265</ele>
        <time>2018-01-19T10:21:48Z</time>
      </trkpt>
      <trkpt lat="45.94292" lon="4.82978">
        <ele>265</ele>
        <time>2018-01-19T10:21:49Z</time>
      </trkpt>
      <trkpt lat="45.94293" lon="4.82985">
        <ele>265</ele>
        <time>2018-01-19T10:21:50Z</time>
      </trkpt>
      <trkpt lat="45.94295" lon="4.82992">
        <ele>265</ele>
        <time>2018-01-19T10:21:51Z</time>
      </trkpt>
      <trkpt lat="45.94296" lon="4.82998">
        <ele>265</ele>
        <time>2018-01-19T10:21:52Z</time>
      </trkpt>
      <trkpt lat="45.94298" lon="4.8301">
        <ele>266</ele>
        <time>2018-01-19T10:21:54Z</time>
      </trkpt>
      <trkpt lat="45.943" lon="4.83016">
        <ele>266</ele>
        <time>2018-01-19T10:21:55Z</time>
      </trkpt>
      <trkpt lat="45.94301" lon="4.83027">
        <ele>266</ele>
        <time>2018-01-19T10:21:57Z</time>
      </trkpt>
      <trkpt lat="45.94303" lon="4.83032">
        <ele>266</ele>
        <time>2018-01-19T10:21:58Z</time>
      </trkpt>
      <trkpt lat="45.94304" lon="4.83043">
        <ele>266</ele>
        <time>2018-01-19T10:22:00Z</time>
      </trkpt>
      <trkpt lat="45.94306" lon="4.83048">
        <ele>266</ele>
        <time>2018-01-19T10:22:01Z</time>
      </trkpt>
      <trkpt lat="45.94309" lon="4.83059">
        <ele>266</ele>
        <time>2018-01-19T10:22:03Z</time>
      </trkpt>
      <trkpt lat="45.9431" lon="4.83065">
        <ele>266</ele>
        <time>2018-01-19T10:22:04Z</time>
      </trkpt>
      <trkpt lat="45.94311" lon="4.83072">
        <ele>266</ele>
        <time>2018-01-19T10:22:05Z</time>
      </trkpt>
      <trkpt lat="45.94313" lon="4.83079">
        <ele>266</ele>
        <time>2018-01-19T10:22:06Z</time>
      </trkpt>
      <trkpt lat="45.94315" lon="4.83085">
        <ele>266</ele>
        <time>2018-01-19T10:22:07Z</time>
      </trkpt>
      <trkpt lat="45.94317" lon="4.83091">
        <ele>266</ele>
        <time>2018-01-19T10:22:08Z</time>
      </trkpt>
      <trkpt lat="45.94319" lon="4.83103">
        <ele>266</ele>
        <time>2018-01-19T10:22:10Z</time>
      </trkpt>
      <trkpt lat="45.94321" lon="4.83109">
        <ele>266</ele>
        <time>2018-01-19T10:22:11Z</time>
      </trkpt>
      <trkpt lat="45.94324" lon="4.83121">
        <ele>266</ele>
        <time>2018-01-19T10:22:13Z</time>
      </trkpt>
      <trkpt lat="45.94326" lon="4.83125">
        <ele>266</ele>
        <time>2018-01-19T10:22:14Z</time>
      </trkpt>
      <trkpt lat="45.94329" lon="4.83136">
        <ele>266</ele>
        <time>2018-01-19T10:22:16Z</time>
      </trkpt>
      <trkpt lat="45.9433" lon="4.83141">
        <ele>266</ele>
        <time>2018-01-19T10:22:17Z</time>
      </trkpt>
      <trkpt lat="45.94333" lon="4.83152">
        <ele>266</ele>
        <time>2018-01-19T10:22:19Z</time>
      </trkpt>
      <trkpt lat="45.94336" lon="4.83158">
        <ele>266</ele>
        <time>2018-01-19T10:22:20Z</time>
      </trkpt>
      <trkpt lat="45.94338" lon="4.83165">
        <ele>266</ele>
        <time>2018-01-19T10:22:21Z</time>
      </trkpt>
      <trkpt lat="45.9434" lon="4.83171">
        <ele>266</ele>
        <time>2018-01-19T10:22:22Z</time>
      </trkpt>
      <trkpt lat="45.94345" lon="4.8318">
        <ele>266</ele>
        <time>2018-01-19T10:22:24Z</time>
      </trkpt>
      <trkpt lat="45.94347" lon="4.83186">
        <ele>266</ele>
        <time>2018-01-19T10:22:25Z</time>
      </trkpt>
      <trkpt lat="45.9435" lon="4.83197">
        <ele>266</ele>
        <time>2018-01-19T10:22:27Z</time>
      </trkpt>
      <trkpt lat="45.94352" lon="4.83203">
        <ele>266</ele>
        <time>2018-01-19T10:22:28Z</time>
      </trkpt>
      <trkpt lat="45.94356" lon="4.83213">
        <ele>266</ele>
        <time>2018-01-19T10:22:30Z</time>
      </trkpt>
      <trkpt lat="45.94358" lon="4.83218">
        <ele>266</ele>
        <time>2018-01-19T10:22:31Z</time>
      </trkpt>
      <trkpt lat="45.9436" lon="4.83225">
        <ele>266</ele>
        <time>2018-01-19T10:22:32Z</time>
      </trkpt>
      <trkpt lat="45.94362" lon="4.83231">
        <ele>266</ele>
        <time>2018-01-19T10:22:33Z</time>
      </trkpt>
      <trkpt lat="45.94365" lon="4.83236">
        <ele>266</ele>
        <time>2018-01-19T10:22:34Z</time>
      </trkpt>
      <trkpt lat="45.94367" lon="4.83243">
        <ele>265</ele>
        <time>2018-01-19T10:22:35Z</time>
      </trkpt>
      <trkpt lat="45.9437" lon="4.83251">
        <ele>265</ele>
        <time>2018-01-19T10:22:36Z</time>
      </trkpt>
      <trkpt lat="45.94373" lon="4.83257">
        <ele>265</ele>
        <time>2018-01-19T10:22:37Z</time>
      </trkpt>
      <trkpt lat="45.94376" lon="4.83264">
        <ele>264</ele>
        <time>2018-01-19T10:22:38Z</time>
      </trkpt>
      <trkpt lat="45.94377" lon="4.83271">
        <ele>264</ele>
        <time>2018-01-19T10:22:39Z</time>
      </trkpt>
      <trkpt lat="45.94379" lon="4.83278">
        <ele>264</ele>
        <time>2018-01-19T10:22:40Z</time>
      </trkpt>
      <trkpt lat="45.94382" lon="4.83285">
        <ele>264</ele>
        <time>2018-01-19T10:22:41Z</time>
      </trkpt>
      <trkpt lat="45.94384" lon="4.83291">
        <ele>264</ele>
        <time>2018-01-19T10:22:42Z</time>
      </trkpt>
      <trkpt lat="45.94386" lon="4.83298">
        <ele>264</ele>
        <time>2018-01-19T10:22:43Z</time>
      </trkpt>
      <trkpt lat="45.94388" lon="4.83305">
        <ele>264</ele>
        <time>2018-01-19T10:22:44Z</time>
      </trkpt>
      <trkpt lat="45.9439" lon="4.83312">
        <ele>264</ele>
        <time>2018-01-19T10:22:45Z</time>
      </trkpt>
      <trkpt lat="45.94394" lon="4.83317">
        <ele>264</ele>
        <time>2018-01-19T10:22:46Z</time>
      </trkpt>
      <trkpt lat="45.94397" lon="4.83324">
        <ele>264</ele>
        <time>2018-01-19T10:22:47Z</time>
      </trkpt>
      <trkpt lat="45.94399" lon="4.8333">
        <ele>264</ele>
        <time>2018-01-19T10:22:48Z</time>
      </trkpt>
      <trkpt lat="45.94401" lon="4.83337">
        <ele>263</ele>
        <time>2018-01-19T10:22:49Z</time>
      </trkpt>
      <trkpt lat="45.94404" lon="4.83343">
        <ele>263</ele>
        <time>2018-01-19T10:22:50Z</time>
      </trkpt>
      <trkpt lat="45.94407" lon="4.83349">
        <ele>263</ele>
        <time>2018-01-19T10:22:51Z</time>
      </trkpt>
      <trkpt lat="45.94409" lon="4.83355">
        <ele>263</ele>
        <time>2018-01-19T10:22:52Z</time>
      </trkpt>
      <trkpt lat="45.94411" lon="4.83361">
        <ele>264</ele>
        <time>2018-01-19T10:22:53Z</time>
      </trkpt>
      <trkpt lat="45.94415" lon="4.83372">
        <ele>264</ele>
        <time>2018-01-19T10:22:55Z</time>
      </trkpt>
      <trkpt lat="45.94417" lon="4.83377">
        <ele>264</ele>
        <time>2018-01-19T10:22:56Z</time>
      </trkpt>
      <trkpt lat="45.9442" lon="4.83383">
        <ele>264</ele>
        <time>2018-01-19T10:22:57Z</time>
      </trkpt>
      <trkpt lat="45.94422" lon="4.83389">
        <ele>264</ele>
        <time>2018-01-19T10:22:58Z</time>
      </trkpt>
      <trkpt lat="45.94426" lon="4.83393">
        <ele>264</ele>
        <time>2018-01-19T10:22:59Z</time>
      </trkpt>
      <trkpt lat="45.94429" lon="4.83401">
        <ele>264</ele>
        <time>2018-01-19T10:23:00Z</time>
      </trkpt>
      <trkpt lat="45.94432" lon="4.83407">
        <ele>264</ele>
        <time>2018-01-19T10:23:01Z</time>
      </trkpt>
      <trkpt lat="45.94435" lon="4.83414">
        <ele>264</ele>
        <time>2018-01-19T10:23:02Z</time>
      </trkpt>
      <trkpt lat="45.94438" lon="4.83419">
        <ele>264</ele>
        <time>2018-01-19T10:23:03Z</time>
      </trkpt>
      <trkpt lat="45.9444" lon="4.83425">
        <ele>264</ele>
        <time>2018-01-19T10:23:04Z</time>
      </trkpt>
      <trkpt lat="45.94443" lon="4.83431">
        <ele>263</ele>
        <time>2018-01-19T10:23:05Z</time>
      </trkpt>
      <trkpt lat="45.94446" lon="4.83436">
        <ele>263</ele>
        <time>2018-01-19T10:23:06Z</time>
      </trkpt>
      <trkpt lat="45.94449" lon="4.83441">
        <ele>263</ele>
        <time>2018-01-19T10:23:07Z</time>
      </trkpt>
      <trkpt lat="45.94451" lon="4.83447">
        <ele>263</ele>
        <time>2018-01-19T10:23:08Z</time>
      </trkpt>
      <trkpt lat="45.94454" lon="4.83452">
        <ele>263</ele>
        <time>2018-01-19T10:23:09Z</time>
      </trkpt>
      <trkpt lat="45.94456" lon="4.83457">
        <ele>263</ele>
        <time>2018-01-19T10:23:10Z</time>
      </trkpt>
      <trkpt lat="45.94459" lon="4.83463">
        <ele>263</ele>
        <time>2018-01-19T10:23:11Z</time>
      </trkpt>
      <trkpt lat="45.94462" lon="4.83467">
        <ele>263</ele>
        <time>2018-01-19T10:23:12Z</time>
      </trkpt>
      <trkpt lat="45.94465" lon="4.83473">
        <ele>263</ele>
        <time>2018-01-19T10:23:13Z</time>
      </trkpt>
      <trkpt lat="45.94468" lon="4.83478">
        <ele>263</ele>
        <time>2018-01-19T10:23:14Z</time>
      </trkpt>
      <trkpt lat="45.94472" lon="4.83483">
        <ele>263</ele>
        <time>2018-01-19T10:23:15Z</time>
      </trkpt>
      <trkpt lat="45.94475" lon="4.83489">
        <ele>263</ele>
        <time>2018-01-19T10:23:16Z</time>
      </trkpt>
      <trkpt lat="45.94477" lon="4.83494">
        <ele>263</ele>
        <time>2018-01-19T10:23:17Z</time>
      </trkpt>
      <trkpt lat="45.94481" lon="4.83499">
        <ele>263</ele>
        <time>2018-01-19T10:23:18Z</time>
      </trkpt>
      <trkpt lat="45.94484" lon="4.83504">
        <ele>262</ele>
        <time>2018-01-19T10:23:19Z</time>
      </trkpt>
      <trkpt lat="45.94488" lon="4.8351">
        <ele>262</ele>
        <time>2018-01-19T10:23:20Z</time>
      </trkpt>
      <trkpt lat="45.94492" lon="4.83516">
        <ele>262</ele>
        <time>2018-01-19T10:23:21Z</time>
      </trkpt>
      <trkpt lat="45.94497" lon="4.83523">
        <ele>262</ele>
        <time>2018-01-19T10:23:22Z</time>
      </trkpt>
      <trkpt lat="45.945" lon="4.83529">
        <ele>262</ele>
        <time>2018-01-19T10:23:23Z</time>
      </trkpt>
      <trkpt lat="45.94504" lon="4.83535">
        <ele>262</ele>
        <time>2018-01-19T10:23:24Z</time>
      </trkpt>
      <trkpt lat="45.94507" lon="4.83542">
        <ele>262</ele>
        <time>2018-01-19T10:23:25Z</time>
      </trkpt>
      <trkpt lat="45.94511" lon="4.83549">
        <ele>261</ele>
        <time>2018-01-19T10:23:26Z</time>
      </trkpt>
      <trkpt lat="45.94514" lon="4.83555">
        <ele>261</ele>
        <time>2018-01-19T10:23:27Z</time>
      </trkpt>
      <trkpt lat="45.94516" lon="4.83561">
        <ele>261</ele>
        <time>2018-01-19T10:23:28Z</time>
      </trkpt>
      <trkpt lat="45.94519" lon="4.83568">
        <ele>261</ele>
        <time>2018-01-19T10:23:29Z</time>
      </trkpt>
      <trkpt lat="45.94521" lon="4.83574">
        <ele>261</ele>
        <time>2018-01-19T10:23:30Z</time>
      </trkpt>
      <trkpt lat="45.94523" lon="4.83581">
        <ele>261</ele>
        <time>2018-01-19T10:23:31Z</time>
      </trkpt>
      <trkpt lat="45.94525" lon="4.83587">
        <ele>261</ele>
        <time>2018-01-19T10:23:32Z</time>
      </trkpt>
      <trkpt lat="45.94528" lon="4.83593">
        <ele>261</ele>
        <time>2018-01-19T10:23:33Z</time>
      </trkpt>
      <trkpt lat="45.94529" lon="4.836">
        <ele>261</ele>
        <time>2018-01-19T10:23:34Z</time>
      </trkpt>
      <trkpt lat="45.94531" lon="4.83606">
        <ele>261</ele>
        <time>2018-01-19T10:23:35Z</time>
      </trkpt>
      <trkpt lat="45.94532" lon="4.83612">
        <ele>261</ele>
        <time>2018-01-19T10:23:36Z</time>
      </trkpt>
      <trkpt lat="45.94534" lon="4.83624">
        <ele>261</ele>
        <time>2018-01-19T10:23:38Z</time>
      </trkpt>
      <trkpt lat="45.94535" lon="4.83631">
        <ele>261</ele>
        <time>2018-01-19T10:23:39Z</time>
      </trkpt>
      <trkpt lat="45.94537" lon="4.83638">
        <ele>261</ele>
        <time>2018-01-19T10:23:40Z</time>
      </trkpt>
      <trkpt lat="45.94538" lon="4.83646">
        <ele>261</ele>
        <time>2018-01-19T10:23:41Z</time>
      </trkpt>
      <trkpt lat="45.94539" lon="4.83654">
        <ele>261</ele>
        <time>2018-01-19T10:23:42Z</time>
      </trkpt>
      <trkpt lat="45.94541" lon="4.83661">
        <ele>261</ele>
        <time>2018-01-19T10:23:43Z</time>
      </trkpt>
      <trkpt lat="45.94542" lon="4.83669">
        <ele>262</ele>
        <time>2018-01-19T10:23:44Z</time>
      </trkpt>
      <trkpt lat="45.94544" lon="4.83676">
        <ele>262</ele>
        <time>2018-01-19T10:23:45Z</time>
      </trkpt>
      <trkpt lat="45.94545" lon="4.83684">
        <ele>262</ele>
        <time>2018-01-19T10:23:46Z</time>
      </trkpt>
      <trkpt lat="45.94546" lon="4.83691">
        <ele>262</ele>
        <time>2018-01-19T10:23:47Z</time>
      </trkpt>
      <trkpt lat="45.94546" lon="4.83697">
        <ele>262</ele>
        <time>2018-01-19T10:23:48Z</time>
      </trkpt>
      <trkpt lat="45.94547" lon="4.83704">
        <ele>262</ele>
        <time>2018-01-19T10:23:49Z</time>
      </trkpt>
      <trkpt lat="45.94548" lon="4.8371">
        <ele>262</ele>
        <time>2018-01-19T10:23:50Z</time>
      </trkpt>
      <trkpt lat="45.94549" lon="4.83717">
        <ele>262</ele>
        <time>2018-01-19T10:23:51Z</time>
      </trkpt>
      <trkpt lat="45.94551" lon="4.83729">
        <ele>262</ele>
        <time>2018-01-19T10:23:53Z</time>
      </trkpt>
      <trkpt lat="45.94552" lon="4.83735">
        <ele>262</ele>
        <time>2018-01-19T10:23:54Z</time>
      </trkpt>
      <trkpt lat="45.94555" lon="4.83746">
        <ele>262</ele>
        <time>2018-01-19T10:23:56Z</time>
      </trkpt>
      <trkpt lat="45.94556" lon="4.83751">
        <ele>263</ele>
        <time>2018-01-19T10:23:57Z</time>
      </trkpt>
      <trkpt lat="45.94557" lon="4.83757">
        <ele>263</ele>
        <time>2018-01-19T10:23:58Z</time>
      </trkpt>
      <trkpt lat="45.94558" lon="4.83764">
        <ele>263</ele>
        <time>2018-01-19T10:23:59Z</time>
      </trkpt>
      <trkpt lat="45.9456" lon="4.83771">
        <ele>263</ele>
        <time>2018-01-19T10:24:00Z</time>
      </trkpt>
      <trkpt lat="45.9456" lon="4.8378">
        <ele>264</ele>
        <time>2018-01-19T10:24:01Z</time>
      </trkpt>
      <trkpt lat="45.9456" lon="4.83787">
        <ele>264</ele>
        <time>2018-01-19T10:24:02Z</time>
      </trkpt>
      <trkpt lat="45.94561" lon="4.83793">
        <ele>264</ele>
        <time>2018-01-19T10:24:03Z</time>
      </trkpt>
      <trkpt lat="45.94561" lon="4.838">
        <ele>264</ele>
        <time>2018-01-19T10:24:04Z</time>
      </trkpt>
      <trkpt lat="45.94563" lon="4.83807">
        <ele>264</ele>
        <time>2018-01-19T10:24:05Z</time>
      </trkpt>
      <trkpt lat="45.94563" lon="4.83813">
        <ele>264</ele>
        <time>2018-01-19T10:24:06Z</time>
      </trkpt>
      <trkpt lat="45.94565" lon="4.83819">
        <ele>264</ele>
        <time>2018-01-19T10:24:07Z</time>
      </trkpt>
      <trkpt lat="45.94567" lon="4.83831">
        <ele>265</ele>
        <time>2018-01-19T10:24:09Z</time>
      </trkpt>
      <trkpt lat="45.94568" lon="4.83837">
        <ele>266</ele>
        <time>2018-01-19T10:24:10Z</time>
      </trkpt>
      <trkpt lat="45.94571" lon="4.8385">
        <ele>266</ele>
        <time>2018-01-19T10:24:12Z</time>
      </trkpt>
      <trkpt lat="45.94571" lon="4.83857">
        <ele>266</ele>
        <time>2018-01-19T10:24:13Z</time>
      </trkpt>
      <trkpt lat="45.94572" lon="4.83864">
        <ele>267</ele>
        <time>2018-01-19T10:24:14Z</time>
      </trkpt>
      <trkpt lat="45.94573" lon="4.83871">
        <ele>267</ele>
        <time>2018-01-19T10:24:15Z</time>
      </trkpt>
      <trkpt lat="45.94575" lon="4.83883">
        <ele>267</ele>
        <time>2018-01-19T10:24:17Z</time>
      </trkpt>
      <trkpt lat="45.94575" lon="4.83889">
        <ele>267</ele>
        <time>2018-01-19T10:24:18Z</time>
      </trkpt>
      <trkpt lat="45.94577" lon="4.839">
        <ele>268</ele>
        <time>2018-01-19T10:24:20Z</time>
      </trkpt>
      <trkpt lat="45.94578" lon="4.83906">
        <ele>268</ele>
        <time>2018-01-19T10:24:21Z</time>
      </trkpt>
      <trkpt lat="45.9458" lon="4.83917">
        <ele>268</ele>
        <time>2018-01-19T10:24:23Z</time>
      </trkpt>
      <trkpt lat="45.94581" lon="4.83923">
        <ele>268</ele>
        <time>2018-01-19T10:24:24Z</time>
      </trkpt>
      <trkpt lat="45.94582" lon="4.83929">
        <ele>268</ele>
        <time>2018-01-19T10:24:25Z</time>
      </trkpt>
      <trkpt lat="45.94584" lon="4.83935">
        <ele>268</ele>
        <time>2018-01-19T10:24:26Z</time>
      </trkpt>
      <trkpt lat="45.94586" lon="4.83947">
        <ele>268</ele>
        <time>2018-01-19T10:24:28Z</time>
      </trkpt>
      <trkpt lat="45.94586" lon="4.83952">
        <ele>268</ele>
        <time>2018-01-19T10:24:29Z</time>
      </trkpt>
      <trkpt lat="45.94588" lon="4.83964">
        <ele>268</ele>
        <time>2018-01-19T10:24:31Z</time>
      </trkpt>
      <trkpt lat="45.94589" lon="4.8397">
        <ele>268</ele>
        <time>2018-01-19T10:24:32Z</time>
      </trkpt>
      <trkpt lat="45.94591" lon="4.83981">
        <ele>268</ele>
        <time>2018-01-19T10:24:34Z</time>
      </trkpt>
      <trkpt lat="45.94592" lon="4.83987">
        <ele>269</ele>
        <time>2018-01-19T10:24:35Z</time>
      </trkpt>
      <trkpt lat="45.94593" lon="4.83999">
        <ele>269</ele>
        <time>2018-01-19T10:24:37Z</time>
      </trkpt>
      <trkpt lat="45.94594" lon="4.84005">
        <ele>269</ele>
        <time>2018-01-19T10:24:38Z</time>
      </trkpt>
      <trkpt lat="45.94595" lon="4.84017">
        <ele>269</ele>
        <time>2018-01-19T10:24:40Z</time>
      </trkpt>
      <trkpt lat="45.94596" lon="4.84023">
        <ele>269</ele>
        <time>2018-01-19T10:24:41Z</time>
      </trkpt>
      <trkpt lat="45.94598" lon="4.84035">
        <ele>269</ele>
        <time>2018-01-19T10:24:43Z</time>
      </trkpt>
      <trkpt lat="45.94599" lon="4.84041">
        <ele>269</ele>
        <time>2018-01-19T10:24:44Z</time>
      </trkpt>
      <trkpt lat="45.946" lon="4.84047">
        <ele>269</ele>
        <time>2018-01-19T10:24:45Z</time>
      </trkpt>
      <trkpt lat="45.94601" lon="4.84053">
        <ele>269</ele>
        <time>2018-01-19T10:24:46Z</time>
      </trkpt>
      <trkpt lat="45.94602" lon="4.8406">
        <ele>269</ele>
        <time>2018-01-19T10:24:47Z</time>
      </trkpt>
      <trkpt lat="45.94603" lon="4.84068">
        <ele>269</ele>
        <time>2018-01-19T10:24:48Z</time>
      </trkpt>
      <trkpt lat="45.94604" lon="4.84074">
        <ele>269</ele>
        <time>2018-01-19T10:24:49Z</time>
      </trkpt>
      <trkpt lat="45.94605" lon="4.84081">
        <ele>269</ele>
        <time>2018-01-19T10:24:50Z</time>
      </trkpt>
      <trkpt lat="45.94606" lon="4.84093">
        <ele>269</ele>
        <time>2018-01-19T10:24:52Z</time>
      </trkpt>
      <trkpt lat="45.94607" lon="4.841">
        <ele>269</ele>
        <time>2018-01-19T10:24:53Z</time>
      </trkpt>
      <trkpt lat="45.94609" lon="4.84109">
        <ele>269</ele>
        <time>2018-01-19T10:24:55Z</time>
      </trkpt>
      <trkpt lat="45.9461" lon="4.84115">
        <ele>269</ele>
        <time>2018-01-19T10:24:56Z</time>
      </trkpt>
      <trkpt lat="45.94612" lon="4.84125">
        <ele>269</ele>
        <time>2018-01-19T10:24:58Z</time>
      </trkpt>
      <trkpt lat="45.94613" lon="4.84129">
        <ele>269</ele>
        <time>2018-01-19T10:24:59Z</time>
      </trkpt>
      <trkpt lat="45.94615" lon="4.84139">
        <ele>269</ele>
        <time>2018-01-19T10:25:01Z</time>
      </trkpt>
      <trkpt lat="45.94616" lon="4.84145">
        <ele>269</ele>
        <time>2018-01-19T10:25:02Z</time>
      </trkpt>
      <trkpt lat="45.94618" lon="4.84156">
        <ele>269</ele>
        <time>2018-01-19T10:25:04Z</time>
      </trkpt>
      <trkpt lat="45.94619" lon="4.84162">
        <ele>269</ele>
        <time>2018-01-19T10:25:05Z</time>
      </trkpt>
      <trkpt lat="45.94621" lon="4.84169">
        <ele>269</ele>
        <time>2018-01-19T10:25:06Z</time>
      </trkpt>
      <trkpt lat="45.94621" lon="4.84175">
        <ele>269</ele>
        <time>2018-01-19T10:25:07Z</time>
      </trkpt>
      <trkpt lat="45.94623" lon="4.84187">
        <ele>269</ele>
        <time>2018-01-19T10:25:09Z</time>
      </trkpt>
      <trkpt lat="45.94625" lon="4.84194">
        <ele>269</ele>
        <time>2018-01-19T10:25:10Z</time>
      </trkpt>
      <trkpt lat="45.94626" lon="4.84207">
        <ele>269</ele>
        <time>2018-01-19T10:25:12Z</time>
      </trkpt>
      <trkpt lat="45.94626" lon="4.84213">
        <ele>269</ele>
        <time>2018-01-19T10:25:13Z</time>
      </trkpt>
      <trkpt lat="45.94628" lon="4.84224">
        <ele>269</ele>
        <time>2018-01-19T10:25:15Z</time>
      </trkpt>
      <trkpt lat="45.94628" lon="4.84231">
        <ele>269</ele>
        <time>2018-01-19T10:25:16Z</time>
      </trkpt>
      <trkpt lat="45.9463" lon="4.84242">
        <ele>269</ele>
        <time>2018-01-19T10:25:18Z</time>
      </trkpt>
      <trkpt lat="45.94631" lon="4.84248">
        <ele>269</ele>
        <time>2018-01-19T10:25:19Z</time>
      </trkpt>
      <trkpt lat="45.94633" lon="4.84259">
        <ele>269</ele>
        <time>2018-01-19T10:25:21Z</time>
      </trkpt>
      <trkpt lat="45.94633" lon="4.84264">
        <ele>269</ele>
        <time>2018-01-19T10:25:22Z</time>
      </trkpt>
      <trkpt lat="45.94635" lon="4.84275">
        <ele>269</ele>
        <time>2018-01-19T10:25:24Z</time>
      </trkpt>
      <trkpt lat="45.94636" lon="4.84281">
        <ele>269</ele>
        <time>2018-01-19T10:25:25Z</time>
      </trkpt>
      <trkpt lat="45.94638" lon="4.84293">
        <ele>269</ele>
        <time>2018-01-19T10:25:27Z</time>
      </trkpt>
      <trkpt lat="45.94639" lon="4.84299">
        <ele>269</ele>
        <time>2018-01-19T10:25:28Z</time>
      </trkpt>
      <trkpt lat="45.94641" lon="4.84311">
        <ele>269</ele>
        <time>2018-01-19T10:25:30Z</time>
      </trkpt>
      <trkpt lat="45.94641" lon="4.84317">
        <ele>269</ele>
        <time>2018-01-19T10:25:31Z</time>
      </trkpt>
      <trkpt lat="45.94642" lon="4.84327">
        <ele>268</ele>
        <time>2018-01-19T10:25:33Z</time>
      </trkpt>
      <trkpt lat="45.94642" lon="4.84332">
        <ele>268</ele>
        <time>2018-01-19T10:25:34Z</time>
      </trkpt>
      <trkpt lat="45.94643" lon="4.84343">
        <ele>268</ele>
        <time>2018-01-19T10:25:36Z</time>
      </trkpt>
      <trkpt lat="45.94644" lon="4.84348">
        <ele>268</ele>
        <time>2018-01-19T10:25:37Z</time>
      </trkpt>
      <trkpt lat="45.94646" lon="4.8436">
        <ele>268</ele>
        <time>2018-01-19T10:25:39Z</time>
      </trkpt>
      <trkpt lat="45.94646" lon="4.84368">
        <ele>268</ele>
        <time>2018-01-19T10:25:40Z</time>
      </trkpt>
      <trkpt lat="45.94647" lon="4.84375">
        <ele>268</ele>
        <time>2018-01-19T10:25:41Z</time>
      </trkpt>
      <trkpt lat="45.94648" lon="4.84382">
        <ele>268</ele>
        <time>2018-01-19T10:25:42Z</time>
      </trkpt>
      <trkpt lat="45.94649" lon="4.8439">
        <ele>268</ele>
        <time>2018-01-19T10:25:43Z</time>
      </trkpt>
      <trkpt lat="45.9465" lon="4.84397">
        <ele>268</ele>
        <time>2018-01-19T10:25:44Z</time>
      </trkpt>
      <trkpt lat="45.94651" lon="4.84403">
        <ele>268</ele>
        <time>2018-01-19T10:25:45Z</time>
      </trkpt>
      <trkpt lat="45.94652" lon="4.84411">
        <ele>268</ele>
        <time>2018-01-19T10:25:46Z</time>
      </trkpt>
      <trkpt lat="45.94652" lon="4.84418">
        <ele>268</ele>
        <time>2018-01-19T10:25:47Z</time>
      </trkpt>
      <trkpt lat="45.94653" lon="4.84424">
        <ele>268</ele>
        <time>2018-01-19T10:25:48Z</time>
      </trkpt>
      <trkpt lat="45.94654" lon="4.84436">
        <ele>268</ele>
        <time>2018-01-19T10:25:50Z</time>
      </trkpt>
      <trkpt lat="45.94655" lon="4.84442">
        <ele>268</ele>
        <time>2018-01-19T10:25:51Z</time>
      </trkpt>
      <trkpt lat="45.94656" lon="4.84453">
        <ele>268</ele>
        <time>2018-01-19T10:25:53Z</time>
      </trkpt>
      <trkpt lat="45.94656" lon="4.84458">
        <ele>268</ele>
        <time>2018-01-19T10:25:54Z</time>
      </trkpt>
      <trkpt lat="45.94657" lon="4.8447">
        <ele>268</ele>
        <time>2018-01-19T10:25:56Z</time>
      </trkpt>
      <trkpt lat="45.94658" lon="4.84477">
        <ele>268</ele>
        <time>2018-01-19T10:25:57Z</time>
      </trkpt>
      <trkpt lat="45.94659" lon="4.84483">
        <ele>268</ele>
        <time>2018-01-19T10:25:58Z</time>
      </trkpt>
      <trkpt lat="45.9466" lon="4.8449">
        <ele>268</ele>
        <time>2018-01-19T10:25:59Z</time>
      </trkpt>
      <trkpt lat="45.9466" lon="4.84498">
        <ele>268</ele>
        <time>2018-01-19T10:26:00Z</time>
      </trkpt>
      <trkpt lat="45.94661" lon="4.84505">
        <ele>268</ele>
        <time>2018-01-19T10:26:01Z</time>
      </trkpt>
      <trkpt lat="45.94662" lon="4.84512">
        <ele>268</ele>
        <time>2018-01-19T10:26:02Z</time>
      </trkpt>
      <trkpt lat="45.94663" lon="4.84519">
        <ele>268</ele>
        <time>2018-01-19T10:26:03Z</time>
      </trkpt>
      <trkpt lat="45.94664" lon="4.84526">
        <ele>268</ele>
        <time>2018-01-19T10:26:04Z</time>
      </trkpt>
      <trkpt lat="45.94664" lon="4.84533">
        <ele>268</ele>
        <time>2018-01-19T10:26:05Z</time>
      </trkpt>
      <trkpt lat="45.94664" lon="4.84541">
        <ele>268</ele>
        <time>2018-01-19T10:26:06Z</time>
      </trkpt>
      <trkpt lat="45.94665" lon="4.84547">
        <ele>268</ele>
        <time>2018-01-19T10:26:07Z</time>
      </trkpt>
      <trkpt lat="45.94666" lon="4.84554">
        <ele>268</ele>
        <time>2018-01-19T10:26:08Z</time>
      </trkpt>
      <trkpt lat="45.94667" lon="4.84561">
        <ele>268</ele>
        <time>2018-01-19T10:26:09Z</time>
      </trkpt>
      <trkpt lat="45.94668" lon="4.84573">
        <ele>268</ele>
        <time>2018-01-19T10:26:11Z</time>
      </trkpt>
      <trkpt lat="45.94668" lon="4.84578">
        <ele>268</ele>
        <time>2018-01-19T10:26:12Z</time>
      </trkpt>
      <trkpt lat="45.94668" lon="4.84585">
        <ele>268</ele>
        <time>2018-01-19T10:26:13Z</time>
      </trkpt>
      <trkpt lat="45.94669" lon="4.84592">
        <ele>268</ele>
        <time>2018-01-19T10:26:14Z</time>
      </trkpt>
      <trkpt lat="45.94669" lon="4.84598">
        <ele>268</ele>
        <time>2018-01-19T10:26:15Z</time>
      </trkpt>
      <trkpt lat="45.94669" lon="4.84605">
        <ele>268</ele>
        <time>2018-01-19T10:26:16Z</time>
      </trkpt>
      <trkpt lat="45.9467" lon="4.84612">
        <ele>268</ele>
        <time>2018-01-19T10:26:17Z</time>
      </trkpt>
      <trkpt lat="45.9467" lon="4.84619">
        <ele>268</ele>
        <time>2018-01-19T10:26:18Z</time>
      </trkpt>
      <trkpt lat="45.9467" lon="4.84627">
        <ele>268</ele>
        <time>2018-01-19T10:26:19Z</time>
      </trkpt>
      <trkpt lat="45.94671" lon="4.84635">
        <ele>268</ele>
        <time>2018-01-19T10:26:20Z</time>
      </trkpt>
      <trkpt lat="45.94671" lon="4.84643">
        <ele>268</ele>
        <time>2018-01-19T10:26:21Z</time>
      </trkpt>
      <trkpt lat="45.94672" lon="4.8465">
        <ele>268</ele>
        <time>2018-01-19T10:26:22Z</time>
      </trkpt>
      <trkpt lat="45.94672" lon="4.84658">
        <ele>268</ele>
        <time>2018-01-19T10:26:23Z</time>
      </trkpt>
      <trkpt lat="45.94673" lon="4.84667">
        <ele>269</ele>
        <time>2018-01-19T10:26:24Z</time>
      </trkpt>
      <trkpt lat="45.94673" lon="4.84674">
        <ele>269</ele>
        <time>2018-01-19T10:26:25Z</time>
      </trkpt>
      <trkpt lat="45.94674" lon="4.8468">
        <ele>269</ele>
        <time>2018-01-19T10:26:26Z</time>
      </trkpt>
      <trkpt lat="45.94674" lon="4.84688">
        <ele>269</ele>
        <time>2018-01-19T10:26:27Z</time>
      </trkpt>
      <trkpt lat="45.94675" lon="4.84694">
        <ele>269</ele>
        <time>2018-01-19T10:26:28Z</time>
      </trkpt>
      <trkpt lat="45.94675" lon="4.84701">
        <ele>268</ele>
        <time>2018-01-19T10:26:29Z</time>
      </trkpt>
      <trkpt lat="45.94675" lon="4.84708">
        <ele>269</ele>
        <time>2018-01-19T10:26:30Z</time>
      </trkpt>
      <trkpt lat="45.94675" lon="4.84718">
        <ele>269</ele>
        <time>2018-01-19T10:26:32Z</time>
      </trkpt>
      <trkpt lat="45.94675" lon="4.84724">
        <ele>269</ele>
        <time>2018-01-19T10:26:33Z</time>
      </trkpt>
      <trkpt lat="45.94676" lon="4.8473">
        <ele>269</ele>
        <time>2018-01-19T10:26:34Z</time>
      </trkpt>
      <trkpt lat="45.94676" lon="4.84737">
        <ele>269</ele>
        <time>2018-01-19T10:26:35Z</time>
      </trkpt>
      <trkpt lat="45.94676" lon="4.84743">
        <ele>269</ele>
        <time>2018-01-19T10:26:36Z</time>
      </trkpt>
      <trkpt lat="45.94677" lon="4.8475">
        <ele>269</ele>
        <time>2018-01-19T10:26:37Z</time>
      </trkpt>
      <trkpt lat="45.94677" lon="4.84757">
        <ele>269</ele>
        <time>2018-01-19T10:26:38Z</time>
      </trkpt>
      <trkpt lat="45.94678" lon="4.84763">
        <ele>269</ele>
        <time>2018-01-19T10:26:39Z</time>
      </trkpt>
      <trkpt lat="45.94678" lon="4.84771">
        <ele>269</ele>
        <time>2018-01-19T10:26:40Z</time>
      </trkpt>
      <trkpt lat="45.94678" lon="4.84777">
        <ele>269</ele>
        <time>2018-01-19T10:26:41Z</time>
      </trkpt>
      <trkpt lat="45.94678" lon="4.84785">
        <ele>269</ele>
        <time>2018-01-19T10:26:42Z</time>
      </trkpt>
      <trkpt lat="45.94678" lon="4.84793">
        <ele>268</ele>
        <time>2018-01-19T10:26:43Z</time>
      </trkpt>
      <trkpt lat="45.94679" lon="4.84805">
        <ele>268</ele>
        <time>2018-01-19T10:26:45Z</time>
      </trkpt>
      <trkpt lat="45.94681" lon="4.84812">
        <ele>268</ele>
        <time>2018-01-19T10:26:46Z</time>
      </trkpt>
      <trkpt lat="45.94682" lon="4.84824">
        <ele>268</ele>
        <time>2018-01-19T10:26:48Z</time>
      </trkpt>
      <trkpt lat="45.94682" lon="4.8483">
        <ele>268</ele>
        <time>2018-01-19T10:26:49Z</time>
      </trkpt>
      <trkpt lat="45.94682" lon="4.84836">
        <ele>268</ele>
        <time>2018-01-19T10:26:50Z</time>
      </trkpt>
      <trkpt lat="45.94683" lon="4.84844">
        <ele>268</ele>
        <time>2018-01-19T10:26:51Z</time>
      </trkpt>
      <trkpt lat="45.94683" lon="4.8485">
        <ele>268</ele>
        <time>2018-01-19T10:26:52Z</time>
      </trkpt>
      <trkpt lat="45.94684" lon="4.84857">
        <ele>268</ele>
        <time>2018-01-19T10:26:53Z</time>
      </trkpt>
      <trkpt lat="45.94684" lon="4.84864">
        <ele>268</ele>
        <time>2018-01-19T10:26:54Z</time>
      </trkpt>
      <trkpt lat="45.94685" lon="4.84871">
        <ele>268</ele>
        <time>2018-01-19T10:26:55Z</time>
      </trkpt>
      <trkpt lat="45.94686" lon="4.84878">
        <ele>268</ele>
        <time>2018-01-19T10:26:56Z</time>
      </trkpt>
      <trkpt lat="45.94687" lon="4.84885">
        <ele>268</ele>
        <time>2018-01-19T10:26:57Z</time>
      </trkpt>
      <trkpt lat="45.94688" lon="4.84892">
        <ele>268</ele>
        <time>2018-01-19T10:26:58Z</time>
      </trkpt>
      <trkpt lat="45.94689" lon="4.84899">
        <ele>268</ele>
        <time>2018-01-19T10:26:59Z</time>
      </trkpt>
      <trkpt lat="45.9469" lon="4.84907">
        <ele>268</ele>
        <time>2018-01-19T10:27:00Z</time>
      </trkpt>
      <trkpt lat="45.94691" lon="4.84913">
        <ele>269</ele>
        <time>2018-01-19T10:27:01Z</time>
      </trkpt>
      <trkpt lat="45.94692" lon="4.84921">
        <ele>269</ele>
        <time>2018-01-19T10:27:02Z</time>
      </trkpt>
      <trkpt lat="45.94694" lon="4.84926">
        <ele>269</ele>
        <time>2018-01-19T10:27:03Z</time>
      </trkpt>
      <trkpt lat="45.94694" lon="4.84933">
        <ele>269</ele>
        <time>2018-01-19T10:27:04Z</time>
      </trkpt>
      <trkpt lat="45.94695" lon="4.8494">
        <ele>269</ele>
        <time>2018-01-19T10:27:05Z</time>
      </trkpt>
      <trkpt lat="45.94695" lon="4.84952">
        <ele>269</ele>
        <time>2018-01-19T10:27:07Z</time>
      </trkpt>
      <trkpt lat="45.94695" lon="4.84958">
        <ele>269</ele>
        <time>2018-01-19T10:27:08Z</time>
      </trkpt>
      <trkpt lat="45.94697" lon="4.84969">
        <ele>269</ele>
        <time>2018-01-19T10:27:10Z</time>
      </trkpt>
      <trkpt lat="45.94698" lon="4.84975">
        <ele>269</ele>
        <time>2018-01-19T10:27:11Z</time>
      </trkpt>
      <trkpt lat="45.94699" lon="4.84981">
        <ele>269</ele>
        <time>2018-01-19T10:27:12Z</time>
      </trkpt>
      <trkpt lat="45.947" lon="4.8499">
        <ele>269</ele>
        <time>2018-01-19T10:27:13Z</time>
      </trkpt>
      <trkpt lat="45.94701" lon="4.84995">
        <ele>269</ele>
        <time>2018-01-19T10:27:14Z</time>
      </trkpt>
      <trkpt lat="45.94702" lon="4.85004">
        <ele>269</ele>
        <time>2018-01-19T10:27:15Z</time>
      </trkpt>
      <trkpt lat="45.94703" lon="4.85011">
        <ele>269</ele>
        <time>2018-01-19T10:27:16Z</time>
      </trkpt>
      <trkpt lat="45.94703" lon="4.85018">
        <ele>269</ele>
        <time>2018-01-19T10:27:17Z</time>
      </trkpt>
      <trkpt lat="45.94704" lon="4.8503">
        <ele>269</ele>
        <time>2018-01-19T10:27:19Z</time>
      </trkpt>
      <trkpt lat="45.94705" lon="4.85036">
        <ele>269</ele>
        <time>2018-01-19T10:27:20Z</time>
      </trkpt>
      <trkpt lat="45.94706" lon="4.85049">
        <ele>269</ele>
        <time>2018-01-19T10:27:22Z</time>
      </trkpt>
      <trkpt lat="45.94706" lon="4.85054">
        <ele>269</ele>
        <time>2018-01-19T10:27:23Z</time>
      </trkpt>
      <trkpt lat="45.94707" lon="4.85066">
        <ele>269</ele>
        <time>2018-01-19T10:27:25Z</time>
      </trkpt>
      <trkpt lat="45.94708" lon="4.85072">
        <ele>269</ele>
        <time>2018-01-19T10:27:26Z</time>
      </trkpt>
      <trkpt lat="45.94709" lon="4.85084">
        <ele>269</ele>
        <time>2018-01-19T10:27:28Z</time>
      </trkpt>
      <trkpt lat="45.9471" lon="4.85091">
        <ele>269</ele>
        <time>2018-01-19T10:27:29Z</time>
      </trkpt>
      <trkpt lat="45.94712" lon="4.85103">
        <ele>269</ele>
        <time>2018-01-19T10:27:31Z</time>
      </trkpt>
      <trkpt lat="45.94713" lon="4.8511">
        <ele>269</ele>
        <time>2018-01-19T10:27:32Z</time>
      </trkpt>
      <trkpt lat="45.94713" lon="4.85116">
        <ele>269</ele>
        <time>2018-01-19T10:27:33Z</time>
      </trkpt>
      <trkpt lat="45.94713" lon="4.85123">
        <ele>269</ele>
        <time>2018-01-19T10:27:34Z</time>
      </trkpt>
      <trkpt lat="45.94714" lon="4.85129">
        <ele>269</ele>
        <time>2018-01-19T10:27:35Z</time>
      </trkpt>
      <trkpt lat="45.94714" lon="4.85136">
        <ele>269</ele>
        <time>2018-01-19T10:27:36Z</time>
      </trkpt>
      <trkpt lat="45.94714" lon="4.85148">
        <ele>269</ele>
        <time>2018-01-19T10:27:38Z</time>
      </trkpt>
      <trkpt lat="45.94715" lon="4.85154">
        <ele>269</ele>
        <time>2018-01-19T10:27:39Z</time>
      </trkpt>
      <trkpt lat="45.94716" lon="4.85162">
        <ele>269</ele>
        <time>2018-01-19T10:27:40Z</time>
      </trkpt>
      <trkpt lat="45.94716" lon="4.85169">
        <ele>269</ele>
        <time>2018-01-19T10:27:41Z</time>
      </trkpt>
      <trkpt lat="45.94718" lon="4.85175">
        <ele>269</ele>
        <time>2018-01-19T10:27:42Z</time>
      </trkpt>
      <trkpt lat="45.94719" lon="4.85183">
        <ele>269</ele>
        <time>2018-01-19T10:27:43Z</time>
      </trkpt>
      <trkpt lat="45.9472" lon="4.8519">
        <ele>269</ele>
        <time>2018-01-19T10:27:44Z</time>
      </trkpt>
      <trkpt lat="45.94721" lon="4.85197">
        <ele>269</ele>
        <time>2018-01-19T10:27:45Z</time>
      </trkpt>
      <trkpt lat="45.94722" lon="4.85204">
        <ele>269</ele>
        <time>2018-01-19T10:27:46Z</time>
      </trkpt>
      <trkpt lat="45.94722" lon="4.85213">
        <ele>269</ele>
        <time>2018-01-19T10:27:47Z</time>
      </trkpt>
      <trkpt lat="45.94722" lon="4.85221">
        <ele>269</ele>
        <time>2018-01-19T10:27:48Z</time>
      </trkpt>
      <trkpt lat="45.94722" lon="4.85229">
        <ele>269</ele>
        <time>2018-01-19T10:27:49Z</time>
      </trkpt>
      <trkpt lat="45.94723" lon="4.85241">
        <ele>269</ele>
        <time>2018-01-19T10:27:51Z</time>
      </trkpt>
      <trkpt lat="45.94724" lon="4.85249">
        <ele>269</ele>
        <time>2018-01-19T10:27:52Z</time>
      </trkpt>
      <trkpt lat="45.94726" lon="4.85261">
        <ele>269</ele>
        <time>2018-01-19T10:27:54Z</time>
      </trkpt>
      <trkpt lat="45.94727" lon="4.85266">
        <ele>269</ele>
        <time>2018-01-19T10:27:55Z</time>
      </trkpt>
      <trkpt lat="45.94727" lon="4.85276">
        <ele>269</ele>
        <time>2018-01-19T10:27:57Z</time>
      </trkpt>
      <trkpt lat="45.94727" lon="4.85281">
        <ele>269</ele>
        <time>2018-01-19T10:27:58Z</time>
      </trkpt>
      <trkpt lat="45.94728" lon="4.85294">
        <ele>270</ele>
        <time>2018-01-19T10:28:00Z</time>
      </trkpt>
      <trkpt lat="45.94729" lon="4.853">
        <ele>270</ele>
        <time>2018-01-19T10:28:01Z</time>
      </trkpt>
      <trkpt lat="45.9473" lon="4.85306">
        <ele>270</ele>
        <time>2018-01-19T10:28:02Z</time>
      </trkpt>
      <trkpt lat="45.9473" lon="4.85313">
        <ele>270</ele>
        <time>2018-01-19T10:28:03Z</time>
      </trkpt>
      <trkpt lat="45.94731" lon="4.85319">
        <ele>270</ele>
        <time>2018-01-19T10:28:04Z</time>
      </trkpt>
      <trkpt lat="45.94732" lon="4.85326">
        <ele>270</ele>
        <time>2018-01-19T10:28:05Z</time>
      </trkpt>
      <trkpt lat="45.94733" lon="4.85338">
        <ele>271</ele>
        <time>2018-01-19T10:28:07Z</time>
      </trkpt>
      <trkpt lat="45.94734" lon="4.85343">
        <ele>271</ele>
        <time>2018-01-19T10:28:08Z</time>
      </trkpt>
      <trkpt lat="45.94735" lon="4.85354">
        <ele>271</ele>
        <time>2018-01-19T10:28:10Z</time>
      </trkpt>
      <trkpt lat="45.94737" lon="4.8536">
        <ele>271</ele>
        <time>2018-01-19T10:28:11Z</time>
      </trkpt>
      <trkpt lat="45.94738" lon="4.85371">
        <ele>271</ele>
        <time>2018-01-19T10:28:13Z</time>
      </trkpt>
      <trkpt lat="45.94739" lon="4.85378">
        <ele>271</ele>
        <time>2018-01-19T10:28:14Z</time>
      </trkpt>
      <trkpt lat="45.9474" lon="4.8539">
        <ele>272</ele>
        <time>2018-01-19T10:28:16Z</time>
      </trkpt>
      <trkpt lat="45.94741" lon="4.85396">
        <ele>272</ele>
        <time>2018-01-19T10:28:17Z</time>
      </trkpt>
      <trkpt lat="45.94741" lon="4.85403">
        <ele>272</ele>
        <time>2018-01-19T10:28:18Z</time>
      </trkpt>
      <trkpt lat="45.94742" lon="4.8541">
        <ele>272</ele>
        <time>2018-01-19T10:28:19Z</time>
      </trkpt>
      <trkpt lat="45.94743" lon="4.85416">
        <ele>273</ele>
        <time>2018-01-19T10:28:20Z</time>
      </trkpt>
      <trkpt lat="45.94744" lon="4.85423">
        <ele>273</ele>
        <time>2018-01-19T10:28:21Z</time>
      </trkpt>
      <trkpt lat="45.94745" lon="4.85435">
        <ele>273</ele>
        <time>2018-01-19T10:28:23Z</time>
      </trkpt>
      <trkpt lat="45.94747" lon="4.8544">
        <ele>274</ele>
        <time>2018-01-19T10:28:24Z</time>
      </trkpt>
      <trkpt lat="45.94747" lon="4.85452">
        <ele>274</ele>
        <time>2018-01-19T10:28:26Z</time>
      </trkpt>
      <trkpt lat="45.94748" lon="4.85458">
        <ele>274</ele>
        <time>2018-01-19T10:28:27Z</time>
      </trkpt>
      <trkpt lat="45.94749" lon="4.85469">
        <ele>274</ele>
        <time>2018-01-19T10:28:29Z</time>
      </trkpt>
      <trkpt lat="45.9475" lon="4.85475">
        <ele>275</ele>
        <time>2018-01-19T10:28:30Z</time>
      </trkpt>
      <trkpt lat="45.94751" lon="4.85486">
        <ele>276</ele>
        <time>2018-01-19T10:28:32Z</time>
      </trkpt>
      <trkpt lat="45.94752" lon="4.85492">
        <ele>276</ele>
        <time>2018-01-19T10:28:33Z</time>
      </trkpt>
      <trkpt lat="45.94754" lon="4.85503">
        <ele>276</ele>
        <time>2018-01-19T10:28:35Z</time>
      </trkpt>
      <trkpt lat="45.94754" lon="4.85508">
        <ele>277</ele>
        <time>2018-01-19T10:28:36Z</time>
      </trkpt>
      <trkpt lat="45.94756" lon="4.85518">
        <ele>277</ele>
        <time>2018-01-19T10:28:38Z</time>
      </trkpt>
      <trkpt lat="45.94757" lon="4.85523">
        <ele>277</ele>
        <time>2018-01-19T10:28:39Z</time>
      </trkpt>
      <trkpt lat="45.94759" lon="4.85534">
        <ele>278</ele>
        <time>2018-01-19T10:28:41Z</time>
      </trkpt>
      <trkpt lat="45.9476" lon="4.85539">
        <ele>278</ele>
        <time>2018-01-19T10:28:42Z</time>
      </trkpt>
      <trkpt lat="45.94761" lon="4.85549">
        <ele>278</ele>
        <time>2018-01-19T10:28:44Z</time>
      </trkpt>
      <trkpt lat="45.94761" lon="4.85553">
        <ele>278</ele>
        <time>2018-01-19T10:28:45Z</time>
      </trkpt>
      <trkpt lat="45.94762" lon="4.85563">
        <ele>279</ele>
        <time>2018-01-19T10:28:47Z</time>
      </trkpt>
      <trkpt lat="45.94763" lon="4.85567">
        <ele>279</ele>
        <time>2018-01-19T10:28:48Z</time>
      </trkpt>
      <trkpt lat="45.94765" lon="4.85576">
        <ele>279</ele>
        <time>2018-01-19T10:28:50Z</time>
      </trkpt>
      <trkpt lat="45.94766" lon="4.85581">
        <ele>279</ele>
        <time>2018-01-19T10:28:51Z</time>
      </trkpt>
      <trkpt lat="45.94769" lon="4.8559">
        <ele>280</ele>
        <time>2018-01-19T10:28:53Z</time>
      </trkpt>
      <trkpt lat="45.9477" lon="4.85595">
        <ele>280</ele>
        <time>2018-01-19T10:28:54Z</time>
      </trkpt>
      <trkpt lat="45.94772" lon="4.85605">
        <ele>280</ele>
        <time>2018-01-19T10:28:56Z</time>
      </trkpt>
      <trkpt lat="45.94773" lon="4.8561">
        <ele>280</ele>
        <time>2018-01-19T10:28:57Z</time>
      </trkpt>
      <trkpt lat="45.94775" lon="4.8562">
        <ele>280</ele>
        <time>2018-01-19T10:28:59Z</time>
      </trkpt>
      <trkpt lat="45.94776" lon="4.85625">
        <ele>280</ele>
        <time>2018-01-19T10:29:00Z</time>
      </trkpt>
      <trkpt lat="45.94779" lon="4.85635">
        <ele>281</ele>
        <time>2018-01-19T10:29:02Z</time>
      </trkpt>
      <trkpt lat="45.9478" lon="4.8564">
        <ele>281</ele>
        <time>2018-01-19T10:29:03Z</time>
      </trkpt>
      <trkpt lat="45.94782" lon="4.8565">
        <ele>281</ele>
        <time>2018-01-19T10:29:05Z</time>
      </trkpt>
      <trkpt lat="45.94784" lon="4.85655">
        <ele>281</ele>
        <time>2018-01-19T10:29:06Z</time>
      </trkpt>
      <trkpt lat="45.94787" lon="4.85664">
        <ele>281</ele>
        <time>2018-01-19T10:29:08Z</time>
      </trkpt>
      <trkpt lat="45.94788" lon="4.85669">
        <ele>280</ele>
        <time>2018-01-19T10:29:09Z</time>
      </trkpt>
      <trkpt lat="45.9479" lon="4.85678">
        <ele>280</ele>
        <time>2018-01-19T10:29:11Z</time>
      </trkpt>
      <trkpt lat="45.94791" lon="4.85683">
        <ele>280</ele>
        <time>2018-01-19T10:29:12Z</time>
      </trkpt>
      <trkpt lat="45.94794" lon="4.85692">
        <ele>280</ele>
        <time>2018-01-19T10:29:14Z</time>
      </trkpt>
      <trkpt lat="45.94795" lon="4.85696">
        <ele>280</ele>
        <time>2018-01-19T10:29:15Z</time>
      </trkpt>
      <trkpt lat="45.94797" lon="4.85706">
        <ele>280</ele>
        <time>2018-01-19T10:29:17Z</time>
      </trkpt>
      <trkpt lat="45.94798" lon="4.85711">
        <ele>280</ele>
        <time>2018-01-19T10:29:18Z</time>
      </trkpt>
      <trkpt lat="45.948" lon="4.85722">
        <ele>280</ele>
        <time>2018-01-19T10:29:20Z</time>
      </trkpt>
      <trkpt lat="45.94802" lon="4.85727">
        <ele>280</ele>
        <time>2018-01-19T10:29:21Z</time>
      </trkpt>
      <trkpt lat="45.94805" lon="4.85738">
        <ele>279</ele>
        <time>2018-01-19T10:29:23Z</time>
      </trkpt>
      <trkpt lat="45.94806" lon="4.85744">
        <ele>279</ele>
        <time>2018-01-19T10:29:24Z</time>
      </trkpt>
      <trkpt lat="45.94809" lon="4.85755">
        <ele>278</ele>
        <time>2018-01-19T10:29:26Z</time>
      </trkpt>
      <trkpt lat="45.94811" lon="4.8576">
        <ele>278</ele>
        <time>2018-01-19T10:29:27Z</time>
      </trkpt>
      <trkpt lat="45.94813" lon="4.85767">
        <ele>278</ele>
        <time>2018-01-19T10:29:28Z</time>
      </trkpt>
      <trkpt lat="45.94814" lon="4.85773">
        <ele>278</ele>
        <time>2018-01-19T10:29:29Z</time>
      </trkpt>
      <trkpt lat="45.94816" lon="4.8578">
        <ele>278</ele>
        <time>2018-01-19T10:29:30Z</time>
      </trkpt>
      <trkpt lat="45.94818" lon="4.85787">
        <ele>278</ele>
        <time>2018-01-19T10:29:31Z</time>
      </trkpt>
      <trkpt lat="45.9482" lon="4.85793">
        <ele>278</ele>
        <time>2018-01-19T10:29:32Z</time>
      </trkpt>
      <trkpt lat="45.94821" lon="4.858">
        <ele>278</ele>
        <time>2018-01-19T10:29:33Z</time>
      </trkpt>
      <trkpt lat="45.94823" lon="4.85806">
        <ele>278</ele>
        <time>2018-01-19T10:29:34Z</time>
      </trkpt>
      <trkpt lat="45.94824" lon="4.85813">
        <ele>278</ele>
        <time>2018-01-19T10:29:35Z</time>
      </trkpt>
      <trkpt lat="45.94826" lon="4.8582">
        <ele>278</ele>
        <time>2018-01-19T10:29:36Z</time>
      </trkpt>
      <trkpt lat="45.94828" lon="4.85826">
        <ele>277</ele>
        <time>2018-01-19T10:29:37Z</time>
      </trkpt>
      <trkpt lat="45.94829" lon="4.85834">
        <ele>277</ele>
        <time>2018-01-19T10:29:38Z</time>
      </trkpt>
      <trkpt lat="45.94831" lon="4.85839">
        <ele>277</ele>
        <time>2018-01-19T10:29:39Z</time>
      </trkpt>
      <trkpt lat="45.94832" lon="4.85846">
        <ele>277</ele>
        <time>2018-01-19T10:29:40Z</time>
      </trkpt>
      <trkpt lat="45.94835" lon="4.85852">
        <ele>276</ele>
        <time>2018-01-19T10:29:41Z</time>
      </trkpt>
      <trkpt lat="45.94837" lon="4.85859">
        <ele>276</ele>
        <time>2018-01-19T10:29:42Z</time>
      </trkpt>
      <trkpt lat="45.94838" lon="4.85865">
        <ele>276</ele>
        <time>2018-01-19T10:29:43Z</time>
      </trkpt>
      <trkpt lat="45.9484" lon="4.85871">
        <ele>276</ele>
        <time>2018-01-19T10:29:44Z</time>
      </trkpt>
      <trkpt lat="45.94842" lon="4.85878">
        <ele>276</ele>
        <time>2018-01-19T10:29:45Z</time>
      </trkpt>
      <trkpt lat="45.94843" lon="4.85885">
        <ele>276</ele>
        <time>2018-01-19T10:29:46Z</time>
      </trkpt>
      <trkpt lat="45.94846" lon="4.85891">
        <ele>276</ele>
        <time>2018-01-19T10:29:47Z</time>
      </trkpt>
      <trkpt lat="45.94847" lon="4.85898">
        <ele>276</ele>
        <time>2018-01-19T10:29:48Z</time>
      </trkpt>
      <trkpt lat="45.94849" lon="4.85905">
        <ele>276</ele>
        <time>2018-01-19T10:29:49Z</time>
      </trkpt>
      <trkpt lat="45.94851" lon="4.85911">
        <ele>275</ele>
        <time>2018-01-19T10:29:50Z</time>
      </trkpt>
      <trkpt lat="45.94852" lon="4.85918">
        <ele>275</ele>
        <time>2018-01-19T10:29:51Z</time>
      </trkpt>
      <trkpt lat="45.94854" lon="4.85926">
        <ele>275</ele>
        <time>2018-01-19T10:29:52Z</time>
      </trkpt>
      <trkpt lat="45.94856" lon="4.85933">
        <ele>275</ele>
        <time>2018-01-19T10:29:53Z</time>
      </trkpt>
      <trkpt lat="45.94858" lon="4.85939">
        <ele>275</ele>
        <time>2018-01-19T10:29:54Z</time>
      </trkpt>
      <trkpt lat="45.9486" lon="4.85946">
        <ele>275</ele>
        <time>2018-01-19T10:29:55Z</time>
      </trkpt>
      <trkpt lat="45.94862" lon="4.85953">
        <ele>275</ele>
        <time>2018-01-19T10:29:56Z</time>
      </trkpt>
      <trkpt lat="45.94864" lon="4.8596">
        <ele>275</ele>
        <time>2018-01-19T10:29:57Z</time>
      </trkpt>
      <trkpt lat="45.94865" lon="4.85966">
        <ele>275</ele>
        <time>2018-01-19T10:29:58Z</time>
      </trkpt>
      <trkpt lat="45.94868" lon="4.85973">
        <ele>275</ele>
        <time>2018-01-19T10:29:59Z</time>
      </trkpt>
      <trkpt lat="45.94869" lon="4.85979">
        <ele>275</ele>
        <time>2018-01-19T10:30:00Z</time>
      </trkpt>
      <trkpt lat="45.94871" lon="4.85984">
        <ele>275</ele>
        <time>2018-01-19T10:30:01Z</time>
      </trkpt>
      <trkpt lat="45.94872" lon="4.85992">
        <ele>275</ele>
        <time>2018-01-19T10:30:02Z</time>
      </trkpt>
      <trkpt lat="45.94874" lon="4.85999">
        <ele>275</ele>
        <time>2018-01-19T10:30:03Z</time>
      </trkpt>
      <trkpt lat="45.94877" lon="4.8601">
        <ele>274</ele>
        <time>2018-01-19T10:30:05Z</time>
      </trkpt>
      <trkpt lat="45.94878" lon="4.86016">
        <ele>274</ele>
        <time>2018-01-19T10:30:06Z</time>
      </trkpt>
      <trkpt lat="45.9488" lon="4.86023">
        <ele>274</ele>
        <time>2018-01-19T10:30:07Z</time>
      </trkpt>
      <trkpt lat="45.94881" lon="4.86029">
        <ele>274</ele>
        <time>2018-01-19T10:30:08Z</time>
      </trkpt>
      <trkpt lat="45.94883" lon="4.86034">
        <ele>274</ele>
        <time>2018-01-19T10:30:09Z</time>
      </trkpt>
      <trkpt lat="45.94884" lon="4.86041">
        <ele>274</ele>
        <time>2018-01-19T10:30:10Z</time>
      </trkpt>
      <trkpt lat="45.94887" lon="4.86048">
        <ele>274</ele>
        <time>2018-01-19T10:30:11Z</time>
      </trkpt>
      <trkpt lat="45.94888" lon="4.86055">
        <ele>274</ele>
        <time>2018-01-19T10:30:12Z</time>
      </trkpt>
      <trkpt lat="45.9489" lon="4.86063">
        <ele>274</ele>
        <time>2018-01-19T10:30:13Z</time>
      </trkpt>
      <trkpt lat="45.94893" lon="4.86071">
        <ele>274</ele>
        <time>2018-01-19T10:30:14Z</time>
      </trkpt>
      <trkpt lat="45.94896" lon="4.86077">
        <ele>274</ele>
        <time>2018-01-19T10:30:15Z</time>
      </trkpt>
      <trkpt lat="45.94899" lon="4.86083">
        <ele>274</ele>
        <time>2018-01-19T10:30:16Z</time>
      </trkpt>
      <trkpt lat="45.94901" lon="4.86091">
        <ele>274</ele>
        <time>2018-01-19T10:30:17Z</time>
      </trkpt>
      <trkpt lat="45.94904" lon="4.86098">
        <ele>274</ele>
        <time>2018-01-19T10:30:18Z</time>
      </trkpt>
      <trkpt lat="45.94907" lon="4.86106">
        <ele>274</ele>
        <time>2018-01-19T10:30:19Z</time>
      </trkpt>
      <trkpt lat="45.94909" lon="4.86113">
        <ele>274</ele>
        <time>2018-01-19T10:30:20Z</time>
      </trkpt>
      <trkpt lat="45.94912" lon="4.8612">
        <ele>274</ele>
        <time>2018-01-19T10:30:21Z</time>
      </trkpt>
      <trkpt lat="45.94916" lon="4.86127">
        <ele>274</ele>
        <time>2018-01-19T10:30:22Z</time>
      </trkpt>
      <trkpt lat="45.9492" lon="4.86134">
        <ele>273</ele>
        <time>2018-01-19T10:30:23Z</time>
      </trkpt>
      <trkpt lat="45.94924" lon="4.86141">
        <ele>273</ele>
        <time>2018-01-19T10:30:24Z</time>
      </trkpt>
      <trkpt lat="45.94928" lon="4.86147">
        <ele>273</ele>
        <time>2018-01-19T10:30:25Z</time>
      </trkpt>
      <trkpt lat="45.94932" lon="4.86154">
        <ele>273</ele>
        <time>2018-01-19T10:30:26Z</time>
      </trkpt>
      <trkpt lat="45.94935" lon="4.8616">
        <ele>273</ele>
        <time>2018-01-19T10:30:27Z</time>
      </trkpt>
      <trkpt lat="45.9494" lon="4.86166">
        <ele>273</ele>
        <time>2018-01-19T10:30:28Z</time>
      </trkpt>
      <trkpt lat="45.94944" lon="4.86171">
        <ele>273</ele>
        <time>2018-01-19T10:30:29Z</time>
      </trkpt>
      <trkpt lat="45.94949" lon="4.86176">
        <ele>273</ele>
        <time>2018-01-19T10:30:30Z</time>
      </trkpt>
      <trkpt lat="45.94953" lon="4.86181">
        <ele>273</ele>
        <time>2018-01-19T10:30:31Z</time>
      </trkpt>
      <trkpt lat="45.94958" lon="4.86186">
        <ele>273</ele>
        <time>2018-01-19T10:30:32Z</time>
      </trkpt>
      <trkpt lat="45.94962" lon="4.86192">
        <ele>272</ele>
        <time>2018-01-19T10:30:33Z</time>
      </trkpt>
      <trkpt lat="45.94967" lon="4.86198">
        <ele>272</ele>
        <time>2018-01-19T10:30:34Z</time>
      </trkpt>
      <trkpt lat="45.94971" lon="4.86203">
        <ele>272</ele>
        <time>2018-01-19T10:30:35Z</time>
      </trkpt>
      <trkpt lat="45.94975" lon="4.86209">
        <ele>272</ele>
        <time>2018-01-19T10:30:36Z</time>
      </trkpt>
      <trkpt lat="45.9498" lon="4.86214">
        <ele>272</ele>
        <time>2018-01-19T10:30:37Z</time>
      </trkpt>
      <trkpt lat="45.94984" lon="4.8622">
        <ele>272</ele>
        <time>2018-01-19T10:30:38Z</time>
      </trkpt>
      <trkpt lat="45.94989" lon="4.86226">
        <ele>272</ele>
        <time>2018-01-19T10:30:39Z</time>
      </trkpt>
      <trkpt lat="45.94993" lon="4.86232">
        <ele>272</ele>
        <time>2018-01-19T10:30:40Z</time>
      </trkpt>
      <trkpt lat="45.94998" lon="4.86238">
        <ele>272</ele>
        <time>2018-01-19T10:30:41Z</time>
      </trkpt>
      <trkpt lat="45.95003" lon="4.86244">
        <ele>272</ele>
        <time>2018-01-19T10:30:42Z</time>
      </trkpt>
      <trkpt lat="45.95008" lon="4.8625">
        <ele>272</ele>
        <time>2018-01-19T10:30:43Z</time>
      </trkpt>
      <trkpt lat="45.95013" lon="4.86256">
        <ele>272</ele>
        <time>2018-01-19T10:30:44Z</time>
      </trkpt>
      <trkpt lat="45.95018" lon="4.86263">
        <ele>271</ele>
        <time>2018-01-19T10:30:45Z</time>
      </trkpt>
      <trkpt lat="45.95023" lon="4.86269">
        <ele>271</ele>
        <time>2018-01-19T10:30:46Z</time>
      </trkpt>
      <trkpt lat="45.95028" lon="4.86276">
        <ele>271</ele>
        <time>2018-01-19T10:30:47Z</time>
      </trkpt>
      <trkpt lat="45.95033" lon="4.86283">
        <ele>271</ele>
        <time>2018-01-19T10:30:48Z</time>
      </trkpt>
      <trkpt lat="45.95038" lon="4.86291">
        <ele>271</ele>
        <time>2018-01-19T10:30:49Z</time>
      </trkpt>
      <trkpt lat="45.95044" lon="4.86297">
        <ele>271</ele>
        <time>2018-01-19T10:30:50Z</time>
      </trkpt>
      <trkpt lat="45.95048" lon="4.86304">
        <ele>271</ele>
        <time>2018-01-19T10:30:51Z</time>
      </trkpt>
      <trkpt lat="45.95054" lon="4.8631">
        <ele>271</ele>
        <time>2018-01-19T10:30:52Z</time>
      </trkpt>
      <trkpt lat="45.95059" lon="4.86317">
        <ele>270</ele>
        <time>2018-01-19T10:30:53Z</time>
      </trkpt>
      <trkpt lat="45.95064" lon="4.86323">
        <ele>270</ele>
        <time>2018-01-19T10:30:54Z</time>
      </trkpt>
      <trkpt lat="45.95069" lon="4.86329">
        <ele>270</ele>
        <time>2018-01-19T10:30:55Z</time>
      </trkpt>
      <trkpt lat="45.95075" lon="4.86335">
        <ele>270</ele>
        <time>2018-01-19T10:30:56Z</time>
      </trkpt>
      <trkpt lat="45.9508" lon="4.86342">
        <ele>270</ele>
        <time>2018-01-19T10:30:57Z</time>
      </trkpt>
      <trkpt lat="45.95085" lon="4.86348">
        <ele>269</ele>
        <time>2018-01-19T10:30:58Z</time>
      </trkpt>
      <trkpt lat="45.9509" lon="4.86354">
        <ele>269</ele>
        <time>2018-01-19T10:30:59Z</time>
      </trkpt>
      <trkpt lat="45.95095" lon="4.86361">
        <ele>269</ele>
        <time>2018-01-19T10:31:00Z</time>
      </trkpt>
      <trkpt lat="45.951" lon="4.86367">
        <ele>269</ele>
        <time>2018-01-19T10:31:01Z</time>
      </trkpt>
      <trkpt lat="45.95104" lon="4.86374">
        <ele>269</ele>
        <time>2018-01-19T10:31:02Z</time>
      </trkpt>
      <trkpt lat="45.95109" lon="4.8638">
        <ele>269</ele>
        <time>2018-01-19T10:31:03Z</time>
      </trkpt>
      <trkpt lat="45.95115" lon="4.86385">
        <ele>269</ele>
        <time>2018-01-19T10:31:04Z</time>
      </trkpt>
      <trkpt lat="45.95119" lon="4.8639">
        <ele>269</ele>
        <time>2018-01-19T10:31:05Z</time>
      </trkpt>
      <trkpt lat="45.95124" lon="4.86396">
        <ele>269</ele>
        <time>2018-01-19T10:31:06Z</time>
      </trkpt>
      <trkpt lat="45.95128" lon="4.86401">
        <ele>268</ele>
        <time>2018-01-19T10:31:07Z</time>
      </trkpt>
      <trkpt lat="45.95132" lon="4.86407">
        <ele>268</ele>
        <time>2018-01-19T10:31:08Z</time>
      </trkpt>
      <trkpt lat="45.95136" lon="4.86412">
        <ele>268</ele>
        <time>2018-01-19T10:31:09Z</time>
      </trkpt>
      <trkpt lat="45.9514" lon="4.86417">
        <ele>269</ele>
        <time>2018-01-19T10:31:10Z</time>
      </trkpt>
      <trkpt lat="45.95144" lon="4.86421">
        <ele>268</ele>
        <time>2018-01-19T10:31:11Z</time>
      </trkpt>
      <trkpt lat="45.95148" lon="4.86427">
        <ele>268</ele>
        <time>2018-01-19T10:31:12Z</time>
      </trkpt>
      <trkpt lat="45.95152" lon="4.86432">
        <ele>268</ele>
        <time>2018-01-19T10:31:13Z</time>
      </trkpt>
      <trkpt lat="45.95156" lon="4.86436">
        <ele>268</ele>
        <time>2018-01-19T10:31:14Z</time>
      </trkpt>
      <trkpt lat="45.9516" lon="4.8644">
        <ele>268</ele>
        <time>2018-01-19T10:31:15Z</time>
      </trkpt>
      <trkpt lat="45.95164" lon="4.86444">
        <ele>268</ele>
        <time>2018-01-19T10:31:16Z</time>
      </trkpt>
      <trkpt lat="45.95168" lon="4.86448">
        <ele>268</ele>
        <time>2018-01-19T10:31:17Z</time>
      </trkpt>
      <trkpt lat="45.95172" lon="4.86452">
        <ele>268</ele>
        <time>2018-01-19T10:31:18Z</time>
      </trkpt>
      <trkpt lat="45.95175" lon="4.86457">
        <ele>268</ele>
        <time>2018-01-19T10:31:19Z</time>
      </trkpt>
      <trkpt lat="45.95179" lon="4.86463">
        <ele>268</ele>
        <time>2018-01-19T10:31:20Z</time>
      </trkpt>
      <trkpt lat="45.95183" lon="4.86469">
        <ele>268</ele>
        <time>2018-01-19T10:31:21Z</time>
      </trkpt>
      <trkpt lat="45.95188" lon="4.86473">
        <ele>268</ele>
        <time>2018-01-19T10:31:22Z</time>
      </trkpt>
      <trkpt lat="45.95192" lon="4.86477">
        <ele>268</ele>
        <time>2018-01-19T10:31:23Z</time>
      </trkpt>
      <trkpt lat="45.95197" lon="4.86482">
        <ele>268</ele>
        <time>2018-01-19T10:31:24Z</time>
      </trkpt>
      <trkpt lat="45.95201" lon="4.86489">
        <ele>268</ele>
        <time>2018-01-19T10:31:25Z</time>
      </trkpt>
      <trkpt lat="45.95206" lon="4.86495">
        <ele>268</ele>
        <time>2018-01-19T10:31:26Z</time>
      </trkpt>
      <trkpt lat="45.95211" lon="4.86501">
        <ele>268</ele>
        <time>2018-01-19T10:31:27Z</time>
      </trkpt>
      <trkpt lat="45.95216" lon="4.86507">
        <ele>268</ele>
        <time>2018-01-19T10:31:28Z</time>
      </trkpt>
      <trkpt lat="45.95221" lon="4.86515">
        <ele>268</ele>
        <time>2018-01-19T10:31:29Z</time>
      </trkpt>
      <trkpt lat="45.95227" lon="4.86521">
        <ele>268</ele>
        <time>2018-01-19T10:31:30Z</time>
      </trkpt>
      <trkpt lat="45.95232" lon="4.86528">
        <ele>268</ele>
        <time>2018-01-19T10:31:31Z</time>
      </trkpt>
      <trkpt lat="45.95238" lon="4.86533">
        <ele>268</ele>
        <time>2018-01-19T10:31:32Z</time>
      </trkpt>
      <trkpt lat="45.95243" lon="4.86539">
        <ele>268</ele>
        <time>2018-01-19T10:31:33Z</time>
      </trkpt>
      <trkpt lat="45.95248" lon="4.86544">
        <ele>268</ele>
        <time>2018-01-19T10:31:34Z</time>
      </trkpt>
      <trkpt lat="45.95253" lon="4.8655">
        <ele>267</ele>
        <time>2018-01-19T10:31:35Z</time>
      </trkpt>
      <trkpt lat="45.95255" lon="4.86556">
        <ele>267</ele>
        <time>2018-01-19T10:31:36Z</time>
      </trkpt>
      <trkpt lat="45.9526" lon="4.86566">
        <ele>267</ele>
        <time>2018-01-19T10:31:38Z</time>
      </trkpt>
      <trkpt lat="45.95259" lon="4.86572">
        <ele>267</ele>
        <time>2018-01-19T10:31:39Z</time>
      </trkpt>
      <trkpt lat="45.95257" lon="4.86578">
        <ele>268</ele>
        <time>2018-01-19T10:31:40Z</time>
      </trkpt>
      <trkpt lat="45.95254" lon="4.86583">
        <ele>268</ele>
        <time>2018-01-19T10:31:41Z</time>
      </trkpt>
      <trkpt lat="45.95245" lon="4.86584">
        <ele>268</ele>
        <time>2018-01-19T10:31:43Z</time>
      </trkpt>
      <trkpt lat="45.95242" lon="4.86585">
        <ele>268</ele>
        <time>2018-01-19T10:31:44Z</time>
      </trkpt>
      <trkpt lat="45.95234" lon="4.86583">
        <ele>268</ele>
        <time>2018-01-19T10:31:46Z</time>
      </trkpt>
      <trkpt lat="45.9523" lon="4.86581">
        <ele>268</ele>
        <time>2018-01-19T10:31:47Z</time>
      </trkpt>
      <trkpt lat="45.95222" lon="4.8658">
        <ele>268</ele>
        <time>2018-01-19T10:31:49Z</time>
      </trkpt>
      <trkpt lat="45.95218" lon="4.8658">
        <ele>268</ele>
        <time>2018-01-19T10:31:50Z</time>
      </trkpt>
      <trkpt lat="45.95211" lon="4.86577">
        <ele>268</ele>
        <time>2018-01-19T10:31:52Z</time>
      </trkpt>
      <trkpt lat="45.95208" lon="4.86577">
        <ele>268</ele>
        <time>2018-01-19T10:31:53Z</time>
      </trkpt>
      <trkpt lat="45.95201" lon="4.86577">
        <ele>268</ele>
        <time>2018-01-19T10:31:55Z</time>
      </trkpt>
      <trkpt lat="45.95198" lon="4.86576">
        <ele>268</ele>
        <time>2018-01-19T10:31:56Z</time>
      </trkpt>
      <trkpt lat="45.95192" lon="4.86575">
        <ele>269</ele>
        <time>2018-01-19T10:31:58Z</time>
      </trkpt>
      <trkpt lat="45.95189" lon="4.86575">
        <ele>269</ele>
        <time>2018-01-19T10:31:59Z</time>
      </trkpt>
      <trkpt lat="45.95182" lon="4.86576">
        <ele>269</ele>
        <time>2018-01-19T10:32:01Z</time>
      </trkpt>
      <trkpt lat="45.95179" lon="4.86577">
        <ele>269</ele>
        <time>2018-01-19T10:32:02Z</time>
      </trkpt>
      <trkpt lat="45.95172" lon="4.86579">
        <ele>269</ele>
        <time>2018-01-19T10:32:04Z</time>
      </trkpt>
      <trkpt lat="45.95168" lon="4.86579">
        <ele>269</ele>
        <time>2018-01-19T10:32:05Z</time>
      </trkpt>
      <trkpt lat="45.95162" lon="4.86579">
        <ele>269</ele>
        <time>2018-01-19T10:32:07Z</time>
      </trkpt>
      <trkpt lat="45.95159" lon="4.8658">
        <ele>269</ele>
        <time>2018-01-19T10:32:08Z</time>
      </trkpt>
      <trkpt lat="45.95152" lon="4.86581">
        <ele>269</ele>
        <time>2018-01-19T10:32:10Z</time>
      </trkpt>
      <trkpt lat="45.95148" lon="4.86581">
        <ele>270</ele>
        <time>2018-01-19T10:32:11Z</time>
      </trkpt>
      <trkpt lat="45.95141" lon="4.86582">
        <ele>270</ele>
        <time>2018-01-19T10:32:13Z</time>
      </trkpt>
      <trkpt lat="45.95137" lon="4.86583">
        <ele>270</ele>
        <time>2018-01-19T10:32:14Z</time>
      </trkpt>
      <trkpt lat="45.9513" lon="4.86583">
        <ele>270</ele>
        <time>2018-01-19T10:32:16Z</time>
      </trkpt>
      <trkpt lat="45.95126" lon="4.86583">
        <ele>270</ele>
        <time>2018-01-19T10:32:17Z</time>
      </trkpt>
      <trkpt lat="45.95119" lon="4.86584">
        <ele>270</ele>
        <time>2018-01-19T10:32:19Z</time>
      </trkpt>
      <trkpt lat="45.95115" lon="4.86584">
        <ele>270</ele>
        <time>2018-01-19T10:32:20Z</time>
      </trkpt>
      <trkpt lat="45.95108" lon="4.86585">
        <ele>271</ele>
        <time>2018-01-19T10:32:22Z</time>
      </trkpt>
      <trkpt lat="45.95104" lon="4.86585">
        <ele>271</ele>
        <time>2018-01-19T10:32:23Z</time>
      </trkpt>
      <trkpt lat="45.95096" lon="4.86587">
        <ele>271</ele>
        <time>2018-01-19T10:32:25Z</time>
      </trkpt>
      <trkpt lat="45.95093" lon="4.86587">
        <ele>271</ele>
        <time>2018-01-19T10:32:26Z</time>
      </trkpt>
      <trkpt lat="45.95086" lon="4.86589">
        <ele>271</ele>
        <time>2018-01-19T10:32:28Z</time>
      </trkpt>
      <trkpt lat="45.95082" lon="4.8659">
        <ele>271</ele>
        <time>2018-01-19T10:32:29Z</time>
      </trkpt>
      <trkpt lat="45.95076" lon="4.86593">
        <ele>272</ele>
        <time>2018-01-19T10:32:31Z</time>
      </trkpt>
      <trkpt lat="45.95072" lon="4.86595">
        <ele>272</ele>
        <time>2018-01-19T10:32:32Z</time>
      </trkpt>
      <trkpt lat="45.95066" lon="4.86597">
        <ele>272</ele>
        <time>2018-01-19T10:32:34Z</time>
      </trkpt>
      <trkpt lat="45.95062" lon="4.86598">
        <ele>272</ele>
        <time>2018-01-19T10:32:35Z</time>
      </trkpt>
      <trkpt lat="45.95055" lon="4.86599">
        <ele>272</ele>
        <time>2018-01-19T10:32:37Z</time>
      </trkpt>
      <trkpt lat="45.95052" lon="4.866">
        <ele>272</ele>
        <time>2018-01-19T10:32:38Z</time>
      </trkpt>
      <trkpt lat="45.95045" lon="4.86603">
        <ele>272</ele>
        <time>2018-01-19T10:32:40Z</time>
      </trkpt>
      <trkpt lat="45.95042" lon="4.86605">
        <ele>272</ele>
        <time>2018-01-19T10:32:41Z</time>
      </trkpt>
      <trkpt lat="45.95036" lon="4.86607">
        <ele>273</ele>
        <time>2018-01-19T10:32:43Z</time>
      </trkpt>
      <trkpt lat="45.95033" lon="4.86608">
        <ele>273</ele>
        <time>2018-01-19T10:32:44Z</time>
      </trkpt>
      <trkpt lat="45.95026" lon="4.86609">
        <ele>273</ele>
        <time>2018-01-19T10:32:46Z</time>
      </trkpt>
      <trkpt lat="45.95023" lon="4.86609">
        <ele>273</ele>
        <time>2018-01-19T10:32:47Z</time>
      </trkpt>
      <trkpt lat="45.95015" lon="4.86609">
        <ele>273</ele>
        <time>2018-01-19T10:32:49Z</time>
      </trkpt>
      <trkpt lat="45.95012" lon="4.8661">
        <ele>273</ele>
        <time>2018-01-19T10:32:50Z</time>
      </trkpt>
      <trkpt lat="45.95005" lon="4.86611">
        <ele>273</ele>
        <time>2018-01-19T10:32:52Z</time>
      </trkpt>
      <trkpt lat="45.95002" lon="4.86611">
        <ele>273</ele>
        <time>2018-01-19T10:32:53Z</time>
      </trkpt>
      <trkpt lat="45.94995" lon="4.86611">
        <ele>275</ele>
        <time>2018-01-19T10:32:55Z</time>
      </trkpt>
      <trkpt lat="45.94991" lon="4.86612">
        <ele>275</ele>
        <time>2018-01-19T10:32:56Z</time>
      </trkpt>
      <trkpt lat="45.94984" lon="4.86613">
        <ele>275</ele>
        <time>2018-01-19T10:32:58Z</time>
      </trkpt>
      <trkpt lat="45.9498" lon="4.86613">
        <ele>275</ele>
        <time>2018-01-19T10:32:59Z</time>
      </trkpt>
      <trkpt lat="45.94973" lon="4.86615">
        <ele>275</ele>
        <time>2018-01-19T10:33:01Z</time>
      </trkpt>
      <trkpt lat="45.9497" lon="4.86616">
        <ele>275</ele>
        <time>2018-01-19T10:33:02Z</time>
      </trkpt>
      <trkpt lat="45.94964" lon="4.86621">
        <ele>275</ele>
        <time>2018-01-19T10:33:04Z</time>
      </trkpt>
      <trkpt lat="45.94961" lon="4.86624">
        <ele>275</ele>
        <time>2018-01-19T10:33:05Z</time>
      </trkpt>
      <trkpt lat="45.94954" lon="4.86632">
        <ele>276</ele>
        <time>2018-01-19T10:33:07Z</time>
      </trkpt>
      <trkpt lat="45.94951" lon="4.86636">
        <ele>276</ele>
        <time>2018-01-19T10:33:08Z</time>
      </trkpt>
      <trkpt lat="45.94947" lon="4.86646">
        <ele>276</ele>
        <time>2018-01-19T10:33:10Z</time>
      </trkpt>
      <trkpt lat="45.94945" lon="4.86651">
        <ele>276</ele>
        <time>2018-01-19T10:33:11Z</time>
      </trkpt>
      <trkpt lat="45.94942" lon="4.86662">
        <ele>276</ele>
        <time>2018-01-19T10:33:13Z</time>
      </trkpt>
      <trkpt lat="45.94942" lon="4.86668">
        <ele>276</ele>
        <time>2018-01-19T10:33:14Z</time>
      </trkpt>
      <trkpt lat="45.94942" lon="4.86677">
        <ele>276</ele>
        <time>2018-01-19T10:33:16Z</time>
      </trkpt>
      <trkpt lat="45.94942" lon="4.86682">
        <ele>276</ele>
        <time>2018-01-19T10:33:17Z</time>
      </trkpt>
      <trkpt lat="45.94944" lon="4.86694">
        <ele>276</ele>
        <time>2018-01-19T10:33:19Z</time>
      </trkpt>
      <trkpt lat="45.94945" lon="4.867">
        <ele>275</ele>
        <time>2018-01-19T10:33:20Z</time>
      </trkpt>
      <trkpt lat="45.94948" lon="4.86707">
        <ele>275</ele>
        <time>2018-01-19T10:33:21Z</time>
      </trkpt>
      <trkpt lat="45.9495" lon="4.86713">
        <ele>275</ele>
        <time>2018-01-19T10:33:22Z</time>
      </trkpt>
      <trkpt lat="45.94952" lon="4.86719">
        <ele>275</ele>
        <time>2018-01-19T10:33:23Z</time>
      </trkpt>
      <trkpt lat="45.94955" lon="4.86725">
        <ele>275</ele>
        <time>2018-01-19T10:33:24Z</time>
      </trkpt>
      <trkpt lat="45.94959" lon="4.86736">
        <ele>275</ele>
        <time>2018-01-19T10:33:26Z</time>
      </trkpt>
      <trkpt lat="45.94961" lon="4.86742">
        <ele>275</ele>
        <time>2018-01-19T10:33:27Z</time>
      </trkpt>
      <trkpt lat="45.94965" lon="4.86752">
        <ele>275</ele>
        <time>2018-01-19T10:33:29Z</time>
      </trkpt>
      <trkpt lat="45.94969" lon="4.86756">
        <ele>275</ele>
        <time>2018-01-19T10:33:30Z</time>
      </trkpt>
      <trkpt lat="45.94974" lon="4.86765">
        <ele>275</ele>
        <time>2018-01-19T10:33:32Z</time>
      </trkpt>
      <trkpt lat="45.94977" lon="4.8677">
        <ele>275</ele>
        <time>2018-01-19T10:33:33Z</time>
      </trkpt>
      <trkpt lat="45.9498" lon="4.86777">
        <ele>275</ele>
        <time>2018-01-19T10:33:34Z</time>
      </trkpt>
      <trkpt lat="45.94983" lon="4.86781">
        <ele>275</ele>
        <time>2018-01-19T10:33:35Z</time>
      </trkpt>
      <trkpt lat="45.94986" lon="4.86787">
        <ele>275</ele>
        <time>2018-01-19T10:33:36Z</time>
      </trkpt>
      <trkpt lat="45.94988" lon="4.86793">
        <ele>276</ele>
        <time>2018-01-19T10:33:37Z</time>
      </trkpt>
      <trkpt lat="45.94994" lon="4.86802">
        <ele>276</ele>
        <time>2018-01-19T10:33:39Z</time>
      </trkpt>
      <trkpt lat="45.94996" lon="4.86807">
        <ele>276</ele>
        <time>2018-01-19T10:33:40Z</time>
      </trkpt>
      <trkpt lat="45.94999" lon="4.86813">
        <ele>276</ele>
        <time>2018-01-19T10:33:41Z</time>
      </trkpt>
      <trkpt lat="45.95001" lon="4.86819">
        <ele>275</ele>
        <time>2018-01-19T10:33:42Z</time>
      </trkpt>
      <trkpt lat="45.95004" lon="4.86825">
        <ele>275</ele>
        <time>2018-01-19T10:33:43Z</time>
      </trkpt>
      <trkpt lat="45.95006" lon="4.86831">
        <ele>276</ele>
        <time>2018-01-19T10:33:44Z</time>
      </trkpt>
      <trkpt lat="45.95008" lon="4.86836">
        <ele>276</ele>
        <time>2018-01-19T10:33:45Z</time>
      </trkpt>
      <trkpt lat="45.95011" lon="4.86842">
        <ele>276</ele>
        <time>2018-01-19T10:33:46Z</time>
      </trkpt>
      <trkpt lat="45.95015" lon="4.86853">
        <ele>275</ele>
        <time>2018-01-19T10:33:48Z</time>
      </trkpt>
      <trkpt lat="45.95017" lon="4.8686">
        <ele>275</ele>
        <time>2018-01-19T10:33:49Z</time>
      </trkpt>
      <trkpt lat="45.95019" lon="4.86865">
        <ele>275</ele>
        <time>2018-01-19T10:33:50Z</time>
      </trkpt>
      <trkpt lat="45.95022" lon="4.86873">
        <ele>275</ele>
        <time>2018-01-19T10:33:51Z</time>
      </trkpt>
      <trkpt lat="45.95025" lon="4.86879">
        <ele>275</ele>
        <time>2018-01-19T10:33:52Z</time>
      </trkpt>
      <trkpt lat="45.95027" lon="4.86885">
        <ele>275</ele>
        <time>2018-01-19T10:33:53Z</time>
      </trkpt>
      <trkpt lat="45.95029" lon="4.86891">
        <ele>275</ele>
        <time>2018-01-19T10:33:54Z</time>
      </trkpt>
      <trkpt lat="45.95031" lon="4.86897">
        <ele>275</ele>
        <time>2018-01-19T10:33:55Z</time>
      </trkpt>
      <trkpt lat="45.95033" lon="4.86903">
        <ele>275</ele>
        <time>2018-01-19T10:33:56Z</time>
      </trkpt>
      <trkpt lat="45.95035" lon="4.86909">
        <ele>275</ele>
        <time>2018-01-19T10:33:57Z</time>
      </trkpt>
      <trkpt lat="45.95037" lon="4.86915">
        <ele>275</ele>
        <time>2018-01-19T10:33:58Z</time>
      </trkpt>
      <trkpt lat="45.95039" lon="4.86922">
        <ele>276</ele>
        <time>2018-01-19T10:33:59Z</time>
      </trkpt>
      <trkpt lat="45.9504" lon="4.8693">
        <ele>276</ele>
        <time>2018-01-19T10:34:00Z</time>
      </trkpt>
      <trkpt lat="45.95042" lon="4.86937">
        <ele>276</ele>
        <time>2018-01-19T10:34:01Z</time>
      </trkpt>
      <trkpt lat="45.95044" lon="4.86944">
        <ele>276</ele>
        <time>2018-01-19T10:34:02Z</time>
      </trkpt>
      <trkpt lat="45.95046" lon="4.86951">
        <ele>276</ele>
        <time>2018-01-19T10:34:03Z</time>
      </trkpt>
      <trkpt lat="45.95048" lon="4.86957">
        <ele>276</ele>
        <time>2018-01-19T10:34:04Z</time>
      </trkpt>
      <trkpt lat="45.95049" lon="4.86963">
        <ele>276</ele>
        <time>2018-01-19T10:34:05Z</time>
      </trkpt>
      <trkpt lat="45.95053" lon="4.86975">
        <ele>276</ele>
        <time>2018-01-19T10:34:07Z</time>
      </trkpt>
      <trkpt lat="45.95055" lon="4.8698">
        <ele>276</ele>
        <time>2018-01-19T10:34:08Z</time>
      </trkpt>
      <trkpt lat="45.95058" lon="4.86985">
        <ele>276</ele>
        <time>2018-01-19T10:34:09Z</time>
      </trkpt>
      <trkpt lat="45.9506" lon="4.86991">
        <ele>276</ele>
        <time>2018-01-19T10:34:10Z</time>
      </trkpt>
      <trkpt lat="45.95065" lon="4.87001">
        <ele>277</ele>
        <time>2018-01-19T10:34:12Z</time>
      </trkpt>
      <trkpt lat="45.95068" lon="4.87007">
        <ele>277</ele>
        <time>2018-01-19T10:34:13Z</time>
      </trkpt>
      <trkpt lat="45.95072" lon="4.87013">
        <ele>277</ele>
        <time>2018-01-19T10:34:14Z</time>
      </trkpt>
      <trkpt lat="45.95075" lon="4.87017">
        <ele>277</ele>
        <time>2018-01-19T10:34:15Z</time>
      </trkpt>
      <trkpt lat="45.9508" lon="4.87027">
        <ele>277</ele>
        <time>2018-01-19T10:34:17Z</time>
      </trkpt>
      <trkpt lat="45.95083" lon="4.87032">
        <ele>277</ele>
        <time>2018-01-19T10:34:18Z</time>
      </trkpt>
      <trkpt lat="45.95085" lon="4.87037">
        <ele>277</ele>
        <time>2018-01-19T10:34:19Z</time>
      </trkpt>
      <trkpt lat="45.95088" lon="4.87043">
        <ele>277</ele>
        <time>2018-01-19T10:34:20Z</time>
      </trkpt>
      <trkpt lat="45.95091" lon="4.8705">
        <ele>277</ele>
        <time>2018-01-19T10:34:21Z</time>
      </trkpt>
      <trkpt lat="45.95093" lon="4.87055">
        <ele>277</ele>
        <time>2018-01-19T10:34:22Z</time>
      </trkpt>
      <trkpt lat="45.95097" lon="4.87066">
        <ele>277</ele>
        <time>2018-01-19T10:34:24Z</time>
      </trkpt>
      <trkpt lat="45.95099" lon="4.87071">
        <ele>277</ele>
        <time>2018-01-19T10:34:25Z</time>
      </trkpt>
      <trkpt lat="45.95101" lon="4.87076">
        <ele>277</ele>
        <time>2018-01-19T10:34:26Z</time>
      </trkpt>
      <trkpt lat="45.95103" lon="4.87083">
        <ele>277</ele>
        <time>2018-01-19T10:34:27Z</time>
      </trkpt>
      <trkpt lat="45.95106" lon="4.87094">
        <ele>277</ele>
        <time>2018-01-19T10:34:29Z</time>
      </trkpt>
      <trkpt lat="45.95107" lon="4.87098">
        <ele>277</ele>
        <time>2018-01-19T10:34:30Z</time>
      </trkpt>
      <trkpt lat="45.95111" lon="4.87108">
        <ele>277</ele>
        <time>2018-01-19T10:34:32Z</time>
      </trkpt>
      <trkpt lat="45.95112" lon="4.87113">
        <ele>277</ele>
        <time>2018-01-19T10:34:33Z</time>
      </trkpt>
      <trkpt lat="45.95114" lon="4.87123">
        <ele>277</ele>
        <time>2018-01-19T10:34:35Z</time>
      </trkpt>
      <trkpt lat="45.95115" lon="4.87129">
        <ele>277</ele>
        <time>2018-01-19T10:34:36Z</time>
      </trkpt>
      <trkpt lat="45.95117" lon="4.87139">
        <ele>277</ele>
        <time>2018-01-19T10:34:38Z</time>
      </trkpt>
      <trkpt lat="45.95118" lon="4.87145">
        <ele>277</ele>
        <time>2018-01-19T10:34:39Z</time>
      </trkpt>
      <trkpt lat="45.95119" lon="4.87151">
        <ele>277</ele>
        <time>2018-01-19T10:34:40Z</time>
      </trkpt>
      <trkpt lat="45.95121" lon="4.87158">
        <ele>277</ele>
        <time>2018-01-19T10:34:41Z</time>
      </trkpt>
      <trkpt lat="45.95123" lon="4.87164">
        <ele>276</ele>
        <time>2018-01-19T10:34:42Z</time>
      </trkpt>
      <trkpt lat="45.95125" lon="4.87171">
        <ele>276</ele>
        <time>2018-01-19T10:34:43Z</time>
      </trkpt>
      <trkpt lat="45.95126" lon="4.87178">
        <ele>276</ele>
        <time>2018-01-19T10:34:44Z</time>
      </trkpt>
      <trkpt lat="45.95127" lon="4.87185">
        <ele>276</ele>
        <time>2018-01-19T10:34:45Z</time>
      </trkpt>
      <trkpt lat="45.95128" lon="4.8719">
        <ele>276</ele>
        <time>2018-01-19T10:34:46Z</time>
      </trkpt>
      <trkpt lat="45.9513" lon="4.87199">
        <ele>276</ele>
        <time>2018-01-19T10:34:47Z</time>
      </trkpt>
      <trkpt lat="45.95132" lon="4.87207">
        <ele>276</ele>
        <time>2018-01-19T10:34:48Z</time>
      </trkpt>
      <trkpt lat="45.95134" lon="4.87216">
        <ele>276</ele>
        <time>2018-01-19T10:34:49Z</time>
      </trkpt>
      <trkpt lat="45.95137" lon="4.87225">
        <ele>276</ele>
        <time>2018-01-19T10:34:50Z</time>
      </trkpt>
      <trkpt lat="45.95138" lon="4.87235">
        <ele>276</ele>
        <time>2018-01-19T10:34:51Z</time>
      </trkpt>
      <trkpt lat="45.9514" lon="4.87244">
        <ele>275</ele>
        <time>2018-01-19T10:34:52Z</time>
      </trkpt>
      <trkpt lat="45.95142" lon="4.87253">
        <ele>274</ele>
        <time>2018-01-19T10:34:53Z</time>
      </trkpt>
      <trkpt lat="45.95145" lon="4.87264">
        <ele>274</ele>
        <time>2018-01-19T10:34:54Z</time>
      </trkpt>
      <trkpt lat="45.95147" lon="4.87274">
        <ele>274</ele>
        <time>2018-01-19T10:34:55Z</time>
      </trkpt>
      <trkpt lat="45.95149" lon="4.87284">
        <ele>274</ele>
        <time>2018-01-19T10:34:56Z</time>
      </trkpt>
      <trkpt lat="45.95151" lon="4.87295">
        <ele>274</ele>
        <time>2018-01-19T10:34:57Z</time>
      </trkpt>
      <trkpt lat="45.95154" lon="4.87306">
        <ele>274</ele>
        <time>2018-01-19T10:34:58Z</time>
      </trkpt>
      <trkpt lat="45.95156" lon="4.87315">
        <ele>273</ele>
        <time>2018-01-19T10:34:59Z</time>
      </trkpt>
      <trkpt lat="45.95158" lon="4.87326">
        <ele>272</ele>
        <time>2018-01-19T10:35:00Z</time>
      </trkpt>
      <trkpt lat="45.95161" lon="4.87336">
        <ele>272</ele>
        <time>2018-01-19T10:35:01Z</time>
      </trkpt>
      <trkpt lat="45.95164" lon="4.87346">
        <ele>272</ele>
        <time>2018-01-19T10:35:02Z</time>
      </trkpt>
      <trkpt lat="45.95166" lon="4.87356">
        <ele>272</ele>
        <time>2018-01-19T10:35:03Z</time>
      </trkpt>
      <trkpt lat="45.95168" lon="4.87365">
        <ele>271</ele>
        <time>2018-01-19T10:35:04Z</time>
      </trkpt>
      <trkpt lat="45.9517" lon="4.87374">
        <ele>271</ele>
        <time>2018-01-19T10:35:05Z</time>
      </trkpt>
      <trkpt lat="45.95172" lon="4.87383">
        <ele>271</ele>
        <time>2018-01-19T10:35:06Z</time>
      </trkpt>
      <trkpt lat="45.95174" lon="4.87392">
        <ele>271</ele>
        <time>2018-01-19T10:35:07Z</time>
      </trkpt>
      <trkpt lat="45.95176" lon="4.87399">
        <ele>271</ele>
        <time>2018-01-19T10:35:08Z</time>
      </trkpt>
      <trkpt lat="45.95177" lon="4.87407">
        <ele>271</ele>
        <time>2018-01-19T10:35:09Z</time>
      </trkpt>
      <trkpt lat="45.95179" lon="4.87416">
        <ele>271</ele>
        <time>2018-01-19T10:35:10Z</time>
      </trkpt>
      <trkpt lat="45.95181" lon="4.87424">
        <ele>271</ele>
        <time>2018-01-19T10:35:11Z</time>
      </trkpt>
      <trkpt lat="45.95183" lon="4.87431">
        <ele>271</ele>
        <time>2018-01-19T10:35:12Z</time>
      </trkpt>
      <trkpt lat="45.95185" lon="4.87439">
        <ele>272</ele>
        <time>2018-01-19T10:35:13Z</time>
      </trkpt>
      <trkpt lat="45.95187" lon="4.87447">
        <ele>272</ele>
        <time>2018-01-19T10:35:14Z</time>
      </trkpt>
      <trkpt lat="45.9519" lon="4.87453">
        <ele>272</ele>
        <time>2018-01-19T10:35:15Z</time>
      </trkpt>
      <trkpt lat="45.95192" lon="4.8746">
        <ele>272</ele>
        <time>2018-01-19T10:35:16Z</time>
      </trkpt>
      <trkpt lat="45.95193" lon="4.87467">
        <ele>272</ele>
        <time>2018-01-19T10:35:17Z</time>
      </trkpt>
      <trkpt lat="45.95194" lon="4.87475">
        <ele>272</ele>
        <time>2018-01-19T10:35:18Z</time>
      </trkpt>
      <trkpt lat="45.95195" lon="4.87481">
        <ele>272</ele>
        <time>2018-01-19T10:35:19Z</time>
      </trkpt>
      <trkpt lat="45.95196" lon="4.87488">
        <ele>272</ele>
        <time>2018-01-19T10:35:20Z</time>
      </trkpt>
      <trkpt lat="45.95198" lon="4.87494">
        <ele>272</ele>
        <time>2018-01-19T10:35:21Z</time>
      </trkpt>
      <trkpt lat="45.95199" lon="4.87501">
        <ele>273</ele>
        <time>2018-01-19T10:35:22Z</time>
      </trkpt>
      <trkpt lat="45.95201" lon="4.87507">
        <ele>273</ele>
        <time>2018-01-19T10:35:23Z</time>
      </trkpt>
      <trkpt lat="45.95202" lon="4.87514">
        <ele>273</ele>
        <time>2018-01-19T10:35:24Z</time>
      </trkpt>
      <trkpt lat="45.95203" lon="4.8752">
        <ele>273</ele>
        <time>2018-01-19T10:35:25Z</time>
      </trkpt>
      <trkpt lat="45.95205" lon="4.87528">
        <ele>274</ele>
        <time>2018-01-19T10:35:26Z</time>
      </trkpt>
      <trkpt lat="45.95207" lon="4.87537">
        <ele>274</ele>
        <time>2018-01-19T10:35:27Z</time>
      </trkpt>
      <trkpt lat="45.95208" lon="4.87545">
        <ele>274</ele>
        <time>2018-01-19T10:35:28Z</time>
      </trkpt>
      <trkpt lat="45.9521" lon="4.87552">
        <ele>274</ele>
        <time>2018-01-19T10:35:29Z</time>
      </trkpt>
      <trkpt lat="45.95211" lon="4.87559">
        <ele>274</ele>
        <time>2018-01-19T10:35:30Z</time>
      </trkpt>
      <trkpt lat="45.95212" lon="4.87565">
        <ele>274</ele>
        <time>2018-01-19T10:35:31Z</time>
      </trkpt>
      <trkpt lat="45.95212" lon="4.87572">
        <ele>274</ele>
        <time>2018-01-19T10:35:32Z</time>
      </trkpt>
      <trkpt lat="45.95213" lon="4.8758">
        <ele>274</ele>
        <time>2018-01-19T10:35:33Z</time>
      </trkpt>
      <trkpt lat="45.95213" lon="4.87592">
        <ele>276</ele>
        <time>2018-01-19T10:35:35Z</time>
      </trkpt>
      <trkpt lat="45.95213" lon="4.87599">
        <ele>276</ele>
        <time>2018-01-19T10:35:36Z</time>
      </trkpt>
      <trkpt lat="45.95215" lon="4.87611">
        <ele>276</ele>
        <time>2018-01-19T10:35:38Z</time>
      </trkpt>
      <trkpt lat="45.95215" lon="4.87616">
        <ele>276</ele>
        <time>2018-01-19T10:35:39Z</time>
      </trkpt>
      <trkpt lat="45.95217" lon="4.87629">
        <ele>276</ele>
        <time>2018-01-19T10:35:41Z</time>
      </trkpt>
      <trkpt lat="45.95218" lon="4.87634">
        <ele>276</ele>
        <time>2018-01-19T10:35:42Z</time>
      </trkpt>
      <trkpt lat="45.95219" lon="4.87645">
        <ele>276</ele>
        <time>2018-01-19T10:35:44Z</time>
      </trkpt>
      <trkpt lat="45.9522" lon="4.87651">
        <ele>276</ele>
        <time>2018-01-19T10:35:45Z</time>
      </trkpt>
      <trkpt lat="45.95222" lon="4.87661">
        <ele>276</ele>
        <time>2018-01-19T10:35:47Z</time>
      </trkpt>
      <trkpt lat="45.95223" lon="4.87666">
        <ele>276</ele>
        <time>2018-01-19T10:35:48Z</time>
      </trkpt>
      <trkpt lat="45.95224" lon="4.87677">
        <ele>278</ele>
        <time>2018-01-19T10:35:50Z</time>
      </trkpt>
      <trkpt lat="45.95225" lon="4.87683">
        <ele>278</ele>
        <time>2018-01-19T10:35:51Z</time>
      </trkpt>
      <trkpt lat="45.95227" lon="4.87693">
        <ele>279</ele>
        <time>2018-01-19T10:35:53Z</time>
      </trkpt>
      <trkpt lat="45.95228" lon="4.87698">
        <ele>279</ele>
        <time>2018-01-19T10:35:54Z</time>
      </trkpt>
      <trkpt lat="45.95231" lon="4.87707">
        <ele>279</ele>
        <time>2018-01-19T10:35:56Z</time>
      </trkpt>
      <trkpt lat="45.95231" lon="4.87711">
        <ele>279</ele>
        <time>2018-01-19T10:35:57Z</time>
      </trkpt>
      <trkpt lat="45.95233" lon="4.87724">
        <ele>280</ele>
        <time>2018-01-19T10:36:00Z</time>
      </trkpt>
      <trkpt lat="45.95234" lon="4.87729">
        <ele>280</ele>
        <time>2018-01-19T10:36:01Z</time>
      </trkpt>
      <trkpt lat="45.95236" lon="4.87741">
        <ele>280</ele>
        <time>2018-01-19T10:36:03Z</time>
      </trkpt>
      <trkpt lat="45.95237" lon="4.87745">
        <ele>280</ele>
        <time>2018-01-19T10:36:04Z</time>
      </trkpt>
      <trkpt lat="45.95239" lon="4.87756">
        <ele>281</ele>
        <time>2018-01-19T10:36:06Z</time>
      </trkpt>
      <trkpt lat="45.9524" lon="4.87762">
        <ele>281</ele>
        <time>2018-01-19T10:36:07Z</time>
      </trkpt>
      <trkpt lat="45.95242" lon="4.87769">
        <ele>281</ele>
        <time>2018-01-19T10:36:08Z</time>
      </trkpt>
      <trkpt lat="45.95244" lon="4.87775">
        <ele>282</ele>
        <time>2018-01-19T10:36:09Z</time>
      </trkpt>
      <trkpt lat="45.95246" lon="4.87787">
        <ele>282</ele>
        <time>2018-01-19T10:36:11Z</time>
      </trkpt>
      <trkpt lat="45.95247" lon="4.87792">
        <ele>282</ele>
        <time>2018-01-19T10:36:12Z</time>
      </trkpt>
      <trkpt lat="45.95248" lon="4.87802">
        <ele>282</ele>
        <time>2018-01-19T10:36:14Z</time>
      </trkpt>
      <trkpt lat="45.95249" lon="4.87808">
        <ele>282</ele>
        <time>2018-01-19T10:36:15Z</time>
      </trkpt>
      <trkpt lat="45.9525" lon="4.87818">
        <ele>281</ele>
        <time>2018-01-19T10:36:17Z</time>
      </trkpt>
      <trkpt lat="45.95251" lon="4.87823">
        <ele>281</ele>
        <time>2018-01-19T10:36:18Z</time>
      </trkpt>
      <trkpt lat="45.95252" lon="4.87834">
        <ele>282</ele>
        <time>2018-01-19T10:36:20Z</time>
      </trkpt>
      <trkpt lat="45.95253" lon="4.87839">
        <ele>281</ele>
        <time>2018-01-19T10:36:21Z</time>
      </trkpt>
      <trkpt lat="45.95255" lon="4.8785">
        <ele>281</ele>
        <time>2018-01-19T10:36:23Z</time>
      </trkpt>
      <trkpt lat="45.95255" lon="4.87854">
        <ele>281</ele>
        <time>2018-01-19T10:36:24Z</time>
      </trkpt>
      <trkpt lat="45.95256" lon="4.87865">
        <ele>281</ele>
        <time>2018-01-19T10:36:27Z</time>
      </trkpt>
      <trkpt lat="45.95258" lon="4.8787">
        <ele>281</ele>
        <time>2018-01-19T10:36:28Z</time>
      </trkpt>
      <trkpt lat="45.95258" lon="4.87877">
        <ele>281</ele>
        <time>2018-01-19T10:36:29Z</time>
      </trkpt>
      <trkpt lat="45.9526" lon="4.87883">
        <ele>281</ele>
        <time>2018-01-19T10:36:30Z</time>
      </trkpt>
      <trkpt lat="45.95263" lon="4.87895">
        <ele>281</ele>
        <time>2018-01-19T10:36:32Z</time>
      </trkpt>
      <trkpt lat="45.95264" lon="4.87901">
        <ele>281</ele>
        <time>2018-01-19T10:36:33Z</time>
      </trkpt>
      <trkpt lat="45.95265" lon="4.87912">
        <ele>281</ele>
        <time>2018-01-19T10:36:35Z</time>
      </trkpt>
      <trkpt lat="45.95265" lon="4.87918">
        <ele>281</ele>
        <time>2018-01-19T10:36:36Z</time>
      </trkpt>
      <trkpt lat="45.95264" lon="4.8793">
        <ele>281</ele>
        <time>2018-01-19T10:36:38Z</time>
      </trkpt>
      <trkpt lat="45.95264" lon="4.87936">
        <ele>280</ele>
        <time>2018-01-19T10:36:39Z</time>
      </trkpt>
      <trkpt lat="45.95261" lon="4.87947">
        <ele>280</ele>
        <time>2018-01-19T10:36:41Z</time>
      </trkpt>
      <trkpt lat="45.95259" lon="4.87952">
        <ele>280</ele>
        <time>2018-01-19T10:36:42Z</time>
      </trkpt>
      <trkpt lat="45.95255" lon="4.87962">
        <ele>280</ele>
        <time>2018-01-19T10:36:44Z</time>
      </trkpt>
      <trkpt lat="45.95252" lon="4.87966">
        <ele>280</ele>
        <time>2018-01-19T10:36:45Z</time>
      </trkpt>
      <trkpt lat="45.95245" lon="4.87974">
        <ele>282</ele>
        <time>2018-01-19T10:36:47Z</time>
      </trkpt>
      <trkpt lat="45.95242" lon="4.87979">
        <ele>282</ele>
        <time>2018-01-19T10:36:48Z</time>
      </trkpt>
      <trkpt lat="45.95236" lon="4.87986">
        <ele>281</ele>
        <time>2018-01-19T10:36:50Z</time>
      </trkpt>
      <trkpt lat="45.95232" lon="4.8799">
        <ele>281</ele>
        <time>2018-01-19T10:36:51Z</time>
      </trkpt>
      <trkpt lat="45.95226" lon="4.87998">
        <ele>281</ele>
        <time>2018-01-19T10:36:53Z</time>
      </trkpt>
      <trkpt lat="45.95223" lon="4.88002">
        <ele>281</ele>
        <time>2018-01-19T10:36:54Z</time>
      </trkpt>
      <trkpt lat="45.9522" lon="4.88006">
        <ele>281</ele>
        <time>2018-01-19T10:36:55Z</time>
      </trkpt>
      <trkpt lat="45.95217" lon="4.88011">
        <ele>281</ele>
        <time>2018-01-19T10:36:56Z</time>
      </trkpt>
      <trkpt lat="45.95214" lon="4.88017">
        <ele>281</ele>
        <time>2018-01-19T10:36:57Z</time>
      </trkpt>
      <trkpt lat="45.95211" lon="4.88023">
        <ele>281</ele>
        <time>2018-01-19T10:36:58Z</time>
      </trkpt>
      <trkpt lat="45.95207" lon="4.88028">
        <ele>281</ele>
        <time>2018-01-19T10:36:59Z</time>
      </trkpt>
      <trkpt lat="45.95204" lon="4.88034">
        <ele>281</ele>
        <time>2018-01-19T10:37:00Z</time>
      </trkpt>
      <trkpt lat="45.95201" lon="4.88041">
        <ele>281</ele>
        <time>2018-01-19T10:37:01Z</time>
      </trkpt>
      <trkpt lat="45.95198" lon="4.88048">
        <ele>281</ele>
        <time>2018-01-19T10:37:02Z</time>
      </trkpt>
      <trkpt lat="45.95195" lon="4.88056">
        <ele>281</ele>
        <time>2018-01-19T10:37:03Z</time>
      </trkpt>
      <trkpt lat="45.95193" lon="4.88063">
        <ele>281</ele>
        <time>2018-01-19T10:37:04Z</time>
      </trkpt>
      <trkpt lat="45.95191" lon="4.88071">
        <ele>281</ele>
        <time>2018-01-19T10:37:05Z</time>
      </trkpt>
      <trkpt lat="45.9519" lon="4.88077">
        <ele>281</ele>
        <time>2018-01-19T10:37:06Z</time>
      </trkpt>
      <trkpt lat="45.95188" lon="4.88084">
        <ele>282</ele>
        <time>2018-01-19T10:37:07Z</time>
      </trkpt>
      <trkpt lat="45.95186" lon="4.8809">
        <ele>282</ele>
        <time>2018-01-19T10:37:08Z</time>
      </trkpt>
      <trkpt lat="45.95185" lon="4.88097">
        <ele>282</ele>
        <time>2018-01-19T10:37:09Z</time>
      </trkpt>
      <trkpt lat="45.95184" lon="4.88103">
        <ele>282</ele>
        <time>2018-01-19T10:37:10Z</time>
      </trkpt>
      <trkpt lat="45.95181" lon="4.88114">
        <ele>282</ele>
        <time>2018-01-19T10:37:12Z</time>
      </trkpt>
      <trkpt lat="45.9518" lon="4.88119">
        <ele>282</ele>
        <time>2018-01-19T10:37:13Z</time>
      </trkpt>
      <trkpt lat="45.95178" lon="4.88131">
        <ele>282</ele>
        <time>2018-01-19T10:37:15Z</time>
      </trkpt>
      <trkpt lat="45.95176" lon="4.88137">
        <ele>283</ele>
        <time>2018-01-19T10:37:16Z</time>
      </trkpt>
      <trkpt lat="45.95173" lon="4.88147">
        <ele>283</ele>
        <time>2018-01-19T10:37:18Z</time>
      </trkpt>
      <trkpt lat="45.95172" lon="4.88153">
        <ele>284</ele>
        <time>2018-01-19T10:37:19Z</time>
      </trkpt>
      <trkpt lat="45.9517" lon="4.88161">
        <ele>284</ele>
        <time>2018-01-19T10:37:21Z</time>
      </trkpt>
      <trkpt lat="45.9517" lon="4.88166">
        <ele>285</ele>
        <time>2018-01-19T10:37:22Z</time>
      </trkpt>
      <trkpt lat="45.95175" lon="4.88174">
        <ele>285</ele>
        <time>2018-01-19T10:37:24Z</time>
      </trkpt>
      <trkpt lat="45.95178" lon="4.88177">
        <ele>285</ele>
        <time>2018-01-19T10:37:25Z</time>
      </trkpt>
      <trkpt lat="45.95186" lon="4.88176">
        <ele>285</ele>
        <time>2018-01-19T10:37:27Z</time>
      </trkpt>
      <trkpt lat="45.95189" lon="4.88176">
        <ele>285</ele>
        <time>2018-01-19T10:37:28Z</time>
      </trkpt>
      <trkpt lat="45.95198" lon="4.88176">
        <ele>285</ele>
        <time>2018-01-19T10:37:30Z</time>
      </trkpt>
      <trkpt lat="45.95203" lon="4.88176">
        <ele>285</ele>
        <time>2018-01-19T10:37:31Z</time>
      </trkpt>
      <trkpt lat="45.95208" lon="4.88175">
        <ele>285</ele>
        <time>2018-01-19T10:37:32Z</time>
      </trkpt>
      <trkpt lat="45.95214" lon="4.88174">
        <ele>284</ele>
        <time>2018-01-19T10:37:33Z</time>
      </trkpt>
      <trkpt lat="45.95219" lon="4.88173">
        <ele>284</ele>
        <time>2018-01-19T10:37:34Z</time>
      </trkpt>
      <trkpt lat="45.95225" lon="4.88173">
        <ele>284</ele>
        <time>2018-01-19T10:37:35Z</time>
      </trkpt>
      <trkpt lat="45.95234" lon="4.88169">
        <ele>283</ele>
        <time>2018-01-19T10:37:36Z</time>
      </trkpt>
      <trkpt lat="45.95239" lon="4.88169">
        <ele>282</ele>
        <time>2018-01-19T10:37:37Z</time>
      </trkpt>
      <trkpt lat="45.95245" lon="4.8817">
        <ele>282</ele>
        <time>2018-01-19T10:37:38Z</time>
      </trkpt>
      <trkpt lat="45.95252" lon="4.8817">
        <ele>281</ele>
        <time>2018-01-19T10:37:39Z</time>
      </trkpt>
      <trkpt lat="45.95259" lon="4.8817">
        <ele>281</ele>
        <time>2018-01-19T10:37:40Z</time>
      </trkpt>
      <trkpt lat="45.95266" lon="4.88171">
        <ele>281</ele>
        <time>2018-01-19T10:37:41Z</time>
      </trkpt>
      <trkpt lat="45.95273" lon="4.88172">
        <ele>281</ele>
        <time>2018-01-19T10:37:42Z</time>
      </trkpt>
      <trkpt lat="45.95279" lon="4.88172">
        <ele>281</ele>
        <time>2018-01-19T10:37:43Z</time>
      </trkpt>
      <trkpt lat="45.95286" lon="4.88172">
        <ele>281</ele>
        <time>2018-01-19T10:37:44Z</time>
      </trkpt>
      <trkpt lat="45.95294" lon="4.88173">
        <ele>281</ele>
        <time>2018-01-19T10:37:45Z</time>
      </trkpt>
      <trkpt lat="45.95301" lon="4.88176">
        <ele>281</ele>
        <time>2018-01-19T10:37:46Z</time>
      </trkpt>
      <trkpt lat="45.95309" lon="4.88176">
        <ele>280</ele>
        <time>2018-01-19T10:37:47Z</time>
      </trkpt>
      <trkpt lat="45.95316" lon="4.88177">
        <ele>280</ele>
        <time>2018-01-19T10:37:48Z</time>
      </trkpt>
      <trkpt lat="45.95323" lon="4.88179">
        <ele>280</ele>
        <time>2018-01-19T10:37:49Z</time>
      </trkpt>
      <trkpt lat="45.9533" lon="4.88179">
        <ele>279</ele>
        <time>2018-01-19T10:37:50Z</time>
      </trkpt>
      <trkpt lat="45.95338" lon="4.88178">
        <ele>278</ele>
        <time>2018-01-19T10:37:51Z</time>
      </trkpt>
      <trkpt lat="45.95345" lon="4.88178">
        <ele>278</ele>
        <time>2018-01-19T10:37:52Z</time>
      </trkpt>
      <trkpt lat="45.95353" lon="4.88177">
        <ele>278</ele>
        <time>2018-01-19T10:37:53Z</time>
      </trkpt>
      <trkpt lat="45.95361" lon="4.88176">
        <ele>278</ele>
        <time>2018-01-19T10:37:54Z</time>
      </trkpt>
      <trkpt lat="45.95369" lon="4.88175">
        <ele>278</ele>
        <time>2018-01-19T10:37:55Z</time>
      </trkpt>
      <trkpt lat="45.95376" lon="4.88173">
        <ele>278</ele>
        <time>2018-01-19T10:37:56Z</time>
      </trkpt>
      <trkpt lat="45.95383" lon="4.8817">
        <ele>278</ele>
        <time>2018-01-19T10:37:57Z</time>
      </trkpt>
      <trkpt lat="45.9539" lon="4.88168">
        <ele>278</ele>
        <time>2018-01-19T10:37:58Z</time>
      </trkpt>
      <trkpt lat="45.95396" lon="4.88165">
        <ele>276</ele>
        <time>2018-01-19T10:37:59Z</time>
      </trkpt>
      <trkpt lat="45.95403" lon="4.88163">
        <ele>276</ele>
        <time>2018-01-19T10:38:00Z</time>
      </trkpt>
      <trkpt lat="45.95408" lon="4.88161">
        <ele>276</ele>
        <time>2018-01-19T10:38:01Z</time>
      </trkpt>
      <trkpt lat="45.95413" lon="4.88159">
        <ele>276</ele>
        <time>2018-01-19T10:38:02Z</time>
      </trkpt>
      <trkpt lat="45.95419" lon="4.88155">
        <ele>276</ele>
        <time>2018-01-19T10:38:03Z</time>
      </trkpt>
      <trkpt lat="45.95424" lon="4.88154">
        <ele>276</ele>
        <time>2018-01-19T10:38:04Z</time>
      </trkpt>
      <trkpt lat="45.95428" lon="4.88151">
        <ele>276</ele>
        <time>2018-01-19T10:38:05Z</time>
      </trkpt>
      <trkpt lat="45.95433" lon="4.88148">
        <ele>276</ele>
        <time>2018-01-19T10:38:06Z</time>
      </trkpt>
      <trkpt lat="45.95437" lon="4.88147">
        <ele>276</ele>
        <time>2018-01-19T10:38:07Z</time>
      </trkpt>
      <trkpt lat="45.95442" lon="4.88145">
        <ele>276</ele>
        <time>2018-01-19T10:38:08Z</time>
      </trkpt>
      <trkpt lat="45.95446" lon="4.88143">
        <ele>276</ele>
        <time>2018-01-19T10:38:09Z</time>
      </trkpt>
      <trkpt lat="45.95451" lon="4.8814">
        <ele>276</ele>
        <time>2018-01-19T10:38:10Z</time>
      </trkpt>
      <trkpt lat="45.95455" lon="4.88139">
        <ele>276</ele>
        <time>2018-01-19T10:38:11Z</time>
      </trkpt>
      <trkpt lat="45.9546" lon="4.88137">
        <ele>276</ele>
        <time>2018-01-19T10:38:12Z</time>
      </trkpt>
      <trkpt lat="45.95464" lon="4.88136">
        <ele>276</ele>
        <time>2018-01-19T10:38:13Z</time>
      </trkpt>
      <trkpt lat="45.95469" lon="4.88134">
        <ele>276</ele>
        <time>2018-01-19T10:38:14Z</time>
      </trkpt>
      <trkpt lat="45.95474" lon="4.88132">
        <ele>276</ele>
        <time>2018-01-19T10:38:15Z</time>
      </trkpt>
      <trkpt lat="45.95477" lon="4.88129">
        <ele>276</ele>
        <time>2018-01-19T10:38:16Z</time>
      </trkpt>
      <trkpt lat="45.95483" lon="4.88127">
        <ele>276</ele>
        <time>2018-01-19T10:38:17Z</time>
      </trkpt>
      <trkpt lat="45.95488" lon="4.88125">
        <ele>276</ele>
        <time>2018-01-19T10:38:18Z</time>
      </trkpt>
      <trkpt lat="45.95492" lon="4.88123">
        <ele>276</ele>
        <time>2018-01-19T10:38:19Z</time>
      </trkpt>
      <trkpt lat="45.95497" lon="4.8812">
        <ele>276</ele>
        <time>2018-01-19T10:38:20Z</time>
      </trkpt>
      <trkpt lat="45.95502" lon="4.88118">
        <ele>276</ele>
        <time>2018-01-19T10:38:21Z</time>
      </trkpt>
      <trkpt lat="45.95507" lon="4.88116">
        <ele>276</ele>
        <time>2018-01-19T10:38:22Z</time>
      </trkpt>
      <trkpt lat="45.95512" lon="4.88114">
        <ele>276</ele>
        <time>2018-01-19T10:38:23Z</time>
      </trkpt>
      <trkpt lat="45.95517" lon="4.88111">
        <ele>277</ele>
        <time>2018-01-19T10:38:24Z</time>
      </trkpt>
      <trkpt lat="45.95522" lon="4.88107">
        <ele>277</ele>
        <time>2018-01-19T10:38:25Z</time>
      </trkpt>
      <trkpt lat="45.95526" lon="4.88107">
        <ele>277</ele>
        <time>2018-01-19T10:38:26Z</time>
      </trkpt>
      <trkpt lat="45.95531" lon="4.88104">
        <ele>277</ele>
        <time>2018-01-19T10:38:27Z</time>
      </trkpt>
      <trkpt lat="45.95536" lon="4.88103">
        <ele>277</ele>
        <time>2018-01-19T10:38:28Z</time>
      </trkpt>
      <trkpt lat="45.95541" lon="4.88099">
        <ele>277</ele>
        <time>2018-01-19T10:38:29Z</time>
      </trkpt>
      <trkpt lat="45.95546" lon="4.88098">
        <ele>277</ele>
        <time>2018-01-19T10:38:30Z</time>
      </trkpt>
      <trkpt lat="45.95551" lon="4.88095">
        <ele>277</ele>
        <time>2018-01-19T10:38:31Z</time>
      </trkpt>
      <trkpt lat="45.95556" lon="4.88093">
        <ele>277</ele>
        <time>2018-01-19T10:38:32Z</time>
      </trkpt>
      <trkpt lat="45.95561" lon="4.8809">
        <ele>277</ele>
        <time>2018-01-19T10:38:33Z</time>
      </trkpt>
      <trkpt lat="45.95567" lon="4.88087">
        <ele>277</ele>
        <time>2018-01-19T10:38:34Z</time>
      </trkpt>
      <trkpt lat="45.95572" lon="4.88084">
        <ele>277</ele>
        <time>2018-01-19T10:38:35Z</time>
      </trkpt>
      <trkpt lat="45.95576" lon="4.88081">
        <ele>277</ele>
        <time>2018-01-19T10:38:36Z</time>
      </trkpt>
      <trkpt lat="45.95581" lon="4.88078">
        <ele>277</ele>
        <time>2018-01-19T10:38:37Z</time>
      </trkpt>
      <trkpt lat="45.95585" lon="4.88075">
        <ele>277</ele>
        <time>2018-01-19T10:38:38Z</time>
      </trkpt>
      <trkpt lat="45.95589" lon="4.88072">
        <ele>278</ele>
        <time>2018-01-19T10:38:39Z</time>
      </trkpt>
      <trkpt lat="45.95593" lon="4.88068">
        <ele>278</ele>
        <time>2018-01-19T10:38:40Z</time>
      </trkpt>
      <trkpt lat="45.95598" lon="4.88066">
        <ele>278</ele>
        <time>2018-01-19T10:38:41Z</time>
      </trkpt>
      <trkpt lat="45.95602" lon="4.88062">
        <ele>278</ele>
        <time>2018-01-19T10:38:42Z</time>
      </trkpt>
      <trkpt lat="45.95606" lon="4.8806">
        <ele>278</ele>
        <time>2018-01-19T10:38:43Z</time>
      </trkpt>
      <trkpt lat="45.9561" lon="4.88058">
        <ele>278</ele>
        <time>2018-01-19T10:38:44Z</time>
      </trkpt>
      <trkpt lat="45.95614" lon="4.88053">
        <ele>278</ele>
        <time>2018-01-19T10:38:45Z</time>
      </trkpt>
      <trkpt lat="45.95619" lon="4.88046">
        <ele>278</ele>
        <time>2018-01-19T10:38:46Z</time>
      </trkpt>
      <trkpt lat="45.95623" lon="4.88043">
        <ele>278</ele>
        <time>2018-01-19T10:38:47Z</time>
      </trkpt>
      <trkpt lat="45.95627" lon="4.88039">
        <ele>279</ele>
        <time>2018-01-19T10:38:48Z</time>
      </trkpt>
      <trkpt lat="45.95631" lon="4.88035">
        <ele>279</ele>
        <time>2018-01-19T10:38:49Z</time>
      </trkpt>
      <trkpt lat="45.95639" lon="4.88027">
        <ele>279</ele>
        <time>2018-01-19T10:38:51Z</time>
      </trkpt>
      <trkpt lat="45.95643" lon="4.88024">
        <ele>279</ele>
        <time>2018-01-19T10:38:52Z</time>
      </trkpt>
      <trkpt lat="45.95648" lon="4.88018">
        <ele>279</ele>
        <time>2018-01-19T10:38:53Z</time>
      </trkpt>
      <trkpt lat="45.95651" lon="4.88016">
        <ele>279</ele>
        <time>2018-01-19T10:38:54Z</time>
      </trkpt>
      <trkpt lat="45.95655" lon="4.88013">
        <ele>280</ele>
        <time>2018-01-19T10:38:55Z</time>
      </trkpt>
      <trkpt lat="45.95659" lon="4.88009">
        <ele>280</ele>
        <time>2018-01-19T10:38:56Z</time>
      </trkpt>
      <trkpt lat="45.95664" lon="4.88005">
        <ele>280</ele>
        <time>2018-01-19T10:38:57Z</time>
      </trkpt>
      <trkpt lat="45.95667" lon="4.88001">
        <ele>281</ele>
        <time>2018-01-19T10:38:58Z</time>
      </trkpt>
      <trkpt lat="45.95674" lon="4.87996">
        <ele>281</ele>
        <time>2018-01-19T10:39:00Z</time>
      </trkpt>
      <trkpt lat="45.95677" lon="4.87993">
        <ele>282</ele>
        <time>2018-01-19T10:39:01Z</time>
      </trkpt>
      <trkpt lat="45.95683" lon="4.87988">
        <ele>282</ele>
        <time>2018-01-19T10:39:03Z</time>
      </trkpt>
      <trkpt lat="45.95687" lon="4.87984">
        <ele>282</ele>
        <time>2018-01-19T10:39:04Z</time>
      </trkpt>
      <trkpt lat="45.95694" lon="4.87978">
        <ele>282</ele>
        <time>2018-01-19T10:39:06Z</time>
      </trkpt>
      <trkpt lat="45.95696" lon="4.87976">
        <ele>282</ele>
        <time>2018-01-19T10:39:07Z</time>
      </trkpt>
      <trkpt lat="45.95704" lon="4.87973">
        <ele>283</ele>
        <time>2018-01-19T10:39:10Z</time>
      </trkpt>
      <trkpt lat="45.95706" lon="4.87973">
        <ele>283</ele>
        <time>2018-01-19T10:39:11Z</time>
      </trkpt>
      <trkpt lat="45.95709" lon="4.8797">
        <ele>283</ele>
        <time>2018-01-19T10:39:12Z</time>
      </trkpt>
      <trkpt lat="45.95712" lon="4.87962">
        <ele>283</ele>
        <time>2018-01-19T10:39:13Z</time>
      </trkpt>
      <trkpt lat="45.95718" lon="4.87959">
        <ele>283</ele>
        <time>2018-01-19T10:39:16Z</time>
      </trkpt>
      <trkpt lat="45.9572" lon="4.87957">
        <ele>283</ele>
        <time>2018-01-19T10:39:17Z</time>
      </trkpt>
      <trkpt lat="45.95728" lon="4.8795">
        <ele>283</ele>
        <time>2018-01-19T10:39:20Z</time>
      </trkpt>
      <trkpt lat="45.95729" lon="4.87949">
        <ele>283</ele>
        <time>2018-01-19T10:39:21Z</time>
      </trkpt>
      <trkpt lat="45.95734" lon="4.87945">
        <ele>283</ele>
        <time>2018-01-19T10:39:23Z</time>
      </trkpt>
      <trkpt lat="45.95736" lon="4.87941">
        <ele>284</ele>
        <time>2018-01-19T10:39:24Z</time>
      </trkpt>
      <trkpt lat="45.95741" lon="4.87934">
        <ele>284</ele>
        <time>2018-01-19T10:39:26Z</time>
      </trkpt>
      <trkpt lat="45.95744" lon="4.87932">
        <ele>284</ele>
        <time>2018-01-19T10:39:27Z</time>
      </trkpt>
      <trkpt lat="45.95751" lon="4.87926">
        <ele>286</ele>
        <time>2018-01-19T10:39:30Z</time>
      </trkpt>
      <trkpt lat="45.95753" lon="4.87924">
        <ele>286</ele>
        <time>2018-01-19T10:39:31Z</time>
      </trkpt>
      <trkpt lat="45.95761" lon="4.87918">
        <ele>286</ele>
        <time>2018-01-19T10:39:34Z</time>
      </trkpt>
      <trkpt lat="45.95764" lon="4.87916">
        <ele>286</ele>
        <time>2018-01-19T10:39:35Z</time>
      </trkpt>
      <trkpt lat="45.9577" lon="4.87912">
        <ele>286</ele>
        <time>2018-01-19T10:39:38Z</time>
      </trkpt>
      <trkpt lat="45.95773" lon="4.87911">
        <ele>286</ele>
        <time>2018-01-19T10:39:39Z</time>
      </trkpt>
      <trkpt lat="45.95781" lon="4.87905">
        <ele>286</ele>
        <time>2018-01-19T10:39:42Z</time>
      </trkpt>
      <trkpt lat="45.95783" lon="4.87903">
        <ele>286</ele>
        <time>2018-01-19T10:39:43Z</time>
      </trkpt>
      <trkpt lat="45.95791" lon="4.87898">
        <ele>286</ele>
        <time>2018-01-19T10:39:46Z</time>
      </trkpt>
      <trkpt lat="45.95793" lon="4.87896">
        <ele>286</ele>
        <time>2018-01-19T10:39:47Z</time>
      </trkpt>
      <trkpt lat="45.95802" lon="4.87891">
        <ele>287</ele>
        <time>2018-01-19T10:39:51Z</time>
      </trkpt>
      <trkpt lat="45.95804" lon="4.87889">
        <ele>287</ele>
        <time>2018-01-19T10:39:52Z</time>
      </trkpt>
      <trkpt lat="45.95811" lon="4.87886">
        <ele>287</ele>
        <time>2018-01-19T10:39:55Z</time>
      </trkpt>
      <trkpt lat="45.95814" lon="4.87885">
        <ele>287</ele>
        <time>2018-01-19T10:39:56Z</time>
      </trkpt>
      <trkpt lat="45.95821" lon="4.87883">
        <ele>287</ele>
        <time>2018-01-19T10:39:58Z</time>
      </trkpt>
      <trkpt lat="45.95823" lon="4.87882">
        <ele>287</ele>
        <time>2018-01-19T10:39:59Z</time>
      </trkpt>
      <trkpt lat="45.95831" lon="4.87883">
        <ele>287</ele>
        <time>2018-01-19T10:40:03Z</time>
      </trkpt>
      <trkpt lat="45.95833" lon="4.87885">
        <ele>287</ele>
        <time>2018-01-19T10:40:04Z</time>
      </trkpt>
      <trkpt lat="45.9584" lon="4.87879">
        <ele>289</ele>
        <time>2018-01-19T10:40:07Z</time>
      </trkpt>
      <trkpt lat="45.95842" lon="4.87875">
        <ele>289</ele>
        <time>2018-01-19T10:40:08Z</time>
      </trkpt>
      <trkpt lat="45.95847" lon="4.87866">
        <ele>289</ele>
        <time>2018-01-19T10:40:10Z</time>
      </trkpt>
      <trkpt lat="45.9585" lon="4.87862">
        <ele>289</ele>
        <time>2018-01-19T10:40:11Z</time>
      </trkpt>
      <trkpt lat="45.95856" lon="4.87857">
        <ele>289</ele>
        <time>2018-01-19T10:40:13Z</time>
      </trkpt>
      <trkpt lat="45.95858" lon="4.87854">
        <ele>289</ele>
        <time>2018-01-19T10:40:14Z</time>
      </trkpt>
      <trkpt lat="45.95865" lon="4.87848">
        <ele>289</ele>
        <time>2018-01-19T10:40:16Z</time>
      </trkpt>
      <trkpt lat="45.95868" lon="4.87845">
        <ele>289</ele>
        <time>2018-01-19T10:40:17Z</time>
      </trkpt>
      <trkpt lat="45.95875" lon="4.87839">
        <ele>289</ele>
        <time>2018-01-19T10:40:19Z</time>
      </trkpt>
      <trkpt lat="45.95878" lon="4.87837">
        <ele>289</ele>
        <time>2018-01-19T10:40:20Z</time>
      </trkpt>
      <trkpt lat="45.95881" lon="4.87832">
        <ele>288</ele>
        <time>2018-01-19T10:40:21Z</time>
      </trkpt>
      <trkpt lat="45.95885" lon="4.87828">
        <ele>288</ele>
        <time>2018-01-19T10:40:22Z</time>
      </trkpt>
      <trkpt lat="45.95892" lon="4.87821">
        <ele>288</ele>
        <time>2018-01-19T10:40:24Z</time>
      </trkpt>
      <trkpt lat="45.95895" lon="4.87817">
        <ele>288</ele>
        <time>2018-01-19T10:40:25Z</time>
      </trkpt>
      <trkpt lat="45.959" lon="4.87808">
        <ele>288</ele>
        <time>2018-01-19T10:40:27Z</time>
      </trkpt>
      <trkpt lat="45.95903" lon="4.87803">
        <ele>288</ele>
        <time>2018-01-19T10:40:28Z</time>
      </trkpt>
      <trkpt lat="45.95908" lon="4.87794">
        <ele>288</ele>
        <time>2018-01-19T10:40:30Z</time>
      </trkpt>
      <trkpt lat="45.9591" lon="4.87789">
        <ele>288</ele>
        <time>2018-01-19T10:40:31Z</time>
      </trkpt>
      <trkpt lat="45.95916" lon="4.8778">
        <ele>288</ele>
        <time>2018-01-19T10:40:33Z</time>
      </trkpt>
      <trkpt lat="45.95919" lon="4.87775">
        <ele>289</ele>
        <time>2018-01-19T10:40:34Z</time>
      </trkpt>
      <trkpt lat="45.95925" lon="4.87767">
        <ele>289</ele>
        <time>2018-01-19T10:40:36Z</time>
      </trkpt>
      <trkpt lat="45.95928" lon="4.87762">
        <ele>288</ele>
        <time>2018-01-19T10:40:37Z</time>
      </trkpt>
      <trkpt lat="45.95934" lon="4.87753">
        <ele>288</ele>
        <time>2018-01-19T10:40:39Z</time>
      </trkpt>
      <trkpt lat="45.95937" lon="4.87748">
        <ele>288</ele>
        <time>2018-01-19T10:40:40Z</time>
      </trkpt>
      <trkpt lat="45.9594" lon="4.87743">
        <ele>288</ele>
        <time>2018-01-19T10:40:41Z</time>
      </trkpt>
      <trkpt lat="45.95943" lon="4.87739">
        <ele>289</ele>
        <time>2018-01-19T10:40:42Z</time>
      </trkpt>
      <trkpt lat="45.95949" lon="4.87731">
        <ele>289</ele>
        <time>2018-01-19T10:40:44Z</time>
      </trkpt>
      <trkpt lat="45.95952" lon="4.87726">
        <ele>289</ele>
        <time>2018-01-19T10:40:45Z</time>
      </trkpt>
      <trkpt lat="45.95955" lon="4.87722">
        <ele>289</ele>
        <time>2018-01-19T10:40:46Z</time>
      </trkpt>
      <trkpt lat="45.95959" lon="4.87717">
        <ele>289</ele>
        <time>2018-01-19T10:40:47Z</time>
      </trkpt>
      <trkpt lat="45.95963" lon="4.87713">
        <ele>289</ele>
        <time>2018-01-19T10:40:48Z</time>
      </trkpt>
      <trkpt lat="45.95967" lon="4.87708">
        <ele>289</ele>
        <time>2018-01-19T10:40:49Z</time>
      </trkpt>
      <trkpt lat="45.95972" lon="4.87701">
        <ele>289</ele>
        <time>2018-01-19T10:40:51Z</time>
      </trkpt>
      <trkpt lat="45.95974" lon="4.87697">
        <ele>289</ele>
        <time>2018-01-19T10:40:52Z</time>
      </trkpt>
      <trkpt lat="45.95981" lon="4.87689">
        <ele>289</ele>
        <time>2018-01-19T10:40:54Z</time>
      </trkpt>
      <trkpt lat="45.95985" lon="4.87684">
        <ele>289</ele>
        <time>2018-01-19T10:40:55Z</time>
      </trkpt>
      <trkpt lat="45.95989" lon="4.87679">
        <ele>289</ele>
        <time>2018-01-19T10:40:56Z</time>
      </trkpt>
      <trkpt lat="45.95993" lon="4.87675">
        <ele>290</ele>
        <time>2018-01-19T10:40:57Z</time>
      </trkpt>
      <trkpt lat="45.95997" lon="4.87671">
        <ele>290</ele>
        <time>2018-01-19T10:40:58Z</time>
      </trkpt>
      <trkpt lat="45.96001" lon="4.87668">
        <ele>290</ele>
        <time>2018-01-19T10:40:59Z</time>
      </trkpt>
      <trkpt lat="45.96008" lon="4.8766">
        <ele>290</ele>
        <time>2018-01-19T10:41:01Z</time>
      </trkpt>
      <trkpt lat="45.96012" lon="4.87655">
        <ele>289</ele>
        <time>2018-01-19T10:41:02Z</time>
      </trkpt>
      <trkpt lat="45.96016" lon="4.87651">
        <ele>289</ele>
        <time>2018-01-19T10:41:03Z</time>
      </trkpt>
      <trkpt lat="45.9602" lon="4.87646">
        <ele>289</ele>
        <time>2018-01-19T10:41:04Z</time>
      </trkpt>
      <trkpt lat="45.96023" lon="4.87642">
        <ele>289</ele>
        <time>2018-01-19T10:41:05Z</time>
      </trkpt>
      <trkpt lat="45.96027" lon="4.87637">
        <ele>289</ele>
        <time>2018-01-19T10:41:06Z</time>
      </trkpt>
      <trkpt lat="45.96034" lon="4.87631">
        <ele>289</ele>
        <time>2018-01-19T10:41:08Z</time>
      </trkpt>
      <trkpt lat="45.96039" lon="4.87625">
        <ele>289</ele>
        <time>2018-01-19T10:41:09Z</time>
      </trkpt>
      <trkpt lat="45.96043" lon="4.87621">
        <ele>289</ele>
        <time>2018-01-19T10:41:10Z</time>
      </trkpt>
      <trkpt lat="45.96047" lon="4.87616">
        <ele>289</ele>
        <time>2018-01-19T10:41:11Z</time>
      </trkpt>
      <trkpt lat="45.96051" lon="4.87612">
        <ele>289</ele>
        <time>2018-01-19T10:41:12Z</time>
      </trkpt>
      <trkpt lat="45.96055" lon="4.87608">
        <ele>289</ele>
        <time>2018-01-19T10:41:13Z</time>
      </trkpt>
      <trkpt lat="45.96059" lon="4.87602">
        <ele>288</ele>
        <time>2018-01-19T10:41:14Z</time>
      </trkpt>
      <trkpt lat="45.96063" lon="4.87597">
        <ele>288</ele>
        <time>2018-01-19T10:41:15Z</time>
      </trkpt>
      <trkpt lat="45.9607" lon="4.87589">
        <ele>288</ele>
        <time>2018-01-19T10:41:17Z</time>
      </trkpt>
      <trkpt lat="45.96073" lon="4.87585">
        <ele>288</ele>
        <time>2018-01-19T10:41:18Z</time>
      </trkpt>
      <trkpt lat="45.9608" lon="4.87577">
        <ele>288</ele>
        <time>2018-01-19T10:41:20Z</time>
      </trkpt>
      <trkpt lat="45.96084" lon="4.87573">
        <ele>287</ele>
        <time>2018-01-19T10:41:21Z</time>
      </trkpt>
      <trkpt lat="45.96088" lon="4.87567">
        <ele>287</ele>
        <time>2018-01-19T10:41:22Z</time>
      </trkpt>
      <trkpt lat="45.96092" lon="4.87563">
        <ele>287</ele>
        <time>2018-01-19T10:41:23Z</time>
      </trkpt>
      <trkpt lat="45.96096" lon="4.87559">
        <ele>287</ele>
        <time>2018-01-19T10:41:24Z</time>
      </trkpt>
      <trkpt lat="45.961" lon="4.87555">
        <ele>287</ele>
        <time>2018-01-19T10:41:25Z</time>
      </trkpt>
      <trkpt lat="45.96104" lon="4.87551">
        <ele>287</ele>
        <time>2018-01-19T10:41:26Z</time>
      </trkpt>
      <trkpt lat="45.96108" lon="4.87546">
        <ele>287</ele>
        <time>2018-01-19T10:41:27Z</time>
      </trkpt>
      <trkpt lat="45.96112" lon="4.87542">
        <ele>287</ele>
        <time>2018-01-19T10:41:28Z</time>
      </trkpt>
      <trkpt lat="45.96115" lon="4.87537">
        <ele>287</ele>
        <time>2018-01-19T10:41:29Z</time>
      </trkpt>
      <trkpt lat="45.9612" lon="4.87533">
        <ele>287</ele>
        <time>2018-01-19T10:41:30Z</time>
      </trkpt>
      <trkpt lat="45.96125" lon="4.87528">
        <ele>286</ele>
        <time>2018-01-19T10:41:31Z</time>
      </trkpt>
      <trkpt lat="45.9613" lon="4.87522">
        <ele>286</ele>
        <time>2018-01-19T10:41:32Z</time>
      </trkpt>
      <trkpt lat="45.96135" lon="4.87517">
        <ele>286</ele>
        <time>2018-01-19T10:41:33Z</time>
      </trkpt>
      <trkpt lat="45.9614" lon="4.87511">
        <ele>286</ele>
        <time>2018-01-19T10:41:34Z</time>
      </trkpt>
      <trkpt lat="45.96145" lon="4.87505">
        <ele>286</ele>
        <time>2018-01-19T10:41:35Z</time>
      </trkpt>
      <trkpt lat="45.9615" lon="4.875">
        <ele>286</ele>
        <time>2018-01-19T10:41:36Z</time>
      </trkpt>
      <trkpt lat="45.96156" lon="4.87495">
        <ele>285</ele>
        <time>2018-01-19T10:41:37Z</time>
      </trkpt>
      <trkpt lat="45.96159" lon="4.87489">
        <ele>285</ele>
        <time>2018-01-19T10:41:38Z</time>
      </trkpt>
      <trkpt lat="45.96164" lon="4.87485">
        <ele>285</ele>
        <time>2018-01-19T10:41:39Z</time>
      </trkpt>
      <trkpt lat="45.96168" lon="4.8748">
        <ele>285</ele>
        <time>2018-01-19T10:41:40Z</time>
      </trkpt>
      <trkpt lat="45.96173" lon="4.87475">
        <ele>284</ele>
        <time>2018-01-19T10:41:41Z</time>
      </trkpt>
      <trkpt lat="45.96178" lon="4.87469">
        <ele>284</ele>
        <time>2018-01-19T10:41:42Z</time>
      </trkpt>
      <trkpt lat="45.96183" lon="4.87465">
        <ele>284</ele>
        <time>2018-01-19T10:41:43Z</time>
      </trkpt>
      <trkpt lat="45.96187" lon="4.8746">
        <ele>284</ele>
        <time>2018-01-19T10:41:44Z</time>
      </trkpt>
      <trkpt lat="45.96192" lon="4.87454">
        <ele>284</ele>
        <time>2018-01-19T10:41:45Z</time>
      </trkpt>
      <trkpt lat="45.96196" lon="4.87449">
        <ele>284</ele>
        <time>2018-01-19T10:41:46Z</time>
      </trkpt>
      <trkpt lat="45.962" lon="4.87444">
        <ele>284</ele>
        <time>2018-01-19T10:41:47Z</time>
      </trkpt>
      <trkpt lat="45.96205" lon="4.87438">
        <ele>284</ele>
        <time>2018-01-19T10:41:48Z</time>
      </trkpt>
      <trkpt lat="45.9621" lon="4.87432">
        <ele>284</ele>
        <time>2018-01-19T10:41:49Z</time>
      </trkpt>
      <trkpt lat="45.96213" lon="4.87428">
        <ele>284</ele>
        <time>2018-01-19T10:41:50Z</time>
      </trkpt>
      <trkpt lat="45.96217" lon="4.87423">
        <ele>284</ele>
        <time>2018-01-19T10:41:51Z</time>
      </trkpt>
      <trkpt lat="45.96221" lon="4.87419">
        <ele>284</ele>
        <time>2018-01-19T10:41:52Z</time>
      </trkpt>
      <trkpt lat="45.96225" lon="4.87414">
        <ele>283</ele>
        <time>2018-01-19T10:41:53Z</time>
      </trkpt>
      <trkpt lat="45.96229" lon="4.8741">
        <ele>283</ele>
        <time>2018-01-19T10:41:54Z</time>
      </trkpt>
      <trkpt lat="45.96233" lon="4.87404">
        <ele>283</ele>
        <time>2018-01-19T10:41:55Z</time>
      </trkpt>
      <trkpt lat="45.9624" lon="4.87396">
        <ele>283</ele>
        <time>2018-01-19T10:41:57Z</time>
      </trkpt>
      <trkpt lat="45.96243" lon="4.87392">
        <ele>283</ele>
        <time>2018-01-19T10:41:58Z</time>
      </trkpt>
      <trkpt lat="45.96249" lon="4.87383">
        <ele>283</ele>
        <time>2018-01-19T10:42:00Z</time>
      </trkpt>
      <trkpt lat="45.96253" lon="4.87379">
        <ele>283</ele>
        <time>2018-01-19T10:42:01Z</time>
      </trkpt>
      <trkpt lat="45.96257" lon="4.87374">
        <ele>283</ele>
        <time>2018-01-19T10:42:02Z</time>
      </trkpt>
      <trkpt lat="45.9626" lon="4.8737">
        <ele>283</ele>
        <time>2018-01-19T10:42:03Z</time>
      </trkpt>
      <trkpt lat="45.96265" lon="4.87364">
        <ele>284</ele>
        <time>2018-01-19T10:42:04Z</time>
      </trkpt>
      <trkpt lat="45.96269" lon="4.87358">
        <ele>284</ele>
        <time>2018-01-19T10:42:05Z</time>
      </trkpt>
      <trkpt lat="45.96273" lon="4.87353">
        <ele>284</ele>
        <time>2018-01-19T10:42:06Z</time>
      </trkpt>
      <trkpt lat="45.96278" lon="4.87346">
        <ele>284</ele>
        <time>2018-01-19T10:42:07Z</time>
      </trkpt>
      <trkpt lat="45.96283" lon="4.8734">
        <ele>284</ele>
        <time>2018-01-19T10:42:08Z</time>
      </trkpt>
      <trkpt lat="45.96288" lon="4.87334">
        <ele>284</ele>
        <time>2018-01-19T10:42:09Z</time>
      </trkpt>
      <trkpt lat="45.96292" lon="4.87326">
        <ele>283</ele>
        <time>2018-01-19T10:42:10Z</time>
      </trkpt>
      <trkpt lat="45.96297" lon="4.8732">
        <ele>283</ele>
        <time>2018-01-19T10:42:11Z</time>
      </trkpt>
      <trkpt lat="45.96301" lon="4.87316">
        <ele>283</ele>
        <time>2018-01-19T10:42:12Z</time>
      </trkpt>
      <trkpt lat="45.96305" lon="4.87309">
        <ele>283</ele>
        <time>2018-01-19T10:42:13Z</time>
      </trkpt>
      <trkpt lat="45.9631" lon="4.87304">
        <ele>283</ele>
        <time>2018-01-19T10:42:14Z</time>
      </trkpt>
      <trkpt lat="45.96314" lon="4.87298">
        <ele>283</ele>
        <time>2018-01-19T10:42:15Z</time>
      </trkpt>
      <trkpt lat="45.96317" lon="4.87293">
        <ele>283</ele>
        <time>2018-01-19T10:42:16Z</time>
      </trkpt>
      <trkpt lat="45.96321" lon="4.87287">
        <ele>283</ele>
        <time>2018-01-19T10:42:17Z</time>
      </trkpt>
      <trkpt lat="45.96328" lon="4.8728">
        <ele>283</ele>
        <time>2018-01-19T10:42:19Z</time>
      </trkpt>
      <trkpt lat="45.96332" lon="4.87275">
        <ele>283</ele>
        <time>2018-01-19T10:42:20Z</time>
      </trkpt>
      <trkpt lat="45.96336" lon="4.87269">
        <ele>283</ele>
        <time>2018-01-19T10:42:21Z</time>
      </trkpt>
      <trkpt lat="45.96339" lon="4.87264">
        <ele>283</ele>
        <time>2018-01-19T10:42:22Z</time>
      </trkpt>
      <trkpt lat="45.96345" lon="4.87259">
        <ele>283</ele>
        <time>2018-01-19T10:42:23Z</time>
      </trkpt>
      <trkpt lat="45.96349" lon="4.87254">
        <ele>283</ele>
        <time>2018-01-19T10:42:24Z</time>
      </trkpt>
      <trkpt lat="45.96353" lon="4.87247">
        <ele>282</ele>
        <time>2018-01-19T10:42:25Z</time>
      </trkpt>
      <trkpt lat="45.96357" lon="4.87242">
        <ele>282</ele>
        <time>2018-01-19T10:42:26Z</time>
      </trkpt>
      <trkpt lat="45.96361" lon="4.87237">
        <ele>282</ele>
        <time>2018-01-19T10:42:27Z</time>
      </trkpt>
      <trkpt lat="45.96365" lon="4.87231">
        <ele>282</ele>
        <time>2018-01-19T10:42:28Z</time>
      </trkpt>
      <trkpt lat="45.96369" lon="4.87225">
        <ele>282</ele>
        <time>2018-01-19T10:42:29Z</time>
      </trkpt>
      <trkpt lat="45.96373" lon="4.8722">
        <ele>282</ele>
        <time>2018-01-19T10:42:30Z</time>
      </trkpt>
      <trkpt lat="45.96377" lon="4.87214">
        <ele>282</ele>
        <time>2018-01-19T10:42:31Z</time>
      </trkpt>
      <trkpt lat="45.96381" lon="4.8721">
        <ele>282</ele>
        <time>2018-01-19T10:42:32Z</time>
      </trkpt>
      <trkpt lat="45.96386" lon="4.87204">
        <ele>282</ele>
        <time>2018-01-19T10:42:33Z</time>
      </trkpt>
      <trkpt lat="45.96389" lon="4.87199">
        <ele>282</ele>
        <time>2018-01-19T10:42:34Z</time>
      </trkpt>
      <trkpt lat="45.96395" lon="4.87191">
        <ele>282</ele>
        <time>2018-01-19T10:42:36Z</time>
      </trkpt>
      <trkpt lat="45.96399" lon="4.87185">
        <ele>282</ele>
        <time>2018-01-19T10:42:37Z</time>
      </trkpt>
      <trkpt lat="45.96402" lon="4.8718">
        <ele>282</ele>
        <time>2018-01-19T10:42:38Z</time>
      </trkpt>
      <trkpt lat="45.96406" lon="4.87176">
        <ele>281</ele>
        <time>2018-01-19T10:42:39Z</time>
      </trkpt>
      <trkpt lat="45.96409" lon="4.87173">
        <ele>281</ele>
        <time>2018-01-19T10:42:40Z</time>
      </trkpt>
      <trkpt lat="45.96413" lon="4.87167">
        <ele>281</ele>
        <time>2018-01-19T10:42:41Z</time>
      </trkpt>
      <trkpt lat="45.96417" lon="4.87163">
        <ele>281</ele>
        <time>2018-01-19T10:42:42Z</time>
      </trkpt>
      <trkpt lat="45.96421" lon="4.87158">
        <ele>281</ele>
        <time>2018-01-19T10:42:43Z</time>
      </trkpt>
      <trkpt lat="45.96425" lon="4.87153">
        <ele>281</ele>
        <time>2018-01-19T10:42:44Z</time>
      </trkpt>
      <trkpt lat="45.96429" lon="4.87148">
        <ele>281</ele>
        <time>2018-01-19T10:42:45Z</time>
      </trkpt>
      <trkpt lat="45.96436" lon="4.8714">
        <ele>281</ele>
        <time>2018-01-19T10:42:47Z</time>
      </trkpt>
      <trkpt lat="45.96439" lon="4.87135">
        <ele>281</ele>
        <time>2018-01-19T10:42:48Z</time>
      </trkpt>
      <trkpt lat="45.96445" lon="4.87129">
        <ele>281</ele>
        <time>2018-01-19T10:42:50Z</time>
      </trkpt>
      <trkpt lat="45.96448" lon="4.87125">
        <ele>281</ele>
        <time>2018-01-19T10:42:51Z</time>
      </trkpt>
      <trkpt lat="45.96454" lon="4.87118">
        <ele>281</ele>
        <time>2018-01-19T10:42:53Z</time>
      </trkpt>
      <trkpt lat="45.96458" lon="4.87114">
        <ele>282</ele>
        <time>2018-01-19T10:42:54Z</time>
      </trkpt>
      <trkpt lat="45.96465" lon="4.87105">
        <ele>282</ele>
        <time>2018-01-19T10:42:56Z</time>
      </trkpt>
      <trkpt lat="45.96469" lon="4.871">
        <ele>282</ele>
        <time>2018-01-19T10:42:57Z</time>
      </trkpt>
      <trkpt lat="45.96476" lon="4.87092">
        <ele>282</ele>
        <time>2018-01-19T10:42:59Z</time>
      </trkpt>
      <trkpt lat="45.96479" lon="4.87088">
        <ele>282</ele>
        <time>2018-01-19T10:43:00Z</time>
      </trkpt>
      <trkpt lat="45.96485" lon="4.8708">
        <ele>282</ele>
        <time>2018-01-19T10:43:02Z</time>
      </trkpt>
      <trkpt lat="45.96489" lon="4.87074">
        <ele>282</ele>
        <time>2018-01-19T10:43:03Z</time>
      </trkpt>
      <trkpt lat="45.96496" lon="4.87066">
        <ele>282</ele>
        <time>2018-01-19T10:43:05Z</time>
      </trkpt>
      <trkpt lat="45.96499" lon="4.87062">
        <ele>282</ele>
        <time>2018-01-19T10:43:06Z</time>
      </trkpt>
      <trkpt lat="45.96506" lon="4.87062">
        <ele>282</ele>
        <time>2018-01-19T10:43:08Z</time>
      </trkpt>
      <trkpt lat="45.96509" lon="4.8706">
        <ele>283</ele>
        <time>2018-01-19T10:43:09Z</time>
      </trkpt>
      <trkpt lat="45.96515" lon="4.87065">
        <ele>283</ele>
        <time>2018-01-19T10:43:11Z</time>
      </trkpt>
      <trkpt lat="45.96518" lon="4.87068">
        <ele>283</ele>
        <time>2018-01-19T10:43:12Z</time>
      </trkpt>
      <trkpt lat="45.96524" lon="4.87071">
        <ele>283</ele>
        <time>2018-01-19T10:43:14Z</time>
      </trkpt>
      <trkpt lat="45.96527" lon="4.87072">
        <ele>283</ele>
        <time>2018-01-19T10:43:15Z</time>
      </trkpt>
      <trkpt lat="45.96535" lon="4.87068">
        <ele>283</ele>
        <time>2018-01-19T10:43:19Z</time>
      </trkpt>
      <trkpt lat="45.96537" lon="4.87067">
        <ele>283</ele>
        <time>2018-01-19T10:43:20Z</time>
      </trkpt>
      <trkpt lat="45.96541" lon="4.87077">
        <ele>283</ele>
        <time>2018-01-19T10:43:25Z</time>
      </trkpt>
      <trkpt lat="45.96543" lon="4.87079">
        <ele>283</ele>
        <time>2018-01-19T10:43:26Z</time>
      </trkpt>
      <trkpt lat="45.96549" lon="4.8708">
        <ele>283</ele>
        <time>2018-01-19T10:43:29Z</time>
      </trkpt>
      <trkpt lat="45.96552" lon="4.8708">
        <ele>283</ele>
        <time>2018-01-19T10:43:30Z</time>
      </trkpt>
      <trkpt lat="45.96559" lon="4.87074">
        <ele>283</ele>
        <time>2018-01-19T10:43:34Z</time>
      </trkpt>
      <trkpt lat="45.9656" lon="4.87069">
        <ele>283</ele>
        <time>2018-01-19T10:43:35Z</time>
      </trkpt>
      <trkpt lat="45.96559" lon="4.87059">
        <ele>283</ele>
        <time>2018-01-19T10:43:37Z</time>
      </trkpt>
      <trkpt lat="45.96558" lon="4.87055">
        <ele>283</ele>
        <time>2018-01-19T10:43:38Z</time>
      </trkpt>
      <trkpt lat="45.96555" lon="4.87043">
        <ele>283</ele>
        <time>2018-01-19T10:43:41Z</time>
      </trkpt>
      <trkpt lat="45.96554" lon="4.87039">
        <ele>283</ele>
        <time>2018-01-19T10:43:42Z</time>
      </trkpt>
      <trkpt lat="45.9655" lon="4.87028">
        <ele>283</ele>
        <time>2018-01-19T10:43:45Z</time>
      </trkpt>
      <trkpt lat="45.96548" lon="4.87026">
        <ele>283</ele>
        <time>2018-01-19T10:43:46Z</time>
      </trkpt>
      <trkpt lat="45.96548" lon="4.87014">
        <ele>283</ele>
        <time>2018-01-19T10:55:21Z</time>
      </trkpt>
      <trkpt lat="45.96547" lon="4.8701">
        <ele>283</ele>
        <time>2018-01-19T10:55:22Z</time>
      </trkpt>
      <trkpt lat="45.96546" lon="4.86999">
        <ele>283</ele>
        <time>2018-01-19T10:55:25Z</time>
      </trkpt>
      <trkpt lat="45.96546" lon="4.86996">
        <ele>283</ele>
        <time>2018-01-19T10:55:26Z</time>
      </trkpt>
      <trkpt lat="45.96551" lon="4.86987">
        <ele>283</ele>
        <time>2018-01-19T10:55:31Z</time>
      </trkpt>
      <trkpt lat="45.96553" lon="4.86983">
        <ele>283</ele>
        <time>2018-01-19T10:55:32Z</time>
      </trkpt>
      <trkpt lat="45.96559" lon="4.86975">
        <ele>283</ele>
        <time>2018-01-19T10:55:34Z</time>
      </trkpt>
      <trkpt lat="45.96562" lon="4.8697">
        <ele>283</ele>
        <time>2018-01-19T10:55:35Z</time>
      </trkpt>
      <trkpt lat="45.96567" lon="4.86963">
        <ele>284</ele>
        <time>2018-01-19T10:55:37Z</time>
      </trkpt>
      <trkpt lat="45.96569" lon="4.86959">
        <ele>284</ele>
        <time>2018-01-19T10:55:38Z</time>
      </trkpt>
      <trkpt lat="45.96574" lon="4.86951">
        <ele>284</ele>
        <time>2018-01-19T10:55:40Z</time>
      </trkpt>
      <trkpt lat="45.96576" lon="4.86947">
        <ele>284</ele>
        <time>2018-01-19T10:55:41Z</time>
      </trkpt>
      <trkpt lat="45.96581" lon="4.86939">
        <ele>284</ele>
        <time>2018-01-19T10:55:43Z</time>
      </trkpt>
      <trkpt lat="45.96583" lon="4.86934">
        <ele>284</ele>
        <time>2018-01-19T10:55:44Z</time>
      </trkpt>
      <trkpt lat="45.96588" lon="4.86925">
        <ele>285</ele>
        <time>2018-01-19T10:55:46Z</time>
      </trkpt>
      <trkpt lat="45.9659" lon="4.8692">
        <ele>285</ele>
        <time>2018-01-19T10:55:47Z</time>
      </trkpt>
      <trkpt lat="45.96595" lon="4.86912">
        <ele>286</ele>
        <time>2018-01-19T10:55:49Z</time>
      </trkpt>
      <trkpt lat="45.96597" lon="4.86908">
        <ele>286</ele>
        <time>2018-01-19T10:55:50Z</time>
      </trkpt>
      <trkpt lat="45.96602" lon="4.86901">
        <ele>286</ele>
        <time>2018-01-19T10:55:53Z</time>
      </trkpt>
      <trkpt lat="45.96604" lon="4.86897">
        <ele>286</ele>
        <time>2018-01-19T10:55:54Z</time>
      </trkpt>
      <trkpt lat="45.96608" lon="4.86887">
        <ele>287</ele>
        <time>2018-01-19T10:55:56Z</time>
      </trkpt>
      <trkpt lat="45.96611" lon="4.86883">
        <ele>287</ele>
        <time>2018-01-19T10:55:57Z</time>
      </trkpt>
      <trkpt lat="45.96616" lon="4.86875">
        <ele>287</ele>
        <time>2018-01-19T10:55:59Z</time>
      </trkpt>
      <trkpt lat="45.96618" lon="4.86871">
        <ele>287</ele>
        <time>2018-01-19T10:56:00Z</time>
      </trkpt>
      <trkpt lat="45.96624" lon="4.86864">
        <ele>287</ele>
        <time>2018-01-19T10:56:02Z</time>
      </trkpt>
      <trkpt lat="45.96626" lon="4.8686">
        <ele>287</ele>
        <time>2018-01-19T10:56:03Z</time>
      </trkpt>
      <trkpt lat="45.9663" lon="4.86853">
        <ele>287</ele>
        <time>2018-01-19T10:56:05Z</time>
      </trkpt>
      <trkpt lat="45.96632" lon="4.8685">
        <ele>287</ele>
        <time>2018-01-19T10:56:06Z</time>
      </trkpt>
      <trkpt lat="45.96636" lon="4.86844">
        <ele>287</ele>
        <time>2018-01-19T10:56:07Z</time>
      </trkpt>
      <trkpt lat="45.96638" lon="4.86839">
        <ele>287</ele>
        <time>2018-01-19T10:56:08Z</time>
      </trkpt>
      <trkpt lat="45.96643" lon="4.86832">
        <ele>288</ele>
        <time>2018-01-19T10:56:10Z</time>
      </trkpt>
      <trkpt lat="45.96644" lon="4.86828">
        <ele>288</ele>
        <time>2018-01-19T10:56:11Z</time>
      </trkpt>
      <trkpt lat="45.9665" lon="4.86821">
        <ele>288</ele>
        <time>2018-01-19T10:56:12Z</time>
      </trkpt>
      <trkpt lat="45.96652" lon="4.86816">
        <ele>288</ele>
        <time>2018-01-19T10:56:13Z</time>
      </trkpt>
      <trkpt lat="45.96657" lon="4.86807">
        <ele>288</ele>
        <time>2018-01-19T10:56:15Z</time>
      </trkpt>
      <trkpt lat="45.96659" lon="4.86802">
        <ele>288</ele>
        <time>2018-01-19T10:56:16Z</time>
      </trkpt>
      <trkpt lat="45.96663" lon="4.86797">
        <ele>288</ele>
        <time>2018-01-19T10:56:17Z</time>
      </trkpt>
      <trkpt lat="45.96666" lon="4.86792">
        <ele>288</ele>
        <time>2018-01-19T10:56:18Z</time>
      </trkpt>
      <trkpt lat="45.96671" lon="4.86785">
        <ele>289</ele>
        <time>2018-01-19T10:56:19Z</time>
      </trkpt>
      <trkpt lat="45.96675" lon="4.86779">
        <ele>289</ele>
        <time>2018-01-19T10:56:20Z</time>
      </trkpt>
      <trkpt lat="45.96678" lon="4.86774">
        <ele>289</ele>
        <time>2018-01-19T10:56:21Z</time>
      </trkpt>
      <trkpt lat="45.96681" lon="4.86768">
        <ele>289</ele>
        <time>2018-01-19T10:56:22Z</time>
      </trkpt>
      <trkpt lat="45.96684" lon="4.86764">
        <ele>289</ele>
        <time>2018-01-19T10:56:23Z</time>
      </trkpt>
      <trkpt lat="45.96688" lon="4.86758">
        <ele>289</ele>
        <time>2018-01-19T10:56:24Z</time>
      </trkpt>
      <trkpt lat="45.96692" lon="4.86753">
        <ele>289</ele>
        <time>2018-01-19T10:56:25Z</time>
      </trkpt>
      <trkpt lat="45.96695" lon="4.86747">
        <ele>289</ele>
        <time>2018-01-19T10:56:26Z</time>
      </trkpt>
      <trkpt lat="45.96699" lon="4.86741">
        <ele>289</ele>
        <time>2018-01-19T10:56:27Z</time>
      </trkpt>
      <trkpt lat="45.96701" lon="4.86735">
        <ele>289</ele>
        <time>2018-01-19T10:56:28Z</time>
      </trkpt>
      <trkpt lat="45.96705" lon="4.86731">
        <ele>289</ele>
        <time>2018-01-19T10:56:29Z</time>
      </trkpt>
      <trkpt lat="45.96708" lon="4.86725">
        <ele>289</ele>
        <time>2018-01-19T10:56:30Z</time>
      </trkpt>
      <trkpt lat="45.96712" lon="4.8672">
        <ele>289</ele>
        <time>2018-01-19T10:56:31Z</time>
      </trkpt>
      <trkpt lat="45.96715" lon="4.86715">
        <ele>289</ele>
        <time>2018-01-19T10:56:32Z</time>
      </trkpt>
      <trkpt lat="45.96719" lon="4.86705">
        <ele>289</ele>
        <time>2018-01-19T10:56:34Z</time>
      </trkpt>
      <trkpt lat="45.96722" lon="4.86701">
        <ele>289</ele>
        <time>2018-01-19T10:56:35Z</time>
      </trkpt>
      <trkpt lat="45.96727" lon="4.86691">
        <ele>289</ele>
        <time>2018-01-19T10:56:37Z</time>
      </trkpt>
      <trkpt lat="45.96731" lon="4.86685">
        <ele>289</ele>
        <time>2018-01-19T10:56:38Z</time>
      </trkpt>
      <trkpt lat="45.96735" lon="4.8668">
        <ele>290</ele>
        <time>2018-01-19T10:56:39Z</time>
      </trkpt>
      <trkpt lat="45.96739" lon="4.86673">
        <ele>290</ele>
        <time>2018-01-19T10:56:40Z</time>
      </trkpt>
      <trkpt lat="45.96742" lon="4.86667">
        <ele>290</ele>
        <time>2018-01-19T10:56:41Z</time>
      </trkpt>
      <trkpt lat="45.96746" lon="4.86662">
        <ele>290</ele>
        <time>2018-01-19T10:56:42Z</time>
      </trkpt>
      <trkpt lat="45.9675" lon="4.86651">
        <ele>290</ele>
        <time>2018-01-19T10:56:44Z</time>
      </trkpt>
      <trkpt lat="45.96753" lon="4.86646">
        <ele>290</ele>
        <time>2018-01-19T10:56:45Z</time>
      </trkpt>
      <trkpt lat="45.96754" lon="4.8664">
        <ele>290</ele>
        <time>2018-01-19T10:56:46Z</time>
      </trkpt>
      <trkpt lat="45.96759" lon="4.86633">
        <ele>290</ele>
        <time>2018-01-19T10:56:47Z</time>
      </trkpt>
      <trkpt lat="45.96762" lon="4.86627">
        <ele>289</ele>
        <time>2018-01-19T10:56:48Z</time>
      </trkpt>
      <trkpt lat="45.96767" lon="4.8662">
        <ele>289</ele>
        <time>2018-01-19T10:56:49Z</time>
      </trkpt>
      <trkpt lat="45.96773" lon="4.86612">
        <ele>289</ele>
        <time>2018-01-19T10:56:50Z</time>
      </trkpt>
      <trkpt lat="45.96775" lon="4.86607">
        <ele>289</ele>
        <time>2018-01-19T10:56:51Z</time>
      </trkpt>
      <trkpt lat="45.96778" lon="4.86602">
        <ele>289</ele>
        <time>2018-01-19T10:56:52Z</time>
      </trkpt>
      <trkpt lat="45.9678" lon="4.86597">
        <ele>289</ele>
        <time>2018-01-19T10:56:53Z</time>
      </trkpt>
      <trkpt lat="45.96784" lon="4.8659">
        <ele>289</ele>
        <time>2018-01-19T10:56:54Z</time>
      </trkpt>
      <trkpt lat="45.96787" lon="4.86585">
        <ele>289</ele>
        <time>2018-01-19T10:56:55Z</time>
      </trkpt>
      <trkpt lat="45.96793" lon="4.86577">
        <ele>290</ele>
        <time>2018-01-19T10:56:57Z</time>
      </trkpt>
      <trkpt lat="45.96797" lon="4.86572">
        <ele>290</ele>
        <time>2018-01-19T10:56:58Z</time>
      </trkpt>
      <trkpt lat="45.96803" lon="4.86563">
        <ele>290</ele>
        <time>2018-01-19T10:57:00Z</time>
      </trkpt>
      <trkpt lat="45.96807" lon="4.86557">
        <ele>290</ele>
        <time>2018-01-19T10:57:01Z</time>
      </trkpt>
      <trkpt lat="45.96811" lon="4.86552">
        <ele>290</ele>
        <time>2018-01-19T10:57:02Z</time>
      </trkpt>
      <trkpt lat="45.96814" lon="4.86546">
        <ele>290</ele>
        <time>2018-01-19T10:57:03Z</time>
      </trkpt>
      <trkpt lat="45.96816" lon="4.86541">
        <ele>290</ele>
        <time>2018-01-19T10:57:04Z</time>
      </trkpt>
      <trkpt lat="45.96819" lon="4.86535">
        <ele>290</ele>
        <time>2018-01-19T10:57:05Z</time>
      </trkpt>
      <trkpt lat="45.96822" lon="4.86532">
        <ele>290</ele>
        <time>2018-01-19T10:57:06Z</time>
      </trkpt>
      <trkpt lat="45.96826" lon="4.86526">
        <ele>289</ele>
        <time>2018-01-19T10:57:07Z</time>
      </trkpt>
      <trkpt lat="45.96828" lon="4.8652">
        <ele>289</ele>
        <time>2018-01-19T10:57:08Z</time>
      </trkpt>
      <trkpt lat="45.9683" lon="4.86515">
        <ele>289</ele>
        <time>2018-01-19T10:57:09Z</time>
      </trkpt>
      <trkpt lat="45.96834" lon="4.86505">
        <ele>289</ele>
        <time>2018-01-19T10:57:11Z</time>
      </trkpt>
      <trkpt lat="45.96837" lon="4.86499">
        <ele>289</ele>
        <time>2018-01-19T10:57:12Z</time>
      </trkpt>
      <trkpt lat="45.96839" lon="4.86493">
        <ele>289</ele>
        <time>2018-01-19T10:57:13Z</time>
      </trkpt>
      <trkpt lat="45.96842" lon="4.86487">
        <ele>289</ele>
        <time>2018-01-19T10:57:14Z</time>
      </trkpt>
      <trkpt lat="45.96845" lon="4.86475">
        <ele>289</ele>
        <time>2018-01-19T10:57:16Z</time>
      </trkpt>
      <trkpt lat="45.96848" lon="4.86465">
        <ele>289</ele>
        <time>2018-01-19T10:57:17Z</time>
      </trkpt>
      <trkpt lat="45.9685" lon="4.86458">
        <ele>289</ele>
        <time>2018-01-19T10:57:18Z</time>
      </trkpt>
      <trkpt lat="45.96851" lon="4.8645">
        <ele>289</ele>
        <time>2018-01-19T10:57:19Z</time>
      </trkpt>
      <trkpt lat="45.96853" lon="4.86443">
        <ele>290</ele>
        <time>2018-01-19T10:57:20Z</time>
      </trkpt>
      <trkpt lat="45.96854" lon="4.86436">
        <ele>290</ele>
        <time>2018-01-19T10:57:21Z</time>
      </trkpt>
      <trkpt lat="45.96856" lon="4.86429">
        <ele>290</ele>
        <time>2018-01-19T10:57:22Z</time>
      </trkpt>
      <trkpt lat="45.96857" lon="4.86423">
        <ele>290</ele>
        <time>2018-01-19T10:57:23Z</time>
      </trkpt>
      <trkpt lat="45.96858" lon="4.86416">
        <ele>290</ele>
        <time>2018-01-19T10:57:24Z</time>
      </trkpt>
      <trkpt lat="45.96859" lon="4.86409">
        <ele>290</ele>
        <time>2018-01-19T10:57:25Z</time>
      </trkpt>
      <trkpt lat="45.9686" lon="4.86398">
        <ele>290</ele>
        <time>2018-01-19T10:57:27Z</time>
      </trkpt>
      <trkpt lat="45.96861" lon="4.86392">
        <ele>290</ele>
        <time>2018-01-19T10:57:28Z</time>
      </trkpt>
      <trkpt lat="45.96864" lon="4.8638">
        <ele>290</ele>
        <time>2018-01-19T10:57:30Z</time>
      </trkpt>
      <trkpt lat="45.96865" lon="4.86374">
        <ele>290</ele>
        <time>2018-01-19T10:57:31Z</time>
      </trkpt>
      <trkpt lat="45.96866" lon="4.86362">
        <ele>290</ele>
        <time>2018-01-19T10:57:33Z</time>
      </trkpt>
      <trkpt lat="45.96867" lon="4.86356">
        <ele>290</ele>
        <time>2018-01-19T10:57:34Z</time>
      </trkpt>
      <trkpt lat="45.96868" lon="4.8635">
        <ele>290</ele>
        <time>2018-01-19T10:57:35Z</time>
      </trkpt>
      <trkpt lat="45.96869" lon="4.86343">
        <ele>290</ele>
        <time>2018-01-19T10:57:36Z</time>
      </trkpt>
      <trkpt lat="45.96869" lon="4.86332">
        <ele>289</ele>
        <time>2018-01-19T10:57:38Z</time>
      </trkpt>
      <trkpt lat="45.9687" lon="4.86326">
        <ele>289</ele>
        <time>2018-01-19T10:57:39Z</time>
      </trkpt>
      <trkpt lat="45.96871" lon="4.86315">
        <ele>289</ele>
        <time>2018-01-19T10:57:41Z</time>
      </trkpt>
      <trkpt lat="45.96872" lon="4.86309">
        <ele>289</ele>
        <time>2018-01-19T10:57:42Z</time>
      </trkpt>
      <trkpt lat="45.96875" lon="4.86298">
        <ele>289</ele>
        <time>2018-01-19T10:57:44Z</time>
      </trkpt>
      <trkpt lat="45.96877" lon="4.86291">
        <ele>289</ele>
        <time>2018-01-19T10:57:45Z</time>
      </trkpt>
      <trkpt lat="45.96879" lon="4.86281">
        <ele>289</ele>
        <time>2018-01-19T10:57:47Z</time>
      </trkpt>
      <trkpt lat="45.9688" lon="4.86276">
        <ele>289</ele>
        <time>2018-01-19T10:57:48Z</time>
      </trkpt>
      <trkpt lat="45.96881" lon="4.86264">
        <ele>288</ele>
        <time>2018-01-19T10:57:50Z</time>
      </trkpt>
      <trkpt lat="45.96882" lon="4.86258">
        <ele>288</ele>
        <time>2018-01-19T10:57:51Z</time>
      </trkpt>
      <trkpt lat="45.96884" lon="4.86246">
        <ele>288</ele>
        <time>2018-01-19T10:57:53Z</time>
      </trkpt>
      <trkpt lat="45.96885" lon="4.8624">
        <ele>288</ele>
        <time>2018-01-19T10:57:54Z</time>
      </trkpt>
      <trkpt lat="45.96886" lon="4.86228">
        <ele>289</ele>
        <time>2018-01-19T10:57:56Z</time>
      </trkpt>
      <trkpt lat="45.96888" lon="4.86223">
        <ele>289</ele>
        <time>2018-01-19T10:57:57Z</time>
      </trkpt>
      <trkpt lat="45.96889" lon="4.86211">
        <ele>289</ele>
        <time>2018-01-19T10:57:59Z</time>
      </trkpt>
      <trkpt lat="45.9689" lon="4.86205">
        <ele>289</ele>
        <time>2018-01-19T10:58:00Z</time>
      </trkpt>
      <trkpt lat="45.9689" lon="4.86199">
        <ele>289</ele>
        <time>2018-01-19T10:58:01Z</time>
      </trkpt>
      <trkpt lat="45.96891" lon="4.86192">
        <ele>289</ele>
        <time>2018-01-19T10:58:02Z</time>
      </trkpt>
      <trkpt lat="45.96892" lon="4.86185">
        <ele>289</ele>
        <time>2018-01-19T10:58:03Z</time>
      </trkpt>
      <trkpt lat="45.96893" lon="4.86177">
        <ele>289</ele>
        <time>2018-01-19T10:58:04Z</time>
      </trkpt>
      <trkpt lat="45.96895" lon="4.86169">
        <ele>288</ele>
        <time>2018-01-19T10:58:05Z</time>
      </trkpt>
      <trkpt lat="45.96896" lon="4.86161">
        <ele>289</ele>
        <time>2018-01-19T10:58:06Z</time>
      </trkpt>
      <trkpt lat="45.96897" lon="4.86153">
        <ele>289</ele>
        <time>2018-01-19T10:58:07Z</time>
      </trkpt>
      <trkpt lat="45.96899" lon="4.86146">
        <ele>289</ele>
        <time>2018-01-19T10:58:08Z</time>
      </trkpt>
      <trkpt lat="45.969" lon="4.86137">
        <ele>289</ele>
        <time>2018-01-19T10:58:09Z</time>
      </trkpt>
      <trkpt lat="45.96901" lon="4.86129">
        <ele>289</ele>
        <time>2018-01-19T10:58:10Z</time>
      </trkpt>
      <trkpt lat="45.969" lon="4.8612">
        <ele>289</ele>
        <time>2018-01-19T10:58:11Z</time>
      </trkpt>
      <trkpt lat="45.96901" lon="4.86113">
        <ele>289</ele>
        <time>2018-01-19T10:58:12Z</time>
      </trkpt>
      <trkpt lat="45.96902" lon="4.86105">
        <ele>289</ele>
        <time>2018-01-19T10:58:13Z</time>
      </trkpt>
      <trkpt lat="45.96903" lon="4.86098">
        <ele>288</ele>
        <time>2018-01-19T10:58:14Z</time>
      </trkpt>
      <trkpt lat="45.96904" lon="4.86092">
        <ele>288</ele>
        <time>2018-01-19T10:58:15Z</time>
      </trkpt>
      <trkpt lat="45.96906" lon="4.86085">
        <ele>288</ele>
        <time>2018-01-19T10:58:16Z</time>
      </trkpt>
      <trkpt lat="45.96907" lon="4.86077">
        <ele>288</ele>
        <time>2018-01-19T10:58:17Z</time>
      </trkpt>
      <trkpt lat="45.96909" lon="4.86069">
        <ele>288</ele>
        <time>2018-01-19T10:58:18Z</time>
      </trkpt>
      <trkpt lat="45.9691" lon="4.86061">
        <ele>288</ele>
        <time>2018-01-19T10:58:19Z</time>
      </trkpt>
      <trkpt lat="45.9691" lon="4.86055">
        <ele>288</ele>
        <time>2018-01-19T10:58:20Z</time>
      </trkpt>
      <trkpt lat="45.9691" lon="4.86048">
        <ele>289</ele>
        <time>2018-01-19T10:58:21Z</time>
      </trkpt>
      <trkpt lat="45.96911" lon="4.8604">
        <ele>289</ele>
        <time>2018-01-19T10:58:22Z</time>
      </trkpt>
      <trkpt lat="45.96911" lon="4.86036">
        <ele>289</ele>
        <time>2018-01-19T10:58:23Z</time>
      </trkpt>
      <trkpt lat="45.96912" lon="4.86027">
        <ele>289</ele>
        <time>2018-01-19T10:58:24Z</time>
      </trkpt>
      <trkpt lat="45.96912" lon="4.86021">
        <ele>289</ele>
        <time>2018-01-19T10:58:25Z</time>
      </trkpt>
      <trkpt lat="45.96915" lon="4.86013">
        <ele>288</ele>
        <time>2018-01-19T10:58:26Z</time>
      </trkpt>
      <trkpt lat="45.96916" lon="4.86004">
        <ele>288</ele>
        <time>2018-01-19T10:58:27Z</time>
      </trkpt>
      <trkpt lat="45.96918" lon="4.85994">
        <ele>288</ele>
        <time>2018-01-19T10:58:28Z</time>
      </trkpt>
      <trkpt lat="45.96919" lon="4.85982">
        <ele>287</ele>
        <time>2018-01-19T10:58:30Z</time>
      </trkpt>
      <trkpt lat="45.96921" lon="4.85974">
        <ele>287</ele>
        <time>2018-01-19T10:58:31Z</time>
      </trkpt>
      <trkpt lat="45.96923" lon="4.85967">
        <ele>287</ele>
        <time>2018-01-19T10:58:32Z</time>
      </trkpt>
      <trkpt lat="45.96925" lon="4.85958">
        <ele>287</ele>
        <time>2018-01-19T10:58:33Z</time>
      </trkpt>
      <trkpt lat="45.96928" lon="4.85952">
        <ele>287</ele>
        <time>2018-01-19T10:58:34Z</time>
      </trkpt>
      <trkpt lat="45.96929" lon="4.85945">
        <ele>286</ele>
        <time>2018-01-19T10:58:35Z</time>
      </trkpt>
      <trkpt lat="45.96931" lon="4.85937">
        <ele>286</ele>
        <time>2018-01-19T10:58:36Z</time>
      </trkpt>
      <trkpt lat="45.96933" lon="4.8593">
        <ele>286</ele>
        <time>2018-01-19T10:58:37Z</time>
      </trkpt>
      <trkpt lat="45.96935" lon="4.85923">
        <ele>286</ele>
        <time>2018-01-19T10:58:38Z</time>
      </trkpt>
      <trkpt lat="45.96936" lon="4.85916">
        <ele>286</ele>
        <time>2018-01-19T10:58:39Z</time>
      </trkpt>
      <trkpt lat="45.96938" lon="4.85909">
        <ele>286</ele>
        <time>2018-01-19T10:58:40Z</time>
      </trkpt>
      <trkpt lat="45.96941" lon="4.85901">
        <ele>285</ele>
        <time>2018-01-19T10:58:41Z</time>
      </trkpt>
      <trkpt lat="45.96941" lon="4.85893">
        <ele>285</ele>
        <time>2018-01-19T10:58:42Z</time>
      </trkpt>
      <trkpt lat="45.96945" lon="4.85884">
        <ele>285</ele>
        <time>2018-01-19T10:58:43Z</time>
      </trkpt>
      <trkpt lat="45.96947" lon="4.85876">
        <ele>285</ele>
        <time>2018-01-19T10:58:44Z</time>
      </trkpt>
      <trkpt lat="45.9695" lon="4.85868">
        <ele>285</ele>
        <time>2018-01-19T10:58:45Z</time>
      </trkpt>
      <trkpt lat="45.96952" lon="4.8586">
        <ele>285</ele>
        <time>2018-01-19T10:58:46Z</time>
      </trkpt>
      <trkpt lat="45.96954" lon="4.85851">
        <ele>285</ele>
        <time>2018-01-19T10:58:47Z</time>
      </trkpt>
      <trkpt lat="45.96957" lon="4.85841">
        <ele>285</ele>
        <time>2018-01-19T10:58:48Z</time>
      </trkpt>
      <trkpt lat="45.96959" lon="4.85834">
        <ele>285</ele>
        <time>2018-01-19T10:58:49Z</time>
      </trkpt>
      <trkpt lat="45.96962" lon="4.85826">
        <ele>285</ele>
        <time>2018-01-19T10:58:50Z</time>
      </trkpt>
      <trkpt lat="45.96963" lon="4.85819">
        <ele>285</ele>
        <time>2018-01-19T10:58:51Z</time>
      </trkpt>
      <trkpt lat="45.96965" lon="4.85811">
        <ele>285</ele>
        <time>2018-01-19T10:58:52Z</time>
      </trkpt>
      <trkpt lat="45.96968" lon="4.85802">
        <ele>285</ele>
        <time>2018-01-19T10:58:53Z</time>
      </trkpt>
      <trkpt lat="45.96969" lon="4.85794">
        <ele>285</ele>
        <time>2018-01-19T10:58:54Z</time>
      </trkpt>
      <trkpt lat="45.9697" lon="4.85787">
        <ele>285</ele>
        <time>2018-01-19T10:58:55Z</time>
      </trkpt>
      <trkpt lat="45.96973" lon="4.85779">
        <ele>285</ele>
        <time>2018-01-19T10:58:56Z</time>
      </trkpt>
      <trkpt lat="45.96974" lon="4.85773">
        <ele>285</ele>
        <time>2018-01-19T10:58:57Z</time>
      </trkpt>
      <trkpt lat="45.96976" lon="4.85767">
        <ele>285</ele>
        <time>2018-01-19T10:58:58Z</time>
      </trkpt>
      <trkpt lat="45.96978" lon="4.8576">
        <ele>285</ele>
        <time>2018-01-19T10:58:59Z</time>
      </trkpt>
      <trkpt lat="45.96979" lon="4.85752">
        <ele>285</ele>
        <time>2018-01-19T10:59:00Z</time>
      </trkpt>
      <trkpt lat="45.96981" lon="4.85745">
        <ele>285</ele>
        <time>2018-01-19T10:59:01Z</time>
      </trkpt>
      <trkpt lat="45.96983" lon="4.85738">
        <ele>285</ele>
        <time>2018-01-19T10:59:02Z</time>
      </trkpt>
      <trkpt lat="45.96985" lon="4.85733">
        <ele>285</ele>
        <time>2018-01-19T10:59:03Z</time>
      </trkpt>
      <trkpt lat="45.96987" lon="4.85726">
        <ele>285</ele>
        <time>2018-01-19T10:59:04Z</time>
      </trkpt>
      <trkpt lat="45.96989" lon="4.85718">
        <ele>285</ele>
        <time>2018-01-19T10:59:05Z</time>
      </trkpt>
      <trkpt lat="45.96992" lon="4.85709">
        <ele>285</ele>
        <time>2018-01-19T10:59:06Z</time>
      </trkpt>
      <trkpt lat="45.96993" lon="4.85702">
        <ele>285</ele>
        <time>2018-01-19T10:59:07Z</time>
      </trkpt>
      <trkpt lat="45.96995" lon="4.85695">
        <ele>285</ele>
        <time>2018-01-19T10:59:08Z</time>
      </trkpt>
      <trkpt lat="45.96996" lon="4.85689">
        <ele>285</ele>
        <time>2018-01-19T10:59:09Z</time>
      </trkpt>
      <trkpt lat="45.96998" lon="4.85683">
        <ele>286</ele>
        <time>2018-01-19T10:59:10Z</time>
      </trkpt>
      <trkpt lat="45.97" lon="4.85675">
        <ele>286</ele>
        <time>2018-01-19T10:59:11Z</time>
      </trkpt>
      <trkpt lat="45.97001" lon="4.85669">
        <ele>286</ele>
        <time>2018-01-19T10:59:12Z</time>
      </trkpt>
      <trkpt lat="45.97003" lon="4.85662">
        <ele>285</ele>
        <time>2018-01-19T10:59:13Z</time>
      </trkpt>
      <trkpt lat="45.97005" lon="4.85656">
        <ele>285</ele>
        <time>2018-01-19T10:59:14Z</time>
      </trkpt>
      <trkpt lat="45.97007" lon="4.85649">
        <ele>285</ele>
        <time>2018-01-19T10:59:15Z</time>
      </trkpt>
      <trkpt lat="45.9701" lon="4.8564">
        <ele>284</ele>
        <time>2018-01-19T10:59:16Z</time>
      </trkpt>
      <trkpt lat="45.97011" lon="4.85633">
        <ele>284</ele>
        <time>2018-01-19T10:59:17Z</time>
      </trkpt>
      <trkpt lat="45.97013" lon="4.85626">
        <ele>284</ele>
        <time>2018-01-19T10:59:18Z</time>
      </trkpt>
      <trkpt lat="45.97015" lon="4.85617">
        <ele>284</ele>
        <time>2018-01-19T10:59:19Z</time>
      </trkpt>
      <trkpt lat="45.97018" lon="4.85609">
        <ele>284</ele>
        <time>2018-01-19T10:59:20Z</time>
      </trkpt>
      <trkpt lat="45.9702" lon="4.85601">
        <ele>284</ele>
        <time>2018-01-19T10:59:21Z</time>
      </trkpt>
      <trkpt lat="45.97022" lon="4.85593">
        <ele>284</ele>
        <time>2018-01-19T10:59:22Z</time>
      </trkpt>
      <trkpt lat="45.97025" lon="4.85584">
        <ele>284</ele>
        <time>2018-01-19T10:59:23Z</time>
      </trkpt>
      <trkpt lat="45.97027" lon="4.85576">
        <ele>283</ele>
        <time>2018-01-19T10:59:24Z</time>
      </trkpt>
      <trkpt lat="45.9703" lon="4.85569">
        <ele>283</ele>
        <time>2018-01-19T10:59:25Z</time>
      </trkpt>
      <trkpt lat="45.97032" lon="4.85561">
        <ele>283</ele>
        <time>2018-01-19T10:59:26Z</time>
      </trkpt>
      <trkpt lat="45.97034" lon="4.85551">
        <ele>283</ele>
        <time>2018-01-19T10:59:27Z</time>
      </trkpt>
      <trkpt lat="45.97037" lon="4.85544">
        <ele>282</ele>
        <time>2018-01-19T10:59:28Z</time>
      </trkpt>
      <trkpt lat="45.97039" lon="4.85535">
        <ele>282</ele>
        <time>2018-01-19T10:59:29Z</time>
      </trkpt>
      <trkpt lat="45.9704" lon="4.85527">
        <ele>282</ele>
        <time>2018-01-19T10:59:30Z</time>
      </trkpt>
      <trkpt lat="45.97042" lon="4.85519">
        <ele>282</ele>
        <time>2018-01-19T10:59:31Z</time>
      </trkpt>
      <trkpt lat="45.97045" lon="4.85513">
        <ele>282</ele>
        <time>2018-01-19T10:59:32Z</time>
      </trkpt>
      <trkpt lat="45.97047" lon="4.85505">
        <ele>282</ele>
        <time>2018-01-19T10:59:33Z</time>
      </trkpt>
      <trkpt lat="45.97049" lon="4.85497">
        <ele>281</ele>
        <time>2018-01-19T10:59:34Z</time>
      </trkpt>
      <trkpt lat="45.97052" lon="4.85491">
        <ele>281</ele>
        <time>2018-01-19T10:59:35Z</time>
      </trkpt>
      <trkpt lat="45.97054" lon="4.85484">
        <ele>281</ele>
        <time>2018-01-19T10:59:36Z</time>
      </trkpt>
      <trkpt lat="45.97057" lon="4.85476">
        <ele>281</ele>
        <time>2018-01-19T10:59:37Z</time>
      </trkpt>
      <trkpt lat="45.97059" lon="4.85469">
        <ele>281</ele>
        <time>2018-01-19T10:59:38Z</time>
      </trkpt>
      <trkpt lat="45.97062" lon="4.8546">
        <ele>281</ele>
        <time>2018-01-19T10:59:39Z</time>
      </trkpt>
      <trkpt lat="45.97065" lon="4.85452">
        <ele>281</ele>
        <time>2018-01-19T10:59:40Z</time>
      </trkpt>
      <trkpt lat="45.97068" lon="4.85443">
        <ele>281</ele>
        <time>2018-01-19T10:59:41Z</time>
      </trkpt>
      <trkpt lat="45.97071" lon="4.85435">
        <ele>281</ele>
        <time>2018-01-19T10:59:42Z</time>
      </trkpt>
      <trkpt lat="45.97073" lon="4.85426">
        <ele>281</ele>
        <time>2018-01-19T10:59:43Z</time>
      </trkpt>
      <trkpt lat="45.97076" lon="4.85416">
        <ele>280</ele>
        <time>2018-01-19T10:59:44Z</time>
      </trkpt>
      <trkpt lat="45.97077" lon="4.85406">
        <ele>281</ele>
        <time>2018-01-19T10:59:45Z</time>
      </trkpt>
      <trkpt lat="45.9708" lon="4.85398">
        <ele>281</ele>
        <time>2018-01-19T10:59:46Z</time>
      </trkpt>
      <trkpt lat="45.97082" lon="4.8539">
        <ele>281</ele>
        <time>2018-01-19T10:59:47Z</time>
      </trkpt>
      <trkpt lat="45.97085" lon="4.85383">
        <ele>280</ele>
        <time>2018-01-19T10:59:48Z</time>
      </trkpt>
      <trkpt lat="45.97087" lon="4.85375">
        <ele>280</ele>
        <time>2018-01-19T10:59:49Z</time>
      </trkpt>
      <trkpt lat="45.9709" lon="4.85368">
        <ele>280</ele>
        <time>2018-01-19T10:59:50Z</time>
      </trkpt>
      <trkpt lat="45.97092" lon="4.85361">
        <ele>280</ele>
        <time>2018-01-19T10:59:51Z</time>
      </trkpt>
      <trkpt lat="45.97094" lon="4.85354">
        <ele>280</ele>
        <time>2018-01-19T10:59:52Z</time>
      </trkpt>
      <trkpt lat="45.97097" lon="4.85347">
        <ele>280</ele>
        <time>2018-01-19T10:59:53Z</time>
      </trkpt>
      <trkpt lat="45.97099" lon="4.8534">
        <ele>280</ele>
        <time>2018-01-19T10:59:54Z</time>
      </trkpt>
      <trkpt lat="45.97101" lon="4.85333">
        <ele>280</ele>
        <time>2018-01-19T10:59:55Z</time>
      </trkpt>
      <trkpt lat="45.97106" lon="4.85322">
        <ele>280</ele>
        <time>2018-01-19T10:59:57Z</time>
      </trkpt>
      <trkpt lat="45.97108" lon="4.85315">
        <ele>280</ele>
        <time>2018-01-19T10:59:58Z</time>
      </trkpt>
      <trkpt lat="45.9711" lon="4.85308">
        <ele>280</ele>
        <time>2018-01-19T10:59:59Z</time>
      </trkpt>
      <trkpt lat="45.97112" lon="4.85303">
        <ele>280</ele>
        <time>2018-01-19T11:00:00Z</time>
      </trkpt>
      <trkpt lat="45.97116" lon="4.85295">
        <ele>280</ele>
        <time>2018-01-19T11:00:01Z</time>
      </trkpt>
      <trkpt lat="45.97122" lon="4.85288">
        <ele>280</ele>
        <time>2018-01-19T11:00:02Z</time>
      </trkpt>
      <trkpt lat="45.97125" lon="4.8528">
        <ele>280</ele>
        <time>2018-01-19T11:00:03Z</time>
      </trkpt>
      <trkpt lat="45.97129" lon="4.85273">
        <ele>279</ele>
        <time>2018-01-19T11:00:04Z</time>
      </trkpt>
      <trkpt lat="45.97133" lon="4.85267">
        <ele>279</ele>
        <time>2018-01-19T11:00:05Z</time>
      </trkpt>
      <trkpt lat="45.97136" lon="4.85261">
        <ele>279</ele>
        <time>2018-01-19T11:00:06Z</time>
      </trkpt>
      <trkpt lat="45.9714" lon="4.85255">
        <ele>279</ele>
        <time>2018-01-19T11:00:07Z</time>
      </trkpt>
      <trkpt lat="45.97143" lon="4.85248">
        <ele>279</ele>
        <time>2018-01-19T11:00:08Z</time>
      </trkpt>
      <trkpt lat="45.97147" lon="4.8524">
        <ele>279</ele>
        <time>2018-01-19T11:00:09Z</time>
      </trkpt>
      <trkpt lat="45.9715" lon="4.85234">
        <ele>279</ele>
        <time>2018-01-19T11:00:10Z</time>
      </trkpt>
      <trkpt lat="45.97153" lon="4.85228">
        <ele>279</ele>
        <time>2018-01-19T11:00:11Z</time>
      </trkpt>
      <trkpt lat="45.97156" lon="4.8522">
        <ele>279</ele>
        <time>2018-01-19T11:00:12Z</time>
      </trkpt>
      <trkpt lat="45.9716" lon="4.85213">
        <ele>279</ele>
        <time>2018-01-19T11:00:13Z</time>
      </trkpt>
      <trkpt lat="45.97163" lon="4.85205">
        <ele>279</ele>
        <time>2018-01-19T11:00:14Z</time>
      </trkpt>
      <trkpt lat="45.97166" lon="4.85199">
        <ele>279</ele>
        <time>2018-01-19T11:00:15Z</time>
      </trkpt>
      <trkpt lat="45.97172" lon="4.8519">
        <ele>278</ele>
        <time>2018-01-19T11:00:16Z</time>
      </trkpt>
      <trkpt lat="45.97176" lon="4.85182">
        <ele>278</ele>
        <time>2018-01-19T11:00:17Z</time>
      </trkpt>
      <trkpt lat="45.97179" lon="4.85176">
        <ele>278</ele>
        <time>2018-01-19T11:00:18Z</time>
      </trkpt>
      <trkpt lat="45.97183" lon="4.85168">
        <ele>278</ele>
        <time>2018-01-19T11:00:19Z</time>
      </trkpt>
      <trkpt lat="45.97186" lon="4.85159">
        <ele>278</ele>
        <time>2018-01-19T11:00:20Z</time>
      </trkpt>
      <trkpt lat="45.97189" lon="4.85151">
        <ele>278</ele>
        <time>2018-01-19T11:00:21Z</time>
      </trkpt>
      <trkpt lat="45.97194" lon="4.85143">
        <ele>278</ele>
        <time>2018-01-19T11:00:22Z</time>
      </trkpt>
      <trkpt lat="45.97197" lon="4.85136">
        <ele>278</ele>
        <time>2018-01-19T11:00:23Z</time>
      </trkpt>
      <trkpt lat="45.972" lon="4.85127">
        <ele>278</ele>
        <time>2018-01-19T11:00:24Z</time>
      </trkpt>
      <trkpt lat="45.97204" lon="4.85119">
        <ele>278</ele>
        <time>2018-01-19T11:00:25Z</time>
      </trkpt>
      <trkpt lat="45.97208" lon="4.8511">
        <ele>278</ele>
        <time>2018-01-19T11:00:26Z</time>
      </trkpt>
      <trkpt lat="45.97212" lon="4.85103">
        <ele>278</ele>
        <time>2018-01-19T11:00:27Z</time>
      </trkpt>
      <trkpt lat="45.97216" lon="4.85094">
        <ele>278</ele>
        <time>2018-01-19T11:00:28Z</time>
      </trkpt>
      <trkpt lat="45.9722" lon="4.85087">
        <ele>278</ele>
        <time>2018-01-19T11:00:29Z</time>
      </trkpt>
      <trkpt lat="45.97222" lon="4.8508">
        <ele>278</ele>
        <time>2018-01-19T11:00:30Z</time>
      </trkpt>
      <trkpt lat="45.97226" lon="4.85072">
        <ele>278</ele>
        <time>2018-01-19T11:00:31Z</time>
      </trkpt>
      <trkpt lat="45.9723" lon="4.85065">
        <ele>278</ele>
        <time>2018-01-19T11:00:32Z</time>
      </trkpt>
      <trkpt lat="45.97232" lon="4.85058">
        <ele>279</ele>
        <time>2018-01-19T11:00:33Z</time>
      </trkpt>
      <trkpt lat="45.97237" lon="4.8505">
        <ele>279</ele>
        <time>2018-01-19T11:00:34Z</time>
      </trkpt>
      <trkpt lat="45.9724" lon="4.85042">
        <ele>279</ele>
        <time>2018-01-19T11:00:35Z</time>
      </trkpt>
      <trkpt lat="45.97244" lon="4.85035">
        <ele>279</ele>
        <time>2018-01-19T11:00:36Z</time>
      </trkpt>
      <trkpt lat="45.97247" lon="4.85028">
        <ele>279</ele>
        <time>2018-01-19T11:00:37Z</time>
      </trkpt>
      <trkpt lat="45.9725" lon="4.85021">
        <ele>279</ele>
        <time>2018-01-19T11:00:38Z</time>
      </trkpt>
      <trkpt lat="45.97253" lon="4.85014">
        <ele>279</ele>
        <time>2018-01-19T11:00:39Z</time>
      </trkpt>
      <trkpt lat="45.97257" lon="4.85006">
        <ele>279</ele>
        <time>2018-01-19T11:00:40Z</time>
      </trkpt>
      <trkpt lat="45.97261" lon="4.84999">
        <ele>279</ele>
        <time>2018-01-19T11:00:41Z</time>
      </trkpt>
      <trkpt lat="45.97264" lon="4.84992">
        <ele>279</ele>
        <time>2018-01-19T11:00:42Z</time>
      </trkpt>
      <trkpt lat="45.97267" lon="4.84985">
        <ele>279</ele>
        <time>2018-01-19T11:00:43Z</time>
      </trkpt>
      <trkpt lat="45.97271" lon="4.84978">
        <ele>278</ele>
        <time>2018-01-19T11:00:44Z</time>
      </trkpt>
      <trkpt lat="45.97274" lon="4.84971">
        <ele>278</ele>
        <time>2018-01-19T11:00:45Z</time>
      </trkpt>
      <trkpt lat="45.97278" lon="4.84965">
        <ele>278</ele>
        <time>2018-01-19T11:00:46Z</time>
      </trkpt>
      <trkpt lat="45.97281" lon="4.8496">
        <ele>278</ele>
        <time>2018-01-19T11:00:47Z</time>
      </trkpt>
      <trkpt lat="45.97284" lon="4.84954">
        <ele>278</ele>
        <time>2018-01-19T11:00:48Z</time>
      </trkpt>
      <trkpt lat="45.97287" lon="4.84947">
        <ele>278</ele>
        <time>2018-01-19T11:00:49Z</time>
      </trkpt>
      <trkpt lat="45.9729" lon="4.84942">
        <ele>278</ele>
        <time>2018-01-19T11:00:50Z</time>
      </trkpt>
      <trkpt lat="45.97294" lon="4.84935">
        <ele>278</ele>
        <time>2018-01-19T11:00:51Z</time>
      </trkpt>
      <trkpt lat="45.97298" lon="4.84928">
        <ele>278</ele>
        <time>2018-01-19T11:00:52Z</time>
      </trkpt>
      <trkpt lat="45.97301" lon="4.84922">
        <ele>278</ele>
        <time>2018-01-19T11:00:53Z</time>
      </trkpt>
      <trkpt lat="45.97303" lon="4.84917">
        <ele>278</ele>
        <time>2018-01-19T11:00:54Z</time>
      </trkpt>
      <trkpt lat="45.97308" lon="4.84909">
        <ele>278</ele>
        <time>2018-01-19T11:00:55Z</time>
      </trkpt>
      <trkpt lat="45.97312" lon="4.84903">
        <ele>278</ele>
        <time>2018-01-19T11:00:56Z</time>
      </trkpt>
      <trkpt lat="45.97317" lon="4.84898">
        <ele>278</ele>
        <time>2018-01-19T11:00:58Z</time>
      </trkpt>
      <trkpt lat="45.9732" lon="4.84892">
        <ele>278</ele>
        <time>2018-01-19T11:00:59Z</time>
      </trkpt>
      <trkpt lat="45.97326" lon="4.84883">
        <ele>278</ele>
        <time>2018-01-19T11:01:01Z</time>
      </trkpt>
      <trkpt lat="45.97329" lon="4.84878">
        <ele>278</ele>
        <time>2018-01-19T11:01:02Z</time>
      </trkpt>
      <trkpt lat="45.97332" lon="4.84873">
        <ele>278</ele>
        <time>2018-01-19T11:01:03Z</time>
      </trkpt>
      <trkpt lat="45.97335" lon="4.84867">
        <ele>277</ele>
        <time>2018-01-19T11:01:04Z</time>
      </trkpt>
      <trkpt lat="45.9734" lon="4.84856">
        <ele>277</ele>
        <time>2018-01-19T11:01:06Z</time>
      </trkpt>
      <trkpt lat="45.97343" lon="4.84848">
        <ele>277</ele>
        <time>2018-01-19T11:01:07Z</time>
      </trkpt>
      <trkpt lat="45.97347" lon="4.84837">
        <ele>277</ele>
        <time>2018-01-19T11:01:09Z</time>
      </trkpt>
      <trkpt lat="45.9735" lon="4.8483">
        <ele>278</ele>
        <time>2018-01-19T11:01:10Z</time>
      </trkpt>
      <trkpt lat="45.97354" lon="4.84818">
        <ele>278</ele>
        <time>2018-01-19T11:01:12Z</time>
      </trkpt>
      <trkpt lat="45.97354" lon="4.84811">
        <ele>278</ele>
        <time>2018-01-19T11:01:13Z</time>
      </trkpt>
      <trkpt lat="45.97358" lon="4.84801">
        <ele>278</ele>
        <time>2018-01-19T11:01:14Z</time>
      </trkpt>
      <trkpt lat="45.97362" lon="4.84794">
        <ele>278</ele>
        <time>2018-01-19T11:01:15Z</time>
      </trkpt>
      <trkpt lat="45.97365" lon="4.84787">
        <ele>278</ele>
        <time>2018-01-19T11:01:16Z</time>
      </trkpt>
      <trkpt lat="45.97367" lon="4.84783">
        <ele>278</ele>
        <time>2018-01-19T11:01:17Z</time>
      </trkpt>
      <trkpt lat="45.97369" lon="4.84777">
        <ele>278</ele>
        <time>2018-01-19T11:01:18Z</time>
      </trkpt>
      <trkpt lat="45.97372" lon="4.8477">
        <ele>278</ele>
        <time>2018-01-19T11:01:19Z</time>
      </trkpt>
      <trkpt lat="45.97375" lon="4.84764">
        <ele>278</ele>
        <time>2018-01-19T11:01:20Z</time>
      </trkpt>
      <trkpt lat="45.97379" lon="4.84756">
        <ele>278</ele>
        <time>2018-01-19T11:01:21Z</time>
      </trkpt>
      <trkpt lat="45.97382" lon="4.8475">
        <ele>278</ele>
        <time>2018-01-19T11:01:22Z</time>
      </trkpt>
      <trkpt lat="45.97386" lon="4.84744">
        <ele>278</ele>
        <time>2018-01-19T11:01:23Z</time>
      </trkpt>
      <trkpt lat="45.9739" lon="4.8474">
        <ele>278</ele>
        <time>2018-01-19T11:01:24Z</time>
      </trkpt>
      <trkpt lat="45.97394" lon="4.84736">
        <ele>278</ele>
        <time>2018-01-19T11:01:25Z</time>
      </trkpt>
      <trkpt lat="45.97399" lon="4.84731">
        <ele>278</ele>
        <time>2018-01-19T11:01:26Z</time>
      </trkpt>
      <trkpt lat="45.97403" lon="4.84727">
        <ele>278</ele>
        <time>2018-01-19T11:01:27Z</time>
      </trkpt>
      <trkpt lat="45.97407" lon="4.84723">
        <ele>278</ele>
        <time>2018-01-19T11:01:28Z</time>
      </trkpt>
      <trkpt lat="45.97412" lon="4.84721">
        <ele>278</ele>
        <time>2018-01-19T11:01:29Z</time>
      </trkpt>
      <trkpt lat="45.97417" lon="4.84717">
        <ele>276</ele>
        <time>2018-01-19T11:01:30Z</time>
      </trkpt>
      <trkpt lat="45.97423" lon="4.84713">
        <ele>276</ele>
        <time>2018-01-19T11:01:31Z</time>
      </trkpt>
      <trkpt lat="45.97428" lon="4.84708">
        <ele>276</ele>
        <time>2018-01-19T11:01:32Z</time>
      </trkpt>
      <trkpt lat="45.97433" lon="4.84704">
        <ele>276</ele>
        <time>2018-01-19T11:01:33Z</time>
      </trkpt>
      <trkpt lat="45.97437" lon="4.84701">
        <ele>276</ele>
        <time>2018-01-19T11:01:34Z</time>
      </trkpt>
      <trkpt lat="45.97442" lon="4.84697">
        <ele>276</ele>
        <time>2018-01-19T11:01:35Z</time>
      </trkpt>
      <trkpt lat="45.97447" lon="4.84693">
        <ele>276</ele>
        <time>2018-01-19T11:01:36Z</time>
      </trkpt>
      <trkpt lat="45.97451" lon="4.8469">
        <ele>276</ele>
        <time>2018-01-19T11:01:37Z</time>
      </trkpt>
      <trkpt lat="45.97456" lon="4.84687">
        <ele>276</ele>
        <time>2018-01-19T11:01:38Z</time>
      </trkpt>
      <trkpt lat="45.9746" lon="4.84684">
        <ele>276</ele>
        <time>2018-01-19T11:01:39Z</time>
      </trkpt>
      <trkpt lat="45.97465" lon="4.84681">
        <ele>276</ele>
        <time>2018-01-19T11:01:40Z</time>
      </trkpt>
      <trkpt lat="45.9747" lon="4.84677">
        <ele>276</ele>
        <time>2018-01-19T11:01:41Z</time>
      </trkpt>
      <trkpt lat="45.97475" lon="4.84674">
        <ele>276</ele>
        <time>2018-01-19T11:01:42Z</time>
      </trkpt>
      <trkpt lat="45.9748" lon="4.8467">
        <ele>276</ele>
        <time>2018-01-19T11:01:43Z</time>
      </trkpt>
      <trkpt lat="45.97485" lon="4.84666">
        <ele>275</ele>
        <time>2018-01-19T11:01:44Z</time>
      </trkpt>
      <trkpt lat="45.9749" lon="4.84663">
        <ele>275</ele>
        <time>2018-01-19T11:01:45Z</time>
      </trkpt>
      <trkpt lat="45.97495" lon="4.84659">
        <ele>275</ele>
        <time>2018-01-19T11:01:46Z</time>
      </trkpt>
      <trkpt lat="45.975" lon="4.84656">
        <ele>275</ele>
        <time>2018-01-19T11:01:47Z</time>
      </trkpt>
      <trkpt lat="45.97505" lon="4.84653">
        <ele>275</ele>
        <time>2018-01-19T11:01:48Z</time>
      </trkpt>
      <trkpt lat="45.9751" lon="4.84649">
        <ele>275</ele>
        <time>2018-01-19T11:01:49Z</time>
      </trkpt>
      <trkpt lat="45.97515" lon="4.84646">
        <ele>275</ele>
        <time>2018-01-19T11:01:50Z</time>
      </trkpt>
      <trkpt lat="45.9752" lon="4.84643">
        <ele>275</ele>
        <time>2018-01-19T11:01:51Z</time>
      </trkpt>
      <trkpt lat="45.97524" lon="4.84639">
        <ele>275</ele>
        <time>2018-01-19T11:01:52Z</time>
      </trkpt>
      <trkpt lat="45.97529" lon="4.84635">
        <ele>275</ele>
        <time>2018-01-19T11:01:53Z</time>
      </trkpt>
      <trkpt lat="45.97533" lon="4.84632">
        <ele>275</ele>
        <time>2018-01-19T11:01:54Z</time>
      </trkpt>
      <trkpt lat="45.97538" lon="4.84627">
        <ele>275</ele>
        <time>2018-01-19T11:01:55Z</time>
      </trkpt>
      <trkpt lat="45.97543" lon="4.84624">
        <ele>274</ele>
        <time>2018-01-19T11:01:56Z</time>
      </trkpt>
      <trkpt lat="45.97548" lon="4.84619">
        <ele>274</ele>
        <time>2018-01-19T11:01:57Z</time>
      </trkpt>
      <trkpt lat="45.97553" lon="4.84615">
        <ele>274</ele>
        <time>2018-01-19T11:01:58Z</time>
      </trkpt>
      <trkpt lat="45.97557" lon="4.84609">
        <ele>274</ele>
        <time>2018-01-19T11:01:59Z</time>
      </trkpt>
      <trkpt lat="45.97562" lon="4.84604">
        <ele>274</ele>
        <time>2018-01-19T11:02:00Z</time>
      </trkpt>
      <trkpt lat="45.97567" lon="4.84598">
        <ele>274</ele>
        <time>2018-01-19T11:02:01Z</time>
      </trkpt>
      <trkpt lat="45.97571" lon="4.84593">
        <ele>274</ele>
        <time>2018-01-19T11:02:02Z</time>
      </trkpt>
      <trkpt lat="45.97576" lon="4.84588">
        <ele>274</ele>
        <time>2018-01-19T11:02:03Z</time>
      </trkpt>
      <trkpt lat="45.9758" lon="4.84583">
        <ele>274</ele>
        <time>2018-01-19T11:02:04Z</time>
      </trkpt>
      <trkpt lat="45.97584" lon="4.84578">
        <ele>274</ele>
        <time>2018-01-19T11:02:05Z</time>
      </trkpt>
      <trkpt lat="45.97588" lon="4.84573">
        <ele>274</ele>
        <time>2018-01-19T11:02:06Z</time>
      </trkpt>
      <trkpt lat="45.97592" lon="4.84568">
        <ele>274</ele>
        <time>2018-01-19T11:02:07Z</time>
      </trkpt>
      <trkpt lat="45.97596" lon="4.84562">
        <ele>274</ele>
        <time>2018-01-19T11:02:08Z</time>
      </trkpt>
      <trkpt lat="45.97599" lon="4.84558">
        <ele>275</ele>
        <time>2018-01-19T11:02:09Z</time>
      </trkpt>
      <trkpt lat="45.97603" lon="4.84553">
        <ele>275</ele>
        <time>2018-01-19T11:02:10Z</time>
      </trkpt>
      <trkpt lat="45.97606" lon="4.84549">
        <ele>275</ele>
        <time>2018-01-19T11:02:11Z</time>
      </trkpt>
      <trkpt lat="45.97613" lon="4.84541">
        <ele>275</ele>
        <time>2018-01-19T11:02:13Z</time>
      </trkpt>
      <trkpt lat="45.97617" lon="4.84535">
        <ele>275</ele>
        <time>2018-01-19T11:02:14Z</time>
      </trkpt>
      <trkpt lat="45.97622" lon="4.8453">
        <ele>275</ele>
        <time>2018-01-19T11:02:15Z</time>
      </trkpt>
      <trkpt lat="45.97627" lon="4.84524">
        <ele>275</ele>
        <time>2018-01-19T11:02:16Z</time>
      </trkpt>
      <trkpt lat="45.97631" lon="4.84518">
        <ele>275</ele>
        <time>2018-01-19T11:02:17Z</time>
      </trkpt>
      <trkpt lat="45.97636" lon="4.84512">
        <ele>275</ele>
        <time>2018-01-19T11:02:18Z</time>
      </trkpt>
      <trkpt lat="45.9764" lon="4.84507">
        <ele>275</ele>
        <time>2018-01-19T11:02:19Z</time>
      </trkpt>
      <trkpt lat="45.97645" lon="4.84503">
        <ele>275</ele>
        <time>2018-01-19T11:02:20Z</time>
      </trkpt>
      <trkpt lat="45.97649" lon="4.84499">
        <ele>275</ele>
        <time>2018-01-19T11:02:21Z</time>
      </trkpt>
      <trkpt lat="45.97654" lon="4.84494">
        <ele>275</ele>
        <time>2018-01-19T11:02:22Z</time>
      </trkpt>
      <trkpt lat="45.97658" lon="4.84491">
        <ele>275</ele>
        <time>2018-01-19T11:02:23Z</time>
      </trkpt>
      <trkpt lat="45.97663" lon="4.84487">
        <ele>275</ele>
        <time>2018-01-19T11:02:24Z</time>
      </trkpt>
      <trkpt lat="45.97667" lon="4.84483">
        <ele>276</ele>
        <time>2018-01-19T11:02:25Z</time>
      </trkpt>
      <trkpt lat="45.97673" lon="4.8448">
        <ele>276</ele>
        <time>2018-01-19T11:02:26Z</time>
      </trkpt>
      <trkpt lat="45.97678" lon="4.84476">
        <ele>276</ele>
        <time>2018-01-19T11:02:27Z</time>
      </trkpt>
      <trkpt lat="45.97683" lon="4.84473">
        <ele>277</ele>
        <time>2018-01-19T11:02:28Z</time>
      </trkpt>
      <trkpt lat="45.97689" lon="4.84469">
        <ele>277</ele>
        <time>2018-01-19T11:02:29Z</time>
      </trkpt>
      <trkpt lat="45.97694" lon="4.84465">
        <ele>277</ele>
        <time>2018-01-19T11:02:30Z</time>
      </trkpt>
      <trkpt lat="45.97699" lon="4.84461">
        <ele>277</ele>
        <time>2018-01-19T11:02:31Z</time>
      </trkpt>
      <trkpt lat="45.97704" lon="4.84459">
        <ele>277</ele>
        <time>2018-01-19T11:02:32Z</time>
      </trkpt>
      <trkpt lat="45.97709" lon="4.84459">
        <ele>277</ele>
        <time>2018-01-19T11:02:33Z</time>
      </trkpt>
      <trkpt lat="45.97715" lon="4.84457">
        <ele>277</ele>
        <time>2018-01-19T11:02:34Z</time>
      </trkpt>
      <trkpt lat="45.97721" lon="4.84455">
        <ele>277</ele>
        <time>2018-01-19T11:02:35Z</time>
      </trkpt>
      <trkpt lat="45.97727" lon="4.84452">
        <ele>277</ele>
        <time>2018-01-19T11:02:36Z</time>
      </trkpt>
      <trkpt lat="45.97733" lon="4.84451">
        <ele>277</ele>
        <time>2018-01-19T11:02:37Z</time>
      </trkpt>
      <trkpt lat="45.97738" lon="4.8445">
        <ele>277</ele>
        <time>2018-01-19T11:02:38Z</time>
      </trkpt>
      <trkpt lat="45.97745" lon="4.84448">
        <ele>277</ele>
        <time>2018-01-19T11:02:39Z</time>
      </trkpt>
      <trkpt lat="45.97751" lon="4.84446">
        <ele>277</ele>
        <time>2018-01-19T11:02:40Z</time>
      </trkpt>
      <trkpt lat="45.97758" lon="4.84444">
        <ele>277</ele>
        <time>2018-01-19T11:02:41Z</time>
      </trkpt>
      <trkpt lat="45.97764" lon="4.84442">
        <ele>277</ele>
        <time>2018-01-19T11:02:42Z</time>
      </trkpt>
      <trkpt lat="45.9777" lon="4.8444">
        <ele>277</ele>
        <time>2018-01-19T11:02:43Z</time>
      </trkpt>
      <trkpt lat="45.97776" lon="4.84438">
        <ele>277</ele>
        <time>2018-01-19T11:02:44Z</time>
      </trkpt>
      <trkpt lat="45.97782" lon="4.84436">
        <ele>277</ele>
        <time>2018-01-19T11:02:45Z</time>
      </trkpt>
      <trkpt lat="45.97788" lon="4.84433">
        <ele>277</ele>
        <time>2018-01-19T11:02:46Z</time>
      </trkpt>
      <trkpt lat="45.97794" lon="4.8443">
        <ele>277</ele>
        <time>2018-01-19T11:02:47Z</time>
      </trkpt>
      <trkpt lat="45.978" lon="4.84428">
        <ele>277</ele>
        <time>2018-01-19T11:02:48Z</time>
      </trkpt>
      <trkpt lat="45.97805" lon="4.84425">
        <ele>277</ele>
        <time>2018-01-19T11:02:49Z</time>
      </trkpt>
      <trkpt lat="45.97811" lon="4.84422">
        <ele>277</ele>
        <time>2018-01-19T11:02:50Z</time>
      </trkpt>
      <trkpt lat="45.97816" lon="4.84418">
        <ele>276</ele>
        <time>2018-01-19T11:02:51Z</time>
      </trkpt>
      <trkpt lat="45.97821" lon="4.84414">
        <ele>276</ele>
        <time>2018-01-19T11:02:52Z</time>
      </trkpt>
      <trkpt lat="45.97825" lon="4.8441">
        <ele>276</ele>
        <time>2018-01-19T11:02:53Z</time>
      </trkpt>
      <trkpt lat="45.97829" lon="4.84406">
        <ele>276</ele>
        <time>2018-01-19T11:02:54Z</time>
      </trkpt>
      <trkpt lat="45.97834" lon="4.84402">
        <ele>276</ele>
        <time>2018-01-19T11:02:55Z</time>
      </trkpt>
      <trkpt lat="45.97838" lon="4.84397">
        <ele>276</ele>
        <time>2018-01-19T11:02:56Z</time>
      </trkpt>
      <trkpt lat="45.97842" lon="4.84392">
        <ele>276</ele>
        <time>2018-01-19T11:02:57Z</time>
      </trkpt>
      <trkpt lat="45.97846" lon="4.84388">
        <ele>276</ele>
        <time>2018-01-19T11:02:58Z</time>
      </trkpt>
      <trkpt lat="45.9785" lon="4.84383">
        <ele>276</ele>
        <time>2018-01-19T11:02:59Z</time>
      </trkpt>
      <trkpt lat="45.97854" lon="4.84379">
        <ele>276</ele>
        <time>2018-01-19T11:03:00Z</time>
      </trkpt>
      <trkpt lat="45.97858" lon="4.84374">
        <ele>276</ele>
        <time>2018-01-19T11:03:01Z</time>
      </trkpt>
      <trkpt lat="45.97861" lon="4.84368">
        <ele>276</ele>
        <time>2018-01-19T11:03:02Z</time>
      </trkpt>
      <trkpt lat="45.97865" lon="4.84364">
        <ele>276</ele>
        <time>2018-01-19T11:03:03Z</time>
      </trkpt>
      <trkpt lat="45.97869" lon="4.84359">
        <ele>276</ele>
        <time>2018-01-19T11:03:04Z</time>
      </trkpt>
      <trkpt lat="45.97872" lon="4.84353">
        <ele>276</ele>
        <time>2018-01-19T11:03:05Z</time>
      </trkpt>
      <trkpt lat="45.97876" lon="4.84347">
        <ele>275</ele>
        <time>2018-01-19T11:03:06Z</time>
      </trkpt>
      <trkpt lat="45.9788" lon="4.84341">
        <ele>275</ele>
        <time>2018-01-19T11:03:07Z</time>
      </trkpt>
      <trkpt lat="45.97883" lon="4.84335">
        <ele>275</ele>
        <time>2018-01-19T11:03:08Z</time>
      </trkpt>
      <trkpt lat="45.97886" lon="4.8433">
        <ele>275</ele>
        <time>2018-01-19T11:03:09Z</time>
      </trkpt>
      <trkpt lat="45.9789" lon="4.84325">
        <ele>275</ele>
        <time>2018-01-19T11:03:10Z</time>
      </trkpt>
      <trkpt lat="45.97893" lon="4.84319">
        <ele>275</ele>
        <time>2018-01-19T11:03:11Z</time>
      </trkpt>
      <trkpt lat="45.97897" lon="4.84313">
        <ele>275</ele>
        <time>2018-01-19T11:03:12Z</time>
      </trkpt>
      <trkpt lat="45.97901" lon="4.84307">
        <ele>275</ele>
        <time>2018-01-19T11:03:13Z</time>
      </trkpt>
      <trkpt lat="45.97904" lon="4.84302">
        <ele>275</ele>
        <time>2018-01-19T11:03:14Z</time>
      </trkpt>
      <trkpt lat="45.97908" lon="4.84297">
        <ele>275</ele>
        <time>2018-01-19T11:03:15Z</time>
      </trkpt>
      <trkpt lat="45.97912" lon="4.84292">
        <ele>275</ele>
        <time>2018-01-19T11:03:16Z</time>
      </trkpt>
      <trkpt lat="45.97915" lon="4.84288">
        <ele>275</ele>
        <time>2018-01-19T11:03:17Z</time>
      </trkpt>
      <trkpt lat="45.97918" lon="4.84283">
        <ele>275</ele>
        <time>2018-01-19T11:03:18Z</time>
      </trkpt>
      <trkpt lat="45.97922" lon="4.84278">
        <ele>275</ele>
        <time>2018-01-19T11:03:19Z</time>
      </trkpt>
      <trkpt lat="45.97926" lon="4.84273">
        <ele>275</ele>
        <time>2018-01-19T11:03:20Z</time>
      </trkpt>
      <trkpt lat="45.97931" lon="4.84269">
        <ele>275</ele>
        <time>2018-01-19T11:03:21Z</time>
      </trkpt>
      <trkpt lat="45.97935" lon="4.84266">
        <ele>275</ele>
        <time>2018-01-19T11:03:22Z</time>
      </trkpt>
      <trkpt lat="45.97939" lon="4.84261">
        <ele>275</ele>
        <time>2018-01-19T11:03:23Z</time>
      </trkpt>
      <trkpt lat="45.97943" lon="4.84258">
        <ele>275</ele>
        <time>2018-01-19T11:03:24Z</time>
      </trkpt>
      <trkpt lat="45.97947" lon="4.84254">
        <ele>275</ele>
        <time>2018-01-19T11:03:25Z</time>
      </trkpt>
      <trkpt lat="45.97952" lon="4.84249">
        <ele>275</ele>
        <time>2018-01-19T11:03:26Z</time>
      </trkpt>
      <trkpt lat="45.97956" lon="4.84244">
        <ele>275</ele>
        <time>2018-01-19T11:03:27Z</time>
      </trkpt>
      <trkpt lat="45.9796" lon="4.84241">
        <ele>274</ele>
        <time>2018-01-19T11:03:28Z</time>
      </trkpt>
      <trkpt lat="45.97965" lon="4.84236">
        <ele>274</ele>
        <time>2018-01-19T11:03:29Z</time>
      </trkpt>
      <trkpt lat="45.97969" lon="4.84232">
        <ele>274</ele>
        <time>2018-01-19T11:03:30Z</time>
      </trkpt>
      <trkpt lat="45.97975" lon="4.84228">
        <ele>274</ele>
        <time>2018-01-19T11:03:31Z</time>
      </trkpt>
      <trkpt lat="45.9798" lon="4.84223">
        <ele>274</ele>
        <time>2018-01-19T11:03:32Z</time>
      </trkpt>
      <trkpt lat="45.97985" lon="4.84218">
        <ele>274</ele>
        <time>2018-01-19T11:03:33Z</time>
      </trkpt>
      <trkpt lat="45.9799" lon="4.84214">
        <ele>274</ele>
        <time>2018-01-19T11:03:34Z</time>
      </trkpt>
      <trkpt lat="45.97995" lon="4.84208">
        <ele>274</ele>
        <time>2018-01-19T11:03:35Z</time>
      </trkpt>
      <trkpt lat="45.98" lon="4.84204">
        <ele>274</ele>
        <time>2018-01-19T11:03:36Z</time>
      </trkpt>
      <trkpt lat="45.98005" lon="4.84199">
        <ele>274</ele>
        <time>2018-01-19T11:03:37Z</time>
      </trkpt>
      <trkpt lat="45.98008" lon="4.84196">
        <ele>274</ele>
        <time>2018-01-19T11:03:38Z</time>
      </trkpt>
      <trkpt lat="45.98013" lon="4.84191">
        <ele>274</ele>
        <time>2018-01-19T11:03:39Z</time>
      </trkpt>
      <trkpt lat="45.98017" lon="4.84187">
        <ele>274</ele>
        <time>2018-01-19T11:03:40Z</time>
      </trkpt>
      <trkpt lat="45.98022" lon="4.84184">
        <ele>274</ele>
        <time>2018-01-19T11:03:41Z</time>
      </trkpt>
      <trkpt lat="45.98025" lon="4.84179">
        <ele>274</ele>
        <time>2018-01-19T11:03:42Z</time>
      </trkpt>
      <trkpt lat="45.98029" lon="4.84175">
        <ele>274</ele>
        <time>2018-01-19T11:03:43Z</time>
      </trkpt>
      <trkpt lat="45.98034" lon="4.84171">
        <ele>273</ele>
        <time>2018-01-19T11:03:44Z</time>
      </trkpt>
      <trkpt lat="45.98039" lon="4.84167">
        <ele>273</ele>
        <time>2018-01-19T11:03:45Z</time>
      </trkpt>
      <trkpt lat="45.98043" lon="4.84163">
        <ele>273</ele>
        <time>2018-01-19T11:03:46Z</time>
      </trkpt>
      <trkpt lat="45.98047" lon="4.84159">
        <ele>273</ele>
        <time>2018-01-19T11:03:47Z</time>
      </trkpt>
      <trkpt lat="45.9805" lon="4.84154">
        <ele>273</ele>
        <time>2018-01-19T11:03:48Z</time>
      </trkpt>
      <trkpt lat="45.98056" lon="4.84149">
        <ele>273</ele>
        <time>2018-01-19T11:03:49Z</time>
      </trkpt>
      <trkpt lat="45.9806" lon="4.84145">
        <ele>273</ele>
        <time>2018-01-19T11:03:50Z</time>
      </trkpt>
      <trkpt lat="45.98064" lon="4.84141">
        <ele>273</ele>
        <time>2018-01-19T11:03:51Z</time>
      </trkpt>
      <trkpt lat="45.98069" lon="4.84137">
        <ele>273</ele>
        <time>2018-01-19T11:03:52Z</time>
      </trkpt>
      <trkpt lat="45.98073" lon="4.84133">
        <ele>273</ele>
        <time>2018-01-19T11:03:53Z</time>
      </trkpt>
      <trkpt lat="45.98078" lon="4.84129">
        <ele>273</ele>
        <time>2018-01-19T11:03:54Z</time>
      </trkpt>
      <trkpt lat="45.98082" lon="4.84125">
        <ele>273</ele>
        <time>2018-01-19T11:03:55Z</time>
      </trkpt>
      <trkpt lat="45.98086" lon="4.84121">
        <ele>273</ele>
        <time>2018-01-19T11:03:56Z</time>
      </trkpt>
      <trkpt lat="45.98089" lon="4.84117">
        <ele>273</ele>
        <time>2018-01-19T11:03:57Z</time>
      </trkpt>
      <trkpt lat="45.98094" lon="4.84113">
        <ele>273</ele>
        <time>2018-01-19T11:03:58Z</time>
      </trkpt>
      <trkpt lat="45.98098" lon="4.84109">
        <ele>273</ele>
        <time>2018-01-19T11:03:59Z</time>
      </trkpt>
      <trkpt lat="45.98103" lon="4.84105">
        <ele>273</ele>
        <time>2018-01-19T11:04:00Z</time>
      </trkpt>
      <trkpt lat="45.98108" lon="4.841">
        <ele>273</ele>
        <time>2018-01-19T11:04:01Z</time>
      </trkpt>
      <trkpt lat="45.98114" lon="4.84095">
        <ele>273</ele>
        <time>2018-01-19T11:04:02Z</time>
      </trkpt>
      <trkpt lat="45.98119" lon="4.8409">
        <ele>273</ele>
        <time>2018-01-19T11:04:03Z</time>
      </trkpt>
      <trkpt lat="45.98123" lon="4.84084">
        <ele>273</ele>
        <time>2018-01-19T11:04:04Z</time>
      </trkpt>
      <trkpt lat="45.98129" lon="4.84078">
        <ele>273</ele>
        <time>2018-01-19T11:04:05Z</time>
      </trkpt>
      <trkpt lat="45.98134" lon="4.84071">
        <ele>273</ele>
        <time>2018-01-19T11:04:06Z</time>
      </trkpt>
      <trkpt lat="45.98139" lon="4.84064">
        <ele>273</ele>
        <time>2018-01-19T11:04:07Z</time>
      </trkpt>
      <trkpt lat="45.98144" lon="4.84056">
        <ele>273</ele>
        <time>2018-01-19T11:04:08Z</time>
      </trkpt>
      <trkpt lat="45.98148" lon="4.84049">
        <ele>273</ele>
        <time>2018-01-19T11:04:09Z</time>
      </trkpt>
      <trkpt lat="45.98152" lon="4.84042">
        <ele>273</ele>
        <time>2018-01-19T11:04:10Z</time>
      </trkpt>
      <trkpt lat="45.98157" lon="4.84034">
        <ele>273</ele>
        <time>2018-01-19T11:04:11Z</time>
      </trkpt>
      <trkpt lat="45.98162" lon="4.84027">
        <ele>273</ele>
        <time>2018-01-19T11:04:12Z</time>
      </trkpt>
      <trkpt lat="45.98166" lon="4.84019">
        <ele>273</ele>
        <time>2018-01-19T11:04:13Z</time>
      </trkpt>
      <trkpt lat="45.9817" lon="4.84011">
        <ele>273</ele>
        <time>2018-01-19T11:04:14Z</time>
      </trkpt>
      <trkpt lat="45.98174" lon="4.84003">
        <ele>273</ele>
        <time>2018-01-19T11:04:15Z</time>
      </trkpt>
      <trkpt lat="45.98176" lon="4.83996">
        <ele>273</ele>
        <time>2018-01-19T11:04:16Z</time>
      </trkpt>
      <trkpt lat="45.98179" lon="4.83987">
        <ele>273</ele>
        <time>2018-01-19T11:04:17Z</time>
      </trkpt>
      <trkpt lat="45.98183" lon="4.83977">
        <ele>273</ele>
        <time>2018-01-19T11:04:18Z</time>
      </trkpt>
      <trkpt lat="45.98186" lon="4.83969">
        <ele>273</ele>
        <time>2018-01-19T11:04:19Z</time>
      </trkpt>
      <trkpt lat="45.98189" lon="4.83961">
        <ele>273</ele>
        <time>2018-01-19T11:04:20Z</time>
      </trkpt>
      <trkpt lat="45.98192" lon="4.83953">
        <ele>273</ele>
        <time>2018-01-19T11:04:21Z</time>
      </trkpt>
      <trkpt lat="45.98195" lon="4.83945">
        <ele>273</ele>
        <time>2018-01-19T11:04:22Z</time>
      </trkpt>
      <trkpt lat="45.98198" lon="4.83937">
        <ele>273</ele>
        <time>2018-01-19T11:04:23Z</time>
      </trkpt>
      <trkpt lat="45.98202" lon="4.83929">
        <ele>273</ele>
        <time>2018-01-19T11:04:24Z</time>
      </trkpt>
      <trkpt lat="45.98204" lon="4.83921">
        <ele>273</ele>
        <time>2018-01-19T11:04:25Z</time>
      </trkpt>
      <trkpt lat="45.98207" lon="4.83914">
        <ele>273</ele>
        <time>2018-01-19T11:04:26Z</time>
      </trkpt>
      <trkpt lat="45.9821" lon="4.83906">
        <ele>273</ele>
        <time>2018-01-19T11:04:27Z</time>
      </trkpt>
      <trkpt lat="45.98211" lon="4.83898">
        <ele>273</ele>
        <time>2018-01-19T11:04:28Z</time>
      </trkpt>
      <trkpt lat="45.98214" lon="4.83891">
        <ele>273</ele>
        <time>2018-01-19T11:04:29Z</time>
      </trkpt>
      <trkpt lat="45.98217" lon="4.83884">
        <ele>272</ele>
        <time>2018-01-19T11:04:30Z</time>
      </trkpt>
      <trkpt lat="45.9822" lon="4.83877">
        <ele>272</ele>
        <time>2018-01-19T11:04:31Z</time>
      </trkpt>
      <trkpt lat="45.98223" lon="4.8387">
        <ele>272</ele>
        <time>2018-01-19T11:04:32Z</time>
      </trkpt>
      <trkpt lat="45.98226" lon="4.83862">
        <ele>272</ele>
        <time>2018-01-19T11:04:33Z</time>
      </trkpt>
      <trkpt lat="45.98229" lon="4.83856">
        <ele>272</ele>
        <time>2018-01-19T11:04:34Z</time>
      </trkpt>
      <trkpt lat="45.98231" lon="4.8385">
        <ele>272</ele>
        <time>2018-01-19T11:04:35Z</time>
      </trkpt>
      <trkpt lat="45.98233" lon="4.83843">
        <ele>272</ele>
        <time>2018-01-19T11:04:36Z</time>
      </trkpt>
      <trkpt lat="45.98236" lon="4.83835">
        <ele>272</ele>
        <time>2018-01-19T11:04:37Z</time>
      </trkpt>
      <trkpt lat="45.98239" lon="4.83828">
        <ele>272</ele>
        <time>2018-01-19T11:04:38Z</time>
      </trkpt>
      <trkpt lat="45.98241" lon="4.83821">
        <ele>272</ele>
        <time>2018-01-19T11:04:39Z</time>
      </trkpt>
      <trkpt lat="45.98243" lon="4.83815">
        <ele>272</ele>
        <time>2018-01-19T11:04:40Z</time>
      </trkpt>
      <trkpt lat="45.98246" lon="4.83808">
        <ele>272</ele>
        <time>2018-01-19T11:04:41Z</time>
      </trkpt>
      <trkpt lat="45.98248" lon="4.83801">
        <ele>272</ele>
        <time>2018-01-19T11:04:42Z</time>
      </trkpt>
      <trkpt lat="45.98251" lon="4.83795">
        <ele>272</ele>
        <time>2018-01-19T11:04:43Z</time>
      </trkpt>
      <trkpt lat="45.98253" lon="4.83788">
        <ele>272</ele>
        <time>2018-01-19T11:04:44Z</time>
      </trkpt>
      <trkpt lat="45.98255" lon="4.83781">
        <ele>272</ele>
        <time>2018-01-19T11:04:45Z</time>
      </trkpt>
      <trkpt lat="45.98257" lon="4.83774">
        <ele>272</ele>
        <time>2018-01-19T11:04:46Z</time>
      </trkpt>
      <trkpt lat="45.98259" lon="4.83766">
        <ele>272</ele>
        <time>2018-01-19T11:04:47Z</time>
      </trkpt>
      <trkpt lat="45.98261" lon="4.83758">
        <ele>272</ele>
        <time>2018-01-19T11:04:48Z</time>
      </trkpt>
      <trkpt lat="45.98265" lon="4.8375">
        <ele>272</ele>
        <time>2018-01-19T11:04:49Z</time>
      </trkpt>
      <trkpt lat="45.98267" lon="4.83744">
        <ele>272</ele>
        <time>2018-01-19T11:04:50Z</time>
      </trkpt>
      <trkpt lat="45.9827" lon="4.83737">
        <ele>272</ele>
        <time>2018-01-19T11:04:51Z</time>
      </trkpt>
      <trkpt lat="45.98273" lon="4.8373">
        <ele>272</ele>
        <time>2018-01-19T11:04:52Z</time>
      </trkpt>
      <trkpt lat="45.98274" lon="4.83723">
        <ele>272</ele>
        <time>2018-01-19T11:04:53Z</time>
      </trkpt>
      <trkpt lat="45.98277" lon="4.83716">
        <ele>272</ele>
        <time>2018-01-19T11:04:54Z</time>
      </trkpt>
      <trkpt lat="45.98279" lon="4.8371">
        <ele>272</ele>
        <time>2018-01-19T11:04:55Z</time>
      </trkpt>
      <trkpt lat="45.98281" lon="4.83704">
        <ele>272</ele>
        <time>2018-01-19T11:04:56Z</time>
      </trkpt>
      <trkpt lat="45.98283" lon="4.83697">
        <ele>272</ele>
        <time>2018-01-19T11:04:57Z</time>
      </trkpt>
      <trkpt lat="45.98285" lon="4.83691">
        <ele>272</ele>
        <time>2018-01-19T11:04:58Z</time>
      </trkpt>
      <trkpt lat="45.98287" lon="4.83684">
        <ele>272</ele>
        <time>2018-01-19T11:04:59Z</time>
      </trkpt>
      <trkpt lat="45.9829" lon="4.83678">
        <ele>272</ele>
        <time>2018-01-19T11:05:00Z</time>
      </trkpt>
      <trkpt lat="45.98292" lon="4.83671">
        <ele>272</ele>
        <time>2018-01-19T11:05:01Z</time>
      </trkpt>
      <trkpt lat="45.98295" lon="4.83664">
        <ele>271</ele>
        <time>2018-01-19T11:05:02Z</time>
      </trkpt>
      <trkpt lat="45.98297" lon="4.83658">
        <ele>271</ele>
        <time>2018-01-19T11:05:03Z</time>
      </trkpt>
      <trkpt lat="45.98301" lon="4.83651">
        <ele>271</ele>
        <time>2018-01-19T11:05:04Z</time>
      </trkpt>
      <trkpt lat="45.98303" lon="4.83646">
        <ele>271</ele>
        <time>2018-01-19T11:05:05Z</time>
      </trkpt>
      <trkpt lat="45.98307" lon="4.83639">
        <ele>271</ele>
        <time>2018-01-19T11:05:06Z</time>
      </trkpt>
      <trkpt lat="45.9831" lon="4.83633">
        <ele>271</ele>
        <time>2018-01-19T11:05:07Z</time>
      </trkpt>
      <trkpt lat="45.98313" lon="4.83628">
        <ele>271</ele>
        <time>2018-01-19T11:05:08Z</time>
      </trkpt>
      <trkpt lat="45.98316" lon="4.83622">
        <ele>271</ele>
        <time>2018-01-19T11:05:09Z</time>
      </trkpt>
      <trkpt lat="45.9832" lon="4.83617">
        <ele>271</ele>
        <time>2018-01-19T11:05:10Z</time>
      </trkpt>
      <trkpt lat="45.98324" lon="4.83612">
        <ele>271</ele>
        <time>2018-01-19T11:05:11Z</time>
      </trkpt>
      <trkpt lat="45.98327" lon="4.83606">
        <ele>271</ele>
        <time>2018-01-19T11:05:12Z</time>
      </trkpt>
      <trkpt lat="45.98331" lon="4.836">
        <ele>271</ele>
        <time>2018-01-19T11:05:13Z</time>
      </trkpt>
      <trkpt lat="45.98335" lon="4.83594">
        <ele>270</ele>
        <time>2018-01-19T11:05:14Z</time>
      </trkpt>
      <trkpt lat="45.9834" lon="4.83589">
        <ele>270</ele>
        <time>2018-01-19T11:05:15Z</time>
      </trkpt>
      <trkpt lat="45.98345" lon="4.83582">
        <ele>270</ele>
        <time>2018-01-19T11:05:16Z</time>
      </trkpt>
      <trkpt lat="45.98349" lon="4.83575">
        <ele>269</ele>
        <time>2018-01-19T11:05:17Z</time>
      </trkpt>
      <trkpt lat="45.98354" lon="4.8357">
        <ele>269</ele>
        <time>2018-01-19T11:05:18Z</time>
      </trkpt>
      <trkpt lat="45.98359" lon="4.83564">
        <ele>269</ele>
        <time>2018-01-19T11:05:19Z</time>
      </trkpt>
      <trkpt lat="45.98364" lon="4.83558">
        <ele>269</ele>
        <time>2018-01-19T11:05:20Z</time>
      </trkpt>
      <trkpt lat="45.98368" lon="4.8355">
        <ele>269</ele>
        <time>2018-01-19T11:05:21Z</time>
      </trkpt>
      <trkpt lat="45.98372" lon="4.83546">
        <ele>269</ele>
        <time>2018-01-19T11:05:22Z</time>
      </trkpt>
      <trkpt lat="45.98377" lon="4.8354">
        <ele>269</ele>
        <time>2018-01-19T11:05:23Z</time>
      </trkpt>
      <trkpt lat="45.98381" lon="4.83534">
        <ele>269</ele>
        <time>2018-01-19T11:05:24Z</time>
      </trkpt>
      <trkpt lat="45.98385" lon="4.83529">
        <ele>269</ele>
        <time>2018-01-19T11:05:25Z</time>
      </trkpt>
      <trkpt lat="45.9839" lon="4.83523">
        <ele>269</ele>
        <time>2018-01-19T11:05:26Z</time>
      </trkpt>
      <trkpt lat="45.98394" lon="4.83517">
        <ele>269</ele>
        <time>2018-01-19T11:05:27Z</time>
      </trkpt>
      <trkpt lat="45.98397" lon="4.83512">
        <ele>269</ele>
        <time>2018-01-19T11:05:28Z</time>
      </trkpt>
      <trkpt lat="45.98401" lon="4.83506">
        <ele>269</ele>
        <time>2018-01-19T11:05:29Z</time>
      </trkpt>
      <trkpt lat="45.98405" lon="4.83501">
        <ele>268</ele>
        <time>2018-01-19T11:05:30Z</time>
      </trkpt>
      <trkpt lat="45.9841" lon="4.83496">
        <ele>268</ele>
        <time>2018-01-19T11:05:31Z</time>
      </trkpt>
      <trkpt lat="45.98415" lon="4.8349">
        <ele>268</ele>
        <time>2018-01-19T11:05:32Z</time>
      </trkpt>
      <trkpt lat="45.98418" lon="4.83483">
        <ele>268</ele>
        <time>2018-01-19T11:05:33Z</time>
      </trkpt>
      <trkpt lat="45.98422" lon="4.83478">
        <ele>268</ele>
        <time>2018-01-19T11:05:34Z</time>
      </trkpt>
      <trkpt lat="45.98426" lon="4.83472">
        <ele>268</ele>
        <time>2018-01-19T11:05:35Z</time>
      </trkpt>
      <trkpt lat="45.98429" lon="4.83468">
        <ele>268</ele>
        <time>2018-01-19T11:05:36Z</time>
      </trkpt>
      <trkpt lat="45.98433" lon="4.83463">
        <ele>268</ele>
        <time>2018-01-19T11:05:37Z</time>
      </trkpt>
      <trkpt lat="45.98437" lon="4.83457">
        <ele>268</ele>
        <time>2018-01-19T11:05:38Z</time>
      </trkpt>
      <trkpt lat="45.98442" lon="4.83452">
        <ele>268</ele>
        <time>2018-01-19T11:05:39Z</time>
      </trkpt>
      <trkpt lat="45.98446" lon="4.83447">
        <ele>268</ele>
        <time>2018-01-19T11:05:40Z</time>
      </trkpt>
      <trkpt lat="45.9845" lon="4.83441">
        <ele>268</ele>
        <time>2018-01-19T11:05:41Z</time>
      </trkpt>
      <trkpt lat="45.98453" lon="4.83435">
        <ele>268</ele>
        <time>2018-01-19T11:05:42Z</time>
      </trkpt>
      <trkpt lat="45.98457" lon="4.83429">
        <ele>268</ele>
        <time>2018-01-19T11:05:43Z</time>
      </trkpt>
      <trkpt lat="45.98462" lon="4.83424">
        <ele>269</ele>
        <time>2018-01-19T11:05:44Z</time>
      </trkpt>
      <trkpt lat="45.98466" lon="4.83419">
        <ele>269</ele>
        <time>2018-01-19T11:05:45Z</time>
      </trkpt>
      <trkpt lat="45.9847" lon="4.83413">
        <ele>269</ele>
        <time>2018-01-19T11:05:46Z</time>
      </trkpt>
      <trkpt lat="45.98475" lon="4.83408">
        <ele>269</ele>
        <time>2018-01-19T11:05:47Z</time>
      </trkpt>
      <trkpt lat="45.98479" lon="4.83402">
        <ele>269</ele>
        <time>2018-01-19T11:05:48Z</time>
      </trkpt>
      <trkpt lat="45.98483" lon="4.83395">
        <ele>269</ele>
        <time>2018-01-19T11:05:49Z</time>
      </trkpt>
      <trkpt lat="45.98488" lon="4.83389">
        <ele>269</ele>
        <time>2018-01-19T11:05:50Z</time>
      </trkpt>
      <trkpt lat="45.98491" lon="4.83384">
        <ele>269</ele>
        <time>2018-01-19T11:05:51Z</time>
      </trkpt>
      <trkpt lat="45.98496" lon="4.83377">
        <ele>269</ele>
        <time>2018-01-19T11:05:52Z</time>
      </trkpt>
      <trkpt lat="45.985" lon="4.83372">
        <ele>270</ele>
        <time>2018-01-19T11:05:53Z</time>
      </trkpt>
      <trkpt lat="45.98503" lon="4.83367">
        <ele>269</ele>
        <time>2018-01-19T11:05:54Z</time>
      </trkpt>
      <trkpt lat="45.98507" lon="4.83361">
        <ele>269</ele>
        <time>2018-01-19T11:05:55Z</time>
      </trkpt>
      <trkpt lat="45.98511" lon="4.83356">
        <ele>270</ele>
        <time>2018-01-19T11:05:56Z</time>
      </trkpt>
      <trkpt lat="45.98515" lon="4.83351">
        <ele>270</ele>
        <time>2018-01-19T11:05:57Z</time>
      </trkpt>
      <trkpt lat="45.98518" lon="4.83346">
        <ele>270</ele>
        <time>2018-01-19T11:05:58Z</time>
      </trkpt>
      <trkpt lat="45.98522" lon="4.83342">
        <ele>270</ele>
        <time>2018-01-19T11:05:59Z</time>
      </trkpt>
      <trkpt lat="45.98526" lon="4.83337">
        <ele>269</ele>
        <time>2018-01-19T11:06:00Z</time>
      </trkpt>
      <trkpt lat="45.9853" lon="4.83332">
        <ele>269</ele>
        <time>2018-01-19T11:06:01Z</time>
      </trkpt>
      <trkpt lat="45.98533" lon="4.83327">
        <ele>269</ele>
        <time>2018-01-19T11:06:02Z</time>
      </trkpt>
      <trkpt lat="45.98538" lon="4.83322">
        <ele>269</ele>
        <time>2018-01-19T11:06:03Z</time>
      </trkpt>
      <trkpt lat="45.98542" lon="4.83317">
        <ele>269</ele>
        <time>2018-01-19T11:06:04Z</time>
      </trkpt>
      <trkpt lat="45.98546" lon="4.83311">
        <ele>269</ele>
        <time>2018-01-19T11:06:05Z</time>
      </trkpt>
      <trkpt lat="45.98551" lon="4.83305">
        <ele>269</ele>
        <time>2018-01-19T11:06:06Z</time>
      </trkpt>
      <trkpt lat="45.98556" lon="4.83298">
        <ele>269</ele>
        <time>2018-01-19T11:06:07Z</time>
      </trkpt>
      <trkpt lat="45.9856" lon="4.83292">
        <ele>269</ele>
        <time>2018-01-19T11:06:08Z</time>
      </trkpt>
      <trkpt lat="45.98564" lon="4.83286">
        <ele>269</ele>
        <time>2018-01-19T11:06:09Z</time>
      </trkpt>
      <trkpt lat="45.98568" lon="4.83281">
        <ele>269</ele>
        <time>2018-01-19T11:06:10Z</time>
      </trkpt>
      <trkpt lat="45.98572" lon="4.83274">
        <ele>269</ele>
        <time>2018-01-19T11:06:11Z</time>
      </trkpt>
      <trkpt lat="45.98575" lon="4.83269">
        <ele>269</ele>
        <time>2018-01-19T11:06:12Z</time>
      </trkpt>
      <trkpt lat="45.9858" lon="4.83264">
        <ele>269</ele>
        <time>2018-01-19T11:06:13Z</time>
      </trkpt>
      <trkpt lat="45.98584" lon="4.83258">
        <ele>268</ele>
        <time>2018-01-19T11:06:14Z</time>
      </trkpt>
      <trkpt lat="45.98589" lon="4.83253">
        <ele>268</ele>
        <time>2018-01-19T11:06:15Z</time>
      </trkpt>
      <trkpt lat="45.98593" lon="4.83248">
        <ele>268</ele>
        <time>2018-01-19T11:06:16Z</time>
      </trkpt>
      <trkpt lat="45.98597" lon="4.83243">
        <ele>268</ele>
        <time>2018-01-19T11:06:17Z</time>
      </trkpt>
      <trkpt lat="45.98602" lon="4.83236">
        <ele>268</ele>
        <time>2018-01-19T11:06:18Z</time>
      </trkpt>
      <trkpt lat="45.98606" lon="4.83231">
        <ele>267</ele>
        <time>2018-01-19T11:06:19Z</time>
      </trkpt>
      <trkpt lat="45.9861" lon="4.83225">
        <ele>267</ele>
        <time>2018-01-19T11:06:20Z</time>
      </trkpt>
      <trkpt lat="45.98614" lon="4.83219">
        <ele>267</ele>
        <time>2018-01-19T11:06:21Z</time>
      </trkpt>
      <trkpt lat="45.98618" lon="4.83215">
        <ele>267</ele>
        <time>2018-01-19T11:06:22Z</time>
      </trkpt>
      <trkpt lat="45.98623" lon="4.8321">
        <ele>267</ele>
        <time>2018-01-19T11:06:23Z</time>
      </trkpt>
      <trkpt lat="45.98627" lon="4.83205">
        <ele>267</ele>
        <time>2018-01-19T11:06:24Z</time>
      </trkpt>
      <trkpt lat="45.98631" lon="4.832">
        <ele>267</ele>
        <time>2018-01-19T11:06:25Z</time>
      </trkpt>
      <trkpt lat="45.98636" lon="4.83195">
        <ele>267</ele>
        <time>2018-01-19T11:06:26Z</time>
      </trkpt>
      <trkpt lat="45.98641" lon="4.8319">
        <ele>267</ele>
        <time>2018-01-19T11:06:27Z</time>
      </trkpt>
      <trkpt lat="45.98647" lon="4.83186">
        <ele>267</ele>
        <time>2018-01-19T11:06:28Z</time>
      </trkpt>
      <trkpt lat="45.98653" lon="4.8318">
        <ele>267</ele>
        <time>2018-01-19T11:06:29Z</time>
      </trkpt>
      <trkpt lat="45.98658" lon="4.83176">
        <ele>267</ele>
        <time>2018-01-19T11:06:30Z</time>
      </trkpt>
      <trkpt lat="45.98664" lon="4.83172">
        <ele>266</ele>
        <time>2018-01-19T11:06:31Z</time>
      </trkpt>
      <trkpt lat="45.98669" lon="4.83167">
        <ele>266</ele>
        <time>2018-01-19T11:06:32Z</time>
      </trkpt>
      <trkpt lat="45.98674" lon="4.83163">
        <ele>266</ele>
        <time>2018-01-19T11:06:33Z</time>
      </trkpt>
      <trkpt lat="45.98678" lon="4.83161">
        <ele>266</ele>
        <time>2018-01-19T11:06:34Z</time>
      </trkpt>
      <trkpt lat="45.98684" lon="4.83157">
        <ele>266</ele>
        <time>2018-01-19T11:06:35Z</time>
      </trkpt>
      <trkpt lat="45.98689" lon="4.83153">
        <ele>266</ele>
        <time>2018-01-19T11:06:36Z</time>
      </trkpt>
      <trkpt lat="45.98693" lon="4.83149">
        <ele>266</ele>
        <time>2018-01-19T11:06:37Z</time>
      </trkpt>
      <trkpt lat="45.98698" lon="4.83145">
        <ele>266</ele>
        <time>2018-01-19T11:06:38Z</time>
      </trkpt>
      <trkpt lat="45.98703" lon="4.8314">
        <ele>266</ele>
        <time>2018-01-19T11:06:39Z</time>
      </trkpt>
      <trkpt lat="45.98708" lon="4.83136">
        <ele>266</ele>
        <time>2018-01-19T11:06:40Z</time>
      </trkpt>
      <trkpt lat="45.98714" lon="4.83132">
        <ele>266</ele>
        <time>2018-01-19T11:06:41Z</time>
      </trkpt>
      <trkpt lat="45.98718" lon="4.83128">
        <ele>266</ele>
        <time>2018-01-19T11:06:42Z</time>
      </trkpt>
      <trkpt lat="45.98723" lon="4.83125">
        <ele>266</ele>
        <time>2018-01-19T11:06:43Z</time>
      </trkpt>
      <trkpt lat="45.98729" lon="4.8312">
        <ele>266</ele>
        <time>2018-01-19T11:06:44Z</time>
      </trkpt>
      <trkpt lat="45.98734" lon="4.83115">
        <ele>267</ele>
        <time>2018-01-19T11:06:45Z</time>
      </trkpt>
      <trkpt lat="45.9874" lon="4.83109">
        <ele>267</ele>
        <time>2018-01-19T11:06:46Z</time>
      </trkpt>
      <trkpt lat="45.98746" lon="4.83104">
        <ele>267</ele>
        <time>2018-01-19T11:06:47Z</time>
      </trkpt>
      <trkpt lat="45.98752" lon="4.83099">
        <ele>265</ele>
        <time>2018-01-19T11:06:48Z</time>
      </trkpt>
      <trkpt lat="45.98758" lon="4.83094">
        <ele>266</ele>
        <time>2018-01-19T11:06:49Z</time>
      </trkpt>
      <trkpt lat="45.98764" lon="4.83088">
        <ele>265</ele>
        <time>2018-01-19T11:06:50Z</time>
      </trkpt>
      <trkpt lat="45.98771" lon="4.83082">
        <ele>266</ele>
        <time>2018-01-19T11:06:51Z</time>
      </trkpt>
      <trkpt lat="45.98777" lon="4.83076">
        <ele>265</ele>
        <time>2018-01-19T11:06:52Z</time>
      </trkpt>
      <trkpt lat="45.98784" lon="4.83069">
        <ele>265</ele>
        <time>2018-01-19T11:06:53Z</time>
      </trkpt>
      <trkpt lat="45.98791" lon="4.83063">
        <ele>265</ele>
        <time>2018-01-19T11:06:54Z</time>
      </trkpt>
      <trkpt lat="45.98798" lon="4.83058">
        <ele>264</ele>
        <time>2018-01-19T11:06:55Z</time>
      </trkpt>
      <trkpt lat="45.98805" lon="4.83052">
        <ele>264</ele>
        <time>2018-01-19T11:06:56Z</time>
      </trkpt>
      <trkpt lat="45.98813" lon="4.83047">
        <ele>264</ele>
        <time>2018-01-19T11:06:57Z</time>
      </trkpt>
      <trkpt lat="45.9882" lon="4.83041">
        <ele>264</ele>
        <time>2018-01-19T11:06:58Z</time>
      </trkpt>
      <trkpt lat="45.98828" lon="4.83035">
        <ele>264</ele>
        <time>2018-01-19T11:06:59Z</time>
      </trkpt>
      <trkpt lat="45.98836" lon="4.83029">
        <ele>261</ele>
        <time>2018-01-19T11:07:00Z</time>
      </trkpt>
      <trkpt lat="45.98844" lon="4.83024">
        <ele>261</ele>
        <time>2018-01-19T11:07:01Z</time>
      </trkpt>
      <trkpt lat="45.98852" lon="4.8302">
        <ele>261</ele>
        <time>2018-01-19T11:07:02Z</time>
      </trkpt>
      <trkpt lat="45.9886" lon="4.83014">
        <ele>260</ele>
        <time>2018-01-19T11:07:03Z</time>
      </trkpt>
      <trkpt lat="45.98869" lon="4.83007">
        <ele>260</ele>
        <time>2018-01-19T11:07:04Z</time>
      </trkpt>
      <trkpt lat="45.98878" lon="4.83">
        <ele>260</ele>
        <time>2018-01-19T11:07:05Z</time>
      </trkpt>
      <trkpt lat="45.98887" lon="4.82994">
        <ele>259</ele>
        <time>2018-01-19T11:07:06Z</time>
      </trkpt>
      <trkpt lat="45.98896" lon="4.82986">
        <ele>259</ele>
        <time>2018-01-19T11:07:07Z</time>
      </trkpt>
      <trkpt lat="45.98905" lon="4.82975">
        <ele>259</ele>
        <time>2018-01-19T11:07:08Z</time>
      </trkpt>
      <trkpt lat="45.98912" lon="4.82966">
        <ele>258</ele>
        <time>2018-01-19T11:07:09Z</time>
      </trkpt>
      <trkpt lat="45.98918" lon="4.82954">
        <ele>255</ele>
        <time>2018-01-19T11:07:10Z</time>
      </trkpt>
      <trkpt lat="45.98925" lon="4.8294">
        <ele>255</ele>
        <time>2018-01-19T11:07:11Z</time>
      </trkpt>
      <trkpt lat="45.98931" lon="4.82926">
        <ele>255</ele>
        <time>2018-01-19T11:07:12Z</time>
      </trkpt>
      <trkpt lat="45.98937" lon="4.82912">
        <ele>254</ele>
        <time>2018-01-19T11:07:13Z</time>
      </trkpt>
      <trkpt lat="45.98944" lon="4.82898">
        <ele>253</ele>
        <time>2018-01-19T11:07:14Z</time>
      </trkpt>
      <trkpt lat="45.9895" lon="4.82883">
        <ele>253</ele>
        <time>2018-01-19T11:07:15Z</time>
      </trkpt>
      <trkpt lat="45.98957" lon="4.82867">
        <ele>252</ele>
        <time>2018-01-19T11:07:16Z</time>
      </trkpt>
      <trkpt lat="45.98964" lon="4.82852">
        <ele>252</ele>
        <time>2018-01-19T11:07:17Z</time>
      </trkpt>
      <trkpt lat="45.9897" lon="4.82837">
        <ele>251</ele>
        <time>2018-01-19T11:07:18Z</time>
      </trkpt>
      <trkpt lat="45.98977" lon="4.82821">
        <ele>248</ele>
        <time>2018-01-19T11:07:19Z</time>
      </trkpt>
      <trkpt lat="45.98984" lon="4.82806">
        <ele>248</ele>
        <time>2018-01-19T11:07:20Z</time>
      </trkpt>
      <trkpt lat="45.98989" lon="4.82793">
        <ele>247</ele>
        <time>2018-01-19T11:07:21Z</time>
      </trkpt>
      <trkpt lat="45.98996" lon="4.82778">
        <ele>246</ele>
        <time>2018-01-19T11:07:22Z</time>
      </trkpt>
      <trkpt lat="45.99002" lon="4.82763">
        <ele>241</ele>
        <time>2018-01-19T11:07:23Z</time>
      </trkpt>
      <trkpt lat="45.99009" lon="4.82747">
        <ele>240</ele>
        <time>2018-01-19T11:07:24Z</time>
      </trkpt>
      <trkpt lat="45.99015" lon="4.82732">
        <ele>239</ele>
        <time>2018-01-19T11:07:25Z</time>
      </trkpt>
      <trkpt lat="45.99022" lon="4.82718">
        <ele>239</ele>
        <time>2018-01-19T11:07:26Z</time>
      </trkpt>
      <trkpt lat="45.99028" lon="4.82703">
        <ele>238</ele>
        <time>2018-01-19T11:07:27Z</time>
      </trkpt>
      <trkpt lat="45.99034" lon="4.8269">
        <ele>238</ele>
        <time>2018-01-19T11:07:28Z</time>
      </trkpt>
      <trkpt lat="45.9904" lon="4.82677">
        <ele>238</ele>
        <time>2018-01-19T11:07:29Z</time>
      </trkpt>
      <trkpt lat="45.99045" lon="4.82665">
        <ele>236</ele>
        <time>2018-01-19T11:07:30Z</time>
      </trkpt>
      <trkpt lat="45.9905" lon="4.82653">
        <ele>236</ele>
        <time>2018-01-19T11:07:31Z</time>
      </trkpt>
      <trkpt lat="45.99056" lon="4.82641">
        <ele>236</ele>
        <time>2018-01-19T11:07:32Z</time>
      </trkpt>
      <trkpt lat="45.99061" lon="4.82632">
        <ele>236</ele>
        <time>2018-01-19T11:07:33Z</time>
      </trkpt>
      <trkpt lat="45.99065" lon="4.82624">
        <ele>236</ele>
        <time>2018-01-19T11:07:34Z</time>
      </trkpt>
      <trkpt lat="45.99069" lon="4.82615">
        <ele>236</ele>
        <time>2018-01-19T11:07:35Z</time>
      </trkpt>
      <trkpt lat="45.99072" lon="4.82609">
        <ele>236</ele>
        <time>2018-01-19T11:07:36Z</time>
      </trkpt>
      <trkpt lat="45.99075" lon="4.82602">
        <ele>235</ele>
        <time>2018-01-19T11:07:37Z</time>
      </trkpt>
      <trkpt lat="45.99076" lon="4.82596">
        <ele>235</ele>
        <time>2018-01-19T11:07:38Z</time>
      </trkpt>
      <trkpt lat="45.99077" lon="4.82588">
        <ele>235</ele>
        <time>2018-01-19T11:07:39Z</time>
      </trkpt>
      <trkpt lat="45.99074" lon="4.8258">
        <ele>235</ele>
        <time>2018-01-19T11:07:40Z</time>
      </trkpt>
      <trkpt lat="45.99069" lon="4.82575">
        <ele>235</ele>
        <time>2018-01-19T11:07:41Z</time>
      </trkpt>
      <trkpt lat="45.99064" lon="4.82571">
        <ele>235</ele>
        <time>2018-01-19T11:07:42Z</time>
      </trkpt>
      <trkpt lat="45.99058" lon="4.82569">
        <ele>235</ele>
        <time>2018-01-19T11:07:43Z</time>
      </trkpt>
      <trkpt lat="45.99052" lon="4.82567">
        <ele>235</ele>
        <time>2018-01-19T11:07:44Z</time>
      </trkpt>
      <trkpt lat="45.99045" lon="4.82562">
        <ele>235</ele>
        <time>2018-01-19T11:07:46Z</time>
      </trkpt>
      <trkpt lat="45.99041" lon="4.82561">
        <ele>235</ele>
        <time>2018-01-19T11:07:47Z</time>
      </trkpt>
      <trkpt lat="45.99034" lon="4.82554">
        <ele>235</ele>
        <time>2018-01-19T11:07:49Z</time>
      </trkpt>
      <trkpt lat="45.99032" lon="4.8255">
        <ele>235</ele>
        <time>2018-01-19T11:07:50Z</time>
      </trkpt>
      <trkpt lat="45.99028" lon="4.82546">
        <ele>235</ele>
        <time>2018-01-19T11:07:51Z</time>
      </trkpt>
      <trkpt lat="45.99025" lon="4.82542">
        <ele>235</ele>
        <time>2018-01-19T11:07:52Z</time>
      </trkpt>
      <trkpt lat="45.99019" lon="4.82532">
        <ele>235</ele>
        <time>2018-01-19T11:07:54Z</time>
      </trkpt>
      <trkpt lat="45.99016" lon="4.82527">
        <ele>235</ele>
        <time>2018-01-19T11:07:55Z</time>
      </trkpt>
      <trkpt lat="45.99013" lon="4.82521">
        <ele>235</ele>
        <time>2018-01-19T11:07:56Z</time>
      </trkpt>
      <trkpt lat="45.9901" lon="4.82517">
        <ele>235</ele>
        <time>2018-01-19T11:07:57Z</time>
      </trkpt>
      <trkpt lat="45.99005" lon="4.82506">
        <ele>235</ele>
        <time>2018-01-19T11:07:59Z</time>
      </trkpt>
      <trkpt lat="45.99002" lon="4.82501">
        <ele>235</ele>
        <time>2018-01-19T11:08:00Z</time>
      </trkpt>
      <trkpt lat="45.99" lon="4.82496">
        <ele>235</ele>
        <time>2018-01-19T11:08:01Z</time>
      </trkpt>
      <trkpt lat="45.98997" lon="4.8249">
        <ele>236</ele>
        <time>2018-01-19T11:08:02Z</time>
      </trkpt>
      <trkpt lat="45.98995" lon="4.82483">
        <ele>236</ele>
        <time>2018-01-19T11:08:03Z</time>
      </trkpt>
      <trkpt lat="45.98993" lon="4.82477">
        <ele>236</ele>
        <time>2018-01-19T11:08:04Z</time>
      </trkpt>
      <trkpt lat="45.9899" lon="4.82469">
        <ele>236</ele>
        <time>2018-01-19T11:08:05Z</time>
      </trkpt>
      <trkpt lat="45.98987" lon="4.82462">
        <ele>236</ele>
        <time>2018-01-19T11:08:06Z</time>
      </trkpt>
      <trkpt lat="45.98984" lon="4.8245">
        <ele>236</ele>
        <time>2018-01-19T11:08:08Z</time>
      </trkpt>
      <trkpt lat="45.98982" lon="4.82444">
        <ele>236</ele>
        <time>2018-01-19T11:08:09Z</time>
      </trkpt>
      <trkpt lat="45.98978" lon="4.82432">
        <ele>236</ele>
        <time>2018-01-19T11:08:11Z</time>
      </trkpt>
      <trkpt lat="45.98977" lon="4.82426">
        <ele>236</ele>
        <time>2018-01-19T11:08:12Z</time>
      </trkpt>
      <trkpt lat="45.98975" lon="4.82419">
        <ele>236</ele>
        <time>2018-01-19T11:08:13Z</time>
      </trkpt>
      <trkpt lat="45.98974" lon="4.82413">
        <ele>235</ele>
        <time>2018-01-19T11:08:14Z</time>
      </trkpt>
      <trkpt lat="45.98972" lon="4.82407">
        <ele>235</ele>
        <time>2018-01-19T11:08:15Z</time>
      </trkpt>
      <trkpt lat="45.9897" lon="4.82401">
        <ele>235</ele>
        <time>2018-01-19T11:08:16Z</time>
      </trkpt>
      <trkpt lat="45.98968" lon="4.82391">
        <ele>235</ele>
        <time>2018-01-19T11:08:18Z</time>
      </trkpt>
      <trkpt lat="45.98966" lon="4.82385">
        <ele>235</ele>
        <time>2018-01-19T11:08:19Z</time>
      </trkpt>
      <trkpt lat="45.98963" lon="4.82374">
        <ele>235</ele>
        <time>2018-01-19T11:08:21Z</time>
      </trkpt>
      <trkpt lat="45.98962" lon="4.82368">
        <ele>235</ele>
        <time>2018-01-19T11:08:22Z</time>
      </trkpt>
      <trkpt lat="45.98957" lon="4.82362">
        <ele>235</ele>
        <time>2018-01-19T11:08:23Z</time>
      </trkpt>
      <trkpt lat="45.98955" lon="4.82356">
        <ele>235</ele>
        <time>2018-01-19T11:08:24Z</time>
      </trkpt>
      <trkpt lat="45.98953" lon="4.8235">
        <ele>235</ele>
        <time>2018-01-19T11:08:25Z</time>
      </trkpt>
      <trkpt lat="45.9895" lon="4.82343">
        <ele>235</ele>
        <time>2018-01-19T11:08:26Z</time>
      </trkpt>
      <trkpt lat="45.98945" lon="4.82333">
        <ele>235</ele>
        <time>2018-01-19T11:08:28Z</time>
      </trkpt>
      <trkpt lat="45.98943" lon="4.82329">
        <ele>234</ele>
        <time>2018-01-19T11:08:29Z</time>
      </trkpt>
      <trkpt lat="45.9894" lon="4.82324">
        <ele>234</ele>
        <time>2018-01-19T11:08:30Z</time>
      </trkpt>
      <trkpt lat="45.98936" lon="4.82318">
        <ele>235</ele>
        <time>2018-01-19T11:08:31Z</time>
      </trkpt>
      <trkpt lat="45.98928" lon="4.82311">
        <ele>235</ele>
        <time>2018-01-19T11:08:33Z</time>
      </trkpt>
      <trkpt lat="45.98924" lon="4.82307">
        <ele>234</ele>
        <time>2018-01-19T11:08:34Z</time>
      </trkpt>
      <trkpt lat="45.98917" lon="4.82299">
        <ele>234</ele>
        <time>2018-01-19T11:08:36Z</time>
      </trkpt>
      <trkpt lat="45.98914" lon="4.82295">
        <ele>236</ele>
        <time>2018-01-19T11:08:37Z</time>
      </trkpt>
      <trkpt lat="45.9891" lon="4.82291">
        <ele>236</ele>
        <time>2018-01-19T11:08:38Z</time>
      </trkpt>
      <trkpt lat="45.98906" lon="4.82286">
        <ele>236</ele>
        <time>2018-01-19T11:08:39Z</time>
      </trkpt>
      <trkpt lat="45.98903" lon="4.82281">
        <ele>236</ele>
        <time>2018-01-19T11:08:40Z</time>
      </trkpt>
      <trkpt lat="45.98899" lon="4.82277">
        <ele>236</ele>
        <time>2018-01-19T11:08:41Z</time>
      </trkpt>
      <trkpt lat="45.98896" lon="4.82271">
        <ele>236</ele>
        <time>2018-01-19T11:08:42Z</time>
      </trkpt>
      <trkpt lat="45.98893" lon="4.82265">
        <ele>236</ele>
        <time>2018-01-19T11:08:43Z</time>
      </trkpt>
      <trkpt lat="45.9889" lon="4.8226">
        <ele>236</ele>
        <time>2018-01-19T11:08:44Z</time>
      </trkpt>
      <trkpt lat="45.98887" lon="4.82255">
        <ele>236</ele>
        <time>2018-01-19T11:08:45Z</time>
      </trkpt>
      <trkpt lat="45.98884" lon="4.82249">
        <ele>236</ele>
        <time>2018-01-19T11:08:46Z</time>
      </trkpt>
      <trkpt lat="45.98881" lon="4.82243">
        <ele>236</ele>
        <time>2018-01-19T11:08:47Z</time>
      </trkpt>
      <trkpt lat="45.98877" lon="4.82237">
        <ele>236</ele>
        <time>2018-01-19T11:08:48Z</time>
      </trkpt>
      <trkpt lat="45.98875" lon="4.82231">
        <ele>236</ele>
        <time>2018-01-19T11:08:49Z</time>
      </trkpt>
      <trkpt lat="45.98873" lon="4.82223">
        <ele>236</ele>
        <time>2018-01-19T11:08:50Z</time>
      </trkpt>
      <trkpt lat="45.98871" lon="4.82217">
        <ele>236</ele>
        <time>2018-01-19T11:08:51Z</time>
      </trkpt>
      <trkpt lat="45.98868" lon="4.8221">
        <ele>236</ele>
        <time>2018-01-19T11:08:52Z</time>
      </trkpt>
      <trkpt lat="45.98866" lon="4.82204">
        <ele>236</ele>
        <time>2018-01-19T11:08:53Z</time>
      </trkpt>
      <trkpt lat="45.98862" lon="4.82198">
        <ele>236</ele>
        <time>2018-01-19T11:08:54Z</time>
      </trkpt>
      <trkpt lat="45.98858" lon="4.82189">
        <ele>236</ele>
        <time>2018-01-19T11:08:55Z</time>
      </trkpt>
      <trkpt lat="45.98855" lon="4.82183">
        <ele>236</ele>
        <time>2018-01-19T11:08:56Z</time>
      </trkpt>
      <trkpt lat="45.98853" lon="4.82177">
        <ele>236</ele>
        <time>2018-01-19T11:08:57Z</time>
      </trkpt>
      <trkpt lat="45.9885" lon="4.82166">
        <ele>236</ele>
        <time>2018-01-19T11:08:59Z</time>
      </trkpt>
      <trkpt lat="45.98849" lon="4.82161">
        <ele>236</ele>
        <time>2018-01-19T11:09:00Z</time>
      </trkpt>
      <trkpt lat="45.98845" lon="4.8215">
        <ele>236</ele>
        <time>2018-01-19T11:09:02Z</time>
      </trkpt>
      <trkpt lat="45.98843" lon="4.82143">
        <ele>236</ele>
        <time>2018-01-19T11:09:03Z</time>
      </trkpt>
      <trkpt lat="45.98841" lon="4.82131">
        <ele>236</ele>
        <time>2018-01-19T11:09:05Z</time>
      </trkpt>
      <trkpt lat="45.9884" lon="4.82126">
        <ele>236</ele>
        <time>2018-01-19T11:09:06Z</time>
      </trkpt>
      <trkpt lat="45.98838" lon="4.82119">
        <ele>236</ele>
        <time>2018-01-19T11:09:07Z</time>
      </trkpt>
      <trkpt lat="45.98837" lon="4.82113">
        <ele>235</ele>
        <time>2018-01-19T11:09:08Z</time>
      </trkpt>
      <trkpt lat="45.98835" lon="4.82101">
        <ele>236</ele>
        <time>2018-01-19T11:09:10Z</time>
      </trkpt>
      <trkpt lat="45.98833" lon="4.82096">
        <ele>236</ele>
        <time>2018-01-19T11:09:11Z</time>
      </trkpt>
      <trkpt lat="45.98832" lon="4.82083">
        <ele>236</ele>
        <time>2018-01-19T11:09:13Z</time>
      </trkpt>
      <trkpt lat="45.98831" lon="4.82075">
        <ele>237</ele>
        <time>2018-01-19T11:09:14Z</time>
      </trkpt>
      <trkpt lat="45.98829" lon="4.82065">
        <ele>237</ele>
        <time>2018-01-19T11:09:16Z</time>
      </trkpt>
      <trkpt lat="45.98828" lon="4.82058">
        <ele>237</ele>
        <time>2018-01-19T11:09:17Z</time>
      </trkpt>
      <trkpt lat="45.98826" lon="4.82047">
        <ele>238</ele>
        <time>2018-01-19T11:09:19Z</time>
      </trkpt>
      <trkpt lat="45.98825" lon="4.82041">
        <ele>238</ele>
        <time>2018-01-19T11:09:20Z</time>
      </trkpt>
      <trkpt lat="45.98823" lon="4.82031">
        <ele>238</ele>
        <time>2018-01-19T11:09:22Z</time>
      </trkpt>
      <trkpt lat="45.98822" lon="4.82025">
        <ele>238</ele>
        <time>2018-01-19T11:09:23Z</time>
      </trkpt>
      <trkpt lat="45.9882" lon="4.82012">
        <ele>238</ele>
        <time>2018-01-19T11:09:25Z</time>
      </trkpt>
      <trkpt lat="45.98819" lon="4.82006">
        <ele>238</ele>
        <time>2018-01-19T11:09:26Z</time>
      </trkpt>
      <trkpt lat="45.98817" lon="4.81995">
        <ele>238</ele>
        <time>2018-01-19T11:09:28Z</time>
      </trkpt>
      <trkpt lat="45.98817" lon="4.81989">
        <ele>238</ele>
        <time>2018-01-19T11:09:29Z</time>
      </trkpt>
      <trkpt lat="45.98815" lon="4.81977">
        <ele>239</ele>
        <time>2018-01-19T11:09:31Z</time>
      </trkpt>
      <trkpt lat="45.98815" lon="4.81971">
        <ele>239</ele>
        <time>2018-01-19T11:09:32Z</time>
      </trkpt>
      <trkpt lat="45.98816" lon="4.8196">
        <ele>239</ele>
        <time>2018-01-19T11:09:34Z</time>
      </trkpt>
      <trkpt lat="45.98817" lon="4.81956">
        <ele>239</ele>
        <time>2018-01-19T11:09:35Z</time>
      </trkpt>
      <trkpt lat="45.98815" lon="4.81944">
        <ele>239</ele>
        <time>2018-01-19T11:09:37Z</time>
      </trkpt>
      <trkpt lat="45.98814" lon="4.81938">
        <ele>239</ele>
        <time>2018-01-19T11:09:38Z</time>
      </trkpt>
      <trkpt lat="45.98813" lon="4.81931">
        <ele>239</ele>
        <time>2018-01-19T11:09:39Z</time>
      </trkpt>
      <trkpt lat="45.98811" lon="4.81925">
        <ele>239</ele>
        <time>2018-01-19T11:09:40Z</time>
      </trkpt>
      <trkpt lat="45.98807" lon="4.81913">
        <ele>239</ele>
        <time>2018-01-19T11:09:42Z</time>
      </trkpt>
      <trkpt lat="45.98806" lon="4.81906">
        <ele>239</ele>
        <time>2018-01-19T11:09:43Z</time>
      </trkpt>
      <trkpt lat="45.98803" lon="4.81894">
        <ele>239</ele>
        <time>2018-01-19T11:09:45Z</time>
      </trkpt>
      <trkpt lat="45.988" lon="4.81888">
        <ele>239</ele>
        <time>2018-01-19T11:09:46Z</time>
      </trkpt>
      <trkpt lat="45.98798" lon="4.81882">
        <ele>239</ele>
        <time>2018-01-19T11:09:47Z</time>
      </trkpt>
      <trkpt lat="45.98796" lon="4.81876">
        <ele>239</ele>
        <time>2018-01-19T11:09:48Z</time>
      </trkpt>
      <trkpt lat="45.98793" lon="4.81866">
        <ele>239</ele>
        <time>2018-01-19T11:09:50Z</time>
      </trkpt>
      <trkpt lat="45.98792" lon="4.8186">
        <ele>239</ele>
        <time>2018-01-19T11:09:51Z</time>
      </trkpt>
      <trkpt lat="45.98789" lon="4.81852">
        <ele>239</ele>
        <time>2018-01-19T11:09:53Z</time>
      </trkpt>
      <trkpt lat="45.98786" lon="4.81847">
        <ele>239</ele>
        <time>2018-01-19T11:09:54Z</time>
      </trkpt>
      <trkpt lat="45.98781" lon="4.81838">
        <ele>239</ele>
        <time>2018-01-19T11:09:56Z</time>
      </trkpt>
      <trkpt lat="45.98779" lon="4.81833">
        <ele>239</ele>
        <time>2018-01-19T11:09:57Z</time>
      </trkpt>
      <trkpt lat="45.98775" lon="4.81825">
        <ele>240</ele>
        <time>2018-01-19T11:09:59Z</time>
      </trkpt>
      <trkpt lat="45.98774" lon="4.8182">
        <ele>240</ele>
        <time>2018-01-19T11:10:00Z</time>
      </trkpt>
      <trkpt lat="45.98771" lon="4.81811">
        <ele>240</ele>
        <time>2018-01-19T11:10:02Z</time>
      </trkpt>
      <trkpt lat="45.98769" lon="4.81807">
        <ele>240</ele>
        <time>2018-01-19T11:10:03Z</time>
      </trkpt>
      <trkpt lat="45.98764" lon="4.81798">
        <ele>240</ele>
        <time>2018-01-19T11:10:05Z</time>
      </trkpt>
      <trkpt lat="45.98762" lon="4.81795">
        <ele>240</ele>
        <time>2018-01-19T11:10:06Z</time>
      </trkpt>
      <trkpt lat="45.98757" lon="4.81786">
        <ele>241</ele>
        <time>2018-01-19T11:10:08Z</time>
      </trkpt>
      <trkpt lat="45.98755" lon="4.81781">
        <ele>241</ele>
        <time>2018-01-19T11:10:09Z</time>
      </trkpt>
      <trkpt lat="45.98752" lon="4.81773">
        <ele>241</ele>
        <time>2018-01-19T11:10:11Z</time>
      </trkpt>
      <trkpt lat="45.9875" lon="4.81768">
        <ele>241</ele>
        <time>2018-01-19T11:10:12Z</time>
      </trkpt>
      <trkpt lat="45.98747" lon="4.8176">
        <ele>240</ele>
        <time>2018-01-19T11:10:14Z</time>
      </trkpt>
      <trkpt lat="45.98745" lon="4.81755">
        <ele>241</ele>
        <time>2018-01-19T11:10:15Z</time>
      </trkpt>
      <trkpt lat="45.98743" lon="4.8175">
        <ele>241</ele>
        <time>2018-01-19T11:10:16Z</time>
      </trkpt>
      <trkpt lat="45.98739" lon="4.81743">
        <ele>240</ele>
        <time>2018-01-19T11:10:17Z</time>
      </trkpt>
      <trkpt lat="45.98735" lon="4.81738">
        <ele>240</ele>
        <time>2018-01-19T11:10:18Z</time>
      </trkpt>
      <trkpt lat="45.9873" lon="4.81734">
        <ele>239</ele>
        <time>2018-01-19T11:10:19Z</time>
      </trkpt>
      <trkpt lat="45.98721" lon="4.81731">
        <ele>239</ele>
        <time>2018-01-19T11:10:21Z</time>
      </trkpt>
      <trkpt lat="45.98717" lon="4.81731">
        <ele>239</ele>
        <time>2018-01-19T11:10:22Z</time>
      </trkpt>
      <trkpt lat="45.9871" lon="4.8173">
        <ele>239</ele>
        <time>2018-01-19T11:10:24Z</time>
      </trkpt>
      <trkpt lat="45.98707" lon="4.81731">
        <ele>239</ele>
        <time>2018-01-19T11:10:25Z</time>
      </trkpt>
      <trkpt lat="45.98702" lon="4.81733">
        <ele>239</ele>
        <time>2018-01-19T11:10:26Z</time>
      </trkpt>
      <trkpt lat="45.98697" lon="4.81736">
        <ele>239</ele>
        <time>2018-01-19T11:10:27Z</time>
      </trkpt>
      <trkpt lat="45.98691" lon="4.81735">
        <ele>238</ele>
        <time>2018-01-19T11:10:28Z</time>
      </trkpt>
      <trkpt lat="45.98684" lon="4.81734">
        <ele>238</ele>
        <time>2018-01-19T11:10:29Z</time>
      </trkpt>
      <trkpt lat="45.98679" lon="4.81736">
        <ele>238</ele>
        <time>2018-01-19T11:10:30Z</time>
      </trkpt>
      <trkpt lat="45.98674" lon="4.81737">
        <ele>238</ele>
        <time>2018-01-19T11:10:31Z</time>
      </trkpt>
      <trkpt lat="45.98669" lon="4.8174">
        <ele>238</ele>
        <time>2018-01-19T11:10:32Z</time>
      </trkpt>
      <trkpt lat="45.98664" lon="4.8174">
        <ele>237</ele>
        <time>2018-01-19T11:10:33Z</time>
      </trkpt>
      <trkpt lat="45.98658" lon="4.81742">
        <ele>237</ele>
        <time>2018-01-19T11:10:34Z</time>
      </trkpt>
      <trkpt lat="45.98653" lon="4.81745">
        <ele>237</ele>
        <time>2018-01-19T11:10:35Z</time>
      </trkpt>
      <trkpt lat="45.98648" lon="4.81747">
        <ele>237</ele>
        <time>2018-01-19T11:10:36Z</time>
      </trkpt>
      <trkpt lat="45.98642" lon="4.81749">
        <ele>237</ele>
        <time>2018-01-19T11:10:37Z</time>
      </trkpt>
      <trkpt lat="45.98636" lon="4.8175">
        <ele>238</ele>
        <time>2018-01-19T11:10:38Z</time>
      </trkpt>
      <trkpt lat="45.98631" lon="4.81752">
        <ele>238</ele>
        <time>2018-01-19T11:10:39Z</time>
      </trkpt>
      <trkpt lat="45.98627" lon="4.81752">
        <ele>238</ele>
        <time>2018-01-19T11:10:40Z</time>
      </trkpt>
      <trkpt lat="45.98622" lon="4.81753">
        <ele>238</ele>
        <time>2018-01-19T11:10:41Z</time>
      </trkpt>
      <trkpt lat="45.98617" lon="4.81754">
        <ele>238</ele>
        <time>2018-01-19T11:10:42Z</time>
      </trkpt>
      <trkpt lat="45.98612" lon="4.81755">
        <ele>238</ele>
        <time>2018-01-19T11:10:43Z</time>
      </trkpt>
      <trkpt lat="45.98604" lon="4.81758">
        <ele>238</ele>
        <time>2018-01-19T11:10:45Z</time>
      </trkpt>
      <trkpt lat="45.986" lon="4.8176">
        <ele>238</ele>
        <time>2018-01-19T11:10:46Z</time>
      </trkpt>
      <trkpt lat="45.98591" lon="4.81762">
        <ele>237</ele>
        <time>2018-01-19T11:10:48Z</time>
      </trkpt>
      <trkpt lat="45.98586" lon="4.81763">
        <ele>237</ele>
        <time>2018-01-19T11:10:49Z</time>
      </trkpt>
      <trkpt lat="45.98578" lon="4.81767">
        <ele>237</ele>
        <time>2018-01-19T11:10:51Z</time>
      </trkpt>
      <trkpt lat="45.98574" lon="4.81772">
        <ele>237</ele>
        <time>2018-01-19T11:10:52Z</time>
      </trkpt>
      <trkpt lat="45.98571" lon="4.81777">
        <ele>238</ele>
        <time>2018-01-19T11:10:53Z</time>
      </trkpt>
      <trkpt lat="45.98566" lon="4.81783">
        <ele>238</ele>
        <time>2018-01-19T11:10:54Z</time>
      </trkpt>
      <trkpt lat="45.9856" lon="4.81791">
        <ele>238</ele>
        <time>2018-01-19T11:10:56Z</time>
      </trkpt>
      <trkpt lat="45.98557" lon="4.81793">
        <ele>238</ele>
        <time>2018-01-19T11:10:57Z</time>
      </trkpt>
      <trkpt lat="45.98551" lon="4.81798">
        <ele>238</ele>
        <time>2018-01-19T11:10:59Z</time>
      </trkpt>
      <trkpt lat="45.98548" lon="4.81799">
        <ele>238</ele>
        <time>2018-01-19T11:11:00Z</time>
      </trkpt>
      <trkpt lat="45.9854" lon="4.81798">
        <ele>238</ele>
        <time>2018-01-19T11:11:02Z</time>
      </trkpt>
      <trkpt lat="45.98537" lon="4.81793">
        <ele>238</ele>
        <time>2018-01-19T11:11:03Z</time>
      </trkpt>
      <trkpt lat="45.9853" lon="4.81785">
        <ele>238</ele>
        <time>2018-01-19T11:11:05Z</time>
      </trkpt>
      <trkpt lat="45.98527" lon="4.81781">
        <ele>238</ele>
        <time>2018-01-19T11:11:06Z</time>
      </trkpt>
      <trkpt lat="45.98523" lon="4.81776">
        <ele>238</ele>
        <time>2018-01-19T11:11:07Z</time>
      </trkpt>
      <trkpt lat="45.9852" lon="4.81773">
        <ele>238</ele>
        <time>2018-01-19T11:11:08Z</time>
      </trkpt>
      <trkpt lat="45.98514" lon="4.81764">
        <ele>237</ele>
        <time>2018-01-19T11:11:10Z</time>
      </trkpt>
      <trkpt lat="45.98512" lon="4.8176">
        <ele>237</ele>
        <time>2018-01-19T11:11:11Z</time>
      </trkpt>
      <trkpt lat="45.98505" lon="4.81754">
        <ele>237</ele>
        <time>2018-01-19T11:11:13Z</time>
      </trkpt>
      <trkpt lat="45.98502" lon="4.81751">
        <ele>237</ele>
        <time>2018-01-19T11:11:14Z</time>
      </trkpt>
      <trkpt lat="45.98495" lon="4.81745">
        <ele>238</ele>
        <time>2018-01-19T11:11:16Z</time>
      </trkpt>
      <trkpt lat="45.98491" lon="4.81742">
        <ele>238</ele>
        <time>2018-01-19T11:11:17Z</time>
      </trkpt>
      <trkpt lat="45.98485" lon="4.81736">
        <ele>238</ele>
        <time>2018-01-19T11:11:19Z</time>
      </trkpt>
      <trkpt lat="45.98482" lon="4.81733">
        <ele>238</ele>
        <time>2018-01-19T11:11:20Z</time>
      </trkpt>
      <trkpt lat="45.98477" lon="4.81727">
        <ele>238</ele>
        <time>2018-01-19T11:11:22Z</time>
      </trkpt>
      <trkpt lat="45.98474" lon="4.81724">
        <ele>239</ele>
        <time>2018-01-19T11:11:23Z</time>
      </trkpt>
      <trkpt lat="45.98469" lon="4.81719">
        <ele>239</ele>
        <time>2018-01-19T11:11:25Z</time>
      </trkpt>
      <trkpt lat="45.98466" lon="4.81716">
        <ele>239</ele>
        <time>2018-01-19T11:11:26Z</time>
      </trkpt>
      <trkpt lat="45.98462" lon="4.81707">
        <ele>239</ele>
        <time>2018-01-19T11:11:29Z</time>
      </trkpt>
      <trkpt lat="45.9846" lon="4.81704">
        <ele>239</ele>
        <time>2018-01-19T11:11:30Z</time>
      </trkpt>
      <trkpt lat="45.98456" lon="4.81695">
        <ele>239</ele>
        <time>2018-01-19T11:11:33Z</time>
      </trkpt>
      <trkpt lat="45.98454" lon="4.81693">
        <ele>239</ele>
        <time>2018-01-19T11:11:34Z</time>
      </trkpt>
      <trkpt lat="45.98448" lon="4.81684">
        <ele>239</ele>
        <time>2018-01-19T11:11:37Z</time>
      </trkpt>
      <trkpt lat="45.98446" lon="4.81681">
        <ele>239</ele>
        <time>2018-01-19T11:11:38Z</time>
      </trkpt>
      <trkpt lat="45.98442" lon="4.81674">
        <ele>239</ele>
        <time>2018-01-19T11:11:40Z</time>
      </trkpt>
      <trkpt lat="45.98439" lon="4.81671">
        <ele>240</ele>
        <time>2018-01-19T11:11:41Z</time>
      </trkpt>
      <trkpt lat="45.98431" lon="4.81666">
        <ele>239</ele>
        <time>2018-01-19T11:11:43Z</time>
      </trkpt>
      <trkpt lat="45.98427" lon="4.81665">
        <ele>240</ele>
        <time>2018-01-19T11:11:44Z</time>
      </trkpt>
      <trkpt lat="45.98419" lon="4.81664">
        <ele>240</ele>
        <time>2018-01-19T11:11:46Z</time>
      </trkpt>
      <trkpt lat="45.98415" lon="4.81663">
        <ele>241</ele>
        <time>2018-01-19T11:11:47Z</time>
      </trkpt>
      <trkpt lat="45.98407" lon="4.81664">
        <ele>241</ele>
        <time>2018-01-19T11:11:49Z</time>
      </trkpt>
      <trkpt lat="45.98403" lon="4.81665">
        <ele>241</ele>
        <time>2018-01-19T11:11:50Z</time>
      </trkpt>
      <trkpt lat="45.98396" lon="4.81667">
        <ele>243</ele>
        <time>2018-01-19T11:11:52Z</time>
      </trkpt>
      <trkpt lat="45.98392" lon="4.81668">
        <ele>243</ele>
        <time>2018-01-19T11:11:53Z</time>
      </trkpt>
      <trkpt lat="45.98385" lon="4.8167">
        <ele>243</ele>
        <time>2018-01-19T11:11:55Z</time>
      </trkpt>
      <trkpt lat="45.98382" lon="4.81671">
        <ele>244</ele>
        <time>2018-01-19T11:11:56Z</time>
      </trkpt>
      <trkpt lat="45.98375" lon="4.81672">
        <ele>244</ele>
        <time>2018-01-19T11:11:58Z</time>
      </trkpt>
      <trkpt lat="45.98373" lon="4.81673">
        <ele>244</ele>
        <time>2018-01-19T11:11:59Z</time>
      </trkpt>
      <trkpt lat="45.98366" lon="4.81674">
        <ele>244</ele>
        <time>2018-01-19T11:12:01Z</time>
      </trkpt>
      <trkpt lat="45.98362" lon="4.81674">
        <ele>244</ele>
        <time>2018-01-19T11:12:02Z</time>
      </trkpt>
      <trkpt lat="45.98354" lon="4.81675">
        <ele>245</ele>
        <time>2018-01-19T11:12:04Z</time>
      </trkpt>
      <trkpt lat="45.9835" lon="4.81674">
        <ele>245</ele>
        <time>2018-01-19T11:12:05Z</time>
      </trkpt>
      <trkpt lat="45.98342" lon="4.81672">
        <ele>245</ele>
        <time>2018-01-19T11:12:07Z</time>
      </trkpt>
      <trkpt lat="45.98339" lon="4.81671">
        <ele>245</ele>
        <time>2018-01-19T11:12:08Z</time>
      </trkpt>
      <trkpt lat="45.98332" lon="4.81668">
        <ele>246</ele>
        <time>2018-01-19T11:12:10Z</time>
      </trkpt>
      <trkpt lat="45.98329" lon="4.81666">
        <ele>246</ele>
        <time>2018-01-19T11:12:11Z</time>
      </trkpt>
      <trkpt lat="45.98322" lon="4.81662">
        <ele>246</ele>
        <time>2018-01-19T11:12:13Z</time>
      </trkpt>
      <trkpt lat="45.98319" lon="4.81659">
        <ele>246</ele>
        <time>2018-01-19T11:12:14Z</time>
      </trkpt>
      <trkpt lat="45.98312" lon="4.81654">
        <ele>246</ele>
        <time>2018-01-19T11:12:16Z</time>
      </trkpt>
      <trkpt lat="45.98309" lon="4.81651">
        <ele>246</ele>
        <time>2018-01-19T11:12:17Z</time>
      </trkpt>
      <trkpt lat="45.98303" lon="4.81646">
        <ele>246</ele>
        <time>2018-01-19T11:12:19Z</time>
      </trkpt>
      <trkpt lat="45.983" lon="4.81643">
        <ele>247</ele>
        <time>2018-01-19T11:12:20Z</time>
      </trkpt>
      <trkpt lat="45.98294" lon="4.81637">
        <ele>247</ele>
        <time>2018-01-19T11:12:22Z</time>
      </trkpt>
      <trkpt lat="45.98291" lon="4.81634">
        <ele>247</ele>
        <time>2018-01-19T11:12:23Z</time>
      </trkpt>
      <trkpt lat="45.98286" lon="4.81626">
        <ele>247</ele>
        <time>2018-01-19T11:12:25Z</time>
      </trkpt>
      <trkpt lat="45.98283" lon="4.81622">
        <ele>247</ele>
        <time>2018-01-19T11:12:26Z</time>
      </trkpt>
      <trkpt lat="45.98279" lon="4.81613">
        <ele>247</ele>
        <time>2018-01-19T11:12:28Z</time>
      </trkpt>
      <trkpt lat="45.98276" lon="4.81608">
        <ele>247</ele>
        <time>2018-01-19T11:12:29Z</time>
      </trkpt>
      <trkpt lat="45.98272" lon="4.81598">
        <ele>247</ele>
        <time>2018-01-19T11:12:31Z</time>
      </trkpt>
      <trkpt lat="45.9827" lon="4.81592">
        <ele>247</ele>
        <time>2018-01-19T11:12:32Z</time>
      </trkpt>
      <trkpt lat="45.98267" lon="4.81582">
        <ele>247</ele>
        <time>2018-01-19T11:12:34Z</time>
      </trkpt>
      <trkpt lat="45.98265" lon="4.81577">
        <ele>247</ele>
        <time>2018-01-19T11:12:35Z</time>
      </trkpt>
      <trkpt lat="45.98261" lon="4.81566">
        <ele>247</ele>
        <time>2018-01-19T11:12:37Z</time>
      </trkpt>
      <trkpt lat="45.98259" lon="4.81561">
        <ele>247</ele>
        <time>2018-01-19T11:12:38Z</time>
      </trkpt>
      <trkpt lat="45.98257" lon="4.81552">
        <ele>247</ele>
        <time>2018-01-19T11:12:40Z</time>
      </trkpt>
      <trkpt lat="45.98256" lon="4.81547">
        <ele>247</ele>
        <time>2018-01-19T11:12:41Z</time>
      </trkpt>
      <trkpt lat="45.98254" lon="4.81537">
        <ele>247</ele>
        <time>2018-01-19T11:12:43Z</time>
      </trkpt>
      <trkpt lat="45.98252" lon="4.81532">
        <ele>247</ele>
        <time>2018-01-19T11:12:44Z</time>
      </trkpt>
      <trkpt lat="45.98248" lon="4.81521">
        <ele>249</ele>
        <time>2018-01-19T11:12:46Z</time>
      </trkpt>
      <trkpt lat="45.98247" lon="4.81516">
        <ele>249</ele>
        <time>2018-01-19T11:12:47Z</time>
      </trkpt>
      <trkpt lat="45.98244" lon="4.81507">
        <ele>249</ele>
        <time>2018-01-19T11:12:49Z</time>
      </trkpt>
      <trkpt lat="45.98242" lon="4.81503">
        <ele>249</ele>
        <time>2018-01-19T11:12:50Z</time>
      </trkpt>
      <trkpt lat="45.98239" lon="4.81493">
        <ele>249</ele>
        <time>2018-01-19T11:12:52Z</time>
      </trkpt>
      <trkpt lat="45.98237" lon="4.81488">
        <ele>249</ele>
        <time>2018-01-19T11:12:53Z</time>
      </trkpt>
      <trkpt lat="45.98234" lon="4.81478">
        <ele>249</ele>
        <time>2018-01-19T11:12:55Z</time>
      </trkpt>
      <trkpt lat="45.98233" lon="4.81473">
        <ele>249</ele>
        <time>2018-01-19T11:12:56Z</time>
      </trkpt>
      <trkpt lat="45.98231" lon="4.81463">
        <ele>249</ele>
        <time>2018-01-19T11:12:58Z</time>
      </trkpt>
      <trkpt lat="45.98229" lon="4.81458">
        <ele>249</ele>
        <time>2018-01-19T11:12:59Z</time>
      </trkpt>
      <trkpt lat="45.98225" lon="4.81449">
        <ele>249</ele>
        <time>2018-01-19T11:13:01Z</time>
      </trkpt>
      <trkpt lat="45.98224" lon="4.81444">
        <ele>249</ele>
        <time>2018-01-19T11:13:02Z</time>
      </trkpt>
      <trkpt lat="45.9822" lon="4.81433">
        <ele>249</ele>
        <time>2018-01-19T11:13:04Z</time>
      </trkpt>
      <trkpt lat="45.98219" lon="4.81428">
        <ele>249</ele>
        <time>2018-01-19T11:13:05Z</time>
      </trkpt>
      <trkpt lat="45.98216" lon="4.81417">
        <ele>249</ele>
        <time>2018-01-19T11:13:07Z</time>
      </trkpt>
      <trkpt lat="45.98215" lon="4.81412">
        <ele>248</ele>
        <time>2018-01-19T11:13:08Z</time>
      </trkpt>
      <trkpt lat="45.98211" lon="4.81403">
        <ele>248</ele>
        <time>2018-01-19T11:13:10Z</time>
      </trkpt>
      <trkpt lat="45.98209" lon="4.81399">
        <ele>248</ele>
        <time>2018-01-19T11:13:11Z</time>
      </trkpt>
      <trkpt lat="45.98206" lon="4.81389">
        <ele>248</ele>
        <time>2018-01-19T11:13:13Z</time>
      </trkpt>
      <trkpt lat="45.98205" lon="4.81384">
        <ele>248</ele>
        <time>2018-01-19T11:13:14Z</time>
      </trkpt>
      <trkpt lat="45.98203" lon="4.81377">
        <ele>248</ele>
        <time>2018-01-19T11:13:15Z</time>
      </trkpt>
      <trkpt lat="45.98201" lon="4.81371">
        <ele>248</ele>
        <time>2018-01-19T11:13:16Z</time>
      </trkpt>
      <trkpt lat="45.98201" lon="4.81365">
        <ele>248</ele>
        <time>2018-01-19T11:13:17Z</time>
      </trkpt>
      <trkpt lat="45.98199" lon="4.81358">
        <ele>248</ele>
        <time>2018-01-19T11:13:18Z</time>
      </trkpt>
      <trkpt lat="45.98197" lon="4.81351">
        <ele>248</ele>
        <time>2018-01-19T11:13:19Z</time>
      </trkpt>
      <trkpt lat="45.98195" lon="4.81344">
        <ele>248</ele>
        <time>2018-01-19T11:13:20Z</time>
      </trkpt>
      <trkpt lat="45.98195" lon="4.81336">
        <ele>248</ele>
        <time>2018-01-19T11:13:21Z</time>
      </trkpt>
      <trkpt lat="45.98193" lon="4.8133">
        <ele>247</ele>
        <time>2018-01-19T11:13:22Z</time>
      </trkpt>
      <trkpt lat="45.98191" lon="4.81322">
        <ele>247</ele>
        <time>2018-01-19T11:13:23Z</time>
      </trkpt>
      <trkpt lat="45.9819" lon="4.81314">
        <ele>247</ele>
        <time>2018-01-19T11:13:24Z</time>
      </trkpt>
      <trkpt lat="45.98188" lon="4.81307">
        <ele>247</ele>
        <time>2018-01-19T11:13:25Z</time>
      </trkpt>
      <trkpt lat="45.98187" lon="4.813">
        <ele>247</ele>
        <time>2018-01-19T11:13:26Z</time>
      </trkpt>
      <trkpt lat="45.98185" lon="4.81292">
        <ele>247</ele>
        <time>2018-01-19T11:13:27Z</time>
      </trkpt>
      <trkpt lat="45.98183" lon="4.81285">
        <ele>247</ele>
        <time>2018-01-19T11:13:28Z</time>
      </trkpt>
      <trkpt lat="45.98183" lon="4.81277">
        <ele>247</ele>
        <time>2018-01-19T11:13:29Z</time>
      </trkpt>
      <trkpt lat="45.98181" lon="4.8127">
        <ele>247</ele>
        <time>2018-01-19T11:13:30Z</time>
      </trkpt>
      <trkpt lat="45.98181" lon="4.81259">
        <ele>247</ele>
        <time>2018-01-19T11:13:31Z</time>
      </trkpt>
      <trkpt lat="45.98181" lon="4.81251">
        <ele>247</ele>
        <time>2018-01-19T11:13:32Z</time>
      </trkpt>
      <trkpt lat="45.9818" lon="4.81244">
        <ele>247</ele>
        <time>2018-01-19T11:13:33Z</time>
      </trkpt>
      <trkpt lat="45.98179" lon="4.81238">
        <ele>246</ele>
        <time>2018-01-19T11:13:34Z</time>
      </trkpt>
      <trkpt lat="45.98178" lon="4.81231">
        <ele>246</ele>
        <time>2018-01-19T11:13:35Z</time>
      </trkpt>
      <trkpt lat="45.98177" lon="4.81225">
        <ele>246</ele>
        <time>2018-01-19T11:13:36Z</time>
      </trkpt>
      <trkpt lat="45.98176" lon="4.81218">
        <ele>246</ele>
        <time>2018-01-19T11:13:37Z</time>
      </trkpt>
      <trkpt lat="45.98175" lon="4.81211">
        <ele>246</ele>
        <time>2018-01-19T11:13:38Z</time>
      </trkpt>
      <trkpt lat="45.98173" lon="4.81203">
        <ele>245</ele>
        <time>2018-01-19T11:13:39Z</time>
      </trkpt>
      <trkpt lat="45.98172" lon="4.81197">
        <ele>245</ele>
        <time>2018-01-19T11:13:40Z</time>
      </trkpt>
      <trkpt lat="45.98172" lon="4.8119">
        <ele>245</ele>
        <time>2018-01-19T11:13:41Z</time>
      </trkpt>
      <trkpt lat="45.98171" lon="4.81184">
        <ele>245</ele>
        <time>2018-01-19T11:13:42Z</time>
      </trkpt>
      <trkpt lat="45.98169" lon="4.81177">
        <ele>245</ele>
        <time>2018-01-19T11:13:43Z</time>
      </trkpt>
      <trkpt lat="45.98166" lon="4.81169">
        <ele>245</ele>
        <time>2018-01-19T11:13:44Z</time>
      </trkpt>
      <trkpt lat="45.98164" lon="4.81161">
        <ele>245</ele>
        <time>2018-01-19T11:13:45Z</time>
      </trkpt>
      <trkpt lat="45.98162" lon="4.81153">
        <ele>245</ele>
        <time>2018-01-19T11:13:46Z</time>
      </trkpt>
      <trkpt lat="45.98159" lon="4.81144">
        <ele>245</ele>
        <time>2018-01-19T11:13:47Z</time>
      </trkpt>
      <trkpt lat="45.98156" lon="4.81137">
        <ele>245</ele>
        <time>2018-01-19T11:13:48Z</time>
      </trkpt>
      <trkpt lat="45.98154" lon="4.81128">
        <ele>245</ele>
        <time>2018-01-19T11:13:49Z</time>
      </trkpt>
      <trkpt lat="45.98151" lon="4.8112">
        <ele>245</ele>
        <time>2018-01-19T11:13:50Z</time>
      </trkpt>
      <trkpt lat="45.98147" lon="4.81115">
        <ele>245</ele>
        <time>2018-01-19T11:13:51Z</time>
      </trkpt>
      <trkpt lat="45.98144" lon="4.81108">
        <ele>245</ele>
        <time>2018-01-19T11:13:52Z</time>
      </trkpt>
      <trkpt lat="45.98141" lon="4.81102">
        <ele>245</ele>
        <time>2018-01-19T11:13:53Z</time>
      </trkpt>
      <trkpt lat="45.98133" lon="4.81094">
        <ele>245</ele>
        <time>2018-01-19T11:13:54Z</time>
      </trkpt>
      <trkpt lat="45.9813" lon="4.81087">
        <ele>245</ele>
        <time>2018-01-19T11:13:55Z</time>
      </trkpt>
      <trkpt lat="45.98129" lon="4.81079">
        <ele>243</ele>
        <time>2018-01-19T11:13:56Z</time>
      </trkpt>
      <trkpt lat="45.98127" lon="4.81073">
        <ele>243</ele>
        <time>2018-01-19T11:13:57Z</time>
      </trkpt>
      <trkpt lat="45.98125" lon="4.81066">
        <ele>243</ele>
        <time>2018-01-19T11:13:58Z</time>
      </trkpt>
      <trkpt lat="45.98122" lon="4.8106">
        <ele>243</ele>
        <time>2018-01-19T11:13:59Z</time>
      </trkpt>
      <trkpt lat="45.9812" lon="4.81054">
        <ele>243</ele>
        <time>2018-01-19T11:14:00Z</time>
      </trkpt>
      <trkpt lat="45.98119" lon="4.81042">
        <ele>242</ele>
        <time>2018-01-19T11:14:02Z</time>
      </trkpt>
      <trkpt lat="45.98117" lon="4.81036">
        <ele>242</ele>
        <time>2018-01-19T11:14:03Z</time>
      </trkpt>
      <trkpt lat="45.98115" lon="4.8103">
        <ele>242</ele>
        <time>2018-01-19T11:14:04Z</time>
      </trkpt>
      <trkpt lat="45.98113" lon="4.81024">
        <ele>242</ele>
        <time>2018-01-19T11:14:05Z</time>
      </trkpt>
      <trkpt lat="45.98109" lon="4.81014">
        <ele>242</ele>
        <time>2018-01-19T11:14:07Z</time>
      </trkpt>
      <trkpt lat="45.98107" lon="4.81009">
        <ele>242</ele>
        <time>2018-01-19T11:14:08Z</time>
      </trkpt>
      <trkpt lat="45.98103" lon="4.81">
        <ele>240</ele>
        <time>2018-01-19T11:14:10Z</time>
      </trkpt>
      <trkpt lat="45.98102" lon="4.80995">
        <ele>240</ele>
        <time>2018-01-19T11:14:11Z</time>
      </trkpt>
      <trkpt lat="45.98098" lon="4.80983">
        <ele>239</ele>
        <time>2018-01-19T11:14:13Z</time>
      </trkpt>
      <trkpt lat="45.98096" lon="4.80978">
        <ele>239</ele>
        <time>2018-01-19T11:14:14Z</time>
      </trkpt>
      <trkpt lat="45.98095" lon="4.80972">
        <ele>239</ele>
        <time>2018-01-19T11:14:15Z</time>
      </trkpt>
      <trkpt lat="45.98093" lon="4.80966">
        <ele>239</ele>
        <time>2018-01-19T11:14:16Z</time>
      </trkpt>
      <trkpt lat="45.98091" lon="4.80959">
        <ele>239</ele>
        <time>2018-01-19T11:14:17Z</time>
      </trkpt>
      <trkpt lat="45.98089" lon="4.80951">
        <ele>238</ele>
        <time>2018-01-19T11:14:18Z</time>
      </trkpt>
      <trkpt lat="45.98087" lon="4.80943">
        <ele>238</ele>
        <time>2018-01-19T11:14:19Z</time>
      </trkpt>
      <trkpt lat="45.98084" lon="4.80933">
        <ele>238</ele>
        <time>2018-01-19T11:14:20Z</time>
      </trkpt>
      <trkpt lat="45.98082" lon="4.80923">
        <ele>239</ele>
        <time>2018-01-19T11:14:21Z</time>
      </trkpt>
      <trkpt lat="45.98079" lon="4.80914">
        <ele>239</ele>
        <time>2018-01-19T11:14:22Z</time>
      </trkpt>
      <trkpt lat="45.98077" lon="4.80905">
        <ele>238</ele>
        <time>2018-01-19T11:14:23Z</time>
      </trkpt>
      <trkpt lat="45.98074" lon="4.80894">
        <ele>238</ele>
        <time>2018-01-19T11:14:24Z</time>
      </trkpt>
      <trkpt lat="45.98073" lon="4.80884">
        <ele>237</ele>
        <time>2018-01-19T11:14:25Z</time>
      </trkpt>
      <trkpt lat="45.98069" lon="4.80871">
        <ele>237</ele>
        <time>2018-01-19T11:14:26Z</time>
      </trkpt>
      <trkpt lat="45.98066" lon="4.80859">
        <ele>236</ele>
        <time>2018-01-19T11:14:27Z</time>
      </trkpt>
      <trkpt lat="45.98063" lon="4.80848">
        <ele>236</ele>
        <time>2018-01-19T11:14:28Z</time>
      </trkpt>
      <trkpt lat="45.9806" lon="4.80837">
        <ele>236</ele>
        <time>2018-01-19T11:14:29Z</time>
      </trkpt>
      <trkpt lat="45.98056" lon="4.80826">
        <ele>234</ele>
        <time>2018-01-19T11:14:30Z</time>
      </trkpt>
      <trkpt lat="45.98053" lon="4.80814">
        <ele>234</ele>
        <time>2018-01-19T11:14:31Z</time>
      </trkpt>
      <trkpt lat="45.9805" lon="4.80803">
        <ele>234</ele>
        <time>2018-01-19T11:14:32Z</time>
      </trkpt>
      <trkpt lat="45.98047" lon="4.80793">
        <ele>233</ele>
        <time>2018-01-19T11:14:33Z</time>
      </trkpt>
      <trkpt lat="45.98044" lon="4.80783">
        <ele>233</ele>
        <time>2018-01-19T11:14:34Z</time>
      </trkpt>
      <trkpt lat="45.98042" lon="4.80772">
        <ele>233</ele>
        <time>2018-01-19T11:14:35Z</time>
      </trkpt>
      <trkpt lat="45.9804" lon="4.80763">
        <ele>233</ele>
        <time>2018-01-19T11:14:36Z</time>
      </trkpt>
      <trkpt lat="45.98039" lon="4.80755">
        <ele>233</ele>
        <time>2018-01-19T11:14:37Z</time>
      </trkpt>
      <trkpt lat="45.98038" lon="4.80744">
        <ele>231</ele>
        <time>2018-01-19T11:14:38Z</time>
      </trkpt>
      <trkpt lat="45.98036" lon="4.80737">
        <ele>231</ele>
        <time>2018-01-19T11:14:39Z</time>
      </trkpt>
      <trkpt lat="45.98035" lon="4.8073">
        <ele>231</ele>
        <time>2018-01-19T11:14:40Z</time>
      </trkpt>
      <trkpt lat="45.98033" lon="4.80721">
        <ele>231</ele>
        <time>2018-01-19T11:14:42Z</time>
      </trkpt>
      <trkpt lat="45.98033" lon="4.80716">
        <ele>231</ele>
        <time>2018-01-19T11:14:43Z</time>
      </trkpt>
      <trkpt lat="45.98033" lon="4.80707">
        <ele>231</ele>
        <time>2018-01-19T11:14:44Z</time>
      </trkpt>
      <trkpt lat="45.98036" lon="4.80703">
        <ele>230</ele>
        <time>2018-01-19T11:14:45Z</time>
      </trkpt>
      <trkpt lat="45.98042" lon="4.80702">
        <ele>230</ele>
        <time>2018-01-19T11:14:46Z</time>
      </trkpt>
      <trkpt lat="45.98048" lon="4.80701">
        <ele>230</ele>
        <time>2018-01-19T11:14:47Z</time>
      </trkpt>
      <trkpt lat="45.98053" lon="4.807">
        <ele>230</ele>
        <time>2018-01-19T11:14:48Z</time>
      </trkpt>
      <trkpt lat="45.9806" lon="4.807">
        <ele>230</ele>
        <time>2018-01-19T11:14:49Z</time>
      </trkpt>
      <trkpt lat="45.98066" lon="4.80699">
        <ele>230</ele>
        <time>2018-01-19T11:14:50Z</time>
      </trkpt>
      <trkpt lat="45.98073" lon="4.80698">
        <ele>230</ele>
        <time>2018-01-19T11:14:51Z</time>
      </trkpt>
      <trkpt lat="45.9808" lon="4.80698">
        <ele>230</ele>
        <time>2018-01-19T11:14:52Z</time>
      </trkpt>
      <trkpt lat="45.98088" lon="4.80696">
        <ele>228</ele>
        <time>2018-01-19T11:14:53Z</time>
      </trkpt>
      <trkpt lat="45.98094" lon="4.80697">
        <ele>228</ele>
        <time>2018-01-19T11:14:54Z</time>
      </trkpt>
      <trkpt lat="45.98102" lon="4.80697">
        <ele>228</ele>
        <time>2018-01-19T11:14:55Z</time>
      </trkpt>
      <trkpt lat="45.98109" lon="4.80697">
        <ele>228</ele>
        <time>2018-01-19T11:14:56Z</time>
      </trkpt>
      <trkpt lat="45.98116" lon="4.80697">
        <ele>228</ele>
        <time>2018-01-19T11:14:57Z</time>
      </trkpt>
      <trkpt lat="45.98123" lon="4.80697">
        <ele>228</ele>
        <time>2018-01-19T11:14:58Z</time>
      </trkpt>
      <trkpt lat="45.9813" lon="4.80696">
        <ele>228</ele>
        <time>2018-01-19T11:14:59Z</time>
      </trkpt>
      <trkpt lat="45.98138" lon="4.80695">
        <ele>228</ele>
        <time>2018-01-19T11:15:00Z</time>
      </trkpt>
      <trkpt lat="45.98146" lon="4.80695">
        <ele>228</ele>
        <time>2018-01-19T11:15:01Z</time>
      </trkpt>
      <trkpt lat="45.98154" lon="4.80694">
        <ele>228</ele>
        <time>2018-01-19T11:15:02Z</time>
      </trkpt>
      <trkpt lat="45.98161" lon="4.80693">
        <ele>227</ele>
        <time>2018-01-19T11:15:03Z</time>
      </trkpt>
      <trkpt lat="45.98169" lon="4.80692">
        <ele>225</ele>
        <time>2018-01-19T11:15:04Z</time>
      </trkpt>
      <trkpt lat="45.98176" lon="4.80691">
        <ele>225</ele>
        <time>2018-01-19T11:15:05Z</time>
      </trkpt>
      <trkpt lat="45.98182" lon="4.80689">
        <ele>225</ele>
        <time>2018-01-19T11:15:06Z</time>
      </trkpt>
      <trkpt lat="45.98189" lon="4.80687">
        <ele>225</ele>
        <time>2018-01-19T11:15:07Z</time>
      </trkpt>
      <trkpt lat="45.98195" lon="4.80685">
        <ele>225</ele>
        <time>2018-01-19T11:15:08Z</time>
      </trkpt>
      <trkpt lat="45.982" lon="4.80684">
        <ele>225</ele>
        <time>2018-01-19T11:15:09Z</time>
      </trkpt>
      <trkpt lat="45.98205" lon="4.80682">
        <ele>224</ele>
        <time>2018-01-19T11:15:10Z</time>
      </trkpt>
      <trkpt lat="45.98209" lon="4.8068">
        <ele>224</ele>
        <time>2018-01-19T11:15:11Z</time>
      </trkpt>
      <trkpt lat="45.98213" lon="4.80675">
        <ele>224</ele>
        <time>2018-01-19T11:15:12Z</time>
      </trkpt>
      <trkpt lat="45.98219" lon="4.80669">
        <ele>224</ele>
        <time>2018-01-19T11:15:13Z</time>
      </trkpt>
      <trkpt lat="45.98222" lon="4.80663">
        <ele>224</ele>
        <time>2018-01-19T11:15:14Z</time>
      </trkpt>
      <trkpt lat="45.98225" lon="4.80655">
        <ele>224</ele>
        <time>2018-01-19T11:15:15Z</time>
      </trkpt>
      <trkpt lat="45.98227" lon="4.80647">
        <ele>224</ele>
        <time>2018-01-19T11:15:16Z</time>
      </trkpt>
      <trkpt lat="45.9823" lon="4.80638">
        <ele>224</ele>
        <time>2018-01-19T11:15:17Z</time>
      </trkpt>
      <trkpt lat="45.98233" lon="4.80631">
        <ele>224</ele>
        <time>2018-01-19T11:15:18Z</time>
      </trkpt>
      <trkpt lat="45.98236" lon="4.80622">
        <ele>224</ele>
        <time>2018-01-19T11:15:19Z</time>
      </trkpt>
      <trkpt lat="45.98238" lon="4.80612">
        <ele>224</ele>
        <time>2018-01-19T11:15:20Z</time>
      </trkpt>
      <trkpt lat="45.98241" lon="4.80604">
        <ele>224</ele>
        <time>2018-01-19T11:15:21Z</time>
      </trkpt>
      <trkpt lat="45.98244" lon="4.80595">
        <ele>224</ele>
        <time>2018-01-19T11:15:22Z</time>
      </trkpt>
      <trkpt lat="45.98246" lon="4.80588">
        <ele>224</ele>
        <time>2018-01-19T11:15:23Z</time>
      </trkpt>
      <trkpt lat="45.98249" lon="4.8058">
        <ele>224</ele>
        <time>2018-01-19T11:15:24Z</time>
      </trkpt>
      <trkpt lat="45.98251" lon="4.80573">
        <ele>224</ele>
        <time>2018-01-19T11:15:25Z</time>
      </trkpt>
      <trkpt lat="45.98254" lon="4.80566">
        <ele>224</ele>
        <time>2018-01-19T11:15:26Z</time>
      </trkpt>
      <trkpt lat="45.98256" lon="4.80559">
        <ele>224</ele>
        <time>2018-01-19T11:15:27Z</time>
      </trkpt>
      <trkpt lat="45.98259" lon="4.80553">
        <ele>224</ele>
        <time>2018-01-19T11:15:28Z</time>
      </trkpt>
      <trkpt lat="45.98261" lon="4.80546">
        <ele>224</ele>
        <time>2018-01-19T11:15:29Z</time>
      </trkpt>
      <trkpt lat="45.98263" lon="4.80539">
        <ele>224</ele>
        <time>2018-01-19T11:15:30Z</time>
      </trkpt>
      <trkpt lat="45.98265" lon="4.80532">
        <ele>224</ele>
        <time>2018-01-19T11:15:31Z</time>
      </trkpt>
      <trkpt lat="45.98268" lon="4.80521">
        <ele>224</ele>
        <time>2018-01-19T11:15:33Z</time>
      </trkpt>
      <trkpt lat="45.98269" lon="4.80516">
        <ele>223</ele>
        <time>2018-01-19T11:15:34Z</time>
      </trkpt>
      <trkpt lat="45.9827" lon="4.8051">
        <ele>223</ele>
        <time>2018-01-19T11:15:35Z</time>
      </trkpt>
      <trkpt lat="45.98272" lon="4.80503">
        <ele>223</ele>
        <time>2018-01-19T11:15:36Z</time>
      </trkpt>
      <trkpt lat="45.98274" lon="4.80496">
        <ele>223</ele>
        <time>2018-01-19T11:15:38Z</time>
      </trkpt>
      <trkpt lat="45.98274" lon="4.8049">
        <ele>223</ele>
        <time>2018-01-19T11:15:39Z</time>
      </trkpt>
      <trkpt lat="45.98275" lon="4.8048">
        <ele>223</ele>
        <time>2018-01-19T11:15:41Z</time>
      </trkpt>
      <trkpt lat="45.98277" lon="4.80475">
        <ele>223</ele>
        <time>2018-01-19T11:15:42Z</time>
      </trkpt>
      <trkpt lat="45.98279" lon="4.80463">
        <ele>223</ele>
        <time>2018-01-19T11:15:44Z</time>
      </trkpt>
      <trkpt lat="45.98281" lon="4.80456">
        <ele>223</ele>
        <time>2018-01-19T11:15:45Z</time>
      </trkpt>
      <trkpt lat="45.98284" lon="4.80444">
        <ele>223</ele>
        <time>2018-01-19T11:15:47Z</time>
      </trkpt>
      <trkpt lat="45.9829" lon="4.8043">
        <ele>224</ele>
        <time>2018-01-19T11:15:48Z</time>
      </trkpt>
      <trkpt lat="45.98291" lon="4.80423">
        <ele>224</ele>
        <time>2018-01-19T11:15:49Z</time>
      </trkpt>
      <trkpt lat="45.98294" lon="4.80416">
        <ele>224</ele>
        <time>2018-01-19T11:15:50Z</time>
      </trkpt>
      <trkpt lat="45.98295" lon="4.8041">
        <ele>224</ele>
        <time>2018-01-19T11:15:51Z</time>
      </trkpt>
      <trkpt lat="45.98297" lon="4.80403">
        <ele>225</ele>
        <time>2018-01-19T11:15:52Z</time>
      </trkpt>
      <trkpt lat="45.98297" lon="4.80396">
        <ele>225</ele>
        <time>2018-01-19T11:15:53Z</time>
      </trkpt>
      <trkpt lat="45.98299" lon="4.8039">
        <ele>225</ele>
        <time>2018-01-19T11:15:54Z</time>
      </trkpt>
      <trkpt lat="45.98301" lon="4.80379">
        <ele>225</ele>
        <time>2018-01-19T11:15:56Z</time>
      </trkpt>
      <trkpt lat="45.98303" lon="4.80369">
        <ele>225</ele>
        <time>2018-01-19T11:15:57Z</time>
      </trkpt>
      <trkpt lat="45.98304" lon="4.80359">
        <ele>225</ele>
        <time>2018-01-19T11:15:59Z</time>
      </trkpt>
      <trkpt lat="45.98305" lon="4.80353">
        <ele>225</ele>
        <time>2018-01-19T11:16:00Z</time>
      </trkpt>
      <trkpt lat="45.98307" lon="4.80343">
        <ele>226</ele>
        <time>2018-01-19T11:16:02Z</time>
      </trkpt>
      <trkpt lat="45.98309" lon="4.80335">
        <ele>226</ele>
        <time>2018-01-19T11:16:03Z</time>
      </trkpt>
      <trkpt lat="45.9831" lon="4.80328">
        <ele>227</ele>
        <time>2018-01-19T11:16:04Z</time>
      </trkpt>
      <trkpt lat="45.98313" lon="4.80322">
        <ele>227</ele>
        <time>2018-01-19T11:16:05Z</time>
      </trkpt>
      <trkpt lat="45.98317" lon="4.80314">
        <ele>227</ele>
        <time>2018-01-19T11:16:06Z</time>
      </trkpt>
      <trkpt lat="45.98317" lon="4.80309">
        <ele>227</ele>
        <time>2018-01-19T11:16:07Z</time>
      </trkpt>
      <trkpt lat="45.98318" lon="4.80297">
        <ele>226</ele>
        <time>2018-01-19T11:16:09Z</time>
      </trkpt>
      <trkpt lat="45.9832" lon="4.80291">
        <ele>227</ele>
        <time>2018-01-19T11:16:10Z</time>
      </trkpt>
      <trkpt lat="45.98323" lon="4.80281">
        <ele>227</ele>
        <time>2018-01-19T11:16:12Z</time>
      </trkpt>
      <trkpt lat="45.98322" lon="4.80277">
        <ele>227</ele>
        <time>2018-01-19T11:16:13Z</time>
      </trkpt>
      <trkpt lat="45.98323" lon="4.80265">
        <ele>228</ele>
        <time>2018-01-19T11:16:16Z</time>
      </trkpt>
      <trkpt lat="45.98324" lon="4.80261">
        <ele>228</ele>
        <time>2018-01-19T11:16:17Z</time>
      </trkpt>
      <trkpt lat="45.98326" lon="4.80251">
        <ele>229</ele>
        <time>2018-01-19T11:16:19Z</time>
      </trkpt>
      <trkpt lat="45.98327" lon="4.80246">
        <ele>229</ele>
        <time>2018-01-19T11:16:20Z</time>
      </trkpt>
      <trkpt lat="45.98328" lon="4.8024">
        <ele>228</ele>
        <time>2018-01-19T11:16:21Z</time>
      </trkpt>
      <trkpt lat="45.98328" lon="4.80233">
        <ele>228</ele>
        <time>2018-01-19T11:16:22Z</time>
      </trkpt>
      <trkpt lat="45.98329" lon="4.80226">
        <ele>228</ele>
        <time>2018-01-19T11:16:23Z</time>
      </trkpt>
      <trkpt lat="45.98328" lon="4.80219">
        <ele>227</ele>
        <time>2018-01-19T11:16:24Z</time>
      </trkpt>
      <trkpt lat="45.98327" lon="4.80212">
        <ele>227</ele>
        <time>2018-01-19T11:16:25Z</time>
      </trkpt>
      <trkpt lat="45.98325" lon="4.80206">
        <ele>227</ele>
        <time>2018-01-19T11:16:26Z</time>
      </trkpt>
      <trkpt lat="45.98323" lon="4.802">
        <ele>227</ele>
        <time>2018-01-19T11:16:27Z</time>
      </trkpt>
      <trkpt lat="45.9832" lon="4.80191">
        <ele>227</ele>
        <time>2018-01-19T11:16:28Z</time>
      </trkpt>
      <trkpt lat="45.98318" lon="4.80184">
        <ele>227</ele>
        <time>2018-01-19T11:16:29Z</time>
      </trkpt>
      <trkpt lat="45.98316" lon="4.80178">
        <ele>227</ele>
        <time>2018-01-19T11:16:30Z</time>
      </trkpt>
      <trkpt lat="45.98314" lon="4.80172">
        <ele>227</ele>
        <time>2018-01-19T11:16:31Z</time>
      </trkpt>
      <trkpt lat="45.9831" lon="4.80166">
        <ele>228</ele>
        <time>2018-01-19T11:16:32Z</time>
      </trkpt>
      <trkpt lat="45.98308" lon="4.8016">
        <ele>228</ele>
        <time>2018-01-19T11:16:33Z</time>
      </trkpt>
      <trkpt lat="45.98306" lon="4.80154">
        <ele>228</ele>
        <time>2018-01-19T11:16:34Z</time>
      </trkpt>
      <trkpt lat="45.98304" lon="4.80149">
        <ele>228</ele>
        <time>2018-01-19T11:16:35Z</time>
      </trkpt>
      <trkpt lat="45.98303" lon="4.8014">
        <ele>228</ele>
        <time>2018-01-19T11:16:36Z</time>
      </trkpt>
      <trkpt lat="45.98299" lon="4.80129">
        <ele>228</ele>
        <time>2018-01-19T11:16:38Z</time>
      </trkpt>
      <trkpt lat="45.98297" lon="4.80124">
        <ele>228</ele>
        <time>2018-01-19T11:16:39Z</time>
      </trkpt>
      <trkpt lat="45.98295" lon="4.80117">
        <ele>228</ele>
        <time>2018-01-19T11:16:40Z</time>
      </trkpt>
      <trkpt lat="45.98293" lon="4.8011">
        <ele>228</ele>
        <time>2018-01-19T11:16:41Z</time>
      </trkpt>
      <trkpt lat="45.9829" lon="4.80104">
        <ele>228</ele>
        <time>2018-01-19T11:16:42Z</time>
      </trkpt>
      <trkpt lat="45.98288" lon="4.80098">
        <ele>228</ele>
        <time>2018-01-19T11:16:43Z</time>
      </trkpt>
      <trkpt lat="45.98283" lon="4.80087">
        <ele>228</ele>
        <time>2018-01-19T11:16:45Z</time>
      </trkpt>
      <trkpt lat="45.98282" lon="4.8008">
        <ele>229</ele>
        <time>2018-01-19T11:16:46Z</time>
      </trkpt>
      <trkpt lat="45.98278" lon="4.80069">
        <ele>229</ele>
        <time>2018-01-19T11:16:48Z</time>
      </trkpt>
      <trkpt lat="45.98276" lon="4.80063">
        <ele>229</ele>
        <time>2018-01-19T11:16:49Z</time>
      </trkpt>
      <trkpt lat="45.98274" lon="4.80057">
        <ele>229</ele>
        <time>2018-01-19T11:16:50Z</time>
      </trkpt>
      <trkpt lat="45.98272" lon="4.80052">
        <ele>229</ele>
        <time>2018-01-19T11:16:51Z</time>
      </trkpt>
      <trkpt lat="45.9827" lon="4.80045">
        <ele>229</ele>
        <time>2018-01-19T11:16:52Z</time>
      </trkpt>
      <trkpt lat="45.98269" lon="4.80039">
        <ele>229</ele>
        <time>2018-01-19T11:16:53Z</time>
      </trkpt>
      <trkpt lat="45.98267" lon="4.80032">
        <ele>229</ele>
        <time>2018-01-19T11:16:54Z</time>
      </trkpt>
      <trkpt lat="45.98264" lon="4.80026">
        <ele>228</ele>
        <time>2018-01-19T11:16:55Z</time>
      </trkpt>
      <trkpt lat="45.98261" lon="4.80019">
        <ele>228</ele>
        <time>2018-01-19T11:16:56Z</time>
      </trkpt>
      <trkpt lat="45.98258" lon="4.80013">
        <ele>228</ele>
        <time>2018-01-19T11:16:57Z</time>
      </trkpt>
      <trkpt lat="45.98256" lon="4.80006">
        <ele>227</ele>
        <time>2018-01-19T11:16:58Z</time>
      </trkpt>
      <trkpt lat="45.98255" lon="4.8">
        <ele>227</ele>
        <time>2018-01-19T11:16:59Z</time>
      </trkpt>
      <trkpt lat="45.98253" lon="4.79993">
        <ele>227</ele>
        <time>2018-01-19T11:17:00Z</time>
      </trkpt>
      <trkpt lat="45.98251" lon="4.79986">
        <ele>227</ele>
        <time>2018-01-19T11:17:01Z</time>
      </trkpt>
      <trkpt lat="45.98247" lon="4.79977">
        <ele>225</ele>
        <time>2018-01-19T11:17:03Z</time>
      </trkpt>
      <trkpt lat="45.98245" lon="4.79971">
        <ele>225</ele>
        <time>2018-01-19T11:17:04Z</time>
      </trkpt>
      <trkpt lat="45.98242" lon="4.7996">
        <ele>225</ele>
        <time>2018-01-19T11:17:07Z</time>
      </trkpt>
      <trkpt lat="45.98239" lon="4.79956">
        <ele>225</ele>
        <time>2018-01-19T11:17:08Z</time>
      </trkpt>
      <trkpt lat="45.98238" lon="4.7995">
        <ele>225</ele>
        <time>2018-01-19T11:17:09Z</time>
      </trkpt>
      <trkpt lat="45.98235" lon="4.79944">
        <ele>225</ele>
        <time>2018-01-19T11:17:10Z</time>
      </trkpt>
      <trkpt lat="45.98232" lon="4.79937">
        <ele>225</ele>
        <time>2018-01-19T11:17:11Z</time>
      </trkpt>
      <trkpt lat="45.9823" lon="4.7993">
        <ele>225</ele>
        <time>2018-01-19T11:17:12Z</time>
      </trkpt>
      <trkpt lat="45.98228" lon="4.79923">
        <ele>225</ele>
        <time>2018-01-19T11:17:13Z</time>
      </trkpt>
      <trkpt lat="45.98227" lon="4.79917">
        <ele>225</ele>
        <time>2018-01-19T11:17:14Z</time>
      </trkpt>
      <trkpt lat="45.98225" lon="4.79912">
        <ele>225</ele>
        <time>2018-01-19T11:17:15Z</time>
      </trkpt>
      <trkpt lat="45.98223" lon="4.79906">
        <ele>225</ele>
        <time>2018-01-19T11:17:16Z</time>
      </trkpt>
      <trkpt lat="45.98222" lon="4.79896">
        <ele>225</ele>
        <time>2018-01-19T11:17:18Z</time>
      </trkpt>
      <trkpt lat="45.98221" lon="4.79891">
        <ele>225</ele>
        <time>2018-01-19T11:17:19Z</time>
      </trkpt>
      <trkpt lat="45.98219" lon="4.79878">
        <ele>225</ele>
        <time>2018-01-19T11:17:21Z</time>
      </trkpt>
      <trkpt lat="45.98219" lon="4.79873">
        <ele>225</ele>
        <time>2018-01-19T11:17:22Z</time>
      </trkpt>
      <trkpt lat="45.98215" lon="4.79863">
        <ele>225</ele>
        <time>2018-01-19T11:17:24Z</time>
      </trkpt>
      <trkpt lat="45.98213" lon="4.79857">
        <ele>225</ele>
        <time>2018-01-19T11:17:25Z</time>
      </trkpt>
      <trkpt lat="45.98209" lon="4.79847">
        <ele>225</ele>
        <time>2018-01-19T11:17:27Z</time>
      </trkpt>
      <trkpt lat="45.98206" lon="4.79843">
        <ele>225</ele>
        <time>2018-01-19T11:17:28Z</time>
      </trkpt>
      <trkpt lat="45.98202" lon="4.79833">
        <ele>225</ele>
        <time>2018-01-19T11:17:30Z</time>
      </trkpt>
      <trkpt lat="45.982" lon="4.79828">
        <ele>225</ele>
        <time>2018-01-19T11:17:31Z</time>
      </trkpt>
      <trkpt lat="45.98195" lon="4.79819">
        <ele>225</ele>
        <time>2018-01-19T11:17:33Z</time>
      </trkpt>
      <trkpt lat="45.98193" lon="4.79813">
        <ele>226</ele>
        <time>2018-01-19T11:17:34Z</time>
      </trkpt>
      <trkpt lat="45.9819" lon="4.79803">
        <ele>226</ele>
        <time>2018-01-19T11:17:36Z</time>
      </trkpt>
      <trkpt lat="45.98188" lon="4.79799">
        <ele>226</ele>
        <time>2018-01-19T11:17:37Z</time>
      </trkpt>
      <trkpt lat="45.98185" lon="4.79789">
        <ele>226</ele>
        <time>2018-01-19T11:17:39Z</time>
      </trkpt>
      <trkpt lat="45.98183" lon="4.79784">
        <ele>226</ele>
        <time>2018-01-19T11:17:40Z</time>
      </trkpt>
      <trkpt lat="45.98183" lon="4.79775">
        <ele>226</ele>
        <time>2018-01-19T11:17:42Z</time>
      </trkpt>
      <trkpt lat="45.98184" lon="4.79771">
        <ele>226</ele>
        <time>2018-01-19T11:17:43Z</time>
      </trkpt>
      <trkpt lat="45.98188" lon="4.79764">
        <ele>226</ele>
        <time>2018-01-19T11:17:45Z</time>
      </trkpt>
      <trkpt lat="45.98191" lon="4.79762">
        <ele>226</ele>
        <time>2018-01-19T11:17:46Z</time>
      </trkpt>
      <trkpt lat="45.98198" lon="4.79758">
        <ele>226</ele>
        <time>2018-01-19T11:17:48Z</time>
      </trkpt>
      <trkpt lat="45.98202" lon="4.79757">
        <ele>226</ele>
        <time>2018-01-19T11:17:49Z</time>
      </trkpt>
      <trkpt lat="45.98208" lon="4.79757">
        <ele>226</ele>
        <time>2018-01-19T11:17:51Z</time>
      </trkpt>
      <trkpt lat="45.98212" lon="4.79756">
        <ele>226</ele>
        <time>2018-01-19T11:17:52Z</time>
      </trkpt>
      <trkpt lat="45.98219" lon="4.79756">
        <ele>227</ele>
        <time>2018-01-19T11:17:54Z</time>
      </trkpt>
      <trkpt lat="45.98222" lon="4.79756">
        <ele>227</ele>
        <time>2018-01-19T11:17:55Z</time>
      </trkpt>
      <trkpt lat="45.98229" lon="4.79756">
        <ele>227</ele>
        <time>2018-01-19T11:17:57Z</time>
      </trkpt>
      <trkpt lat="45.98233" lon="4.79756">
        <ele>227</ele>
        <time>2018-01-19T11:17:58Z</time>
      </trkpt>
      <trkpt lat="45.9824" lon="4.79755">
        <ele>227</ele>
        <time>2018-01-19T11:18:00Z</time>
      </trkpt>
      <trkpt lat="45.98243" lon="4.79755">
        <ele>227</ele>
        <time>2018-01-19T11:18:01Z</time>
      </trkpt>
      <trkpt lat="45.9825" lon="4.79755">
        <ele>229</ele>
        <time>2018-01-19T11:18:03Z</time>
      </trkpt>
      <trkpt lat="45.98254" lon="4.79755">
        <ele>229</ele>
        <time>2018-01-19T11:18:04Z</time>
      </trkpt>
      <trkpt lat="45.98261" lon="4.79754">
        <ele>229</ele>
        <time>2018-01-19T11:18:06Z</time>
      </trkpt>
      <trkpt lat="45.98264" lon="4.79753">
        <ele>229</ele>
        <time>2018-01-19T11:18:07Z</time>
      </trkpt>
      <trkpt lat="45.98272" lon="4.79751">
        <ele>230</ele>
        <time>2018-01-19T11:18:09Z</time>
      </trkpt>
      <trkpt lat="45.98275" lon="4.7975">
        <ele>230</ele>
        <time>2018-01-19T11:18:10Z</time>
      </trkpt>
      <trkpt lat="45.98282" lon="4.79749">
        <ele>233</ele>
        <time>2018-01-19T11:18:12Z</time>
      </trkpt>
      <trkpt lat="45.98286" lon="4.79748">
        <ele>234</ele>
        <time>2018-01-19T11:18:13Z</time>
      </trkpt>
      <trkpt lat="45.98294" lon="4.79747">
        <ele>234</ele>
        <time>2018-01-19T11:18:15Z</time>
      </trkpt>
      <trkpt lat="45.98298" lon="4.79746">
        <ele>235</ele>
        <time>2018-01-19T11:18:16Z</time>
      </trkpt>
      <trkpt lat="45.98304" lon="4.79746">
        <ele>235</ele>
        <time>2018-01-19T11:18:18Z</time>
      </trkpt>
      <trkpt lat="45.98308" lon="4.79745">
        <ele>235</ele>
        <time>2018-01-19T11:18:19Z</time>
      </trkpt>
      <trkpt lat="45.98316" lon="4.79744">
        <ele>236</ele>
        <time>2018-01-19T11:18:21Z</time>
      </trkpt>
      <trkpt lat="45.9832" lon="4.79743">
        <ele>236</ele>
        <time>2018-01-19T11:18:22Z</time>
      </trkpt>
      <trkpt lat="45.98328" lon="4.79741">
        <ele>236</ele>
        <time>2018-01-19T11:18:24Z</time>
      </trkpt>
      <trkpt lat="45.98332" lon="4.79741">
        <ele>237</ele>
        <time>2018-01-19T11:18:25Z</time>
      </trkpt>
      <trkpt lat="45.98339" lon="4.79741">
        <ele>238</ele>
        <time>2018-01-19T11:18:27Z</time>
      </trkpt>
      <trkpt lat="45.98342" lon="4.79741">
        <ele>239</ele>
        <time>2018-01-19T11:18:28Z</time>
      </trkpt>
      <trkpt lat="45.98349" lon="4.79741">
        <ele>239</ele>
        <time>2018-01-19T11:18:30Z</time>
      </trkpt>
      <trkpt lat="45.98353" lon="4.7974">
        <ele>239</ele>
        <time>2018-01-19T11:18:31Z</time>
      </trkpt>
      <trkpt lat="45.98361" lon="4.79739">
        <ele>240</ele>
        <time>2018-01-19T11:18:33Z</time>
      </trkpt>
      <trkpt lat="45.98364" lon="4.79738">
        <ele>240</ele>
        <time>2018-01-19T11:18:34Z</time>
      </trkpt>
      <trkpt lat="45.98371" lon="4.79739">
        <ele>240</ele>
        <time>2018-01-19T11:18:36Z</time>
      </trkpt>
      <trkpt lat="45.98375" lon="4.79739">
        <ele>240</ele>
        <time>2018-01-19T11:18:37Z</time>
      </trkpt>
      <trkpt lat="45.98381" lon="4.79739">
        <ele>241</ele>
        <time>2018-01-19T11:18:39Z</time>
      </trkpt>
      <trkpt lat="45.98385" lon="4.79739">
        <ele>241</ele>
        <time>2018-01-19T11:18:40Z</time>
      </trkpt>
      <trkpt lat="45.98393" lon="4.79738">
        <ele>241</ele>
        <time>2018-01-19T11:18:42Z</time>
      </trkpt>
      <trkpt lat="45.98397" lon="4.79737">
        <ele>241</ele>
        <time>2018-01-19T11:18:43Z</time>
      </trkpt>
      <trkpt lat="45.98401" lon="4.79736">
        <ele>241</ele>
        <time>2018-01-19T11:18:44Z</time>
      </trkpt>
      <trkpt lat="45.98406" lon="4.79735">
        <ele>241</ele>
        <time>2018-01-19T11:18:45Z</time>
      </trkpt>
      <trkpt lat="45.98414" lon="4.79733">
        <ele>241</ele>
        <time>2018-01-19T11:18:47Z</time>
      </trkpt>
      <trkpt lat="45.98418" lon="4.79733">
        <ele>242</ele>
        <time>2018-01-19T11:18:48Z</time>
      </trkpt>
      <trkpt lat="45.98425" lon="4.79732">
        <ele>242</ele>
        <time>2018-01-19T11:18:50Z</time>
      </trkpt>
      <trkpt lat="45.98429" lon="4.79733">
        <ele>242</ele>
        <time>2018-01-19T11:18:51Z</time>
      </trkpt>
      <trkpt lat="45.98436" lon="4.79733">
        <ele>242</ele>
        <time>2018-01-19T11:18:53Z</time>
      </trkpt>
      <trkpt lat="45.9844" lon="4.79733">
        <ele>242</ele>
        <time>2018-01-19T11:18:54Z</time>
      </trkpt>
      <trkpt lat="45.98448" lon="4.79733">
        <ele>242</ele>
        <time>2018-01-19T11:18:56Z</time>
      </trkpt>
      <trkpt lat="45.98451" lon="4.79733">
        <ele>242</ele>
        <time>2018-01-19T11:18:57Z</time>
      </trkpt>
      <trkpt lat="45.9846" lon="4.79732">
        <ele>243</ele>
        <time>2018-01-19T11:18:59Z</time>
      </trkpt>
      <trkpt lat="45.98463" lon="4.79731">
        <ele>243</ele>
        <time>2018-01-19T11:19:00Z</time>
      </trkpt>
      <trkpt lat="45.98471" lon="4.79731">
        <ele>243</ele>
        <time>2018-01-19T11:19:02Z</time>
      </trkpt>
      <trkpt lat="45.98475" lon="4.79731">
        <ele>243</ele>
        <time>2018-01-19T11:19:03Z</time>
      </trkpt>
      <trkpt lat="45.98483" lon="4.79731">
        <ele>243</ele>
        <time>2018-01-19T11:19:05Z</time>
      </trkpt>
      <trkpt lat="45.98486" lon="4.79731">
        <ele>243</ele>
        <time>2018-01-19T11:19:06Z</time>
      </trkpt>
      <trkpt lat="45.98494" lon="4.7973">
        <ele>243</ele>
        <time>2018-01-19T11:19:08Z</time>
      </trkpt>
      <trkpt lat="45.98498" lon="4.7973">
        <ele>243</ele>
        <time>2018-01-19T11:19:09Z</time>
      </trkpt>
      <trkpt lat="45.98505" lon="4.7973">
        <ele>244</ele>
        <time>2018-01-19T11:19:11Z</time>
      </trkpt>
      <trkpt lat="45.98509" lon="4.7973">
        <ele>244</ele>
        <time>2018-01-19T11:19:12Z</time>
      </trkpt>
      <trkpt lat="45.98517" lon="4.79731">
        <ele>244</ele>
        <time>2018-01-19T11:19:15Z</time>
      </trkpt>
      <trkpt lat="45.9852" lon="4.7973">
        <ele>244</ele>
        <time>2018-01-19T11:19:16Z</time>
      </trkpt>
      <trkpt lat="45.98528" lon="4.79728">
        <ele>244</ele>
        <time>2018-01-19T11:19:18Z</time>
      </trkpt>
      <trkpt lat="45.98531" lon="4.79727">
        <ele>244</ele>
        <time>2018-01-19T11:19:19Z</time>
      </trkpt>
      <trkpt lat="45.98538" lon="4.79723">
        <ele>244</ele>
        <time>2018-01-19T11:19:21Z</time>
      </trkpt>
      <trkpt lat="45.98542" lon="4.7972">
        <ele>244</ele>
        <time>2018-01-19T11:19:22Z</time>
      </trkpt>
      <trkpt lat="45.98549" lon="4.79714">
        <ele>244</ele>
        <time>2018-01-19T11:19:24Z</time>
      </trkpt>
      <trkpt lat="45.98552" lon="4.79711">
        <ele>244</ele>
        <time>2018-01-19T11:19:25Z</time>
      </trkpt>
      <trkpt lat="45.98559" lon="4.79704">
        <ele>244</ele>
        <time>2018-01-19T11:19:27Z</time>
      </trkpt>
      <trkpt lat="45.98562" lon="4.79701">
        <ele>244</ele>
        <time>2018-01-19T11:19:28Z</time>
      </trkpt>
      <trkpt lat="45.98567" lon="4.79693">
        <ele>244</ele>
        <time>2018-01-19T11:19:30Z</time>
      </trkpt>
      <trkpt lat="45.9857" lon="4.79689">
        <ele>244</ele>
        <time>2018-01-19T11:19:31Z</time>
      </trkpt>
      <trkpt lat="45.98574" lon="4.79682">
        <ele>244</ele>
        <time>2018-01-19T11:19:33Z</time>
      </trkpt>
      <trkpt lat="45.98576" lon="4.79678">
        <ele>245</ele>
        <time>2018-01-19T11:19:34Z</time>
      </trkpt>
      <trkpt lat="45.9858" lon="4.7967">
        <ele>245</ele>
        <time>2018-01-19T11:19:36Z</time>
      </trkpt>
      <trkpt lat="45.98582" lon="4.79666">
        <ele>245</ele>
        <time>2018-01-19T11:19:37Z</time>
      </trkpt>
      <trkpt lat="45.98586" lon="4.79658">
        <ele>245</ele>
        <time>2018-01-19T11:19:39Z</time>
      </trkpt>
      <trkpt lat="45.98589" lon="4.79654">
        <ele>245</ele>
        <time>2018-01-19T11:19:40Z</time>
      </trkpt>
      <trkpt lat="45.98594" lon="4.79648">
        <ele>245</ele>
        <time>2018-01-19T11:19:42Z</time>
      </trkpt>
      <trkpt lat="45.98597" lon="4.79645">
        <ele>245</ele>
        <time>2018-01-19T11:19:43Z</time>
      </trkpt>
      <trkpt lat="45.98604" lon="4.79641">
        <ele>245</ele>
        <time>2018-01-19T11:19:45Z</time>
      </trkpt>
      <trkpt lat="45.98608" lon="4.7964">
        <ele>245</ele>
        <time>2018-01-19T11:19:46Z</time>
      </trkpt>
      <trkpt lat="45.98615" lon="4.79638">
        <ele>245</ele>
        <time>2018-01-19T11:19:48Z</time>
      </trkpt>
      <trkpt lat="45.98619" lon="4.79635">
        <ele>245</ele>
        <time>2018-01-19T11:19:49Z</time>
      </trkpt>
      <trkpt lat="45.98623" lon="4.79629">
        <ele>245</ele>
        <time>2018-01-19T11:19:50Z</time>
      </trkpt>
      <trkpt lat="45.98625" lon="4.79624">
        <ele>245</ele>
        <time>2018-01-19T11:19:51Z</time>
      </trkpt>
      <trkpt lat="45.98628" lon="4.79616">
        <ele>245</ele>
        <time>2018-01-19T11:19:52Z</time>
      </trkpt>
      <trkpt lat="45.98628" lon="4.79608">
        <ele>245</ele>
        <time>2018-01-19T11:19:53Z</time>
      </trkpt>
      <trkpt lat="45.98627" lon="4.796">
        <ele>245</ele>
        <time>2018-01-19T11:19:54Z</time>
      </trkpt>
      <trkpt lat="45.98625" lon="4.79594">
        <ele>245</ele>
        <time>2018-01-19T11:19:55Z</time>
      </trkpt>
      <trkpt lat="45.98622" lon="4.79588">
        <ele>245</ele>
        <time>2018-01-19T11:19:56Z</time>
      </trkpt>
      <trkpt lat="45.98618" lon="4.79584">
        <ele>245</ele>
        <time>2018-01-19T11:19:57Z</time>
      </trkpt>
      <trkpt lat="45.98613" lon="4.79582">
        <ele>245</ele>
        <time>2018-01-19T11:19:58Z</time>
      </trkpt>
      <trkpt lat="45.98608" lon="4.79581">
        <ele>245</ele>
        <time>2018-01-19T11:19:59Z</time>
      </trkpt>
      <trkpt lat="45.98604" lon="4.79582">
        <ele>245</ele>
        <time>2018-01-19T11:20:00Z</time>
      </trkpt>
      <trkpt lat="45.98599" lon="4.79583">
        <ele>245</ele>
        <time>2018-01-19T11:20:01Z</time>
      </trkpt>
      <trkpt lat="45.98594" lon="4.79586">
        <ele>245</ele>
        <time>2018-01-19T11:20:02Z</time>
      </trkpt>
      <trkpt lat="45.9859" lon="4.79588">
        <ele>245</ele>
        <time>2018-01-19T11:20:03Z</time>
      </trkpt>
      <trkpt lat="45.98585" lon="4.79585">
        <ele>245</ele>
        <time>2018-01-19T11:20:04Z</time>
      </trkpt>
      <trkpt lat="45.98579" lon="4.79583">
        <ele>245</ele>
        <time>2018-01-19T11:20:05Z</time>
      </trkpt>
      <trkpt lat="45.98575" lon="4.79581">
        <ele>245</ele>
        <time>2018-01-19T11:20:06Z</time>
      </trkpt>
      <trkpt lat="45.9857" lon="4.79578">
        <ele>245</ele>
        <time>2018-01-19T11:20:07Z</time>
      </trkpt>
      <trkpt lat="45.98566" lon="4.79575">
        <ele>244</ele>
        <time>2018-01-19T11:20:08Z</time>
      </trkpt>
      <trkpt lat="45.98562" lon="4.79571">
        <ele>244</ele>
        <time>2018-01-19T11:20:09Z</time>
      </trkpt>
      <trkpt lat="45.98555" lon="4.79563">
        <ele>244</ele>
        <time>2018-01-19T11:20:11Z</time>
      </trkpt>
      <trkpt lat="45.98552" lon="4.79557">
        <ele>244</ele>
        <time>2018-01-19T11:20:12Z</time>
      </trkpt>
      <trkpt lat="45.98546" lon="4.79548">
        <ele>244</ele>
        <time>2018-01-19T11:20:14Z</time>
      </trkpt>
      <trkpt lat="45.98544" lon="4.79543">
        <ele>244</ele>
        <time>2018-01-19T11:20:15Z</time>
      </trkpt>
      <trkpt lat="45.98541" lon="4.79536">
        <ele>244</ele>
        <time>2018-01-19T11:20:16Z</time>
      </trkpt>
      <trkpt lat="45.98539" lon="4.7953">
        <ele>244</ele>
        <time>2018-01-19T11:20:17Z</time>
      </trkpt>
      <trkpt lat="45.98536" lon="4.79524">
        <ele>244</ele>
        <time>2018-01-19T11:20:18Z</time>
      </trkpt>
      <trkpt lat="45.98533" lon="4.79518">
        <ele>244</ele>
        <time>2018-01-19T11:20:19Z</time>
      </trkpt>
      <trkpt lat="45.98531" lon="4.79512">
        <ele>244</ele>
        <time>2018-01-19T11:20:20Z</time>
      </trkpt>
      <trkpt lat="45.9853" lon="4.79505">
        <ele>244</ele>
        <time>2018-01-19T11:20:21Z</time>
      </trkpt>
      <trkpt lat="45.98529" lon="4.79498">
        <ele>244</ele>
        <time>2018-01-19T11:20:22Z</time>
      </trkpt>
      <trkpt lat="45.98528" lon="4.79492">
        <ele>244</ele>
        <time>2018-01-19T11:20:23Z</time>
      </trkpt>
      <trkpt lat="45.98528" lon="4.79484">
        <ele>244</ele>
        <time>2018-01-19T11:20:24Z</time>
      </trkpt>
      <trkpt lat="45.98526" lon="4.79478">
        <ele>244</ele>
        <time>2018-01-19T11:20:25Z</time>
      </trkpt>
      <trkpt lat="45.98526" lon="4.79471">
        <ele>244</ele>
        <time>2018-01-19T11:20:26Z</time>
      </trkpt>
      <trkpt lat="45.98525" lon="4.79464">
        <ele>244</ele>
        <time>2018-01-19T11:20:27Z</time>
      </trkpt>
      <trkpt lat="45.98525" lon="4.79457">
        <ele>244</ele>
        <time>2018-01-19T11:20:28Z</time>
      </trkpt>
      <trkpt lat="45.98525" lon="4.7945">
        <ele>244</ele>
        <time>2018-01-19T11:20:29Z</time>
      </trkpt>
      <trkpt lat="45.98525" lon="4.79437">
        <ele>244</ele>
        <time>2018-01-19T11:20:31Z</time>
      </trkpt>
      <trkpt lat="45.98525" lon="4.7943">
        <ele>244</ele>
        <time>2018-01-19T11:20:32Z</time>
      </trkpt>
      <trkpt lat="45.98524" lon="4.79423">
        <ele>244</ele>
        <time>2018-01-19T11:20:33Z</time>
      </trkpt>
      <trkpt lat="45.98523" lon="4.79416">
        <ele>244</ele>
        <time>2018-01-19T11:20:34Z</time>
      </trkpt>
      <trkpt lat="45.98523" lon="4.79408">
        <ele>244</ele>
        <time>2018-01-19T11:20:35Z</time>
      </trkpt>
      <trkpt lat="45.98522" lon="4.79401">
        <ele>244</ele>
        <time>2018-01-19T11:20:36Z</time>
      </trkpt>
      <trkpt lat="45.9852" lon="4.79394">
        <ele>244</ele>
        <time>2018-01-19T11:20:37Z</time>
      </trkpt>
      <trkpt lat="45.98519" lon="4.79387">
        <ele>244</ele>
        <time>2018-01-19T11:20:38Z</time>
      </trkpt>
      <trkpt lat="45.98519" lon="4.79381">
        <ele>244</ele>
        <time>2018-01-19T11:20:39Z</time>
      </trkpt>
      <trkpt lat="45.98518" lon="4.79374">
        <ele>243</ele>
        <time>2018-01-19T11:20:40Z</time>
      </trkpt>
      <trkpt lat="45.98516" lon="4.79368">
        <ele>243</ele>
        <time>2018-01-19T11:20:41Z</time>
      </trkpt>
      <trkpt lat="45.98515" lon="4.79361">
        <ele>243</ele>
        <time>2018-01-19T11:20:42Z</time>
      </trkpt>
      <trkpt lat="45.98513" lon="4.79355">
        <ele>243</ele>
        <time>2018-01-19T11:20:43Z</time>
      </trkpt>
      <trkpt lat="45.98512" lon="4.79348">
        <ele>243</ele>
        <time>2018-01-19T11:20:44Z</time>
      </trkpt>
      <trkpt lat="45.9851" lon="4.79341">
        <ele>243</ele>
        <time>2018-01-19T11:20:45Z</time>
      </trkpt>
      <trkpt lat="45.98507" lon="4.79334">
        <ele>243</ele>
        <time>2018-01-19T11:20:46Z</time>
      </trkpt>
      <trkpt lat="45.98505" lon="4.79326">
        <ele>243</ele>
        <time>2018-01-19T11:20:47Z</time>
      </trkpt>
      <trkpt lat="45.98503" lon="4.7932">
        <ele>243</ele>
        <time>2018-01-19T11:20:48Z</time>
      </trkpt>
      <trkpt lat="45.98501" lon="4.79314">
        <ele>243</ele>
        <time>2018-01-19T11:20:49Z</time>
      </trkpt>
      <trkpt lat="45.98498" lon="4.79307">
        <ele>243</ele>
        <time>2018-01-19T11:20:50Z</time>
      </trkpt>
      <trkpt lat="45.98496" lon="4.793">
        <ele>243</ele>
        <time>2018-01-19T11:20:51Z</time>
      </trkpt>
      <trkpt lat="45.98494" lon="4.79293">
        <ele>243</ele>
        <time>2018-01-19T11:20:52Z</time>
      </trkpt>
      <trkpt lat="45.98491" lon="4.79287">
        <ele>243</ele>
        <time>2018-01-19T11:20:53Z</time>
      </trkpt>
      <trkpt lat="45.98487" lon="4.79281">
        <ele>243</ele>
        <time>2018-01-19T11:20:54Z</time>
      </trkpt>
      <trkpt lat="45.98484" lon="4.79276">
        <ele>243</ele>
        <time>2018-01-19T11:20:55Z</time>
      </trkpt>
      <trkpt lat="45.98481" lon="4.7927">
        <ele>243</ele>
        <time>2018-01-19T11:20:56Z</time>
      </trkpt>
      <trkpt lat="45.98479" lon="4.79265">
        <ele>243</ele>
        <time>2018-01-19T11:20:57Z</time>
      </trkpt>
      <trkpt lat="45.98477" lon="4.79259">
        <ele>243</ele>
        <time>2018-01-19T11:20:58Z</time>
      </trkpt>
      <trkpt lat="45.98475" lon="4.79253">
        <ele>243</ele>
        <time>2018-01-19T11:20:59Z</time>
      </trkpt>
      <trkpt lat="45.98471" lon="4.79248">
        <ele>243</ele>
        <time>2018-01-19T11:21:00Z</time>
      </trkpt>
      <trkpt lat="45.98468" lon="4.79242">
        <ele>243</ele>
        <time>2018-01-19T11:21:01Z</time>
      </trkpt>
      <trkpt lat="45.98465" lon="4.79236">
        <ele>243</ele>
        <time>2018-01-19T11:21:02Z</time>
      </trkpt>
      <trkpt lat="45.98461" lon="4.7923">
        <ele>243</ele>
        <time>2018-01-19T11:21:03Z</time>
      </trkpt>
      <trkpt lat="45.98458" lon="4.79224">
        <ele>243</ele>
        <time>2018-01-19T11:21:04Z</time>
      </trkpt>
      <trkpt lat="45.98453" lon="4.79215">
        <ele>242</ele>
        <time>2018-01-19T11:21:06Z</time>
      </trkpt>
      <trkpt lat="45.9845" lon="4.7921">
        <ele>242</ele>
        <time>2018-01-19T11:21:07Z</time>
      </trkpt>
      <trkpt lat="45.98447" lon="4.79204">
        <ele>242</ele>
        <time>2018-01-19T11:21:08Z</time>
      </trkpt>
      <trkpt lat="45.98444" lon="4.79197">
        <ele>242</ele>
        <time>2018-01-19T11:21:09Z</time>
      </trkpt>
      <trkpt lat="45.98441" lon="4.79191">
        <ele>242</ele>
        <time>2018-01-19T11:21:10Z</time>
      </trkpt>
      <trkpt lat="45.98438" lon="4.79186">
        <ele>242</ele>
        <time>2018-01-19T11:21:11Z</time>
      </trkpt>
      <trkpt lat="45.98435" lon="4.7918">
        <ele>242</ele>
        <time>2018-01-19T11:21:12Z</time>
      </trkpt>
      <trkpt lat="45.98432" lon="4.79175">
        <ele>242</ele>
        <time>2018-01-19T11:21:13Z</time>
      </trkpt>
      <trkpt lat="45.98429" lon="4.79171">
        <ele>242</ele>
        <time>2018-01-19T11:21:14Z</time>
      </trkpt>
      <trkpt lat="45.98427" lon="4.79165">
        <ele>242</ele>
        <time>2018-01-19T11:21:15Z</time>
      </trkpt>
      <trkpt lat="45.98422" lon="4.79155">
        <ele>242</ele>
        <time>2018-01-19T11:21:17Z</time>
      </trkpt>
      <trkpt lat="45.98419" lon="4.7915">
        <ele>242</ele>
        <time>2018-01-19T11:21:18Z</time>
      </trkpt>
      <trkpt lat="45.98414" lon="4.7914">
        <ele>242</ele>
        <time>2018-01-19T11:21:20Z</time>
      </trkpt>
      <trkpt lat="45.98412" lon="4.79133">
        <ele>242</ele>
        <time>2018-01-19T11:21:21Z</time>
      </trkpt>
      <trkpt lat="45.98409" lon="4.79128">
        <ele>242</ele>
        <time>2018-01-19T11:21:22Z</time>
      </trkpt>
      <trkpt lat="45.98405" lon="4.79123">
        <ele>242</ele>
        <time>2018-01-19T11:21:23Z</time>
      </trkpt>
      <trkpt lat="45.98402" lon="4.79116">
        <ele>242</ele>
        <time>2018-01-19T11:21:24Z</time>
      </trkpt>
      <trkpt lat="45.98399" lon="4.79111">
        <ele>242</ele>
        <time>2018-01-19T11:21:25Z</time>
      </trkpt>
      <trkpt lat="45.98395" lon="4.79101">
        <ele>242</ele>
        <time>2018-01-19T11:21:27Z</time>
      </trkpt>
      <trkpt lat="45.98391" lon="4.79096">
        <ele>242</ele>
        <time>2018-01-19T11:21:28Z</time>
      </trkpt>
      <trkpt lat="45.98388" lon="4.79091">
        <ele>242</ele>
        <time>2018-01-19T11:21:29Z</time>
      </trkpt>
      <trkpt lat="45.98385" lon="4.79086">
        <ele>242</ele>
        <time>2018-01-19T11:21:30Z</time>
      </trkpt>
      <trkpt lat="45.9838" lon="4.79076">
        <ele>242</ele>
        <time>2018-01-19T11:21:32Z</time>
      </trkpt>
      <trkpt lat="45.98377" lon="4.7907">
        <ele>242</ele>
        <time>2018-01-19T11:21:33Z</time>
      </trkpt>
      <trkpt lat="45.98373" lon="4.79065">
        <ele>242</ele>
        <time>2018-01-19T11:21:34Z</time>
      </trkpt>
      <trkpt lat="45.9837" lon="4.7906">
        <ele>242</ele>
        <time>2018-01-19T11:21:35Z</time>
      </trkpt>
      <trkpt lat="45.98365" lon="4.79051">
        <ele>242</ele>
        <time>2018-01-19T11:21:37Z</time>
      </trkpt>
      <trkpt lat="45.98362" lon="4.79045">
        <ele>242</ele>
        <time>2018-01-19T11:21:38Z</time>
      </trkpt>
      <trkpt lat="45.98356" lon="4.79037">
        <ele>242</ele>
        <time>2018-01-19T11:21:40Z</time>
      </trkpt>
      <trkpt lat="45.98353" lon="4.79033">
        <ele>242</ele>
        <time>2018-01-19T11:21:41Z</time>
      </trkpt>
      <trkpt lat="45.98348" lon="4.79024">
        <ele>242</ele>
        <time>2018-01-19T11:21:43Z</time>
      </trkpt>
      <trkpt lat="45.98346" lon="4.7902">
        <ele>242</ele>
        <time>2018-01-19T11:21:44Z</time>
      </trkpt>
      <trkpt lat="45.98338" lon="4.79014">
        <ele>242</ele>
        <time>2018-01-19T11:21:46Z</time>
      </trkpt>
      <trkpt lat="45.98333" lon="4.79009">
        <ele>242</ele>
        <time>2018-01-19T11:21:47Z</time>
      </trkpt>
      <trkpt lat="45.98327" lon="4.79004">
        <ele>242</ele>
        <time>2018-01-19T11:21:48Z</time>
      </trkpt>
      <trkpt lat="45.98322" lon="4.79002">
        <ele>242</ele>
        <time>2018-01-19T11:21:49Z</time>
      </trkpt>
      <trkpt lat="45.98317" lon="4.78999">
        <ele>242</ele>
        <time>2018-01-19T11:21:50Z</time>
      </trkpt>
      <trkpt lat="45.98312" lon="4.78996">
        <ele>241</ele>
        <time>2018-01-19T11:21:51Z</time>
      </trkpt>
      <trkpt lat="45.98308" lon="4.78993">
        <ele>241</ele>
        <time>2018-01-19T11:21:52Z</time>
      </trkpt>
      <trkpt lat="45.98303" lon="4.78988">
        <ele>241</ele>
        <time>2018-01-19T11:21:53Z</time>
      </trkpt>
      <trkpt lat="45.98298" lon="4.78985">
        <ele>241</ele>
        <time>2018-01-19T11:21:54Z</time>
      </trkpt>
      <trkpt lat="45.98292" lon="4.78983">
        <ele>241</ele>
        <time>2018-01-19T11:21:55Z</time>
      </trkpt>
      <trkpt lat="45.98287" lon="4.78981">
        <ele>241</ele>
        <time>2018-01-19T11:21:56Z</time>
      </trkpt>
      <trkpt lat="45.98282" lon="4.78977">
        <ele>241</ele>
        <time>2018-01-19T11:21:57Z</time>
      </trkpt>
      <trkpt lat="45.98277" lon="4.78975">
        <ele>241</ele>
        <time>2018-01-19T11:21:58Z</time>
      </trkpt>
      <trkpt lat="45.98272" lon="4.78972">
        <ele>241</ele>
        <time>2018-01-19T11:21:59Z</time>
      </trkpt>
      <trkpt lat="45.98267" lon="4.78969">
        <ele>241</ele>
        <time>2018-01-19T11:22:00Z</time>
      </trkpt>
      <trkpt lat="45.98262" lon="4.78966">
        <ele>241</ele>
        <time>2018-01-19T11:22:01Z</time>
      </trkpt>
      <trkpt lat="45.98257" lon="4.78962">
        <ele>241</ele>
        <time>2018-01-19T11:22:02Z</time>
      </trkpt>
      <trkpt lat="45.98251" lon="4.78958">
        <ele>241</ele>
        <time>2018-01-19T11:22:03Z</time>
      </trkpt>
      <trkpt lat="45.98246" lon="4.78957">
        <ele>241</ele>
        <time>2018-01-19T11:22:04Z</time>
      </trkpt>
      <trkpt lat="45.98242" lon="4.78953">
        <ele>241</ele>
        <time>2018-01-19T11:22:05Z</time>
      </trkpt>
      <trkpt lat="45.98238" lon="4.7895">
        <ele>241</ele>
        <time>2018-01-19T11:22:06Z</time>
      </trkpt>
      <trkpt lat="45.98233" lon="4.78948">
        <ele>241</ele>
        <time>2018-01-19T11:22:07Z</time>
      </trkpt>
      <trkpt lat="45.98228" lon="4.78944">
        <ele>241</ele>
        <time>2018-01-19T11:22:08Z</time>
      </trkpt>
      <trkpt lat="45.98222" lon="4.78941">
        <ele>241</ele>
        <time>2018-01-19T11:22:09Z</time>
      </trkpt>
      <trkpt lat="45.98217" lon="4.78938">
        <ele>241</ele>
        <time>2018-01-19T11:22:10Z</time>
      </trkpt>
      <trkpt lat="45.98211" lon="4.78934">
        <ele>241</ele>
        <time>2018-01-19T11:22:11Z</time>
      </trkpt>
      <trkpt lat="45.98205" lon="4.78931">
        <ele>241</ele>
        <time>2018-01-19T11:22:12Z</time>
      </trkpt>
      <trkpt lat="45.98199" lon="4.78928">
        <ele>241</ele>
        <time>2018-01-19T11:22:13Z</time>
      </trkpt>
      <trkpt lat="45.98193" lon="4.78926">
        <ele>241</ele>
        <time>2018-01-19T11:22:14Z</time>
      </trkpt>
      <trkpt lat="45.98189" lon="4.78922">
        <ele>241</ele>
        <time>2018-01-19T11:22:15Z</time>
      </trkpt>
      <trkpt lat="45.98183" lon="4.78918">
        <ele>240</ele>
        <time>2018-01-19T11:22:16Z</time>
      </trkpt>
      <trkpt lat="45.98179" lon="4.78916">
        <ele>240</ele>
        <time>2018-01-19T11:22:17Z</time>
      </trkpt>
      <trkpt lat="45.98173" lon="4.78913">
        <ele>240</ele>
        <time>2018-01-19T11:22:18Z</time>
      </trkpt>
      <trkpt lat="45.98168" lon="4.78909">
        <ele>240</ele>
        <time>2018-01-19T11:22:19Z</time>
      </trkpt>
      <trkpt lat="45.98164" lon="4.78906">
        <ele>240</ele>
        <time>2018-01-19T11:22:20Z</time>
      </trkpt>
      <trkpt lat="45.98159" lon="4.78903">
        <ele>240</ele>
        <time>2018-01-19T11:22:21Z</time>
      </trkpt>
      <trkpt lat="45.98154" lon="4.789">
        <ele>240</ele>
        <time>2018-01-19T11:22:22Z</time>
      </trkpt>
      <trkpt lat="45.98149" lon="4.78898">
        <ele>240</ele>
        <time>2018-01-19T11:22:23Z</time>
      </trkpt>
      <trkpt lat="45.98145" lon="4.78896">
        <ele>240</ele>
        <time>2018-01-19T11:22:24Z</time>
      </trkpt>
      <trkpt lat="45.9814" lon="4.78894">
        <ele>240</ele>
        <time>2018-01-19T11:22:25Z</time>
      </trkpt>
      <trkpt lat="45.98136" lon="4.78891">
        <ele>240</ele>
        <time>2018-01-19T11:22:26Z</time>
      </trkpt>
      <trkpt lat="45.98131" lon="4.78888">
        <ele>240</ele>
        <time>2018-01-19T11:22:27Z</time>
      </trkpt>
      <trkpt lat="45.98127" lon="4.78885">
        <ele>240</ele>
        <time>2018-01-19T11:22:28Z</time>
      </trkpt>
      <trkpt lat="45.98122" lon="4.78883">
        <ele>240</ele>
        <time>2018-01-19T11:22:29Z</time>
      </trkpt>
      <trkpt lat="45.98117" lon="4.78881">
        <ele>240</ele>
        <time>2018-01-19T11:22:30Z</time>
      </trkpt>
      <trkpt lat="45.9811" lon="4.78879">
        <ele>240</ele>
        <time>2018-01-19T11:22:31Z</time>
      </trkpt>
      <trkpt lat="45.98103" lon="4.78874">
        <ele>239</ele>
        <time>2018-01-19T11:22:33Z</time>
      </trkpt>
      <trkpt lat="45.98098" lon="4.78871">
        <ele>239</ele>
        <time>2018-01-19T11:22:34Z</time>
      </trkpt>
      <trkpt lat="45.98094" lon="4.78868">
        <ele>239</ele>
        <time>2018-01-19T11:22:35Z</time>
      </trkpt>
      <trkpt lat="45.98089" lon="4.78866">
        <ele>239</ele>
        <time>2018-01-19T11:22:36Z</time>
      </trkpt>
      <trkpt lat="45.98085" lon="4.78863">
        <ele>239</ele>
        <time>2018-01-19T11:22:37Z</time>
      </trkpt>
      <trkpt lat="45.9808" lon="4.7886">
        <ele>239</ele>
        <time>2018-01-19T11:22:38Z</time>
      </trkpt>
      <trkpt lat="45.98075" lon="4.78857">
        <ele>239</ele>
        <time>2018-01-19T11:22:39Z</time>
      </trkpt>
      <trkpt lat="45.9807" lon="4.78854">
        <ele>239</ele>
        <time>2018-01-19T11:22:40Z</time>
      </trkpt>
      <trkpt lat="45.98066" lon="4.78851">
        <ele>239</ele>
        <time>2018-01-19T11:22:41Z</time>
      </trkpt>
      <trkpt lat="45.98061" lon="4.78848">
        <ele>239</ele>
        <time>2018-01-19T11:22:42Z</time>
      </trkpt>
      <trkpt lat="45.98056" lon="4.78844">
        <ele>239</ele>
        <time>2018-01-19T11:22:43Z</time>
      </trkpt>
      <trkpt lat="45.98051" lon="4.78841">
        <ele>239</ele>
        <time>2018-01-19T11:22:44Z</time>
      </trkpt>
      <trkpt lat="45.98046" lon="4.78837">
        <ele>238</ele>
        <time>2018-01-19T11:22:45Z</time>
      </trkpt>
      <trkpt lat="45.9804" lon="4.78834">
        <ele>238</ele>
        <time>2018-01-19T11:22:46Z</time>
      </trkpt>
      <trkpt lat="45.98035" lon="4.7883">
        <ele>238</ele>
        <time>2018-01-19T11:22:47Z</time>
      </trkpt>
      <trkpt lat="45.9803" lon="4.78826">
        <ele>238</ele>
        <time>2018-01-19T11:22:48Z</time>
      </trkpt>
      <trkpt lat="45.98024" lon="4.78821">
        <ele>238</ele>
        <time>2018-01-19T11:22:49Z</time>
      </trkpt>
      <trkpt lat="45.98019" lon="4.78817">
        <ele>238</ele>
        <time>2018-01-19T11:22:50Z</time>
      </trkpt>
      <trkpt lat="45.98013" lon="4.78814">
        <ele>238</ele>
        <time>2018-01-19T11:22:51Z</time>
      </trkpt>
      <trkpt lat="45.98008" lon="4.78809">
        <ele>238</ele>
        <time>2018-01-19T11:22:52Z</time>
      </trkpt>
      <trkpt lat="45.98004" lon="4.78806">
        <ele>238</ele>
        <time>2018-01-19T11:22:53Z</time>
      </trkpt>
      <trkpt lat="45.97999" lon="4.78802">
        <ele>238</ele>
        <time>2018-01-19T11:22:54Z</time>
      </trkpt>
      <trkpt lat="45.97995" lon="4.78798">
        <ele>238</ele>
        <time>2018-01-19T11:22:55Z</time>
      </trkpt>
      <trkpt lat="45.9799" lon="4.78795">
        <ele>238</ele>
        <time>2018-01-19T11:22:56Z</time>
      </trkpt>
      <trkpt lat="45.97985" lon="4.78792">
        <ele>238</ele>
        <time>2018-01-19T11:22:57Z</time>
      </trkpt>
      <trkpt lat="45.97981" lon="4.78789">
        <ele>238</ele>
        <time>2018-01-19T11:22:58Z</time>
      </trkpt>
      <trkpt lat="45.97976" lon="4.78787">
        <ele>238</ele>
        <time>2018-01-19T11:22:59Z</time>
      </trkpt>
      <trkpt lat="45.97972" lon="4.78784">
        <ele>238</ele>
        <time>2018-01-19T11:23:00Z</time>
      </trkpt>
      <trkpt lat="45.97967" lon="4.7878">
        <ele>238</ele>
        <time>2018-01-19T11:23:01Z</time>
      </trkpt>
      <trkpt lat="45.97962" lon="4.78777">
        <ele>238</ele>
        <time>2018-01-19T11:23:02Z</time>
      </trkpt>
      <trkpt lat="45.97957" lon="4.78773">
        <ele>238</ele>
        <time>2018-01-19T11:23:03Z</time>
      </trkpt>
      <trkpt lat="45.97951" lon="4.78769">
        <ele>238</ele>
        <time>2018-01-19T11:23:04Z</time>
      </trkpt>
      <trkpt lat="45.97945" lon="4.78764">
        <ele>238</ele>
        <time>2018-01-19T11:23:05Z</time>
      </trkpt>
      <trkpt lat="45.9794" lon="4.7876">
        <ele>238</ele>
        <time>2018-01-19T11:23:06Z</time>
      </trkpt>
      <trkpt lat="45.97935" lon="4.78757">
        <ele>238</ele>
        <time>2018-01-19T11:23:07Z</time>
      </trkpt>
      <trkpt lat="45.97929" lon="4.78754">
        <ele>237</ele>
        <time>2018-01-19T11:23:08Z</time>
      </trkpt>
      <trkpt lat="45.97924" lon="4.78749">
        <ele>237</ele>
        <time>2018-01-19T11:23:09Z</time>
      </trkpt>
      <trkpt lat="45.9792" lon="4.78745">
        <ele>237</ele>
        <time>2018-01-19T11:23:10Z</time>
      </trkpt>
      <trkpt lat="45.97915" lon="4.78741">
        <ele>237</ele>
        <time>2018-01-19T11:23:11Z</time>
      </trkpt>
      <trkpt lat="45.97911" lon="4.78739">
        <ele>237</ele>
        <time>2018-01-19T11:23:12Z</time>
      </trkpt>
      <trkpt lat="45.97907" lon="4.78735">
        <ele>237</ele>
        <time>2018-01-19T11:23:13Z</time>
      </trkpt>
      <trkpt lat="45.97902" lon="4.78732">
        <ele>237</ele>
        <time>2018-01-19T11:23:14Z</time>
      </trkpt>
      <trkpt lat="45.97897" lon="4.78729">
        <ele>237</ele>
        <time>2018-01-19T11:23:15Z</time>
      </trkpt>
      <trkpt lat="45.97892" lon="4.78726">
        <ele>236</ele>
        <time>2018-01-19T11:23:16Z</time>
      </trkpt>
      <trkpt lat="45.97887" lon="4.78723">
        <ele>236</ele>
        <time>2018-01-19T11:23:17Z</time>
      </trkpt>
      <trkpt lat="45.97882" lon="4.78719">
        <ele>236</ele>
        <time>2018-01-19T11:23:18Z</time>
      </trkpt>
      <trkpt lat="45.97877" lon="4.78716">
        <ele>236</ele>
        <time>2018-01-19T11:23:19Z</time>
      </trkpt>
      <trkpt lat="45.97871" lon="4.78712">
        <ele>236</ele>
        <time>2018-01-19T11:23:20Z</time>
      </trkpt>
      <trkpt lat="45.97867" lon="4.78708">
        <ele>236</ele>
        <time>2018-01-19T11:23:21Z</time>
      </trkpt>
      <trkpt lat="45.97862" lon="4.78705">
        <ele>236</ele>
        <time>2018-01-19T11:23:22Z</time>
      </trkpt>
      <trkpt lat="45.97857" lon="4.78701">
        <ele>236</ele>
        <time>2018-01-19T11:23:23Z</time>
      </trkpt>
      <trkpt lat="45.97852" lon="4.78698">
        <ele>236</ele>
        <time>2018-01-19T11:23:24Z</time>
      </trkpt>
      <trkpt lat="45.97847" lon="4.78695">
        <ele>236</ele>
        <time>2018-01-19T11:23:25Z</time>
      </trkpt>
      <trkpt lat="45.97843" lon="4.78692">
        <ele>236</ele>
        <time>2018-01-19T11:23:26Z</time>
      </trkpt>
      <trkpt lat="45.97838" lon="4.7869">
        <ele>236</ele>
        <time>2018-01-19T11:23:27Z</time>
      </trkpt>
      <trkpt lat="45.97834" lon="4.78687">
        <ele>236</ele>
        <time>2018-01-19T11:23:28Z</time>
      </trkpt>
      <trkpt lat="45.97829" lon="4.78685">
        <ele>235</ele>
        <time>2018-01-19T11:23:29Z</time>
      </trkpt>
      <trkpt lat="45.97824" lon="4.78682">
        <ele>235</ele>
        <time>2018-01-19T11:23:30Z</time>
      </trkpt>
      <trkpt lat="45.97819" lon="4.7868">
        <ele>235</ele>
        <time>2018-01-19T11:23:31Z</time>
      </trkpt>
      <trkpt lat="45.97814" lon="4.78678">
        <ele>235</ele>
        <time>2018-01-19T11:23:32Z</time>
      </trkpt>
      <trkpt lat="45.97809" lon="4.78676">
        <ele>235</ele>
        <time>2018-01-19T11:23:33Z</time>
      </trkpt>
      <trkpt lat="45.97804" lon="4.78673">
        <ele>235</ele>
        <time>2018-01-19T11:23:34Z</time>
      </trkpt>
      <trkpt lat="45.97796" lon="4.7867">
        <ele>235</ele>
        <time>2018-01-19T11:23:36Z</time>
      </trkpt>
      <trkpt lat="45.97792" lon="4.78668">
        <ele>235</ele>
        <time>2018-01-19T11:23:37Z</time>
      </trkpt>
      <trkpt lat="45.97787" lon="4.78665">
        <ele>235</ele>
        <time>2018-01-19T11:23:38Z</time>
      </trkpt>
      <trkpt lat="45.97783" lon="4.78663">
        <ele>235</ele>
        <time>2018-01-19T11:23:39Z</time>
      </trkpt>
      <trkpt lat="45.97778" lon="4.78662">
        <ele>235</ele>
        <time>2018-01-19T11:23:40Z</time>
      </trkpt>
      <trkpt lat="45.97773" lon="4.78659">
        <ele>235</ele>
        <time>2018-01-19T11:23:41Z</time>
      </trkpt>
      <trkpt lat="45.97769" lon="4.78657">
        <ele>235</ele>
        <time>2018-01-19T11:23:42Z</time>
      </trkpt>
      <trkpt lat="45.97764" lon="4.78656">
        <ele>235</ele>
        <time>2018-01-19T11:23:43Z</time>
      </trkpt>
      <trkpt lat="45.97759" lon="4.78654">
        <ele>235</ele>
        <time>2018-01-19T11:23:44Z</time>
      </trkpt>
      <trkpt lat="45.97755" lon="4.78652">
        <ele>235</ele>
        <time>2018-01-19T11:23:45Z</time>
      </trkpt>
      <trkpt lat="45.9775" lon="4.78649">
        <ele>235</ele>
        <time>2018-01-19T11:23:46Z</time>
      </trkpt>
      <trkpt lat="45.97746" lon="4.78648">
        <ele>234</ele>
        <time>2018-01-19T11:23:47Z</time>
      </trkpt>
      <trkpt lat="45.97742" lon="4.78646">
        <ele>234</ele>
        <time>2018-01-19T11:23:48Z</time>
      </trkpt>
      <trkpt lat="45.97737" lon="4.78644">
        <ele>234</ele>
        <time>2018-01-19T11:23:49Z</time>
      </trkpt>
      <trkpt lat="45.97729" lon="4.78641">
        <ele>234</ele>
        <time>2018-01-19T11:23:51Z</time>
      </trkpt>
      <trkpt lat="45.97723" lon="4.78638">
        <ele>234</ele>
        <time>2018-01-19T11:23:52Z</time>
      </trkpt>
      <trkpt lat="45.97719" lon="4.78636">
        <ele>234</ele>
        <time>2018-01-19T11:23:53Z</time>
      </trkpt>
      <trkpt lat="45.97715" lon="4.78634">
        <ele>234</ele>
        <time>2018-01-19T11:23:54Z</time>
      </trkpt>
      <trkpt lat="45.9771" lon="4.78633">
        <ele>234</ele>
        <time>2018-01-19T11:23:55Z</time>
      </trkpt>
      <trkpt lat="45.97706" lon="4.7863">
        <ele>234</ele>
        <time>2018-01-19T11:23:56Z</time>
      </trkpt>
      <trkpt lat="45.97701" lon="4.78628">
        <ele>234</ele>
        <time>2018-01-19T11:23:57Z</time>
      </trkpt>
      <trkpt lat="45.97697" lon="4.78626">
        <ele>234</ele>
        <time>2018-01-19T11:23:58Z</time>
      </trkpt>
      <trkpt lat="45.97692" lon="4.78624">
        <ele>234</ele>
        <time>2018-01-19T11:23:59Z</time>
      </trkpt>
      <trkpt lat="45.97688" lon="4.78622">
        <ele>234</ele>
        <time>2018-01-19T11:24:00Z</time>
      </trkpt>
      <trkpt lat="45.97683" lon="4.7862">
        <ele>234</ele>
        <time>2018-01-19T11:24:01Z</time>
      </trkpt>
      <trkpt lat="45.97678" lon="4.78618">
        <ele>234</ele>
        <time>2018-01-19T11:24:02Z</time>
      </trkpt>
      <trkpt lat="45.97674" lon="4.78615">
        <ele>234</ele>
        <time>2018-01-19T11:24:03Z</time>
      </trkpt>
      <trkpt lat="45.97669" lon="4.78613">
        <ele>234</ele>
        <time>2018-01-19T11:24:04Z</time>
      </trkpt>
      <trkpt lat="45.97664" lon="4.78611">
        <ele>233</ele>
        <time>2018-01-19T11:24:05Z</time>
      </trkpt>
      <trkpt lat="45.9766" lon="4.7861">
        <ele>233</ele>
        <time>2018-01-19T11:24:06Z</time>
      </trkpt>
      <trkpt lat="45.97654" lon="4.78608">
        <ele>233</ele>
        <time>2018-01-19T11:24:07Z</time>
      </trkpt>
      <trkpt lat="45.97649" lon="4.78606">
        <ele>233</ele>
        <time>2018-01-19T11:24:08Z</time>
      </trkpt>
      <trkpt lat="45.97644" lon="4.78603">
        <ele>233</ele>
        <time>2018-01-19T11:24:09Z</time>
      </trkpt>
      <trkpt lat="45.97639" lon="4.78601">
        <ele>233</ele>
        <time>2018-01-19T11:24:10Z</time>
      </trkpt>
      <trkpt lat="45.97634" lon="4.78599">
        <ele>233</ele>
        <time>2018-01-19T11:24:11Z</time>
      </trkpt>
      <trkpt lat="45.97629" lon="4.78597">
        <ele>233</ele>
        <time>2018-01-19T11:24:12Z</time>
      </trkpt>
      <trkpt lat="45.97625" lon="4.78595">
        <ele>233</ele>
        <time>2018-01-19T11:24:13Z</time>
      </trkpt>
      <trkpt lat="45.9762" lon="4.78593">
        <ele>233</ele>
        <time>2018-01-19T11:24:14Z</time>
      </trkpt>
      <trkpt lat="45.97616" lon="4.78591">
        <ele>233</ele>
        <time>2018-01-19T11:24:15Z</time>
      </trkpt>
      <trkpt lat="45.97611" lon="4.7859">
        <ele>233</ele>
        <time>2018-01-19T11:24:16Z</time>
      </trkpt>
      <trkpt lat="45.97606" lon="4.78588">
        <ele>233</ele>
        <time>2018-01-19T11:24:17Z</time>
      </trkpt>
      <trkpt lat="45.97601" lon="4.78585">
        <ele>233</ele>
        <time>2018-01-19T11:24:18Z</time>
      </trkpt>
      <trkpt lat="45.97597" lon="4.78583">
        <ele>234</ele>
        <time>2018-01-19T11:24:19Z</time>
      </trkpt>
      <trkpt lat="45.97591" lon="4.78582">
        <ele>233</ele>
        <time>2018-01-19T11:24:20Z</time>
      </trkpt>
      <trkpt lat="45.97586" lon="4.7858">
        <ele>233</ele>
        <time>2018-01-19T11:24:21Z</time>
      </trkpt>
      <trkpt lat="45.9758" lon="4.78578">
        <ele>233</ele>
        <time>2018-01-19T11:24:22Z</time>
      </trkpt>
      <trkpt lat="45.97574" lon="4.78576">
        <ele>233</ele>
        <time>2018-01-19T11:24:23Z</time>
      </trkpt>
      <trkpt lat="45.97569" lon="4.78574">
        <ele>233</ele>
        <time>2018-01-19T11:24:24Z</time>
      </trkpt>
      <trkpt lat="45.97563" lon="4.78572">
        <ele>233</ele>
        <time>2018-01-19T11:24:25Z</time>
      </trkpt>
      <trkpt lat="45.97558" lon="4.78569">
        <ele>234</ele>
        <time>2018-01-19T11:24:26Z</time>
      </trkpt>
      <trkpt lat="45.97553" lon="4.78569">
        <ele>234</ele>
        <time>2018-01-19T11:24:27Z</time>
      </trkpt>
      <trkpt lat="45.97548" lon="4.78567">
        <ele>234</ele>
        <time>2018-01-19T11:24:28Z</time>
      </trkpt>
      <trkpt lat="45.97543" lon="4.78565">
        <ele>234</ele>
        <time>2018-01-19T11:24:29Z</time>
      </trkpt>
      <trkpt lat="45.97538" lon="4.78563">
        <ele>234</ele>
        <time>2018-01-19T11:24:30Z</time>
      </trkpt>
      <trkpt lat="45.97532" lon="4.7856">
        <ele>234</ele>
        <time>2018-01-19T11:24:31Z</time>
      </trkpt>
      <trkpt lat="45.97528" lon="4.78558">
        <ele>234</ele>
        <time>2018-01-19T11:24:32Z</time>
      </trkpt>
      <trkpt lat="45.97523" lon="4.78554">
        <ele>234</ele>
        <time>2018-01-19T11:24:33Z</time>
      </trkpt>
      <trkpt lat="45.97518" lon="4.78551">
        <ele>234</ele>
        <time>2018-01-19T11:24:34Z</time>
      </trkpt>
      <trkpt lat="45.97514" lon="4.78549">
        <ele>234</ele>
        <time>2018-01-19T11:24:35Z</time>
      </trkpt>
      <trkpt lat="45.9751" lon="4.78546">
        <ele>234</ele>
        <time>2018-01-19T11:24:36Z</time>
      </trkpt>
      <trkpt lat="45.97502" lon="4.7854">
        <ele>234</ele>
        <time>2018-01-19T11:24:38Z</time>
      </trkpt>
      <trkpt lat="45.97498" lon="4.78537">
        <ele>233</ele>
        <time>2018-01-19T11:24:39Z</time>
      </trkpt>
      <trkpt lat="45.97493" lon="4.78533">
        <ele>233</ele>
        <time>2018-01-19T11:24:40Z</time>
      </trkpt>
      <trkpt lat="45.97489" lon="4.7853">
        <ele>233</ele>
        <time>2018-01-19T11:24:41Z</time>
      </trkpt>
      <trkpt lat="45.97484" lon="4.78526">
        <ele>233</ele>
        <time>2018-01-19T11:24:42Z</time>
      </trkpt>
      <trkpt lat="45.9748" lon="4.78522">
        <ele>233</ele>
        <time>2018-01-19T11:24:43Z</time>
      </trkpt>
      <trkpt lat="45.97476" lon="4.78519">
        <ele>233</ele>
        <time>2018-01-19T11:24:44Z</time>
      </trkpt>
      <trkpt lat="45.97472" lon="4.78516">
        <ele>234</ele>
        <time>2018-01-19T11:24:45Z</time>
      </trkpt>
      <trkpt lat="45.97464" lon="4.78511">
        <ele>234</ele>
        <time>2018-01-19T11:24:47Z</time>
      </trkpt>
      <trkpt lat="45.97461" lon="4.78508">
        <ele>234</ele>
        <time>2018-01-19T11:24:48Z</time>
      </trkpt>
      <trkpt lat="45.97457" lon="4.78505">
        <ele>234</ele>
        <time>2018-01-19T11:24:49Z</time>
      </trkpt>
      <trkpt lat="45.97453" lon="4.78502">
        <ele>234</ele>
        <time>2018-01-19T11:24:50Z</time>
      </trkpt>
      <trkpt lat="45.97445" lon="4.78495">
        <ele>234</ele>
        <time>2018-01-19T11:24:52Z</time>
      </trkpt>
      <trkpt lat="45.97441" lon="4.78492">
        <ele>234</ele>
        <time>2018-01-19T11:24:53Z</time>
      </trkpt>
      <trkpt lat="45.97437" lon="4.78489">
        <ele>234</ele>
        <time>2018-01-19T11:24:54Z</time>
      </trkpt>
      <trkpt lat="45.97432" lon="4.78486">
        <ele>234</ele>
        <time>2018-01-19T11:24:55Z</time>
      </trkpt>
      <trkpt lat="45.97427" lon="4.78482">
        <ele>234</ele>
        <time>2018-01-19T11:24:56Z</time>
      </trkpt>
      <trkpt lat="45.97423" lon="4.78478">
        <ele>234</ele>
        <time>2018-01-19T11:24:57Z</time>
      </trkpt>
      <trkpt lat="45.97418" lon="4.78474">
        <ele>234</ele>
        <time>2018-01-19T11:24:58Z</time>
      </trkpt>
      <trkpt lat="45.97414" lon="4.78469">
        <ele>233</ele>
        <time>2018-01-19T11:24:59Z</time>
      </trkpt>
      <trkpt lat="45.97409" lon="4.78465">
        <ele>233</ele>
        <time>2018-01-19T11:25:00Z</time>
      </trkpt>
      <trkpt lat="45.97404" lon="4.7846">
        <ele>233</ele>
        <time>2018-01-19T11:25:01Z</time>
      </trkpt>
      <trkpt lat="45.974" lon="4.78456">
        <ele>233</ele>
        <time>2018-01-19T11:25:02Z</time>
      </trkpt>
      <trkpt lat="45.97395" lon="4.78452">
        <ele>233</ele>
        <time>2018-01-19T11:25:03Z</time>
      </trkpt>
      <trkpt lat="45.97391" lon="4.78448">
        <ele>233</ele>
        <time>2018-01-19T11:25:04Z</time>
      </trkpt>
      <trkpt lat="45.97388" lon="4.78443">
        <ele>233</ele>
        <time>2018-01-19T11:25:05Z</time>
      </trkpt>
      <trkpt lat="45.97384" lon="4.78438">
        <ele>233</ele>
        <time>2018-01-19T11:25:06Z</time>
      </trkpt>
      <trkpt lat="45.9738" lon="4.78434">
        <ele>233</ele>
        <time>2018-01-19T11:25:07Z</time>
      </trkpt>
      <trkpt lat="45.97373" lon="4.78427">
        <ele>233</ele>
        <time>2018-01-19T11:25:09Z</time>
      </trkpt>
      <trkpt lat="45.9737" lon="4.78422">
        <ele>233</ele>
        <time>2018-01-19T11:25:10Z</time>
      </trkpt>
      <trkpt lat="45.97363" lon="4.78414">
        <ele>233</ele>
        <time>2018-01-19T11:25:12Z</time>
      </trkpt>
      <trkpt lat="45.97359" lon="4.7841">
        <ele>233</ele>
        <time>2018-01-19T11:25:13Z</time>
      </trkpt>
      <trkpt lat="45.97355" lon="4.78407">
        <ele>232</ele>
        <time>2018-01-19T11:25:14Z</time>
      </trkpt>
      <trkpt lat="45.97352" lon="4.78403">
        <ele>232</ele>
        <time>2018-01-19T11:25:15Z</time>
      </trkpt>
      <trkpt lat="45.97348" lon="4.78398">
        <ele>232</ele>
        <time>2018-01-19T11:25:16Z</time>
      </trkpt>
      <trkpt lat="45.97344" lon="4.78394">
        <ele>232</ele>
        <time>2018-01-19T11:25:17Z</time>
      </trkpt>
      <trkpt lat="45.9734" lon="4.7839">
        <ele>233</ele>
        <time>2018-01-19T11:25:18Z</time>
      </trkpt>
      <trkpt lat="45.97336" lon="4.78386">
        <ele>233</ele>
        <time>2018-01-19T11:25:19Z</time>
      </trkpt>
      <trkpt lat="45.97332" lon="4.78381">
        <ele>232</ele>
        <time>2018-01-19T11:25:20Z</time>
      </trkpt>
      <trkpt lat="45.97329" lon="4.78377">
        <ele>232</ele>
        <time>2018-01-19T11:25:21Z</time>
      </trkpt>
      <trkpt lat="45.97324" lon="4.78371">
        <ele>232</ele>
        <time>2018-01-19T11:25:22Z</time>
      </trkpt>
      <trkpt lat="45.9732" lon="4.78366">
        <ele>232</ele>
        <time>2018-01-19T11:25:23Z</time>
      </trkpt>
      <trkpt lat="45.97316" lon="4.78361">
        <ele>232</ele>
        <time>2018-01-19T11:25:24Z</time>
      </trkpt>
      <trkpt lat="45.97313" lon="4.78356">
        <ele>232</ele>
        <time>2018-01-19T11:25:25Z</time>
      </trkpt>
      <trkpt lat="45.97309" lon="4.78351">
        <ele>232</ele>
        <time>2018-01-19T11:25:26Z</time>
      </trkpt>
      <trkpt lat="45.97305" lon="4.78347">
        <ele>232</ele>
        <time>2018-01-19T11:25:27Z</time>
      </trkpt>
      <trkpt lat="45.97302" lon="4.78343">
        <ele>232</ele>
        <time>2018-01-19T11:25:28Z</time>
      </trkpt>
      <trkpt lat="45.97298" lon="4.78339">
        <ele>232</ele>
        <time>2018-01-19T11:25:29Z</time>
      </trkpt>
      <trkpt lat="45.97294" lon="4.78335">
        <ele>232</ele>
        <time>2018-01-19T11:25:30Z</time>
      </trkpt>
      <trkpt lat="45.97291" lon="4.7833">
        <ele>232</ele>
        <time>2018-01-19T11:25:31Z</time>
      </trkpt>
      <trkpt lat="45.97288" lon="4.78326">
        <ele>232</ele>
        <time>2018-01-19T11:25:32Z</time>
      </trkpt>
      <trkpt lat="45.97284" lon="4.78321">
        <ele>232</ele>
        <time>2018-01-19T11:25:33Z</time>
      </trkpt>
      <trkpt lat="45.9728" lon="4.78316">
        <ele>232</ele>
        <time>2018-01-19T11:25:34Z</time>
      </trkpt>
      <trkpt lat="45.97277" lon="4.7831">
        <ele>232</ele>
        <time>2018-01-19T11:25:35Z</time>
      </trkpt>
      <trkpt lat="45.97273" lon="4.78305">
        <ele>232</ele>
        <time>2018-01-19T11:25:36Z</time>
      </trkpt>
      <trkpt lat="45.9727" lon="4.78301">
        <ele>232</ele>
        <time>2018-01-19T11:25:37Z</time>
      </trkpt>
      <trkpt lat="45.97266" lon="4.78295">
        <ele>232</ele>
        <time>2018-01-19T11:25:38Z</time>
      </trkpt>
      <trkpt lat="45.97263" lon="4.78289">
        <ele>232</ele>
        <time>2018-01-19T11:25:39Z</time>
      </trkpt>
      <trkpt lat="45.97258" lon="4.7828">
        <ele>232</ele>
        <time>2018-01-19T11:25:41Z</time>
      </trkpt>
      <trkpt lat="45.97254" lon="4.78276">
        <ele>232</ele>
        <time>2018-01-19T11:25:42Z</time>
      </trkpt>
      <trkpt lat="45.97251" lon="4.78271">
        <ele>232</ele>
        <time>2018-01-19T11:25:43Z</time>
      </trkpt>
      <trkpt lat="45.97248" lon="4.78266">
        <ele>231</ele>
        <time>2018-01-19T11:25:44Z</time>
      </trkpt>
      <trkpt lat="45.97242" lon="4.78256">
        <ele>231</ele>
        <time>2018-01-19T11:25:46Z</time>
      </trkpt>
      <trkpt lat="45.97239" lon="4.7825">
        <ele>231</ele>
        <time>2018-01-19T11:25:47Z</time>
      </trkpt>
      <trkpt lat="45.97236" lon="4.78245">
        <ele>231</ele>
        <time>2018-01-19T11:25:48Z</time>
      </trkpt>
      <trkpt lat="45.97233" lon="4.7824">
        <ele>231</ele>
        <time>2018-01-19T11:25:49Z</time>
      </trkpt>
      <trkpt lat="45.97229" lon="4.78236">
        <ele>231</ele>
        <time>2018-01-19T11:25:50Z</time>
      </trkpt>
      <trkpt lat="45.97226" lon="4.78231">
        <ele>231</ele>
        <time>2018-01-19T11:25:51Z</time>
      </trkpt>
      <trkpt lat="45.97223" lon="4.78225">
        <ele>231</ele>
        <time>2018-01-19T11:25:52Z</time>
      </trkpt>
      <trkpt lat="45.97219" lon="4.7822">
        <ele>231</ele>
        <time>2018-01-19T11:25:53Z</time>
      </trkpt>
      <trkpt lat="45.97217" lon="4.78215">
        <ele>231</ele>
        <time>2018-01-19T11:25:54Z</time>
      </trkpt>
      <trkpt lat="45.97214" lon="4.7821">
        <ele>231</ele>
        <time>2018-01-19T11:25:55Z</time>
      </trkpt>
      <trkpt lat="45.97211" lon="4.78205">
        <ele>231</ele>
        <time>2018-01-19T11:25:56Z</time>
      </trkpt>
      <trkpt lat="45.97208" lon="4.782">
        <ele>231</ele>
        <time>2018-01-19T11:25:57Z</time>
      </trkpt>
      <trkpt lat="45.97203" lon="4.7819">
        <ele>231</ele>
        <time>2018-01-19T11:25:59Z</time>
      </trkpt>
      <trkpt lat="45.972" lon="4.78185">
        <ele>231</ele>
        <time>2018-01-19T11:26:00Z</time>
      </trkpt>
      <trkpt lat="45.97197" lon="4.78179">
        <ele>231</ele>
        <time>2018-01-19T11:26:01Z</time>
      </trkpt>
      <trkpt lat="45.97194" lon="4.78174">
        <ele>231</ele>
        <time>2018-01-19T11:26:02Z</time>
      </trkpt>
      <trkpt lat="45.97191" lon="4.78169">
        <ele>231</ele>
        <time>2018-01-19T11:26:03Z</time>
      </trkpt>
      <trkpt lat="45.97188" lon="4.78163">
        <ele>231</ele>
        <time>2018-01-19T11:26:04Z</time>
      </trkpt>
      <trkpt lat="45.97185" lon="4.78157">
        <ele>231</ele>
        <time>2018-01-19T11:26:05Z</time>
      </trkpt>
      <trkpt lat="45.97182" lon="4.78152">
        <ele>231</ele>
        <time>2018-01-19T11:26:06Z</time>
      </trkpt>
      <trkpt lat="45.97178" lon="4.78147">
        <ele>231</ele>
        <time>2018-01-19T11:26:07Z</time>
      </trkpt>
      <trkpt lat="45.97176" lon="4.78141">
        <ele>231</ele>
        <time>2018-01-19T11:26:08Z</time>
      </trkpt>
      <trkpt lat="45.97173" lon="4.78137">
        <ele>231</ele>
        <time>2018-01-19T11:26:09Z</time>
      </trkpt>
      <trkpt lat="45.9717" lon="4.78131">
        <ele>231</ele>
        <time>2018-01-19T11:26:10Z</time>
      </trkpt>
      <trkpt lat="45.97167" lon="4.78125">
        <ele>231</ele>
        <time>2018-01-19T11:26:11Z</time>
      </trkpt>
      <trkpt lat="45.97164" lon="4.7812">
        <ele>230</ele>
        <time>2018-01-19T11:26:12Z</time>
      </trkpt>
      <trkpt lat="45.97159" lon="4.78109">
        <ele>230</ele>
        <time>2018-01-19T11:26:14Z</time>
      </trkpt>
      <trkpt lat="45.97156" lon="4.78104">
        <ele>230</ele>
        <time>2018-01-19T11:26:15Z</time>
      </trkpt>
      <trkpt lat="45.97152" lon="4.78099">
        <ele>230</ele>
        <time>2018-01-19T11:26:16Z</time>
      </trkpt>
      <trkpt lat="45.97149" lon="4.78094">
        <ele>230</ele>
        <time>2018-01-19T11:26:17Z</time>
      </trkpt>
      <trkpt lat="45.97147" lon="4.78088">
        <ele>230</ele>
        <time>2018-01-19T11:26:18Z</time>
      </trkpt>
      <trkpt lat="45.97144" lon="4.78083">
        <ele>230</ele>
        <time>2018-01-19T11:26:19Z</time>
      </trkpt>
      <trkpt lat="45.97141" lon="4.78078">
        <ele>230</ele>
        <time>2018-01-19T11:26:20Z</time>
      </trkpt>
      <trkpt lat="45.97137" lon="4.78073">
        <ele>230</ele>
        <time>2018-01-19T11:26:21Z</time>
      </trkpt>
      <trkpt lat="45.97133" lon="4.78068">
        <ele>230</ele>
        <time>2018-01-19T11:26:22Z</time>
      </trkpt>
      <trkpt lat="45.97129" lon="4.78065">
        <ele>230</ele>
        <time>2018-01-19T11:26:23Z</time>
      </trkpt>
      <trkpt lat="45.97122" lon="4.78056">
        <ele>229</ele>
        <time>2018-01-19T11:26:25Z</time>
      </trkpt>
      <trkpt lat="45.97119" lon="4.78052">
        <ele>229</ele>
        <time>2018-01-19T11:26:26Z</time>
      </trkpt>
      <trkpt lat="45.97112" lon="4.78045">
        <ele>229</ele>
        <time>2018-01-19T11:26:28Z</time>
      </trkpt>
      <trkpt lat="45.97109" lon="4.78041">
        <ele>229</ele>
        <time>2018-01-19T11:26:29Z</time>
      </trkpt>
      <trkpt lat="45.97102" lon="4.78034">
        <ele>229</ele>
        <time>2018-01-19T11:26:31Z</time>
      </trkpt>
      <trkpt lat="45.97099" lon="4.7803">
        <ele>229</ele>
        <time>2018-01-19T11:26:32Z</time>
      </trkpt>
      <trkpt lat="45.97095" lon="4.78026">
        <ele>229</ele>
        <time>2018-01-19T11:26:33Z</time>
      </trkpt>
      <trkpt lat="45.9709" lon="4.78022">
        <ele>229</ele>
        <time>2018-01-19T11:26:34Z</time>
      </trkpt>
      <trkpt lat="45.97086" lon="4.78018">
        <ele>229</ele>
        <time>2018-01-19T11:26:35Z</time>
      </trkpt>
      <trkpt lat="45.97082" lon="4.78014">
        <ele>229</ele>
        <time>2018-01-19T11:26:36Z</time>
      </trkpt>
      <trkpt lat="45.97078" lon="4.78011">
        <ele>229</ele>
        <time>2018-01-19T11:26:37Z</time>
      </trkpt>
      <trkpt lat="45.97073" lon="4.78007">
        <ele>229</ele>
        <time>2018-01-19T11:26:38Z</time>
      </trkpt>
      <trkpt lat="45.97069" lon="4.78003">
        <ele>229</ele>
        <time>2018-01-19T11:26:39Z</time>
      </trkpt>
      <trkpt lat="45.97066" lon="4.77999">
        <ele>229</ele>
        <time>2018-01-19T11:26:40Z</time>
      </trkpt>
      <trkpt lat="45.97059" lon="4.77992">
        <ele>229</ele>
        <time>2018-01-19T11:26:42Z</time>
      </trkpt>
      <trkpt lat="45.97055" lon="4.77988">
        <ele>229</ele>
        <time>2018-01-19T11:26:43Z</time>
      </trkpt>
      <trkpt lat="45.97049" lon="4.77981">
        <ele>229</ele>
        <time>2018-01-19T11:26:45Z</time>
      </trkpt>
      <trkpt lat="45.97046" lon="4.77977">
        <ele>229</ele>
        <time>2018-01-19T11:26:46Z</time>
      </trkpt>
      <trkpt lat="45.97039" lon="4.77969">
        <ele>229</ele>
        <time>2018-01-19T11:26:48Z</time>
      </trkpt>
      <trkpt lat="45.97035" lon="4.77965">
        <ele>229</ele>
        <time>2018-01-19T11:26:49Z</time>
      </trkpt>
      <trkpt lat="45.97032" lon="4.77961">
        <ele>228</ele>
        <time>2018-01-19T11:26:50Z</time>
      </trkpt>
      <trkpt lat="45.97028" lon="4.77957">
        <ele>228</ele>
        <time>2018-01-19T11:26:51Z</time>
      </trkpt>
      <trkpt lat="45.97024" lon="4.77952">
        <ele>228</ele>
        <time>2018-01-19T11:26:52Z</time>
      </trkpt>
      <trkpt lat="45.9702" lon="4.77949">
        <ele>228</ele>
        <time>2018-01-19T11:26:53Z</time>
      </trkpt>
      <trkpt lat="45.97016" lon="4.77945">
        <ele>228</ele>
        <time>2018-01-19T11:26:54Z</time>
      </trkpt>
      <trkpt lat="45.97013" lon="4.7794">
        <ele>228</ele>
        <time>2018-01-19T11:26:55Z</time>
      </trkpt>
      <trkpt lat="45.9701" lon="4.77936">
        <ele>228</ele>
        <time>2018-01-19T11:26:56Z</time>
      </trkpt>
      <trkpt lat="45.97006" lon="4.77932">
        <ele>228</ele>
        <time>2018-01-19T11:26:57Z</time>
      </trkpt>
      <trkpt lat="45.97002" lon="4.77927">
        <ele>228</ele>
        <time>2018-01-19T11:26:58Z</time>
      </trkpt>
      <trkpt lat="45.96998" lon="4.77922">
        <ele>227</ele>
        <time>2018-01-19T11:26:59Z</time>
      </trkpt>
      <trkpt lat="45.96995" lon="4.77918">
        <ele>227</ele>
        <time>2018-01-19T11:27:00Z</time>
      </trkpt>
      <trkpt lat="45.96991" lon="4.77913">
        <ele>227</ele>
        <time>2018-01-19T11:27:01Z</time>
      </trkpt>
      <trkpt lat="45.96988" lon="4.77908">
        <ele>227</ele>
        <time>2018-01-19T11:27:02Z</time>
      </trkpt>
      <trkpt lat="45.96984" lon="4.77903">
        <ele>227</ele>
        <time>2018-01-19T11:27:03Z</time>
      </trkpt>
      <trkpt lat="45.9698" lon="4.77898">
        <ele>228</ele>
        <time>2018-01-19T11:27:04Z</time>
      </trkpt>
      <trkpt lat="45.96976" lon="4.77893">
        <ele>228</ele>
        <time>2018-01-19T11:27:05Z</time>
      </trkpt>
      <trkpt lat="45.96972" lon="4.77888">
        <ele>228</ele>
        <time>2018-01-19T11:27:06Z</time>
      </trkpt>
      <trkpt lat="45.96969" lon="4.77883">
        <ele>228</ele>
        <time>2018-01-19T11:27:07Z</time>
      </trkpt>
      <trkpt lat="45.96964" lon="4.77878">
        <ele>228</ele>
        <time>2018-01-19T11:27:08Z</time>
      </trkpt>
      <trkpt lat="45.96961" lon="4.77873">
        <ele>228</ele>
        <time>2018-01-19T11:27:09Z</time>
      </trkpt>
      <trkpt lat="45.96956" lon="4.77867">
        <ele>228</ele>
        <time>2018-01-19T11:27:10Z</time>
      </trkpt>
      <trkpt lat="45.96951" lon="4.77862">
        <ele>228</ele>
        <time>2018-01-19T11:27:11Z</time>
      </trkpt>
      <trkpt lat="45.96946" lon="4.77857">
        <ele>228</ele>
        <time>2018-01-19T11:27:12Z</time>
      </trkpt>
      <trkpt lat="45.96941" lon="4.77852">
        <ele>228</ele>
        <time>2018-01-19T11:27:13Z</time>
      </trkpt>
      <trkpt lat="45.96937" lon="4.77847">
        <ele>228</ele>
        <time>2018-01-19T11:27:14Z</time>
      </trkpt>
      <trkpt lat="45.96932" lon="4.77842">
        <ele>228</ele>
        <time>2018-01-19T11:27:15Z</time>
      </trkpt>
      <trkpt lat="45.96928" lon="4.77837">
        <ele>228</ele>
        <time>2018-01-19T11:27:16Z</time>
      </trkpt>
      <trkpt lat="45.96923" lon="4.77832">
        <ele>228</ele>
        <time>2018-01-19T11:27:17Z</time>
      </trkpt>
      <trkpt lat="45.96919" lon="4.77827">
        <ele>228</ele>
        <time>2018-01-19T11:27:18Z</time>
      </trkpt>
      <trkpt lat="45.96915" lon="4.77822">
        <ele>228</ele>
        <time>2018-01-19T11:27:19Z</time>
      </trkpt>
      <trkpt lat="45.96911" lon="4.77818">
        <ele>228</ele>
        <time>2018-01-19T11:27:20Z</time>
      </trkpt>
      <trkpt lat="45.96907" lon="4.77813">
        <ele>228</ele>
        <time>2018-01-19T11:27:21Z</time>
      </trkpt>
      <trkpt lat="45.96903" lon="4.7781">
        <ele>228</ele>
        <time>2018-01-19T11:27:22Z</time>
      </trkpt>
      <trkpt lat="45.96899" lon="4.77806">
        <ele>228</ele>
        <time>2018-01-19T11:27:23Z</time>
      </trkpt>
      <trkpt lat="45.96895" lon="4.77802">
        <ele>228</ele>
        <time>2018-01-19T11:27:24Z</time>
      </trkpt>
      <trkpt lat="45.96891" lon="4.77798">
        <ele>228</ele>
        <time>2018-01-19T11:27:25Z</time>
      </trkpt>
      <trkpt lat="45.96884" lon="4.77791">
        <ele>228</ele>
        <time>2018-01-19T11:27:27Z</time>
      </trkpt>
      <trkpt lat="45.96881" lon="4.77787">
        <ele>228</ele>
        <time>2018-01-19T11:27:28Z</time>
      </trkpt>
      <trkpt lat="45.96875" lon="4.7778">
        <ele>228</ele>
        <time>2018-01-19T11:27:30Z</time>
      </trkpt>
      <trkpt lat="45.9687" lon="4.77776">
        <ele>228</ele>
        <time>2018-01-19T11:27:31Z</time>
      </trkpt>
      <trkpt lat="45.96867" lon="4.77772">
        <ele>228</ele>
        <time>2018-01-19T11:27:32Z</time>
      </trkpt>
      <trkpt lat="45.96863" lon="4.77769">
        <ele>228</ele>
        <time>2018-01-19T11:27:33Z</time>
      </trkpt>
      <trkpt lat="45.96859" lon="4.77765">
        <ele>228</ele>
        <time>2018-01-19T11:27:34Z</time>
      </trkpt>
      <trkpt lat="45.96855" lon="4.77761">
        <ele>228</ele>
        <time>2018-01-19T11:27:35Z</time>
      </trkpt>
      <trkpt lat="45.96851" lon="4.77757">
        <ele>228</ele>
        <time>2018-01-19T11:27:36Z</time>
      </trkpt>
      <trkpt lat="45.96848" lon="4.77753">
        <ele>228</ele>
        <time>2018-01-19T11:27:37Z</time>
      </trkpt>
      <trkpt lat="45.96843" lon="4.77749">
        <ele>228</ele>
        <time>2018-01-19T11:27:38Z</time>
      </trkpt>
      <trkpt lat="45.96839" lon="4.77745">
        <ele>228</ele>
        <time>2018-01-19T11:27:39Z</time>
      </trkpt>
      <trkpt lat="45.96836" lon="4.77741">
        <ele>228</ele>
        <time>2018-01-19T11:27:40Z</time>
      </trkpt>
      <trkpt lat="45.96831" lon="4.77737">
        <ele>228</ele>
        <time>2018-01-19T11:27:41Z</time>
      </trkpt>
      <trkpt lat="45.96828" lon="4.77733">
        <ele>228</ele>
        <time>2018-01-19T11:27:42Z</time>
      </trkpt>
      <trkpt lat="45.96824" lon="4.77729">
        <ele>228</ele>
        <time>2018-01-19T11:27:43Z</time>
      </trkpt>
      <trkpt lat="45.9682" lon="4.77725">
        <ele>228</ele>
        <time>2018-01-19T11:27:44Z</time>
      </trkpt>
      <trkpt lat="45.96816" lon="4.77721">
        <ele>228</ele>
        <time>2018-01-19T11:27:45Z</time>
      </trkpt>
      <trkpt lat="45.96813" lon="4.77717">
        <ele>228</ele>
        <time>2018-01-19T11:27:46Z</time>
      </trkpt>
      <trkpt lat="45.9681" lon="4.77711">
        <ele>228</ele>
        <time>2018-01-19T11:27:47Z</time>
      </trkpt>
      <trkpt lat="45.96805" lon="4.77707">
        <ele>228</ele>
        <time>2018-01-19T11:27:48Z</time>
      </trkpt>
      <trkpt lat="45.96801" lon="4.77702">
        <ele>228</ele>
        <time>2018-01-19T11:27:49Z</time>
      </trkpt>
      <trkpt lat="45.96798" lon="4.77697">
        <ele>228</ele>
        <time>2018-01-19T11:27:50Z</time>
      </trkpt>
      <trkpt lat="45.96793" lon="4.77692">
        <ele>228</ele>
        <time>2018-01-19T11:27:51Z</time>
      </trkpt>
      <trkpt lat="45.9679" lon="4.77688">
        <ele>227</ele>
        <time>2018-01-19T11:27:52Z</time>
      </trkpt>
      <trkpt lat="45.96786" lon="4.77683">
        <ele>227</ele>
        <time>2018-01-19T11:27:53Z</time>
      </trkpt>
      <trkpt lat="45.96779" lon="4.77676">
        <ele>227</ele>
        <time>2018-01-19T11:27:55Z</time>
      </trkpt>
      <trkpt lat="45.96776" lon="4.77671">
        <ele>227</ele>
        <time>2018-01-19T11:27:56Z</time>
      </trkpt>
      <trkpt lat="45.96772" lon="4.77667">
        <ele>227</ele>
        <time>2018-01-19T11:27:57Z</time>
      </trkpt>
      <trkpt lat="45.96767" lon="4.77662">
        <ele>227</ele>
        <time>2018-01-19T11:27:58Z</time>
      </trkpt>
      <trkpt lat="45.96763" lon="4.77658">
        <ele>227</ele>
        <time>2018-01-19T11:27:59Z</time>
      </trkpt>
      <trkpt lat="45.96759" lon="4.77654">
        <ele>227</ele>
        <time>2018-01-19T11:28:00Z</time>
      </trkpt>
      <trkpt lat="45.96755" lon="4.77649">
        <ele>227</ele>
        <time>2018-01-19T11:28:01Z</time>
      </trkpt>
      <trkpt lat="45.96751" lon="4.77643">
        <ele>228</ele>
        <time>2018-01-19T11:28:02Z</time>
      </trkpt>
      <trkpt lat="45.96748" lon="4.77639">
        <ele>227</ele>
        <time>2018-01-19T11:28:03Z</time>
      </trkpt>
      <trkpt lat="45.96744" lon="4.77633">
        <ele>227</ele>
        <time>2018-01-19T11:28:04Z</time>
      </trkpt>
      <trkpt lat="45.96741" lon="4.77628">
        <ele>227</ele>
        <time>2018-01-19T11:28:05Z</time>
      </trkpt>
      <trkpt lat="45.96736" lon="4.77623">
        <ele>226</ele>
        <time>2018-01-19T11:28:06Z</time>
      </trkpt>
      <trkpt lat="45.96732" lon="4.77618">
        <ele>226</ele>
        <time>2018-01-19T11:28:07Z</time>
      </trkpt>
      <trkpt lat="45.96728" lon="4.77613">
        <ele>226</ele>
        <time>2018-01-19T11:28:08Z</time>
      </trkpt>
      <trkpt lat="45.96725" lon="4.77607">
        <ele>226</ele>
        <time>2018-01-19T11:28:09Z</time>
      </trkpt>
      <trkpt lat="45.9672" lon="4.77603">
        <ele>226</ele>
        <time>2018-01-19T11:28:10Z</time>
      </trkpt>
      <trkpt lat="45.96716" lon="4.77598">
        <ele>226</ele>
        <time>2018-01-19T11:28:11Z</time>
      </trkpt>
      <trkpt lat="45.96713" lon="4.77594">
        <ele>226</ele>
        <time>2018-01-19T11:28:12Z</time>
      </trkpt>
      <trkpt lat="45.96706" lon="4.77586">
        <ele>226</ele>
        <time>2018-01-19T11:28:14Z</time>
      </trkpt>
      <trkpt lat="45.96702" lon="4.77582">
        <ele>226</ele>
        <time>2018-01-19T11:28:15Z</time>
      </trkpt>
      <trkpt lat="45.96699" lon="4.77578">
        <ele>226</ele>
        <time>2018-01-19T11:28:16Z</time>
      </trkpt>
      <trkpt lat="45.96694" lon="4.77573">
        <ele>225</ele>
        <time>2018-01-19T11:28:17Z</time>
      </trkpt>
      <trkpt lat="45.9669" lon="4.77569">
        <ele>225</ele>
        <time>2018-01-19T11:28:18Z</time>
      </trkpt>
      <trkpt lat="45.96686" lon="4.77565">
        <ele>225</ele>
        <time>2018-01-19T11:28:19Z</time>
      </trkpt>
      <trkpt lat="45.96681" lon="4.77562">
        <ele>225</ele>
        <time>2018-01-19T11:28:20Z</time>
      </trkpt>
      <trkpt lat="45.96676" lon="4.77559">
        <ele>225</ele>
        <time>2018-01-19T11:28:21Z</time>
      </trkpt>
      <trkpt lat="45.96671" lon="4.77556">
        <ele>225</ele>
        <time>2018-01-19T11:28:22Z</time>
      </trkpt>
      <trkpt lat="45.96665" lon="4.77552">
        <ele>224</ele>
        <time>2018-01-19T11:28:23Z</time>
      </trkpt>
      <trkpt lat="45.9666" lon="4.77548">
        <ele>224</ele>
        <time>2018-01-19T11:28:24Z</time>
      </trkpt>
      <trkpt lat="45.96654" lon="4.77544">
        <ele>224</ele>
        <time>2018-01-19T11:28:25Z</time>
      </trkpt>
      <trkpt lat="45.96649" lon="4.77542">
        <ele>224</ele>
        <time>2018-01-19T11:28:26Z</time>
      </trkpt>
      <trkpt lat="45.96644" lon="4.77538">
        <ele>224</ele>
        <time>2018-01-19T11:28:27Z</time>
      </trkpt>
      <trkpt lat="45.96639" lon="4.77534">
        <ele>224</ele>
        <time>2018-01-19T11:28:28Z</time>
      </trkpt>
      <trkpt lat="45.96635" lon="4.77531">
        <ele>224</ele>
        <time>2018-01-19T11:28:29Z</time>
      </trkpt>
      <trkpt lat="45.9663" lon="4.77528">
        <ele>224</ele>
        <time>2018-01-19T11:28:30Z</time>
      </trkpt>
      <trkpt lat="45.96626" lon="4.77524">
        <ele>224</ele>
        <time>2018-01-19T11:28:31Z</time>
      </trkpt>
      <trkpt lat="45.96622" lon="4.77522">
        <ele>224</ele>
        <time>2018-01-19T11:28:32Z</time>
      </trkpt>
      <trkpt lat="45.96616" lon="4.77519">
        <ele>224</ele>
        <time>2018-01-19T11:28:33Z</time>
      </trkpt>
      <trkpt lat="45.96613" lon="4.77515">
        <ele>224</ele>
        <time>2018-01-19T11:28:34Z</time>
      </trkpt>
      <trkpt lat="45.96603" lon="4.77512">
        <ele>224</ele>
        <time>2018-01-19T11:28:35Z</time>
      </trkpt>
      <trkpt lat="45.96599" lon="4.7751">
        <ele>224</ele>
        <time>2018-01-19T11:28:36Z</time>
      </trkpt>
      <trkpt lat="45.96594" lon="4.77508">
        <ele>224</ele>
        <time>2018-01-19T11:28:37Z</time>
      </trkpt>
      <trkpt lat="45.96589" lon="4.77505">
        <ele>224</ele>
        <time>2018-01-19T11:28:38Z</time>
      </trkpt>
      <trkpt lat="45.96585" lon="4.77501">
        <ele>224</ele>
        <time>2018-01-19T11:28:39Z</time>
      </trkpt>
      <trkpt lat="45.96581" lon="4.77498">
        <ele>224</ele>
        <time>2018-01-19T11:28:40Z</time>
      </trkpt>
      <trkpt lat="45.96577" lon="4.77495">
        <ele>224</ele>
        <time>2018-01-19T11:28:41Z</time>
      </trkpt>
      <trkpt lat="45.96571" lon="4.77491">
        <ele>224</ele>
        <time>2018-01-19T11:28:42Z</time>
      </trkpt>
      <trkpt lat="45.96566" lon="4.77488">
        <ele>224</ele>
        <time>2018-01-19T11:28:43Z</time>
      </trkpt>
      <trkpt lat="45.96561" lon="4.77485">
        <ele>224</ele>
        <time>2018-01-19T11:28:44Z</time>
      </trkpt>
      <trkpt lat="45.96556" lon="4.77482">
        <ele>224</ele>
        <time>2018-01-19T11:28:45Z</time>
      </trkpt>
      <trkpt lat="45.96551" lon="4.77478">
        <ele>223</ele>
        <time>2018-01-19T11:28:46Z</time>
      </trkpt>
      <trkpt lat="45.96546" lon="4.77475">
        <ele>223</ele>
        <time>2018-01-19T11:28:47Z</time>
      </trkpt>
      <trkpt lat="45.96541" lon="4.77471">
        <ele>223</ele>
        <time>2018-01-19T11:28:48Z</time>
      </trkpt>
      <trkpt lat="45.96536" lon="4.77467">
        <ele>223</ele>
        <time>2018-01-19T11:28:49Z</time>
      </trkpt>
      <trkpt lat="45.96531" lon="4.77465">
        <ele>223</ele>
        <time>2018-01-19T11:28:50Z</time>
      </trkpt>
      <trkpt lat="45.96525" lon="4.77461">
        <ele>223</ele>
        <time>2018-01-19T11:28:51Z</time>
      </trkpt>
      <trkpt lat="45.9652" lon="4.77458">
        <ele>223</ele>
        <time>2018-01-19T11:28:52Z</time>
      </trkpt>
      <trkpt lat="45.96515" lon="4.77454">
        <ele>223</ele>
        <time>2018-01-19T11:28:53Z</time>
      </trkpt>
      <trkpt lat="45.9651" lon="4.77451">
        <ele>223</ele>
        <time>2018-01-19T11:28:54Z</time>
      </trkpt>
      <trkpt lat="45.96504" lon="4.77448">
        <ele>223</ele>
        <time>2018-01-19T11:28:55Z</time>
      </trkpt>
      <trkpt lat="45.96498" lon="4.77444">
        <ele>222</ele>
        <time>2018-01-19T11:28:56Z</time>
      </trkpt>
      <trkpt lat="45.96493" lon="4.7744">
        <ele>222</ele>
        <time>2018-01-19T11:28:57Z</time>
      </trkpt>
      <trkpt lat="45.96487" lon="4.77436">
        <ele>222</ele>
        <time>2018-01-19T11:28:58Z</time>
      </trkpt>
      <trkpt lat="45.96482" lon="4.77433">
        <ele>222</ele>
        <time>2018-01-19T11:28:59Z</time>
      </trkpt>
      <trkpt lat="45.96477" lon="4.77429">
        <ele>222</ele>
        <time>2018-01-19T11:29:00Z</time>
      </trkpt>
      <trkpt lat="45.96472" lon="4.77426">
        <ele>221</ele>
        <time>2018-01-19T11:29:01Z</time>
      </trkpt>
      <trkpt lat="45.96467" lon="4.77423">
        <ele>221</ele>
        <time>2018-01-19T11:29:02Z</time>
      </trkpt>
      <trkpt lat="45.96463" lon="4.7742">
        <ele>221</ele>
        <time>2018-01-19T11:29:03Z</time>
      </trkpt>
      <trkpt lat="45.96457" lon="4.77415">
        <ele>222</ele>
        <time>2018-01-19T11:29:04Z</time>
      </trkpt>
      <trkpt lat="45.96452" lon="4.77412">
        <ele>222</ele>
        <time>2018-01-19T11:29:05Z</time>
      </trkpt>
      <trkpt lat="45.96447" lon="4.77409">
        <ele>222</ele>
        <time>2018-01-19T11:29:06Z</time>
      </trkpt>
      <trkpt lat="45.96443" lon="4.77406">
        <ele>222</ele>
        <time>2018-01-19T11:29:07Z</time>
      </trkpt>
      <trkpt lat="45.96435" lon="4.77402">
        <ele>222</ele>
        <time>2018-01-19T11:29:09Z</time>
      </trkpt>
      <trkpt lat="45.9643" lon="4.77399">
        <ele>222</ele>
        <time>2018-01-19T11:29:10Z</time>
      </trkpt>
      <trkpt lat="45.96424" lon="4.77397">
        <ele>222</ele>
        <time>2018-01-19T11:29:11Z</time>
      </trkpt>
      <trkpt lat="45.96419" lon="4.77394">
        <ele>222</ele>
        <time>2018-01-19T11:29:12Z</time>
      </trkpt>
      <trkpt lat="45.96412" lon="4.7739">
        <ele>220</ele>
        <time>2018-01-19T11:29:13Z</time>
      </trkpt>
      <trkpt lat="45.96406" lon="4.77387">
        <ele>220</ele>
        <time>2018-01-19T11:29:14Z</time>
      </trkpt>
      <trkpt lat="45.964" lon="4.77385">
        <ele>220</ele>
        <time>2018-01-19T11:29:15Z</time>
      </trkpt>
      <trkpt lat="45.96393" lon="4.77381">
        <ele>220</ele>
        <time>2018-01-19T11:29:16Z</time>
      </trkpt>
      <trkpt lat="45.96388" lon="4.77379">
        <ele>220</ele>
        <time>2018-01-19T11:29:17Z</time>
      </trkpt>
      <trkpt lat="45.96382" lon="4.77376">
        <ele>220</ele>
        <time>2018-01-19T11:29:18Z</time>
      </trkpt>
      <trkpt lat="45.96376" lon="4.77373">
        <ele>220</ele>
        <time>2018-01-19T11:29:19Z</time>
      </trkpt>
      <trkpt lat="45.9637" lon="4.7737">
        <ele>219</ele>
        <time>2018-01-19T11:29:20Z</time>
      </trkpt>
      <trkpt lat="45.96364" lon="4.77366">
        <ele>219</ele>
        <time>2018-01-19T11:29:21Z</time>
      </trkpt>
      <trkpt lat="45.96359" lon="4.77363">
        <ele>219</ele>
        <time>2018-01-19T11:29:22Z</time>
      </trkpt>
      <trkpt lat="45.96353" lon="4.77358">
        <ele>219</ele>
        <time>2018-01-19T11:29:23Z</time>
      </trkpt>
      <trkpt lat="45.96347" lon="4.77355">
        <ele>219</ele>
        <time>2018-01-19T11:29:24Z</time>
      </trkpt>
      <trkpt lat="45.96341" lon="4.7735">
        <ele>220</ele>
        <time>2018-01-19T11:29:25Z</time>
      </trkpt>
      <trkpt lat="45.96335" lon="4.77347">
        <ele>220</ele>
        <time>2018-01-19T11:29:26Z</time>
      </trkpt>
      <trkpt lat="45.9633" lon="4.77343">
        <ele>219</ele>
        <time>2018-01-19T11:29:27Z</time>
      </trkpt>
      <trkpt lat="45.96324" lon="4.7734">
        <ele>218</ele>
        <time>2018-01-19T11:29:28Z</time>
      </trkpt>
      <trkpt lat="45.96318" lon="4.77336">
        <ele>218</ele>
        <time>2018-01-19T11:29:29Z</time>
      </trkpt>
      <trkpt lat="45.96312" lon="4.77333">
        <ele>219</ele>
        <time>2018-01-19T11:29:30Z</time>
      </trkpt>
      <trkpt lat="45.96307" lon="4.7733">
        <ele>219</ele>
        <time>2018-01-19T11:29:31Z</time>
      </trkpt>
      <trkpt lat="45.96302" lon="4.77326">
        <ele>219</ele>
        <time>2018-01-19T11:29:32Z</time>
      </trkpt>
      <trkpt lat="45.96296" lon="4.77323">
        <ele>219</ele>
        <time>2018-01-19T11:29:33Z</time>
      </trkpt>
      <trkpt lat="45.9629" lon="4.7732">
        <ele>219</ele>
        <time>2018-01-19T11:29:34Z</time>
      </trkpt>
      <trkpt lat="45.96285" lon="4.77317">
        <ele>219</ele>
        <time>2018-01-19T11:29:35Z</time>
      </trkpt>
      <trkpt lat="45.9628" lon="4.77314">
        <ele>219</ele>
        <time>2018-01-19T11:29:36Z</time>
      </trkpt>
      <trkpt lat="45.96274" lon="4.77311">
        <ele>219</ele>
        <time>2018-01-19T11:29:37Z</time>
      </trkpt>
      <trkpt lat="45.96269" lon="4.77308">
        <ele>219</ele>
        <time>2018-01-19T11:29:38Z</time>
      </trkpt>
      <trkpt lat="45.96264" lon="4.77306">
        <ele>219</ele>
        <time>2018-01-19T11:29:39Z</time>
      </trkpt>
      <trkpt lat="45.96259" lon="4.77303">
        <ele>219</ele>
        <time>2018-01-19T11:29:40Z</time>
      </trkpt>
      <trkpt lat="45.96254" lon="4.77301">
        <ele>219</ele>
        <time>2018-01-19T11:29:41Z</time>
      </trkpt>
      <trkpt lat="45.96248" lon="4.77298">
        <ele>217</ele>
        <time>2018-01-19T11:29:42Z</time>
      </trkpt>
      <trkpt lat="45.96243" lon="4.77294">
        <ele>217</ele>
        <time>2018-01-19T11:29:43Z</time>
      </trkpt>
      <trkpt lat="45.96237" lon="4.7729">
        <ele>217</ele>
        <time>2018-01-19T11:29:44Z</time>
      </trkpt>
      <trkpt lat="45.96231" lon="4.77287">
        <ele>217</ele>
        <time>2018-01-19T11:29:45Z</time>
      </trkpt>
      <trkpt lat="45.96225" lon="4.77283">
        <ele>217</ele>
        <time>2018-01-19T11:29:46Z</time>
      </trkpt>
      <trkpt lat="45.9622" lon="4.7728">
        <ele>217</ele>
        <time>2018-01-19T11:29:47Z</time>
      </trkpt>
      <trkpt lat="45.96214" lon="4.77276">
        <ele>217</ele>
        <time>2018-01-19T11:29:48Z</time>
      </trkpt>
      <trkpt lat="45.96208" lon="4.77273">
        <ele>217</ele>
        <time>2018-01-19T11:29:49Z</time>
      </trkpt>
      <trkpt lat="45.96201" lon="4.77269">
        <ele>217</ele>
        <time>2018-01-19T11:29:50Z</time>
      </trkpt>
      <trkpt lat="45.96196" lon="4.77266">
        <ele>216</ele>
        <time>2018-01-19T11:29:51Z</time>
      </trkpt>
      <trkpt lat="45.9619" lon="4.77263">
        <ele>216</ele>
        <time>2018-01-19T11:29:52Z</time>
      </trkpt>
      <trkpt lat="45.96184" lon="4.7726">
        <ele>216</ele>
        <time>2018-01-19T11:29:53Z</time>
      </trkpt>
      <trkpt lat="45.96178" lon="4.77257">
        <ele>216</ele>
        <time>2018-01-19T11:29:54Z</time>
      </trkpt>
      <trkpt lat="45.96174" lon="4.77254">
        <ele>216</ele>
        <time>2018-01-19T11:29:55Z</time>
      </trkpt>
      <trkpt lat="45.96168" lon="4.77252">
        <ele>216</ele>
        <time>2018-01-19T11:29:56Z</time>
      </trkpt>
      <trkpt lat="45.96163" lon="4.77248">
        <ele>216</ele>
        <time>2018-01-19T11:29:57Z</time>
      </trkpt>
      <trkpt lat="45.96158" lon="4.77245">
        <ele>216</ele>
        <time>2018-01-19T11:29:58Z</time>
      </trkpt>
      <trkpt lat="45.96153" lon="4.77243">
        <ele>215</ele>
        <time>2018-01-19T11:29:59Z</time>
      </trkpt>
      <trkpt lat="45.96148" lon="4.7724">
        <ele>215</ele>
        <time>2018-01-19T11:30:00Z</time>
      </trkpt>
      <trkpt lat="45.96142" lon="4.77238">
        <ele>215</ele>
        <time>2018-01-19T11:30:01Z</time>
      </trkpt>
      <trkpt lat="45.96135" lon="4.77237">
        <ele>215</ele>
        <time>2018-01-19T11:30:02Z</time>
      </trkpt>
      <trkpt lat="45.9613" lon="4.77236">
        <ele>215</ele>
        <time>2018-01-19T11:30:03Z</time>
      </trkpt>
      <trkpt lat="45.96123" lon="4.77235">
        <ele>214</ele>
        <time>2018-01-19T11:30:04Z</time>
      </trkpt>
      <trkpt lat="45.96117" lon="4.77235">
        <ele>214</ele>
        <time>2018-01-19T11:30:05Z</time>
      </trkpt>
      <trkpt lat="45.96111" lon="4.77236">
        <ele>214</ele>
        <time>2018-01-19T11:30:06Z</time>
      </trkpt>
      <trkpt lat="45.96105" lon="4.77235">
        <ele>213</ele>
        <time>2018-01-19T11:30:07Z</time>
      </trkpt>
      <trkpt lat="45.96098" lon="4.77237">
        <ele>213</ele>
        <time>2018-01-19T11:30:08Z</time>
      </trkpt>
      <trkpt lat="45.96092" lon="4.77238">
        <ele>212</ele>
        <time>2018-01-19T11:30:09Z</time>
      </trkpt>
      <trkpt lat="45.96085" lon="4.77239">
        <ele>212</ele>
        <time>2018-01-19T11:30:10Z</time>
      </trkpt>
      <trkpt lat="45.96077" lon="4.7724">
        <ele>210</ele>
        <time>2018-01-19T11:30:11Z</time>
      </trkpt>
      <trkpt lat="45.96071" lon="4.7724">
        <ele>210</ele>
        <time>2018-01-19T11:30:12Z</time>
      </trkpt>
      <trkpt lat="45.96066" lon="4.77245">
        <ele>209</ele>
        <time>2018-01-19T11:30:13Z</time>
      </trkpt>
      <trkpt lat="45.9606" lon="4.77245">
        <ele>209</ele>
        <time>2018-01-19T11:30:14Z</time>
      </trkpt>
      <trkpt lat="45.96053" lon="4.77246">
        <ele>209</ele>
        <time>2018-01-19T11:30:15Z</time>
      </trkpt>
      <trkpt lat="45.96047" lon="4.77246">
        <ele>209</ele>
        <time>2018-01-19T11:30:16Z</time>
      </trkpt>
      <trkpt lat="45.96039" lon="4.77247">
        <ele>208</ele>
        <time>2018-01-19T11:30:17Z</time>
      </trkpt>
      <trkpt lat="45.96031" lon="4.77247">
        <ele>208</ele>
        <time>2018-01-19T11:30:18Z</time>
      </trkpt>
      <trkpt lat="45.96024" lon="4.77246">
        <ele>207</ele>
        <time>2018-01-19T11:30:19Z</time>
      </trkpt>
      <trkpt lat="45.96016" lon="4.77243">
        <ele>206</ele>
        <time>2018-01-19T11:30:20Z</time>
      </trkpt>
      <trkpt lat="45.9601" lon="4.77242">
        <ele>206</ele>
        <time>2018-01-19T11:30:21Z</time>
      </trkpt>
      <trkpt lat="45.96002" lon="4.7724">
        <ele>205</ele>
        <time>2018-01-19T11:30:22Z</time>
      </trkpt>
      <trkpt lat="45.95995" lon="4.77236">
        <ele>202</ele>
        <time>2018-01-19T11:30:23Z</time>
      </trkpt>
      <trkpt lat="45.95988" lon="4.77233">
        <ele>202</ele>
        <time>2018-01-19T11:30:24Z</time>
      </trkpt>
      <trkpt lat="45.9598" lon="4.7723">
        <ele>202</ele>
        <time>2018-01-19T11:30:25Z</time>
      </trkpt>
      <trkpt lat="45.95973" lon="4.77223">
        <ele>202</ele>
        <time>2018-01-19T11:30:26Z</time>
      </trkpt>
      <trkpt lat="45.95968" lon="4.77216">
        <ele>202</ele>
        <time>2018-01-19T11:30:27Z</time>
      </trkpt>
      <trkpt lat="45.95962" lon="4.77209">
        <ele>201</ele>
        <time>2018-01-19T11:30:28Z</time>
      </trkpt>
      <trkpt lat="45.95959" lon="4.772">
        <ele>201</ele>
        <time>2018-01-19T11:30:29Z</time>
      </trkpt>
      <trkpt lat="45.95955" lon="4.77191">
        <ele>201</ele>
        <time>2018-01-19T11:30:30Z</time>
      </trkpt>
      <trkpt lat="45.95952" lon="4.77181">
        <ele>201</ele>
        <time>2018-01-19T11:30:31Z</time>
      </trkpt>
      <trkpt lat="45.9595" lon="4.77171">
        <ele>201</ele>
        <time>2018-01-19T11:30:32Z</time>
      </trkpt>
      <trkpt lat="45.95947" lon="4.77161">
        <ele>201</ele>
        <time>2018-01-19T11:30:33Z</time>
      </trkpt>
      <trkpt lat="45.95945" lon="4.77151">
        <ele>201</ele>
        <time>2018-01-19T11:30:34Z</time>
      </trkpt>
      <trkpt lat="45.95947" lon="4.77141">
        <ele>202</ele>
        <time>2018-01-19T11:30:35Z</time>
      </trkpt>
      <trkpt lat="45.95947" lon="4.77129">
        <ele>202</ele>
        <time>2018-01-19T11:30:36Z</time>
      </trkpt>
      <trkpt lat="45.95947" lon="4.7712">
        <ele>202</ele>
        <time>2018-01-19T11:30:37Z</time>
      </trkpt>
      <trkpt lat="45.95946" lon="4.7711">
        <ele>202</ele>
        <time>2018-01-19T11:30:38Z</time>
      </trkpt>
      <trkpt lat="45.95947" lon="4.771">
        <ele>201</ele>
        <time>2018-01-19T11:30:39Z</time>
      </trkpt>
      <trkpt lat="45.95949" lon="4.7709">
        <ele>202</ele>
        <time>2018-01-19T11:30:40Z</time>
      </trkpt>
      <trkpt lat="45.95952" lon="4.7708">
        <ele>200</ele>
        <time>2018-01-19T11:30:41Z</time>
      </trkpt>
      <trkpt lat="45.95956" lon="4.77072">
        <ele>201</ele>
        <time>2018-01-19T11:30:42Z</time>
      </trkpt>
      <trkpt lat="45.95958" lon="4.77064">
        <ele>201</ele>
        <time>2018-01-19T11:30:43Z</time>
      </trkpt>
      <trkpt lat="45.95962" lon="4.77054">
        <ele>201</ele>
        <time>2018-01-19T11:30:44Z</time>
      </trkpt>
      <trkpt lat="45.95965" lon="4.77046">
        <ele>201</ele>
        <time>2018-01-19T11:30:45Z</time>
      </trkpt>
      <trkpt lat="45.95967" lon="4.77036">
        <ele>200</ele>
        <time>2018-01-19T11:30:46Z</time>
      </trkpt>
      <trkpt lat="45.95971" lon="4.77026">
        <ele>200</ele>
        <time>2018-01-19T11:30:47Z</time>
      </trkpt>
      <trkpt lat="45.95973" lon="4.77016">
        <ele>200</ele>
        <time>2018-01-19T11:30:48Z</time>
      </trkpt>
      <trkpt lat="45.95976" lon="4.77006">
        <ele>200</ele>
        <time>2018-01-19T11:30:49Z</time>
      </trkpt>
      <trkpt lat="45.95979" lon="4.76999">
        <ele>198</ele>
        <time>2018-01-19T11:30:50Z</time>
      </trkpt>
      <trkpt lat="45.95983" lon="4.76989">
        <ele>198</ele>
        <time>2018-01-19T11:30:51Z</time>
      </trkpt>
      <trkpt lat="45.95985" lon="4.76977">
        <ele>197</ele>
        <time>2018-01-19T11:30:52Z</time>
      </trkpt>
      <trkpt lat="45.95982" lon="4.7696">
        <ele>196</ele>
        <time>2018-01-19T11:30:53Z</time>
      </trkpt>
      <trkpt lat="45.95979" lon="4.76949">
        <ele>196</ele>
        <time>2018-01-19T11:30:54Z</time>
      </trkpt>
      <trkpt lat="45.95974" lon="4.76938">
        <ele>196</ele>
        <time>2018-01-19T11:30:55Z</time>
      </trkpt>
      <trkpt lat="45.95968" lon="4.76928">
        <ele>195</ele>
        <time>2018-01-19T11:30:56Z</time>
      </trkpt>
      <trkpt lat="45.95961" lon="4.76921">
        <ele>195</ele>
        <time>2018-01-19T11:30:57Z</time>
      </trkpt>
      <trkpt lat="45.95954" lon="4.76912">
        <ele>193</ele>
        <time>2018-01-19T11:30:58Z</time>
      </trkpt>
      <trkpt lat="45.95946" lon="4.76903">
        <ele>193</ele>
        <time>2018-01-19T11:30:59Z</time>
      </trkpt>
      <trkpt lat="45.95939" lon="4.76896">
        <ele>192</ele>
        <time>2018-01-19T11:31:00Z</time>
      </trkpt>
      <trkpt lat="45.95932" lon="4.76889">
        <ele>192</ele>
        <time>2018-01-19T11:31:01Z</time>
      </trkpt>
      <trkpt lat="45.95924" lon="4.76881">
        <ele>192</ele>
        <time>2018-01-19T11:31:02Z</time>
      </trkpt>
      <trkpt lat="45.95918" lon="4.76873">
        <ele>192</ele>
        <time>2018-01-19T11:31:03Z</time>
      </trkpt>
      <trkpt lat="45.95912" lon="4.76865">
        <ele>191</ele>
        <time>2018-01-19T11:31:04Z</time>
      </trkpt>
      <trkpt lat="45.95905" lon="4.76858">
        <ele>191</ele>
        <time>2018-01-19T11:31:05Z</time>
      </trkpt>
      <trkpt lat="45.95898" lon="4.7685">
        <ele>191</ele>
        <time>2018-01-19T11:31:06Z</time>
      </trkpt>
      <trkpt lat="45.95891" lon="4.76843">
        <ele>191</ele>
        <time>2018-01-19T11:31:07Z</time>
      </trkpt>
      <trkpt lat="45.95886" lon="4.76837">
        <ele>191</ele>
        <time>2018-01-19T11:31:08Z</time>
      </trkpt>
      <trkpt lat="45.95879" lon="4.76831">
        <ele>191</ele>
        <time>2018-01-19T11:31:09Z</time>
      </trkpt>
      <trkpt lat="45.95874" lon="4.76823">
        <ele>191</ele>
        <time>2018-01-19T11:31:10Z</time>
      </trkpt>
      <trkpt lat="45.95869" lon="4.76818">
        <ele>191</ele>
        <time>2018-01-19T11:31:11Z</time>
      </trkpt>
      <trkpt lat="45.95863" lon="4.76812">
        <ele>191</ele>
        <time>2018-01-19T11:31:12Z</time>
      </trkpt>
      <trkpt lat="45.95858" lon="4.76806">
        <ele>191</ele>
        <time>2018-01-19T11:31:13Z</time>
      </trkpt>
      <trkpt lat="45.95853" lon="4.768">
        <ele>191</ele>
        <time>2018-01-19T11:31:14Z</time>
      </trkpt>
      <trkpt lat="45.95848" lon="4.76794">
        <ele>191</ele>
        <time>2018-01-19T11:31:15Z</time>
      </trkpt>
      <trkpt lat="45.95844" lon="4.76788">
        <ele>191</ele>
        <time>2018-01-19T11:31:16Z</time>
      </trkpt>
      <trkpt lat="45.95841" lon="4.76782">
        <ele>191</ele>
        <time>2018-01-19T11:31:17Z</time>
      </trkpt>
      <trkpt lat="45.95838" lon="4.76775">
        <ele>191</ele>
        <time>2018-01-19T11:31:18Z</time>
      </trkpt>
      <trkpt lat="45.95836" lon="4.76768">
        <ele>191</ele>
        <time>2018-01-19T11:31:19Z</time>
      </trkpt>
      <trkpt lat="45.95834" lon="4.7676">
        <ele>191</ele>
        <time>2018-01-19T11:31:20Z</time>
      </trkpt>
      <trkpt lat="45.95833" lon="4.76753">
        <ele>191</ele>
        <time>2018-01-19T11:31:21Z</time>
      </trkpt>
      <trkpt lat="45.9583" lon="4.76743">
        <ele>190</ele>
        <time>2018-01-19T11:31:22Z</time>
      </trkpt>
      <trkpt lat="45.95827" lon="4.76736">
        <ele>190</ele>
        <time>2018-01-19T11:31:23Z</time>
      </trkpt>
      <trkpt lat="45.95826" lon="4.76728">
        <ele>190</ele>
        <time>2018-01-19T11:31:24Z</time>
      </trkpt>
      <trkpt lat="45.95826" lon="4.7672">
        <ele>189</ele>
        <time>2018-01-19T11:31:25Z</time>
      </trkpt>
      <trkpt lat="45.95826" lon="4.76713">
        <ele>189</ele>
        <time>2018-01-19T11:31:26Z</time>
      </trkpt>
      <trkpt lat="45.95826" lon="4.76706">
        <ele>189</ele>
        <time>2018-01-19T11:31:27Z</time>
      </trkpt>
      <trkpt lat="45.95826" lon="4.76698">
        <ele>189</ele>
        <time>2018-01-19T11:31:28Z</time>
      </trkpt>
      <trkpt lat="45.95824" lon="4.76691">
        <ele>189</ele>
        <time>2018-01-19T11:31:29Z</time>
      </trkpt>
      <trkpt lat="45.95822" lon="4.76685">
        <ele>189</ele>
        <time>2018-01-19T11:31:30Z</time>
      </trkpt>
      <trkpt lat="45.95821" lon="4.76678">
        <ele>189</ele>
        <time>2018-01-19T11:31:31Z</time>
      </trkpt>
      <trkpt lat="45.9582" lon="4.76671">
        <ele>188</ele>
        <time>2018-01-19T11:31:32Z</time>
      </trkpt>
      <trkpt lat="45.95818" lon="4.76663">
        <ele>188</ele>
        <time>2018-01-19T11:31:33Z</time>
      </trkpt>
      <trkpt lat="45.95817" lon="4.76655">
        <ele>188</ele>
        <time>2018-01-19T11:31:34Z</time>
      </trkpt>
      <trkpt lat="45.95819" lon="4.76646">
        <ele>188</ele>
        <time>2018-01-19T11:31:35Z</time>
      </trkpt>
      <trkpt lat="45.95818" lon="4.76638">
        <ele>188</ele>
        <time>2018-01-19T11:31:36Z</time>
      </trkpt>
      <trkpt lat="45.95817" lon="4.76629">
        <ele>188</ele>
        <time>2018-01-19T11:31:37Z</time>
      </trkpt>
      <trkpt lat="45.95815" lon="4.7662">
        <ele>188</ele>
        <time>2018-01-19T11:31:38Z</time>
      </trkpt>
      <trkpt lat="45.95814" lon="4.76611">
        <ele>188</ele>
        <time>2018-01-19T11:31:39Z</time>
      </trkpt>
      <trkpt lat="45.95811" lon="4.76603">
        <ele>188</ele>
        <time>2018-01-19T11:31:40Z</time>
      </trkpt>
      <trkpt lat="45.9581" lon="4.76594">
        <ele>188</ele>
        <time>2018-01-19T11:31:41Z</time>
      </trkpt>
      <trkpt lat="45.95808" lon="4.76587">
        <ele>188</ele>
        <time>2018-01-19T11:31:42Z</time>
      </trkpt>
      <trkpt lat="45.95807" lon="4.76579">
        <ele>187</ele>
        <time>2018-01-19T11:31:43Z</time>
      </trkpt>
      <trkpt lat="45.95806" lon="4.76571">
        <ele>187</ele>
        <time>2018-01-19T11:31:44Z</time>
      </trkpt>
      <trkpt lat="45.95805" lon="4.76563">
        <ele>187</ele>
        <time>2018-01-19T11:31:45Z</time>
      </trkpt>
      <trkpt lat="45.95805" lon="4.76555">
        <ele>187</ele>
        <time>2018-01-19T11:31:46Z</time>
      </trkpt>
      <trkpt lat="45.95804" lon="4.76547">
        <ele>187</ele>
        <time>2018-01-19T11:31:47Z</time>
      </trkpt>
      <trkpt lat="45.95802" lon="4.76539">
        <ele>187</ele>
        <time>2018-01-19T11:31:48Z</time>
      </trkpt>
      <trkpt lat="45.958" lon="4.76531">
        <ele>187</ele>
        <time>2018-01-19T11:31:49Z</time>
      </trkpt>
      <trkpt lat="45.95799" lon="4.76524">
        <ele>187</ele>
        <time>2018-01-19T11:31:50Z</time>
      </trkpt>
      <trkpt lat="45.95797" lon="4.76517">
        <ele>187</ele>
        <time>2018-01-19T11:31:51Z</time>
      </trkpt>
      <trkpt lat="45.95797" lon="4.76509">
        <ele>187</ele>
        <time>2018-01-19T11:31:52Z</time>
      </trkpt>
      <trkpt lat="45.95795" lon="4.76502">
        <ele>187</ele>
        <time>2018-01-19T11:31:53Z</time>
      </trkpt>
      <trkpt lat="45.95794" lon="4.76494">
        <ele>187</ele>
        <time>2018-01-19T11:31:54Z</time>
      </trkpt>
      <trkpt lat="45.95794" lon="4.76487">
        <ele>187</ele>
        <time>2018-01-19T11:31:55Z</time>
      </trkpt>
      <trkpt lat="45.95792" lon="4.76479">
        <ele>187</ele>
        <time>2018-01-19T11:31:56Z</time>
      </trkpt>
      <trkpt lat="45.95791" lon="4.76471">
        <ele>186</ele>
        <time>2018-01-19T11:31:57Z</time>
      </trkpt>
      <trkpt lat="45.95788" lon="4.76464">
        <ele>186</ele>
        <time>2018-01-19T11:31:58Z</time>
      </trkpt>
      <trkpt lat="45.95787" lon="4.76457">
        <ele>186</ele>
        <time>2018-01-19T11:31:59Z</time>
      </trkpt>
      <trkpt lat="45.95785" lon="4.7645">
        <ele>186</ele>
        <time>2018-01-19T11:32:00Z</time>
      </trkpt>
      <trkpt lat="45.95784" lon="4.76438">
        <ele>186</ele>
        <time>2018-01-19T11:32:02Z</time>
      </trkpt>
      <trkpt lat="45.95782" lon="4.76431">
        <ele>186</ele>
        <time>2018-01-19T11:32:03Z</time>
      </trkpt>
      <trkpt lat="45.95781" lon="4.76424">
        <ele>186</ele>
        <time>2018-01-19T11:32:04Z</time>
      </trkpt>
      <trkpt lat="45.9578" lon="4.76416">
        <ele>186</ele>
        <time>2018-01-19T11:32:05Z</time>
      </trkpt>
      <trkpt lat="45.95779" lon="4.76409">
        <ele>186</ele>
        <time>2018-01-19T11:32:06Z</time>
      </trkpt>
      <trkpt lat="45.95779" lon="4.76401">
        <ele>186</ele>
        <time>2018-01-19T11:32:07Z</time>
      </trkpt>
      <trkpt lat="45.95778" lon="4.76391">
        <ele>186</ele>
        <time>2018-01-19T11:32:08Z</time>
      </trkpt>
      <trkpt lat="45.95777" lon="4.76383">
        <ele>186</ele>
        <time>2018-01-19T11:32:09Z</time>
      </trkpt>
      <trkpt lat="45.95776" lon="4.76375">
        <ele>186</ele>
        <time>2018-01-19T11:32:10Z</time>
      </trkpt>
      <trkpt lat="45.95775" lon="4.76366">
        <ele>186</ele>
        <time>2018-01-19T11:32:11Z</time>
      </trkpt>
      <trkpt lat="45.95775" lon="4.76358">
        <ele>186</ele>
        <time>2018-01-19T11:32:12Z</time>
      </trkpt>
      <trkpt lat="45.95775" lon="4.76351">
        <ele>186</ele>
        <time>2018-01-19T11:32:13Z</time>
      </trkpt>
      <trkpt lat="45.95773" lon="4.76343">
        <ele>186</ele>
        <time>2018-01-19T11:32:14Z</time>
      </trkpt>
      <trkpt lat="45.95772" lon="4.76335">
        <ele>186</ele>
        <time>2018-01-19T11:32:15Z</time>
      </trkpt>
      <trkpt lat="45.95772" lon="4.76328">
        <ele>185</ele>
        <time>2018-01-19T11:32:16Z</time>
      </trkpt>
      <trkpt lat="45.95771" lon="4.76319">
        <ele>185</ele>
        <time>2018-01-19T11:32:17Z</time>
      </trkpt>
      <trkpt lat="45.95771" lon="4.7631">
        <ele>186</ele>
        <time>2018-01-19T11:32:18Z</time>
      </trkpt>
      <trkpt lat="45.9577" lon="4.76302">
        <ele>186</ele>
        <time>2018-01-19T11:32:19Z</time>
      </trkpt>
      <trkpt lat="45.9577" lon="4.76295">
        <ele>186</ele>
        <time>2018-01-19T11:32:20Z</time>
      </trkpt>
      <trkpt lat="45.95769" lon="4.76288">
        <ele>186</ele>
        <time>2018-01-19T11:32:21Z</time>
      </trkpt>
      <trkpt lat="45.95769" lon="4.76281">
        <ele>186</ele>
        <time>2018-01-19T11:32:22Z</time>
      </trkpt>
      <trkpt lat="45.95768" lon="4.76274">
        <ele>186</ele>
        <time>2018-01-19T11:32:23Z</time>
      </trkpt>
      <trkpt lat="45.95767" lon="4.76267">
        <ele>185</ele>
        <time>2018-01-19T11:32:24Z</time>
      </trkpt>
      <trkpt lat="45.95768" lon="4.7626">
        <ele>185</ele>
        <time>2018-01-19T11:32:25Z</time>
      </trkpt>
      <trkpt lat="45.95768" lon="4.76253">
        <ele>185</ele>
        <time>2018-01-19T11:32:26Z</time>
      </trkpt>
      <trkpt lat="45.95767" lon="4.76245">
        <ele>186</ele>
        <time>2018-01-19T11:32:27Z</time>
      </trkpt>
      <trkpt lat="45.95766" lon="4.76236">
        <ele>186</ele>
        <time>2018-01-19T11:32:28Z</time>
      </trkpt>
      <trkpt lat="45.95766" lon="4.76228">
        <ele>186</ele>
        <time>2018-01-19T11:32:29Z</time>
      </trkpt>
      <trkpt lat="45.95765" lon="4.7622">
        <ele>186</ele>
        <time>2018-01-19T11:32:30Z</time>
      </trkpt>
      <trkpt lat="45.95765" lon="4.76212">
        <ele>186</ele>
        <time>2018-01-19T11:32:31Z</time>
      </trkpt>
      <trkpt lat="45.95764" lon="4.76204">
        <ele>186</ele>
        <time>2018-01-19T11:32:32Z</time>
      </trkpt>
      <trkpt lat="45.95764" lon="4.76194">
        <ele>186</ele>
        <time>2018-01-19T11:32:33Z</time>
      </trkpt>
      <trkpt lat="45.95763" lon="4.76184">
        <ele>186</ele>
        <time>2018-01-19T11:32:34Z</time>
      </trkpt>
      <trkpt lat="45.95763" lon="4.76175">
        <ele>185</ele>
        <time>2018-01-19T11:32:35Z</time>
      </trkpt>
      <trkpt lat="45.95762" lon="4.76167">
        <ele>185</ele>
        <time>2018-01-19T11:32:36Z</time>
      </trkpt>
      <trkpt lat="45.95761" lon="4.76157">
        <ele>186</ele>
        <time>2018-01-19T11:32:37Z</time>
      </trkpt>
      <trkpt lat="45.9576" lon="4.76149">
        <ele>186</ele>
        <time>2018-01-19T11:32:38Z</time>
      </trkpt>
      <trkpt lat="45.95759" lon="4.76141">
        <ele>186</ele>
        <time>2018-01-19T11:32:39Z</time>
      </trkpt>
      <trkpt lat="45.95759" lon="4.76133">
        <ele>186</ele>
        <time>2018-01-19T11:32:40Z</time>
      </trkpt>
      <trkpt lat="45.95758" lon="4.76125">
        <ele>186</ele>
        <time>2018-01-19T11:32:41Z</time>
      </trkpt>
      <trkpt lat="45.95757" lon="4.76117">
        <ele>186</ele>
        <time>2018-01-19T11:32:42Z</time>
      </trkpt>
      <trkpt lat="45.95756" lon="4.76107">
        <ele>186</ele>
        <time>2018-01-19T11:32:43Z</time>
      </trkpt>
      <trkpt lat="45.95755" lon="4.76099">
        <ele>186</ele>
        <time>2018-01-19T11:32:44Z</time>
      </trkpt>
      <trkpt lat="45.95753" lon="4.76091">
        <ele>185</ele>
        <time>2018-01-19T11:32:45Z</time>
      </trkpt>
      <trkpt lat="45.9575" lon="4.76082">
        <ele>185</ele>
        <time>2018-01-19T11:32:46Z</time>
      </trkpt>
      <trkpt lat="45.95748" lon="4.76075">
        <ele>185</ele>
        <time>2018-01-19T11:32:47Z</time>
      </trkpt>
      <trkpt lat="45.95745" lon="4.76066">
        <ele>185</ele>
        <time>2018-01-19T11:32:48Z</time>
      </trkpt>
      <trkpt lat="45.95741" lon="4.76058">
        <ele>184</ele>
        <time>2018-01-19T11:32:49Z</time>
      </trkpt>
      <trkpt lat="45.95739" lon="4.76051">
        <ele>184</ele>
        <time>2018-01-19T11:32:50Z</time>
      </trkpt>
      <trkpt lat="45.95736" lon="4.76045">
        <ele>184</ele>
        <time>2018-01-19T11:32:51Z</time>
      </trkpt>
      <trkpt lat="45.95733" lon="4.76038">
        <ele>184</ele>
        <time>2018-01-19T11:32:52Z</time>
      </trkpt>
      <trkpt lat="45.9573" lon="4.76033">
        <ele>184</ele>
        <time>2018-01-19T11:32:53Z</time>
      </trkpt>
      <trkpt lat="45.95727" lon="4.76026">
        <ele>184</ele>
        <time>2018-01-19T11:32:54Z</time>
      </trkpt>
      <trkpt lat="45.95724" lon="4.76019">
        <ele>184</ele>
        <time>2018-01-19T11:32:55Z</time>
      </trkpt>
      <trkpt lat="45.95721" lon="4.76013">
        <ele>184</ele>
        <time>2018-01-19T11:32:56Z</time>
      </trkpt>
      <trkpt lat="45.95719" lon="4.76008">
        <ele>184</ele>
        <time>2018-01-19T11:32:57Z</time>
      </trkpt>
      <trkpt lat="45.95716" lon="4.76001">
        <ele>184</ele>
        <time>2018-01-19T11:32:58Z</time>
      </trkpt>
      <trkpt lat="45.95714" lon="4.75995">
        <ele>185</ele>
        <time>2018-01-19T11:32:59Z</time>
      </trkpt>
      <trkpt lat="45.9571" lon="4.75989">
        <ele>185</ele>
        <time>2018-01-19T11:33:00Z</time>
      </trkpt>
      <trkpt lat="45.95706" lon="4.75983">
        <ele>185</ele>
        <time>2018-01-19T11:33:01Z</time>
      </trkpt>
      <trkpt lat="45.95704" lon="4.75977">
        <ele>185</ele>
        <time>2018-01-19T11:33:02Z</time>
      </trkpt>
      <trkpt lat="45.95701" lon="4.75971">
        <ele>185</ele>
        <time>2018-01-19T11:33:03Z</time>
      </trkpt>
      <trkpt lat="45.95698" lon="4.75965">
        <ele>185</ele>
        <time>2018-01-19T11:33:04Z</time>
      </trkpt>
      <trkpt lat="45.95695" lon="4.75959">
        <ele>185</ele>
        <time>2018-01-19T11:33:05Z</time>
      </trkpt>
      <trkpt lat="45.95693" lon="4.75953">
        <ele>185</ele>
        <time>2018-01-19T11:33:06Z</time>
      </trkpt>
      <trkpt lat="45.9569" lon="4.75946">
        <ele>185</ele>
        <time>2018-01-19T11:33:07Z</time>
      </trkpt>
      <trkpt lat="45.95688" lon="4.7594">
        <ele>185</ele>
        <time>2018-01-19T11:33:08Z</time>
      </trkpt>
      <trkpt lat="45.95685" lon="4.75933">
        <ele>185</ele>
        <time>2018-01-19T11:33:09Z</time>
      </trkpt>
      <trkpt lat="45.95683" lon="4.75927">
        <ele>185</ele>
        <time>2018-01-19T11:33:10Z</time>
      </trkpt>
      <trkpt lat="45.95681" lon="4.75921">
        <ele>185</ele>
        <time>2018-01-19T11:33:11Z</time>
      </trkpt>
      <trkpt lat="45.95678" lon="4.75916">
        <ele>185</ele>
        <time>2018-01-19T11:33:12Z</time>
      </trkpt>
      <trkpt lat="45.95675" lon="4.7591">
        <ele>185</ele>
        <time>2018-01-19T11:33:13Z</time>
      </trkpt>
      <trkpt lat="45.95673" lon="4.75903">
        <ele>185</ele>
        <time>2018-01-19T11:33:14Z</time>
      </trkpt>
      <trkpt lat="45.95671" lon="4.75896">
        <ele>186</ele>
        <time>2018-01-19T11:33:15Z</time>
      </trkpt>
      <trkpt lat="45.95669" lon="4.75889">
        <ele>186</ele>
        <time>2018-01-19T11:33:16Z</time>
      </trkpt>
      <trkpt lat="45.95667" lon="4.75883">
        <ele>184</ele>
        <time>2018-01-19T11:33:17Z</time>
      </trkpt>
      <trkpt lat="45.95664" lon="4.75876">
        <ele>184</ele>
        <time>2018-01-19T11:33:18Z</time>
      </trkpt>
      <trkpt lat="45.95662" lon="4.75869">
        <ele>184</ele>
        <time>2018-01-19T11:33:19Z</time>
      </trkpt>
      <trkpt lat="45.9566" lon="4.75862">
        <ele>184</ele>
        <time>2018-01-19T11:33:20Z</time>
      </trkpt>
      <trkpt lat="45.95658" lon="4.75855">
        <ele>184</ele>
        <time>2018-01-19T11:33:21Z</time>
      </trkpt>
      <trkpt lat="45.95656" lon="4.75848">
        <ele>185</ele>
        <time>2018-01-19T11:33:22Z</time>
      </trkpt>
      <trkpt lat="45.95655" lon="4.75841">
        <ele>185</ele>
        <time>2018-01-19T11:33:23Z</time>
      </trkpt>
      <trkpt lat="45.95653" lon="4.75834">
        <ele>185</ele>
        <time>2018-01-19T11:33:24Z</time>
      </trkpt>
      <trkpt lat="45.95652" lon="4.75827">
        <ele>185</ele>
        <time>2018-01-19T11:33:25Z</time>
      </trkpt>
      <trkpt lat="45.9565" lon="4.7582">
        <ele>185</ele>
        <time>2018-01-19T11:33:26Z</time>
      </trkpt>
      <trkpt lat="45.95649" lon="4.75813">
        <ele>185</ele>
        <time>2018-01-19T11:33:27Z</time>
      </trkpt>
      <trkpt lat="45.95647" lon="4.75806">
        <ele>185</ele>
        <time>2018-01-19T11:33:28Z</time>
      </trkpt>
      <trkpt lat="45.95645" lon="4.75799">
        <ele>185</ele>
        <time>2018-01-19T11:33:29Z</time>
      </trkpt>
      <trkpt lat="45.95644" lon="4.75792">
        <ele>185</ele>
        <time>2018-01-19T11:33:30Z</time>
      </trkpt>
      <trkpt lat="45.95642" lon="4.75785">
        <ele>185</ele>
        <time>2018-01-19T11:33:31Z</time>
      </trkpt>
      <trkpt lat="45.95642" lon="4.75777">
        <ele>186</ele>
        <time>2018-01-19T11:33:32Z</time>
      </trkpt>
      <trkpt lat="45.95642" lon="4.75771">
        <ele>186</ele>
        <time>2018-01-19T11:33:33Z</time>
      </trkpt>
      <trkpt lat="45.95641" lon="4.75759">
        <ele>186</ele>
        <time>2018-01-19T11:33:35Z</time>
      </trkpt>
      <trkpt lat="45.95639" lon="4.75753">
        <ele>186</ele>
        <time>2018-01-19T11:33:36Z</time>
      </trkpt>
      <trkpt lat="45.95637" lon="4.75741">
        <ele>187</ele>
        <time>2018-01-19T11:33:38Z</time>
      </trkpt>
      <trkpt lat="45.95636" lon="4.75734">
        <ele>187</ele>
        <time>2018-01-19T11:33:39Z</time>
      </trkpt>
      <trkpt lat="45.95633" lon="4.75727">
        <ele>187</ele>
        <time>2018-01-19T11:33:40Z</time>
      </trkpt>
      <trkpt lat="45.95632" lon="4.7572">
        <ele>187</ele>
        <time>2018-01-19T11:33:41Z</time>
      </trkpt>
      <trkpt lat="45.95631" lon="4.75713">
        <ele>187</ele>
        <time>2018-01-19T11:33:42Z</time>
      </trkpt>
      <trkpt lat="45.9563" lon="4.75706">
        <ele>187</ele>
        <time>2018-01-19T11:33:43Z</time>
      </trkpt>
      <trkpt lat="45.95629" lon="4.75697">
        <ele>187</ele>
        <time>2018-01-19T11:33:44Z</time>
      </trkpt>
      <trkpt lat="45.95628" lon="4.75691">
        <ele>187</ele>
        <time>2018-01-19T11:33:45Z</time>
      </trkpt>
      <trkpt lat="45.95626" lon="4.75684">
        <ele>187</ele>
        <time>2018-01-19T11:33:46Z</time>
      </trkpt>
      <trkpt lat="45.95626" lon="4.75676">
        <ele>187</ele>
        <time>2018-01-19T11:33:47Z</time>
      </trkpt>
      <trkpt lat="45.95625" lon="4.75668">
        <ele>187</ele>
        <time>2018-01-19T11:33:48Z</time>
      </trkpt>
      <trkpt lat="45.95624" lon="4.75661">
        <ele>188</ele>
        <time>2018-01-19T11:33:49Z</time>
      </trkpt>
      <trkpt lat="45.95622" lon="4.75654">
        <ele>188</ele>
        <time>2018-01-19T11:33:50Z</time>
      </trkpt>
      <trkpt lat="45.95621" lon="4.75647">
        <ele>188</ele>
        <time>2018-01-19T11:33:51Z</time>
      </trkpt>
      <trkpt lat="45.95618" lon="4.7564">
        <ele>188</ele>
        <time>2018-01-19T11:33:52Z</time>
      </trkpt>
      <trkpt lat="45.95616" lon="4.75634">
        <ele>188</ele>
        <time>2018-01-19T11:33:53Z</time>
      </trkpt>
      <trkpt lat="45.95614" lon="4.75627">
        <ele>188</ele>
        <time>2018-01-19T11:33:54Z</time>
      </trkpt>
      <trkpt lat="45.95613" lon="4.75621">
        <ele>188</ele>
        <time>2018-01-19T11:33:55Z</time>
      </trkpt>
      <trkpt lat="45.95611" lon="4.75615">
        <ele>188</ele>
        <time>2018-01-19T11:33:56Z</time>
      </trkpt>
      <trkpt lat="45.9561" lon="4.75607">
        <ele>188</ele>
        <time>2018-01-19T11:33:57Z</time>
      </trkpt>
      <trkpt lat="45.95605" lon="4.75596">
        <ele>187</ele>
        <time>2018-01-19T11:33:59Z</time>
      </trkpt>
      <trkpt lat="45.95603" lon="4.75591">
        <ele>187</ele>
        <time>2018-01-19T11:34:00Z</time>
      </trkpt>
      <trkpt lat="45.956" lon="4.75585">
        <ele>187</ele>
        <time>2018-01-19T11:34:01Z</time>
      </trkpt>
      <trkpt lat="45.95598" lon="4.75579">
        <ele>188</ele>
        <time>2018-01-19T11:34:02Z</time>
      </trkpt>
      <trkpt lat="45.95595" lon="4.75574">
        <ele>188</ele>
        <time>2018-01-19T11:34:03Z</time>
      </trkpt>
      <trkpt lat="45.95592" lon="4.75568">
        <ele>188</ele>
        <time>2018-01-19T11:34:04Z</time>
      </trkpt>
      <trkpt lat="45.95588" lon="4.75559">
        <ele>188</ele>
        <time>2018-01-19T11:34:06Z</time>
      </trkpt>
      <trkpt lat="45.95585" lon="4.75554">
        <ele>188</ele>
        <time>2018-01-19T11:34:07Z</time>
      </trkpt>
      <trkpt lat="45.9558" lon="4.75549">
        <ele>186</ele>
        <time>2018-01-19T11:34:08Z</time>
      </trkpt>
      <trkpt lat="45.95576" lon="4.75543">
        <ele>186</ele>
        <time>2018-01-19T11:34:09Z</time>
      </trkpt>
      <trkpt lat="45.95572" lon="4.75539">
        <ele>186</ele>
        <time>2018-01-19T11:34:10Z</time>
      </trkpt>
      <trkpt lat="45.95565" lon="4.75533">
        <ele>186</ele>
        <time>2018-01-19T11:34:11Z</time>
      </trkpt>
      <trkpt lat="45.95561" lon="4.75527">
        <ele>186</ele>
        <time>2018-01-19T11:34:12Z</time>
      </trkpt>
      <trkpt lat="45.95557" lon="4.75522">
        <ele>186</ele>
        <time>2018-01-19T11:34:13Z</time>
      </trkpt>
      <trkpt lat="45.95552" lon="4.75516">
        <ele>186</ele>
        <time>2018-01-19T11:34:14Z</time>
      </trkpt>
      <trkpt lat="45.95547" lon="4.7551">
        <ele>186</ele>
        <time>2018-01-19T11:34:15Z</time>
      </trkpt>
      <trkpt lat="45.95544" lon="4.75504">
        <ele>186</ele>
        <time>2018-01-19T11:34:16Z</time>
      </trkpt>
      <trkpt lat="45.95541" lon="4.75498">
        <ele>187</ele>
        <time>2018-01-19T11:34:17Z</time>
      </trkpt>
      <trkpt lat="45.9554" lon="4.75491">
        <ele>187</ele>
        <time>2018-01-19T11:34:18Z</time>
      </trkpt>
      <trkpt lat="45.95539" lon="4.75484">
        <ele>187</ele>
        <time>2018-01-19T11:34:19Z</time>
      </trkpt>
      <trkpt lat="45.9554" lon="4.75477">
        <ele>187</ele>
        <time>2018-01-19T11:34:20Z</time>
      </trkpt>
      <trkpt lat="45.95538" lon="4.75471">
        <ele>187</ele>
        <time>2018-01-19T11:34:21Z</time>
      </trkpt>
      <trkpt lat="45.95537" lon="4.75465">
        <ele>187</ele>
        <time>2018-01-19T11:34:22Z</time>
      </trkpt>
      <trkpt lat="45.95535" lon="4.75458">
        <ele>187</ele>
        <time>2018-01-19T11:34:23Z</time>
      </trkpt>
      <trkpt lat="45.95531" lon="4.75452">
        <ele>187</ele>
        <time>2018-01-19T11:34:24Z</time>
      </trkpt>
      <trkpt lat="45.95528" lon="4.75448">
        <ele>187</ele>
        <time>2018-01-19T11:34:25Z</time>
      </trkpt>
      <trkpt lat="45.95524" lon="4.75443">
        <ele>187</ele>
        <time>2018-01-19T11:34:26Z</time>
      </trkpt>
      <trkpt lat="45.95518" lon="4.75439">
        <ele>187</ele>
        <time>2018-01-19T11:34:27Z</time>
      </trkpt>
      <trkpt lat="45.95514" lon="4.75432">
        <ele>186</ele>
        <time>2018-01-19T11:34:28Z</time>
      </trkpt>
      <trkpt lat="45.95512" lon="4.75424">
        <ele>186</ele>
        <time>2018-01-19T11:34:29Z</time>
      </trkpt>
      <trkpt lat="45.95511" lon="4.75416">
        <ele>187</ele>
        <time>2018-01-19T11:34:30Z</time>
      </trkpt>
      <trkpt lat="45.95508" lon="4.7541">
        <ele>187</ele>
        <time>2018-01-19T11:34:31Z</time>
      </trkpt>
      <trkpt lat="45.95506" lon="4.75404">
        <ele>187</ele>
        <time>2018-01-19T11:34:32Z</time>
      </trkpt>
      <trkpt lat="45.95503" lon="4.75399">
        <ele>187</ele>
        <time>2018-01-19T11:34:33Z</time>
      </trkpt>
      <trkpt lat="45.95502" lon="4.75392">
        <ele>188</ele>
        <time>2018-01-19T11:34:34Z</time>
      </trkpt>
      <trkpt lat="45.95499" lon="4.75386">
        <ele>185</ele>
        <time>2018-01-19T11:34:35Z</time>
      </trkpt>
      <trkpt lat="45.95496" lon="4.75379">
        <ele>185</ele>
        <time>2018-01-19T11:34:36Z</time>
      </trkpt>
      <trkpt lat="45.95494" lon="4.75373">
        <ele>185</ele>
        <time>2018-01-19T11:34:37Z</time>
      </trkpt>
      <trkpt lat="45.95491" lon="4.75367">
        <ele>186</ele>
        <time>2018-01-19T11:34:38Z</time>
      </trkpt>
      <trkpt lat="45.95489" lon="4.75362">
        <ele>186</ele>
        <time>2018-01-19T11:34:39Z</time>
      </trkpt>
      <trkpt lat="45.95485" lon="4.75356">
        <ele>186</ele>
        <time>2018-01-19T11:34:40Z</time>
      </trkpt>
      <trkpt lat="45.95483" lon="4.7535">
        <ele>186</ele>
        <time>2018-01-19T11:34:41Z</time>
      </trkpt>
      <trkpt lat="45.9548" lon="4.75343">
        <ele>186</ele>
        <time>2018-01-19T11:34:42Z</time>
      </trkpt>
      <trkpt lat="45.95479" lon="4.75338">
        <ele>186</ele>
        <time>2018-01-19T11:34:43Z</time>
      </trkpt>
      <trkpt lat="45.95476" lon="4.75333">
        <ele>188</ele>
        <time>2018-01-19T11:34:44Z</time>
      </trkpt>
      <trkpt lat="45.95473" lon="4.75328">
        <ele>188</ele>
        <time>2018-01-19T11:34:45Z</time>
      </trkpt>
      <trkpt lat="45.9547" lon="4.75322">
        <ele>188</ele>
        <time>2018-01-19T11:34:46Z</time>
      </trkpt>
      <trkpt lat="45.95466" lon="4.75319">
        <ele>188</ele>
        <time>2018-01-19T11:34:47Z</time>
      </trkpt>
      <trkpt lat="45.95462" lon="4.75308">
        <ele>188</ele>
        <time>2018-01-19T11:34:49Z</time>
      </trkpt>
      <trkpt lat="45.95457" lon="4.75301">
        <ele>188</ele>
        <time>2018-01-19T11:34:50Z</time>
      </trkpt>
      <trkpt lat="45.95454" lon="4.75295">
        <ele>188</ele>
        <time>2018-01-19T11:34:51Z</time>
      </trkpt>
      <trkpt lat="45.95451" lon="4.75288">
        <ele>188</ele>
        <time>2018-01-19T11:34:52Z</time>
      </trkpt>
      <trkpt lat="45.95449" lon="4.75284">
        <ele>188</ele>
        <time>2018-01-19T11:34:53Z</time>
      </trkpt>
      <trkpt lat="45.95447" lon="4.75276">
        <ele>189</ele>
        <time>2018-01-19T11:34:54Z</time>
      </trkpt>
      <trkpt lat="45.95444" lon="4.75271">
        <ele>189</ele>
        <time>2018-01-19T11:34:55Z</time>
      </trkpt>
      <trkpt lat="45.9544" lon="4.75266">
        <ele>189</ele>
        <time>2018-01-19T11:34:56Z</time>
      </trkpt>
      <trkpt lat="45.95436" lon="4.7526">
        <ele>189</ele>
        <time>2018-01-19T11:34:57Z</time>
      </trkpt>
      <trkpt lat="45.95434" lon="4.75255">
        <ele>189</ele>
        <time>2018-01-19T11:34:58Z</time>
      </trkpt>
      <trkpt lat="45.9543" lon="4.75245">
        <ele>190</ele>
        <time>2018-01-19T11:35:00Z</time>
      </trkpt>
      <trkpt lat="45.95425" lon="4.75238">
        <ele>190</ele>
        <time>2018-01-19T11:35:01Z</time>
      </trkpt>
      <trkpt lat="45.9542" lon="4.75232">
        <ele>190</ele>
        <time>2018-01-19T11:35:02Z</time>
      </trkpt>
      <trkpt lat="45.95417" lon="4.75226">
        <ele>191</ele>
        <time>2018-01-19T11:35:03Z</time>
      </trkpt>
      <trkpt lat="45.95414" lon="4.7522">
        <ele>189</ele>
        <time>2018-01-19T11:35:04Z</time>
      </trkpt>
      <trkpt lat="45.9541" lon="4.75214">
        <ele>189</ele>
        <time>2018-01-19T11:35:05Z</time>
      </trkpt>
      <trkpt lat="45.95407" lon="4.75208">
        <ele>189</ele>
        <time>2018-01-19T11:35:06Z</time>
      </trkpt>
      <trkpt lat="45.95404" lon="4.75201">
        <ele>189</ele>
        <time>2018-01-19T11:35:07Z</time>
      </trkpt>
      <trkpt lat="45.95399" lon="4.75192">
        <ele>189</ele>
        <time>2018-01-19T11:35:09Z</time>
      </trkpt>
      <trkpt lat="45.95396" lon="4.75187">
        <ele>189</ele>
        <time>2018-01-19T11:35:10Z</time>
      </trkpt>
      <trkpt lat="45.95393" lon="4.75177">
        <ele>189</ele>
        <time>2018-01-19T11:35:12Z</time>
      </trkpt>
      <trkpt lat="45.9539" lon="4.75172">
        <ele>189</ele>
        <time>2018-01-19T11:35:13Z</time>
      </trkpt>
      <trkpt lat="45.95385" lon="4.75164">
        <ele>191</ele>
        <time>2018-01-19T11:35:15Z</time>
      </trkpt>
      <trkpt lat="45.95383" lon="4.7516">
        <ele>191</ele>
        <time>2018-01-19T11:35:16Z</time>
      </trkpt>
      <trkpt lat="45.95382" lon="4.75156">
        <ele>191</ele>
        <time>2018-01-19T11:35:17Z</time>
      </trkpt>
      <trkpt lat="45.95376" lon="4.7515">
        <ele>191</ele>
        <time>2018-01-19T11:35:18Z</time>
      </trkpt>
      <trkpt lat="45.9537" lon="4.7514">
        <ele>191</ele>
        <time>2018-01-19T11:35:20Z</time>
      </trkpt>
      <trkpt lat="45.95367" lon="4.75135">
        <ele>191</ele>
        <time>2018-01-19T11:35:21Z</time>
      </trkpt>
      <trkpt lat="45.95364" lon="4.7513">
        <ele>191</ele>
        <time>2018-01-19T11:35:22Z</time>
      </trkpt>
      <trkpt lat="45.95359" lon="4.75123">
        <ele>191</ele>
        <time>2018-01-19T11:35:23Z</time>
      </trkpt>
      <trkpt lat="45.95353" lon="4.75115">
        <ele>192</ele>
        <time>2018-01-19T11:35:25Z</time>
      </trkpt>
      <trkpt lat="45.9535" lon="4.7511">
        <ele>192</ele>
        <time>2018-01-19T11:35:26Z</time>
      </trkpt>
      <trkpt lat="45.95345" lon="4.75101">
        <ele>192</ele>
        <time>2018-01-19T11:35:28Z</time>
      </trkpt>
      <trkpt lat="45.95343" lon="4.75097">
        <ele>192</ele>
        <time>2018-01-19T11:35:29Z</time>
      </trkpt>
      <trkpt lat="45.95338" lon="4.75092">
        <ele>192</ele>
        <time>2018-01-19T11:35:30Z</time>
      </trkpt>
      <trkpt lat="45.95335" lon="4.75088">
        <ele>193</ele>
        <time>2018-01-19T11:35:31Z</time>
      </trkpt>
      <trkpt lat="45.95332" lon="4.75083">
        <ele>193</ele>
        <time>2018-01-19T11:35:32Z</time>
      </trkpt>
      <trkpt lat="45.95329" lon="4.75078">
        <ele>193</ele>
        <time>2018-01-19T11:35:33Z</time>
      </trkpt>
      <trkpt lat="45.95326" lon="4.75073">
        <ele>192</ele>
        <time>2018-01-19T11:35:34Z</time>
      </trkpt>
      <trkpt lat="45.95322" lon="4.75066">
        <ele>192</ele>
        <time>2018-01-19T11:35:35Z</time>
      </trkpt>
      <trkpt lat="45.95319" lon="4.75061">
        <ele>192</ele>
        <time>2018-01-19T11:35:36Z</time>
      </trkpt>
      <trkpt lat="45.95315" lon="4.75055">
        <ele>192</ele>
        <time>2018-01-19T11:35:37Z</time>
      </trkpt>
      <trkpt lat="45.95312" lon="4.75049">
        <ele>192</ele>
        <time>2018-01-19T11:35:38Z</time>
      </trkpt>
      <trkpt lat="45.95308" lon="4.75045">
        <ele>192</ele>
        <time>2018-01-19T11:35:39Z</time>
      </trkpt>
      <trkpt lat="45.95305" lon="4.75041">
        <ele>192</ele>
        <time>2018-01-19T11:35:40Z</time>
      </trkpt>
      <trkpt lat="45.95301" lon="4.75035">
        <ele>191</ele>
        <time>2018-01-19T11:35:41Z</time>
      </trkpt>
      <trkpt lat="45.95295" lon="4.75026">
        <ele>191</ele>
        <time>2018-01-19T11:35:43Z</time>
      </trkpt>
      <trkpt lat="45.95291" lon="4.7502">
        <ele>191</ele>
        <time>2018-01-19T11:35:44Z</time>
      </trkpt>
      <trkpt lat="45.95286" lon="4.7501">
        <ele>191</ele>
        <time>2018-01-19T11:35:46Z</time>
      </trkpt>
      <trkpt lat="45.95283" lon="4.75004">
        <ele>191</ele>
        <time>2018-01-19T11:35:47Z</time>
      </trkpt>
      <trkpt lat="45.95278" lon="4.74997">
        <ele>192</ele>
        <time>2018-01-19T11:35:49Z</time>
      </trkpt>
      <trkpt lat="45.95276" lon="4.74992">
        <ele>192</ele>
        <time>2018-01-19T11:35:50Z</time>
      </trkpt>
      <trkpt lat="45.95273" lon="4.74986">
        <ele>192</ele>
        <time>2018-01-19T11:35:51Z</time>
      </trkpt>
      <trkpt lat="45.95269" lon="4.74982">
        <ele>192</ele>
        <time>2018-01-19T11:35:52Z</time>
      </trkpt>
      <trkpt lat="45.95265" lon="4.74974">
        <ele>192</ele>
        <time>2018-01-19T11:35:54Z</time>
      </trkpt>
      <trkpt lat="45.95263" lon="4.7497">
        <ele>192</ele>
        <time>2018-01-19T11:35:55Z</time>
      </trkpt>
      <trkpt lat="45.95257" lon="4.74961">
        <ele>192</ele>
        <time>2018-01-19T11:35:57Z</time>
      </trkpt>
      <trkpt lat="45.95253" lon="4.74957">
        <ele>192</ele>
        <time>2018-01-19T11:35:58Z</time>
      </trkpt>
      <trkpt lat="45.95247" lon="4.74948">
        <ele>192</ele>
        <time>2018-01-19T11:36:00Z</time>
      </trkpt>
      <trkpt lat="45.95244" lon="4.74944">
        <ele>192</ele>
        <time>2018-01-19T11:36:01Z</time>
      </trkpt>
      <trkpt lat="45.95238" lon="4.74935">
        <ele>192</ele>
        <time>2018-01-19T11:36:03Z</time>
      </trkpt>
      <trkpt lat="45.95235" lon="4.7493">
        <ele>192</ele>
        <time>2018-01-19T11:36:04Z</time>
      </trkpt>
      <trkpt lat="45.9523" lon="4.74922">
        <ele>192</ele>
        <time>2018-01-19T11:36:06Z</time>
      </trkpt>
      <trkpt lat="45.95227" lon="4.74917">
        <ele>192</ele>
        <time>2018-01-19T11:36:07Z</time>
      </trkpt>
      <trkpt lat="45.95229" lon="4.74905">
        <ele>193</ele>
        <time>2018-01-19T11:36:10Z</time>
      </trkpt>
      <trkpt lat="45.95226" lon="4.74901">
        <ele>193</ele>
        <time>2018-01-19T11:36:11Z</time>
      </trkpt>
      <trkpt lat="45.9522" lon="4.74897">
        <ele>193</ele>
        <time>2018-01-19T11:36:12Z</time>
      </trkpt>
      <trkpt lat="45.95218" lon="4.74892">
        <ele>193</ele>
        <time>2018-01-19T11:36:13Z</time>
      </trkpt>
      <trkpt lat="45.95214" lon="4.74883">
        <ele>193</ele>
        <time>2018-01-19T11:36:15Z</time>
      </trkpt>
      <trkpt lat="45.95212" lon="4.74878">
        <ele>193</ele>
        <time>2018-01-19T11:36:16Z</time>
      </trkpt>
      <trkpt lat="45.95207" lon="4.74868">
        <ele>194</ele>
        <time>2018-01-19T11:36:18Z</time>
      </trkpt>
      <trkpt lat="45.95201" lon="4.74863">
        <ele>194</ele>
        <time>2018-01-19T11:36:19Z</time>
      </trkpt>
      <trkpt lat="45.95197" lon="4.74856">
        <ele>194</ele>
        <time>2018-01-19T11:36:20Z</time>
      </trkpt>
      <trkpt lat="45.95192" lon="4.74851">
        <ele>194</ele>
        <time>2018-01-19T11:36:21Z</time>
      </trkpt>
      <trkpt lat="45.95187" lon="4.74845">
        <ele>194</ele>
        <time>2018-01-19T11:36:22Z</time>
      </trkpt>
      <trkpt lat="45.95182" lon="4.7484">
        <ele>194</ele>
        <time>2018-01-19T11:36:23Z</time>
      </trkpt>
      <trkpt lat="45.95177" lon="4.74829">
        <ele>194</ele>
        <time>2018-01-19T11:36:25Z</time>
      </trkpt>
      <trkpt lat="45.95174" lon="4.74823">
        <ele>194</ele>
        <time>2018-01-19T11:36:26Z</time>
      </trkpt>
      <trkpt lat="45.9517" lon="4.74818">
        <ele>194</ele>
        <time>2018-01-19T11:36:27Z</time>
      </trkpt>
      <trkpt lat="45.95167" lon="4.74813">
        <ele>194</ele>
        <time>2018-01-19T11:36:28Z</time>
      </trkpt>
      <trkpt lat="45.95164" lon="4.74809">
        <ele>194</ele>
        <time>2018-01-19T11:36:29Z</time>
      </trkpt>
      <trkpt lat="45.95157" lon="4.74804">
        <ele>194</ele>
        <time>2018-01-19T11:36:30Z</time>
      </trkpt>
      <trkpt lat="45.95153" lon="4.74799">
        <ele>194</ele>
        <time>2018-01-19T11:36:31Z</time>
      </trkpt>
      <trkpt lat="45.9515" lon="4.74793">
        <ele>194</ele>
        <time>2018-01-19T11:36:32Z</time>
      </trkpt>
      <trkpt lat="45.95148" lon="4.74789">
        <ele>194</ele>
        <time>2018-01-19T11:36:33Z</time>
      </trkpt>
      <trkpt lat="45.95144" lon="4.74783">
        <ele>194</ele>
        <time>2018-01-19T11:36:34Z</time>
      </trkpt>
      <trkpt lat="45.9514" lon="4.74775">
        <ele>194</ele>
        <time>2018-01-19T11:36:36Z</time>
      </trkpt>
      <trkpt lat="45.95136" lon="4.7477">
        <ele>194</ele>
        <time>2018-01-19T11:36:37Z</time>
      </trkpt>
      <trkpt lat="45.95132" lon="4.74765">
        <ele>194</ele>
        <time>2018-01-19T11:36:38Z</time>
      </trkpt>
      <trkpt lat="45.95129" lon="4.7476">
        <ele>194</ele>
        <time>2018-01-19T11:36:39Z</time>
      </trkpt>
      <trkpt lat="45.95124" lon="4.74754">
        <ele>194</ele>
        <time>2018-01-19T11:36:40Z</time>
      </trkpt>
      <trkpt lat="45.95121" lon="4.74748">
        <ele>194</ele>
        <time>2018-01-19T11:36:41Z</time>
      </trkpt>
      <trkpt lat="45.95119" lon="4.74743">
        <ele>194</ele>
        <time>2018-01-19T11:36:42Z</time>
      </trkpt>
      <trkpt lat="45.95115" lon="4.74738">
        <ele>194</ele>
        <time>2018-01-19T11:36:43Z</time>
      </trkpt>
      <trkpt lat="45.9511" lon="4.74728">
        <ele>194</ele>
        <time>2018-01-19T11:36:45Z</time>
      </trkpt>
      <trkpt lat="45.95106" lon="4.74721">
        <ele>194</ele>
        <time>2018-01-19T11:36:46Z</time>
      </trkpt>
      <trkpt lat="45.95104" lon="4.74715">
        <ele>194</ele>
        <time>2018-01-19T11:36:47Z</time>
      </trkpt>
      <trkpt lat="45.95099" lon="4.74709">
        <ele>194</ele>
        <time>2018-01-19T11:36:48Z</time>
      </trkpt>
      <trkpt lat="45.95095" lon="4.74704">
        <ele>194</ele>
        <time>2018-01-19T11:36:49Z</time>
      </trkpt>
      <trkpt lat="45.95093" lon="4.74699">
        <ele>194</ele>
        <time>2018-01-19T11:36:50Z</time>
      </trkpt>
      <trkpt lat="45.95087" lon="4.74689">
        <ele>195</ele>
        <time>2018-01-19T11:36:52Z</time>
      </trkpt>
      <trkpt lat="45.95083" lon="4.74683">
        <ele>194</ele>
        <time>2018-01-19T11:36:53Z</time>
      </trkpt>
      <trkpt lat="45.95079" lon="4.74677">
        <ele>194</ele>
        <time>2018-01-19T11:36:54Z</time>
      </trkpt>
      <trkpt lat="45.95076" lon="4.74669">
        <ele>195</ele>
        <time>2018-01-19T11:36:55Z</time>
      </trkpt>
      <trkpt lat="45.95073" lon="4.74665">
        <ele>195</ele>
        <time>2018-01-19T11:36:56Z</time>
      </trkpt>
      <trkpt lat="45.95069" lon="4.74659">
        <ele>195</ele>
        <time>2018-01-19T11:36:57Z</time>
      </trkpt>
      <trkpt lat="45.95067" lon="4.74653">
        <ele>195</ele>
        <time>2018-01-19T11:36:58Z</time>
      </trkpt>
      <trkpt lat="45.95065" lon="4.74647">
        <ele>195</ele>
        <time>2018-01-19T11:36:59Z</time>
      </trkpt>
      <trkpt lat="45.95062" lon="4.74641">
        <ele>194</ele>
        <time>2018-01-19T11:37:00Z</time>
      </trkpt>
      <trkpt lat="45.95058" lon="4.74635">
        <ele>194</ele>
        <time>2018-01-19T11:37:01Z</time>
      </trkpt>
      <trkpt lat="45.95055" lon="4.74629">
        <ele>194</ele>
        <time>2018-01-19T11:37:02Z</time>
      </trkpt>
      <trkpt lat="45.95053" lon="4.74624">
        <ele>194</ele>
        <time>2018-01-19T11:37:03Z</time>
      </trkpt>
      <trkpt lat="45.95047" lon="4.74614">
        <ele>194</ele>
        <time>2018-01-19T11:37:05Z</time>
      </trkpt>
      <trkpt lat="45.95043" lon="4.74612">
        <ele>194</ele>
        <time>2018-01-19T11:37:06Z</time>
      </trkpt>
      <trkpt lat="45.95039" lon="4.74601">
        <ele>194</ele>
        <time>2018-01-19T11:37:08Z</time>
      </trkpt>
      <trkpt lat="45.95036" lon="4.74596">
        <ele>194</ele>
        <time>2018-01-19T11:37:09Z</time>
      </trkpt>
      <trkpt lat="45.95031" lon="4.74586">
        <ele>194</ele>
        <time>2018-01-19T11:37:11Z</time>
      </trkpt>
      <trkpt lat="45.95029" lon="4.74581">
        <ele>194</ele>
        <time>2018-01-19T11:37:12Z</time>
      </trkpt>
      <trkpt lat="45.95026" lon="4.74576">
        <ele>194</ele>
        <time>2018-01-19T11:37:13Z</time>
      </trkpt>
      <trkpt lat="45.95023" lon="4.74569">
        <ele>194</ele>
        <time>2018-01-19T11:37:14Z</time>
      </trkpt>
      <trkpt lat="45.9502" lon="4.74564">
        <ele>194</ele>
        <time>2018-01-19T11:37:15Z</time>
      </trkpt>
      <trkpt lat="45.95014" lon="4.74558">
        <ele>194</ele>
        <time>2018-01-19T11:37:16Z</time>
      </trkpt>
      <trkpt lat="45.95009" lon="4.74549">
        <ele>194</ele>
        <time>2018-01-19T11:37:18Z</time>
      </trkpt>
      <trkpt lat="45.95006" lon="4.74542">
        <ele>194</ele>
        <time>2018-01-19T11:37:19Z</time>
      </trkpt>
      <trkpt lat="45.95001" lon="4.74531">
        <ele>194</ele>
        <time>2018-01-19T11:37:21Z</time>
      </trkpt>
      <trkpt lat="45.94999" lon="4.74526">
        <ele>193</ele>
        <time>2018-01-19T11:37:22Z</time>
      </trkpt>
      <trkpt lat="45.94995" lon="4.74515">
        <ele>193</ele>
        <time>2018-01-19T11:37:24Z</time>
      </trkpt>
      <trkpt lat="45.94992" lon="4.74509">
        <ele>193</ele>
        <time>2018-01-19T11:37:25Z</time>
      </trkpt>
      <trkpt lat="45.94989" lon="4.74503">
        <ele>193</ele>
        <time>2018-01-19T11:37:26Z</time>
      </trkpt>
      <trkpt lat="45.94987" lon="4.74497">
        <ele>193</ele>
        <time>2018-01-19T11:37:27Z</time>
      </trkpt>
      <trkpt lat="45.94984" lon="4.74492">
        <ele>193</ele>
        <time>2018-01-19T11:37:28Z</time>
      </trkpt>
      <trkpt lat="45.94979" lon="4.74485">
        <ele>193</ele>
        <time>2018-01-19T11:37:29Z</time>
      </trkpt>
      <trkpt lat="45.94974" lon="4.74477">
        <ele>193</ele>
        <time>2018-01-19T11:37:30Z</time>
      </trkpt>
      <trkpt lat="45.94971" lon="4.7447">
        <ele>193</ele>
        <time>2018-01-19T11:37:31Z</time>
      </trkpt>
      <trkpt lat="45.94966" lon="4.74463">
        <ele>193</ele>
        <time>2018-01-19T11:37:32Z</time>
      </trkpt>
      <trkpt lat="45.94963" lon="4.74458">
        <ele>192</ele>
        <time>2018-01-19T11:37:33Z</time>
      </trkpt>
      <trkpt lat="45.9496" lon="4.74452">
        <ele>192</ele>
        <time>2018-01-19T11:37:34Z</time>
      </trkpt>
      <trkpt lat="45.94957" lon="4.74446">
        <ele>192</ele>
        <time>2018-01-19T11:37:35Z</time>
      </trkpt>
      <trkpt lat="45.94954" lon="4.7444">
        <ele>192</ele>
        <time>2018-01-19T11:37:36Z</time>
      </trkpt>
      <trkpt lat="45.94949" lon="4.74433">
        <ele>192</ele>
        <time>2018-01-19T11:37:37Z</time>
      </trkpt>
      <trkpt lat="45.94945" lon="4.74427">
        <ele>192</ele>
        <time>2018-01-19T11:37:38Z</time>
      </trkpt>
      <trkpt lat="45.94942" lon="4.74421">
        <ele>192</ele>
        <time>2018-01-19T11:37:39Z</time>
      </trkpt>
      <trkpt lat="45.94939" lon="4.74415">
        <ele>192</ele>
        <time>2018-01-19T11:37:40Z</time>
      </trkpt>
      <trkpt lat="45.94936" lon="4.7441">
        <ele>192</ele>
        <time>2018-01-19T11:37:41Z</time>
      </trkpt>
      <trkpt lat="45.94933" lon="4.74404">
        <ele>192</ele>
        <time>2018-01-19T11:37:42Z</time>
      </trkpt>
      <trkpt lat="45.94931" lon="4.74398">
        <ele>192</ele>
        <time>2018-01-19T11:37:43Z</time>
      </trkpt>
      <trkpt lat="45.94928" lon="4.74392">
        <ele>192</ele>
        <time>2018-01-19T11:37:44Z</time>
      </trkpt>
      <trkpt lat="45.94924" lon="4.74386">
        <ele>192</ele>
        <time>2018-01-19T11:37:45Z</time>
      </trkpt>
      <trkpt lat="45.9492" lon="4.74376">
        <ele>192</ele>
        <time>2018-01-19T11:37:47Z</time>
      </trkpt>
      <trkpt lat="45.94916" lon="4.7437">
        <ele>191</ele>
        <time>2018-01-19T11:37:48Z</time>
      </trkpt>
      <trkpt lat="45.94913" lon="4.74361">
        <ele>191</ele>
        <time>2018-01-19T11:37:50Z</time>
      </trkpt>
      <trkpt lat="45.94911" lon="4.74354">
        <ele>191</ele>
        <time>2018-01-19T11:37:51Z</time>
      </trkpt>
      <trkpt lat="45.94908" lon="4.74347">
        <ele>191</ele>
        <time>2018-01-19T11:37:52Z</time>
      </trkpt>
      <trkpt lat="45.94905" lon="4.7434">
        <ele>191</ele>
        <time>2018-01-19T11:37:53Z</time>
      </trkpt>
      <trkpt lat="45.94899" lon="4.74333">
        <ele>191</ele>
        <time>2018-01-19T11:37:54Z</time>
      </trkpt>
      <trkpt lat="45.94896" lon="4.74328">
        <ele>191</ele>
        <time>2018-01-19T11:37:55Z</time>
      </trkpt>
      <trkpt lat="45.94894" lon="4.74322">
        <ele>191</ele>
        <time>2018-01-19T11:37:56Z</time>
      </trkpt>
      <trkpt lat="45.94891" lon="4.74316">
        <ele>191</ele>
        <time>2018-01-19T11:37:57Z</time>
      </trkpt>
      <trkpt lat="45.94887" lon="4.74309">
        <ele>191</ele>
        <time>2018-01-19T11:37:58Z</time>
      </trkpt>
      <trkpt lat="45.94885" lon="4.74302">
        <ele>191</ele>
        <time>2018-01-19T11:37:59Z</time>
      </trkpt>
      <trkpt lat="45.94882" lon="4.74297">
        <ele>191</ele>
        <time>2018-01-19T11:38:00Z</time>
      </trkpt>
      <trkpt lat="45.94878" lon="4.7429">
        <ele>191</ele>
        <time>2018-01-19T11:38:01Z</time>
      </trkpt>
      <trkpt lat="45.94875" lon="4.74284">
        <ele>191</ele>
        <time>2018-01-19T11:38:02Z</time>
      </trkpt>
      <trkpt lat="45.94871" lon="4.74277">
        <ele>191</ele>
        <time>2018-01-19T11:38:03Z</time>
      </trkpt>
      <trkpt lat="45.94868" lon="4.7427">
        <ele>191</ele>
        <time>2018-01-19T11:38:04Z</time>
      </trkpt>
      <trkpt lat="45.94864" lon="4.74263">
        <ele>190</ele>
        <time>2018-01-19T11:38:05Z</time>
      </trkpt>
      <trkpt lat="45.9486" lon="4.74256">
        <ele>190</ele>
        <time>2018-01-19T11:38:06Z</time>
      </trkpt>
      <trkpt lat="45.94856" lon="4.74249">
        <ele>190</ele>
        <time>2018-01-19T11:38:07Z</time>
      </trkpt>
      <trkpt lat="45.94853" lon="4.74241">
        <ele>190</ele>
        <time>2018-01-19T11:38:08Z</time>
      </trkpt>
      <trkpt lat="45.94849" lon="4.74235">
        <ele>190</ele>
        <time>2018-01-19T11:38:09Z</time>
      </trkpt>
      <trkpt lat="45.94847" lon="4.7423">
        <ele>190</ele>
        <time>2018-01-19T11:38:10Z</time>
      </trkpt>
      <trkpt lat="45.94842" lon="4.74223">
        <ele>190</ele>
        <time>2018-01-19T11:38:11Z</time>
      </trkpt>
      <trkpt lat="45.94841" lon="4.74218">
        <ele>190</ele>
        <time>2018-01-19T11:38:12Z</time>
      </trkpt>
      <trkpt lat="45.94837" lon="4.74213">
        <ele>190</ele>
        <time>2018-01-19T11:38:13Z</time>
      </trkpt>
      <trkpt lat="45.94832" lon="4.74207">
        <ele>189</ele>
        <time>2018-01-19T11:38:14Z</time>
      </trkpt>
      <trkpt lat="45.94829" lon="4.74201">
        <ele>189</ele>
        <time>2018-01-19T11:38:15Z</time>
      </trkpt>
      <trkpt lat="45.94826" lon="4.74194">
        <ele>189</ele>
        <time>2018-01-19T11:38:16Z</time>
      </trkpt>
      <trkpt lat="45.94823" lon="4.7419">
        <ele>189</ele>
        <time>2018-01-19T11:38:17Z</time>
      </trkpt>
      <trkpt lat="45.94821" lon="4.74185">
        <ele>189</ele>
        <time>2018-01-19T11:38:18Z</time>
      </trkpt>
      <trkpt lat="45.94817" lon="4.74179">
        <ele>189</ele>
        <time>2018-01-19T11:38:19Z</time>
      </trkpt>
      <trkpt lat="45.94811" lon="4.74171">
        <ele>189</ele>
        <time>2018-01-19T11:38:20Z</time>
      </trkpt>
      <trkpt lat="45.94808" lon="4.74166">
        <ele>189</ele>
        <time>2018-01-19T11:38:21Z</time>
      </trkpt>
      <trkpt lat="45.94804" lon="4.74161">
        <ele>189</ele>
        <time>2018-01-19T11:38:22Z</time>
      </trkpt>
      <trkpt lat="45.94801" lon="4.74155">
        <ele>189</ele>
        <time>2018-01-19T11:38:23Z</time>
      </trkpt>
      <trkpt lat="45.94796" lon="4.74148">
        <ele>189</ele>
        <time>2018-01-19T11:38:24Z</time>
      </trkpt>
      <trkpt lat="45.94792" lon="4.74141">
        <ele>189</ele>
        <time>2018-01-19T11:38:25Z</time>
      </trkpt>
      <trkpt lat="45.94788" lon="4.74136">
        <ele>189</ele>
        <time>2018-01-19T11:38:26Z</time>
      </trkpt>
      <trkpt lat="45.94784" lon="4.7413">
        <ele>189</ele>
        <time>2018-01-19T11:38:27Z</time>
      </trkpt>
      <trkpt lat="45.94782" lon="4.74125">
        <ele>189</ele>
        <time>2018-01-19T11:38:28Z</time>
      </trkpt>
      <trkpt lat="45.94778" lon="4.7412">
        <ele>189</ele>
        <time>2018-01-19T11:38:29Z</time>
      </trkpt>
      <trkpt lat="45.94776" lon="4.74114">
        <ele>189</ele>
        <time>2018-01-19T11:38:30Z</time>
      </trkpt>
      <trkpt lat="45.94772" lon="4.7411">
        <ele>189</ele>
        <time>2018-01-19T11:38:31Z</time>
      </trkpt>
      <trkpt lat="45.94767" lon="4.74101">
        <ele>189</ele>
        <time>2018-01-19T11:38:33Z</time>
      </trkpt>
      <trkpt lat="45.94766" lon="4.74098">
        <ele>189</ele>
        <time>2018-01-19T11:38:34Z</time>
      </trkpt>
      <trkpt lat="45.94761" lon="4.74094">
        <ele>189</ele>
        <time>2018-01-19T11:38:35Z</time>
      </trkpt>
      <trkpt lat="45.94757" lon="4.7409">
        <ele>189</ele>
        <time>2018-01-19T11:38:36Z</time>
      </trkpt>
      <trkpt lat="45.94753" lon="4.74086">
        <ele>189</ele>
        <time>2018-01-19T11:38:37Z</time>
      </trkpt>
      <trkpt lat="45.9475" lon="4.74082">
        <ele>189</ele>
        <time>2018-01-19T11:38:38Z</time>
      </trkpt>
      <trkpt lat="45.94746" lon="4.74075">
        <ele>188</ele>
        <time>2018-01-19T11:38:39Z</time>
      </trkpt>
      <trkpt lat="45.94742" lon="4.74069">
        <ele>188</ele>
        <time>2018-01-19T11:38:40Z</time>
      </trkpt>
      <trkpt lat="45.94738" lon="4.74064">
        <ele>188</ele>
        <time>2018-01-19T11:38:41Z</time>
      </trkpt>
      <trkpt lat="45.94734" lon="4.74058">
        <ele>188</ele>
        <time>2018-01-19T11:38:42Z</time>
      </trkpt>
      <trkpt lat="45.94728" lon="4.74049">
        <ele>188</ele>
        <time>2018-01-19T11:38:44Z</time>
      </trkpt>
      <trkpt lat="45.94724" lon="4.74045">
        <ele>187</ele>
        <time>2018-01-19T11:38:45Z</time>
      </trkpt>
      <trkpt lat="45.94721" lon="4.7404">
        <ele>187</ele>
        <time>2018-01-19T11:38:46Z</time>
      </trkpt>
      <trkpt lat="45.94717" lon="4.74035">
        <ele>187</ele>
        <time>2018-01-19T11:38:47Z</time>
      </trkpt>
      <trkpt lat="45.94717" lon="4.74028">
        <ele>187</ele>
        <time>2018-01-19T11:38:49Z</time>
      </trkpt>
      <trkpt lat="45.94714" lon="4.74023">
        <ele>187</ele>
        <time>2018-01-19T11:38:50Z</time>
      </trkpt>
      <trkpt lat="45.9471" lon="4.74018">
        <ele>187</ele>
        <time>2018-01-19T11:38:51Z</time>
      </trkpt>
      <trkpt lat="45.94707" lon="4.74013">
        <ele>187</ele>
        <time>2018-01-19T11:38:52Z</time>
      </trkpt>
      <trkpt lat="45.94703" lon="4.74008">
        <ele>187</ele>
        <time>2018-01-19T11:38:53Z</time>
      </trkpt>
      <trkpt lat="45.947" lon="4.74004">
        <ele>187</ele>
        <time>2018-01-19T11:38:54Z</time>
      </trkpt>
      <trkpt lat="45.94696" lon="4.73998">
        <ele>187</ele>
        <time>2018-01-19T11:38:55Z</time>
      </trkpt>
      <trkpt lat="45.94693" lon="4.73992">
        <ele>187</ele>
        <time>2018-01-19T11:38:56Z</time>
      </trkpt>
      <trkpt lat="45.94689" lon="4.73986">
        <ele>187</ele>
        <time>2018-01-19T11:38:57Z</time>
      </trkpt>
      <trkpt lat="45.94686" lon="4.73982">
        <ele>187</ele>
        <time>2018-01-19T11:38:58Z</time>
      </trkpt>
      <trkpt lat="45.94681" lon="4.73978">
        <ele>187</ele>
        <time>2018-01-19T11:38:59Z</time>
      </trkpt>
      <trkpt lat="45.94677" lon="4.73974">
        <ele>187</ele>
        <time>2018-01-19T11:39:00Z</time>
      </trkpt>
      <trkpt lat="45.94673" lon="4.73969">
        <ele>187</ele>
        <time>2018-01-19T11:39:01Z</time>
      </trkpt>
      <trkpt lat="45.94671" lon="4.73964">
        <ele>187</ele>
        <time>2018-01-19T11:39:02Z</time>
      </trkpt>
      <trkpt lat="45.94667" lon="4.73959">
        <ele>187</ele>
        <time>2018-01-19T11:39:03Z</time>
      </trkpt>
      <trkpt lat="45.94663" lon="4.73955">
        <ele>187</ele>
        <time>2018-01-19T11:39:04Z</time>
      </trkpt>
      <trkpt lat="45.94658" lon="4.73949">
        <ele>187</ele>
        <time>2018-01-19T11:39:05Z</time>
      </trkpt>
      <trkpt lat="45.94656" lon="4.73944">
        <ele>187</ele>
        <time>2018-01-19T11:39:06Z</time>
      </trkpt>
      <trkpt lat="45.94652" lon="4.73939">
        <ele>187</ele>
        <time>2018-01-19T11:39:07Z</time>
      </trkpt>
      <trkpt lat="45.94648" lon="4.73934">
        <ele>187</ele>
        <time>2018-01-19T11:39:08Z</time>
      </trkpt>
      <trkpt lat="45.94644" lon="4.73929">
        <ele>187</ele>
        <time>2018-01-19T11:39:09Z</time>
      </trkpt>
      <trkpt lat="45.9464" lon="4.73923">
        <ele>187</ele>
        <time>2018-01-19T11:39:10Z</time>
      </trkpt>
      <trkpt lat="45.94634" lon="4.73918">
        <ele>187</ele>
        <time>2018-01-19T11:39:11Z</time>
      </trkpt>
      <trkpt lat="45.9463" lon="4.73912">
        <ele>187</ele>
        <time>2018-01-19T11:39:12Z</time>
      </trkpt>
      <trkpt lat="45.94626" lon="4.73907">
        <ele>187</ele>
        <time>2018-01-19T11:39:13Z</time>
      </trkpt>
      <trkpt lat="45.94622" lon="4.73901">
        <ele>187</ele>
        <time>2018-01-19T11:39:14Z</time>
      </trkpt>
      <trkpt lat="45.94617" lon="4.73897">
        <ele>187</ele>
        <time>2018-01-19T11:39:15Z</time>
      </trkpt>
      <trkpt lat="45.94612" lon="4.73892">
        <ele>187</ele>
        <time>2018-01-19T11:39:16Z</time>
      </trkpt>
      <trkpt lat="45.94607" lon="4.73887">
        <ele>187</ele>
        <time>2018-01-19T11:39:17Z</time>
      </trkpt>
      <trkpt lat="45.94604" lon="4.73881">
        <ele>187</ele>
        <time>2018-01-19T11:39:18Z</time>
      </trkpt>
      <trkpt lat="45.94599" lon="4.73876">
        <ele>187</ele>
        <time>2018-01-19T11:39:19Z</time>
      </trkpt>
      <trkpt lat="45.94595" lon="4.73871">
        <ele>187</ele>
        <time>2018-01-19T11:39:20Z</time>
      </trkpt>
      <trkpt lat="45.9459" lon="4.73867">
        <ele>187</ele>
        <time>2018-01-19T11:39:21Z</time>
      </trkpt>
      <trkpt lat="45.94586" lon="4.73862">
        <ele>187</ele>
        <time>2018-01-19T11:39:22Z</time>
      </trkpt>
      <trkpt lat="45.94581" lon="4.73859">
        <ele>186</ele>
        <time>2018-01-19T11:39:23Z</time>
      </trkpt>
      <trkpt lat="45.94576" lon="4.73855">
        <ele>186</ele>
        <time>2018-01-19T11:39:24Z</time>
      </trkpt>
      <trkpt lat="45.9457" lon="4.73846">
        <ele>186</ele>
        <time>2018-01-19T11:39:26Z</time>
      </trkpt>
      <trkpt lat="45.94566" lon="4.73841">
        <ele>186</ele>
        <time>2018-01-19T11:39:27Z</time>
      </trkpt>
      <trkpt lat="45.94563" lon="4.73837">
        <ele>186</ele>
        <time>2018-01-19T11:39:28Z</time>
      </trkpt>
      <trkpt lat="45.94559" lon="4.73832">
        <ele>186</ele>
        <time>2018-01-19T11:39:29Z</time>
      </trkpt>
      <trkpt lat="45.94555" lon="4.73828">
        <ele>186</ele>
        <time>2018-01-19T11:39:30Z</time>
      </trkpt>
      <trkpt lat="45.94551" lon="4.73824">
        <ele>186</ele>
        <time>2018-01-19T11:39:31Z</time>
      </trkpt>
      <trkpt lat="45.94546" lon="4.7382">
        <ele>186</ele>
        <time>2018-01-19T11:39:32Z</time>
      </trkpt>
      <trkpt lat="45.94541" lon="4.73814">
        <ele>186</ele>
        <time>2018-01-19T11:39:33Z</time>
      </trkpt>
      <trkpt lat="45.94537" lon="4.73811">
        <ele>186</ele>
        <time>2018-01-19T11:39:34Z</time>
      </trkpt>
      <trkpt lat="45.94531" lon="4.73807">
        <ele>186</ele>
        <time>2018-01-19T11:39:35Z</time>
      </trkpt>
      <trkpt lat="45.94528" lon="4.73803">
        <ele>186</ele>
        <time>2018-01-19T11:39:36Z</time>
      </trkpt>
      <trkpt lat="45.94524" lon="4.738">
        <ele>186</ele>
        <time>2018-01-19T11:39:37Z</time>
      </trkpt>
      <trkpt lat="45.9452" lon="4.73796">
        <ele>186</ele>
        <time>2018-01-19T11:39:38Z</time>
      </trkpt>
      <trkpt lat="45.94516" lon="4.73792">
        <ele>186</ele>
        <time>2018-01-19T11:39:39Z</time>
      </trkpt>
      <trkpt lat="45.94511" lon="4.73784">
        <ele>186</ele>
        <time>2018-01-19T11:39:41Z</time>
      </trkpt>
      <trkpt lat="45.94508" lon="4.73779">
        <ele>186</ele>
        <time>2018-01-19T11:39:42Z</time>
      </trkpt>
      <trkpt lat="45.94502" lon="4.73775">
        <ele>186</ele>
        <time>2018-01-19T11:39:43Z</time>
      </trkpt>
      <trkpt lat="45.94497" lon="4.73771">
        <ele>186</ele>
        <time>2018-01-19T11:39:44Z</time>
      </trkpt>
      <trkpt lat="45.94492" lon="4.73761">
        <ele>186</ele>
        <time>2018-01-19T11:39:46Z</time>
      </trkpt>
      <trkpt lat="45.94489" lon="4.73757">
        <ele>186</ele>
        <time>2018-01-19T11:39:47Z</time>
      </trkpt>
      <trkpt lat="45.94484" lon="4.73746">
        <ele>186</ele>
        <time>2018-01-19T11:39:49Z</time>
      </trkpt>
      <trkpt lat="45.94485" lon="4.73741">
        <ele>186</ele>
        <time>2018-01-19T11:39:50Z</time>
      </trkpt>
      <trkpt lat="45.94485" lon="4.73734">
        <ele>186</ele>
        <time>2018-01-19T11:39:51Z</time>
      </trkpt>
      <trkpt lat="45.94485" lon="4.73727">
        <ele>186</ele>
        <time>2018-01-19T11:39:52Z</time>
      </trkpt>
      <trkpt lat="45.9449" lon="4.73716">
        <ele>186</ele>
        <time>2018-01-19T11:39:53Z</time>
      </trkpt>
      <trkpt lat="45.94493" lon="4.73707">
        <ele>186</ele>
        <time>2018-01-19T11:39:54Z</time>
      </trkpt>
      <trkpt lat="45.94495" lon="4.737">
        <ele>186</ele>
        <time>2018-01-19T11:39:55Z</time>
      </trkpt>
      <trkpt lat="45.94494" lon="4.73693">
        <ele>186</ele>
        <time>2018-01-19T11:39:56Z</time>
      </trkpt>
      <trkpt lat="45.94495" lon="4.73685">
        <ele>186</ele>
        <time>2018-01-19T11:39:57Z</time>
      </trkpt>
      <trkpt lat="45.94501" lon="4.73675">
        <ele>185</ele>
        <time>2018-01-19T11:39:58Z</time>
      </trkpt>
      <trkpt lat="45.94503" lon="4.73668">
        <ele>185</ele>
        <time>2018-01-19T11:39:59Z</time>
      </trkpt>
      <trkpt lat="45.94502" lon="4.73661">
        <ele>185</ele>
        <time>2018-01-19T11:40:00Z</time>
      </trkpt>
      <trkpt lat="45.94503" lon="4.73653">
        <ele>184</ele>
        <time>2018-01-19T11:40:01Z</time>
      </trkpt>
      <trkpt lat="45.94504" lon="4.73644">
        <ele>184</ele>
        <time>2018-01-19T11:40:02Z</time>
      </trkpt>
      <trkpt lat="45.94501" lon="4.73636">
        <ele>184</ele>
        <time>2018-01-19T11:40:03Z</time>
      </trkpt>
      <trkpt lat="45.94503" lon="4.73628">
        <ele>184</ele>
        <time>2018-01-19T11:40:04Z</time>
      </trkpt>
      <trkpt lat="45.94504" lon="4.73622">
        <ele>184</ele>
        <time>2018-01-19T11:40:05Z</time>
      </trkpt>
      <trkpt lat="45.94505" lon="4.73614">
        <ele>184</ele>
        <time>2018-01-19T11:40:06Z</time>
      </trkpt>
      <trkpt lat="45.94505" lon="4.73605">
        <ele>184</ele>
        <time>2018-01-19T11:40:07Z</time>
      </trkpt>
      <trkpt lat="45.94509" lon="4.73594">
        <ele>184</ele>
        <time>2018-01-19T11:40:08Z</time>
      </trkpt>
      <trkpt lat="45.94505" lon="4.73582">
        <ele>185</ele>
        <time>2018-01-19T11:40:10Z</time>
      </trkpt>
      <trkpt lat="45.94504" lon="4.73574">
        <ele>184</ele>
        <time>2018-01-19T11:40:11Z</time>
      </trkpt>
      <trkpt lat="45.94503" lon="4.73567">
        <ele>184</ele>
        <time>2018-01-19T11:40:12Z</time>
      </trkpt>
      <trkpt lat="45.94507" lon="4.7356">
        <ele>184</ele>
        <time>2018-01-19T11:40:13Z</time>
      </trkpt>
      <trkpt lat="45.94509" lon="4.73551">
        <ele>183</ele>
        <time>2018-01-19T11:40:14Z</time>
      </trkpt>
      <trkpt lat="45.94509" lon="4.73542">
        <ele>183</ele>
        <time>2018-01-19T11:40:15Z</time>
      </trkpt>
      <trkpt lat="45.94509" lon="4.73532">
        <ele>183</ele>
        <time>2018-01-19T11:40:16Z</time>
      </trkpt>
      <trkpt lat="45.94507" lon="4.73523">
        <ele>183</ele>
        <time>2018-01-19T11:40:17Z</time>
      </trkpt>
      <trkpt lat="45.94507" lon="4.73514">
        <ele>183</ele>
        <time>2018-01-19T11:40:18Z</time>
      </trkpt>
      <trkpt lat="45.94508" lon="4.73503">
        <ele>183</ele>
        <time>2018-01-19T11:40:19Z</time>
      </trkpt>
      <trkpt lat="45.94509" lon="4.73493">
        <ele>182</ele>
        <time>2018-01-19T11:40:20Z</time>
      </trkpt>
      <trkpt lat="45.94508" lon="4.73483">
        <ele>182</ele>
        <time>2018-01-19T11:40:21Z</time>
      </trkpt>
      <trkpt lat="45.94508" lon="4.73474">
        <ele>182</ele>
        <time>2018-01-19T11:40:22Z</time>
      </trkpt>
      <trkpt lat="45.94509" lon="4.73466">
        <ele>181</ele>
        <time>2018-01-19T11:40:23Z</time>
      </trkpt>
      <trkpt lat="45.94508" lon="4.73456">
        <ele>181</ele>
        <time>2018-01-19T11:40:24Z</time>
      </trkpt>
      <trkpt lat="45.9451" lon="4.73444">
        <ele>181</ele>
        <time>2018-01-19T11:40:25Z</time>
      </trkpt>
      <trkpt lat="45.9451" lon="4.73433">
        <ele>181</ele>
        <time>2018-01-19T11:40:26Z</time>
      </trkpt>
      <trkpt lat="45.94507" lon="4.73425">
        <ele>180</ele>
        <time>2018-01-19T11:40:27Z</time>
      </trkpt>
      <trkpt lat="45.94506" lon="4.73414">
        <ele>180</ele>
        <time>2018-01-19T11:40:28Z</time>
      </trkpt>
      <trkpt lat="45.94506" lon="4.73403">
        <ele>179</ele>
        <time>2018-01-19T11:40:29Z</time>
      </trkpt>
      <trkpt lat="45.94507" lon="4.7339">
        <ele>179</ele>
        <time>2018-01-19T11:40:30Z</time>
      </trkpt>
      <trkpt lat="45.94506" lon="4.7338">
        <ele>178</ele>
        <time>2018-01-19T11:40:31Z</time>
      </trkpt>
      <trkpt lat="45.94506" lon="4.7337">
        <ele>178</ele>
        <time>2018-01-19T11:40:32Z</time>
      </trkpt>
      <trkpt lat="45.94506" lon="4.73359">
        <ele>178</ele>
        <time>2018-01-19T11:40:33Z</time>
      </trkpt>
      <trkpt lat="45.94505" lon="4.73348">
        <ele>178</ele>
        <time>2018-01-19T11:40:34Z</time>
      </trkpt>
      <trkpt lat="45.94503" lon="4.73337">
        <ele>177</ele>
        <time>2018-01-19T11:40:35Z</time>
      </trkpt>
      <trkpt lat="45.94501" lon="4.73327">
        <ele>177</ele>
        <time>2018-01-19T11:40:36Z</time>
      </trkpt>
      <trkpt lat="45.94499" lon="4.73317">
        <ele>177</ele>
        <time>2018-01-19T11:40:37Z</time>
      </trkpt>
      <trkpt lat="45.94497" lon="4.73307">
        <ele>177</ele>
        <time>2018-01-19T11:40:38Z</time>
      </trkpt>
      <trkpt lat="45.94494" lon="4.73296">
        <ele>177</ele>
        <time>2018-01-19T11:40:39Z</time>
      </trkpt>
      <trkpt lat="45.94491" lon="4.73284">
        <ele>177</ele>
        <time>2018-01-19T11:40:40Z</time>
      </trkpt>
      <trkpt lat="45.9449" lon="4.73272">
        <ele>177</ele>
        <time>2018-01-19T11:40:41Z</time>
      </trkpt>
      <trkpt lat="45.9449" lon="4.7326">
        <ele>176</ele>
        <time>2018-01-19T11:40:42Z</time>
      </trkpt>
      <trkpt lat="45.94489" lon="4.73249">
        <ele>176</ele>
        <time>2018-01-19T11:40:43Z</time>
      </trkpt>
      <trkpt lat="45.94491" lon="4.73244">
        <ele>175</ele>
        <time>2018-01-19T11:40:44Z</time>
      </trkpt>
      <trkpt lat="45.94489" lon="4.73233">
        <ele>175</ele>
        <time>2018-01-19T11:40:45Z</time>
      </trkpt>
      <trkpt lat="45.94485" lon="4.73223">
        <ele>175</ele>
        <time>2018-01-19T11:40:46Z</time>
      </trkpt>
      <trkpt lat="45.94485" lon="4.73212">
        <ele>175</ele>
        <time>2018-01-19T11:40:47Z</time>
      </trkpt>
      <trkpt lat="45.94485" lon="4.73201">
        <ele>175</ele>
        <time>2018-01-19T11:40:48Z</time>
      </trkpt>
      <trkpt lat="45.94484" lon="4.73188">
        <ele>174</ele>
        <time>2018-01-19T11:40:49Z</time>
      </trkpt>
      <trkpt lat="45.94483" lon="4.73178">
        <ele>174</ele>
        <time>2018-01-19T11:40:50Z</time>
      </trkpt>
      <trkpt lat="45.94482" lon="4.73168">
        <ele>174</ele>
        <time>2018-01-19T11:40:51Z</time>
      </trkpt>
      <trkpt lat="45.94481" lon="4.73159">
        <ele>173</ele>
        <time>2018-01-19T11:40:52Z</time>
      </trkpt>
      <trkpt lat="45.94477" lon="4.73147">
        <ele>172</ele>
        <time>2018-01-19T11:40:53Z</time>
      </trkpt>
      <trkpt lat="45.94476" lon="4.73138">
        <ele>172</ele>
        <time>2018-01-19T11:40:54Z</time>
      </trkpt>
      <trkpt lat="45.94476" lon="4.7313">
        <ele>172</ele>
        <time>2018-01-19T11:40:55Z</time>
      </trkpt>
      <trkpt lat="45.94477" lon="4.7312">
        <ele>172</ele>
        <time>2018-01-19T11:40:56Z</time>
      </trkpt>
      <trkpt lat="45.94476" lon="4.7311">
        <ele>172</ele>
        <time>2018-01-19T11:40:57Z</time>
      </trkpt>
      <trkpt lat="45.94474" lon="4.731">
        <ele>172</ele>
        <time>2018-01-19T11:40:58Z</time>
      </trkpt>
      <trkpt lat="45.94472" lon="4.73091">
        <ele>172</ele>
        <time>2018-01-19T11:40:59Z</time>
      </trkpt>
      <trkpt lat="45.94469" lon="4.73082">
        <ele>170</ele>
        <time>2018-01-19T11:41:00Z</time>
      </trkpt>
      <trkpt lat="45.94467" lon="4.73073">
        <ele>170</ele>
        <time>2018-01-19T11:41:01Z</time>
      </trkpt>
      <trkpt lat="45.94466" lon="4.73065">
        <ele>170</ele>
        <time>2018-01-19T11:41:02Z</time>
      </trkpt>
      <trkpt lat="45.94465" lon="4.73056">
        <ele>170</ele>
        <time>2018-01-19T11:41:03Z</time>
      </trkpt>
      <trkpt lat="45.94465" lon="4.73048">
        <ele>170</ele>
        <time>2018-01-19T11:41:04Z</time>
      </trkpt>
      <trkpt lat="45.94465" lon="4.73041">
        <ele>170</ele>
        <time>2018-01-19T11:41:05Z</time>
      </trkpt>
      <trkpt lat="45.94465" lon="4.73032">
        <ele>170</ele>
        <time>2018-01-19T11:41:06Z</time>
      </trkpt>
      <trkpt lat="45.94464" lon="4.73025">
        <ele>169</ele>
        <time>2018-01-19T11:41:07Z</time>
      </trkpt>
      <trkpt lat="45.94464" lon="4.73018">
        <ele>169</ele>
        <time>2018-01-19T11:41:08Z</time>
      </trkpt>
      <trkpt lat="45.94462" lon="4.73011">
        <ele>169</ele>
        <time>2018-01-19T11:41:09Z</time>
      </trkpt>
      <trkpt lat="45.94461" lon="4.73003">
        <ele>169</ele>
        <time>2018-01-19T11:41:10Z</time>
      </trkpt>
      <trkpt lat="45.94461" lon="4.72995">
        <ele>168</ele>
        <time>2018-01-19T11:41:11Z</time>
      </trkpt>
      <trkpt lat="45.9446" lon="4.72984">
        <ele>168</ele>
        <time>2018-01-19T11:41:13Z</time>
      </trkpt>
      <trkpt lat="45.94459" lon="4.72978">
        <ele>168</ele>
        <time>2018-01-19T11:41:14Z</time>
      </trkpt>
      <trkpt lat="45.94456" lon="4.7297">
        <ele>167</ele>
        <time>2018-01-19T11:41:15Z</time>
      </trkpt>
      <trkpt lat="45.94451" lon="4.72964">
        <ele>167</ele>
        <time>2018-01-19T11:41:16Z</time>
      </trkpt>
      <trkpt lat="45.94453" lon="4.72955">
        <ele>167</ele>
        <time>2018-01-19T11:41:17Z</time>
      </trkpt>
      <trkpt lat="45.94449" lon="4.72949">
        <ele>167</ele>
        <time>2018-01-19T11:41:18Z</time>
      </trkpt>
      <trkpt lat="45.94449" lon="4.72937">
        <ele>167</ele>
        <time>2018-01-19T11:41:20Z</time>
      </trkpt>
      <trkpt lat="45.94446" lon="4.72931">
        <ele>167</ele>
        <time>2018-01-19T11:41:21Z</time>
      </trkpt>
      <trkpt lat="45.94445" lon="4.72918">
        <ele>167</ele>
        <time>2018-01-19T11:41:23Z</time>
      </trkpt>
      <trkpt lat="45.94443" lon="4.72913">
        <ele>166</ele>
        <time>2018-01-19T11:41:24Z</time>
      </trkpt>
      <trkpt lat="45.9444" lon="4.72901">
        <ele>166</ele>
        <time>2018-01-19T11:41:26Z</time>
      </trkpt>
      <trkpt lat="45.94439" lon="4.72896">
        <ele>166</ele>
        <time>2018-01-19T11:41:27Z</time>
      </trkpt>
      <trkpt lat="45.94438" lon="4.72883">
        <ele>166</ele>
        <time>2018-01-19T11:41:29Z</time>
      </trkpt>
      <trkpt lat="45.94436" lon="4.72877">
        <ele>166</ele>
        <time>2018-01-19T11:41:30Z</time>
      </trkpt>
      <trkpt lat="45.94436" lon="4.7287">
        <ele>166</ele>
        <time>2018-01-19T11:41:31Z</time>
      </trkpt>
      <trkpt lat="45.94436" lon="4.72864">
        <ele>166</ele>
        <time>2018-01-19T11:41:32Z</time>
      </trkpt>
      <trkpt lat="45.94434" lon="4.72857">
        <ele>166</ele>
        <time>2018-01-19T11:41:33Z</time>
      </trkpt>
      <trkpt lat="45.94433" lon="4.7285">
        <ele>166</ele>
        <time>2018-01-19T11:41:34Z</time>
      </trkpt>
      <trkpt lat="45.94431" lon="4.72838">
        <ele>166</ele>
        <time>2018-01-19T11:41:36Z</time>
      </trkpt>
      <trkpt lat="45.9443" lon="4.72832">
        <ele>167</ele>
        <time>2018-01-19T11:41:37Z</time>
      </trkpt>
      <trkpt lat="45.94428" lon="4.72821">
        <ele>167</ele>
        <time>2018-01-19T11:41:39Z</time>
      </trkpt>
      <trkpt lat="45.94427" lon="4.72816">
        <ele>167</ele>
        <time>2018-01-19T11:41:40Z</time>
      </trkpt>
      <trkpt lat="45.94429" lon="4.72804">
        <ele>167</ele>
        <time>2018-01-19T11:41:47Z</time>
      </trkpt>
      <trkpt lat="45.94429" lon="4.72803">
        <ele>167</ele>
        <time>2018-01-19T11:41:48Z</time>
      </trkpt>
      <trkpt lat="45.94427" lon="4.72793">
        <ele>168</ele>
        <time>2018-01-19T11:41:51Z</time>
      </trkpt>
      <trkpt lat="45.94426" lon="4.72788">
        <ele>168</ele>
        <time>2018-01-19T11:41:52Z</time>
      </trkpt>
      <trkpt lat="45.94425" lon="4.72783">
        <ele>168</ele>
        <time>2018-01-19T11:41:53Z</time>
      </trkpt>
      <trkpt lat="45.94426" lon="4.72775">
        <ele>168</ele>
        <time>2018-01-19T11:41:54Z</time>
      </trkpt>
      <trkpt lat="45.94425" lon="4.72768">
        <ele>169</ele>
        <time>2018-01-19T11:41:55Z</time>
      </trkpt>
      <trkpt lat="45.94423" lon="4.7276">
        <ele>169</ele>
        <time>2018-01-19T11:41:56Z</time>
      </trkpt>
      <trkpt lat="45.94423" lon="4.72752">
        <ele>170</ele>
        <time>2018-01-19T11:41:57Z</time>
      </trkpt>
      <trkpt lat="45.94418" lon="4.72748">
        <ele>171</ele>
        <time>2018-01-19T11:41:58Z</time>
      </trkpt>
      <trkpt lat="45.94419" lon="4.72739">
        <ele>171</ele>
        <time>2018-01-19T11:41:59Z</time>
      </trkpt>
      <trkpt lat="45.94417" lon="4.7273">
        <ele>172</ele>
        <time>2018-01-19T11:42:00Z</time>
      </trkpt>
      <trkpt lat="45.94415" lon="4.7272">
        <ele>172</ele>
        <time>2018-01-19T11:42:01Z</time>
      </trkpt>
      <trkpt lat="45.94416" lon="4.72709">
        <ele>172</ele>
        <time>2018-01-19T11:42:02Z</time>
      </trkpt>
      <trkpt lat="45.94414" lon="4.72702">
        <ele>172</ele>
        <time>2018-01-19T11:42:03Z</time>
      </trkpt>
      <trkpt lat="45.94415" lon="4.72694">
        <ele>173</ele>
        <time>2018-01-19T11:42:04Z</time>
      </trkpt>
      <trkpt lat="45.94417" lon="4.72684">
        <ele>173</ele>
        <time>2018-01-19T11:42:05Z</time>
      </trkpt>
      <trkpt lat="45.94417" lon="4.72676">
        <ele>173</ele>
        <time>2018-01-19T11:42:06Z</time>
      </trkpt>
      <trkpt lat="45.94416" lon="4.72668">
        <ele>174</ele>
        <time>2018-01-19T11:42:07Z</time>
      </trkpt>
      <trkpt lat="45.94417" lon="4.72662">
        <ele>174</ele>
        <time>2018-01-19T11:42:08Z</time>
      </trkpt>
      <trkpt lat="45.94419" lon="4.72653">
        <ele>174</ele>
        <time>2018-01-19T11:42:09Z</time>
      </trkpt>
      <trkpt lat="45.94417" lon="4.72646">
        <ele>174</ele>
        <time>2018-01-19T11:42:10Z</time>
      </trkpt>
      <trkpt lat="45.94416" lon="4.72639">
        <ele>174</ele>
        <time>2018-01-19T11:42:11Z</time>
      </trkpt>
      <trkpt lat="45.94415" lon="4.7263">
        <ele>174</ele>
        <time>2018-01-19T11:42:12Z</time>
      </trkpt>
      <trkpt lat="45.94413" lon="4.72623">
        <ele>173</ele>
        <time>2018-01-19T11:42:13Z</time>
      </trkpt>
      <trkpt lat="45.94413" lon="4.72616">
        <ele>173</ele>
        <time>2018-01-19T11:42:14Z</time>
      </trkpt>
      <trkpt lat="45.94413" lon="4.72608">
        <ele>173</ele>
        <time>2018-01-19T11:42:15Z</time>
      </trkpt>
      <trkpt lat="45.94411" lon="4.726">
        <ele>173</ele>
        <time>2018-01-19T11:42:16Z</time>
      </trkpt>
      <trkpt lat="45.9441" lon="4.72594">
        <ele>173</ele>
        <time>2018-01-19T11:42:17Z</time>
      </trkpt>
      <trkpt lat="45.94406" lon="4.72588">
        <ele>173</ele>
        <time>2018-01-19T11:42:18Z</time>
      </trkpt>
      <trkpt lat="45.94404" lon="4.72581">
        <ele>173</ele>
        <time>2018-01-19T11:42:19Z</time>
      </trkpt>
      <trkpt lat="45.94406" lon="4.72574">
        <ele>173</ele>
        <time>2018-01-19T11:42:20Z</time>
      </trkpt>
      <trkpt lat="45.94405" lon="4.72566">
        <ele>173</ele>
        <time>2018-01-19T11:42:21Z</time>
      </trkpt>
      <trkpt lat="45.94399" lon="4.72558">
        <ele>173</ele>
        <time>2018-01-19T11:42:22Z</time>
      </trkpt>
      <trkpt lat="45.94396" lon="4.72553">
        <ele>173</ele>
        <time>2018-01-19T11:42:23Z</time>
      </trkpt>
      <trkpt lat="45.94394" lon="4.72545">
        <ele>173</ele>
        <time>2018-01-19T11:42:24Z</time>
      </trkpt>
      <trkpt lat="45.94392" lon="4.72538">
        <ele>174</ele>
        <time>2018-01-19T11:42:25Z</time>
      </trkpt>
      <trkpt lat="45.94392" lon="4.72532">
        <ele>174</ele>
        <time>2018-01-19T11:42:26Z</time>
      </trkpt>
      <trkpt lat="45.94389" lon="4.72521">
        <ele>174</ele>
        <time>2018-01-19T11:42:28Z</time>
      </trkpt>
      <trkpt lat="45.94387" lon="4.72514">
        <ele>174</ele>
        <time>2018-01-19T11:42:29Z</time>
      </trkpt>
      <trkpt lat="45.94378" lon="4.72505">
        <ele>174</ele>
        <time>2018-01-19T11:42:30Z</time>
      </trkpt>
      <trkpt lat="45.94377" lon="4.72494">
        <ele>173</ele>
        <time>2018-01-19T11:42:32Z</time>
      </trkpt>
      <trkpt lat="45.94378" lon="4.72486">
        <ele>173</ele>
        <time>2018-01-19T11:42:33Z</time>
      </trkpt>
      <trkpt lat="45.94379" lon="4.72479">
        <ele>173</ele>
        <time>2018-01-19T11:42:34Z</time>
      </trkpt>
      <trkpt lat="45.94377" lon="4.72472">
        <ele>173</ele>
        <time>2018-01-19T11:42:35Z</time>
      </trkpt>
      <trkpt lat="45.94374" lon="4.72461">
        <ele>173</ele>
        <time>2018-01-19T11:42:37Z</time>
      </trkpt>
      <trkpt lat="45.94373" lon="4.72456">
        <ele>173</ele>
        <time>2018-01-19T11:42:38Z</time>
      </trkpt>
      <trkpt lat="45.94369" lon="4.7245">
        <ele>173</ele>
        <time>2018-01-19T11:42:39Z</time>
      </trkpt>
      <trkpt lat="45.94366" lon="4.72444">
        <ele>173</ele>
        <time>2018-01-19T11:42:40Z</time>
      </trkpt>
      <trkpt lat="45.94361" lon="4.72434">
        <ele>173</ele>
        <time>2018-01-19T11:42:42Z</time>
      </trkpt>
      <trkpt lat="45.94359" lon="4.7243">
        <ele>173</ele>
        <time>2018-01-19T11:42:43Z</time>
      </trkpt>
      <trkpt lat="45.94355" lon="4.72422">
        <ele>173</ele>
        <time>2018-01-19T11:42:44Z</time>
      </trkpt>
      <trkpt lat="45.9435" lon="4.72417">
        <ele>173</ele>
        <time>2018-01-19T11:42:45Z</time>
      </trkpt>
      <trkpt lat="45.94347" lon="4.72406">
        <ele>173</ele>
        <time>2018-01-19T11:42:46Z</time>
      </trkpt>
      <trkpt lat="45.94346" lon="4.72399">
        <ele>172</ele>
        <time>2018-01-19T11:42:47Z</time>
      </trkpt>
      <trkpt lat="45.94344" lon="4.72389">
        <ele>172</ele>
        <time>2018-01-19T11:42:49Z</time>
      </trkpt>
      <trkpt lat="45.94339" lon="4.72383">
        <ele>172</ele>
        <time>2018-01-19T11:42:50Z</time>
      </trkpt>
      <trkpt lat="45.94335" lon="4.72373">
        <ele>172</ele>
        <time>2018-01-19T11:42:52Z</time>
      </trkpt>
      <trkpt lat="45.94335" lon="4.72367">
        <ele>172</ele>
        <time>2018-01-19T11:42:53Z</time>
      </trkpt>
      <trkpt lat="45.94334" lon="4.72362">
        <ele>172</ele>
        <time>2018-01-19T11:42:54Z</time>
      </trkpt>
      <trkpt lat="45.94329" lon="4.72357">
        <ele>172</ele>
        <time>2018-01-19T11:42:55Z</time>
      </trkpt>
      <trkpt lat="45.94328" lon="4.72346">
        <ele>172</ele>
        <time>2018-01-19T11:42:57Z</time>
      </trkpt>
      <trkpt lat="45.9432" lon="4.72336">
        <ele>172</ele>
        <time>2018-01-19T11:42:58Z</time>
      </trkpt>
      <trkpt lat="45.94317" lon="4.72329">
        <ele>172</ele>
        <time>2018-01-19T11:42:59Z</time>
      </trkpt>
      <trkpt lat="45.94315" lon="4.72323">
        <ele>172</ele>
        <time>2018-01-19T11:43:00Z</time>
      </trkpt>
      <trkpt lat="45.94314" lon="4.72317">
        <ele>171</ele>
        <time>2018-01-19T11:43:01Z</time>
      </trkpt>
      <trkpt lat="45.94314" lon="4.7231">
        <ele>171</ele>
        <time>2018-01-19T11:43:02Z</time>
      </trkpt>
      <trkpt lat="45.94312" lon="4.723">
        <ele>171</ele>
        <time>2018-01-19T11:43:04Z</time>
      </trkpt>
      <trkpt lat="45.9431" lon="4.72295">
        <ele>171</ele>
        <time>2018-01-19T11:43:05Z</time>
      </trkpt>
      <trkpt lat="45.94298" lon="4.72285">
        <ele>171</ele>
        <time>2018-01-19T11:43:06Z</time>
      </trkpt>
      <trkpt lat="45.94292" lon="4.72279">
        <ele>171</ele>
        <time>2018-01-19T11:43:07Z</time>
      </trkpt>
      <trkpt lat="45.9429" lon="4.72275">
        <ele>171</ele>
        <time>2018-01-19T11:43:08Z</time>
      </trkpt>
      <trkpt lat="45.94277" lon="4.72274">
        <ele>171</ele>
        <time>2018-01-19T11:43:09Z</time>
      </trkpt>
      <trkpt lat="45.94272" lon="4.72275">
        <ele>171</ele>
        <time>2018-01-19T11:43:10Z</time>
      </trkpt>
      <trkpt lat="45.94266" lon="4.72276">
        <ele>171</ele>
        <time>2018-01-19T11:43:11Z</time>
      </trkpt>
      <trkpt lat="45.94259" lon="4.72277">
        <ele>171</ele>
        <time>2018-01-19T11:43:12Z</time>
      </trkpt>
      <trkpt lat="45.94254" lon="4.72279">
        <ele>171</ele>
        <time>2018-01-19T11:43:13Z</time>
      </trkpt>
      <trkpt lat="45.94249" lon="4.7228">
        <ele>171</ele>
        <time>2018-01-19T11:43:14Z</time>
      </trkpt>
      <trkpt lat="45.94245" lon="4.72281">
        <ele>171</ele>
        <time>2018-01-19T11:43:15Z</time>
      </trkpt>
      <trkpt lat="45.9424" lon="4.72282">
        <ele>171</ele>
        <time>2018-01-19T11:43:16Z</time>
      </trkpt>
      <trkpt lat="45.94235" lon="4.72284">
        <ele>171</ele>
        <time>2018-01-19T11:43:17Z</time>
      </trkpt>
      <trkpt lat="45.94226" lon="4.72285">
        <ele>171</ele>
        <time>2018-01-19T11:43:19Z</time>
      </trkpt>
      <trkpt lat="45.94222" lon="4.72285">
        <ele>171</ele>
        <time>2018-01-19T11:43:20Z</time>
      </trkpt>
      <trkpt lat="45.94213" lon="4.72283">
        <ele>171</ele>
        <time>2018-01-19T11:43:22Z</time>
      </trkpt>
      <trkpt lat="45.94208" lon="4.72283">
        <ele>171</ele>
        <time>2018-01-19T11:43:23Z</time>
      </trkpt>
      <trkpt lat="45.94204" lon="4.72283">
        <ele>171</ele>
        <time>2018-01-19T11:43:24Z</time>
      </trkpt>
      <trkpt lat="45.94199" lon="4.72282">
        <ele>171</ele>
        <time>2018-01-19T11:43:25Z</time>
      </trkpt>
      <trkpt lat="45.94194" lon="4.72281">
        <ele>171</ele>
        <time>2018-01-19T11:43:26Z</time>
      </trkpt>
      <trkpt lat="45.94188" lon="4.72282">
        <ele>171</ele>
        <time>2018-01-19T11:43:27Z</time>
      </trkpt>
      <trkpt lat="45.94183" lon="4.72283">
        <ele>171</ele>
        <time>2018-01-19T11:43:28Z</time>
      </trkpt>
      <trkpt lat="45.94178" lon="4.72283">
        <ele>171</ele>
        <time>2018-01-19T11:43:29Z</time>
      </trkpt>
      <trkpt lat="45.94173" lon="4.72282">
        <ele>171</ele>
        <time>2018-01-19T11:43:30Z</time>
      </trkpt>
      <trkpt lat="45.94168" lon="4.72282">
        <ele>171</ele>
        <time>2018-01-19T11:43:31Z</time>
      </trkpt>
      <trkpt lat="45.94161" lon="4.72277">
        <ele>171</ele>
        <time>2018-01-19T11:43:33Z</time>
      </trkpt>
      <trkpt lat="45.94156" lon="4.72274">
        <ele>171</ele>
        <time>2018-01-19T11:43:34Z</time>
      </trkpt>
      <trkpt lat="45.94151" lon="4.72273">
        <ele>171</ele>
        <time>2018-01-19T11:43:35Z</time>
      </trkpt>
      <trkpt lat="45.94147" lon="4.72272">
        <ele>171</ele>
        <time>2018-01-19T11:43:36Z</time>
      </trkpt>
      <trkpt lat="45.94142" lon="4.72271">
        <ele>171</ele>
        <time>2018-01-19T11:43:37Z</time>
      </trkpt>
      <trkpt lat="45.94137" lon="4.72268">
        <ele>171</ele>
        <time>2018-01-19T11:43:38Z</time>
      </trkpt>
      <trkpt lat="45.94132" lon="4.72268">
        <ele>171</ele>
        <time>2018-01-19T11:43:39Z</time>
      </trkpt>
      <trkpt lat="45.94128" lon="4.72265">
        <ele>171</ele>
        <time>2018-01-19T11:43:40Z</time>
      </trkpt>
      <trkpt lat="45.94123" lon="4.72261">
        <ele>171</ele>
        <time>2018-01-19T11:43:41Z</time>
      </trkpt>
      <trkpt lat="45.94117" lon="4.72259">
        <ele>171</ele>
        <time>2018-01-19T11:43:42Z</time>
      </trkpt>
      <trkpt lat="45.94113" lon="4.72257">
        <ele>171</ele>
        <time>2018-01-19T11:43:43Z</time>
      </trkpt>
      <trkpt lat="45.94108" lon="4.72257">
        <ele>171</ele>
        <time>2018-01-19T11:43:44Z</time>
      </trkpt>
      <trkpt lat="45.94103" lon="4.72256">
        <ele>171</ele>
        <time>2018-01-19T11:43:45Z</time>
      </trkpt>
      <trkpt lat="45.94098" lon="4.72256">
        <ele>171</ele>
        <time>2018-01-19T11:43:46Z</time>
      </trkpt>
      <trkpt lat="45.94093" lon="4.72258">
        <ele>171</ele>
        <time>2018-01-19T11:43:47Z</time>
      </trkpt>
      <trkpt lat="45.94088" lon="4.72258">
        <ele>171</ele>
        <time>2018-01-19T11:43:48Z</time>
      </trkpt>
      <trkpt lat="45.94081" lon="4.72262">
        <ele>171</ele>
        <time>2018-01-19T11:43:50Z</time>
      </trkpt>
      <trkpt lat="45.94076" lon="4.72265">
        <ele>171</ele>
        <time>2018-01-19T11:43:51Z</time>
      </trkpt>
      <trkpt lat="45.94071" lon="4.72269">
        <ele>171</ele>
        <time>2018-01-19T11:43:52Z</time>
      </trkpt>
      <trkpt lat="45.94066" lon="4.72273">
        <ele>171</ele>
        <time>2018-01-19T11:43:53Z</time>
      </trkpt>
      <trkpt lat="45.94062" lon="4.72279">
        <ele>171</ele>
        <time>2018-01-19T11:43:54Z</time>
      </trkpt>
      <trkpt lat="45.94058" lon="4.72285">
        <ele>171</ele>
        <time>2018-01-19T11:43:55Z</time>
      </trkpt>
      <trkpt lat="45.94053" lon="4.72291">
        <ele>171</ele>
        <time>2018-01-19T11:43:56Z</time>
      </trkpt>
      <trkpt lat="45.9405" lon="4.72296">
        <ele>171</ele>
        <time>2018-01-19T11:43:57Z</time>
      </trkpt>
      <trkpt lat="45.94045" lon="4.72302">
        <ele>171</ele>
        <time>2018-01-19T11:43:58Z</time>
      </trkpt>
      <trkpt lat="45.94041" lon="4.72307">
        <ele>171</ele>
        <time>2018-01-19T11:43:59Z</time>
      </trkpt>
      <trkpt lat="45.94037" lon="4.72312">
        <ele>171</ele>
        <time>2018-01-19T11:44:00Z</time>
      </trkpt>
      <trkpt lat="45.94033" lon="4.72318">
        <ele>171</ele>
        <time>2018-01-19T11:44:01Z</time>
      </trkpt>
      <trkpt lat="45.94029" lon="4.72324">
        <ele>171</ele>
        <time>2018-01-19T11:44:02Z</time>
      </trkpt>
      <trkpt lat="45.94025" lon="4.72329">
        <ele>171</ele>
        <time>2018-01-19T11:44:03Z</time>
      </trkpt>
      <trkpt lat="45.94021" lon="4.72333">
        <ele>171</ele>
        <time>2018-01-19T11:44:04Z</time>
      </trkpt>
      <trkpt lat="45.94017" lon="4.72337">
        <ele>171</ele>
        <time>2018-01-19T11:44:05Z</time>
      </trkpt>
      <trkpt lat="45.94013" lon="4.72342">
        <ele>171</ele>
        <time>2018-01-19T11:44:06Z</time>
      </trkpt>
      <trkpt lat="45.94011" lon="4.72347">
        <ele>171</ele>
        <time>2018-01-19T11:44:07Z</time>
      </trkpt>
      <trkpt lat="45.94008" lon="4.72352">
        <ele>171</ele>
        <time>2018-01-19T11:44:08Z</time>
      </trkpt>
      <trkpt lat="45.94005" lon="4.72356">
        <ele>171</ele>
        <time>2018-01-19T11:44:09Z</time>
      </trkpt>
      <trkpt lat="45.94001" lon="4.7236">
        <ele>171</ele>
        <time>2018-01-19T11:44:10Z</time>
      </trkpt>
      <trkpt lat="45.93997" lon="4.72364">
        <ele>171</ele>
        <time>2018-01-19T11:44:11Z</time>
      </trkpt>
      <trkpt lat="45.93993" lon="4.72368">
        <ele>171</ele>
        <time>2018-01-19T11:44:12Z</time>
      </trkpt>
      <trkpt lat="45.93989" lon="4.72373">
        <ele>171</ele>
        <time>2018-01-19T11:44:13Z</time>
      </trkpt>
      <trkpt lat="45.93986" lon="4.72378">
        <ele>171</ele>
        <time>2018-01-19T11:44:14Z</time>
      </trkpt>
      <trkpt lat="45.93981" lon="4.72383">
        <ele>171</ele>
        <time>2018-01-19T11:44:15Z</time>
      </trkpt>
      <trkpt lat="45.93977" lon="4.72387">
        <ele>171</ele>
        <time>2018-01-19T11:44:16Z</time>
      </trkpt>
      <trkpt lat="45.93972" lon="4.72391">
        <ele>171</ele>
        <time>2018-01-19T11:44:17Z</time>
      </trkpt>
      <trkpt lat="45.93968" lon="4.72395">
        <ele>171</ele>
        <time>2018-01-19T11:44:18Z</time>
      </trkpt>
      <trkpt lat="45.93964" lon="4.72399">
        <ele>171</ele>
        <time>2018-01-19T11:44:19Z</time>
      </trkpt>
      <trkpt lat="45.9396" lon="4.72403">
        <ele>171</ele>
        <time>2018-01-19T11:44:20Z</time>
      </trkpt>
      <trkpt lat="45.93957" lon="4.72407">
        <ele>171</ele>
        <time>2018-01-19T11:44:21Z</time>
      </trkpt>
      <trkpt lat="45.93953" lon="4.72413">
        <ele>171</ele>
        <time>2018-01-19T11:44:22Z</time>
      </trkpt>
      <trkpt lat="45.93949" lon="4.72417">
        <ele>171</ele>
        <time>2018-01-19T11:44:23Z</time>
      </trkpt>
      <trkpt lat="45.93946" lon="4.72421">
        <ele>171</ele>
        <time>2018-01-19T11:44:24Z</time>
      </trkpt>
      <trkpt lat="45.93942" lon="4.72427">
        <ele>171</ele>
        <time>2018-01-19T11:44:25Z</time>
      </trkpt>
      <trkpt lat="45.93938" lon="4.72432">
        <ele>171</ele>
        <time>2018-01-19T11:44:26Z</time>
      </trkpt>
      <trkpt lat="45.93933" lon="4.72436">
        <ele>171</ele>
        <time>2018-01-19T11:44:27Z</time>
      </trkpt>
      <trkpt lat="45.93929" lon="4.7244">
        <ele>171</ele>
        <time>2018-01-19T11:44:28Z</time>
      </trkpt>
      <trkpt lat="45.93926" lon="4.72445">
        <ele>171</ele>
        <time>2018-01-19T11:44:29Z</time>
      </trkpt>
      <trkpt lat="45.93923" lon="4.72452">
        <ele>171</ele>
        <time>2018-01-19T11:44:30Z</time>
      </trkpt>
      <trkpt lat="45.93919" lon="4.72458">
        <ele>171</ele>
        <time>2018-01-19T11:44:31Z</time>
      </trkpt>
      <trkpt lat="45.93913" lon="4.72467">
        <ele>172</ele>
        <time>2018-01-19T11:44:33Z</time>
      </trkpt>
      <trkpt lat="45.9391" lon="4.72472">
        <ele>172</ele>
        <time>2018-01-19T11:44:34Z</time>
      </trkpt>
      <trkpt lat="45.93904" lon="4.72481">
        <ele>172</ele>
        <time>2018-01-19T11:44:36Z</time>
      </trkpt>
      <trkpt lat="45.93901" lon="4.72485">
        <ele>172</ele>
        <time>2018-01-19T11:44:37Z</time>
      </trkpt>
      <trkpt lat="45.93898" lon="4.72489">
        <ele>172</ele>
        <time>2018-01-19T11:44:38Z</time>
      </trkpt>
      <trkpt lat="45.93895" lon="4.72495">
        <ele>172</ele>
        <time>2018-01-19T11:44:39Z</time>
      </trkpt>
      <trkpt lat="45.93891" lon="4.725">
        <ele>172</ele>
        <time>2018-01-19T11:44:40Z</time>
      </trkpt>
      <trkpt lat="45.93888" lon="4.72505">
        <ele>173</ele>
        <time>2018-01-19T11:44:41Z</time>
      </trkpt>
      <trkpt lat="45.93885" lon="4.72509">
        <ele>173</ele>
        <time>2018-01-19T11:44:42Z</time>
      </trkpt>
      <trkpt lat="45.9388" lon="4.72513">
        <ele>173</ele>
        <time>2018-01-19T11:44:43Z</time>
      </trkpt>
      <trkpt lat="45.93875" lon="4.72516">
        <ele>173</ele>
        <time>2018-01-19T11:44:44Z</time>
      </trkpt>
      <trkpt lat="45.93871" lon="4.72515">
        <ele>173</ele>
        <time>2018-01-19T11:44:45Z</time>
      </trkpt>
      <trkpt lat="45.93863" lon="4.7251">
        <ele>173</ele>
        <time>2018-01-19T11:44:47Z</time>
      </trkpt>
      <trkpt lat="45.93859" lon="4.72506">
        <ele>173</ele>
        <time>2018-01-19T11:44:48Z</time>
      </trkpt>
      <trkpt lat="45.93852" lon="4.72501">
        <ele>173</ele>
        <time>2018-01-19T11:44:50Z</time>
      </trkpt>
      <trkpt lat="45.93849" lon="4.72498">
        <ele>173</ele>
        <time>2018-01-19T11:44:51Z</time>
      </trkpt>
      <trkpt lat="45.93842" lon="4.72491">
        <ele>173</ele>
        <time>2018-01-19T11:44:53Z</time>
      </trkpt>
      <trkpt lat="45.93827" lon="4.72475">
        <ele>173</ele>
        <time>2018-01-19T11:44:55Z</time>
      </trkpt>
      <trkpt lat="45.93822" lon="4.72468">
        <ele>172</ele>
        <time>2018-01-19T11:44:57Z</time>
      </trkpt>
      <trkpt lat="45.93819" lon="4.72463">
        <ele>172</ele>
        <time>2018-01-19T11:44:58Z</time>
      </trkpt>
      <trkpt lat="45.93813" lon="4.72459">
        <ele>172</ele>
        <time>2018-01-19T11:45:00Z</time>
      </trkpt>
      <trkpt lat="45.93806" lon="4.72454">
        <ele>172</ele>
        <time>2018-01-19T11:45:01Z</time>
      </trkpt>
      <trkpt lat="45.93802" lon="4.72451">
        <ele>172</ele>
        <time>2018-01-19T11:45:02Z</time>
      </trkpt>
      <trkpt lat="45.93797" lon="4.72447">
        <ele>172</ele>
        <time>2018-01-19T11:45:03Z</time>
      </trkpt>
      <trkpt lat="45.93791" lon="4.7244">
        <ele>172</ele>
        <time>2018-01-19T11:45:05Z</time>
      </trkpt>
      <trkpt lat="45.93787" lon="4.72436">
        <ele>172</ele>
        <time>2018-01-19T11:45:06Z</time>
      </trkpt>
      <trkpt lat="45.93783" lon="4.72429">
        <ele>172</ele>
        <time>2018-01-19T11:45:08Z</time>
      </trkpt>
      <trkpt lat="45.93779" lon="4.72426">
        <ele>172</ele>
        <time>2018-01-19T11:45:09Z</time>
      </trkpt>
      <trkpt lat="45.93775" lon="4.7242">
        <ele>171</ele>
        <time>2018-01-19T11:45:11Z</time>
      </trkpt>
      <trkpt lat="45.93772" lon="4.72414">
        <ele>171</ele>
        <time>2018-01-19T11:45:12Z</time>
      </trkpt>
      <trkpt lat="45.93765" lon="4.72407">
        <ele>171</ele>
        <time>2018-01-19T11:45:14Z</time>
      </trkpt>
      <trkpt lat="45.93762" lon="4.72403">
        <ele>171</ele>
        <time>2018-01-19T11:45:15Z</time>
      </trkpt>
      <trkpt lat="45.93758" lon="4.724">
        <ele>171</ele>
        <time>2018-01-19T11:45:16Z</time>
      </trkpt>
      <trkpt lat="45.93753" lon="4.72395">
        <ele>171</ele>
        <time>2018-01-19T11:45:17Z</time>
      </trkpt>
      <trkpt lat="45.93746" lon="4.7239">
        <ele>171</ele>
        <time>2018-01-19T11:45:19Z</time>
      </trkpt>
      <trkpt lat="45.93741" lon="4.72386">
        <ele>171</ele>
        <time>2018-01-19T11:45:20Z</time>
      </trkpt>
      <trkpt lat="45.93735" lon="4.72378">
        <ele>171</ele>
        <time>2018-01-19T11:45:22Z</time>
      </trkpt>
      <trkpt lat="45.93731" lon="4.72374">
        <ele>172</ele>
        <time>2018-01-19T11:45:23Z</time>
      </trkpt>
      <trkpt lat="45.93726" lon="4.7237">
        <ele>172</ele>
        <time>2018-01-19T11:45:24Z</time>
      </trkpt>
      <trkpt lat="45.93722" lon="4.72365">
        <ele>172</ele>
        <time>2018-01-19T11:45:25Z</time>
      </trkpt>
      <trkpt lat="45.93717" lon="4.72361">
        <ele>172</ele>
        <time>2018-01-19T11:45:26Z</time>
      </trkpt>
      <trkpt lat="45.93713" lon="4.72357">
        <ele>172</ele>
        <time>2018-01-19T11:45:27Z</time>
      </trkpt>
      <trkpt lat="45.93707" lon="4.72352">
        <ele>171</ele>
        <time>2018-01-19T11:45:29Z</time>
      </trkpt>
      <trkpt lat="45.93701" lon="4.72346">
        <ele>171</ele>
        <time>2018-01-19T11:45:32Z</time>
      </trkpt>
      <trkpt lat="45.93694" lon="4.72342">
        <ele>171</ele>
        <time>2018-01-19T11:45:34Z</time>
      </trkpt>
      <trkpt lat="45.93692" lon="4.72339">
        <ele>171</ele>
        <time>2018-01-19T11:45:35Z</time>
      </trkpt>
      <trkpt lat="45.93686" lon="4.72333">
        <ele>172</ele>
        <time>2018-01-19T11:45:36Z</time>
      </trkpt>
      <trkpt lat="45.93684" lon="4.72328">
        <ele>172</ele>
        <time>2018-01-19T11:45:37Z</time>
      </trkpt>
      <trkpt lat="45.93678" lon="4.72321">
        <ele>171</ele>
        <time>2018-01-19T11:45:39Z</time>
      </trkpt>
      <trkpt lat="45.93675" lon="4.72318">
        <ele>171</ele>
        <time>2018-01-19T11:45:40Z</time>
      </trkpt>
      <trkpt lat="45.93671" lon="4.72314">
        <ele>172</ele>
        <time>2018-01-19T11:45:41Z</time>
      </trkpt>
      <trkpt lat="45.93663" lon="4.72309">
        <ele>172</ele>
        <time>2018-01-19T11:45:42Z</time>
      </trkpt>
      <trkpt lat="45.93659" lon="4.72305">
        <ele>172</ele>
        <time>2018-01-19T11:45:43Z</time>
      </trkpt>
      <trkpt lat="45.93653" lon="4.72302">
        <ele>172</ele>
        <time>2018-01-19T11:45:44Z</time>
      </trkpt>
      <trkpt lat="45.93649" lon="4.72299">
        <ele>172</ele>
        <time>2018-01-19T11:45:45Z</time>
      </trkpt>
      <trkpt lat="45.93645" lon="4.72295">
        <ele>172</ele>
        <time>2018-01-19T11:45:46Z</time>
      </trkpt>
      <trkpt lat="45.93639" lon="4.72289">
        <ele>172</ele>
        <time>2018-01-19T11:45:48Z</time>
      </trkpt>
      <trkpt lat="45.93637" lon="4.72286">
        <ele>172</ele>
        <time>2018-01-19T11:45:49Z</time>
      </trkpt>
      <trkpt lat="45.93633" lon="4.72281">
        <ele>172</ele>
        <time>2018-01-19T11:45:51Z</time>
      </trkpt>
      <trkpt lat="45.93628" lon="4.72279">
        <ele>172</ele>
        <time>2018-01-19T11:45:52Z</time>
      </trkpt>
      <trkpt lat="45.9362" lon="4.72272">
        <ele>172</ele>
        <time>2018-01-19T11:45:54Z</time>
      </trkpt>
      <trkpt lat="45.93616" lon="4.72269">
        <ele>172</ele>
        <time>2018-01-19T11:45:55Z</time>
      </trkpt>
      <trkpt lat="45.93613" lon="4.72265">
        <ele>172</ele>
        <time>2018-01-19T11:45:56Z</time>
      </trkpt>
      <trkpt lat="45.93607" lon="4.72261">
        <ele>173</ele>
        <time>2018-01-19T11:45:57Z</time>
      </trkpt>
      <trkpt lat="45.93601" lon="4.72255">
        <ele>173</ele>
        <time>2018-01-19T11:45:59Z</time>
      </trkpt>
      <trkpt lat="45.936" lon="4.72253">
        <ele>173</ele>
        <time>2018-01-19T11:46:00Z</time>
      </trkpt>
      <trkpt lat="45.93595" lon="4.72246">
        <ele>173</ele>
        <time>2018-01-19T11:46:02Z</time>
      </trkpt>
      <trkpt lat="45.93591" lon="4.72243">
        <ele>173</ele>
        <time>2018-01-19T11:46:03Z</time>
      </trkpt>
      <trkpt lat="45.93586" lon="4.72236">
        <ele>173</ele>
        <time>2018-01-19T11:46:05Z</time>
      </trkpt>
      <trkpt lat="45.93584" lon="4.72233">
        <ele>173</ele>
        <time>2018-01-19T11:46:06Z</time>
      </trkpt>
      <trkpt lat="45.93577" lon="4.72227">
        <ele>173</ele>
        <time>2018-01-19T11:46:09Z</time>
      </trkpt>
      <trkpt lat="45.93574" lon="4.72226">
        <ele>173</ele>
        <time>2018-01-19T11:46:10Z</time>
      </trkpt>
      <trkpt lat="45.93565" lon="4.72229">
        <ele>173</ele>
        <time>2018-01-19T11:46:16Z</time>
      </trkpt>
      <trkpt lat="45.93564" lon="4.7223">
        <ele>173</ele>
        <time>2018-01-19T11:46:17Z</time>
      </trkpt>
      <trkpt lat="45.93556" lon="4.72237">
        <ele>173</ele>
        <time>2018-01-19T11:46:22Z</time>
      </trkpt>
      <trkpt lat="45.93555" lon="4.7224">
        <ele>173</ele>
        <time>2018-01-19T11:46:23Z</time>
      </trkpt>
      <trkpt lat="45.93551" lon="4.72249">
        <ele>172</ele>
        <time>2018-01-19T11:46:26Z</time>
      </trkpt>
      <trkpt lat="45.93549" lon="4.72252">
        <ele>172</ele>
        <time>2018-01-19T11:46:27Z</time>
      </trkpt>
      <trkpt lat="45.93545" lon="4.72262">
        <ele>172</ele>
        <time>2018-01-19T11:46:30Z</time>
      </trkpt>
      <trkpt lat="45.93544" lon="4.72267">
        <ele>172</ele>
        <time>2018-01-19T11:46:31Z</time>
      </trkpt>
      <trkpt lat="45.93541" lon="4.72275">
        <ele>172</ele>
        <time>2018-01-19T11:46:33Z</time>
      </trkpt>
      <trkpt lat="45.93539" lon="4.72279">
        <ele>172</ele>
        <time>2018-01-19T11:46:34Z</time>
      </trkpt>
      <trkpt lat="45.93535" lon="4.72288">
        <ele>172</ele>
        <time>2018-01-19T11:46:36Z</time>
      </trkpt>
      <trkpt lat="45.93534" lon="4.72292">
        <ele>172</ele>
        <time>2018-01-19T11:46:37Z</time>
      </trkpt>
      <trkpt lat="45.93529" lon="4.72301">
        <ele>173</ele>
        <time>2018-01-19T11:46:39Z</time>
      </trkpt>
      <trkpt lat="45.93527" lon="4.72305">
        <ele>173</ele>
        <time>2018-01-19T11:46:40Z</time>
      </trkpt>
      <trkpt lat="45.93524" lon="4.72312">
        <ele>173</ele>
        <time>2018-01-19T11:46:42Z</time>
      </trkpt>
      <trkpt lat="45.93522" lon="4.72316">
        <ele>173</ele>
        <time>2018-01-19T11:46:43Z</time>
      </trkpt>
      <trkpt lat="45.93516" lon="4.72324">
        <ele>173</ele>
        <time>2018-01-19T11:46:46Z</time>
      </trkpt>
      <trkpt lat="45.93514" lon="4.72325">
        <ele>173</ele>
        <time>2018-01-19T11:46:47Z</time>
      </trkpt>
      <trkpt lat="45.93507" lon="4.72328">
        <ele>173</ele>
        <time>2018-01-19T11:47:18Z</time>
      </trkpt>
      <trkpt lat="45.93505" lon="4.72327">
        <ele>173</ele>
        <time>2018-01-19T11:47:19Z</time>
      </trkpt>
      <trkpt lat="45.93496" lon="4.7233">
        <ele>173</ele>
        <time>2018-01-19T11:47:22Z</time>
      </trkpt>
      <trkpt lat="45.93494" lon="4.72333">
        <ele>173</ele>
        <time>2018-01-19T11:47:23Z</time>
      </trkpt>
      <trkpt lat="45.93487" lon="4.72342">
        <ele>173</ele>
        <time>2018-01-19T11:47:25Z</time>
      </trkpt>
      <trkpt lat="45.93484" lon="4.72343">
        <ele>173</ele>
        <time>2018-01-19T11:47:26Z</time>
      </trkpt>
      <trkpt lat="45.93481" lon="4.72347">
        <ele>173</ele>
        <time>2018-01-19T11:47:27Z</time>
      </trkpt>
      <trkpt lat="45.93477" lon="4.72352">
        <ele>173</ele>
        <time>2018-01-19T11:47:28Z</time>
      </trkpt>
      <trkpt lat="45.93473" lon="4.72356">
        <ele>173</ele>
        <time>2018-01-19T11:47:29Z</time>
      </trkpt>
      <trkpt lat="45.9347" lon="4.72362">
        <ele>173</ele>
        <time>2018-01-19T11:47:30Z</time>
      </trkpt>
      <trkpt lat="45.93466" lon="4.72367">
        <ele>173</ele>
        <time>2018-01-19T11:47:31Z</time>
      </trkpt>
      <trkpt lat="45.93461" lon="4.72371">
        <ele>173</ele>
        <time>2018-01-19T11:47:32Z</time>
      </trkpt>
      <trkpt lat="45.93457" lon="4.72376">
        <ele>173</ele>
        <time>2018-01-19T11:47:33Z</time>
      </trkpt>
      <trkpt lat="45.93451" lon="4.72379">
        <ele>173</ele>
        <time>2018-01-19T11:47:34Z</time>
      </trkpt>
      <trkpt lat="45.93447" lon="4.72386">
        <ele>173</ele>
        <time>2018-01-19T11:47:35Z</time>
      </trkpt>
      <trkpt lat="45.9344" lon="4.7239">
        <ele>173</ele>
        <time>2018-01-19T11:47:36Z</time>
      </trkpt>
      <trkpt lat="45.93433" lon="4.72393">
        <ele>173</ele>
        <time>2018-01-19T11:47:37Z</time>
      </trkpt>
      <trkpt lat="45.93428" lon="4.72395">
        <ele>174</ele>
        <time>2018-01-19T11:47:38Z</time>
      </trkpt>
      <trkpt lat="45.93422" lon="4.72397">
        <ele>174</ele>
        <time>2018-01-19T11:47:39Z</time>
      </trkpt>
      <trkpt lat="45.93419" lon="4.72399">
        <ele>174</ele>
        <time>2018-01-19T11:47:40Z</time>
      </trkpt>
      <trkpt lat="45.9341" lon="4.72401">
        <ele>174</ele>
        <time>2018-01-19T11:47:42Z</time>
      </trkpt>
      <trkpt lat="45.93406" lon="4.724">
        <ele>174</ele>
        <time>2018-01-19T11:47:43Z</time>
      </trkpt>
      <trkpt lat="45.93398" lon="4.72397">
        <ele>174</ele>
        <time>2018-01-19T11:47:45Z</time>
      </trkpt>
      <trkpt lat="45.93395" lon="4.72396">
        <ele>174</ele>
        <time>2018-01-19T11:47:46Z</time>
      </trkpt>
      <trkpt lat="45.93389" lon="4.72405">
        <ele>174</ele>
        <time>2018-01-19T11:47:48Z</time>
      </trkpt>
      <trkpt lat="45.93388" lon="4.72415">
        <ele>174</ele>
        <time>2018-01-19T11:47:49Z</time>
      </trkpt>
      <trkpt lat="45.93389" lon="4.72422">
        <ele>173</ele>
        <time>2018-01-19T11:47:50Z</time>
      </trkpt>
      <trkpt lat="45.93391" lon="4.72429">
        <ele>173</ele>
        <time>2018-01-19T11:47:51Z</time>
      </trkpt>
      <trkpt lat="45.93393" lon="4.72437">
        <ele>173</ele>
        <time>2018-01-19T11:47:52Z</time>
      </trkpt>
      <trkpt lat="45.93394" lon="4.72444">
        <ele>173</ele>
        <time>2018-01-19T11:47:53Z</time>
      </trkpt>
      <trkpt lat="45.93394" lon="4.72453">
        <ele>173</ele>
        <time>2018-01-19T11:47:54Z</time>
      </trkpt>
      <trkpt lat="45.93391" lon="4.7246">
        <ele>173</ele>
        <time>2018-01-19T11:47:55Z</time>
      </trkpt>
      <trkpt lat="45.93388" lon="4.72465">
        <ele>173</ele>
        <time>2018-01-19T11:47:56Z</time>
      </trkpt>
      <trkpt lat="45.93385" lon="4.7247">
        <ele>173</ele>
        <time>2018-01-19T11:47:57Z</time>
      </trkpt>
      <trkpt lat="45.93381" lon="4.72474">
        <ele>173</ele>
        <time>2018-01-19T11:47:58Z</time>
      </trkpt>
      <trkpt lat="45.93377" lon="4.72478">
        <ele>173</ele>
        <time>2018-01-19T11:47:59Z</time>
      </trkpt>
      <trkpt lat="45.93373" lon="4.72481">
        <ele>173</ele>
        <time>2018-01-19T11:48:00Z</time>
      </trkpt>
      <trkpt lat="45.93369" lon="4.72486">
        <ele>173</ele>
        <time>2018-01-19T11:48:01Z</time>
      </trkpt>
      <trkpt lat="45.93365" lon="4.72491">
        <ele>173</ele>
        <time>2018-01-19T11:48:02Z</time>
      </trkpt>
      <trkpt lat="45.93361" lon="4.72495">
        <ele>173</ele>
        <time>2018-01-19T11:48:03Z</time>
      </trkpt>
      <trkpt lat="45.93358" lon="4.72498">
        <ele>173</ele>
        <time>2018-01-19T11:48:04Z</time>
      </trkpt>
      <trkpt lat="45.93354" lon="4.72507">
        <ele>172</ele>
        <time>2018-01-19T11:48:05Z</time>
      </trkpt>
      <trkpt lat="45.9335" lon="4.72513">
        <ele>172</ele>
        <time>2018-01-19T11:48:06Z</time>
      </trkpt>
      <trkpt lat="45.93346" lon="4.72517">
        <ele>172</ele>
        <time>2018-01-19T11:48:07Z</time>
      </trkpt>
      <trkpt lat="45.93343" lon="4.7252">
        <ele>172</ele>
        <time>2018-01-19T11:48:08Z</time>
      </trkpt>
      <trkpt lat="45.93339" lon="4.72525">
        <ele>172</ele>
        <time>2018-01-19T11:48:09Z</time>
      </trkpt>
      <trkpt lat="45.93335" lon="4.72529">
        <ele>172</ele>
        <time>2018-01-19T11:48:10Z</time>
      </trkpt>
      <trkpt lat="45.93331" lon="4.72534">
        <ele>172</ele>
        <time>2018-01-19T11:48:11Z</time>
      </trkpt>
      <trkpt lat="45.93325" lon="4.72543">
        <ele>172</ele>
        <time>2018-01-19T11:48:13Z</time>
      </trkpt>
      <trkpt lat="45.93323" lon="4.72548">
        <ele>172</ele>
        <time>2018-01-19T11:48:14Z</time>
      </trkpt>
      <trkpt lat="45.93315" lon="4.72552">
        <ele>172</ele>
        <time>2018-01-19T11:48:15Z</time>
      </trkpt>
      <trkpt lat="45.93312" lon="4.72558">
        <ele>172</ele>
        <time>2018-01-19T11:48:16Z</time>
      </trkpt>
      <trkpt lat="45.93308" lon="4.72561">
        <ele>171</ele>
        <time>2018-01-19T11:48:17Z</time>
      </trkpt>
      <trkpt lat="45.93304" lon="4.72565">
        <ele>171</ele>
        <time>2018-01-19T11:48:18Z</time>
      </trkpt>
      <trkpt lat="45.93299" lon="4.7257">
        <ele>171</ele>
        <time>2018-01-19T11:48:19Z</time>
      </trkpt>
      <trkpt lat="45.93296" lon="4.72575">
        <ele>171</ele>
        <time>2018-01-19T11:48:20Z</time>
      </trkpt>
      <trkpt lat="45.93291" lon="4.7258">
        <ele>171</ele>
        <time>2018-01-19T11:48:21Z</time>
      </trkpt>
      <trkpt lat="45.93285" lon="4.72584">
        <ele>170</ele>
        <time>2018-01-19T11:48:22Z</time>
      </trkpt>
      <trkpt lat="45.93281" lon="4.72589">
        <ele>170</ele>
        <time>2018-01-19T11:48:23Z</time>
      </trkpt>
      <trkpt lat="45.93277" lon="4.72593">
        <ele>170</ele>
        <time>2018-01-19T11:48:24Z</time>
      </trkpt>
      <trkpt lat="45.93274" lon="4.72598">
        <ele>170</ele>
        <time>2018-01-19T11:48:25Z</time>
      </trkpt>
      <trkpt lat="45.93269" lon="4.72602">
        <ele>170</ele>
        <time>2018-01-19T11:48:26Z</time>
      </trkpt>
      <trkpt lat="45.93265" lon="4.72608">
        <ele>170</ele>
        <time>2018-01-19T11:48:27Z</time>
      </trkpt>
      <trkpt lat="45.93261" lon="4.72613">
        <ele>170</ele>
        <time>2018-01-19T11:48:28Z</time>
      </trkpt>
      <trkpt lat="45.93258" lon="4.72618">
        <ele>170</ele>
        <time>2018-01-19T11:48:29Z</time>
      </trkpt>
      <trkpt lat="45.93254" lon="4.72622">
        <ele>170</ele>
        <time>2018-01-19T11:48:30Z</time>
      </trkpt>
      <trkpt lat="45.93248" lon="4.72627">
        <ele>170</ele>
        <time>2018-01-19T11:48:31Z</time>
      </trkpt>
      <trkpt lat="45.93245" lon="4.72631">
        <ele>170</ele>
        <time>2018-01-19T11:48:32Z</time>
      </trkpt>
      <trkpt lat="45.9324" lon="4.72636">
        <ele>170</ele>
        <time>2018-01-19T11:48:33Z</time>
      </trkpt>
      <trkpt lat="45.93235" lon="4.7264">
        <ele>170</ele>
        <time>2018-01-19T11:48:34Z</time>
      </trkpt>
      <trkpt lat="45.93231" lon="4.72645">
        <ele>170</ele>
        <time>2018-01-19T11:48:35Z</time>
      </trkpt>
      <trkpt lat="45.93227" lon="4.72649">
        <ele>170</ele>
        <time>2018-01-19T11:48:36Z</time>
      </trkpt>
      <trkpt lat="45.93223" lon="4.72654">
        <ele>170</ele>
        <time>2018-01-19T11:48:37Z</time>
      </trkpt>
      <trkpt lat="45.93219" lon="4.7266">
        <ele>170</ele>
        <time>2018-01-19T11:48:38Z</time>
      </trkpt>
      <trkpt lat="45.93215" lon="4.72665">
        <ele>170</ele>
        <time>2018-01-19T11:48:39Z</time>
      </trkpt>
      <trkpt lat="45.93211" lon="4.72671">
        <ele>169</ele>
        <time>2018-01-19T11:48:40Z</time>
      </trkpt>
      <trkpt lat="45.93207" lon="4.72675">
        <ele>169</ele>
        <time>2018-01-19T11:48:41Z</time>
      </trkpt>
      <trkpt lat="45.93204" lon="4.7268">
        <ele>169</ele>
        <time>2018-01-19T11:48:42Z</time>
      </trkpt>
      <trkpt lat="45.932" lon="4.72685">
        <ele>169</ele>
        <time>2018-01-19T11:48:43Z</time>
      </trkpt>
      <trkpt lat="45.93196" lon="4.7269">
        <ele>169</ele>
        <time>2018-01-19T11:48:44Z</time>
      </trkpt>
      <trkpt lat="45.93192" lon="4.72694">
        <ele>169</ele>
        <time>2018-01-19T11:48:45Z</time>
      </trkpt>
      <trkpt lat="45.93187" lon="4.72698">
        <ele>169</ele>
        <time>2018-01-19T11:48:46Z</time>
      </trkpt>
      <trkpt lat="45.93183" lon="4.72703">
        <ele>169</ele>
        <time>2018-01-19T11:48:47Z</time>
      </trkpt>
      <trkpt lat="45.93178" lon="4.72708">
        <ele>169</ele>
        <time>2018-01-19T11:48:48Z</time>
      </trkpt>
      <trkpt lat="45.93176" lon="4.72713">
        <ele>169</ele>
        <time>2018-01-19T11:48:49Z</time>
      </trkpt>
      <trkpt lat="45.93171" lon="4.72718">
        <ele>170</ele>
        <time>2018-01-19T11:48:50Z</time>
      </trkpt>
      <trkpt lat="45.93166" lon="4.72723">
        <ele>170</ele>
        <time>2018-01-19T11:48:51Z</time>
      </trkpt>
      <trkpt lat="45.93162" lon="4.72729">
        <ele>170</ele>
        <time>2018-01-19T11:48:52Z</time>
      </trkpt>
      <trkpt lat="45.93157" lon="4.72735">
        <ele>170</ele>
        <time>2018-01-19T11:48:53Z</time>
      </trkpt>
      <trkpt lat="45.93153" lon="4.72739">
        <ele>170</ele>
        <time>2018-01-19T11:48:54Z</time>
      </trkpt>
      <trkpt lat="45.93149" lon="4.72744">
        <ele>170</ele>
        <time>2018-01-19T11:48:55Z</time>
      </trkpt>
      <trkpt lat="45.93145" lon="4.72749">
        <ele>170</ele>
        <time>2018-01-19T11:48:56Z</time>
      </trkpt>
      <trkpt lat="45.93143" lon="4.72755">
        <ele>171</ele>
        <time>2018-01-19T11:48:57Z</time>
      </trkpt>
      <trkpt lat="45.93138" lon="4.72759">
        <ele>171</ele>
        <time>2018-01-19T11:48:58Z</time>
      </trkpt>
      <trkpt lat="45.93135" lon="4.72764">
        <ele>171</ele>
        <time>2018-01-19T11:48:59Z</time>
      </trkpt>
      <trkpt lat="45.93132" lon="4.72768">
        <ele>171</ele>
        <time>2018-01-19T11:49:00Z</time>
      </trkpt>
      <trkpt lat="45.93128" lon="4.72773">
        <ele>171</ele>
        <time>2018-01-19T11:49:01Z</time>
      </trkpt>
      <trkpt lat="45.93124" lon="4.72779">
        <ele>171</ele>
        <time>2018-01-19T11:49:02Z</time>
      </trkpt>
      <trkpt lat="45.93121" lon="4.72784">
        <ele>171</ele>
        <time>2018-01-19T11:49:03Z</time>
      </trkpt>
      <trkpt lat="45.93117" lon="4.72788">
        <ele>171</ele>
        <time>2018-01-19T11:49:04Z</time>
      </trkpt>
      <trkpt lat="45.93113" lon="4.72793">
        <ele>171</ele>
        <time>2018-01-19T11:49:05Z</time>
      </trkpt>
      <trkpt lat="45.93109" lon="4.72798">
        <ele>171</ele>
        <time>2018-01-19T11:49:06Z</time>
      </trkpt>
      <trkpt lat="45.93106" lon="4.72804">
        <ele>171</ele>
        <time>2018-01-19T11:49:07Z</time>
      </trkpt>
      <trkpt lat="45.93102" lon="4.72808">
        <ele>171</ele>
        <time>2018-01-19T11:49:08Z</time>
      </trkpt>
      <trkpt lat="45.93098" lon="4.72812">
        <ele>172</ele>
        <time>2018-01-19T11:49:09Z</time>
      </trkpt>
      <trkpt lat="45.93094" lon="4.72815">
        <ele>172</ele>
        <time>2018-01-19T11:49:10Z</time>
      </trkpt>
      <trkpt lat="45.9309" lon="4.72819">
        <ele>172</ele>
        <time>2018-01-19T11:49:11Z</time>
      </trkpt>
      <trkpt lat="45.93086" lon="4.72823">
        <ele>172</ele>
        <time>2018-01-19T11:49:12Z</time>
      </trkpt>
      <trkpt lat="45.9308" lon="4.72828">
        <ele>173</ele>
        <time>2018-01-19T11:49:14Z</time>
      </trkpt>
      <trkpt lat="45.93078" lon="4.7283">
        <ele>173</ele>
        <time>2018-01-19T11:49:15Z</time>
      </trkpt>
      <trkpt lat="45.93074" lon="4.72836">
        <ele>173</ele>
        <time>2018-01-19T11:49:17Z</time>
      </trkpt>
      <trkpt lat="45.9307" lon="4.72852">
        <ele>172</ele>
        <time>2018-01-19T11:49:18Z</time>
      </trkpt>
      <trkpt lat="45.93068" lon="4.72854">
        <ele>172</ele>
        <time>2018-01-19T11:49:19Z</time>
      </trkpt>
      <trkpt lat="45.93057" lon="4.72845">
        <ele>172</ele>
        <time>2018-01-19T11:49:20Z</time>
      </trkpt>
      <trkpt lat="45.9305" lon="4.72854">
        <ele>172</ele>
        <time>2018-01-19T11:49:21Z</time>
      </trkpt>
      <trkpt lat="45.93046" lon="4.72865">
        <ele>172</ele>
        <time>2018-01-19T11:49:22Z</time>
      </trkpt>
      <trkpt lat="45.93042" lon="4.72869">
        <ele>172</ele>
        <time>2018-01-19T11:49:23Z</time>
      </trkpt>
      <trkpt lat="45.93038" lon="4.72874">
        <ele>172</ele>
        <time>2018-01-19T11:49:24Z</time>
      </trkpt>
      <trkpt lat="45.93034" lon="4.72878">
        <ele>172</ele>
        <time>2018-01-19T11:49:25Z</time>
      </trkpt>
      <trkpt lat="45.9303" lon="4.72883">
        <ele>172</ele>
        <time>2018-01-19T11:49:26Z</time>
      </trkpt>
      <trkpt lat="45.93026" lon="4.72888">
        <ele>172</ele>
        <time>2018-01-19T11:49:27Z</time>
      </trkpt>
      <trkpt lat="45.93022" lon="4.72893">
        <ele>172</ele>
        <time>2018-01-19T11:49:28Z</time>
      </trkpt>
      <trkpt lat="45.93017" lon="4.72897">
        <ele>172</ele>
        <time>2018-01-19T11:49:29Z</time>
      </trkpt>
      <trkpt lat="45.93013" lon="4.72901">
        <ele>172</ele>
        <time>2018-01-19T11:49:30Z</time>
      </trkpt>
      <trkpt lat="45.93009" lon="4.72906">
        <ele>171</ele>
        <time>2018-01-19T11:49:31Z</time>
      </trkpt>
      <trkpt lat="45.93005" lon="4.72911">
        <ele>171</ele>
        <time>2018-01-19T11:49:32Z</time>
      </trkpt>
      <trkpt lat="45.93001" lon="4.72915">
        <ele>171</ele>
        <time>2018-01-19T11:49:33Z</time>
      </trkpt>
      <trkpt lat="45.92996" lon="4.72919">
        <ele>171</ele>
        <time>2018-01-19T11:49:34Z</time>
      </trkpt>
      <trkpt lat="45.92993" lon="4.72925">
        <ele>171</ele>
        <time>2018-01-19T11:49:35Z</time>
      </trkpt>
      <trkpt lat="45.92989" lon="4.7293">
        <ele>171</ele>
        <time>2018-01-19T11:49:36Z</time>
      </trkpt>
      <trkpt lat="45.92985" lon="4.72933">
        <ele>171</ele>
        <time>2018-01-19T11:49:37Z</time>
      </trkpt>
      <trkpt lat="45.92981" lon="4.72938">
        <ele>171</ele>
        <time>2018-01-19T11:49:38Z</time>
      </trkpt>
      <trkpt lat="45.92978" lon="4.72942">
        <ele>171</ele>
        <time>2018-01-19T11:49:39Z</time>
      </trkpt>
      <trkpt lat="45.92975" lon="4.72948">
        <ele>171</ele>
        <time>2018-01-19T11:49:40Z</time>
      </trkpt>
      <trkpt lat="45.92972" lon="4.72952">
        <ele>171</ele>
        <time>2018-01-19T11:49:41Z</time>
      </trkpt>
      <trkpt lat="45.92968" lon="4.72956">
        <ele>171</ele>
        <time>2018-01-19T11:49:42Z</time>
      </trkpt>
      <trkpt lat="45.92964" lon="4.72961">
        <ele>171</ele>
        <time>2018-01-19T11:49:43Z</time>
      </trkpt>
      <trkpt lat="45.92961" lon="4.72966">
        <ele>171</ele>
        <time>2018-01-19T11:49:44Z</time>
      </trkpt>
      <trkpt lat="45.92957" lon="4.7297">
        <ele>171</ele>
        <time>2018-01-19T11:49:45Z</time>
      </trkpt>
      <trkpt lat="45.92953" lon="4.72974">
        <ele>171</ele>
        <time>2018-01-19T11:49:46Z</time>
      </trkpt>
      <trkpt lat="45.9295" lon="4.72978">
        <ele>171</ele>
        <time>2018-01-19T11:49:47Z</time>
      </trkpt>
      <trkpt lat="45.92947" lon="4.72983">
        <ele>171</ele>
        <time>2018-01-19T11:49:48Z</time>
      </trkpt>
      <trkpt lat="45.92943" lon="4.72987">
        <ele>171</ele>
        <time>2018-01-19T11:49:49Z</time>
      </trkpt>
      <trkpt lat="45.9294" lon="4.72992">
        <ele>171</ele>
        <time>2018-01-19T11:49:50Z</time>
      </trkpt>
      <trkpt lat="45.92936" lon="4.72998">
        <ele>171</ele>
        <time>2018-01-19T11:49:51Z</time>
      </trkpt>
      <trkpt lat="45.92932" lon="4.73003">
        <ele>171</ele>
        <time>2018-01-19T11:49:52Z</time>
      </trkpt>
      <trkpt lat="45.92929" lon="4.73006">
        <ele>172</ele>
        <time>2018-01-19T11:49:53Z</time>
      </trkpt>
      <trkpt lat="45.92925" lon="4.73011">
        <ele>172</ele>
        <time>2018-01-19T11:49:54Z</time>
      </trkpt>
      <trkpt lat="45.92921" lon="4.73015">
        <ele>172</ele>
        <time>2018-01-19T11:49:55Z</time>
      </trkpt>
      <trkpt lat="45.92918" lon="4.7302">
        <ele>172</ele>
        <time>2018-01-19T11:49:56Z</time>
      </trkpt>
      <trkpt lat="45.92914" lon="4.73024">
        <ele>172</ele>
        <time>2018-01-19T11:49:57Z</time>
      </trkpt>
      <trkpt lat="45.92911" lon="4.73029">
        <ele>172</ele>
        <time>2018-01-19T11:49:58Z</time>
      </trkpt>
      <trkpt lat="45.92907" lon="4.73034">
        <ele>172</ele>
        <time>2018-01-19T11:49:59Z</time>
      </trkpt>
      <trkpt lat="45.92903" lon="4.73039">
        <ele>172</ele>
        <time>2018-01-19T11:50:00Z</time>
      </trkpt>
      <trkpt lat="45.92897" lon="4.73048">
        <ele>172</ele>
        <time>2018-01-19T11:50:02Z</time>
      </trkpt>
      <trkpt lat="45.92894" lon="4.73052">
        <ele>172</ele>
        <time>2018-01-19T11:50:03Z</time>
      </trkpt>
      <trkpt lat="45.92891" lon="4.73058">
        <ele>172</ele>
        <time>2018-01-19T11:50:04Z</time>
      </trkpt>
      <trkpt lat="45.92888" lon="4.73063">
        <ele>172</ele>
        <time>2018-01-19T11:50:05Z</time>
      </trkpt>
      <trkpt lat="45.92885" lon="4.73067">
        <ele>172</ele>
        <time>2018-01-19T11:50:06Z</time>
      </trkpt>
      <trkpt lat="45.92881" lon="4.73072">
        <ele>172</ele>
        <time>2018-01-19T11:50:07Z</time>
      </trkpt>
      <trkpt lat="45.92876" lon="4.73081">
        <ele>172</ele>
        <time>2018-01-19T11:50:09Z</time>
      </trkpt>
      <trkpt lat="45.92873" lon="4.73085">
        <ele>172</ele>
        <time>2018-01-19T11:50:10Z</time>
      </trkpt>
      <trkpt lat="45.92869" lon="4.7309">
        <ele>172</ele>
        <time>2018-01-19T11:50:11Z</time>
      </trkpt>
      <trkpt lat="45.92866" lon="4.73096">
        <ele>172</ele>
        <time>2018-01-19T11:50:12Z</time>
      </trkpt>
      <trkpt lat="45.92858" lon="4.73102">
        <ele>171</ele>
        <time>2018-01-19T11:50:14Z</time>
      </trkpt>
      <trkpt lat="45.92854" lon="4.73104">
        <ele>171</ele>
        <time>2018-01-19T11:50:15Z</time>
      </trkpt>
      <trkpt lat="45.92852" lon="4.73097">
        <ele>171</ele>
        <time>2018-01-19T11:50:16Z</time>
      </trkpt>
      <trkpt lat="45.92849" lon="4.73092">
        <ele>171</ele>
        <time>2018-01-19T11:50:17Z</time>
      </trkpt>
      <trkpt lat="45.92847" lon="4.73084">
        <ele>171</ele>
        <time>2018-01-19T11:50:18Z</time>
      </trkpt>
      <trkpt lat="45.92849" lon="4.73078">
        <ele>171</ele>
        <time>2018-01-19T11:50:19Z</time>
      </trkpt>
      <trkpt lat="45.92849" lon="4.7307">
        <ele>171</ele>
        <time>2018-01-19T11:50:20Z</time>
      </trkpt>
      <trkpt lat="45.92847" lon="4.73063">
        <ele>171</ele>
        <time>2018-01-19T11:50:21Z</time>
      </trkpt>
      <trkpt lat="45.92846" lon="4.73056">
        <ele>171</ele>
        <time>2018-01-19T11:50:22Z</time>
      </trkpt>
      <trkpt lat="45.92845" lon="4.7305">
        <ele>171</ele>
        <time>2018-01-19T11:50:23Z</time>
      </trkpt>
      <trkpt lat="45.92843" lon="4.73042">
        <ele>171</ele>
        <time>2018-01-19T11:50:24Z</time>
      </trkpt>
      <trkpt lat="45.92841" lon="4.73034">
        <ele>171</ele>
        <time>2018-01-19T11:50:25Z</time>
      </trkpt>
      <trkpt lat="45.9284" lon="4.73027">
        <ele>171</ele>
        <time>2018-01-19T11:50:26Z</time>
      </trkpt>
      <trkpt lat="45.92838" lon="4.7302">
        <ele>171</ele>
        <time>2018-01-19T11:50:27Z</time>
      </trkpt>
      <trkpt lat="45.92837" lon="4.73008">
        <ele>170</ele>
        <time>2018-01-19T11:50:29Z</time>
      </trkpt>
      <trkpt lat="45.92838" lon="4.73003">
        <ele>170</ele>
        <time>2018-01-19T11:50:30Z</time>
      </trkpt>
      <trkpt lat="45.92836" lon="4.72991">
        <ele>170</ele>
        <time>2018-01-19T11:50:32Z</time>
      </trkpt>
      <trkpt lat="45.92837" lon="4.72986">
        <ele>170</ele>
        <time>2018-01-19T11:50:33Z</time>
      </trkpt>
      <trkpt lat="45.92836" lon="4.72979">
        <ele>171</ele>
        <time>2018-01-19T11:50:34Z</time>
      </trkpt>
      <trkpt lat="45.92836" lon="4.72972">
        <ele>171</ele>
        <time>2018-01-19T11:50:35Z</time>
      </trkpt>
      <trkpt lat="45.92834" lon="4.72965">
        <ele>171</ele>
        <time>2018-01-19T11:50:36Z</time>
      </trkpt>
      <trkpt lat="45.92834" lon="4.72958">
        <ele>171</ele>
        <time>2018-01-19T11:50:37Z</time>
      </trkpt>
      <trkpt lat="45.92833" lon="4.72952">
        <ele>170</ele>
        <time>2018-01-19T11:50:38Z</time>
      </trkpt>
      <trkpt lat="45.92833" lon="4.72945">
        <ele>170</ele>
        <time>2018-01-19T11:50:39Z</time>
      </trkpt>
      <trkpt lat="45.92833" lon="4.72939">
        <ele>170</ele>
        <time>2018-01-19T11:50:40Z</time>
      </trkpt>
      <trkpt lat="45.92831" lon="4.72932">
        <ele>170</ele>
        <time>2018-01-19T11:50:41Z</time>
      </trkpt>
      <trkpt lat="45.92831" lon="4.72919">
        <ele>170</ele>
        <time>2018-01-19T11:50:43Z</time>
      </trkpt>
      <trkpt lat="45.92832" lon="4.72914">
        <ele>170</ele>
        <time>2018-01-19T11:50:44Z</time>
      </trkpt>
      <trkpt lat="45.92831" lon="4.72908">
        <ele>170</ele>
        <time>2018-01-19T11:50:45Z</time>
      </trkpt>
      <trkpt lat="45.9283" lon="4.729">
        <ele>170</ele>
        <time>2018-01-19T11:50:46Z</time>
      </trkpt>
      <trkpt lat="45.92829" lon="4.72894">
        <ele>170</ele>
        <time>2018-01-19T11:50:47Z</time>
      </trkpt>
      <trkpt lat="45.92826" lon="4.72885">
        <ele>170</ele>
        <time>2018-01-19T11:50:48Z</time>
      </trkpt>
      <trkpt lat="45.92825" lon="4.72878">
        <ele>170</ele>
        <time>2018-01-19T11:50:49Z</time>
      </trkpt>
      <trkpt lat="45.92827" lon="4.72869">
        <ele>170</ele>
        <time>2018-01-19T11:50:50Z</time>
      </trkpt>
      <trkpt lat="45.92826" lon="4.72863">
        <ele>170</ele>
        <time>2018-01-19T11:50:51Z</time>
      </trkpt>
      <trkpt lat="45.92825" lon="4.72857">
        <ele>170</ele>
        <time>2018-01-19T11:50:52Z</time>
      </trkpt>
      <trkpt lat="45.92824" lon="4.7285">
        <ele>170</ele>
        <time>2018-01-19T11:50:53Z</time>
      </trkpt>
      <trkpt lat="45.92821" lon="4.72843">
        <ele>170</ele>
        <time>2018-01-19T11:50:54Z</time>
      </trkpt>
      <trkpt lat="45.9282" lon="4.72836">
        <ele>171</ele>
        <time>2018-01-19T11:50:55Z</time>
      </trkpt>
      <trkpt lat="45.92818" lon="4.7283">
        <ele>171</ele>
        <time>2018-01-19T11:50:56Z</time>
      </trkpt>
      <trkpt lat="45.92818" lon="4.72819">
        <ele>171</ele>
        <time>2018-01-19T11:50:58Z</time>
      </trkpt>
      <trkpt lat="45.92819" lon="4.72813">
        <ele>171</ele>
        <time>2018-01-19T11:50:59Z</time>
      </trkpt>
      <trkpt lat="45.92815" lon="4.72802">
        <ele>171</ele>
        <time>2018-01-19T11:51:01Z</time>
      </trkpt>
      <trkpt lat="45.92814" lon="4.72798">
        <ele>171</ele>
        <time>2018-01-19T11:51:02Z</time>
      </trkpt>
      <trkpt lat="45.92808" lon="4.7279">
        <ele>171</ele>
        <time>2018-01-19T11:51:04Z</time>
      </trkpt>
      <trkpt lat="45.92804" lon="4.72789">
        <ele>171</ele>
        <time>2018-01-19T11:51:05Z</time>
      </trkpt>
      <trkpt lat="45.92796" lon="4.72789">
        <ele>171</ele>
        <time>2018-01-19T11:51:06Z</time>
      </trkpt>
      <trkpt lat="45.92793" lon="4.72791">
        <ele>171</ele>
        <time>2018-01-19T11:51:07Z</time>
      </trkpt>
      <trkpt lat="45.92789" lon="4.72794">
        <ele>170</ele>
        <time>2018-01-19T11:51:08Z</time>
      </trkpt>
      <trkpt lat="45.92785" lon="4.72797">
        <ele>170</ele>
        <time>2018-01-19T11:51:09Z</time>
      </trkpt>
      <trkpt lat="45.92777" lon="4.72803">
        <ele>170</ele>
        <time>2018-01-19T11:51:11Z</time>
      </trkpt>
      <trkpt lat="45.92772" lon="4.72805">
        <ele>170</ele>
        <time>2018-01-19T11:51:12Z</time>
      </trkpt>
      <trkpt lat="45.92765" lon="4.72811">
        <ele>170</ele>
        <time>2018-01-19T11:51:14Z</time>
      </trkpt>
      <trkpt lat="45.9276" lon="4.72813">
        <ele>170</ele>
        <time>2018-01-19T11:51:15Z</time>
      </trkpt>
      <trkpt lat="45.92753" lon="4.72819">
        <ele>170</ele>
        <time>2018-01-19T11:51:17Z</time>
      </trkpt>
      <trkpt lat="45.92749" lon="4.72822">
        <ele>169</ele>
        <time>2018-01-19T11:51:18Z</time>
      </trkpt>
      <trkpt lat="45.92741" lon="4.72826">
        <ele>169</ele>
        <time>2018-01-19T11:51:20Z</time>
      </trkpt>
      <trkpt lat="45.92737" lon="4.72828">
        <ele>169</ele>
        <time>2018-01-19T11:51:21Z</time>
      </trkpt>
      <trkpt lat="45.92733" lon="4.72832">
        <ele>169</ele>
        <time>2018-01-19T11:51:22Z</time>
      </trkpt>
      <trkpt lat="45.92729" lon="4.72836">
        <ele>169</ele>
        <time>2018-01-19T11:51:23Z</time>
      </trkpt>
      <trkpt lat="45.92723" lon="4.72842">
        <ele>169</ele>
        <time>2018-01-19T11:51:25Z</time>
      </trkpt>
      <trkpt lat="45.92718" lon="4.72845">
        <ele>169</ele>
        <time>2018-01-19T11:51:26Z</time>
      </trkpt>
      <trkpt lat="45.92714" lon="4.72849">
        <ele>169</ele>
        <time>2018-01-19T11:51:27Z</time>
      </trkpt>
      <trkpt lat="45.9271" lon="4.72852">
        <ele>169</ele>
        <time>2018-01-19T11:51:28Z</time>
      </trkpt>
      <trkpt lat="45.92705" lon="4.72856">
        <ele>169</ele>
        <time>2018-01-19T11:51:29Z</time>
      </trkpt>
      <trkpt lat="45.92701" lon="4.7286">
        <ele>169</ele>
        <time>2018-01-19T11:51:30Z</time>
      </trkpt>
      <trkpt lat="45.92697" lon="4.72863">
        <ele>169</ele>
        <time>2018-01-19T11:51:31Z</time>
      </trkpt>
      <trkpt lat="45.92692" lon="4.72867">
        <ele>169</ele>
        <time>2018-01-19T11:51:32Z</time>
      </trkpt>
      <trkpt lat="45.92688" lon="4.72871">
        <ele>169</ele>
        <time>2018-01-19T11:51:33Z</time>
      </trkpt>
      <trkpt lat="45.92684" lon="4.72875">
        <ele>169</ele>
        <time>2018-01-19T11:51:34Z</time>
      </trkpt>
      <trkpt lat="45.92681" lon="4.72879">
        <ele>170</ele>
        <time>2018-01-19T11:51:35Z</time>
      </trkpt>
      <trkpt lat="45.92677" lon="4.72882">
        <ele>170</ele>
        <time>2018-01-19T11:51:36Z</time>
      </trkpt>
      <trkpt lat="45.92672" lon="4.72886">
        <ele>170</ele>
        <time>2018-01-19T11:51:37Z</time>
      </trkpt>
      <trkpt lat="45.92668" lon="4.72889">
        <ele>170</ele>
        <time>2018-01-19T11:51:38Z</time>
      </trkpt>
      <trkpt lat="45.92663" lon="4.72894">
        <ele>170</ele>
        <time>2018-01-19T11:51:39Z</time>
      </trkpt>
      <trkpt lat="45.92659" lon="4.72897">
        <ele>170</ele>
        <time>2018-01-19T11:51:40Z</time>
      </trkpt>
      <trkpt lat="45.92655" lon="4.72901">
        <ele>170</ele>
        <time>2018-01-19T11:51:41Z</time>
      </trkpt>
      <trkpt lat="45.9265" lon="4.72904">
        <ele>170</ele>
        <time>2018-01-19T11:51:42Z</time>
      </trkpt>
      <trkpt lat="45.92645" lon="4.72907">
        <ele>170</ele>
        <time>2018-01-19T11:51:43Z</time>
      </trkpt>
      <trkpt lat="45.92641" lon="4.7291">
        <ele>169</ele>
        <time>2018-01-19T11:51:44Z</time>
      </trkpt>
      <trkpt lat="45.92636" lon="4.72914">
        <ele>169</ele>
        <time>2018-01-19T11:51:45Z</time>
      </trkpt>
      <trkpt lat="45.92631" lon="4.72917">
        <ele>170</ele>
        <time>2018-01-19T11:51:46Z</time>
      </trkpt>
      <trkpt lat="45.92626" lon="4.72921">
        <ele>170</ele>
        <time>2018-01-19T11:51:47Z</time>
      </trkpt>
      <trkpt lat="45.92621" lon="4.72925">
        <ele>169</ele>
        <time>2018-01-19T11:51:48Z</time>
      </trkpt>
      <trkpt lat="45.92616" lon="4.72929">
        <ele>169</ele>
        <time>2018-01-19T11:51:49Z</time>
      </trkpt>
      <trkpt lat="45.92611" lon="4.72932">
        <ele>169</ele>
        <time>2018-01-19T11:51:50Z</time>
      </trkpt>
      <trkpt lat="45.92607" lon="4.72937">
        <ele>169</ele>
        <time>2018-01-19T11:51:51Z</time>
      </trkpt>
      <trkpt lat="45.92603" lon="4.72941">
        <ele>169</ele>
        <time>2018-01-19T11:51:52Z</time>
      </trkpt>
      <trkpt lat="45.92599" lon="4.72948">
        <ele>169</ele>
        <time>2018-01-19T11:51:53Z</time>
      </trkpt>
      <trkpt lat="45.92594" lon="4.72954">
        <ele>169</ele>
        <time>2018-01-19T11:51:54Z</time>
      </trkpt>
      <trkpt lat="45.9259" lon="4.72959">
        <ele>169</ele>
        <time>2018-01-19T11:51:55Z</time>
      </trkpt>
      <trkpt lat="45.92586" lon="4.72963">
        <ele>169</ele>
        <time>2018-01-19T11:51:56Z</time>
      </trkpt>
      <trkpt lat="45.92581" lon="4.72968">
        <ele>169</ele>
        <time>2018-01-19T11:51:57Z</time>
      </trkpt>
      <trkpt lat="45.92576" lon="4.72972">
        <ele>169</ele>
        <time>2018-01-19T11:51:58Z</time>
      </trkpt>
      <trkpt lat="45.92572" lon="4.72978">
        <ele>169</ele>
        <time>2018-01-19T11:51:59Z</time>
      </trkpt>
      <trkpt lat="45.92567" lon="4.72983">
        <ele>169</ele>
        <time>2018-01-19T11:52:00Z</time>
      </trkpt>
      <trkpt lat="45.92563" lon="4.72987">
        <ele>169</ele>
        <time>2018-01-19T11:52:01Z</time>
      </trkpt>
      <trkpt lat="45.92558" lon="4.72992">
        <ele>169</ele>
        <time>2018-01-19T11:52:02Z</time>
      </trkpt>
      <trkpt lat="45.92554" lon="4.72997">
        <ele>169</ele>
        <time>2018-01-19T11:52:03Z</time>
      </trkpt>
      <trkpt lat="45.92548" lon="4.73002">
        <ele>169</ele>
        <time>2018-01-19T11:52:04Z</time>
      </trkpt>
      <trkpt lat="45.92542" lon="4.73007">
        <ele>169</ele>
        <time>2018-01-19T11:52:05Z</time>
      </trkpt>
      <trkpt lat="45.92537" lon="4.73012">
        <ele>169</ele>
        <time>2018-01-19T11:52:06Z</time>
      </trkpt>
      <trkpt lat="45.92532" lon="4.73018">
        <ele>169</ele>
        <time>2018-01-19T11:52:07Z</time>
      </trkpt>
      <trkpt lat="45.92527" lon="4.73023">
        <ele>169</ele>
        <time>2018-01-19T11:52:08Z</time>
      </trkpt>
      <trkpt lat="45.92522" lon="4.73028">
        <ele>169</ele>
        <time>2018-01-19T11:52:09Z</time>
      </trkpt>
      <trkpt lat="45.92517" lon="4.73033">
        <ele>169</ele>
        <time>2018-01-19T11:52:10Z</time>
      </trkpt>
      <trkpt lat="45.92512" lon="4.73037">
        <ele>169</ele>
        <time>2018-01-19T11:52:11Z</time>
      </trkpt>
      <trkpt lat="45.92507" lon="4.73041">
        <ele>169</ele>
        <time>2018-01-19T11:52:12Z</time>
      </trkpt>
      <trkpt lat="45.92501" lon="4.73046">
        <ele>170</ele>
        <time>2018-01-19T11:52:13Z</time>
      </trkpt>
      <trkpt lat="45.92496" lon="4.73051">
        <ele>170</ele>
        <time>2018-01-19T11:52:14Z</time>
      </trkpt>
      <trkpt lat="45.92492" lon="4.73056">
        <ele>170</ele>
        <time>2018-01-19T11:52:15Z</time>
      </trkpt>
      <trkpt lat="45.92486" lon="4.73065">
        <ele>170</ele>
        <time>2018-01-19T11:52:16Z</time>
      </trkpt>
      <trkpt lat="45.92481" lon="4.7307">
        <ele>170</ele>
        <time>2018-01-19T11:52:17Z</time>
      </trkpt>
      <trkpt lat="45.92476" lon="4.73074">
        <ele>170</ele>
        <time>2018-01-19T11:52:18Z</time>
      </trkpt>
      <trkpt lat="45.9247" lon="4.73077">
        <ele>170</ele>
        <time>2018-01-19T11:52:19Z</time>
      </trkpt>
      <trkpt lat="45.92465" lon="4.73082">
        <ele>170</ele>
        <time>2018-01-19T11:52:20Z</time>
      </trkpt>
      <trkpt lat="45.9246" lon="4.73086">
        <ele>170</ele>
        <time>2018-01-19T11:52:21Z</time>
      </trkpt>
      <trkpt lat="45.92456" lon="4.7309">
        <ele>170</ele>
        <time>2018-01-19T11:52:22Z</time>
      </trkpt>
      <trkpt lat="45.92451" lon="4.73094">
        <ele>170</ele>
        <time>2018-01-19T11:52:23Z</time>
      </trkpt>
      <trkpt lat="45.92446" lon="4.73097">
        <ele>170</ele>
        <time>2018-01-19T11:52:24Z</time>
      </trkpt>
      <trkpt lat="45.92442" lon="4.731">
        <ele>170</ele>
        <time>2018-01-19T11:52:25Z</time>
      </trkpt>
      <trkpt lat="45.92437" lon="4.73104">
        <ele>170</ele>
        <time>2018-01-19T11:52:26Z</time>
      </trkpt>
      <trkpt lat="45.92434" lon="4.73109">
        <ele>170</ele>
        <time>2018-01-19T11:52:27Z</time>
      </trkpt>
      <trkpt lat="45.92429" lon="4.73113">
        <ele>170</ele>
        <time>2018-01-19T11:52:28Z</time>
      </trkpt>
      <trkpt lat="45.92424" lon="4.73117">
        <ele>170</ele>
        <time>2018-01-19T11:52:29Z</time>
      </trkpt>
      <trkpt lat="45.9242" lon="4.73121">
        <ele>170</ele>
        <time>2018-01-19T11:52:30Z</time>
      </trkpt>
      <trkpt lat="45.92416" lon="4.73126">
        <ele>171</ele>
        <time>2018-01-19T11:52:31Z</time>
      </trkpt>
      <trkpt lat="45.92414" lon="4.73132">
        <ele>171</ele>
        <time>2018-01-19T11:52:32Z</time>
      </trkpt>
      <trkpt lat="45.92413" lon="4.73138">
        <ele>171</ele>
        <time>2018-01-19T11:52:33Z</time>
      </trkpt>
      <trkpt lat="45.92412" lon="4.73145">
        <ele>171</ele>
        <time>2018-01-19T11:52:34Z</time>
      </trkpt>
      <trkpt lat="45.92412" lon="4.73153">
        <ele>170</ele>
        <time>2018-01-19T11:52:35Z</time>
      </trkpt>
      <trkpt lat="45.92412" lon="4.73161">
        <ele>170</ele>
        <time>2018-01-19T11:52:36Z</time>
      </trkpt>
      <trkpt lat="45.92412" lon="4.73169">
        <ele>170</ele>
        <time>2018-01-19T11:52:37Z</time>
      </trkpt>
      <trkpt lat="45.92412" lon="4.73176">
        <ele>170</ele>
        <time>2018-01-19T11:52:38Z</time>
      </trkpt>
      <trkpt lat="45.92412" lon="4.73183">
        <ele>171</ele>
        <time>2018-01-19T11:52:39Z</time>
      </trkpt>
      <trkpt lat="45.92412" lon="4.7319">
        <ele>171</ele>
        <time>2018-01-19T11:52:40Z</time>
      </trkpt>
      <trkpt lat="45.92412" lon="4.73197">
        <ele>171</ele>
        <time>2018-01-19T11:52:41Z</time>
      </trkpt>
      <trkpt lat="45.92412" lon="4.73203">
        <ele>171</ele>
        <time>2018-01-19T11:52:42Z</time>
      </trkpt>
      <trkpt lat="45.92412" lon="4.73211">
        <ele>171</ele>
        <time>2018-01-19T11:52:43Z</time>
      </trkpt>
      <trkpt lat="45.92412" lon="4.73217">
        <ele>171</ele>
        <time>2018-01-19T11:52:44Z</time>
      </trkpt>
      <trkpt lat="45.92412" lon="4.73225">
        <ele>171</ele>
        <time>2018-01-19T11:52:45Z</time>
      </trkpt>
      <trkpt lat="45.92413" lon="4.73232">
        <ele>171</ele>
        <time>2018-01-19T11:52:46Z</time>
      </trkpt>
      <trkpt lat="45.92413" lon="4.73239">
        <ele>171</ele>
        <time>2018-01-19T11:52:47Z</time>
      </trkpt>
      <trkpt lat="45.92413" lon="4.73247">
        <ele>171</ele>
        <time>2018-01-19T11:52:48Z</time>
      </trkpt>
      <trkpt lat="45.92413" lon="4.73254">
        <ele>171</ele>
        <time>2018-01-19T11:52:49Z</time>
      </trkpt>
      <trkpt lat="45.92413" lon="4.73261">
        <ele>171</ele>
        <time>2018-01-19T11:52:50Z</time>
      </trkpt>
      <trkpt lat="45.92414" lon="4.73267">
        <ele>171</ele>
        <time>2018-01-19T11:52:51Z</time>
      </trkpt>
      <trkpt lat="45.92414" lon="4.73275">
        <ele>171</ele>
        <time>2018-01-19T11:52:52Z</time>
      </trkpt>
      <trkpt lat="45.92414" lon="4.73282">
        <ele>171</ele>
        <time>2018-01-19T11:52:53Z</time>
      </trkpt>
      <trkpt lat="45.92415" lon="4.73288">
        <ele>171</ele>
        <time>2018-01-19T11:52:54Z</time>
      </trkpt>
      <trkpt lat="45.92415" lon="4.73295">
        <ele>171</ele>
        <time>2018-01-19T11:52:55Z</time>
      </trkpt>
      <trkpt lat="45.92416" lon="4.73301">
        <ele>171</ele>
        <time>2018-01-19T11:52:56Z</time>
      </trkpt>
      <trkpt lat="45.92417" lon="4.73308">
        <ele>171</ele>
        <time>2018-01-19T11:52:57Z</time>
      </trkpt>
      <trkpt lat="45.92417" lon="4.73314">
        <ele>171</ele>
        <time>2018-01-19T11:52:58Z</time>
      </trkpt>
      <trkpt lat="45.92418" lon="4.73321">
        <ele>171</ele>
        <time>2018-01-19T11:52:59Z</time>
      </trkpt>
      <trkpt lat="45.92418" lon="4.73328">
        <ele>171</ele>
        <time>2018-01-19T11:53:00Z</time>
      </trkpt>
      <trkpt lat="45.92419" lon="4.73334">
        <ele>171</ele>
        <time>2018-01-19T11:53:01Z</time>
      </trkpt>
      <trkpt lat="45.92419" lon="4.73341">
        <ele>171</ele>
        <time>2018-01-19T11:53:02Z</time>
      </trkpt>
      <trkpt lat="45.92421" lon="4.73353">
        <ele>171</ele>
        <time>2018-01-19T11:53:04Z</time>
      </trkpt>
      <trkpt lat="45.92422" lon="4.73359">
        <ele>171</ele>
        <time>2018-01-19T11:53:05Z</time>
      </trkpt>
      <trkpt lat="45.92423" lon="4.73366">
        <ele>172</ele>
        <time>2018-01-19T11:53:06Z</time>
      </trkpt>
      <trkpt lat="45.92424" lon="4.73373">
        <ele>172</ele>
        <time>2018-01-19T11:53:07Z</time>
      </trkpt>
      <trkpt lat="45.92425" lon="4.73379">
        <ele>172</ele>
        <time>2018-01-19T11:53:08Z</time>
      </trkpt>
      <trkpt lat="45.92427" lon="4.73386">
        <ele>172</ele>
        <time>2018-01-19T11:53:09Z</time>
      </trkpt>
      <trkpt lat="45.92429" lon="4.73393">
        <ele>172</ele>
        <time>2018-01-19T11:53:10Z</time>
      </trkpt>
      <trkpt lat="45.92431" lon="4.73401">
        <ele>172</ele>
        <time>2018-01-19T11:53:11Z</time>
      </trkpt>
      <trkpt lat="45.92433" lon="4.73407">
        <ele>172</ele>
        <time>2018-01-19T11:53:12Z</time>
      </trkpt>
      <trkpt lat="45.92435" lon="4.73413">
        <ele>172</ele>
        <time>2018-01-19T11:53:13Z</time>
      </trkpt>
      <trkpt lat="45.92439" lon="4.73418">
        <ele>173</ele>
        <time>2018-01-19T11:53:14Z</time>
      </trkpt>
      <trkpt lat="45.92443" lon="4.73421">
        <ele>173</ele>
        <time>2018-01-19T11:53:15Z</time>
      </trkpt>
      <trkpt lat="45.92451" lon="4.73426">
        <ele>173</ele>
        <time>2018-01-19T11:53:17Z</time>
      </trkpt>
      <trkpt lat="45.92455" lon="4.73429">
        <ele>173</ele>
        <time>2018-01-19T11:53:18Z</time>
      </trkpt>
      <trkpt lat="45.92459" lon="4.73434">
        <ele>173</ele>
        <time>2018-01-19T11:53:20Z</time>
      </trkpt>
      <trkpt lat="45.92462" lon="4.73441">
        <ele>173</ele>
        <time>2018-01-19T11:53:21Z</time>
      </trkpt>
      <trkpt lat="45.92465" lon="4.73447">
        <ele>173</ele>
        <time>2018-01-19T11:53:22Z</time>
      </trkpt>
      <trkpt lat="45.92467" lon="4.73454">
        <ele>173</ele>
        <time>2018-01-19T11:53:23Z</time>
      </trkpt>
      <trkpt lat="45.92469" lon="4.73461">
        <ele>173</ele>
        <time>2018-01-19T11:53:24Z</time>
      </trkpt>
      <trkpt lat="45.92469" lon="4.73469">
        <ele>173</ele>
        <time>2018-01-19T11:53:25Z</time>
      </trkpt>
      <trkpt lat="45.92469" lon="4.73475">
        <ele>173</ele>
        <time>2018-01-19T11:53:26Z</time>
      </trkpt>
      <trkpt lat="45.92469" lon="4.73482">
        <ele>173</ele>
        <time>2018-01-19T11:53:27Z</time>
      </trkpt>
      <trkpt lat="45.92469" lon="4.7349">
        <ele>173</ele>
        <time>2018-01-19T11:53:28Z</time>
      </trkpt>
      <trkpt lat="45.9247" lon="4.73497">
        <ele>173</ele>
        <time>2018-01-19T11:53:29Z</time>
      </trkpt>
      <trkpt lat="45.9247" lon="4.73509">
        <ele>174</ele>
        <time>2018-01-19T11:53:31Z</time>
      </trkpt>
      <trkpt lat="45.9247" lon="4.73516">
        <ele>174</ele>
        <time>2018-01-19T11:53:32Z</time>
      </trkpt>
      <trkpt lat="45.9247" lon="4.73522">
        <ele>174</ele>
        <time>2018-01-19T11:53:33Z</time>
      </trkpt>
      <trkpt lat="45.92469" lon="4.73529">
        <ele>174</ele>
        <time>2018-01-19T11:53:34Z</time>
      </trkpt>
      <trkpt lat="45.9247" lon="4.73538">
        <ele>174</ele>
        <time>2018-01-19T11:53:36Z</time>
      </trkpt>
      <trkpt lat="45.9247" lon="4.73543">
        <ele>173</ele>
        <time>2018-01-19T11:53:37Z</time>
      </trkpt>
      <trkpt lat="45.92468" lon="4.73554">
        <ele>173</ele>
        <time>2018-01-19T11:53:39Z</time>
      </trkpt>
      <trkpt lat="45.92468" lon="4.73559">
        <ele>173</ele>
        <time>2018-01-19T11:53:40Z</time>
      </trkpt>
      <trkpt lat="45.92467" lon="4.73571">
        <ele>173</ele>
        <time>2018-01-19T11:53:42Z</time>
      </trkpt>
      <trkpt lat="45.92468" lon="4.73576">
        <ele>173</ele>
        <time>2018-01-19T11:53:43Z</time>
      </trkpt>
      <trkpt lat="45.92468" lon="4.73583">
        <ele>173</ele>
        <time>2018-01-19T11:53:44Z</time>
      </trkpt>
      <trkpt lat="45.92468" lon="4.7359">
        <ele>174</ele>
        <time>2018-01-19T11:53:45Z</time>
      </trkpt>
      <trkpt lat="45.9247" lon="4.73597">
        <ele>174</ele>
        <time>2018-01-19T11:53:46Z</time>
      </trkpt>
      <trkpt lat="45.9247" lon="4.73603">
        <ele>174</ele>
        <time>2018-01-19T11:53:47Z</time>
      </trkpt>
      <trkpt lat="45.92471" lon="4.73616">
        <ele>174</ele>
        <time>2018-01-19T11:53:49Z</time>
      </trkpt>
      <trkpt lat="45.92471" lon="4.73623">
        <ele>174</ele>
        <time>2018-01-19T11:53:50Z</time>
      </trkpt>
      <trkpt lat="45.92472" lon="4.73631">
        <ele>174</ele>
        <time>2018-01-19T11:53:51Z</time>
      </trkpt>
      <trkpt lat="45.92472" lon="4.73638">
        <ele>174</ele>
        <time>2018-01-19T11:53:52Z</time>
      </trkpt>
      <trkpt lat="45.92471" lon="4.7365">
        <ele>174</ele>
        <time>2018-01-19T11:53:54Z</time>
      </trkpt>
      <trkpt lat="45.9247" lon="4.73655">
        <ele>174</ele>
        <time>2018-01-19T11:53:55Z</time>
      </trkpt>
      <trkpt lat="45.92468" lon="4.73666">
        <ele>174</ele>
        <time>2018-01-19T11:53:57Z</time>
      </trkpt>
      <trkpt lat="45.92468" lon="4.73672">
        <ele>174</ele>
        <time>2018-01-19T11:53:58Z</time>
      </trkpt>
      <trkpt lat="45.92468" lon="4.73683">
        <ele>174</ele>
        <time>2018-01-19T11:54:00Z</time>
      </trkpt>
      <trkpt lat="45.92466" lon="4.73686">
        <ele>174</ele>
        <time>2018-01-19T11:54:01Z</time>
      </trkpt>
      <trkpt lat="45.92465" lon="4.73699">
        <ele>174</ele>
        <time>2018-01-19T11:54:04Z</time>
      </trkpt>
      <trkpt lat="45.92465" lon="4.73702">
        <ele>174</ele>
        <time>2018-01-19T11:54:05Z</time>
      </trkpt>
      <trkpt lat="45.92461" lon="4.7371">
        <ele>174</ele>
        <time>2018-01-19T11:54:54.171Z</time>
      </trkpt>
    </trkseg>
  </trk>
</gpx>